<?xml version="1.0" encoding="UTF-8" standalone="no" ?>
<gpx xmlns="http://www.topografix.com/GPX/1/1" xmlns:xsi="http://www.w3.org/2001/XMLSchema-instance" xsi:schemaLocation="http://www.topografix.com/GPX/1/1 http://www.topografix.com/GPX/1/1/gpx.xsd" version="1.1" creator="VisuGPX - https://www.visugpx.com">
  <metadata>
    <name>21/02/2021 Col du Donon - Abris Colbery - Petit Donon</name>
  </metadata>
  <trk>
    <name><![CDATA[21/02/2021 Col du Donon - Abris Colbery - Petit Donon_1]]></name>
    <trkseg>
      <trkpt lat="48.50796" lon="7.14621">
        <ele>704</ele>
        <time>2021-02-21T09:16:25.261Z</time>
      </trkpt>
      <trkpt lat="48.50796" lon="7.14621">
        <ele>704</ele>
        <time>2021-02-21T09:16:26.262Z</time>
      </trkpt>
      <trkpt lat="48.50796" lon="7.1462">
        <ele>705</ele>
        <time>2021-02-21T09:16:27.263Z</time>
      </trkpt>
      <trkpt lat="48.50795" lon="7.1462">
        <ele>706</ele>
        <time>2021-02-21T09:16:28.263Z</time>
      </trkpt>
      <trkpt lat="48.50796" lon="7.1462">
        <ele>707</ele>
        <time>2021-02-21T09:16:29.263Z</time>
      </trkpt>
      <trkpt lat="48.50796" lon="7.1462">
        <ele>708</ele>
        <time>2021-02-21T09:16:30.263Z</time>
      </trkpt>
      <trkpt lat="48.50796" lon="7.1462">
        <ele>708</ele>
        <time>2021-02-21T09:16:31.263Z</time>
      </trkpt>
      <trkpt lat="48.50797" lon="7.14621">
        <ele>709</ele>
        <time>2021-02-21T09:16:32.262Z</time>
      </trkpt>
      <trkpt lat="48.50798" lon="7.14622">
        <ele>709</ele>
        <time>2021-02-21T09:16:33.262Z</time>
      </trkpt>
      <trkpt lat="48.50798" lon="7.14623">
        <ele>710</ele>
        <time>2021-02-21T09:16:34.262Z</time>
      </trkpt>
      <trkpt lat="48.50798" lon="7.14624">
        <ele>711</ele>
        <time>2021-02-21T09:16:35.262Z</time>
      </trkpt>
      <trkpt lat="48.50798" lon="7.14626">
        <ele>711</ele>
        <time>2021-02-21T09:16:36.262Z</time>
      </trkpt>
      <trkpt lat="48.50798" lon="7.14627">
        <ele>712</ele>
        <time>2021-02-21T09:16:37.262Z</time>
      </trkpt>
      <trkpt lat="48.50799" lon="7.14629">
        <ele>713</ele>
        <time>2021-02-21T09:16:38.262Z</time>
      </trkpt>
      <trkpt lat="48.508" lon="7.14632">
        <ele>713</ele>
        <time>2021-02-21T09:16:39.262Z</time>
      </trkpt>
      <trkpt lat="48.508" lon="7.14633">
        <ele>714</ele>
        <time>2021-02-21T09:16:40.263Z</time>
      </trkpt>
      <trkpt lat="48.50802" lon="7.14636">
        <ele>715</ele>
        <time>2021-02-21T09:16:41.263Z</time>
      </trkpt>
      <trkpt lat="48.50803" lon="7.14638">
        <ele>716</ele>
        <time>2021-02-21T09:16:42.263Z</time>
      </trkpt>
      <trkpt lat="48.50803" lon="7.1464">
        <ele>717</ele>
        <time>2021-02-21T09:16:43.262Z</time>
      </trkpt>
      <trkpt lat="48.50803" lon="7.14642">
        <ele>718</ele>
        <time>2021-02-21T09:16:44.263Z</time>
      </trkpt>
      <trkpt lat="48.50801" lon="7.14645">
        <ele>719</ele>
        <time>2021-02-21T09:16:45.262Z</time>
      </trkpt>
      <trkpt lat="48.50799" lon="7.14647">
        <ele>720</ele>
        <time>2021-02-21T09:16:46.262Z</time>
      </trkpt>
      <trkpt lat="48.50799" lon="7.14649">
        <ele>721</ele>
        <time>2021-02-21T09:16:47.262Z</time>
      </trkpt>
      <trkpt lat="48.50799" lon="7.14651">
        <ele>722</ele>
        <time>2021-02-21T09:16:48.263Z</time>
      </trkpt>
      <trkpt lat="48.50799" lon="7.14652">
        <ele>722</ele>
        <time>2021-02-21T09:16:49.263Z</time>
      </trkpt>
      <trkpt lat="48.50799" lon="7.14654">
        <ele>723</ele>
        <time>2021-02-21T09:16:50.263Z</time>
      </trkpt>
      <trkpt lat="48.508" lon="7.14655">
        <ele>724</ele>
        <time>2021-02-21T09:16:51.263Z</time>
      </trkpt>
      <trkpt lat="48.508" lon="7.14657">
        <ele>725</ele>
        <time>2021-02-21T09:16:52.263Z</time>
      </trkpt>
      <trkpt lat="48.508" lon="7.14658">
        <ele>726</ele>
        <time>2021-02-21T09:16:53.263Z</time>
      </trkpt>
      <trkpt lat="48.508" lon="7.14659">
        <ele>727</ele>
        <time>2021-02-21T09:16:54.263Z</time>
      </trkpt>
      <trkpt lat="48.508" lon="7.14661">
        <ele>728</ele>
        <time>2021-02-21T09:16:55.262Z</time>
      </trkpt>
      <trkpt lat="48.50799" lon="7.14662">
        <ele>729</ele>
        <time>2021-02-21T09:16:56.262Z</time>
      </trkpt>
      <trkpt lat="48.50799" lon="7.14664">
        <ele>730</ele>
        <time>2021-02-21T09:16:57.263Z</time>
      </trkpt>
      <trkpt lat="48.50799" lon="7.14666">
        <ele>730</ele>
        <time>2021-02-21T09:16:58.263Z</time>
      </trkpt>
      <trkpt lat="48.50799" lon="7.14667">
        <ele>731</ele>
        <time>2021-02-21T09:16:59.262Z</time>
      </trkpt>
      <trkpt lat="48.50798" lon="7.14669">
        <ele>731</ele>
        <time>2021-02-21T09:17:00.262Z</time>
      </trkpt>
      <trkpt lat="48.50798" lon="7.14671">
        <ele>731</ele>
        <time>2021-02-21T09:17:01.263Z</time>
      </trkpt>
      <trkpt lat="48.50799" lon="7.14672">
        <ele>732</ele>
        <time>2021-02-21T09:17:02.263Z</time>
      </trkpt>
      <trkpt lat="48.50799" lon="7.14674">
        <ele>732</ele>
        <time>2021-02-21T09:17:03.263Z</time>
      </trkpt>
      <trkpt lat="48.50799" lon="7.14674">
        <ele>732</ele>
        <time>2021-02-21T09:17:04.263Z</time>
      </trkpt>
      <trkpt lat="48.50799" lon="7.14676">
        <ele>733</ele>
        <time>2021-02-21T09:17:05.263Z</time>
      </trkpt>
      <trkpt lat="48.50799" lon="7.1468">
        <ele>733</ele>
        <time>2021-02-21T09:17:06.263Z</time>
      </trkpt>
      <trkpt lat="48.50799" lon="7.14681">
        <ele>734</ele>
        <time>2021-02-21T09:17:07.263Z</time>
      </trkpt>
      <trkpt lat="48.50799" lon="7.14683">
        <ele>735</ele>
        <time>2021-02-21T09:17:08.262Z</time>
      </trkpt>
      <trkpt lat="48.50799" lon="7.14684">
        <ele>736</ele>
        <time>2021-02-21T09:17:09.262Z</time>
      </trkpt>
      <trkpt lat="48.50799" lon="7.14686">
        <ele>736</ele>
        <time>2021-02-21T09:17:10.263Z</time>
      </trkpt>
      <trkpt lat="48.50799" lon="7.14688">
        <ele>737</ele>
        <time>2021-02-21T09:17:11.263Z</time>
      </trkpt>
      <trkpt lat="48.508" lon="7.1469">
        <ele>738</ele>
        <time>2021-02-21T09:17:12.263Z</time>
      </trkpt>
      <trkpt lat="48.50799" lon="7.14692">
        <ele>738</ele>
        <time>2021-02-21T09:17:13.262Z</time>
      </trkpt>
      <trkpt lat="48.50798" lon="7.14694">
        <ele>739</ele>
        <time>2021-02-21T09:17:14.262Z</time>
      </trkpt>
      <trkpt lat="48.50797" lon="7.14696">
        <ele>739</ele>
        <time>2021-02-21T09:17:15.263Z</time>
      </trkpt>
      <trkpt lat="48.50797" lon="7.14698">
        <ele>739</ele>
        <time>2021-02-21T09:17:16.263Z</time>
      </trkpt>
      <trkpt lat="48.50796" lon="7.147">
        <ele>739</ele>
        <time>2021-02-21T09:17:17.263Z</time>
      </trkpt>
      <trkpt lat="48.50796" lon="7.14702">
        <ele>739</ele>
        <time>2021-02-21T09:17:18.262Z</time>
      </trkpt>
      <trkpt lat="48.50796" lon="7.14703">
        <ele>739</ele>
        <time>2021-02-21T09:17:19.263Z</time>
      </trkpt>
      <trkpt lat="48.50796" lon="7.14705">
        <ele>738</ele>
        <time>2021-02-21T09:17:20.263Z</time>
      </trkpt>
      <trkpt lat="48.50796" lon="7.14706">
        <ele>738</ele>
        <time>2021-02-21T09:17:21.263Z</time>
      </trkpt>
      <trkpt lat="48.50796" lon="7.14708">
        <ele>738</ele>
        <time>2021-02-21T09:17:22.263Z</time>
      </trkpt>
      <trkpt lat="48.50796" lon="7.14709">
        <ele>738</ele>
        <time>2021-02-21T09:17:23.263Z</time>
      </trkpt>
      <trkpt lat="48.50796" lon="7.14711">
        <ele>738</ele>
        <time>2021-02-21T09:17:24.262Z</time>
      </trkpt>
      <trkpt lat="48.50796" lon="7.14713">
        <ele>738</ele>
        <time>2021-02-21T09:17:25.263Z</time>
      </trkpt>
      <trkpt lat="48.50797" lon="7.14714">
        <ele>738</ele>
        <time>2021-02-21T09:17:26.263Z</time>
      </trkpt>
      <trkpt lat="48.50797" lon="7.14716">
        <ele>738</ele>
        <time>2021-02-21T09:17:27.263Z</time>
      </trkpt>
      <trkpt lat="48.50797" lon="7.14717">
        <ele>738</ele>
        <time>2021-02-21T09:17:28.262Z</time>
      </trkpt>
      <trkpt lat="48.50796" lon="7.14719">
        <ele>738</ele>
        <time>2021-02-21T09:17:29.263Z</time>
      </trkpt>
      <trkpt lat="48.50796" lon="7.1472">
        <ele>738</ele>
        <time>2021-02-21T09:17:30.263Z</time>
      </trkpt>
      <trkpt lat="48.50796" lon="7.14722">
        <ele>738</ele>
        <time>2021-02-21T09:17:31.263Z</time>
      </trkpt>
      <trkpt lat="48.50796" lon="7.14723">
        <ele>738</ele>
        <time>2021-02-21T09:17:32.263Z</time>
      </trkpt>
      <trkpt lat="48.50796" lon="7.14724">
        <ele>738</ele>
        <time>2021-02-21T09:17:33.263Z</time>
      </trkpt>
      <trkpt lat="48.50797" lon="7.14726">
        <ele>738</ele>
        <time>2021-02-21T09:17:34.263Z</time>
      </trkpt>
      <trkpt lat="48.50797" lon="7.14727">
        <ele>738</ele>
        <time>2021-02-21T09:17:35.263Z</time>
      </trkpt>
      <trkpt lat="48.50798" lon="7.14729">
        <ele>738</ele>
        <time>2021-02-21T09:17:36.263Z</time>
      </trkpt>
      <trkpt lat="48.50798" lon="7.1473">
        <ele>738</ele>
        <time>2021-02-21T09:17:37.262Z</time>
      </trkpt>
      <trkpt lat="48.50798" lon="7.14731">
        <ele>738</ele>
        <time>2021-02-21T09:17:38.262Z</time>
      </trkpt>
      <trkpt lat="48.50798" lon="7.14731">
        <ele>738</ele>
        <time>2021-02-21T09:17:39.262Z</time>
      </trkpt>
      <trkpt lat="48.50798" lon="7.14733">
        <ele>738</ele>
        <time>2021-02-21T09:17:40.262Z</time>
      </trkpt>
      <trkpt lat="48.50798" lon="7.14734">
        <ele>738</ele>
        <time>2021-02-21T09:17:41.262Z</time>
      </trkpt>
      <trkpt lat="48.50799" lon="7.14736">
        <ele>738</ele>
        <time>2021-02-21T09:17:42.262Z</time>
      </trkpt>
      <trkpt lat="48.50799" lon="7.14738">
        <ele>738</ele>
        <time>2021-02-21T09:17:43.262Z</time>
      </trkpt>
      <trkpt lat="48.50799" lon="7.1474">
        <ele>738</ele>
        <time>2021-02-21T09:17:44.262Z</time>
      </trkpt>
      <trkpt lat="48.50799" lon="7.14742">
        <ele>738</ele>
        <time>2021-02-21T09:17:45.263Z</time>
      </trkpt>
      <trkpt lat="48.50799" lon="7.14744">
        <ele>739</ele>
        <time>2021-02-21T09:17:46.263Z</time>
      </trkpt>
      <trkpt lat="48.508" lon="7.14746">
        <ele>739</ele>
        <time>2021-02-21T09:17:47.262Z</time>
      </trkpt>
      <trkpt lat="48.508" lon="7.14748">
        <ele>739</ele>
        <time>2021-02-21T09:17:48.263Z</time>
      </trkpt>
      <trkpt lat="48.50801" lon="7.14749">
        <ele>740</ele>
        <time>2021-02-21T09:17:49.263Z</time>
      </trkpt>
      <trkpt lat="48.50801" lon="7.14752">
        <ele>740</ele>
        <time>2021-02-21T09:17:50.263Z</time>
      </trkpt>
      <trkpt lat="48.50802" lon="7.14754">
        <ele>740</ele>
        <time>2021-02-21T09:17:51.263Z</time>
      </trkpt>
      <trkpt lat="48.50801" lon="7.14756">
        <ele>740</ele>
        <time>2021-02-21T09:17:52.263Z</time>
      </trkpt>
      <trkpt lat="48.50801" lon="7.14758">
        <ele>740</ele>
        <time>2021-02-21T09:17:53.263Z</time>
      </trkpt>
      <trkpt lat="48.50801" lon="7.1476">
        <ele>740</ele>
        <time>2021-02-21T09:17:54.262Z</time>
      </trkpt>
      <trkpt lat="48.50801" lon="7.14761">
        <ele>740</ele>
        <time>2021-02-21T09:17:55.263Z</time>
      </trkpt>
      <trkpt lat="48.508" lon="7.14763">
        <ele>740</ele>
        <time>2021-02-21T09:17:56.262Z</time>
      </trkpt>
      <trkpt lat="48.508" lon="7.14765">
        <ele>740</ele>
        <time>2021-02-21T09:17:57.263Z</time>
      </trkpt>
      <trkpt lat="48.508" lon="7.14767">
        <ele>740</ele>
        <time>2021-02-21T09:17:58.263Z</time>
      </trkpt>
      <trkpt lat="48.50801" lon="7.1477">
        <ele>740</ele>
        <time>2021-02-21T09:17:59.262Z</time>
      </trkpt>
      <trkpt lat="48.50801" lon="7.14772">
        <ele>741</ele>
        <time>2021-02-21T09:18:00.263Z</time>
      </trkpt>
      <trkpt lat="48.50801" lon="7.14774">
        <ele>741</ele>
        <time>2021-02-21T09:18:01.263Z</time>
      </trkpt>
      <trkpt lat="48.50802" lon="7.14776">
        <ele>741</ele>
        <time>2021-02-21T09:18:02.262Z</time>
      </trkpt>
      <trkpt lat="48.50802" lon="7.14778">
        <ele>742</ele>
        <time>2021-02-21T09:18:03.263Z</time>
      </trkpt>
      <trkpt lat="48.50802" lon="7.1478">
        <ele>742</ele>
        <time>2021-02-21T09:18:04.263Z</time>
      </trkpt>
      <trkpt lat="48.50803" lon="7.14781">
        <ele>743</ele>
        <time>2021-02-21T09:18:05.263Z</time>
      </trkpt>
      <trkpt lat="48.50803" lon="7.14783">
        <ele>743</ele>
        <time>2021-02-21T09:18:06.263Z</time>
      </trkpt>
      <trkpt lat="48.50803" lon="7.14785">
        <ele>743</ele>
        <time>2021-02-21T09:18:07.263Z</time>
      </trkpt>
      <trkpt lat="48.50803" lon="7.14787">
        <ele>743</ele>
        <time>2021-02-21T09:18:08.263Z</time>
      </trkpt>
      <trkpt lat="48.50804" lon="7.14789">
        <ele>743</ele>
        <time>2021-02-21T09:18:09.262Z</time>
      </trkpt>
      <trkpt lat="48.50805" lon="7.14791">
        <ele>743</ele>
        <time>2021-02-21T09:18:10.263Z</time>
      </trkpt>
      <trkpt lat="48.50805" lon="7.14793">
        <ele>744</ele>
        <time>2021-02-21T09:18:11.263Z</time>
      </trkpt>
      <trkpt lat="48.50805" lon="7.14795">
        <ele>744</ele>
        <time>2021-02-21T09:18:12.263Z</time>
      </trkpt>
      <trkpt lat="48.50805" lon="7.14797">
        <ele>744</ele>
        <time>2021-02-21T09:18:13.262Z</time>
      </trkpt>
      <trkpt lat="48.50805" lon="7.14799">
        <ele>744</ele>
        <time>2021-02-21T09:18:14.263Z</time>
      </trkpt>
      <trkpt lat="48.50805" lon="7.14801">
        <ele>744</ele>
        <time>2021-02-21T09:18:15.262Z</time>
      </trkpt>
      <trkpt lat="48.50805" lon="7.14803">
        <ele>743</ele>
        <time>2021-02-21T09:18:16.262Z</time>
      </trkpt>
      <trkpt lat="48.50805" lon="7.14804">
        <ele>743</ele>
        <time>2021-02-21T09:18:17.263Z</time>
      </trkpt>
      <trkpt lat="48.50806" lon="7.14806">
        <ele>743</ele>
        <time>2021-02-21T09:18:18.263Z</time>
      </trkpt>
      <trkpt lat="48.50806" lon="7.14808">
        <ele>742</ele>
        <time>2021-02-21T09:18:19.263Z</time>
      </trkpt>
      <trkpt lat="48.50806" lon="7.1481">
        <ele>742</ele>
        <time>2021-02-21T09:18:20.263Z</time>
      </trkpt>
      <trkpt lat="48.50806" lon="7.14811">
        <ele>742</ele>
        <time>2021-02-21T09:18:21.262Z</time>
      </trkpt>
      <trkpt lat="48.50806" lon="7.14813">
        <ele>742</ele>
        <time>2021-02-21T09:18:22.263Z</time>
      </trkpt>
      <trkpt lat="48.50806" lon="7.14815">
        <ele>742</ele>
        <time>2021-02-21T09:18:23.262Z</time>
      </trkpt>
      <trkpt lat="48.50806" lon="7.14817">
        <ele>743</ele>
        <time>2021-02-21T09:18:24.263Z</time>
      </trkpt>
      <trkpt lat="48.50806" lon="7.14819">
        <ele>743</ele>
        <time>2021-02-21T09:18:25.262Z</time>
      </trkpt>
      <trkpt lat="48.50806" lon="7.14821">
        <ele>743</ele>
        <time>2021-02-21T09:18:26.263Z</time>
      </trkpt>
      <trkpt lat="48.50806" lon="7.14823">
        <ele>743</ele>
        <time>2021-02-21T09:18:27.263Z</time>
      </trkpt>
      <trkpt lat="48.50806" lon="7.14825">
        <ele>743</ele>
        <time>2021-02-21T09:18:28.263Z</time>
      </trkpt>
      <trkpt lat="48.50806" lon="7.14827">
        <ele>743</ele>
        <time>2021-02-21T09:18:29.262Z</time>
      </trkpt>
      <trkpt lat="48.50806" lon="7.14829">
        <ele>744</ele>
        <time>2021-02-21T09:18:30.263Z</time>
      </trkpt>
      <trkpt lat="48.50807" lon="7.14831">
        <ele>744</ele>
        <time>2021-02-21T09:18:31.263Z</time>
      </trkpt>
      <trkpt lat="48.50807" lon="7.14832">
        <ele>744</ele>
        <time>2021-02-21T09:18:32.263Z</time>
      </trkpt>
      <trkpt lat="48.50808" lon="7.14834">
        <ele>744</ele>
        <time>2021-02-21T09:18:33.263Z</time>
      </trkpt>
      <trkpt lat="48.50809" lon="7.14835">
        <ele>744</ele>
        <time>2021-02-21T09:18:34.263Z</time>
      </trkpt>
      <trkpt lat="48.5081" lon="7.14837">
        <ele>744</ele>
        <time>2021-02-21T09:18:35.263Z</time>
      </trkpt>
      <trkpt lat="48.5081" lon="7.14839">
        <ele>745</ele>
        <time>2021-02-21T09:18:36.263Z</time>
      </trkpt>
      <trkpt lat="48.5081" lon="7.14841">
        <ele>745</ele>
        <time>2021-02-21T09:18:37.263Z</time>
      </trkpt>
      <trkpt lat="48.50811" lon="7.14843">
        <ele>745</ele>
        <time>2021-02-21T09:18:38.262Z</time>
      </trkpt>
      <trkpt lat="48.50812" lon="7.14845">
        <ele>746</ele>
        <time>2021-02-21T09:18:39.263Z</time>
      </trkpt>
      <trkpt lat="48.50813" lon="7.14846">
        <ele>746</ele>
        <time>2021-02-21T09:18:40.263Z</time>
      </trkpt>
      <trkpt lat="48.50813" lon="7.14848">
        <ele>747</ele>
        <time>2021-02-21T09:18:41.263Z</time>
      </trkpt>
      <trkpt lat="48.50814" lon="7.1485">
        <ele>747</ele>
        <time>2021-02-21T09:18:42.263Z</time>
      </trkpt>
      <trkpt lat="48.50814" lon="7.14852">
        <ele>747</ele>
        <time>2021-02-21T09:18:43.263Z</time>
      </trkpt>
      <trkpt lat="48.50814" lon="7.14853">
        <ele>747</ele>
        <time>2021-02-21T09:18:44.263Z</time>
      </trkpt>
      <trkpt lat="48.50814" lon="7.14855">
        <ele>747</ele>
        <time>2021-02-21T09:18:45.263Z</time>
      </trkpt>
      <trkpt lat="48.50814" lon="7.14857">
        <ele>746</ele>
        <time>2021-02-21T09:18:46.263Z</time>
      </trkpt>
      <trkpt lat="48.50814" lon="7.14859">
        <ele>746</ele>
        <time>2021-02-21T09:18:47.263Z</time>
      </trkpt>
      <trkpt lat="48.50815" lon="7.1486">
        <ele>746</ele>
        <time>2021-02-21T09:18:48.263Z</time>
      </trkpt>
      <trkpt lat="48.50815" lon="7.14862">
        <ele>746</ele>
        <time>2021-02-21T09:18:49.263Z</time>
      </trkpt>
      <trkpt lat="48.50815" lon="7.14863">
        <ele>746</ele>
        <time>2021-02-21T09:18:50.263Z</time>
      </trkpt>
      <trkpt lat="48.50815" lon="7.14865">
        <ele>746</ele>
        <time>2021-02-21T09:18:51.263Z</time>
      </trkpt>
      <trkpt lat="48.50815" lon="7.14867">
        <ele>746</ele>
        <time>2021-02-21T09:18:52.263Z</time>
      </trkpt>
      <trkpt lat="48.50815" lon="7.14869">
        <ele>746</ele>
        <time>2021-02-21T09:18:53.262Z</time>
      </trkpt>
      <trkpt lat="48.50815" lon="7.1487">
        <ele>746</ele>
        <time>2021-02-21T09:18:54.263Z</time>
      </trkpt>
      <trkpt lat="48.50815" lon="7.14872">
        <ele>746</ele>
        <time>2021-02-21T09:18:55.263Z</time>
      </trkpt>
      <trkpt lat="48.50816" lon="7.14874">
        <ele>746</ele>
        <time>2021-02-21T09:18:56.263Z</time>
      </trkpt>
      <trkpt lat="48.50816" lon="7.14875">
        <ele>746</ele>
        <time>2021-02-21T09:18:57.263Z</time>
      </trkpt>
      <trkpt lat="48.50816" lon="7.14877">
        <ele>746</ele>
        <time>2021-02-21T09:18:58.263Z</time>
      </trkpt>
      <trkpt lat="48.50816" lon="7.14879">
        <ele>746</ele>
        <time>2021-02-21T09:18:59.262Z</time>
      </trkpt>
      <trkpt lat="48.50816" lon="7.14881">
        <ele>746</ele>
        <time>2021-02-21T09:19:00.262Z</time>
      </trkpt>
      <trkpt lat="48.50816" lon="7.14883">
        <ele>746</ele>
        <time>2021-02-21T09:19:01.263Z</time>
      </trkpt>
      <trkpt lat="48.50817" lon="7.14885">
        <ele>747</ele>
        <time>2021-02-21T09:19:02.263Z</time>
      </trkpt>
      <trkpt lat="48.50817" lon="7.14887">
        <ele>747</ele>
        <time>2021-02-21T09:19:03.263Z</time>
      </trkpt>
      <trkpt lat="48.50817" lon="7.14888">
        <ele>746</ele>
        <time>2021-02-21T09:19:04.263Z</time>
      </trkpt>
      <trkpt lat="48.50816" lon="7.14891">
        <ele>746</ele>
        <time>2021-02-21T09:19:05.263Z</time>
      </trkpt>
      <trkpt lat="48.50816" lon="7.14893">
        <ele>746</ele>
        <time>2021-02-21T09:19:06.263Z</time>
      </trkpt>
      <trkpt lat="48.50816" lon="7.14895">
        <ele>745</ele>
        <time>2021-02-21T09:19:07.263Z</time>
      </trkpt>
      <trkpt lat="48.50816" lon="7.14897">
        <ele>745</ele>
        <time>2021-02-21T09:19:08.263Z</time>
      </trkpt>
      <trkpt lat="48.50816" lon="7.14898">
        <ele>746</ele>
        <time>2021-02-21T09:19:09.263Z</time>
      </trkpt>
      <trkpt lat="48.50816" lon="7.149">
        <ele>746</ele>
        <time>2021-02-21T09:19:10.263Z</time>
      </trkpt>
      <trkpt lat="48.50817" lon="7.14902">
        <ele>746</ele>
        <time>2021-02-21T09:19:11.263Z</time>
      </trkpt>
      <trkpt lat="48.50817" lon="7.14903">
        <ele>746</ele>
        <time>2021-02-21T09:19:12.263Z</time>
      </trkpt>
      <trkpt lat="48.50816" lon="7.14905">
        <ele>746</ele>
        <time>2021-02-21T09:19:13.263Z</time>
      </trkpt>
      <trkpt lat="48.50816" lon="7.14907">
        <ele>746</ele>
        <time>2021-02-21T09:19:14.263Z</time>
      </trkpt>
      <trkpt lat="48.50817" lon="7.14908">
        <ele>746</ele>
        <time>2021-02-21T09:19:15.263Z</time>
      </trkpt>
      <trkpt lat="48.50817" lon="7.1491">
        <ele>746</ele>
        <time>2021-02-21T09:19:16.263Z</time>
      </trkpt>
      <trkpt lat="48.50817" lon="7.14912">
        <ele>746</ele>
        <time>2021-02-21T09:19:17.263Z</time>
      </trkpt>
      <trkpt lat="48.50817" lon="7.14914">
        <ele>745</ele>
        <time>2021-02-21T09:19:18.263Z</time>
      </trkpt>
      <trkpt lat="48.50818" lon="7.14916">
        <ele>745</ele>
        <time>2021-02-21T09:19:19.263Z</time>
      </trkpt>
      <trkpt lat="48.50818" lon="7.14918">
        <ele>746</ele>
        <time>2021-02-21T09:19:20.263Z</time>
      </trkpt>
      <trkpt lat="48.50818" lon="7.1492">
        <ele>745</ele>
        <time>2021-02-21T09:19:21.263Z</time>
      </trkpt>
      <trkpt lat="48.50818" lon="7.14922">
        <ele>745</ele>
        <time>2021-02-21T09:19:22.263Z</time>
      </trkpt>
      <trkpt lat="48.50818" lon="7.14923">
        <ele>745</ele>
        <time>2021-02-21T09:19:23.262Z</time>
      </trkpt>
      <trkpt lat="48.50818" lon="7.14925">
        <ele>745</ele>
        <time>2021-02-21T09:19:24.263Z</time>
      </trkpt>
      <trkpt lat="48.50818" lon="7.14927">
        <ele>745</ele>
        <time>2021-02-21T09:19:25.263Z</time>
      </trkpt>
      <trkpt lat="48.50819" lon="7.14929">
        <ele>745</ele>
        <time>2021-02-21T09:19:26.263Z</time>
      </trkpt>
      <trkpt lat="48.50818" lon="7.14931">
        <ele>745</ele>
        <time>2021-02-21T09:19:27.262Z</time>
      </trkpt>
      <trkpt lat="48.50819" lon="7.14933">
        <ele>746</ele>
        <time>2021-02-21T09:19:28.262Z</time>
      </trkpt>
      <trkpt lat="48.50819" lon="7.14935">
        <ele>746</ele>
        <time>2021-02-21T09:19:29.263Z</time>
      </trkpt>
      <trkpt lat="48.5082" lon="7.14936">
        <ele>746</ele>
        <time>2021-02-21T09:19:30.263Z</time>
      </trkpt>
      <trkpt lat="48.5082" lon="7.14938">
        <ele>746</ele>
        <time>2021-02-21T09:19:31.263Z</time>
      </trkpt>
      <trkpt lat="48.50821" lon="7.1494">
        <ele>746</ele>
        <time>2021-02-21T09:19:32.263Z</time>
      </trkpt>
      <trkpt lat="48.5082" lon="7.14943">
        <ele>747</ele>
        <time>2021-02-21T09:19:33.262Z</time>
      </trkpt>
      <trkpt lat="48.5082" lon="7.14945">
        <ele>747</ele>
        <time>2021-02-21T09:19:34.263Z</time>
      </trkpt>
      <trkpt lat="48.5082" lon="7.14947">
        <ele>747</ele>
        <time>2021-02-21T09:19:35.263Z</time>
      </trkpt>
      <trkpt lat="48.5082" lon="7.14949">
        <ele>747</ele>
        <time>2021-02-21T09:19:36.263Z</time>
      </trkpt>
      <trkpt lat="48.50819" lon="7.14951">
        <ele>748</ele>
        <time>2021-02-21T09:19:37.263Z</time>
      </trkpt>
      <trkpt lat="48.50817" lon="7.14954">
        <ele>748</ele>
        <time>2021-02-21T09:19:38.262Z</time>
      </trkpt>
      <trkpt lat="48.50817" lon="7.14956">
        <ele>748</ele>
        <time>2021-02-21T09:19:39.262Z</time>
      </trkpt>
      <trkpt lat="48.50817" lon="7.14957">
        <ele>749</ele>
        <time>2021-02-21T09:19:40.263Z</time>
      </trkpt>
      <trkpt lat="48.50815" lon="7.14959">
        <ele>749</ele>
        <time>2021-02-21T09:19:41.263Z</time>
      </trkpt>
      <trkpt lat="48.50815" lon="7.14959">
        <ele>748</ele>
        <time>2021-02-21T09:19:42.263Z</time>
      </trkpt>
      <trkpt lat="48.50815" lon="7.14959">
        <ele>748</ele>
        <time>2021-02-21T09:19:43.262Z</time>
      </trkpt>
      <trkpt lat="48.50814" lon="7.14958">
        <ele>747</ele>
        <time>2021-02-21T09:19:44.262Z</time>
      </trkpt>
      <trkpt lat="48.50813" lon="7.14958">
        <ele>746</ele>
        <time>2021-02-21T09:19:45.263Z</time>
      </trkpt>
      <trkpt lat="48.50812" lon="7.14959">
        <ele>746</ele>
        <time>2021-02-21T09:19:46.262Z</time>
      </trkpt>
      <trkpt lat="48.50811" lon="7.1496">
        <ele>745</ele>
        <time>2021-02-21T09:19:47.263Z</time>
      </trkpt>
      <trkpt lat="48.50811" lon="7.14961">
        <ele>745</ele>
        <time>2021-02-21T09:19:48.263Z</time>
      </trkpt>
      <trkpt lat="48.50811" lon="7.14962">
        <ele>745</ele>
        <time>2021-02-21T09:19:49.263Z</time>
      </trkpt>
      <trkpt lat="48.5081" lon="7.14964">
        <ele>744</ele>
        <time>2021-02-21T09:19:50.263Z</time>
      </trkpt>
      <trkpt lat="48.5081" lon="7.14965">
        <ele>744</ele>
        <time>2021-02-21T09:19:51.263Z</time>
      </trkpt>
      <trkpt lat="48.5081" lon="7.14966">
        <ele>744</ele>
        <time>2021-02-21T09:19:52.262Z</time>
      </trkpt>
      <trkpt lat="48.5081" lon="7.14967">
        <ele>744</ele>
        <time>2021-02-21T09:19:53.262Z</time>
      </trkpt>
      <trkpt lat="48.5081" lon="7.14968">
        <ele>744</ele>
        <time>2021-02-21T09:19:54.263Z</time>
      </trkpt>
      <trkpt lat="48.50809" lon="7.14969">
        <ele>745</ele>
        <time>2021-02-21T09:19:55.263Z</time>
      </trkpt>
      <trkpt lat="48.50809" lon="7.1497">
        <ele>745</ele>
        <time>2021-02-21T09:19:56.263Z</time>
      </trkpt>
      <trkpt lat="48.50809" lon="7.14972">
        <ele>745</ele>
        <time>2021-02-21T09:19:57.263Z</time>
      </trkpt>
      <trkpt lat="48.50809" lon="7.14973">
        <ele>745</ele>
        <time>2021-02-21T09:19:58.263Z</time>
      </trkpt>
      <trkpt lat="48.50809" lon="7.14975">
        <ele>745</ele>
        <time>2021-02-21T09:19:59.262Z</time>
      </trkpt>
      <trkpt lat="48.50809" lon="7.14976">
        <ele>745</ele>
        <time>2021-02-21T09:20:00.263Z</time>
      </trkpt>
      <trkpt lat="48.50808" lon="7.14978">
        <ele>746</ele>
        <time>2021-02-21T09:20:01.263Z</time>
      </trkpt>
      <trkpt lat="48.50808" lon="7.1498">
        <ele>746</ele>
        <time>2021-02-21T09:20:02.263Z</time>
      </trkpt>
      <trkpt lat="48.50808" lon="7.14982">
        <ele>746</ele>
        <time>2021-02-21T09:20:03.263Z</time>
      </trkpt>
      <trkpt lat="48.50808" lon="7.14983">
        <ele>746</ele>
        <time>2021-02-21T09:20:04.262Z</time>
      </trkpt>
      <trkpt lat="48.50808" lon="7.14985">
        <ele>746</ele>
        <time>2021-02-21T09:20:05.262Z</time>
      </trkpt>
      <trkpt lat="48.50808" lon="7.14987">
        <ele>746</ele>
        <time>2021-02-21T09:20:06.262Z</time>
      </trkpt>
      <trkpt lat="48.50808" lon="7.14989">
        <ele>746</ele>
        <time>2021-02-21T09:20:07.262Z</time>
      </trkpt>
      <trkpt lat="48.50808" lon="7.1499">
        <ele>747</ele>
        <time>2021-02-21T09:20:08.262Z</time>
      </trkpt>
      <trkpt lat="48.50808" lon="7.14992">
        <ele>747</ele>
        <time>2021-02-21T09:20:09.262Z</time>
      </trkpt>
      <trkpt lat="48.50808" lon="7.14994">
        <ele>747</ele>
        <time>2021-02-21T09:20:10.263Z</time>
      </trkpt>
      <trkpt lat="48.50808" lon="7.14996">
        <ele>747</ele>
        <time>2021-02-21T09:20:11.263Z</time>
      </trkpt>
      <trkpt lat="48.50808" lon="7.14998">
        <ele>748</ele>
        <time>2021-02-21T09:20:12.263Z</time>
      </trkpt>
      <trkpt lat="48.50808" lon="7.14999">
        <ele>748</ele>
        <time>2021-02-21T09:20:13.263Z</time>
      </trkpt>
      <trkpt lat="48.50808" lon="7.15001">
        <ele>749</ele>
        <time>2021-02-21T09:20:14.263Z</time>
      </trkpt>
      <trkpt lat="48.50807" lon="7.15003">
        <ele>749</ele>
        <time>2021-02-21T09:20:15.262Z</time>
      </trkpt>
      <trkpt lat="48.50807" lon="7.15005">
        <ele>749</ele>
        <time>2021-02-21T09:20:16.262Z</time>
      </trkpt>
      <trkpt lat="48.50806" lon="7.15006">
        <ele>749</ele>
        <time>2021-02-21T09:20:17.262Z</time>
      </trkpt>
      <trkpt lat="48.50806" lon="7.15008">
        <ele>750</ele>
        <time>2021-02-21T09:20:18.263Z</time>
      </trkpt>
      <trkpt lat="48.50805" lon="7.1501">
        <ele>749</ele>
        <time>2021-02-21T09:20:19.263Z</time>
      </trkpt>
      <trkpt lat="48.50805" lon="7.15011">
        <ele>749</ele>
        <time>2021-02-21T09:20:20.263Z</time>
      </trkpt>
      <trkpt lat="48.50805" lon="7.15012">
        <ele>749</ele>
        <time>2021-02-21T09:20:21.263Z</time>
      </trkpt>
      <trkpt lat="48.50804" lon="7.15014">
        <ele>749</ele>
        <time>2021-02-21T09:20:22.263Z</time>
      </trkpt>
      <trkpt lat="48.50804" lon="7.15016">
        <ele>749</ele>
        <time>2021-02-21T09:20:23.263Z</time>
      </trkpt>
      <trkpt lat="48.50804" lon="7.15017">
        <ele>749</ele>
        <time>2021-02-21T09:20:24.263Z</time>
      </trkpt>
      <trkpt lat="48.50803" lon="7.15019">
        <ele>749</ele>
        <time>2021-02-21T09:20:25.263Z</time>
      </trkpt>
      <trkpt lat="48.50803" lon="7.1502">
        <ele>749</ele>
        <time>2021-02-21T09:20:26.263Z</time>
      </trkpt>
      <trkpt lat="48.50802" lon="7.15022">
        <ele>749</ele>
        <time>2021-02-21T09:20:27.263Z</time>
      </trkpt>
      <trkpt lat="48.50802" lon="7.15023">
        <ele>749</ele>
        <time>2021-02-21T09:20:28.263Z</time>
      </trkpt>
      <trkpt lat="48.50801" lon="7.15025">
        <ele>749</ele>
        <time>2021-02-21T09:20:29.263Z</time>
      </trkpt>
      <trkpt lat="48.508" lon="7.15027">
        <ele>749</ele>
        <time>2021-02-21T09:20:30.263Z</time>
      </trkpt>
      <trkpt lat="48.508" lon="7.15029">
        <ele>749</ele>
        <time>2021-02-21T09:20:31.263Z</time>
      </trkpt>
      <trkpt lat="48.50799" lon="7.15031">
        <ele>750</ele>
        <time>2021-02-21T09:20:32.263Z</time>
      </trkpt>
      <trkpt lat="48.50799" lon="7.15032">
        <ele>750</ele>
        <time>2021-02-21T09:20:33.263Z</time>
      </trkpt>
      <trkpt lat="48.50798" lon="7.15034">
        <ele>750</ele>
        <time>2021-02-21T09:20:34.262Z</time>
      </trkpt>
      <trkpt lat="48.50797" lon="7.15035">
        <ele>751</ele>
        <time>2021-02-21T09:20:35.263Z</time>
      </trkpt>
      <trkpt lat="48.50796" lon="7.15037">
        <ele>751</ele>
        <time>2021-02-21T09:20:36.262Z</time>
      </trkpt>
      <trkpt lat="48.50796" lon="7.15038">
        <ele>751</ele>
        <time>2021-02-21T09:20:37.263Z</time>
      </trkpt>
      <trkpt lat="48.50795" lon="7.1504">
        <ele>751</ele>
        <time>2021-02-21T09:20:38.263Z</time>
      </trkpt>
      <trkpt lat="48.50794" lon="7.15042">
        <ele>752</ele>
        <time>2021-02-21T09:20:39.262Z</time>
      </trkpt>
      <trkpt lat="48.50793" lon="7.15043">
        <ele>752</ele>
        <time>2021-02-21T09:20:40.263Z</time>
      </trkpt>
      <trkpt lat="48.50792" lon="7.15045">
        <ele>752</ele>
        <time>2021-02-21T09:20:41.263Z</time>
      </trkpt>
      <trkpt lat="48.50791" lon="7.15046">
        <ele>752</ele>
        <time>2021-02-21T09:20:42.263Z</time>
      </trkpt>
      <trkpt lat="48.5079" lon="7.15048">
        <ele>752</ele>
        <time>2021-02-21T09:20:43.263Z</time>
      </trkpt>
      <trkpt lat="48.5079" lon="7.15049">
        <ele>752</ele>
        <time>2021-02-21T09:20:44.263Z</time>
      </trkpt>
      <trkpt lat="48.50788" lon="7.15052">
        <ele>752</ele>
        <time>2021-02-21T09:20:45.263Z</time>
      </trkpt>
      <trkpt lat="48.50786" lon="7.15054">
        <ele>752</ele>
        <time>2021-02-21T09:20:46.263Z</time>
      </trkpt>
      <trkpt lat="48.50786" lon="7.15055">
        <ele>752</ele>
        <time>2021-02-21T09:20:47.263Z</time>
      </trkpt>
      <trkpt lat="48.50785" lon="7.15057">
        <ele>753</ele>
        <time>2021-02-21T09:20:48.263Z</time>
      </trkpt>
      <trkpt lat="48.50784" lon="7.15058">
        <ele>753</ele>
        <time>2021-02-21T09:20:49.263Z</time>
      </trkpt>
      <trkpt lat="48.50784" lon="7.1506">
        <ele>754</ele>
        <time>2021-02-21T09:20:50.263Z</time>
      </trkpt>
      <trkpt lat="48.50783" lon="7.15061">
        <ele>754</ele>
        <time>2021-02-21T09:20:51.262Z</time>
      </trkpt>
      <trkpt lat="48.50782" lon="7.15063">
        <ele>754</ele>
        <time>2021-02-21T09:20:52.263Z</time>
      </trkpt>
      <trkpt lat="48.50782" lon="7.15064">
        <ele>754</ele>
        <time>2021-02-21T09:20:53.263Z</time>
      </trkpt>
      <trkpt lat="48.50781" lon="7.15065">
        <ele>755</ele>
        <time>2021-02-21T09:20:54.263Z</time>
      </trkpt>
      <trkpt lat="48.5078" lon="7.15066">
        <ele>755</ele>
        <time>2021-02-21T09:20:55.263Z</time>
      </trkpt>
      <trkpt lat="48.5078" lon="7.15068">
        <ele>756</ele>
        <time>2021-02-21T09:20:56.263Z</time>
      </trkpt>
      <trkpt lat="48.50779" lon="7.15069">
        <ele>756</ele>
        <time>2021-02-21T09:20:57.263Z</time>
      </trkpt>
      <trkpt lat="48.50778" lon="7.15071">
        <ele>757</ele>
        <time>2021-02-21T09:20:58.263Z</time>
      </trkpt>
      <trkpt lat="48.50777" lon="7.15072">
        <ele>757</ele>
        <time>2021-02-21T09:20:59.263Z</time>
      </trkpt>
      <trkpt lat="48.50777" lon="7.15072">
        <ele>757</ele>
        <time>2021-02-21T09:21:00.263Z</time>
      </trkpt>
      <trkpt lat="48.50777" lon="7.15073">
        <ele>758</ele>
        <time>2021-02-21T09:21:01.262Z</time>
      </trkpt>
      <trkpt lat="48.50777" lon="7.15073">
        <ele>758</ele>
        <time>2021-02-21T09:21:02.263Z</time>
      </trkpt>
      <trkpt lat="48.50776" lon="7.15074">
        <ele>759</ele>
        <time>2021-02-21T09:21:03.263Z</time>
      </trkpt>
      <trkpt lat="48.50776" lon="7.15074">
        <ele>759</ele>
        <time>2021-02-21T09:21:04.263Z</time>
      </trkpt>
      <trkpt lat="48.50775" lon="7.15074">
        <ele>759</ele>
        <time>2021-02-21T09:21:05.262Z</time>
      </trkpt>
      <trkpt lat="48.50775" lon="7.15074">
        <ele>760</ele>
        <time>2021-02-21T09:21:06.262Z</time>
      </trkpt>
      <trkpt lat="48.50774" lon="7.15074">
        <ele>762</ele>
        <time>2021-02-21T09:21:07.263Z</time>
      </trkpt>
      <trkpt lat="48.50774" lon="7.15075">
        <ele>762</ele>
        <time>2021-02-21T09:21:08.263Z</time>
      </trkpt>
      <trkpt lat="48.50773" lon="7.15076">
        <ele>762</ele>
        <time>2021-02-21T09:21:09.263Z</time>
      </trkpt>
      <trkpt lat="48.50773" lon="7.15078">
        <ele>763</ele>
        <time>2021-02-21T09:21:10.263Z</time>
      </trkpt>
      <trkpt lat="48.50772" lon="7.15079">
        <ele>763</ele>
        <time>2021-02-21T09:21:11.263Z</time>
      </trkpt>
      <trkpt lat="48.50771" lon="7.15081">
        <ele>763</ele>
        <time>2021-02-21T09:21:12.263Z</time>
      </trkpt>
      <trkpt lat="48.50771" lon="7.15082">
        <ele>763</ele>
        <time>2021-02-21T09:21:13.263Z</time>
      </trkpt>
      <trkpt lat="48.5077" lon="7.15084">
        <ele>762</ele>
        <time>2021-02-21T09:21:14.262Z</time>
      </trkpt>
      <trkpt lat="48.5077" lon="7.15086">
        <ele>762</ele>
        <time>2021-02-21T09:21:15.263Z</time>
      </trkpt>
      <trkpt lat="48.50769" lon="7.15088">
        <ele>762</ele>
        <time>2021-02-21T09:21:16.262Z</time>
      </trkpt>
      <trkpt lat="48.50768" lon="7.15089">
        <ele>762</ele>
        <time>2021-02-21T09:21:17.263Z</time>
      </trkpt>
      <trkpt lat="48.50768" lon="7.15091">
        <ele>762</ele>
        <time>2021-02-21T09:21:18.263Z</time>
      </trkpt>
      <trkpt lat="48.50767" lon="7.15093">
        <ele>762</ele>
        <time>2021-02-21T09:21:19.263Z</time>
      </trkpt>
      <trkpt lat="48.50767" lon="7.15095">
        <ele>762</ele>
        <time>2021-02-21T09:21:20.263Z</time>
      </trkpt>
      <trkpt lat="48.50766" lon="7.15097">
        <ele>762</ele>
        <time>2021-02-21T09:21:21.263Z</time>
      </trkpt>
      <trkpt lat="48.50766" lon="7.15098">
        <ele>761</ele>
        <time>2021-02-21T09:21:22.263Z</time>
      </trkpt>
      <trkpt lat="48.50765" lon="7.151">
        <ele>761</ele>
        <time>2021-02-21T09:21:23.263Z</time>
      </trkpt>
      <trkpt lat="48.50765" lon="7.15101">
        <ele>761</ele>
        <time>2021-02-21T09:21:24.262Z</time>
      </trkpt>
      <trkpt lat="48.50764" lon="7.15103">
        <ele>761</ele>
        <time>2021-02-21T09:21:25.263Z</time>
      </trkpt>
      <trkpt lat="48.50764" lon="7.15105">
        <ele>761</ele>
        <time>2021-02-21T09:21:26.263Z</time>
      </trkpt>
      <trkpt lat="48.50763" lon="7.15107">
        <ele>761</ele>
        <time>2021-02-21T09:21:27.263Z</time>
      </trkpt>
      <trkpt lat="48.50763" lon="7.15109">
        <ele>761</ele>
        <time>2021-02-21T09:21:28.262Z</time>
      </trkpt>
      <trkpt lat="48.50762" lon="7.1511">
        <ele>761</ele>
        <time>2021-02-21T09:21:29.263Z</time>
      </trkpt>
      <trkpt lat="48.50761" lon="7.15112">
        <ele>761</ele>
        <time>2021-02-21T09:21:30.263Z</time>
      </trkpt>
      <trkpt lat="48.5076" lon="7.15113">
        <ele>762</ele>
        <time>2021-02-21T09:21:31.263Z</time>
      </trkpt>
      <trkpt lat="48.5076" lon="7.15115">
        <ele>762</ele>
        <time>2021-02-21T09:21:32.263Z</time>
      </trkpt>
      <trkpt lat="48.50759" lon="7.15117">
        <ele>762</ele>
        <time>2021-02-21T09:21:33.263Z</time>
      </trkpt>
      <trkpt lat="48.50759" lon="7.15118">
        <ele>763</ele>
        <time>2021-02-21T09:21:34.263Z</time>
      </trkpt>
      <trkpt lat="48.50758" lon="7.1512">
        <ele>763</ele>
        <time>2021-02-21T09:21:35.263Z</time>
      </trkpt>
      <trkpt lat="48.50758" lon="7.15121">
        <ele>763</ele>
        <time>2021-02-21T09:21:36.263Z</time>
      </trkpt>
      <trkpt lat="48.50757" lon="7.15122">
        <ele>764</ele>
        <time>2021-02-21T09:21:37.263Z</time>
      </trkpt>
      <trkpt lat="48.50756" lon="7.15123">
        <ele>764</ele>
        <time>2021-02-21T09:21:38.262Z</time>
      </trkpt>
      <trkpt lat="48.50756" lon="7.15124">
        <ele>763</ele>
        <time>2021-02-21T09:21:39.263Z</time>
      </trkpt>
      <trkpt lat="48.50755" lon="7.15125">
        <ele>763</ele>
        <time>2021-02-21T09:21:40.263Z</time>
      </trkpt>
      <trkpt lat="48.50753" lon="7.15126">
        <ele>764</ele>
        <time>2021-02-21T09:21:41.263Z</time>
      </trkpt>
      <trkpt lat="48.50752" lon="7.15127">
        <ele>764</ele>
        <time>2021-02-21T09:21:42.262Z</time>
      </trkpt>
      <trkpt lat="48.50751" lon="7.15128">
        <ele>764</ele>
        <time>2021-02-21T09:21:43.262Z</time>
      </trkpt>
      <trkpt lat="48.5075" lon="7.15129">
        <ele>764</ele>
        <time>2021-02-21T09:21:44.263Z</time>
      </trkpt>
      <trkpt lat="48.5075" lon="7.1513">
        <ele>764</ele>
        <time>2021-02-21T09:21:45.263Z</time>
      </trkpt>
      <trkpt lat="48.50749" lon="7.15131">
        <ele>764</ele>
        <time>2021-02-21T09:21:46.262Z</time>
      </trkpt>
      <trkpt lat="48.50747" lon="7.15132">
        <ele>765</ele>
        <time>2021-02-21T09:21:47.263Z</time>
      </trkpt>
      <trkpt lat="48.50747" lon="7.15132">
        <ele>765</ele>
        <time>2021-02-21T09:21:48.263Z</time>
      </trkpt>
      <trkpt lat="48.50745" lon="7.15133">
        <ele>765</ele>
        <time>2021-02-21T09:21:49.262Z</time>
      </trkpt>
      <trkpt lat="48.50745" lon="7.15133">
        <ele>765</ele>
        <time>2021-02-21T09:21:50.263Z</time>
      </trkpt>
      <trkpt lat="48.50744" lon="7.15133">
        <ele>765</ele>
        <time>2021-02-21T09:21:51.263Z</time>
      </trkpt>
      <trkpt lat="48.50743" lon="7.15134">
        <ele>765</ele>
        <time>2021-02-21T09:21:52.263Z</time>
      </trkpt>
      <trkpt lat="48.50742" lon="7.15134">
        <ele>766</ele>
        <time>2021-02-21T09:21:53.263Z</time>
      </trkpt>
      <trkpt lat="48.50741" lon="7.15134">
        <ele>766</ele>
        <time>2021-02-21T09:21:54.263Z</time>
      </trkpt>
      <trkpt lat="48.5074" lon="7.15135">
        <ele>766</ele>
        <time>2021-02-21T09:21:55.263Z</time>
      </trkpt>
      <trkpt lat="48.50739" lon="7.15136">
        <ele>767</ele>
        <time>2021-02-21T09:21:56.263Z</time>
      </trkpt>
      <trkpt lat="48.50739" lon="7.15136">
        <ele>766</ele>
        <time>2021-02-21T09:21:57.262Z</time>
      </trkpt>
      <trkpt lat="48.50738" lon="7.15136">
        <ele>766</ele>
        <time>2021-02-21T09:21:58.263Z</time>
      </trkpt>
      <trkpt lat="48.50737" lon="7.15136">
        <ele>766</ele>
        <time>2021-02-21T09:21:59.262Z</time>
      </trkpt>
      <trkpt lat="48.50735" lon="7.15137">
        <ele>766</ele>
        <time>2021-02-21T09:22:00.263Z</time>
      </trkpt>
      <trkpt lat="48.50734" lon="7.15137">
        <ele>766</ele>
        <time>2021-02-21T09:22:01.262Z</time>
      </trkpt>
      <trkpt lat="48.50733" lon="7.15138">
        <ele>766</ele>
        <time>2021-02-21T09:22:02.263Z</time>
      </trkpt>
      <trkpt lat="48.50732" lon="7.15138">
        <ele>766</ele>
        <time>2021-02-21T09:22:03.262Z</time>
      </trkpt>
      <trkpt lat="48.50731" lon="7.15138">
        <ele>765</ele>
        <time>2021-02-21T09:22:04.263Z</time>
      </trkpt>
      <trkpt lat="48.5073" lon="7.15138">
        <ele>765</ele>
        <time>2021-02-21T09:22:05.263Z</time>
      </trkpt>
      <trkpt lat="48.50729" lon="7.15138">
        <ele>764</ele>
        <time>2021-02-21T09:22:06.262Z</time>
      </trkpt>
      <trkpt lat="48.50728" lon="7.15138">
        <ele>764</ele>
        <time>2021-02-21T09:22:07.262Z</time>
      </trkpt>
      <trkpt lat="48.50727" lon="7.15138">
        <ele>763</ele>
        <time>2021-02-21T09:22:08.263Z</time>
      </trkpt>
      <trkpt lat="48.50726" lon="7.15138">
        <ele>763</ele>
        <time>2021-02-21T09:22:09.262Z</time>
      </trkpt>
      <trkpt lat="48.50725" lon="7.15139">
        <ele>762</ele>
        <time>2021-02-21T09:22:10.263Z</time>
      </trkpt>
      <trkpt lat="48.50725" lon="7.15139">
        <ele>762</ele>
        <time>2021-02-21T09:22:11.263Z</time>
      </trkpt>
      <trkpt lat="48.50724" lon="7.15139">
        <ele>761</ele>
        <time>2021-02-21T09:22:12.263Z</time>
      </trkpt>
      <trkpt lat="48.50723" lon="7.1514">
        <ele>761</ele>
        <time>2021-02-21T09:22:13.263Z</time>
      </trkpt>
      <trkpt lat="48.50722" lon="7.1514">
        <ele>761</ele>
        <time>2021-02-21T09:22:14.263Z</time>
      </trkpt>
      <trkpt lat="48.50721" lon="7.15141">
        <ele>760</ele>
        <time>2021-02-21T09:22:15.262Z</time>
      </trkpt>
      <trkpt lat="48.5072" lon="7.15142">
        <ele>760</ele>
        <time>2021-02-21T09:22:16.262Z</time>
      </trkpt>
      <trkpt lat="48.50719" lon="7.15142">
        <ele>761</ele>
        <time>2021-02-21T09:22:17.262Z</time>
      </trkpt>
      <trkpt lat="48.50717" lon="7.15143">
        <ele>761</ele>
        <time>2021-02-21T09:22:18.263Z</time>
      </trkpt>
      <trkpt lat="48.50717" lon="7.15144">
        <ele>762</ele>
        <time>2021-02-21T09:22:19.263Z</time>
      </trkpt>
      <trkpt lat="48.50716" lon="7.15144">
        <ele>762</ele>
        <time>2021-02-21T09:22:20.263Z</time>
      </trkpt>
      <trkpt lat="48.50715" lon="7.15145">
        <ele>763</ele>
        <time>2021-02-21T09:22:21.263Z</time>
      </trkpt>
      <trkpt lat="48.50713" lon="7.15146">
        <ele>763</ele>
        <time>2021-02-21T09:22:22.262Z</time>
      </trkpt>
      <trkpt lat="48.50712" lon="7.15146">
        <ele>764</ele>
        <time>2021-02-21T09:22:23.263Z</time>
      </trkpt>
      <trkpt lat="48.50711" lon="7.15147">
        <ele>765</ele>
        <time>2021-02-21T09:22:24.262Z</time>
      </trkpt>
      <trkpt lat="48.5071" lon="7.15148">
        <ele>766</ele>
        <time>2021-02-21T09:22:25.263Z</time>
      </trkpt>
      <trkpt lat="48.50709" lon="7.15148">
        <ele>766</ele>
        <time>2021-02-21T09:22:26.263Z</time>
      </trkpt>
      <trkpt lat="48.50708" lon="7.15149">
        <ele>767</ele>
        <time>2021-02-21T09:22:27.263Z</time>
      </trkpt>
      <trkpt lat="48.50707" lon="7.1515">
        <ele>767</ele>
        <time>2021-02-21T09:22:28.263Z</time>
      </trkpt>
      <trkpt lat="48.50706" lon="7.1515">
        <ele>767</ele>
        <time>2021-02-21T09:22:29.262Z</time>
      </trkpt>
      <trkpt lat="48.50705" lon="7.15151">
        <ele>768</ele>
        <time>2021-02-21T09:22:30.263Z</time>
      </trkpt>
      <trkpt lat="48.50704" lon="7.15152">
        <ele>768</ele>
        <time>2021-02-21T09:22:31.262Z</time>
      </trkpt>
      <trkpt lat="48.50703" lon="7.15152">
        <ele>768</ele>
        <time>2021-02-21T09:22:32.262Z</time>
      </trkpt>
      <trkpt lat="48.50702" lon="7.15153">
        <ele>768</ele>
        <time>2021-02-21T09:22:33.263Z</time>
      </trkpt>
      <trkpt lat="48.50701" lon="7.15154">
        <ele>769</ele>
        <time>2021-02-21T09:22:34.263Z</time>
      </trkpt>
      <trkpt lat="48.507" lon="7.15155">
        <ele>769</ele>
        <time>2021-02-21T09:22:35.263Z</time>
      </trkpt>
      <trkpt lat="48.50699" lon="7.15156">
        <ele>769</ele>
        <time>2021-02-21T09:22:36.263Z</time>
      </trkpt>
      <trkpt lat="48.50698" lon="7.15157">
        <ele>770</ele>
        <time>2021-02-21T09:22:37.263Z</time>
      </trkpt>
      <trkpt lat="48.50697" lon="7.15158">
        <ele>770</ele>
        <time>2021-02-21T09:22:38.262Z</time>
      </trkpt>
      <trkpt lat="48.50697" lon="7.15159">
        <ele>770</ele>
        <time>2021-02-21T09:22:39.263Z</time>
      </trkpt>
      <trkpt lat="48.50696" lon="7.15159">
        <ele>770</ele>
        <time>2021-02-21T09:22:40.262Z</time>
      </trkpt>
      <trkpt lat="48.50695" lon="7.1516">
        <ele>770</ele>
        <time>2021-02-21T09:22:41.263Z</time>
      </trkpt>
      <trkpt lat="48.50695" lon="7.15161">
        <ele>770</ele>
        <time>2021-02-21T09:22:42.262Z</time>
      </trkpt>
      <trkpt lat="48.50694" lon="7.15161">
        <ele>770</ele>
        <time>2021-02-21T09:22:43.262Z</time>
      </trkpt>
      <trkpt lat="48.50693" lon="7.15162">
        <ele>769</ele>
        <time>2021-02-21T09:22:44.262Z</time>
      </trkpt>
      <trkpt lat="48.50692" lon="7.15163">
        <ele>769</ele>
        <time>2021-02-21T09:22:45.263Z</time>
      </trkpt>
      <trkpt lat="48.50692" lon="7.15164">
        <ele>769</ele>
        <time>2021-02-21T09:22:46.263Z</time>
      </trkpt>
      <trkpt lat="48.50692" lon="7.15165">
        <ele>770</ele>
        <time>2021-02-21T09:22:47.262Z</time>
      </trkpt>
      <trkpt lat="48.50691" lon="7.15166">
        <ele>770</ele>
        <time>2021-02-21T09:22:48.262Z</time>
      </trkpt>
      <trkpt lat="48.50691" lon="7.15167">
        <ele>770</ele>
        <time>2021-02-21T09:22:49.262Z</time>
      </trkpt>
      <trkpt lat="48.5069" lon="7.15169">
        <ele>770</ele>
        <time>2021-02-21T09:22:50.262Z</time>
      </trkpt>
      <trkpt lat="48.50689" lon="7.1517">
        <ele>771</ele>
        <time>2021-02-21T09:22:51.262Z</time>
      </trkpt>
      <trkpt lat="48.50689" lon="7.15171">
        <ele>771</ele>
        <time>2021-02-21T09:22:52.262Z</time>
      </trkpt>
      <trkpt lat="48.50688" lon="7.15172">
        <ele>771</ele>
        <time>2021-02-21T09:22:53.263Z</time>
      </trkpt>
      <trkpt lat="48.50687" lon="7.15173">
        <ele>771</ele>
        <time>2021-02-21T09:22:54.263Z</time>
      </trkpt>
      <trkpt lat="48.50687" lon="7.15174">
        <ele>771</ele>
        <time>2021-02-21T09:22:55.263Z</time>
      </trkpt>
      <trkpt lat="48.50686" lon="7.15175">
        <ele>771</ele>
        <time>2021-02-21T09:22:56.263Z</time>
      </trkpt>
      <trkpt lat="48.50685" lon="7.15176">
        <ele>771</ele>
        <time>2021-02-21T09:22:57.263Z</time>
      </trkpt>
      <trkpt lat="48.50685" lon="7.15177">
        <ele>771</ele>
        <time>2021-02-21T09:22:58.262Z</time>
      </trkpt>
      <trkpt lat="48.50683" lon="7.15178">
        <ele>772</ele>
        <time>2021-02-21T09:22:59.262Z</time>
      </trkpt>
      <trkpt lat="48.50683" lon="7.1518">
        <ele>773</ele>
        <time>2021-02-21T09:23:00.263Z</time>
      </trkpt>
      <trkpt lat="48.50682" lon="7.15181">
        <ele>773</ele>
        <time>2021-02-21T09:23:01.262Z</time>
      </trkpt>
      <trkpt lat="48.50682" lon="7.15182">
        <ele>774</ele>
        <time>2021-02-21T09:23:02.263Z</time>
      </trkpt>
      <trkpt lat="48.50681" lon="7.15183">
        <ele>774</ele>
        <time>2021-02-21T09:23:03.263Z</time>
      </trkpt>
      <trkpt lat="48.50681" lon="7.15184">
        <ele>774</ele>
        <time>2021-02-21T09:23:04.263Z</time>
      </trkpt>
      <trkpt lat="48.50681" lon="7.15186">
        <ele>774</ele>
        <time>2021-02-21T09:23:05.263Z</time>
      </trkpt>
      <trkpt lat="48.50681" lon="7.15187">
        <ele>774</ele>
        <time>2021-02-21T09:23:06.263Z</time>
      </trkpt>
      <trkpt lat="48.50681" lon="7.15189">
        <ele>774</ele>
        <time>2021-02-21T09:23:07.262Z</time>
      </trkpt>
      <trkpt lat="48.50681" lon="7.1519">
        <ele>774</ele>
        <time>2021-02-21T09:23:08.263Z</time>
      </trkpt>
      <trkpt lat="48.5068" lon="7.15191">
        <ele>774</ele>
        <time>2021-02-21T09:23:09.263Z</time>
      </trkpt>
      <trkpt lat="48.50679" lon="7.15193">
        <ele>774</ele>
        <time>2021-02-21T09:23:10.263Z</time>
      </trkpt>
      <trkpt lat="48.50678" lon="7.15195">
        <ele>774</ele>
        <time>2021-02-21T09:23:11.263Z</time>
      </trkpt>
      <trkpt lat="48.50677" lon="7.15197">
        <ele>774</ele>
        <time>2021-02-21T09:23:12.263Z</time>
      </trkpt>
      <trkpt lat="48.50677" lon="7.15198">
        <ele>774</ele>
        <time>2021-02-21T09:23:13.263Z</time>
      </trkpt>
      <trkpt lat="48.50677" lon="7.15199">
        <ele>775</ele>
        <time>2021-02-21T09:23:14.263Z</time>
      </trkpt>
      <trkpt lat="48.50676" lon="7.15201">
        <ele>775</ele>
        <time>2021-02-21T09:23:15.263Z</time>
      </trkpt>
      <trkpt lat="48.50676" lon="7.15203">
        <ele>775</ele>
        <time>2021-02-21T09:23:16.263Z</time>
      </trkpt>
      <trkpt lat="48.50676" lon="7.15205">
        <ele>776</ele>
        <time>2021-02-21T09:23:17.263Z</time>
      </trkpt>
      <trkpt lat="48.50675" lon="7.15208">
        <ele>776</ele>
        <time>2021-02-21T09:23:18.263Z</time>
      </trkpt>
      <trkpt lat="48.50675" lon="7.1521">
        <ele>777</ele>
        <time>2021-02-21T09:23:19.263Z</time>
      </trkpt>
      <trkpt lat="48.50675" lon="7.15211">
        <ele>777</ele>
        <time>2021-02-21T09:23:20.262Z</time>
      </trkpt>
      <trkpt lat="48.50675" lon="7.15213">
        <ele>778</ele>
        <time>2021-02-21T09:23:21.263Z</time>
      </trkpt>
      <trkpt lat="48.50675" lon="7.15215">
        <ele>778</ele>
        <time>2021-02-21T09:23:22.263Z</time>
      </trkpt>
      <trkpt lat="48.50674" lon="7.15216">
        <ele>779</ele>
        <time>2021-02-21T09:23:23.263Z</time>
      </trkpt>
      <trkpt lat="48.50674" lon="7.15217">
        <ele>779</ele>
        <time>2021-02-21T09:23:24.263Z</time>
      </trkpt>
      <trkpt lat="48.50674" lon="7.15219">
        <ele>779</ele>
        <time>2021-02-21T09:23:25.263Z</time>
      </trkpt>
      <trkpt lat="48.50674" lon="7.1522">
        <ele>780</ele>
        <time>2021-02-21T09:23:26.263Z</time>
      </trkpt>
      <trkpt lat="48.50675" lon="7.15222">
        <ele>780</ele>
        <time>2021-02-21T09:23:27.262Z</time>
      </trkpt>
      <trkpt lat="48.50675" lon="7.15224">
        <ele>780</ele>
        <time>2021-02-21T09:23:28.263Z</time>
      </trkpt>
      <trkpt lat="48.50674" lon="7.15225">
        <ele>781</ele>
        <time>2021-02-21T09:23:29.263Z</time>
      </trkpt>
      <trkpt lat="48.50674" lon="7.15226">
        <ele>781</ele>
        <time>2021-02-21T09:23:30.263Z</time>
      </trkpt>
      <trkpt lat="48.50673" lon="7.15227">
        <ele>781</ele>
        <time>2021-02-21T09:23:31.263Z</time>
      </trkpt>
      <trkpt lat="48.50673" lon="7.15228">
        <ele>782</ele>
        <time>2021-02-21T09:23:32.263Z</time>
      </trkpt>
      <trkpt lat="48.50672" lon="7.1523">
        <ele>782</ele>
        <time>2021-02-21T09:23:33.263Z</time>
      </trkpt>
      <trkpt lat="48.50671" lon="7.15231">
        <ele>782</ele>
        <time>2021-02-21T09:23:34.262Z</time>
      </trkpt>
      <trkpt lat="48.50671" lon="7.15233">
        <ele>783</ele>
        <time>2021-02-21T09:23:35.263Z</time>
      </trkpt>
      <trkpt lat="48.5067" lon="7.15235">
        <ele>783</ele>
        <time>2021-02-21T09:23:36.263Z</time>
      </trkpt>
      <trkpt lat="48.5067" lon="7.15236">
        <ele>782</ele>
        <time>2021-02-21T09:23:37.263Z</time>
      </trkpt>
      <trkpt lat="48.50669" lon="7.15238">
        <ele>782</ele>
        <time>2021-02-21T09:23:38.262Z</time>
      </trkpt>
      <trkpt lat="48.50667" lon="7.15241">
        <ele>782</ele>
        <time>2021-02-21T09:23:39.263Z</time>
      </trkpt>
      <trkpt lat="48.50666" lon="7.15243">
        <ele>782</ele>
        <time>2021-02-21T09:23:40.262Z</time>
      </trkpt>
      <trkpt lat="48.50666" lon="7.15245">
        <ele>782</ele>
        <time>2021-02-21T09:23:41.263Z</time>
      </trkpt>
      <trkpt lat="48.50667" lon="7.15246">
        <ele>782</ele>
        <time>2021-02-21T09:23:42.263Z</time>
      </trkpt>
      <trkpt lat="48.50667" lon="7.15248">
        <ele>782</ele>
        <time>2021-02-21T09:23:43.262Z</time>
      </trkpt>
      <trkpt lat="48.50667" lon="7.1525">
        <ele>782</ele>
        <time>2021-02-21T09:23:44.263Z</time>
      </trkpt>
      <trkpt lat="48.50666" lon="7.15252">
        <ele>782</ele>
        <time>2021-02-21T09:23:45.263Z</time>
      </trkpt>
      <trkpt lat="48.50665" lon="7.15254">
        <ele>782</ele>
        <time>2021-02-21T09:23:46.262Z</time>
      </trkpt>
      <trkpt lat="48.50664" lon="7.15255">
        <ele>782</ele>
        <time>2021-02-21T09:23:47.263Z</time>
      </trkpt>
      <trkpt lat="48.50663" lon="7.15257">
        <ele>781</ele>
        <time>2021-02-21T09:23:48.262Z</time>
      </trkpt>
      <trkpt lat="48.50663" lon="7.15259">
        <ele>782</ele>
        <time>2021-02-21T09:23:49.263Z</time>
      </trkpt>
      <trkpt lat="48.50662" lon="7.1526">
        <ele>782</ele>
        <time>2021-02-21T09:23:50.263Z</time>
      </trkpt>
      <trkpt lat="48.50662" lon="7.15262">
        <ele>782</ele>
        <time>2021-02-21T09:23:51.263Z</time>
      </trkpt>
      <trkpt lat="48.50661" lon="7.15263">
        <ele>782</ele>
        <time>2021-02-21T09:23:52.262Z</time>
      </trkpt>
      <trkpt lat="48.5066" lon="7.15264">
        <ele>782</ele>
        <time>2021-02-21T09:23:53.263Z</time>
      </trkpt>
      <trkpt lat="48.5066" lon="7.15265">
        <ele>781</ele>
        <time>2021-02-21T09:23:54.263Z</time>
      </trkpt>
      <trkpt lat="48.50659" lon="7.15267">
        <ele>781</ele>
        <time>2021-02-21T09:23:55.263Z</time>
      </trkpt>
      <trkpt lat="48.50659" lon="7.15268">
        <ele>780</ele>
        <time>2021-02-21T09:23:56.263Z</time>
      </trkpt>
      <trkpt lat="48.50658" lon="7.15269">
        <ele>780</ele>
        <time>2021-02-21T09:23:57.263Z</time>
      </trkpt>
      <trkpt lat="48.50657" lon="7.1527">
        <ele>779</ele>
        <time>2021-02-21T09:23:58.263Z</time>
      </trkpt>
      <trkpt lat="48.50656" lon="7.15272">
        <ele>779</ele>
        <time>2021-02-21T09:23:59.263Z</time>
      </trkpt>
      <trkpt lat="48.50656" lon="7.15273">
        <ele>779</ele>
        <time>2021-02-21T09:24:00.263Z</time>
      </trkpt>
      <trkpt lat="48.50656" lon="7.15275">
        <ele>778</ele>
        <time>2021-02-21T09:24:01.263Z</time>
      </trkpt>
      <trkpt lat="48.50655" lon="7.15277">
        <ele>779</ele>
        <time>2021-02-21T09:24:02.262Z</time>
      </trkpt>
      <trkpt lat="48.50655" lon="7.15278">
        <ele>779</ele>
        <time>2021-02-21T09:24:03.262Z</time>
      </trkpt>
      <trkpt lat="48.50655" lon="7.1528">
        <ele>779</ele>
        <time>2021-02-21T09:24:04.263Z</time>
      </trkpt>
      <trkpt lat="48.50654" lon="7.15282">
        <ele>779</ele>
        <time>2021-02-21T09:24:05.263Z</time>
      </trkpt>
      <trkpt lat="48.50654" lon="7.15284">
        <ele>780</ele>
        <time>2021-02-21T09:24:06.263Z</time>
      </trkpt>
      <trkpt lat="48.50653" lon="7.15285">
        <ele>780</ele>
        <time>2021-02-21T09:24:07.262Z</time>
      </trkpt>
      <trkpt lat="48.50653" lon="7.15287">
        <ele>780</ele>
        <time>2021-02-21T09:24:08.263Z</time>
      </trkpt>
      <trkpt lat="48.50653" lon="7.15288">
        <ele>780</ele>
        <time>2021-02-21T09:24:09.263Z</time>
      </trkpt>
      <trkpt lat="48.50652" lon="7.1529">
        <ele>780</ele>
        <time>2021-02-21T09:24:10.263Z</time>
      </trkpt>
      <trkpt lat="48.50652" lon="7.15291">
        <ele>780</ele>
        <time>2021-02-21T09:24:11.263Z</time>
      </trkpt>
      <trkpt lat="48.50651" lon="7.15293">
        <ele>780</ele>
        <time>2021-02-21T09:24:12.263Z</time>
      </trkpt>
      <trkpt lat="48.5065" lon="7.15295">
        <ele>780</ele>
        <time>2021-02-21T09:24:13.263Z</time>
      </trkpt>
      <trkpt lat="48.5065" lon="7.15296">
        <ele>780</ele>
        <time>2021-02-21T09:24:14.263Z</time>
      </trkpt>
      <trkpt lat="48.5065" lon="7.15298">
        <ele>780</ele>
        <time>2021-02-21T09:24:15.263Z</time>
      </trkpt>
      <trkpt lat="48.50649" lon="7.153">
        <ele>780</ele>
        <time>2021-02-21T09:24:16.262Z</time>
      </trkpt>
      <trkpt lat="48.50648" lon="7.15301">
        <ele>779</ele>
        <time>2021-02-21T09:24:17.263Z</time>
      </trkpt>
      <trkpt lat="48.50648" lon="7.15302">
        <ele>779</ele>
        <time>2021-02-21T09:24:18.263Z</time>
      </trkpt>
      <trkpt lat="48.50647" lon="7.15304">
        <ele>779</ele>
        <time>2021-02-21T09:24:19.263Z</time>
      </trkpt>
      <trkpt lat="48.50646" lon="7.15305">
        <ele>779</ele>
        <time>2021-02-21T09:24:20.262Z</time>
      </trkpt>
      <trkpt lat="48.50646" lon="7.15307">
        <ele>780</ele>
        <time>2021-02-21T09:24:21.263Z</time>
      </trkpt>
      <trkpt lat="48.50645" lon="7.15308">
        <ele>780</ele>
        <time>2021-02-21T09:24:22.263Z</time>
      </trkpt>
      <trkpt lat="48.50645" lon="7.15309">
        <ele>780</ele>
        <time>2021-02-21T09:24:23.262Z</time>
      </trkpt>
      <trkpt lat="48.50645" lon="7.1531">
        <ele>781</ele>
        <time>2021-02-21T09:24:24.263Z</time>
      </trkpt>
      <trkpt lat="48.50645" lon="7.15311">
        <ele>781</ele>
        <time>2021-02-21T09:24:25.263Z</time>
      </trkpt>
      <trkpt lat="48.50645" lon="7.15311">
        <ele>781</ele>
        <time>2021-02-21T09:24:26.263Z</time>
      </trkpt>
      <trkpt lat="48.50646" lon="7.15314">
        <ele>780</ele>
        <time>2021-02-21T09:24:27.263Z</time>
      </trkpt>
      <trkpt lat="48.50647" lon="7.15317">
        <ele>779</ele>
        <time>2021-02-21T09:24:28.263Z</time>
      </trkpt>
      <trkpt lat="48.50647" lon="7.15317">
        <ele>780</ele>
        <time>2021-02-21T09:24:29.263Z</time>
      </trkpt>
      <trkpt lat="48.50647" lon="7.15323">
        <ele>782</ele>
        <time>2021-02-21T09:24:30.265Z</time>
      </trkpt>
      <trkpt lat="48.50647" lon="7.15325">
        <ele>782</ele>
        <time>2021-02-21T09:24:31.265Z</time>
      </trkpt>
      <trkpt lat="48.50647" lon="7.15328">
        <ele>783</ele>
        <time>2021-02-21T09:24:32.265Z</time>
      </trkpt>
      <trkpt lat="48.50648" lon="7.15332">
        <ele>783</ele>
        <time>2021-02-21T09:24:33.264Z</time>
      </trkpt>
      <trkpt lat="48.50648" lon="7.15335">
        <ele>783</ele>
        <time>2021-02-21T09:24:34.265Z</time>
      </trkpt>
      <trkpt lat="48.50649" lon="7.15338">
        <ele>784</ele>
        <time>2021-02-21T09:24:35.265Z</time>
      </trkpt>
      <trkpt lat="48.50649" lon="7.15341">
        <ele>784</ele>
        <time>2021-02-21T09:24:36.265Z</time>
      </trkpt>
      <trkpt lat="48.50648" lon="7.15345">
        <ele>785</ele>
        <time>2021-02-21T09:24:37.265Z</time>
      </trkpt>
      <trkpt lat="48.50648" lon="7.15346">
        <ele>786</ele>
        <time>2021-02-21T09:24:38.264Z</time>
      </trkpt>
      <trkpt lat="48.50648" lon="7.15347">
        <ele>786</ele>
        <time>2021-02-21T09:24:39.265Z</time>
      </trkpt>
      <trkpt lat="48.50648" lon="7.15348">
        <ele>787</ele>
        <time>2021-02-21T09:24:40.265Z</time>
      </trkpt>
      <trkpt lat="48.50649" lon="7.15349">
        <ele>787</ele>
        <time>2021-02-21T09:24:41.265Z</time>
      </trkpt>
      <trkpt lat="48.50649" lon="7.15351">
        <ele>788</ele>
        <time>2021-02-21T09:24:42.264Z</time>
      </trkpt>
      <trkpt lat="48.5065" lon="7.15352">
        <ele>788</ele>
        <time>2021-02-21T09:24:43.264Z</time>
      </trkpt>
      <trkpt lat="48.5065" lon="7.15353">
        <ele>789</ele>
        <time>2021-02-21T09:24:44.265Z</time>
      </trkpt>
      <trkpt lat="48.50651" lon="7.15354">
        <ele>789</ele>
        <time>2021-02-21T09:24:45.265Z</time>
      </trkpt>
      <trkpt lat="48.50651" lon="7.15356">
        <ele>789</ele>
        <time>2021-02-21T09:24:46.265Z</time>
      </trkpt>
      <trkpt lat="48.50652" lon="7.15357">
        <ele>790</ele>
        <time>2021-02-21T09:24:47.265Z</time>
      </trkpt>
      <trkpt lat="48.50652" lon="7.15358">
        <ele>790</ele>
        <time>2021-02-21T09:24:48.264Z</time>
      </trkpt>
      <trkpt lat="48.50653" lon="7.1536">
        <ele>790</ele>
        <time>2021-02-21T09:24:49.264Z</time>
      </trkpt>
      <trkpt lat="48.50654" lon="7.15362">
        <ele>791</ele>
        <time>2021-02-21T09:24:50.265Z</time>
      </trkpt>
      <trkpt lat="48.50655" lon="7.15363">
        <ele>791</ele>
        <time>2021-02-21T09:24:51.264Z</time>
      </trkpt>
      <trkpt lat="48.50656" lon="7.15364">
        <ele>791</ele>
        <time>2021-02-21T09:24:52.264Z</time>
      </trkpt>
      <trkpt lat="48.50658" lon="7.15367">
        <ele>792</ele>
        <time>2021-02-21T09:24:53.265Z</time>
      </trkpt>
      <trkpt lat="48.50659" lon="7.15369">
        <ele>792</ele>
        <time>2021-02-21T09:24:54.264Z</time>
      </trkpt>
      <trkpt lat="48.5066" lon="7.15371">
        <ele>792</ele>
        <time>2021-02-21T09:24:55.264Z</time>
      </trkpt>
      <trkpt lat="48.50662" lon="7.15373">
        <ele>792</ele>
        <time>2021-02-21T09:24:56.265Z</time>
      </trkpt>
      <trkpt lat="48.50663" lon="7.15375">
        <ele>792</ele>
        <time>2021-02-21T09:24:57.264Z</time>
      </trkpt>
      <trkpt lat="48.50664" lon="7.15376">
        <ele>793</ele>
        <time>2021-02-21T09:24:58.265Z</time>
      </trkpt>
      <trkpt lat="48.50664" lon="7.15377">
        <ele>793</ele>
        <time>2021-02-21T09:24:59.264Z</time>
      </trkpt>
      <trkpt lat="48.50664" lon="7.15377">
        <ele>793</ele>
        <time>2021-02-21T09:25:00.264Z</time>
      </trkpt>
      <trkpt lat="48.50665" lon="7.15378">
        <ele>793</ele>
        <time>2021-02-21T09:25:01.264Z</time>
      </trkpt>
      <trkpt lat="48.50666" lon="7.15379">
        <ele>793</ele>
        <time>2021-02-21T09:25:02.265Z</time>
      </trkpt>
      <trkpt lat="48.50667" lon="7.15381">
        <ele>793</ele>
        <time>2021-02-21T09:25:03.264Z</time>
      </trkpt>
      <trkpt lat="48.50667" lon="7.15383">
        <ele>794</ele>
        <time>2021-02-21T09:25:04.265Z</time>
      </trkpt>
      <trkpt lat="48.50667" lon="7.15384">
        <ele>795</ele>
        <time>2021-02-21T09:25:05.265Z</time>
      </trkpt>
      <trkpt lat="48.50668" lon="7.15386">
        <ele>795</ele>
        <time>2021-02-21T09:25:06.265Z</time>
      </trkpt>
      <trkpt lat="48.5067" lon="7.15388">
        <ele>795</ele>
        <time>2021-02-21T09:25:07.264Z</time>
      </trkpt>
      <trkpt lat="48.50671" lon="7.15389">
        <ele>795</ele>
        <time>2021-02-21T09:25:08.264Z</time>
      </trkpt>
      <trkpt lat="48.50672" lon="7.15391">
        <ele>795</ele>
        <time>2021-02-21T09:25:09.264Z</time>
      </trkpt>
      <trkpt lat="48.50673" lon="7.15393">
        <ele>795</ele>
        <time>2021-02-21T09:25:10.265Z</time>
      </trkpt>
      <trkpt lat="48.50674" lon="7.15394">
        <ele>796</ele>
        <time>2021-02-21T09:25:11.265Z</time>
      </trkpt>
      <trkpt lat="48.50674" lon="7.15395">
        <ele>796</ele>
        <time>2021-02-21T09:25:12.265Z</time>
      </trkpt>
      <trkpt lat="48.50675" lon="7.15397">
        <ele>796</ele>
        <time>2021-02-21T09:25:13.265Z</time>
      </trkpt>
      <trkpt lat="48.50676" lon="7.15398">
        <ele>796</ele>
        <time>2021-02-21T09:25:14.265Z</time>
      </trkpt>
      <trkpt lat="48.50676" lon="7.15399">
        <ele>797</ele>
        <time>2021-02-21T09:25:15.265Z</time>
      </trkpt>
      <trkpt lat="48.50677" lon="7.154">
        <ele>797</ele>
        <time>2021-02-21T09:25:16.265Z</time>
      </trkpt>
      <trkpt lat="48.50678" lon="7.154">
        <ele>797</ele>
        <time>2021-02-21T09:25:17.265Z</time>
      </trkpt>
      <trkpt lat="48.50678" lon="7.15402">
        <ele>797</ele>
        <time>2021-02-21T09:25:18.265Z</time>
      </trkpt>
      <trkpt lat="48.5068" lon="7.15403">
        <ele>797</ele>
        <time>2021-02-21T09:25:19.265Z</time>
      </trkpt>
      <trkpt lat="48.50681" lon="7.15404">
        <ele>796</ele>
        <time>2021-02-21T09:25:20.264Z</time>
      </trkpt>
      <trkpt lat="48.50681" lon="7.15405">
        <ele>796</ele>
        <time>2021-02-21T09:25:21.265Z</time>
      </trkpt>
      <trkpt lat="48.50681" lon="7.15406">
        <ele>795</ele>
        <time>2021-02-21T09:25:22.264Z</time>
      </trkpt>
      <trkpt lat="48.50683" lon="7.15407">
        <ele>795</ele>
        <time>2021-02-21T09:25:23.264Z</time>
      </trkpt>
      <trkpt lat="48.50684" lon="7.15408">
        <ele>794</ele>
        <time>2021-02-21T09:25:24.265Z</time>
      </trkpt>
      <trkpt lat="48.50685" lon="7.1541">
        <ele>793</ele>
        <time>2021-02-21T09:25:25.265Z</time>
      </trkpt>
      <trkpt lat="48.50685" lon="7.15411">
        <ele>793</ele>
        <time>2021-02-21T09:25:26.264Z</time>
      </trkpt>
      <trkpt lat="48.50685" lon="7.15412">
        <ele>792</ele>
        <time>2021-02-21T09:25:27.264Z</time>
      </trkpt>
      <trkpt lat="48.50686" lon="7.15412">
        <ele>792</ele>
        <time>2021-02-21T09:25:28.265Z</time>
      </trkpt>
      <trkpt lat="48.50686" lon="7.15412">
        <ele>791</ele>
        <time>2021-02-21T09:25:29.265Z</time>
      </trkpt>
      <trkpt lat="48.50687" lon="7.15413">
        <ele>791</ele>
        <time>2021-02-21T09:25:30.265Z</time>
      </trkpt>
      <trkpt lat="48.50687" lon="7.15413">
        <ele>791</ele>
        <time>2021-02-21T09:25:31.265Z</time>
      </trkpt>
      <trkpt lat="48.50689" lon="7.15413">
        <ele>791</ele>
        <time>2021-02-21T09:25:32.264Z</time>
      </trkpt>
      <trkpt lat="48.5069" lon="7.15414">
        <ele>791</ele>
        <time>2021-02-21T09:25:33.265Z</time>
      </trkpt>
      <trkpt lat="48.50692" lon="7.15415">
        <ele>791</ele>
        <time>2021-02-21T09:25:34.265Z</time>
      </trkpt>
      <trkpt lat="48.50693" lon="7.15416">
        <ele>790</ele>
        <time>2021-02-21T09:25:35.265Z</time>
      </trkpt>
      <trkpt lat="48.50693" lon="7.15416">
        <ele>790</ele>
        <time>2021-02-21T09:25:36.265Z</time>
      </trkpt>
      <trkpt lat="48.50694" lon="7.15417">
        <ele>790</ele>
        <time>2021-02-21T09:25:37.264Z</time>
      </trkpt>
      <trkpt lat="48.50694" lon="7.15418">
        <ele>790</ele>
        <time>2021-02-21T09:25:38.264Z</time>
      </trkpt>
      <trkpt lat="48.50695" lon="7.15418">
        <ele>790</ele>
        <time>2021-02-21T09:25:39.264Z</time>
      </trkpt>
      <trkpt lat="48.50696" lon="7.15418">
        <ele>790</ele>
        <time>2021-02-21T09:25:40.264Z</time>
      </trkpt>
      <trkpt lat="48.50696" lon="7.15419">
        <ele>790</ele>
        <time>2021-02-21T09:25:41.265Z</time>
      </trkpt>
      <trkpt lat="48.50697" lon="7.15419">
        <ele>791</ele>
        <time>2021-02-21T09:25:42.265Z</time>
      </trkpt>
      <trkpt lat="48.50697" lon="7.1542">
        <ele>791</ele>
        <time>2021-02-21T09:25:43.265Z</time>
      </trkpt>
      <trkpt lat="48.50698" lon="7.1542">
        <ele>791</ele>
        <time>2021-02-21T09:25:44.264Z</time>
      </trkpt>
      <trkpt lat="48.50699" lon="7.15421">
        <ele>791</ele>
        <time>2021-02-21T09:25:45.265Z</time>
      </trkpt>
      <trkpt lat="48.50699" lon="7.15421">
        <ele>791</ele>
        <time>2021-02-21T09:25:46.265Z</time>
      </trkpt>
      <trkpt lat="48.507" lon="7.15422">
        <ele>791</ele>
        <time>2021-02-21T09:25:47.265Z</time>
      </trkpt>
      <trkpt lat="48.50701" lon="7.15423">
        <ele>792</ele>
        <time>2021-02-21T09:25:48.265Z</time>
      </trkpt>
      <trkpt lat="48.50703" lon="7.15423">
        <ele>792</ele>
        <time>2021-02-21T09:25:49.264Z</time>
      </trkpt>
      <trkpt lat="48.50704" lon="7.15423">
        <ele>793</ele>
        <time>2021-02-21T09:25:50.264Z</time>
      </trkpt>
      <trkpt lat="48.50706" lon="7.15423">
        <ele>793</ele>
        <time>2021-02-21T09:25:51.265Z</time>
      </trkpt>
      <trkpt lat="48.50707" lon="7.15423">
        <ele>794</ele>
        <time>2021-02-21T09:25:52.265Z</time>
      </trkpt>
      <trkpt lat="48.50709" lon="7.15423">
        <ele>794</ele>
        <time>2021-02-21T09:25:53.265Z</time>
      </trkpt>
      <trkpt lat="48.5071" lon="7.15423">
        <ele>794</ele>
        <time>2021-02-21T09:25:54.265Z</time>
      </trkpt>
      <trkpt lat="48.5071" lon="7.15423">
        <ele>795</ele>
        <time>2021-02-21T09:25:55.264Z</time>
      </trkpt>
      <trkpt lat="48.50711" lon="7.15423">
        <ele>795</ele>
        <time>2021-02-21T09:25:56.265Z</time>
      </trkpt>
      <trkpt lat="48.50711" lon="7.15423">
        <ele>795</ele>
        <time>2021-02-21T09:25:57.265Z</time>
      </trkpt>
      <trkpt lat="48.50712" lon="7.15423">
        <ele>796</ele>
        <time>2021-02-21T09:25:58.265Z</time>
      </trkpt>
      <trkpt lat="48.50713" lon="7.15423">
        <ele>796</ele>
        <time>2021-02-21T09:25:59.265Z</time>
      </trkpt>
      <trkpt lat="48.50714" lon="7.15424">
        <ele>796</ele>
        <time>2021-02-21T09:26:00.265Z</time>
      </trkpt>
      <trkpt lat="48.50714" lon="7.15424">
        <ele>796</ele>
        <time>2021-02-21T09:26:01.264Z</time>
      </trkpt>
      <trkpt lat="48.50715" lon="7.15425">
        <ele>796</ele>
        <time>2021-02-21T09:26:02.264Z</time>
      </trkpt>
      <trkpt lat="48.50716" lon="7.15425">
        <ele>797</ele>
        <time>2021-02-21T09:26:03.264Z</time>
      </trkpt>
      <trkpt lat="48.50717" lon="7.15425">
        <ele>797</ele>
        <time>2021-02-21T09:26:04.265Z</time>
      </trkpt>
      <trkpt lat="48.50717" lon="7.15425">
        <ele>797</ele>
        <time>2021-02-21T09:26:05.265Z</time>
      </trkpt>
      <trkpt lat="48.50718" lon="7.15426">
        <ele>797</ele>
        <time>2021-02-21T09:26:06.265Z</time>
      </trkpt>
      <trkpt lat="48.50717" lon="7.15428">
        <ele>797</ele>
        <time>2021-02-21T09:26:07.265Z</time>
      </trkpt>
      <trkpt lat="48.50718" lon="7.15428">
        <ele>797</ele>
        <time>2021-02-21T09:26:08.264Z</time>
      </trkpt>
      <trkpt lat="48.50719" lon="7.15428">
        <ele>797</ele>
        <time>2021-02-21T09:26:09.265Z</time>
      </trkpt>
      <trkpt lat="48.5072" lon="7.15428">
        <ele>798</ele>
        <time>2021-02-21T09:26:10.265Z</time>
      </trkpt>
      <trkpt lat="48.50721" lon="7.15429">
        <ele>798</ele>
        <time>2021-02-21T09:26:11.265Z</time>
      </trkpt>
      <trkpt lat="48.50722" lon="7.15429">
        <ele>798</ele>
        <time>2021-02-21T09:26:12.264Z</time>
      </trkpt>
      <trkpt lat="48.50723" lon="7.1543">
        <ele>798</ele>
        <time>2021-02-21T09:26:13.265Z</time>
      </trkpt>
      <trkpt lat="48.50724" lon="7.15431">
        <ele>798</ele>
        <time>2021-02-21T09:26:14.265Z</time>
      </trkpt>
      <trkpt lat="48.50725" lon="7.15431">
        <ele>798</ele>
        <time>2021-02-21T09:26:15.265Z</time>
      </trkpt>
      <trkpt lat="48.50725" lon="7.15431">
        <ele>798</ele>
        <time>2021-02-21T09:26:16.265Z</time>
      </trkpt>
      <trkpt lat="48.50727" lon="7.15431">
        <ele>799</ele>
        <time>2021-02-21T09:26:17.265Z</time>
      </trkpt>
      <trkpt lat="48.50728" lon="7.15431">
        <ele>799</ele>
        <time>2021-02-21T09:26:18.265Z</time>
      </trkpt>
      <trkpt lat="48.5073" lon="7.15432">
        <ele>800</ele>
        <time>2021-02-21T09:26:19.264Z</time>
      </trkpt>
      <trkpt lat="48.50731" lon="7.15432">
        <ele>801</ele>
        <time>2021-02-21T09:26:20.265Z</time>
      </trkpt>
      <trkpt lat="48.50732" lon="7.15433">
        <ele>801</ele>
        <time>2021-02-21T09:26:21.264Z</time>
      </trkpt>
      <trkpt lat="48.50732" lon="7.15433">
        <ele>801</ele>
        <time>2021-02-21T09:26:22.265Z</time>
      </trkpt>
      <trkpt lat="48.50733" lon="7.15433">
        <ele>802</ele>
        <time>2021-02-21T09:26:23.265Z</time>
      </trkpt>
      <trkpt lat="48.50734" lon="7.15433">
        <ele>802</ele>
        <time>2021-02-21T09:26:24.265Z</time>
      </trkpt>
      <trkpt lat="48.50735" lon="7.15434">
        <ele>803</ele>
        <time>2021-02-21T09:26:25.264Z</time>
      </trkpt>
      <trkpt lat="48.50736" lon="7.15434">
        <ele>803</ele>
        <time>2021-02-21T09:26:26.265Z</time>
      </trkpt>
      <trkpt lat="48.50737" lon="7.15435">
        <ele>804</ele>
        <time>2021-02-21T09:26:27.265Z</time>
      </trkpt>
      <trkpt lat="48.50737" lon="7.15435">
        <ele>804</ele>
        <time>2021-02-21T09:26:28.265Z</time>
      </trkpt>
      <trkpt lat="48.50738" lon="7.15434">
        <ele>804</ele>
        <time>2021-02-21T09:26:29.264Z</time>
      </trkpt>
      <trkpt lat="48.50739" lon="7.15435">
        <ele>804</ele>
        <time>2021-02-21T09:26:30.264Z</time>
      </trkpt>
      <trkpt lat="48.5074" lon="7.15435">
        <ele>805</ele>
        <time>2021-02-21T09:26:31.265Z</time>
      </trkpt>
      <trkpt lat="48.50741" lon="7.15435">
        <ele>805</ele>
        <time>2021-02-21T09:26:32.265Z</time>
      </trkpt>
      <trkpt lat="48.50742" lon="7.15435">
        <ele>806</ele>
        <time>2021-02-21T09:26:33.265Z</time>
      </trkpt>
      <trkpt lat="48.50743" lon="7.15435">
        <ele>806</ele>
        <time>2021-02-21T09:26:34.264Z</time>
      </trkpt>
      <trkpt lat="48.50744" lon="7.15436">
        <ele>807</ele>
        <time>2021-02-21T09:26:35.265Z</time>
      </trkpt>
      <trkpt lat="48.50746" lon="7.15438">
        <ele>807</ele>
        <time>2021-02-21T09:26:36.265Z</time>
      </trkpt>
      <trkpt lat="48.50747" lon="7.15439">
        <ele>807</ele>
        <time>2021-02-21T09:26:37.264Z</time>
      </trkpt>
      <trkpt lat="48.50748" lon="7.1544">
        <ele>808</ele>
        <time>2021-02-21T09:26:38.264Z</time>
      </trkpt>
      <trkpt lat="48.50749" lon="7.1544">
        <ele>808</ele>
        <time>2021-02-21T09:26:39.264Z</time>
      </trkpt>
      <trkpt lat="48.50749" lon="7.15441">
        <ele>809</ele>
        <time>2021-02-21T09:26:40.264Z</time>
      </trkpt>
      <trkpt lat="48.50749" lon="7.15442">
        <ele>809</ele>
        <time>2021-02-21T09:26:41.265Z</time>
      </trkpt>
      <trkpt lat="48.5075" lon="7.15443">
        <ele>809</ele>
        <time>2021-02-21T09:26:42.265Z</time>
      </trkpt>
      <trkpt lat="48.5075" lon="7.15444">
        <ele>809</ele>
        <time>2021-02-21T09:26:43.265Z</time>
      </trkpt>
      <trkpt lat="48.50751" lon="7.15445">
        <ele>809</ele>
        <time>2021-02-21T09:26:44.265Z</time>
      </trkpt>
      <trkpt lat="48.50751" lon="7.15446">
        <ele>808</ele>
        <time>2021-02-21T09:26:45.265Z</time>
      </trkpt>
      <trkpt lat="48.50752" lon="7.15446">
        <ele>808</ele>
        <time>2021-02-21T09:26:46.265Z</time>
      </trkpt>
      <trkpt lat="48.50752" lon="7.15447">
        <ele>808</ele>
        <time>2021-02-21T09:26:47.265Z</time>
      </trkpt>
      <trkpt lat="48.50753" lon="7.15447">
        <ele>808</ele>
        <time>2021-02-21T09:26:48.265Z</time>
      </trkpt>
      <trkpt lat="48.50754" lon="7.15447">
        <ele>807</ele>
        <time>2021-02-21T09:26:49.264Z</time>
      </trkpt>
      <trkpt lat="48.50755" lon="7.15448">
        <ele>807</ele>
        <time>2021-02-21T09:26:50.265Z</time>
      </trkpt>
      <trkpt lat="48.50755" lon="7.15448">
        <ele>808</ele>
        <time>2021-02-21T09:26:51.264Z</time>
      </trkpt>
      <trkpt lat="48.50756" lon="7.15449">
        <ele>808</ele>
        <time>2021-02-21T09:26:52.264Z</time>
      </trkpt>
      <trkpt lat="48.50757" lon="7.1545">
        <ele>808</ele>
        <time>2021-02-21T09:26:53.265Z</time>
      </trkpt>
      <trkpt lat="48.50758" lon="7.15451">
        <ele>808</ele>
        <time>2021-02-21T09:26:54.265Z</time>
      </trkpt>
      <trkpt lat="48.50758" lon="7.15452">
        <ele>808</ele>
        <time>2021-02-21T09:26:55.264Z</time>
      </trkpt>
      <trkpt lat="48.5076" lon="7.15452">
        <ele>808</ele>
        <time>2021-02-21T09:26:56.265Z</time>
      </trkpt>
      <trkpt lat="48.50761" lon="7.15453">
        <ele>808</ele>
        <time>2021-02-21T09:26:57.265Z</time>
      </trkpt>
      <trkpt lat="48.50763" lon="7.15454">
        <ele>808</ele>
        <time>2021-02-21T09:26:58.264Z</time>
      </trkpt>
      <trkpt lat="48.50764" lon="7.15455">
        <ele>807</ele>
        <time>2021-02-21T09:26:59.265Z</time>
      </trkpt>
      <trkpt lat="48.50765" lon="7.15456">
        <ele>807</ele>
        <time>2021-02-21T09:27:00.264Z</time>
      </trkpt>
      <trkpt lat="48.50765" lon="7.15457">
        <ele>808</ele>
        <time>2021-02-21T09:27:01.265Z</time>
      </trkpt>
      <trkpt lat="48.50766" lon="7.15458">
        <ele>808</ele>
        <time>2021-02-21T09:27:02.265Z</time>
      </trkpt>
      <trkpt lat="48.50768" lon="7.15459">
        <ele>808</ele>
        <time>2021-02-21T09:27:03.265Z</time>
      </trkpt>
      <trkpt lat="48.50768" lon="7.1546">
        <ele>809</ele>
        <time>2021-02-21T09:27:04.265Z</time>
      </trkpt>
      <trkpt lat="48.50769" lon="7.15461">
        <ele>810</ele>
        <time>2021-02-21T09:27:05.265Z</time>
      </trkpt>
      <trkpt lat="48.5077" lon="7.15461">
        <ele>810</ele>
        <time>2021-02-21T09:27:06.265Z</time>
      </trkpt>
      <trkpt lat="48.5077" lon="7.15462">
        <ele>811</ele>
        <time>2021-02-21T09:27:07.265Z</time>
      </trkpt>
      <trkpt lat="48.50771" lon="7.15462">
        <ele>811</ele>
        <time>2021-02-21T09:27:08.264Z</time>
      </trkpt>
      <trkpt lat="48.50771" lon="7.15463">
        <ele>811</ele>
        <time>2021-02-21T09:27:09.265Z</time>
      </trkpt>
      <trkpt lat="48.50772" lon="7.15464">
        <ele>812</ele>
        <time>2021-02-21T09:27:10.265Z</time>
      </trkpt>
      <trkpt lat="48.50773" lon="7.15465">
        <ele>812</ele>
        <time>2021-02-21T09:27:11.264Z</time>
      </trkpt>
      <trkpt lat="48.50775" lon="7.15467">
        <ele>813</ele>
        <time>2021-02-21T09:27:12.265Z</time>
      </trkpt>
      <trkpt lat="48.50776" lon="7.15468">
        <ele>813</ele>
        <time>2021-02-21T09:27:13.265Z</time>
      </trkpt>
      <trkpt lat="48.50776" lon="7.15469">
        <ele>813</ele>
        <time>2021-02-21T09:27:14.265Z</time>
      </trkpt>
      <trkpt lat="48.50777" lon="7.1547">
        <ele>813</ele>
        <time>2021-02-21T09:27:15.264Z</time>
      </trkpt>
      <trkpt lat="48.50777" lon="7.15471">
        <ele>814</ele>
        <time>2021-02-21T09:27:16.264Z</time>
      </trkpt>
      <trkpt lat="48.50777" lon="7.15472">
        <ele>814</ele>
        <time>2021-02-21T09:27:17.264Z</time>
      </trkpt>
      <trkpt lat="48.50778" lon="7.15473">
        <ele>815</ele>
        <time>2021-02-21T09:27:18.265Z</time>
      </trkpt>
      <trkpt lat="48.50778" lon="7.15474">
        <ele>815</ele>
        <time>2021-02-21T09:27:19.264Z</time>
      </trkpt>
      <trkpt lat="48.50778" lon="7.15475">
        <ele>816</ele>
        <time>2021-02-21T09:27:20.265Z</time>
      </trkpt>
      <trkpt lat="48.50779" lon="7.15476">
        <ele>817</ele>
        <time>2021-02-21T09:27:21.264Z</time>
      </trkpt>
      <trkpt lat="48.50779" lon="7.15477">
        <ele>817</ele>
        <time>2021-02-21T09:27:22.264Z</time>
      </trkpt>
      <trkpt lat="48.50779" lon="7.15478">
        <ele>817</ele>
        <time>2021-02-21T09:27:23.264Z</time>
      </trkpt>
      <trkpt lat="48.5078" lon="7.15479">
        <ele>818</ele>
        <time>2021-02-21T09:27:24.265Z</time>
      </trkpt>
      <trkpt lat="48.5078" lon="7.1548">
        <ele>818</ele>
        <time>2021-02-21T09:27:25.264Z</time>
      </trkpt>
      <trkpt lat="48.50781" lon="7.15481">
        <ele>817</ele>
        <time>2021-02-21T09:27:26.265Z</time>
      </trkpt>
      <trkpt lat="48.50781" lon="7.15481">
        <ele>817</ele>
        <time>2021-02-21T09:27:27.265Z</time>
      </trkpt>
      <trkpt lat="48.50782" lon="7.15482">
        <ele>817</ele>
        <time>2021-02-21T09:27:28.265Z</time>
      </trkpt>
      <trkpt lat="48.50783" lon="7.15484">
        <ele>817</ele>
        <time>2021-02-21T09:27:29.264Z</time>
      </trkpt>
      <trkpt lat="48.50784" lon="7.15486">
        <ele>817</ele>
        <time>2021-02-21T09:27:30.264Z</time>
      </trkpt>
      <trkpt lat="48.50785" lon="7.15489">
        <ele>817</ele>
        <time>2021-02-21T09:27:31.264Z</time>
      </trkpt>
      <trkpt lat="48.50786" lon="7.15492">
        <ele>817</ele>
        <time>2021-02-21T09:27:32.265Z</time>
      </trkpt>
      <trkpt lat="48.50787" lon="7.15496">
        <ele>817</ele>
        <time>2021-02-21T09:27:33.265Z</time>
      </trkpt>
      <trkpt lat="48.50789" lon="7.15497">
        <ele>817</ele>
        <time>2021-02-21T09:27:34.264Z</time>
      </trkpt>
      <trkpt lat="48.50789" lon="7.15499">
        <ele>817</ele>
        <time>2021-02-21T09:27:35.265Z</time>
      </trkpt>
      <trkpt lat="48.5079" lon="7.155">
        <ele>817</ele>
        <time>2021-02-21T09:27:36.264Z</time>
      </trkpt>
      <trkpt lat="48.50791" lon="7.15502">
        <ele>816</ele>
        <time>2021-02-21T09:27:37.265Z</time>
      </trkpt>
      <trkpt lat="48.50791" lon="7.15504">
        <ele>816</ele>
        <time>2021-02-21T09:27:38.265Z</time>
      </trkpt>
      <trkpt lat="48.50792" lon="7.15504">
        <ele>816</ele>
        <time>2021-02-21T09:27:39.265Z</time>
      </trkpt>
      <trkpt lat="48.50793" lon="7.15505">
        <ele>816</ele>
        <time>2021-02-21T09:27:40.265Z</time>
      </trkpt>
      <trkpt lat="48.50794" lon="7.15506">
        <ele>817</ele>
        <time>2021-02-21T09:27:41.264Z</time>
      </trkpt>
      <trkpt lat="48.50794" lon="7.15507">
        <ele>817</ele>
        <time>2021-02-21T09:27:42.265Z</time>
      </trkpt>
      <trkpt lat="48.50796" lon="7.15508">
        <ele>817</ele>
        <time>2021-02-21T09:27:43.265Z</time>
      </trkpt>
      <trkpt lat="48.50797" lon="7.1551">
        <ele>818</ele>
        <time>2021-02-21T09:27:44.265Z</time>
      </trkpt>
      <trkpt lat="48.50799" lon="7.15512">
        <ele>818</ele>
        <time>2021-02-21T09:27:45.265Z</time>
      </trkpt>
      <trkpt lat="48.50799" lon="7.15513">
        <ele>819</ele>
        <time>2021-02-21T09:27:46.265Z</time>
      </trkpt>
      <trkpt lat="48.50799" lon="7.15514">
        <ele>819</ele>
        <time>2021-02-21T09:27:47.264Z</time>
      </trkpt>
      <trkpt lat="48.508" lon="7.15516">
        <ele>820</ele>
        <time>2021-02-21T09:27:48.264Z</time>
      </trkpt>
      <trkpt lat="48.50801" lon="7.15518">
        <ele>820</ele>
        <time>2021-02-21T09:27:49.264Z</time>
      </trkpt>
      <trkpt lat="48.50802" lon="7.1552">
        <ele>821</ele>
        <time>2021-02-21T09:27:50.264Z</time>
      </trkpt>
      <trkpt lat="48.50804" lon="7.15521">
        <ele>821</ele>
        <time>2021-02-21T09:27:51.265Z</time>
      </trkpt>
      <trkpt lat="48.50805" lon="7.15522">
        <ele>822</ele>
        <time>2021-02-21T09:27:52.265Z</time>
      </trkpt>
      <trkpt lat="48.50805" lon="7.15523">
        <ele>822</ele>
        <time>2021-02-21T09:27:53.265Z</time>
      </trkpt>
      <trkpt lat="48.50807" lon="7.15525">
        <ele>823</ele>
        <time>2021-02-21T09:27:54.265Z</time>
      </trkpt>
      <trkpt lat="48.50807" lon="7.15526">
        <ele>824</ele>
        <time>2021-02-21T09:27:55.265Z</time>
      </trkpt>
      <trkpt lat="48.50807" lon="7.15526">
        <ele>824</ele>
        <time>2021-02-21T09:27:56.264Z</time>
      </trkpt>
      <trkpt lat="48.50808" lon="7.15527">
        <ele>825</ele>
        <time>2021-02-21T09:27:57.265Z</time>
      </trkpt>
      <trkpt lat="48.50809" lon="7.15528">
        <ele>826</ele>
        <time>2021-02-21T09:27:58.265Z</time>
      </trkpt>
      <trkpt lat="48.50809" lon="7.15529">
        <ele>826</ele>
        <time>2021-02-21T09:27:59.265Z</time>
      </trkpt>
      <trkpt lat="48.5081" lon="7.1553">
        <ele>826</ele>
        <time>2021-02-21T09:28:00.265Z</time>
      </trkpt>
      <trkpt lat="48.50811" lon="7.15531">
        <ele>826</ele>
        <time>2021-02-21T09:28:01.264Z</time>
      </trkpt>
      <trkpt lat="48.50811" lon="7.15532">
        <ele>825</ele>
        <time>2021-02-21T09:28:02.265Z</time>
      </trkpt>
      <trkpt lat="48.50811" lon="7.15533">
        <ele>825</ele>
        <time>2021-02-21T09:28:03.264Z</time>
      </trkpt>
      <trkpt lat="48.50811" lon="7.15534">
        <ele>825</ele>
        <time>2021-02-21T09:28:04.264Z</time>
      </trkpt>
      <trkpt lat="48.50812" lon="7.15535">
        <ele>825</ele>
        <time>2021-02-21T09:28:05.264Z</time>
      </trkpt>
      <trkpt lat="48.50812" lon="7.15536">
        <ele>825</ele>
        <time>2021-02-21T09:28:06.264Z</time>
      </trkpt>
      <trkpt lat="48.50813" lon="7.15538">
        <ele>824</ele>
        <time>2021-02-21T09:28:07.265Z</time>
      </trkpt>
      <trkpt lat="48.50813" lon="7.15539">
        <ele>824</ele>
        <time>2021-02-21T09:28:08.265Z</time>
      </trkpt>
      <trkpt lat="48.50814" lon="7.1554">
        <ele>824</ele>
        <time>2021-02-21T09:28:09.265Z</time>
      </trkpt>
      <trkpt lat="48.50815" lon="7.15541">
        <ele>824</ele>
        <time>2021-02-21T09:28:10.264Z</time>
      </trkpt>
      <trkpt lat="48.50816" lon="7.15542">
        <ele>824</ele>
        <time>2021-02-21T09:28:11.265Z</time>
      </trkpt>
      <trkpt lat="48.50816" lon="7.15543">
        <ele>824</ele>
        <time>2021-02-21T09:28:12.265Z</time>
      </trkpt>
      <trkpt lat="48.50817" lon="7.15544">
        <ele>824</ele>
        <time>2021-02-21T09:28:13.265Z</time>
      </trkpt>
      <trkpt lat="48.50817" lon="7.15545">
        <ele>824</ele>
        <time>2021-02-21T09:28:14.264Z</time>
      </trkpt>
      <trkpt lat="48.50818" lon="7.15546">
        <ele>825</ele>
        <time>2021-02-21T09:28:15.265Z</time>
      </trkpt>
      <trkpt lat="48.50819" lon="7.15546">
        <ele>824</ele>
        <time>2021-02-21T09:28:16.265Z</time>
      </trkpt>
      <trkpt lat="48.50819" lon="7.15547">
        <ele>824</ele>
        <time>2021-02-21T09:28:17.264Z</time>
      </trkpt>
      <trkpt lat="48.5082" lon="7.15548">
        <ele>824</ele>
        <time>2021-02-21T09:28:18.265Z</time>
      </trkpt>
      <trkpt lat="48.5082" lon="7.15549">
        <ele>824</ele>
        <time>2021-02-21T09:28:19.265Z</time>
      </trkpt>
      <trkpt lat="48.50821" lon="7.1555">
        <ele>824</ele>
        <time>2021-02-21T09:28:20.265Z</time>
      </trkpt>
      <trkpt lat="48.50822" lon="7.15551">
        <ele>824</ele>
        <time>2021-02-21T09:28:21.265Z</time>
      </trkpt>
      <trkpt lat="48.50822" lon="7.15552">
        <ele>824</ele>
        <time>2021-02-21T09:28:22.265Z</time>
      </trkpt>
      <trkpt lat="48.50823" lon="7.15554">
        <ele>825</ele>
        <time>2021-02-21T09:28:23.265Z</time>
      </trkpt>
      <trkpt lat="48.50824" lon="7.15555">
        <ele>825</ele>
        <time>2021-02-21T09:28:24.265Z</time>
      </trkpt>
      <trkpt lat="48.50825" lon="7.15556">
        <ele>825</ele>
        <time>2021-02-21T09:28:25.264Z</time>
      </trkpt>
      <trkpt lat="48.50826" lon="7.15558">
        <ele>826</ele>
        <time>2021-02-21T09:28:26.265Z</time>
      </trkpt>
      <trkpt lat="48.50827" lon="7.15559">
        <ele>826</ele>
        <time>2021-02-21T09:28:27.265Z</time>
      </trkpt>
      <trkpt lat="48.50828" lon="7.15561">
        <ele>826</ele>
        <time>2021-02-21T09:28:28.265Z</time>
      </trkpt>
      <trkpt lat="48.50829" lon="7.15562">
        <ele>826</ele>
        <time>2021-02-21T09:28:29.265Z</time>
      </trkpt>
      <trkpt lat="48.5083" lon="7.15564">
        <ele>827</ele>
        <time>2021-02-21T09:28:30.265Z</time>
      </trkpt>
      <trkpt lat="48.5083" lon="7.15565">
        <ele>827</ele>
        <time>2021-02-21T09:28:31.265Z</time>
      </trkpt>
      <trkpt lat="48.5083" lon="7.15566">
        <ele>827</ele>
        <time>2021-02-21T09:28:32.264Z</time>
      </trkpt>
      <trkpt lat="48.50831" lon="7.15568">
        <ele>827</ele>
        <time>2021-02-21T09:28:33.265Z</time>
      </trkpt>
      <trkpt lat="48.50833" lon="7.1557">
        <ele>827</ele>
        <time>2021-02-21T09:28:34.265Z</time>
      </trkpt>
      <trkpt lat="48.50834" lon="7.15572">
        <ele>827</ele>
        <time>2021-02-21T09:28:35.264Z</time>
      </trkpt>
      <trkpt lat="48.50835" lon="7.15573">
        <ele>828</ele>
        <time>2021-02-21T09:28:36.265Z</time>
      </trkpt>
      <trkpt lat="48.50836" lon="7.15575">
        <ele>828</ele>
        <time>2021-02-21T09:28:37.265Z</time>
      </trkpt>
      <trkpt lat="48.50836" lon="7.15577">
        <ele>829</ele>
        <time>2021-02-21T09:28:38.265Z</time>
      </trkpt>
      <trkpt lat="48.50836" lon="7.15578">
        <ele>830</ele>
        <time>2021-02-21T09:28:39.264Z</time>
      </trkpt>
      <trkpt lat="48.50837" lon="7.15579">
        <ele>830</ele>
        <time>2021-02-21T09:28:40.265Z</time>
      </trkpt>
      <trkpt lat="48.50838" lon="7.1558">
        <ele>831</ele>
        <time>2021-02-21T09:28:41.265Z</time>
      </trkpt>
      <trkpt lat="48.50839" lon="7.15582">
        <ele>832</ele>
        <time>2021-02-21T09:28:42.264Z</time>
      </trkpt>
      <trkpt lat="48.5084" lon="7.15583">
        <ele>832</ele>
        <time>2021-02-21T09:28:43.265Z</time>
      </trkpt>
      <trkpt lat="48.5084" lon="7.15584">
        <ele>833</ele>
        <time>2021-02-21T09:28:44.264Z</time>
      </trkpt>
      <trkpt lat="48.50841" lon="7.15586">
        <ele>834</ele>
        <time>2021-02-21T09:28:45.264Z</time>
      </trkpt>
      <trkpt lat="48.50842" lon="7.15587">
        <ele>834</ele>
        <time>2021-02-21T09:28:46.265Z</time>
      </trkpt>
      <trkpt lat="48.50844" lon="7.15589">
        <ele>835</ele>
        <time>2021-02-21T09:28:47.265Z</time>
      </trkpt>
      <trkpt lat="48.50844" lon="7.1559">
        <ele>835</ele>
        <time>2021-02-21T09:28:48.265Z</time>
      </trkpt>
      <trkpt lat="48.50845" lon="7.15592">
        <ele>836</ele>
        <time>2021-02-21T09:28:49.265Z</time>
      </trkpt>
      <trkpt lat="48.50846" lon="7.15593">
        <ele>836</ele>
        <time>2021-02-21T09:28:50.264Z</time>
      </trkpt>
      <trkpt lat="48.50847" lon="7.15595">
        <ele>837</ele>
        <time>2021-02-21T09:28:51.265Z</time>
      </trkpt>
      <trkpt lat="48.50848" lon="7.15597">
        <ele>837</ele>
        <time>2021-02-21T09:28:52.264Z</time>
      </trkpt>
      <trkpt lat="48.50848" lon="7.15598">
        <ele>838</ele>
        <time>2021-02-21T09:28:53.264Z</time>
      </trkpt>
      <trkpt lat="48.50848" lon="7.15599">
        <ele>839</ele>
        <time>2021-02-21T09:28:54.265Z</time>
      </trkpt>
      <trkpt lat="48.50848" lon="7.156">
        <ele>839</ele>
        <time>2021-02-21T09:28:55.264Z</time>
      </trkpt>
      <trkpt lat="48.50848" lon="7.15601">
        <ele>839</ele>
        <time>2021-02-21T09:28:56.265Z</time>
      </trkpt>
      <trkpt lat="48.50849" lon="7.15602">
        <ele>839</ele>
        <time>2021-02-21T09:28:57.264Z</time>
      </trkpt>
      <trkpt lat="48.5085" lon="7.15604">
        <ele>840</ele>
        <time>2021-02-21T09:28:58.265Z</time>
      </trkpt>
      <trkpt lat="48.5085" lon="7.15606">
        <ele>840</ele>
        <time>2021-02-21T09:28:59.264Z</time>
      </trkpt>
      <trkpt lat="48.5085" lon="7.15606">
        <ele>841</ele>
        <time>2021-02-21T09:29:00.265Z</time>
      </trkpt>
      <trkpt lat="48.5085" lon="7.15607">
        <ele>841</ele>
        <time>2021-02-21T09:29:01.264Z</time>
      </trkpt>
      <trkpt lat="48.5085" lon="7.15607">
        <ele>841</ele>
        <time>2021-02-21T09:29:02.264Z</time>
      </trkpt>
      <trkpt lat="48.50851" lon="7.15608">
        <ele>842</ele>
        <time>2021-02-21T09:29:03.265Z</time>
      </trkpt>
      <trkpt lat="48.50852" lon="7.15609">
        <ele>842</ele>
        <time>2021-02-21T09:29:04.264Z</time>
      </trkpt>
      <trkpt lat="48.50854" lon="7.1561">
        <ele>842</ele>
        <time>2021-02-21T09:29:05.265Z</time>
      </trkpt>
      <trkpt lat="48.50855" lon="7.15611">
        <ele>842</ele>
        <time>2021-02-21T09:29:06.265Z</time>
      </trkpt>
      <trkpt lat="48.50856" lon="7.15612">
        <ele>842</ele>
        <time>2021-02-21T09:29:07.264Z</time>
      </trkpt>
      <trkpt lat="48.50856" lon="7.15613">
        <ele>842</ele>
        <time>2021-02-21T09:29:08.265Z</time>
      </trkpt>
      <trkpt lat="48.50857" lon="7.15614">
        <ele>842</ele>
        <time>2021-02-21T09:29:09.264Z</time>
      </trkpt>
      <trkpt lat="48.50858" lon="7.15616">
        <ele>842</ele>
        <time>2021-02-21T09:29:10.264Z</time>
      </trkpt>
      <trkpt lat="48.50859" lon="7.15616">
        <ele>842</ele>
        <time>2021-02-21T09:29:11.265Z</time>
      </trkpt>
      <trkpt lat="48.5086" lon="7.15617">
        <ele>842</ele>
        <time>2021-02-21T09:29:12.265Z</time>
      </trkpt>
      <trkpt lat="48.50861" lon="7.15618">
        <ele>842</ele>
        <time>2021-02-21T09:29:13.265Z</time>
      </trkpt>
      <trkpt lat="48.50861" lon="7.1562">
        <ele>842</ele>
        <time>2021-02-21T09:29:14.264Z</time>
      </trkpt>
      <trkpt lat="48.50862" lon="7.15621">
        <ele>842</ele>
        <time>2021-02-21T09:29:15.264Z</time>
      </trkpt>
      <trkpt lat="48.50862" lon="7.15622">
        <ele>842</ele>
        <time>2021-02-21T09:29:16.264Z</time>
      </trkpt>
      <trkpt lat="48.50864" lon="7.15624">
        <ele>841</ele>
        <time>2021-02-21T09:29:17.265Z</time>
      </trkpt>
      <trkpt lat="48.50865" lon="7.15626">
        <ele>841</ele>
        <time>2021-02-21T09:29:18.265Z</time>
      </trkpt>
      <trkpt lat="48.50866" lon="7.15627">
        <ele>841</ele>
        <time>2021-02-21T09:29:19.265Z</time>
      </trkpt>
      <trkpt lat="48.50866" lon="7.15629">
        <ele>840</ele>
        <time>2021-02-21T09:29:20.264Z</time>
      </trkpt>
      <trkpt lat="48.50867" lon="7.1563">
        <ele>840</ele>
        <time>2021-02-21T09:29:21.265Z</time>
      </trkpt>
      <trkpt lat="48.50868" lon="7.15631">
        <ele>840</ele>
        <time>2021-02-21T09:29:22.265Z</time>
      </trkpt>
      <trkpt lat="48.50869" lon="7.15632">
        <ele>840</ele>
        <time>2021-02-21T09:29:23.265Z</time>
      </trkpt>
      <trkpt lat="48.50869" lon="7.15633">
        <ele>840</ele>
        <time>2021-02-21T09:29:24.265Z</time>
      </trkpt>
      <trkpt lat="48.50869" lon="7.15635">
        <ele>840</ele>
        <time>2021-02-21T09:29:25.265Z</time>
      </trkpt>
      <trkpt lat="48.5087" lon="7.15636">
        <ele>840</ele>
        <time>2021-02-21T09:29:26.264Z</time>
      </trkpt>
      <trkpt lat="48.50871" lon="7.15637">
        <ele>840</ele>
        <time>2021-02-21T09:29:27.265Z</time>
      </trkpt>
      <trkpt lat="48.50872" lon="7.15638">
        <ele>840</ele>
        <time>2021-02-21T09:29:28.264Z</time>
      </trkpt>
      <trkpt lat="48.50873" lon="7.15638">
        <ele>840</ele>
        <time>2021-02-21T09:29:29.264Z</time>
      </trkpt>
      <trkpt lat="48.50873" lon="7.15639">
        <ele>840</ele>
        <time>2021-02-21T09:29:30.264Z</time>
      </trkpt>
      <trkpt lat="48.50874" lon="7.1564">
        <ele>841</ele>
        <time>2021-02-21T09:29:31.264Z</time>
      </trkpt>
      <trkpt lat="48.50875" lon="7.15641">
        <ele>841</ele>
        <time>2021-02-21T09:29:32.265Z</time>
      </trkpt>
      <trkpt lat="48.50875" lon="7.15642">
        <ele>841</ele>
        <time>2021-02-21T09:29:33.265Z</time>
      </trkpt>
      <trkpt lat="48.50876" lon="7.15644">
        <ele>841</ele>
        <time>2021-02-21T09:29:34.264Z</time>
      </trkpt>
      <trkpt lat="48.50877" lon="7.15646">
        <ele>841</ele>
        <time>2021-02-21T09:29:35.264Z</time>
      </trkpt>
      <trkpt lat="48.50878" lon="7.15647">
        <ele>841</ele>
        <time>2021-02-21T09:29:36.265Z</time>
      </trkpt>
      <trkpt lat="48.50879" lon="7.15648">
        <ele>842</ele>
        <time>2021-02-21T09:29:37.265Z</time>
      </trkpt>
      <trkpt lat="48.5088" lon="7.15649">
        <ele>842</ele>
        <time>2021-02-21T09:29:38.265Z</time>
      </trkpt>
      <trkpt lat="48.50881" lon="7.1565">
        <ele>842</ele>
        <time>2021-02-21T09:29:39.264Z</time>
      </trkpt>
      <trkpt lat="48.50882" lon="7.1565">
        <ele>843</ele>
        <time>2021-02-21T09:29:40.264Z</time>
      </trkpt>
      <trkpt lat="48.50882" lon="7.15651">
        <ele>843</ele>
        <time>2021-02-21T09:29:41.264Z</time>
      </trkpt>
      <trkpt lat="48.50883" lon="7.15652">
        <ele>843</ele>
        <time>2021-02-21T09:29:42.264Z</time>
      </trkpt>
      <trkpt lat="48.50884" lon="7.15654">
        <ele>844</ele>
        <time>2021-02-21T09:29:43.265Z</time>
      </trkpt>
      <trkpt lat="48.50884" lon="7.15655">
        <ele>844</ele>
        <time>2021-02-21T09:29:44.264Z</time>
      </trkpt>
      <trkpt lat="48.50885" lon="7.15657">
        <ele>844</ele>
        <time>2021-02-21T09:29:45.264Z</time>
      </trkpt>
      <trkpt lat="48.50886" lon="7.15658">
        <ele>844</ele>
        <time>2021-02-21T09:29:46.265Z</time>
      </trkpt>
      <trkpt lat="48.50887" lon="7.1566">
        <ele>844</ele>
        <time>2021-02-21T09:29:47.264Z</time>
      </trkpt>
      <trkpt lat="48.50889" lon="7.15661">
        <ele>845</ele>
        <time>2021-02-21T09:29:48.265Z</time>
      </trkpt>
      <trkpt lat="48.5089" lon="7.15663">
        <ele>845</ele>
        <time>2021-02-21T09:29:49.265Z</time>
      </trkpt>
      <trkpt lat="48.50891" lon="7.15664">
        <ele>845</ele>
        <time>2021-02-21T09:29:50.264Z</time>
      </trkpt>
      <trkpt lat="48.50891" lon="7.15665">
        <ele>845</ele>
        <time>2021-02-21T09:29:51.264Z</time>
      </trkpt>
      <trkpt lat="48.50891" lon="7.15666">
        <ele>845</ele>
        <time>2021-02-21T09:29:52.265Z</time>
      </trkpt>
      <trkpt lat="48.50892" lon="7.15668">
        <ele>845</ele>
        <time>2021-02-21T09:29:53.264Z</time>
      </trkpt>
      <trkpt lat="48.50893" lon="7.15668">
        <ele>845</ele>
        <time>2021-02-21T09:29:54.264Z</time>
      </trkpt>
      <trkpt lat="48.50894" lon="7.15669">
        <ele>845</ele>
        <time>2021-02-21T09:29:55.264Z</time>
      </trkpt>
      <trkpt lat="48.50895" lon="7.1567">
        <ele>845</ele>
        <time>2021-02-21T09:29:56.264Z</time>
      </trkpt>
      <trkpt lat="48.50895" lon="7.15671">
        <ele>845</ele>
        <time>2021-02-21T09:29:57.264Z</time>
      </trkpt>
      <trkpt lat="48.50896" lon="7.15673">
        <ele>845</ele>
        <time>2021-02-21T09:29:58.265Z</time>
      </trkpt>
      <trkpt lat="48.50897" lon="7.15674">
        <ele>845</ele>
        <time>2021-02-21T09:29:59.264Z</time>
      </trkpt>
      <trkpt lat="48.50897" lon="7.15675">
        <ele>845</ele>
        <time>2021-02-21T09:30:00.264Z</time>
      </trkpt>
      <trkpt lat="48.50898" lon="7.15676">
        <ele>845</ele>
        <time>2021-02-21T09:30:01.264Z</time>
      </trkpt>
      <trkpt lat="48.50898" lon="7.15677">
        <ele>845</ele>
        <time>2021-02-21T09:30:02.264Z</time>
      </trkpt>
      <trkpt lat="48.50899" lon="7.15678">
        <ele>845</ele>
        <time>2021-02-21T09:30:03.265Z</time>
      </trkpt>
      <trkpt lat="48.509" lon="7.1568">
        <ele>846</ele>
        <time>2021-02-21T09:30:04.265Z</time>
      </trkpt>
      <trkpt lat="48.50902" lon="7.15682">
        <ele>846</ele>
        <time>2021-02-21T09:30:05.264Z</time>
      </trkpt>
      <trkpt lat="48.50903" lon="7.15683">
        <ele>846</ele>
        <time>2021-02-21T09:30:06.264Z</time>
      </trkpt>
      <trkpt lat="48.50905" lon="7.15684">
        <ele>846</ele>
        <time>2021-02-21T09:30:07.265Z</time>
      </trkpt>
      <trkpt lat="48.50906" lon="7.15685">
        <ele>846</ele>
        <time>2021-02-21T09:30:08.265Z</time>
      </trkpt>
      <trkpt lat="48.50907" lon="7.15687">
        <ele>846</ele>
        <time>2021-02-21T09:30:09.264Z</time>
      </trkpt>
      <trkpt lat="48.50908" lon="7.15688">
        <ele>847</ele>
        <time>2021-02-21T09:30:10.264Z</time>
      </trkpt>
      <trkpt lat="48.50909" lon="7.15689">
        <ele>847</ele>
        <time>2021-02-21T09:30:11.264Z</time>
      </trkpt>
      <trkpt lat="48.50909" lon="7.1569">
        <ele>848</ele>
        <time>2021-02-21T09:30:12.265Z</time>
      </trkpt>
      <trkpt lat="48.5091" lon="7.15691">
        <ele>848</ele>
        <time>2021-02-21T09:30:13.264Z</time>
      </trkpt>
      <trkpt lat="48.5091" lon="7.15692">
        <ele>848</ele>
        <time>2021-02-21T09:30:14.264Z</time>
      </trkpt>
      <trkpt lat="48.50911" lon="7.15693">
        <ele>848</ele>
        <time>2021-02-21T09:30:15.265Z</time>
      </trkpt>
      <trkpt lat="48.50912" lon="7.15694">
        <ele>848</ele>
        <time>2021-02-21T09:30:16.264Z</time>
      </trkpt>
      <trkpt lat="48.50913" lon="7.15695">
        <ele>848</ele>
        <time>2021-02-21T09:30:17.265Z</time>
      </trkpt>
      <trkpt lat="48.50914" lon="7.15696">
        <ele>848</ele>
        <time>2021-02-21T09:30:18.264Z</time>
      </trkpt>
      <trkpt lat="48.50914" lon="7.15697">
        <ele>847</ele>
        <time>2021-02-21T09:30:19.264Z</time>
      </trkpt>
      <trkpt lat="48.50915" lon="7.15699">
        <ele>846</ele>
        <time>2021-02-21T09:30:20.264Z</time>
      </trkpt>
      <trkpt lat="48.50915" lon="7.15699">
        <ele>846</ele>
        <time>2021-02-21T09:30:21.264Z</time>
      </trkpt>
      <trkpt lat="48.50915" lon="7.15701">
        <ele>845</ele>
        <time>2021-02-21T09:30:22.264Z</time>
      </trkpt>
      <trkpt lat="48.50916" lon="7.15701">
        <ele>845</ele>
        <time>2021-02-21T09:30:23.265Z</time>
      </trkpt>
      <trkpt lat="48.50916" lon="7.15702">
        <ele>844</ele>
        <time>2021-02-21T09:30:24.265Z</time>
      </trkpt>
      <trkpt lat="48.50917" lon="7.15703">
        <ele>844</ele>
        <time>2021-02-21T09:30:25.264Z</time>
      </trkpt>
      <trkpt lat="48.50917" lon="7.15704">
        <ele>844</ele>
        <time>2021-02-21T09:30:26.265Z</time>
      </trkpt>
      <trkpt lat="48.50917" lon="7.15704">
        <ele>844</ele>
        <time>2021-02-21T09:30:27.265Z</time>
      </trkpt>
      <trkpt lat="48.50918" lon="7.15705">
        <ele>844</ele>
        <time>2021-02-21T09:30:28.264Z</time>
      </trkpt>
      <trkpt lat="48.50919" lon="7.15706">
        <ele>844</ele>
        <time>2021-02-21T09:30:29.265Z</time>
      </trkpt>
      <trkpt lat="48.5092" lon="7.15707">
        <ele>844</ele>
        <time>2021-02-21T09:30:30.264Z</time>
      </trkpt>
      <trkpt lat="48.5092" lon="7.15709">
        <ele>844</ele>
        <time>2021-02-21T09:30:31.265Z</time>
      </trkpt>
      <trkpt lat="48.50921" lon="7.15711">
        <ele>843</ele>
        <time>2021-02-21T09:30:32.264Z</time>
      </trkpt>
      <trkpt lat="48.50922" lon="7.15713">
        <ele>843</ele>
        <time>2021-02-21T09:30:33.265Z</time>
      </trkpt>
      <trkpt lat="48.50923" lon="7.15714">
        <ele>844</ele>
        <time>2021-02-21T09:30:34.265Z</time>
      </trkpt>
      <trkpt lat="48.50925" lon="7.15716">
        <ele>844</ele>
        <time>2021-02-21T09:30:35.264Z</time>
      </trkpt>
      <trkpt lat="48.50926" lon="7.15716">
        <ele>844</ele>
        <time>2021-02-21T09:30:36.265Z</time>
      </trkpt>
      <trkpt lat="48.50927" lon="7.15717">
        <ele>845</ele>
        <time>2021-02-21T09:30:37.265Z</time>
      </trkpt>
      <trkpt lat="48.50928" lon="7.15718">
        <ele>845</ele>
        <time>2021-02-21T09:30:38.264Z</time>
      </trkpt>
      <trkpt lat="48.50928" lon="7.1572">
        <ele>846</ele>
        <time>2021-02-21T09:30:39.265Z</time>
      </trkpt>
      <trkpt lat="48.50929" lon="7.15721">
        <ele>846</ele>
        <time>2021-02-21T09:30:40.264Z</time>
      </trkpt>
      <trkpt lat="48.5093" lon="7.15722">
        <ele>846</ele>
        <time>2021-02-21T09:30:41.264Z</time>
      </trkpt>
      <trkpt lat="48.50932" lon="7.15723">
        <ele>846</ele>
        <time>2021-02-21T09:30:42.265Z</time>
      </trkpt>
      <trkpt lat="48.50932" lon="7.15723">
        <ele>846</ele>
        <time>2021-02-21T09:30:43.265Z</time>
      </trkpt>
      <trkpt lat="48.50933" lon="7.15724">
        <ele>847</ele>
        <time>2021-02-21T09:30:44.265Z</time>
      </trkpt>
      <trkpt lat="48.50933" lon="7.15724">
        <ele>848</ele>
        <time>2021-02-21T09:30:45.265Z</time>
      </trkpt>
      <trkpt lat="48.50934" lon="7.15724">
        <ele>848</ele>
        <time>2021-02-21T09:30:46.265Z</time>
      </trkpt>
      <trkpt lat="48.50934" lon="7.15725">
        <ele>849</ele>
        <time>2021-02-21T09:30:47.265Z</time>
      </trkpt>
      <trkpt lat="48.50936" lon="7.15726">
        <ele>850</ele>
        <time>2021-02-21T09:30:48.265Z</time>
      </trkpt>
      <trkpt lat="48.50937" lon="7.15726">
        <ele>850</ele>
        <time>2021-02-21T09:30:49.265Z</time>
      </trkpt>
      <trkpt lat="48.50938" lon="7.15726">
        <ele>851</ele>
        <time>2021-02-21T09:30:50.265Z</time>
      </trkpt>
      <trkpt lat="48.50938" lon="7.15726">
        <ele>851</ele>
        <time>2021-02-21T09:30:51.264Z</time>
      </trkpt>
      <trkpt lat="48.5094" lon="7.15727">
        <ele>852</ele>
        <time>2021-02-21T09:30:52.264Z</time>
      </trkpt>
      <trkpt lat="48.50941" lon="7.15727">
        <ele>852</ele>
        <time>2021-02-21T09:30:53.265Z</time>
      </trkpt>
      <trkpt lat="48.50941" lon="7.15727">
        <ele>852</ele>
        <time>2021-02-21T09:30:54.264Z</time>
      </trkpt>
      <trkpt lat="48.50943" lon="7.15728">
        <ele>852</ele>
        <time>2021-02-21T09:30:55.264Z</time>
      </trkpt>
      <trkpt lat="48.50943" lon="7.15728">
        <ele>852</ele>
        <time>2021-02-21T09:30:56.264Z</time>
      </trkpt>
      <trkpt lat="48.50944" lon="7.15728">
        <ele>852</ele>
        <time>2021-02-21T09:30:57.264Z</time>
      </trkpt>
      <trkpt lat="48.50945" lon="7.15729">
        <ele>852</ele>
        <time>2021-02-21T09:30:58.265Z</time>
      </trkpt>
      <trkpt lat="48.50945" lon="7.1573">
        <ele>852</ele>
        <time>2021-02-21T09:30:59.264Z</time>
      </trkpt>
      <trkpt lat="48.50946" lon="7.15731">
        <ele>852</ele>
        <time>2021-02-21T09:31:00.265Z</time>
      </trkpt>
      <trkpt lat="48.50947" lon="7.15732">
        <ele>851</ele>
        <time>2021-02-21T09:31:01.265Z</time>
      </trkpt>
      <trkpt lat="48.50948" lon="7.15733">
        <ele>851</ele>
        <time>2021-02-21T09:31:02.265Z</time>
      </trkpt>
      <trkpt lat="48.50948" lon="7.15734">
        <ele>851</ele>
        <time>2021-02-21T09:31:03.265Z</time>
      </trkpt>
      <trkpt lat="48.50948" lon="7.15736">
        <ele>851</ele>
        <time>2021-02-21T09:31:04.265Z</time>
      </trkpt>
      <trkpt lat="48.50948" lon="7.15737">
        <ele>851</ele>
        <time>2021-02-21T09:31:05.264Z</time>
      </trkpt>
      <trkpt lat="48.50948" lon="7.15738">
        <ele>851</ele>
        <time>2021-02-21T09:31:06.265Z</time>
      </trkpt>
      <trkpt lat="48.50949" lon="7.15739">
        <ele>851</ele>
        <time>2021-02-21T09:31:07.264Z</time>
      </trkpt>
      <trkpt lat="48.50949" lon="7.1574">
        <ele>852</ele>
        <time>2021-02-21T09:31:08.265Z</time>
      </trkpt>
      <trkpt lat="48.50949" lon="7.1574">
        <ele>852</ele>
        <time>2021-02-21T09:31:09.265Z</time>
      </trkpt>
      <trkpt lat="48.50949" lon="7.15741">
        <ele>852</ele>
        <time>2021-02-21T09:31:10.265Z</time>
      </trkpt>
      <trkpt lat="48.5095" lon="7.15743">
        <ele>852</ele>
        <time>2021-02-21T09:31:11.264Z</time>
      </trkpt>
      <trkpt lat="48.5095" lon="7.15744">
        <ele>852</ele>
        <time>2021-02-21T09:31:12.265Z</time>
      </trkpt>
      <trkpt lat="48.5095" lon="7.15744">
        <ele>852</ele>
        <time>2021-02-21T09:31:13.265Z</time>
      </trkpt>
      <trkpt lat="48.50951" lon="7.15744">
        <ele>852</ele>
        <time>2021-02-21T09:31:14.264Z</time>
      </trkpt>
      <trkpt lat="48.50952" lon="7.15745">
        <ele>851</ele>
        <time>2021-02-21T09:31:15.265Z</time>
      </trkpt>
      <trkpt lat="48.50954" lon="7.15746">
        <ele>851</ele>
        <time>2021-02-21T09:31:16.264Z</time>
      </trkpt>
      <trkpt lat="48.50955" lon="7.15746">
        <ele>851</ele>
        <time>2021-02-21T09:31:17.265Z</time>
      </trkpt>
      <trkpt lat="48.50955" lon="7.15746">
        <ele>850</ele>
        <time>2021-02-21T09:31:18.265Z</time>
      </trkpt>
      <trkpt lat="48.50955" lon="7.15746">
        <ele>850</ele>
        <time>2021-02-21T09:31:19.265Z</time>
      </trkpt>
      <trkpt lat="48.50956" lon="7.15747">
        <ele>850</ele>
        <time>2021-02-21T09:31:20.264Z</time>
      </trkpt>
      <trkpt lat="48.50957" lon="7.15748">
        <ele>850</ele>
        <time>2021-02-21T09:31:21.264Z</time>
      </trkpt>
      <trkpt lat="48.50958" lon="7.15749">
        <ele>850</ele>
        <time>2021-02-21T09:31:22.264Z</time>
      </trkpt>
      <trkpt lat="48.50958" lon="7.1575">
        <ele>850</ele>
        <time>2021-02-21T09:31:23.264Z</time>
      </trkpt>
      <trkpt lat="48.50958" lon="7.15751">
        <ele>851</ele>
        <time>2021-02-21T09:31:24.264Z</time>
      </trkpt>
      <trkpt lat="48.50959" lon="7.15752">
        <ele>851</ele>
        <time>2021-02-21T09:31:25.264Z</time>
      </trkpt>
      <trkpt lat="48.50961" lon="7.15754">
        <ele>851</ele>
        <time>2021-02-21T09:31:26.264Z</time>
      </trkpt>
      <trkpt lat="48.50963" lon="7.15755">
        <ele>852</ele>
        <time>2021-02-21T09:31:27.264Z</time>
      </trkpt>
      <trkpt lat="48.50964" lon="7.15756">
        <ele>852</ele>
        <time>2021-02-21T09:31:28.264Z</time>
      </trkpt>
      <trkpt lat="48.50965" lon="7.15756">
        <ele>853</ele>
        <time>2021-02-21T09:31:29.264Z</time>
      </trkpt>
      <trkpt lat="48.50965" lon="7.15757">
        <ele>853</ele>
        <time>2021-02-21T09:31:30.264Z</time>
      </trkpt>
      <trkpt lat="48.50965" lon="7.15757">
        <ele>853</ele>
        <time>2021-02-21T09:31:31.264Z</time>
      </trkpt>
      <trkpt lat="48.50965" lon="7.15758">
        <ele>854</ele>
        <time>2021-02-21T09:31:32.265Z</time>
      </trkpt>
      <trkpt lat="48.50966" lon="7.15758">
        <ele>854</ele>
        <time>2021-02-21T09:31:33.264Z</time>
      </trkpt>
      <trkpt lat="48.50966" lon="7.15758">
        <ele>855</ele>
        <time>2021-02-21T09:31:34.264Z</time>
      </trkpt>
      <trkpt lat="48.50967" lon="7.15759">
        <ele>855</ele>
        <time>2021-02-21T09:31:35.264Z</time>
      </trkpt>
      <trkpt lat="48.50967" lon="7.1576">
        <ele>855</ele>
        <time>2021-02-21T09:31:36.264Z</time>
      </trkpt>
      <trkpt lat="48.50968" lon="7.1576">
        <ele>855</ele>
        <time>2021-02-21T09:31:37.264Z</time>
      </trkpt>
      <trkpt lat="48.50969" lon="7.15761">
        <ele>855</ele>
        <time>2021-02-21T09:31:38.265Z</time>
      </trkpt>
      <trkpt lat="48.50969" lon="7.15762">
        <ele>855</ele>
        <time>2021-02-21T09:31:39.265Z</time>
      </trkpt>
      <trkpt lat="48.5097" lon="7.15762">
        <ele>855</ele>
        <time>2021-02-21T09:31:40.265Z</time>
      </trkpt>
      <trkpt lat="48.5097" lon="7.15762">
        <ele>855</ele>
        <time>2021-02-21T09:31:41.264Z</time>
      </trkpt>
      <trkpt lat="48.50971" lon="7.15763">
        <ele>855</ele>
        <time>2021-02-21T09:31:42.264Z</time>
      </trkpt>
      <trkpt lat="48.50971" lon="7.15763">
        <ele>855</ele>
        <time>2021-02-21T09:31:43.264Z</time>
      </trkpt>
      <trkpt lat="48.50972" lon="7.15765">
        <ele>855</ele>
        <time>2021-02-21T09:31:44.264Z</time>
      </trkpt>
      <trkpt lat="48.50974" lon="7.15766">
        <ele>855</ele>
        <time>2021-02-21T09:31:45.264Z</time>
      </trkpt>
      <trkpt lat="48.50974" lon="7.15767">
        <ele>855</ele>
        <time>2021-02-21T09:31:46.265Z</time>
      </trkpt>
      <trkpt lat="48.50974" lon="7.15768">
        <ele>854</ele>
        <time>2021-02-21T09:31:47.264Z</time>
      </trkpt>
      <trkpt lat="48.50974" lon="7.1577">
        <ele>854</ele>
        <time>2021-02-21T09:31:48.265Z</time>
      </trkpt>
      <trkpt lat="48.50975" lon="7.15771">
        <ele>854</ele>
        <time>2021-02-21T09:31:49.265Z</time>
      </trkpt>
      <trkpt lat="48.50975" lon="7.15772">
        <ele>855</ele>
        <time>2021-02-21T09:31:50.264Z</time>
      </trkpt>
      <trkpt lat="48.50975" lon="7.15773">
        <ele>855</ele>
        <time>2021-02-21T09:31:51.264Z</time>
      </trkpt>
      <trkpt lat="48.50975" lon="7.15774">
        <ele>855</ele>
        <time>2021-02-21T09:31:52.264Z</time>
      </trkpt>
      <trkpt lat="48.50974" lon="7.15775">
        <ele>855</ele>
        <time>2021-02-21T09:31:53.265Z</time>
      </trkpt>
      <trkpt lat="48.50973" lon="7.15776">
        <ele>855</ele>
        <time>2021-02-21T09:31:54.264Z</time>
      </trkpt>
      <trkpt lat="48.50972" lon="7.15777">
        <ele>855</ele>
        <time>2021-02-21T09:31:55.264Z</time>
      </trkpt>
      <trkpt lat="48.50972" lon="7.15778">
        <ele>855</ele>
        <time>2021-02-21T09:31:56.265Z</time>
      </trkpt>
      <trkpt lat="48.50971" lon="7.15779">
        <ele>855</ele>
        <time>2021-02-21T09:31:57.265Z</time>
      </trkpt>
      <trkpt lat="48.5097" lon="7.1578">
        <ele>855</ele>
        <time>2021-02-21T09:31:58.265Z</time>
      </trkpt>
      <trkpt lat="48.5097" lon="7.15782">
        <ele>856</ele>
        <time>2021-02-21T09:31:59.265Z</time>
      </trkpt>
      <trkpt lat="48.50969" lon="7.15783">
        <ele>856</ele>
        <time>2021-02-21T09:32:00.264Z</time>
      </trkpt>
      <trkpt lat="48.50969" lon="7.15784">
        <ele>856</ele>
        <time>2021-02-21T09:32:01.264Z</time>
      </trkpt>
      <trkpt lat="48.50969" lon="7.15785">
        <ele>856</ele>
        <time>2021-02-21T09:32:02.264Z</time>
      </trkpt>
      <trkpt lat="48.50968" lon="7.15785">
        <ele>856</ele>
        <time>2021-02-21T09:32:03.264Z</time>
      </trkpt>
      <trkpt lat="48.50967" lon="7.15786">
        <ele>856</ele>
        <time>2021-02-21T09:32:04.264Z</time>
      </trkpt>
      <trkpt lat="48.50967" lon="7.15786">
        <ele>856</ele>
        <time>2021-02-21T09:32:05.264Z</time>
      </trkpt>
      <trkpt lat="48.50966" lon="7.15786">
        <ele>855</ele>
        <time>2021-02-21T09:32:06.264Z</time>
      </trkpt>
      <trkpt lat="48.50963" lon="7.15786">
        <ele>856</ele>
        <time>2021-02-21T09:32:07.266Z</time>
      </trkpt>
      <trkpt lat="48.50962" lon="7.15787">
        <ele>856</ele>
        <time>2021-02-21T09:32:08.265Z</time>
      </trkpt>
      <trkpt lat="48.50961" lon="7.15788">
        <ele>856</ele>
        <time>2021-02-21T09:32:09.266Z</time>
      </trkpt>
      <trkpt lat="48.5096" lon="7.15788">
        <ele>856</ele>
        <time>2021-02-21T09:32:10.266Z</time>
      </trkpt>
      <trkpt lat="48.5096" lon="7.15789">
        <ele>856</ele>
        <time>2021-02-21T09:32:11.266Z</time>
      </trkpt>
      <trkpt lat="48.50959" lon="7.15789">
        <ele>855</ele>
        <time>2021-02-21T09:32:12.266Z</time>
      </trkpt>
      <trkpt lat="48.50958" lon="7.15789">
        <ele>855</ele>
        <time>2021-02-21T09:32:13.265Z</time>
      </trkpt>
      <trkpt lat="48.50957" lon="7.1579">
        <ele>855</ele>
        <time>2021-02-21T09:32:14.266Z</time>
      </trkpt>
      <trkpt lat="48.50956" lon="7.1579">
        <ele>856</ele>
        <time>2021-02-21T09:32:15.266Z</time>
      </trkpt>
      <trkpt lat="48.50955" lon="7.1579">
        <ele>856</ele>
        <time>2021-02-21T09:32:16.266Z</time>
      </trkpt>
      <trkpt lat="48.50954" lon="7.1579">
        <ele>856</ele>
        <time>2021-02-21T09:32:17.266Z</time>
      </trkpt>
      <trkpt lat="48.50953" lon="7.15791">
        <ele>856</ele>
        <time>2021-02-21T09:32:18.265Z</time>
      </trkpt>
      <trkpt lat="48.50952" lon="7.15791">
        <ele>856</ele>
        <time>2021-02-21T09:32:19.266Z</time>
      </trkpt>
      <trkpt lat="48.50951" lon="7.15792">
        <ele>857</ele>
        <time>2021-02-21T09:32:20.266Z</time>
      </trkpt>
      <trkpt lat="48.50951" lon="7.15793">
        <ele>857</ele>
        <time>2021-02-21T09:32:21.266Z</time>
      </trkpt>
      <trkpt lat="48.50949" lon="7.15793">
        <ele>858</ele>
        <time>2021-02-21T09:32:22.266Z</time>
      </trkpt>
      <trkpt lat="48.50949" lon="7.15794">
        <ele>858</ele>
        <time>2021-02-21T09:32:23.265Z</time>
      </trkpt>
      <trkpt lat="48.50948" lon="7.15795">
        <ele>859</ele>
        <time>2021-02-21T09:32:24.266Z</time>
      </trkpt>
      <trkpt lat="48.50948" lon="7.15796">
        <ele>859</ele>
        <time>2021-02-21T09:32:25.265Z</time>
      </trkpt>
      <trkpt lat="48.50947" lon="7.15797">
        <ele>859</ele>
        <time>2021-02-21T09:32:26.266Z</time>
      </trkpt>
      <trkpt lat="48.50946" lon="7.15796">
        <ele>859</ele>
        <time>2021-02-21T09:32:27.265Z</time>
      </trkpt>
      <trkpt lat="48.50945" lon="7.15796">
        <ele>860</ele>
        <time>2021-02-21T09:32:28.265Z</time>
      </trkpt>
      <trkpt lat="48.50943" lon="7.15796">
        <ele>860</ele>
        <time>2021-02-21T09:32:29.265Z</time>
      </trkpt>
      <trkpt lat="48.50941" lon="7.15796">
        <ele>861</ele>
        <time>2021-02-21T09:32:30.265Z</time>
      </trkpt>
      <trkpt lat="48.50941" lon="7.15797">
        <ele>861</ele>
        <time>2021-02-21T09:32:31.265Z</time>
      </trkpt>
      <trkpt lat="48.5094" lon="7.15798">
        <ele>862</ele>
        <time>2021-02-21T09:32:32.265Z</time>
      </trkpt>
      <trkpt lat="48.50939" lon="7.15799">
        <ele>862</ele>
        <time>2021-02-21T09:32:33.265Z</time>
      </trkpt>
      <trkpt lat="48.50938" lon="7.158">
        <ele>862</ele>
        <time>2021-02-21T09:32:34.266Z</time>
      </trkpt>
      <trkpt lat="48.50937" lon="7.158">
        <ele>862</ele>
        <time>2021-02-21T09:32:35.266Z</time>
      </trkpt>
      <trkpt lat="48.50935" lon="7.158">
        <ele>862</ele>
        <time>2021-02-21T09:32:36.266Z</time>
      </trkpt>
      <trkpt lat="48.50934" lon="7.158">
        <ele>862</ele>
        <time>2021-02-21T09:32:37.266Z</time>
      </trkpt>
      <trkpt lat="48.50933" lon="7.15799">
        <ele>862</ele>
        <time>2021-02-21T09:32:38.265Z</time>
      </trkpt>
      <trkpt lat="48.50932" lon="7.15799">
        <ele>862</ele>
        <time>2021-02-21T09:32:39.265Z</time>
      </trkpt>
      <trkpt lat="48.50932" lon="7.15799">
        <ele>863</ele>
        <time>2021-02-21T09:32:40.266Z</time>
      </trkpt>
      <trkpt lat="48.50931" lon="7.158">
        <ele>863</ele>
        <time>2021-02-21T09:32:41.266Z</time>
      </trkpt>
      <trkpt lat="48.5093" lon="7.158">
        <ele>863</ele>
        <time>2021-02-21T09:32:42.266Z</time>
      </trkpt>
      <trkpt lat="48.50928" lon="7.15801">
        <ele>864</ele>
        <time>2021-02-21T09:32:43.266Z</time>
      </trkpt>
      <trkpt lat="48.50927" lon="7.15802">
        <ele>864</ele>
        <time>2021-02-21T09:32:44.266Z</time>
      </trkpt>
      <trkpt lat="48.50927" lon="7.15802">
        <ele>864</ele>
        <time>2021-02-21T09:32:45.266Z</time>
      </trkpt>
      <trkpt lat="48.50927" lon="7.15803">
        <ele>865</ele>
        <time>2021-02-21T09:32:46.265Z</time>
      </trkpt>
      <trkpt lat="48.50927" lon="7.15804">
        <ele>865</ele>
        <time>2021-02-21T09:32:47.265Z</time>
      </trkpt>
      <trkpt lat="48.50927" lon="7.15803">
        <ele>863</ele>
        <time>2021-02-21T09:32:48.266Z</time>
      </trkpt>
      <trkpt lat="48.50927" lon="7.15803">
        <ele>863</ele>
        <time>2021-02-21T09:32:49.265Z</time>
      </trkpt>
      <trkpt lat="48.50925" lon="7.15806">
        <ele>863</ele>
        <time>2021-02-21T09:32:50.265Z</time>
      </trkpt>
      <trkpt lat="48.50924" lon="7.15807">
        <ele>863</ele>
        <time>2021-02-21T09:32:51.266Z</time>
      </trkpt>
      <trkpt lat="48.50924" lon="7.15807">
        <ele>864</ele>
        <time>2021-02-21T09:32:52.265Z</time>
      </trkpt>
      <trkpt lat="48.50923" lon="7.15807">
        <ele>864</ele>
        <time>2021-02-21T09:32:53.265Z</time>
      </trkpt>
      <trkpt lat="48.50923" lon="7.15806">
        <ele>864</ele>
        <time>2021-02-21T09:32:54.265Z</time>
      </trkpt>
      <trkpt lat="48.50922" lon="7.15806">
        <ele>864</ele>
        <time>2021-02-21T09:32:55.265Z</time>
      </trkpt>
      <trkpt lat="48.50922" lon="7.15806">
        <ele>864</ele>
        <time>2021-02-21T09:32:56.266Z</time>
      </trkpt>
      <trkpt lat="48.50922" lon="7.15806">
        <ele>864</ele>
        <time>2021-02-21T09:32:57.265Z</time>
      </trkpt>
      <trkpt lat="48.50921" lon="7.15807">
        <ele>864</ele>
        <time>2021-02-21T09:32:58.265Z</time>
      </trkpt>
      <trkpt lat="48.50921" lon="7.15807">
        <ele>864</ele>
        <time>2021-02-21T09:32:59.265Z</time>
      </trkpt>
      <trkpt lat="48.50921" lon="7.15807">
        <ele>864</ele>
        <time>2021-02-21T09:33:00.266Z</time>
      </trkpt>
      <trkpt lat="48.5092" lon="7.15808">
        <ele>864</ele>
        <time>2021-02-21T09:33:01.266Z</time>
      </trkpt>
      <trkpt lat="48.5092" lon="7.15808">
        <ele>865</ele>
        <time>2021-02-21T09:33:02.266Z</time>
      </trkpt>
      <trkpt lat="48.50919" lon="7.15808">
        <ele>865</ele>
        <time>2021-02-21T09:33:03.265Z</time>
      </trkpt>
      <trkpt lat="48.50919" lon="7.1581">
        <ele>867</ele>
        <time>2021-02-21T09:33:04.266Z</time>
      </trkpt>
      <trkpt lat="48.50916" lon="7.15812">
        <ele>868</ele>
        <time>2021-02-21T09:33:05.266Z</time>
      </trkpt>
      <trkpt lat="48.50916" lon="7.15812">
        <ele>868</ele>
        <time>2021-02-21T09:33:06.266Z</time>
      </trkpt>
      <trkpt lat="48.50915" lon="7.15812">
        <ele>868</ele>
        <time>2021-02-21T09:33:07.266Z</time>
      </trkpt>
      <trkpt lat="48.50914" lon="7.15813">
        <ele>868</ele>
        <time>2021-02-21T09:33:08.266Z</time>
      </trkpt>
      <trkpt lat="48.50914" lon="7.15813">
        <ele>868</ele>
        <time>2021-02-21T09:33:09.266Z</time>
      </trkpt>
      <trkpt lat="48.50914" lon="7.15814">
        <ele>869</ele>
        <time>2021-02-21T09:33:10.266Z</time>
      </trkpt>
      <trkpt lat="48.50913" lon="7.15815">
        <ele>869</ele>
        <time>2021-02-21T09:33:11.266Z</time>
      </trkpt>
      <trkpt lat="48.50913" lon="7.15816">
        <ele>869</ele>
        <time>2021-02-21T09:33:12.266Z</time>
      </trkpt>
      <trkpt lat="48.50913" lon="7.15817">
        <ele>869</ele>
        <time>2021-02-21T09:33:13.266Z</time>
      </trkpt>
      <trkpt lat="48.50913" lon="7.15817">
        <ele>870</ele>
        <time>2021-02-21T09:33:14.266Z</time>
      </trkpt>
      <trkpt lat="48.50914" lon="7.15817">
        <ele>870</ele>
        <time>2021-02-21T09:33:15.266Z</time>
      </trkpt>
      <trkpt lat="48.50915" lon="7.15818">
        <ele>869</ele>
        <time>2021-02-21T09:33:16.266Z</time>
      </trkpt>
      <trkpt lat="48.50914" lon="7.15818">
        <ele>869</ele>
        <time>2021-02-21T09:33:17.266Z</time>
      </trkpt>
      <trkpt lat="48.50914" lon="7.15819">
        <ele>869</ele>
        <time>2021-02-21T09:33:18.266Z</time>
      </trkpt>
      <trkpt lat="48.50913" lon="7.1582">
        <ele>868</ele>
        <time>2021-02-21T09:33:19.266Z</time>
      </trkpt>
      <trkpt lat="48.50913" lon="7.1582">
        <ele>868</ele>
        <time>2021-02-21T09:33:20.266Z</time>
      </trkpt>
      <trkpt lat="48.50912" lon="7.15821">
        <ele>868</ele>
        <time>2021-02-21T09:33:21.266Z</time>
      </trkpt>
      <trkpt lat="48.50912" lon="7.15822">
        <ele>868</ele>
        <time>2021-02-21T09:33:22.265Z</time>
      </trkpt>
      <trkpt lat="48.50912" lon="7.15822">
        <ele>868</ele>
        <time>2021-02-21T09:33:23.265Z</time>
      </trkpt>
      <trkpt lat="48.50912" lon="7.15823">
        <ele>868</ele>
        <time>2021-02-21T09:33:24.266Z</time>
      </trkpt>
      <trkpt lat="48.50912" lon="7.15824">
        <ele>868</ele>
        <time>2021-02-21T09:33:25.266Z</time>
      </trkpt>
      <trkpt lat="48.50912" lon="7.15825">
        <ele>868</ele>
        <time>2021-02-21T09:33:26.265Z</time>
      </trkpt>
      <trkpt lat="48.50912" lon="7.15826">
        <ele>868</ele>
        <time>2021-02-21T09:33:27.265Z</time>
      </trkpt>
      <trkpt lat="48.50911" lon="7.15826">
        <ele>868</ele>
        <time>2021-02-21T09:33:28.265Z</time>
      </trkpt>
      <trkpt lat="48.50911" lon="7.15826">
        <ele>868</ele>
        <time>2021-02-21T09:33:29.266Z</time>
      </trkpt>
      <trkpt lat="48.5091" lon="7.15826">
        <ele>867</ele>
        <time>2021-02-21T09:33:30.266Z</time>
      </trkpt>
      <trkpt lat="48.5091" lon="7.15825">
        <ele>867</ele>
        <time>2021-02-21T09:33:31.266Z</time>
      </trkpt>
      <trkpt lat="48.5091" lon="7.15825">
        <ele>867</ele>
        <time>2021-02-21T09:33:32.266Z</time>
      </trkpt>
      <trkpt lat="48.5091" lon="7.15824">
        <ele>867</ele>
        <time>2021-02-21T09:33:33.266Z</time>
      </trkpt>
      <trkpt lat="48.5091" lon="7.15824">
        <ele>867</ele>
        <time>2021-02-21T09:33:34.265Z</time>
      </trkpt>
      <trkpt lat="48.50909" lon="7.15823">
        <ele>867</ele>
        <time>2021-02-21T09:33:35.266Z</time>
      </trkpt>
      <trkpt lat="48.50907" lon="7.15819">
        <ele>866</ele>
        <time>2021-02-21T09:33:36.266Z</time>
      </trkpt>
      <trkpt lat="48.50902" lon="7.15828">
        <ele>866</ele>
        <time>2021-02-21T09:33:37.267Z</time>
      </trkpt>
      <trkpt lat="48.50901" lon="7.1583">
        <ele>866</ele>
        <time>2021-02-21T09:33:38.267Z</time>
      </trkpt>
      <trkpt lat="48.509" lon="7.15832">
        <ele>866</ele>
        <time>2021-02-21T09:33:39.268Z</time>
      </trkpt>
      <trkpt lat="48.50899" lon="7.15835">
        <ele>866</ele>
        <time>2021-02-21T09:33:40.268Z</time>
      </trkpt>
      <trkpt lat="48.50898" lon="7.15837">
        <ele>866</ele>
        <time>2021-02-21T09:33:41.268Z</time>
      </trkpt>
      <trkpt lat="48.50897" lon="7.1584">
        <ele>866</ele>
        <time>2021-02-21T09:33:42.268Z</time>
      </trkpt>
      <trkpt lat="48.50896" lon="7.15842">
        <ele>866</ele>
        <time>2021-02-21T09:33:43.267Z</time>
      </trkpt>
      <trkpt lat="48.50895" lon="7.15843">
        <ele>866</ele>
        <time>2021-02-21T09:33:44.267Z</time>
      </trkpt>
      <trkpt lat="48.50894" lon="7.15845">
        <ele>866</ele>
        <time>2021-02-21T09:33:45.267Z</time>
      </trkpt>
      <trkpt lat="48.50894" lon="7.15846">
        <ele>867</ele>
        <time>2021-02-21T09:33:46.268Z</time>
      </trkpt>
      <trkpt lat="48.50893" lon="7.15847">
        <ele>867</ele>
        <time>2021-02-21T09:33:47.268Z</time>
      </trkpt>
      <trkpt lat="48.50892" lon="7.15847">
        <ele>866</ele>
        <time>2021-02-21T09:33:48.268Z</time>
      </trkpt>
      <trkpt lat="48.50891" lon="7.15848">
        <ele>866</ele>
        <time>2021-02-21T09:33:49.268Z</time>
      </trkpt>
      <trkpt lat="48.50891" lon="7.15848">
        <ele>866</ele>
        <time>2021-02-21T09:33:50.268Z</time>
      </trkpt>
      <trkpt lat="48.5089" lon="7.15849">
        <ele>866</ele>
        <time>2021-02-21T09:33:51.268Z</time>
      </trkpt>
      <trkpt lat="48.5089" lon="7.1585">
        <ele>866</ele>
        <time>2021-02-21T09:33:52.268Z</time>
      </trkpt>
      <trkpt lat="48.50889" lon="7.15851">
        <ele>866</ele>
        <time>2021-02-21T09:33:53.268Z</time>
      </trkpt>
      <trkpt lat="48.50889" lon="7.15852">
        <ele>866</ele>
        <time>2021-02-21T09:33:54.268Z</time>
      </trkpt>
      <trkpt lat="48.50889" lon="7.15853">
        <ele>865</ele>
        <time>2021-02-21T09:33:55.268Z</time>
      </trkpt>
      <trkpt lat="48.50889" lon="7.15855">
        <ele>865</ele>
        <time>2021-02-21T09:33:56.268Z</time>
      </trkpt>
      <trkpt lat="48.50888" lon="7.15856">
        <ele>866</ele>
        <time>2021-02-21T09:33:57.268Z</time>
      </trkpt>
      <trkpt lat="48.50888" lon="7.15857">
        <ele>866</ele>
        <time>2021-02-21T09:33:58.268Z</time>
      </trkpt>
      <trkpt lat="48.50887" lon="7.15858">
        <ele>866</ele>
        <time>2021-02-21T09:33:59.268Z</time>
      </trkpt>
      <trkpt lat="48.50887" lon="7.15859">
        <ele>866</ele>
        <time>2021-02-21T09:34:00.268Z</time>
      </trkpt>
      <trkpt lat="48.50886" lon="7.15861">
        <ele>866</ele>
        <time>2021-02-21T09:34:01.268Z</time>
      </trkpt>
      <trkpt lat="48.50886" lon="7.15862">
        <ele>866</ele>
        <time>2021-02-21T09:34:02.267Z</time>
      </trkpt>
      <trkpt lat="48.50886" lon="7.15863">
        <ele>866</ele>
        <time>2021-02-21T09:34:03.267Z</time>
      </trkpt>
      <trkpt lat="48.50886" lon="7.15864">
        <ele>866</ele>
        <time>2021-02-21T09:34:04.268Z</time>
      </trkpt>
      <trkpt lat="48.50885" lon="7.15865">
        <ele>866</ele>
        <time>2021-02-21T09:34:05.268Z</time>
      </trkpt>
      <trkpt lat="48.50884" lon="7.15866">
        <ele>866</ele>
        <time>2021-02-21T09:34:06.268Z</time>
      </trkpt>
      <trkpt lat="48.50884" lon="7.15867">
        <ele>867</ele>
        <time>2021-02-21T09:34:07.268Z</time>
      </trkpt>
      <trkpt lat="48.50883" lon="7.15868">
        <ele>867</ele>
        <time>2021-02-21T09:34:08.267Z</time>
      </trkpt>
      <trkpt lat="48.50881" lon="7.1587">
        <ele>867</ele>
        <time>2021-02-21T09:34:09.268Z</time>
      </trkpt>
      <trkpt lat="48.5088" lon="7.15871">
        <ele>867</ele>
        <time>2021-02-21T09:34:10.268Z</time>
      </trkpt>
      <trkpt lat="48.5088" lon="7.15872">
        <ele>867</ele>
        <time>2021-02-21T09:34:11.268Z</time>
      </trkpt>
      <trkpt lat="48.50879" lon="7.15873">
        <ele>867</ele>
        <time>2021-02-21T09:34:12.267Z</time>
      </trkpt>
      <trkpt lat="48.50879" lon="7.15874">
        <ele>867</ele>
        <time>2021-02-21T09:34:13.267Z</time>
      </trkpt>
      <trkpt lat="48.50879" lon="7.15875">
        <ele>868</ele>
        <time>2021-02-21T09:34:14.268Z</time>
      </trkpt>
      <trkpt lat="48.50879" lon="7.15876">
        <ele>868</ele>
        <time>2021-02-21T09:34:15.268Z</time>
      </trkpt>
      <trkpt lat="48.50878" lon="7.15877">
        <ele>868</ele>
        <time>2021-02-21T09:34:16.268Z</time>
      </trkpt>
      <trkpt lat="48.50878" lon="7.15878">
        <ele>868</ele>
        <time>2021-02-21T09:34:17.267Z</time>
      </trkpt>
      <trkpt lat="48.50877" lon="7.15879">
        <ele>868</ele>
        <time>2021-02-21T09:34:18.268Z</time>
      </trkpt>
      <trkpt lat="48.50877" lon="7.1588">
        <ele>868</ele>
        <time>2021-02-21T09:34:19.268Z</time>
      </trkpt>
      <trkpt lat="48.50876" lon="7.15881">
        <ele>868</ele>
        <time>2021-02-21T09:34:20.267Z</time>
      </trkpt>
      <trkpt lat="48.50875" lon="7.15883">
        <ele>868</ele>
        <time>2021-02-21T09:34:21.268Z</time>
      </trkpt>
      <trkpt lat="48.50875" lon="7.15884">
        <ele>868</ele>
        <time>2021-02-21T09:34:22.268Z</time>
      </trkpt>
      <trkpt lat="48.50874" lon="7.15885">
        <ele>868</ele>
        <time>2021-02-21T09:34:23.267Z</time>
      </trkpt>
      <trkpt lat="48.50874" lon="7.15886">
        <ele>868</ele>
        <time>2021-02-21T09:34:24.268Z</time>
      </trkpt>
      <trkpt lat="48.50873" lon="7.15887">
        <ele>869</ele>
        <time>2021-02-21T09:34:25.268Z</time>
      </trkpt>
      <trkpt lat="48.50872" lon="7.15888">
        <ele>869</ele>
        <time>2021-02-21T09:34:26.267Z</time>
      </trkpt>
      <trkpt lat="48.50872" lon="7.15889">
        <ele>869</ele>
        <time>2021-02-21T09:34:27.268Z</time>
      </trkpt>
      <trkpt lat="48.50871" lon="7.1589">
        <ele>869</ele>
        <time>2021-02-21T09:34:28.268Z</time>
      </trkpt>
      <trkpt lat="48.50871" lon="7.15892">
        <ele>870</ele>
        <time>2021-02-21T09:34:29.267Z</time>
      </trkpt>
      <trkpt lat="48.5087" lon="7.15893">
        <ele>870</ele>
        <time>2021-02-21T09:34:30.268Z</time>
      </trkpt>
      <trkpt lat="48.5087" lon="7.15895">
        <ele>870</ele>
        <time>2021-02-21T09:34:31.268Z</time>
      </trkpt>
      <trkpt lat="48.5087" lon="7.15896">
        <ele>870</ele>
        <time>2021-02-21T09:34:32.268Z</time>
      </trkpt>
      <trkpt lat="48.50869" lon="7.15897">
        <ele>869</ele>
        <time>2021-02-21T09:34:33.268Z</time>
      </trkpt>
      <trkpt lat="48.50869" lon="7.15899">
        <ele>868</ele>
        <time>2021-02-21T09:34:34.268Z</time>
      </trkpt>
      <trkpt lat="48.50869" lon="7.159">
        <ele>868</ele>
        <time>2021-02-21T09:34:35.268Z</time>
      </trkpt>
      <trkpt lat="48.50869" lon="7.15901">
        <ele>867</ele>
        <time>2021-02-21T09:34:36.268Z</time>
      </trkpt>
      <trkpt lat="48.50869" lon="7.15902">
        <ele>867</ele>
        <time>2021-02-21T09:34:37.267Z</time>
      </trkpt>
      <trkpt lat="48.50869" lon="7.15903">
        <ele>866</ele>
        <time>2021-02-21T09:34:38.268Z</time>
      </trkpt>
      <trkpt lat="48.50869" lon="7.15904">
        <ele>866</ele>
        <time>2021-02-21T09:34:39.268Z</time>
      </trkpt>
      <trkpt lat="48.50869" lon="7.15905">
        <ele>866</ele>
        <time>2021-02-21T09:34:40.268Z</time>
      </trkpt>
      <trkpt lat="48.50869" lon="7.15906">
        <ele>866</ele>
        <time>2021-02-21T09:34:41.268Z</time>
      </trkpt>
      <trkpt lat="48.50868" lon="7.15908">
        <ele>867</ele>
        <time>2021-02-21T09:34:42.268Z</time>
      </trkpt>
      <trkpt lat="48.50868" lon="7.15909">
        <ele>867</ele>
        <time>2021-02-21T09:34:43.268Z</time>
      </trkpt>
      <trkpt lat="48.50868" lon="7.1591">
        <ele>867</ele>
        <time>2021-02-21T09:34:44.267Z</time>
      </trkpt>
      <trkpt lat="48.50867" lon="7.15912">
        <ele>867</ele>
        <time>2021-02-21T09:34:45.268Z</time>
      </trkpt>
      <trkpt lat="48.50867" lon="7.15913">
        <ele>867</ele>
        <time>2021-02-21T09:34:46.268Z</time>
      </trkpt>
      <trkpt lat="48.50867" lon="7.15914">
        <ele>867</ele>
        <time>2021-02-21T09:34:47.268Z</time>
      </trkpt>
      <trkpt lat="48.50867" lon="7.15916">
        <ele>868</ele>
        <time>2021-02-21T09:34:48.267Z</time>
      </trkpt>
      <trkpt lat="48.50867" lon="7.15918">
        <ele>868</ele>
        <time>2021-02-21T09:34:49.268Z</time>
      </trkpt>
      <trkpt lat="48.50866" lon="7.1592">
        <ele>869</ele>
        <time>2021-02-21T09:34:50.268Z</time>
      </trkpt>
      <trkpt lat="48.50866" lon="7.15921">
        <ele>869</ele>
        <time>2021-02-21T09:34:51.267Z</time>
      </trkpt>
      <trkpt lat="48.50866" lon="7.15922">
        <ele>870</ele>
        <time>2021-02-21T09:34:52.268Z</time>
      </trkpt>
      <trkpt lat="48.50866" lon="7.15923">
        <ele>870</ele>
        <time>2021-02-21T09:34:53.267Z</time>
      </trkpt>
      <trkpt lat="48.50866" lon="7.15924">
        <ele>870</ele>
        <time>2021-02-21T09:34:54.268Z</time>
      </trkpt>
      <trkpt lat="48.50865" lon="7.15926">
        <ele>870</ele>
        <time>2021-02-21T09:34:55.268Z</time>
      </trkpt>
      <trkpt lat="48.50865" lon="7.15927">
        <ele>871</ele>
        <time>2021-02-21T09:34:56.268Z</time>
      </trkpt>
      <trkpt lat="48.50864" lon="7.15928">
        <ele>871</ele>
        <time>2021-02-21T09:34:57.268Z</time>
      </trkpt>
      <trkpt lat="48.50863" lon="7.1593">
        <ele>872</ele>
        <time>2021-02-21T09:34:58.268Z</time>
      </trkpt>
      <trkpt lat="48.50863" lon="7.15931">
        <ele>872</ele>
        <time>2021-02-21T09:34:59.268Z</time>
      </trkpt>
      <trkpt lat="48.50863" lon="7.15933">
        <ele>873</ele>
        <time>2021-02-21T09:35:00.267Z</time>
      </trkpt>
      <trkpt lat="48.50862" lon="7.15935">
        <ele>874</ele>
        <time>2021-02-21T09:35:01.268Z</time>
      </trkpt>
      <trkpt lat="48.50862" lon="7.15936">
        <ele>874</ele>
        <time>2021-02-21T09:35:02.268Z</time>
      </trkpt>
      <trkpt lat="48.50861" lon="7.15938">
        <ele>875</ele>
        <time>2021-02-21T09:35:03.268Z</time>
      </trkpt>
      <trkpt lat="48.50861" lon="7.15939">
        <ele>875</ele>
        <time>2021-02-21T09:35:04.268Z</time>
      </trkpt>
      <trkpt lat="48.5086" lon="7.15941">
        <ele>876</ele>
        <time>2021-02-21T09:35:05.268Z</time>
      </trkpt>
      <trkpt lat="48.5086" lon="7.15943">
        <ele>876</ele>
        <time>2021-02-21T09:35:06.267Z</time>
      </trkpt>
      <trkpt lat="48.5086" lon="7.15944">
        <ele>876</ele>
        <time>2021-02-21T09:35:07.268Z</time>
      </trkpt>
      <trkpt lat="48.50859" lon="7.15945">
        <ele>876</ele>
        <time>2021-02-21T09:35:08.267Z</time>
      </trkpt>
      <trkpt lat="48.50859" lon="7.15947">
        <ele>877</ele>
        <time>2021-02-21T09:35:09.267Z</time>
      </trkpt>
      <trkpt lat="48.50859" lon="7.15948">
        <ele>877</ele>
        <time>2021-02-21T09:35:10.268Z</time>
      </trkpt>
      <trkpt lat="48.50859" lon="7.1595">
        <ele>877</ele>
        <time>2021-02-21T09:35:11.267Z</time>
      </trkpt>
      <trkpt lat="48.50858" lon="7.15952">
        <ele>878</ele>
        <time>2021-02-21T09:35:12.267Z</time>
      </trkpt>
      <trkpt lat="48.50858" lon="7.15953">
        <ele>878</ele>
        <time>2021-02-21T09:35:13.268Z</time>
      </trkpt>
      <trkpt lat="48.50857" lon="7.15957">
        <ele>878</ele>
        <time>2021-02-21T09:35:14.268Z</time>
      </trkpt>
      <trkpt lat="48.50858" lon="7.1596">
        <ele>878</ele>
        <time>2021-02-21T09:35:15.268Z</time>
      </trkpt>
      <trkpt lat="48.50857" lon="7.15962">
        <ele>877</ele>
        <time>2021-02-21T09:35:16.267Z</time>
      </trkpt>
      <trkpt lat="48.50856" lon="7.15963">
        <ele>877</ele>
        <time>2021-02-21T09:35:17.268Z</time>
      </trkpt>
      <trkpt lat="48.50855" lon="7.15965">
        <ele>877</ele>
        <time>2021-02-21T09:35:18.268Z</time>
      </trkpt>
      <trkpt lat="48.50855" lon="7.15967">
        <ele>876</ele>
        <time>2021-02-21T09:35:19.268Z</time>
      </trkpt>
      <trkpt lat="48.50854" lon="7.15968">
        <ele>876</ele>
        <time>2021-02-21T09:35:20.268Z</time>
      </trkpt>
      <trkpt lat="48.50854" lon="7.15969">
        <ele>876</ele>
        <time>2021-02-21T09:35:21.268Z</time>
      </trkpt>
      <trkpt lat="48.50854" lon="7.15971">
        <ele>876</ele>
        <time>2021-02-21T09:35:22.268Z</time>
      </trkpt>
      <trkpt lat="48.50853" lon="7.15973">
        <ele>876</ele>
        <time>2021-02-21T09:35:23.267Z</time>
      </trkpt>
      <trkpt lat="48.50852" lon="7.15975">
        <ele>876</ele>
        <time>2021-02-21T09:35:24.268Z</time>
      </trkpt>
      <trkpt lat="48.50852" lon="7.15978">
        <ele>876</ele>
        <time>2021-02-21T09:35:25.268Z</time>
      </trkpt>
      <trkpt lat="48.50852" lon="7.1598">
        <ele>877</ele>
        <time>2021-02-21T09:35:26.268Z</time>
      </trkpt>
      <trkpt lat="48.50852" lon="7.15982">
        <ele>877</ele>
        <time>2021-02-21T09:35:27.268Z</time>
      </trkpt>
      <trkpt lat="48.50852" lon="7.15984">
        <ele>878</ele>
        <time>2021-02-21T09:35:28.268Z</time>
      </trkpt>
      <trkpt lat="48.50852" lon="7.15985">
        <ele>878</ele>
        <time>2021-02-21T09:35:29.268Z</time>
      </trkpt>
      <trkpt lat="48.50851" lon="7.15987">
        <ele>878</ele>
        <time>2021-02-21T09:35:30.268Z</time>
      </trkpt>
      <trkpt lat="48.50851" lon="7.15988">
        <ele>878</ele>
        <time>2021-02-21T09:35:31.268Z</time>
      </trkpt>
      <trkpt lat="48.50851" lon="7.15989">
        <ele>878</ele>
        <time>2021-02-21T09:35:32.267Z</time>
      </trkpt>
      <trkpt lat="48.50852" lon="7.1599">
        <ele>877</ele>
        <time>2021-02-21T09:35:33.268Z</time>
      </trkpt>
      <trkpt lat="48.50852" lon="7.15991">
        <ele>878</ele>
        <time>2021-02-21T09:35:34.268Z</time>
      </trkpt>
      <trkpt lat="48.50852" lon="7.15993">
        <ele>878</ele>
        <time>2021-02-21T09:35:35.268Z</time>
      </trkpt>
      <trkpt lat="48.50852" lon="7.15994">
        <ele>878</ele>
        <time>2021-02-21T09:35:36.268Z</time>
      </trkpt>
      <trkpt lat="48.50853" lon="7.15996">
        <ele>878</ele>
        <time>2021-02-21T09:35:37.267Z</time>
      </trkpt>
      <trkpt lat="48.50854" lon="7.15998">
        <ele>878</ele>
        <time>2021-02-21T09:35:38.268Z</time>
      </trkpt>
      <trkpt lat="48.50856" lon="7.16">
        <ele>878</ele>
        <time>2021-02-21T09:35:39.268Z</time>
      </trkpt>
      <trkpt lat="48.50857" lon="7.16002">
        <ele>878</ele>
        <time>2021-02-21T09:35:40.268Z</time>
      </trkpt>
      <trkpt lat="48.50857" lon="7.16003">
        <ele>879</ele>
        <time>2021-02-21T09:35:41.267Z</time>
      </trkpt>
      <trkpt lat="48.50858" lon="7.16004">
        <ele>879</ele>
        <time>2021-02-21T09:35:42.268Z</time>
      </trkpt>
      <trkpt lat="48.50857" lon="7.16006">
        <ele>880</ele>
        <time>2021-02-21T09:35:43.268Z</time>
      </trkpt>
      <trkpt lat="48.50857" lon="7.16008">
        <ele>880</ele>
        <time>2021-02-21T09:35:44.268Z</time>
      </trkpt>
      <trkpt lat="48.50857" lon="7.16009">
        <ele>880</ele>
        <time>2021-02-21T09:35:45.268Z</time>
      </trkpt>
      <trkpt lat="48.50857" lon="7.16011">
        <ele>881</ele>
        <time>2021-02-21T09:35:46.267Z</time>
      </trkpt>
      <trkpt lat="48.50857" lon="7.16012">
        <ele>881</ele>
        <time>2021-02-21T09:35:47.268Z</time>
      </trkpt>
      <trkpt lat="48.50858" lon="7.16013">
        <ele>882</ele>
        <time>2021-02-21T09:35:48.268Z</time>
      </trkpt>
      <trkpt lat="48.50858" lon="7.16015">
        <ele>882</ele>
        <time>2021-02-21T09:35:49.268Z</time>
      </trkpt>
      <trkpt lat="48.50859" lon="7.16016">
        <ele>883</ele>
        <time>2021-02-21T09:35:50.267Z</time>
      </trkpt>
      <trkpt lat="48.50859" lon="7.16017">
        <ele>883</ele>
        <time>2021-02-21T09:35:51.268Z</time>
      </trkpt>
      <trkpt lat="48.5086" lon="7.16018">
        <ele>884</ele>
        <time>2021-02-21T09:35:52.268Z</time>
      </trkpt>
      <trkpt lat="48.5086" lon="7.16019">
        <ele>884</ele>
        <time>2021-02-21T09:35:53.267Z</time>
      </trkpt>
      <trkpt lat="48.50859" lon="7.16021">
        <ele>885</ele>
        <time>2021-02-21T09:35:54.267Z</time>
      </trkpt>
      <trkpt lat="48.50859" lon="7.16022">
        <ele>885</ele>
        <time>2021-02-21T09:35:55.268Z</time>
      </trkpt>
      <trkpt lat="48.50859" lon="7.16024">
        <ele>886</ele>
        <time>2021-02-21T09:35:56.268Z</time>
      </trkpt>
      <trkpt lat="48.50859" lon="7.16025">
        <ele>886</ele>
        <time>2021-02-21T09:35:57.268Z</time>
      </trkpt>
      <trkpt lat="48.50859" lon="7.16027">
        <ele>886</ele>
        <time>2021-02-21T09:35:58.267Z</time>
      </trkpt>
      <trkpt lat="48.50859" lon="7.16028">
        <ele>886</ele>
        <time>2021-02-21T09:35:59.268Z</time>
      </trkpt>
      <trkpt lat="48.50859" lon="7.1603">
        <ele>887</ele>
        <time>2021-02-21T09:36:00.268Z</time>
      </trkpt>
      <trkpt lat="48.50859" lon="7.16032">
        <ele>887</ele>
        <time>2021-02-21T09:36:01.268Z</time>
      </trkpt>
      <trkpt lat="48.5086" lon="7.16034">
        <ele>887</ele>
        <time>2021-02-21T09:36:02.267Z</time>
      </trkpt>
      <trkpt lat="48.5086" lon="7.16035">
        <ele>887</ele>
        <time>2021-02-21T09:36:03.268Z</time>
      </trkpt>
      <trkpt lat="48.5086" lon="7.16037">
        <ele>887</ele>
        <time>2021-02-21T09:36:04.268Z</time>
      </trkpt>
      <trkpt lat="48.50859" lon="7.16038">
        <ele>887</ele>
        <time>2021-02-21T09:36:05.268Z</time>
      </trkpt>
      <trkpt lat="48.50859" lon="7.1604">
        <ele>887</ele>
        <time>2021-02-21T09:36:06.268Z</time>
      </trkpt>
      <trkpt lat="48.50859" lon="7.16041">
        <ele>887</ele>
        <time>2021-02-21T09:36:07.267Z</time>
      </trkpt>
      <trkpt lat="48.50859" lon="7.16043">
        <ele>887</ele>
        <time>2021-02-21T09:36:08.267Z</time>
      </trkpt>
      <trkpt lat="48.50858" lon="7.16044">
        <ele>887</ele>
        <time>2021-02-21T09:36:09.267Z</time>
      </trkpt>
      <trkpt lat="48.50858" lon="7.16046">
        <ele>887</ele>
        <time>2021-02-21T09:36:10.268Z</time>
      </trkpt>
      <trkpt lat="48.50857" lon="7.16048">
        <ele>887</ele>
        <time>2021-02-21T09:36:11.267Z</time>
      </trkpt>
      <trkpt lat="48.50857" lon="7.16051">
        <ele>887</ele>
        <time>2021-02-21T09:36:12.268Z</time>
      </trkpt>
      <trkpt lat="48.50856" lon="7.16054">
        <ele>888</ele>
        <time>2021-02-21T09:36:13.268Z</time>
      </trkpt>
      <trkpt lat="48.50856" lon="7.16057">
        <ele>888</ele>
        <time>2021-02-21T09:36:14.268Z</time>
      </trkpt>
      <trkpt lat="48.50856" lon="7.16059">
        <ele>888</ele>
        <time>2021-02-21T09:36:15.267Z</time>
      </trkpt>
      <trkpt lat="48.50856" lon="7.1606">
        <ele>888</ele>
        <time>2021-02-21T09:36:16.268Z</time>
      </trkpt>
      <trkpt lat="48.50856" lon="7.16062">
        <ele>889</ele>
        <time>2021-02-21T09:36:17.268Z</time>
      </trkpt>
      <trkpt lat="48.50856" lon="7.16064">
        <ele>889</ele>
        <time>2021-02-21T09:36:18.268Z</time>
      </trkpt>
      <trkpt lat="48.50856" lon="7.16066">
        <ele>889</ele>
        <time>2021-02-21T09:36:19.268Z</time>
      </trkpt>
      <trkpt lat="48.50856" lon="7.16068">
        <ele>889</ele>
        <time>2021-02-21T09:36:20.268Z</time>
      </trkpt>
      <trkpt lat="48.50856" lon="7.16072">
        <ele>889</ele>
        <time>2021-02-21T09:36:21.268Z</time>
      </trkpt>
      <trkpt lat="48.50856" lon="7.16075">
        <ele>889</ele>
        <time>2021-02-21T09:36:22.268Z</time>
      </trkpt>
      <trkpt lat="48.50856" lon="7.16077">
        <ele>889</ele>
        <time>2021-02-21T09:36:23.268Z</time>
      </trkpt>
      <trkpt lat="48.50854" lon="7.1608">
        <ele>888</ele>
        <time>2021-02-21T09:36:24.268Z</time>
      </trkpt>
      <trkpt lat="48.50853" lon="7.16083">
        <ele>888</ele>
        <time>2021-02-21T09:36:25.267Z</time>
      </trkpt>
      <trkpt lat="48.50853" lon="7.16086">
        <ele>888</ele>
        <time>2021-02-21T09:36:26.267Z</time>
      </trkpt>
      <trkpt lat="48.50853" lon="7.16088">
        <ele>888</ele>
        <time>2021-02-21T09:36:27.268Z</time>
      </trkpt>
      <trkpt lat="48.50854" lon="7.1609">
        <ele>888</ele>
        <time>2021-02-21T09:36:28.268Z</time>
      </trkpt>
      <trkpt lat="48.50854" lon="7.16092">
        <ele>888</ele>
        <time>2021-02-21T09:36:29.268Z</time>
      </trkpt>
      <trkpt lat="48.50854" lon="7.16094">
        <ele>888</ele>
        <time>2021-02-21T09:36:30.267Z</time>
      </trkpt>
      <trkpt lat="48.50854" lon="7.16096">
        <ele>888</ele>
        <time>2021-02-21T09:36:31.268Z</time>
      </trkpt>
      <trkpt lat="48.50854" lon="7.16097">
        <ele>888</ele>
        <time>2021-02-21T09:36:32.267Z</time>
      </trkpt>
      <trkpt lat="48.50854" lon="7.16099">
        <ele>888</ele>
        <time>2021-02-21T09:36:33.267Z</time>
      </trkpt>
      <trkpt lat="48.50854" lon="7.16101">
        <ele>888</ele>
        <time>2021-02-21T09:36:34.267Z</time>
      </trkpt>
      <trkpt lat="48.50854" lon="7.16102">
        <ele>887</ele>
        <time>2021-02-21T09:36:35.267Z</time>
      </trkpt>
      <trkpt lat="48.50854" lon="7.16104">
        <ele>887</ele>
        <time>2021-02-21T09:36:36.268Z</time>
      </trkpt>
      <trkpt lat="48.50854" lon="7.16105">
        <ele>887</ele>
        <time>2021-02-21T09:36:37.268Z</time>
      </trkpt>
      <trkpt lat="48.50855" lon="7.16107">
        <ele>887</ele>
        <time>2021-02-21T09:36:38.268Z</time>
      </trkpt>
      <trkpt lat="48.50855" lon="7.16109">
        <ele>887</ele>
        <time>2021-02-21T09:36:39.268Z</time>
      </trkpt>
      <trkpt lat="48.50855" lon="7.1611">
        <ele>887</ele>
        <time>2021-02-21T09:36:40.268Z</time>
      </trkpt>
      <trkpt lat="48.50855" lon="7.16111">
        <ele>887</ele>
        <time>2021-02-21T09:36:41.267Z</time>
      </trkpt>
      <trkpt lat="48.50855" lon="7.16113">
        <ele>887</ele>
        <time>2021-02-21T09:36:42.267Z</time>
      </trkpt>
      <trkpt lat="48.50856" lon="7.16115">
        <ele>887</ele>
        <time>2021-02-21T09:36:43.267Z</time>
      </trkpt>
      <trkpt lat="48.50856" lon="7.16116">
        <ele>886</ele>
        <time>2021-02-21T09:36:44.268Z</time>
      </trkpt>
      <trkpt lat="48.50857" lon="7.16117">
        <ele>886</ele>
        <time>2021-02-21T09:36:45.268Z</time>
      </trkpt>
      <trkpt lat="48.50857" lon="7.16119">
        <ele>886</ele>
        <time>2021-02-21T09:36:46.268Z</time>
      </trkpt>
      <trkpt lat="48.50857" lon="7.16121">
        <ele>887</ele>
        <time>2021-02-21T09:36:47.268Z</time>
      </trkpt>
      <trkpt lat="48.50858" lon="7.16122">
        <ele>887</ele>
        <time>2021-02-21T09:36:48.268Z</time>
      </trkpt>
      <trkpt lat="48.50858" lon="7.16123">
        <ele>887</ele>
        <time>2021-02-21T09:36:49.268Z</time>
      </trkpt>
      <trkpt lat="48.50859" lon="7.16124">
        <ele>887</ele>
        <time>2021-02-21T09:36:50.267Z</time>
      </trkpt>
      <trkpt lat="48.50859" lon="7.16125">
        <ele>887</ele>
        <time>2021-02-21T09:36:51.268Z</time>
      </trkpt>
      <trkpt lat="48.5086" lon="7.16127">
        <ele>888</ele>
        <time>2021-02-21T09:36:52.268Z</time>
      </trkpt>
      <trkpt lat="48.50861" lon="7.16129">
        <ele>888</ele>
        <time>2021-02-21T09:36:53.267Z</time>
      </trkpt>
      <trkpt lat="48.50862" lon="7.16131">
        <ele>889</ele>
        <time>2021-02-21T09:36:54.268Z</time>
      </trkpt>
      <trkpt lat="48.50862" lon="7.16133">
        <ele>889</ele>
        <time>2021-02-21T09:36:55.268Z</time>
      </trkpt>
      <trkpt lat="48.50863" lon="7.16134">
        <ele>889</ele>
        <time>2021-02-21T09:36:56.268Z</time>
      </trkpt>
      <trkpt lat="48.50864" lon="7.16135">
        <ele>889</ele>
        <time>2021-02-21T09:36:57.267Z</time>
      </trkpt>
      <trkpt lat="48.50865" lon="7.16137">
        <ele>890</ele>
        <time>2021-02-21T09:36:58.268Z</time>
      </trkpt>
      <trkpt lat="48.50865" lon="7.16139">
        <ele>890</ele>
        <time>2021-02-21T09:36:59.268Z</time>
      </trkpt>
      <trkpt lat="48.50866" lon="7.16141">
        <ele>891</ele>
        <time>2021-02-21T09:37:00.268Z</time>
      </trkpt>
      <trkpt lat="48.50866" lon="7.16143">
        <ele>891</ele>
        <time>2021-02-21T09:37:01.267Z</time>
      </trkpt>
      <trkpt lat="48.50867" lon="7.16145">
        <ele>892</ele>
        <time>2021-02-21T09:37:02.268Z</time>
      </trkpt>
      <trkpt lat="48.50868" lon="7.16146">
        <ele>893</ele>
        <time>2021-02-21T09:37:03.267Z</time>
      </trkpt>
      <trkpt lat="48.50869" lon="7.16147">
        <ele>893</ele>
        <time>2021-02-21T09:37:04.267Z</time>
      </trkpt>
      <trkpt lat="48.5087" lon="7.16148">
        <ele>894</ele>
        <time>2021-02-21T09:37:05.268Z</time>
      </trkpt>
      <trkpt lat="48.50871" lon="7.16149">
        <ele>895</ele>
        <time>2021-02-21T09:37:06.267Z</time>
      </trkpt>
      <trkpt lat="48.50872" lon="7.1615">
        <ele>896</ele>
        <time>2021-02-21T09:37:07.268Z</time>
      </trkpt>
      <trkpt lat="48.50873" lon="7.16151">
        <ele>896</ele>
        <time>2021-02-21T09:37:08.268Z</time>
      </trkpt>
      <trkpt lat="48.50873" lon="7.16152">
        <ele>896</ele>
        <time>2021-02-21T09:37:09.268Z</time>
      </trkpt>
      <trkpt lat="48.50874" lon="7.16153">
        <ele>896</ele>
        <time>2021-02-21T09:37:10.268Z</time>
      </trkpt>
      <trkpt lat="48.50875" lon="7.16154">
        <ele>896</ele>
        <time>2021-02-21T09:37:11.268Z</time>
      </trkpt>
      <trkpt lat="48.50875" lon="7.16154">
        <ele>897</ele>
        <time>2021-02-21T09:37:12.267Z</time>
      </trkpt>
      <trkpt lat="48.50876" lon="7.16155">
        <ele>896</ele>
        <time>2021-02-21T09:37:13.268Z</time>
      </trkpt>
      <trkpt lat="48.50876" lon="7.16156">
        <ele>896</ele>
        <time>2021-02-21T09:37:14.267Z</time>
      </trkpt>
      <trkpt lat="48.50877" lon="7.16157">
        <ele>896</ele>
        <time>2021-02-21T09:37:15.268Z</time>
      </trkpt>
      <trkpt lat="48.50877" lon="7.16157">
        <ele>895</ele>
        <time>2021-02-21T09:37:16.268Z</time>
      </trkpt>
      <trkpt lat="48.50877" lon="7.16159">
        <ele>895</ele>
        <time>2021-02-21T09:37:17.268Z</time>
      </trkpt>
      <trkpt lat="48.50878" lon="7.16161">
        <ele>895</ele>
        <time>2021-02-21T09:37:18.268Z</time>
      </trkpt>
      <trkpt lat="48.50879" lon="7.16163">
        <ele>895</ele>
        <time>2021-02-21T09:37:19.267Z</time>
      </trkpt>
      <trkpt lat="48.50879" lon="7.16164">
        <ele>895</ele>
        <time>2021-02-21T09:37:20.268Z</time>
      </trkpt>
      <trkpt lat="48.50879" lon="7.16166">
        <ele>895</ele>
        <time>2021-02-21T09:37:21.268Z</time>
      </trkpt>
      <trkpt lat="48.50879" lon="7.16167">
        <ele>895</ele>
        <time>2021-02-21T09:37:22.267Z</time>
      </trkpt>
      <trkpt lat="48.5088" lon="7.16167">
        <ele>895</ele>
        <time>2021-02-21T09:37:23.268Z</time>
      </trkpt>
      <trkpt lat="48.5088" lon="7.16169">
        <ele>895</ele>
        <time>2021-02-21T09:37:24.268Z</time>
      </trkpt>
      <trkpt lat="48.5088" lon="7.16171">
        <ele>895</ele>
        <time>2021-02-21T09:37:25.268Z</time>
      </trkpt>
      <trkpt lat="48.50881" lon="7.16172">
        <ele>895</ele>
        <time>2021-02-21T09:37:26.267Z</time>
      </trkpt>
      <trkpt lat="48.50881" lon="7.16173">
        <ele>895</ele>
        <time>2021-02-21T09:37:27.267Z</time>
      </trkpt>
      <trkpt lat="48.50881" lon="7.16174">
        <ele>895</ele>
        <time>2021-02-21T09:37:28.268Z</time>
      </trkpt>
      <trkpt lat="48.50881" lon="7.16175">
        <ele>896</ele>
        <time>2021-02-21T09:37:29.268Z</time>
      </trkpt>
      <trkpt lat="48.50881" lon="7.16177">
        <ele>896</ele>
        <time>2021-02-21T09:37:30.268Z</time>
      </trkpt>
      <trkpt lat="48.50881" lon="7.16177">
        <ele>896</ele>
        <time>2021-02-21T09:37:31.268Z</time>
      </trkpt>
      <trkpt lat="48.50881" lon="7.16178">
        <ele>896</ele>
        <time>2021-02-21T09:37:32.267Z</time>
      </trkpt>
      <trkpt lat="48.50882" lon="7.16179">
        <ele>897</ele>
        <time>2021-02-21T09:37:33.268Z</time>
      </trkpt>
      <trkpt lat="48.50883" lon="7.1618">
        <ele>897</ele>
        <time>2021-02-21T09:37:34.268Z</time>
      </trkpt>
      <trkpt lat="48.50883" lon="7.16181">
        <ele>897</ele>
        <time>2021-02-21T09:37:35.268Z</time>
      </trkpt>
      <trkpt lat="48.50884" lon="7.16182">
        <ele>898</ele>
        <time>2021-02-21T09:37:36.268Z</time>
      </trkpt>
      <trkpt lat="48.50885" lon="7.16183">
        <ele>899</ele>
        <time>2021-02-21T09:37:37.268Z</time>
      </trkpt>
      <trkpt lat="48.50886" lon="7.16184">
        <ele>899</ele>
        <time>2021-02-21T09:37:38.267Z</time>
      </trkpt>
      <trkpt lat="48.50887" lon="7.16186">
        <ele>900</ele>
        <time>2021-02-21T09:37:39.268Z</time>
      </trkpt>
      <trkpt lat="48.50888" lon="7.16188">
        <ele>900</ele>
        <time>2021-02-21T09:37:40.268Z</time>
      </trkpt>
      <trkpt lat="48.50888" lon="7.1619">
        <ele>901</ele>
        <time>2021-02-21T09:37:41.268Z</time>
      </trkpt>
      <trkpt lat="48.50889" lon="7.16192">
        <ele>901</ele>
        <time>2021-02-21T09:37:42.268Z</time>
      </trkpt>
      <trkpt lat="48.50889" lon="7.16195">
        <ele>901</ele>
        <time>2021-02-21T09:37:43.267Z</time>
      </trkpt>
      <trkpt lat="48.50889" lon="7.16196">
        <ele>902</ele>
        <time>2021-02-21T09:37:44.268Z</time>
      </trkpt>
      <trkpt lat="48.5089" lon="7.16198">
        <ele>902</ele>
        <time>2021-02-21T09:37:45.268Z</time>
      </trkpt>
      <trkpt lat="48.50891" lon="7.16199">
        <ele>902</ele>
        <time>2021-02-21T09:37:46.268Z</time>
      </trkpt>
      <trkpt lat="48.50892" lon="7.162">
        <ele>901</ele>
        <time>2021-02-21T09:37:47.267Z</time>
      </trkpt>
      <trkpt lat="48.50892" lon="7.16202">
        <ele>901</ele>
        <time>2021-02-21T09:37:48.268Z</time>
      </trkpt>
      <trkpt lat="48.50892" lon="7.16204">
        <ele>901</ele>
        <time>2021-02-21T09:37:49.268Z</time>
      </trkpt>
      <trkpt lat="48.50893" lon="7.16205">
        <ele>901</ele>
        <time>2021-02-21T09:37:50.268Z</time>
      </trkpt>
      <trkpt lat="48.50893" lon="7.16207">
        <ele>901</ele>
        <time>2021-02-21T09:37:51.268Z</time>
      </trkpt>
      <trkpt lat="48.50894" lon="7.16209">
        <ele>901</ele>
        <time>2021-02-21T09:37:52.268Z</time>
      </trkpt>
      <trkpt lat="48.50894" lon="7.16211">
        <ele>900</ele>
        <time>2021-02-21T09:37:53.268Z</time>
      </trkpt>
      <trkpt lat="48.50894" lon="7.16212">
        <ele>900</ele>
        <time>2021-02-21T09:37:54.268Z</time>
      </trkpt>
      <trkpt lat="48.50894" lon="7.16214">
        <ele>900</ele>
        <time>2021-02-21T09:37:55.268Z</time>
      </trkpt>
      <trkpt lat="48.50894" lon="7.16215">
        <ele>900</ele>
        <time>2021-02-21T09:37:56.268Z</time>
      </trkpt>
      <trkpt lat="48.50895" lon="7.16216">
        <ele>900</ele>
        <time>2021-02-21T09:37:57.268Z</time>
      </trkpt>
      <trkpt lat="48.50895" lon="7.16217">
        <ele>900</ele>
        <time>2021-02-21T09:37:58.268Z</time>
      </trkpt>
      <trkpt lat="48.50896" lon="7.16219">
        <ele>899</ele>
        <time>2021-02-21T09:37:59.268Z</time>
      </trkpt>
      <trkpt lat="48.50896" lon="7.1622">
        <ele>899</ele>
        <time>2021-02-21T09:38:00.268Z</time>
      </trkpt>
      <trkpt lat="48.50896" lon="7.16222">
        <ele>900</ele>
        <time>2021-02-21T09:38:01.267Z</time>
      </trkpt>
      <trkpt lat="48.50897" lon="7.16224">
        <ele>900</ele>
        <time>2021-02-21T09:38:02.268Z</time>
      </trkpt>
      <trkpt lat="48.50897" lon="7.16226">
        <ele>900</ele>
        <time>2021-02-21T09:38:03.267Z</time>
      </trkpt>
      <trkpt lat="48.50898" lon="7.16227">
        <ele>900</ele>
        <time>2021-02-21T09:38:04.267Z</time>
      </trkpt>
      <trkpt lat="48.50899" lon="7.16229">
        <ele>900</ele>
        <time>2021-02-21T09:38:05.268Z</time>
      </trkpt>
      <trkpt lat="48.50899" lon="7.1623">
        <ele>900</ele>
        <time>2021-02-21T09:38:06.268Z</time>
      </trkpt>
      <trkpt lat="48.509" lon="7.16231">
        <ele>900</ele>
        <time>2021-02-21T09:38:07.268Z</time>
      </trkpt>
      <trkpt lat="48.50901" lon="7.16232">
        <ele>900</ele>
        <time>2021-02-21T09:38:08.267Z</time>
      </trkpt>
      <trkpt lat="48.50901" lon="7.16234">
        <ele>899</ele>
        <time>2021-02-21T09:38:09.268Z</time>
      </trkpt>
      <trkpt lat="48.50901" lon="7.16235">
        <ele>899</ele>
        <time>2021-02-21T09:38:10.268Z</time>
      </trkpt>
      <trkpt lat="48.50902" lon="7.16237">
        <ele>899</ele>
        <time>2021-02-21T09:38:11.268Z</time>
      </trkpt>
      <trkpt lat="48.50902" lon="7.16238">
        <ele>899</ele>
        <time>2021-02-21T09:38:12.267Z</time>
      </trkpt>
      <trkpt lat="48.50903" lon="7.1624">
        <ele>900</ele>
        <time>2021-02-21T09:38:13.268Z</time>
      </trkpt>
      <trkpt lat="48.50904" lon="7.16241">
        <ele>900</ele>
        <time>2021-02-21T09:38:14.267Z</time>
      </trkpt>
      <trkpt lat="48.50905" lon="7.16242">
        <ele>901</ele>
        <time>2021-02-21T09:38:15.268Z</time>
      </trkpt>
      <trkpt lat="48.50906" lon="7.16243">
        <ele>901</ele>
        <time>2021-02-21T09:38:16.268Z</time>
      </trkpt>
      <trkpt lat="48.50906" lon="7.16244">
        <ele>901</ele>
        <time>2021-02-21T09:38:17.267Z</time>
      </trkpt>
      <trkpt lat="48.50906" lon="7.16245">
        <ele>901</ele>
        <time>2021-02-21T09:38:18.267Z</time>
      </trkpt>
      <trkpt lat="48.50906" lon="7.16247">
        <ele>901</ele>
        <time>2021-02-21T09:38:19.268Z</time>
      </trkpt>
      <trkpt lat="48.50906" lon="7.16249">
        <ele>901</ele>
        <time>2021-02-21T09:38:20.267Z</time>
      </trkpt>
      <trkpt lat="48.50907" lon="7.16251">
        <ele>901</ele>
        <time>2021-02-21T09:38:21.267Z</time>
      </trkpt>
      <trkpt lat="48.50908" lon="7.16252">
        <ele>902</ele>
        <time>2021-02-21T09:38:22.268Z</time>
      </trkpt>
      <trkpt lat="48.50908" lon="7.16254">
        <ele>902</ele>
        <time>2021-02-21T09:38:23.268Z</time>
      </trkpt>
      <trkpt lat="48.50908" lon="7.16256">
        <ele>902</ele>
        <time>2021-02-21T09:38:24.267Z</time>
      </trkpt>
      <trkpt lat="48.50908" lon="7.16257">
        <ele>902</ele>
        <time>2021-02-21T09:38:25.268Z</time>
      </trkpt>
      <trkpt lat="48.50908" lon="7.16258">
        <ele>902</ele>
        <time>2021-02-21T09:38:26.267Z</time>
      </trkpt>
      <trkpt lat="48.50908" lon="7.16257">
        <ele>903</ele>
        <time>2021-02-21T09:38:27.268Z</time>
      </trkpt>
      <trkpt lat="48.50908" lon="7.16257">
        <ele>903</ele>
        <time>2021-02-21T09:38:28.268Z</time>
      </trkpt>
      <trkpt lat="48.50909" lon="7.16257">
        <ele>903</ele>
        <time>2021-02-21T09:38:29.268Z</time>
      </trkpt>
      <trkpt lat="48.5091" lon="7.16257">
        <ele>903</ele>
        <time>2021-02-21T09:38:30.268Z</time>
      </trkpt>
      <trkpt lat="48.50911" lon="7.16259">
        <ele>903</ele>
        <time>2021-02-21T09:38:31.268Z</time>
      </trkpt>
      <trkpt lat="48.50912" lon="7.1626">
        <ele>902</ele>
        <time>2021-02-21T09:38:32.268Z</time>
      </trkpt>
      <trkpt lat="48.50912" lon="7.1626">
        <ele>902</ele>
        <time>2021-02-21T09:38:33.268Z</time>
      </trkpt>
      <trkpt lat="48.50913" lon="7.16261">
        <ele>902</ele>
        <time>2021-02-21T09:38:34.268Z</time>
      </trkpt>
      <trkpt lat="48.50914" lon="7.16262">
        <ele>902</ele>
        <time>2021-02-21T09:38:35.267Z</time>
      </trkpt>
      <trkpt lat="48.50914" lon="7.16263">
        <ele>901</ele>
        <time>2021-02-21T09:38:36.268Z</time>
      </trkpt>
      <trkpt lat="48.50915" lon="7.16264">
        <ele>901</ele>
        <time>2021-02-21T09:38:37.268Z</time>
      </trkpt>
      <trkpt lat="48.50916" lon="7.16264">
        <ele>901</ele>
        <time>2021-02-21T09:38:38.268Z</time>
      </trkpt>
      <trkpt lat="48.50917" lon="7.16265">
        <ele>901</ele>
        <time>2021-02-21T09:38:39.267Z</time>
      </trkpt>
      <trkpt lat="48.50918" lon="7.16266">
        <ele>901</ele>
        <time>2021-02-21T09:38:40.267Z</time>
      </trkpt>
      <trkpt lat="48.50919" lon="7.16267">
        <ele>901</ele>
        <time>2021-02-21T09:38:41.268Z</time>
      </trkpt>
      <trkpt lat="48.5092" lon="7.16268">
        <ele>901</ele>
        <time>2021-02-21T09:38:42.267Z</time>
      </trkpt>
      <trkpt lat="48.5092" lon="7.1627">
        <ele>901</ele>
        <time>2021-02-21T09:38:43.267Z</time>
      </trkpt>
      <trkpt lat="48.50921" lon="7.1627">
        <ele>901</ele>
        <time>2021-02-21T09:38:44.268Z</time>
      </trkpt>
      <trkpt lat="48.50922" lon="7.16271">
        <ele>902</ele>
        <time>2021-02-21T09:38:45.268Z</time>
      </trkpt>
      <trkpt lat="48.50922" lon="7.16272">
        <ele>902</ele>
        <time>2021-02-21T09:38:46.268Z</time>
      </trkpt>
      <trkpt lat="48.50923" lon="7.16272">
        <ele>902</ele>
        <time>2021-02-21T09:38:47.268Z</time>
      </trkpt>
      <trkpt lat="48.50924" lon="7.16273">
        <ele>902</ele>
        <time>2021-02-21T09:38:48.268Z</time>
      </trkpt>
      <trkpt lat="48.50924" lon="7.16273">
        <ele>902</ele>
        <time>2021-02-21T09:38:49.267Z</time>
      </trkpt>
      <trkpt lat="48.50925" lon="7.16274">
        <ele>902</ele>
        <time>2021-02-21T09:38:50.268Z</time>
      </trkpt>
      <trkpt lat="48.50925" lon="7.16274">
        <ele>902</ele>
        <time>2021-02-21T09:38:51.268Z</time>
      </trkpt>
      <trkpt lat="48.50925" lon="7.16275">
        <ele>902</ele>
        <time>2021-02-21T09:38:52.267Z</time>
      </trkpt>
      <trkpt lat="48.50926" lon="7.16276">
        <ele>902</ele>
        <time>2021-02-21T09:38:53.268Z</time>
      </trkpt>
      <trkpt lat="48.50926" lon="7.16277">
        <ele>902</ele>
        <time>2021-02-21T09:38:54.268Z</time>
      </trkpt>
      <trkpt lat="48.50927" lon="7.16279">
        <ele>902</ele>
        <time>2021-02-21T09:38:55.268Z</time>
      </trkpt>
      <trkpt lat="48.50929" lon="7.1628">
        <ele>902</ele>
        <time>2021-02-21T09:38:56.268Z</time>
      </trkpt>
      <trkpt lat="48.5093" lon="7.16281">
        <ele>903</ele>
        <time>2021-02-21T09:38:57.268Z</time>
      </trkpt>
      <trkpt lat="48.50931" lon="7.16283">
        <ele>903</ele>
        <time>2021-02-21T09:38:58.268Z</time>
      </trkpt>
      <trkpt lat="48.50932" lon="7.16284">
        <ele>903</ele>
        <time>2021-02-21T09:38:59.268Z</time>
      </trkpt>
      <trkpt lat="48.50933" lon="7.16285">
        <ele>903</ele>
        <time>2021-02-21T09:39:00.268Z</time>
      </trkpt>
      <trkpt lat="48.50934" lon="7.16286">
        <ele>903</ele>
        <time>2021-02-21T09:39:01.268Z</time>
      </trkpt>
      <trkpt lat="48.50935" lon="7.16287">
        <ele>904</ele>
        <time>2021-02-21T09:39:02.267Z</time>
      </trkpt>
      <trkpt lat="48.50936" lon="7.16287">
        <ele>904</ele>
        <time>2021-02-21T09:39:03.267Z</time>
      </trkpt>
      <trkpt lat="48.50936" lon="7.16287">
        <ele>904</ele>
        <time>2021-02-21T09:39:04.267Z</time>
      </trkpt>
      <trkpt lat="48.50937" lon="7.16288">
        <ele>904</ele>
        <time>2021-02-21T09:39:05.268Z</time>
      </trkpt>
      <trkpt lat="48.50938" lon="7.16289">
        <ele>905</ele>
        <time>2021-02-21T09:39:06.268Z</time>
      </trkpt>
      <trkpt lat="48.50939" lon="7.1629">
        <ele>905</ele>
        <time>2021-02-21T09:39:07.267Z</time>
      </trkpt>
      <trkpt lat="48.5094" lon="7.16292">
        <ele>905</ele>
        <time>2021-02-21T09:39:08.268Z</time>
      </trkpt>
      <trkpt lat="48.50941" lon="7.16293">
        <ele>906</ele>
        <time>2021-02-21T09:39:09.267Z</time>
      </trkpt>
      <trkpt lat="48.50942" lon="7.16294">
        <ele>906</ele>
        <time>2021-02-21T09:39:10.267Z</time>
      </trkpt>
      <trkpt lat="48.50943" lon="7.16295">
        <ele>906</ele>
        <time>2021-02-21T09:39:11.267Z</time>
      </trkpt>
      <trkpt lat="48.50944" lon="7.16296">
        <ele>907</ele>
        <time>2021-02-21T09:39:12.267Z</time>
      </trkpt>
      <trkpt lat="48.50944" lon="7.16297">
        <ele>907</ele>
        <time>2021-02-21T09:39:13.268Z</time>
      </trkpt>
      <trkpt lat="48.50945" lon="7.16298">
        <ele>907</ele>
        <time>2021-02-21T09:39:14.268Z</time>
      </trkpt>
      <trkpt lat="48.50946" lon="7.16299">
        <ele>907</ele>
        <time>2021-02-21T09:39:15.268Z</time>
      </trkpt>
      <trkpt lat="48.50947" lon="7.16301">
        <ele>907</ele>
        <time>2021-02-21T09:39:16.267Z</time>
      </trkpt>
      <trkpt lat="48.50948" lon="7.16302">
        <ele>907</ele>
        <time>2021-02-21T09:39:17.267Z</time>
      </trkpt>
      <trkpt lat="48.50949" lon="7.16303">
        <ele>907</ele>
        <time>2021-02-21T09:39:18.268Z</time>
      </trkpt>
      <trkpt lat="48.5095" lon="7.16305">
        <ele>907</ele>
        <time>2021-02-21T09:39:19.268Z</time>
      </trkpt>
      <trkpt lat="48.50952" lon="7.16307">
        <ele>907</ele>
        <time>2021-02-21T09:39:20.267Z</time>
      </trkpt>
      <trkpt lat="48.50953" lon="7.16307">
        <ele>907</ele>
        <time>2021-02-21T09:39:21.268Z</time>
      </trkpt>
      <trkpt lat="48.50954" lon="7.16308">
        <ele>907</ele>
        <time>2021-02-21T09:39:22.267Z</time>
      </trkpt>
      <trkpt lat="48.50954" lon="7.16309">
        <ele>907</ele>
        <time>2021-02-21T09:39:23.268Z</time>
      </trkpt>
      <trkpt lat="48.50954" lon="7.1631">
        <ele>907</ele>
        <time>2021-02-21T09:39:24.268Z</time>
      </trkpt>
      <trkpt lat="48.50955" lon="7.16312">
        <ele>907</ele>
        <time>2021-02-21T09:39:25.268Z</time>
      </trkpt>
      <trkpt lat="48.50957" lon="7.16313">
        <ele>907</ele>
        <time>2021-02-21T09:39:26.267Z</time>
      </trkpt>
      <trkpt lat="48.50959" lon="7.16314">
        <ele>907</ele>
        <time>2021-02-21T09:39:27.267Z</time>
      </trkpt>
      <trkpt lat="48.5096" lon="7.16315">
        <ele>907</ele>
        <time>2021-02-21T09:39:28.268Z</time>
      </trkpt>
      <trkpt lat="48.50961" lon="7.16316">
        <ele>907</ele>
        <time>2021-02-21T09:39:29.268Z</time>
      </trkpt>
      <trkpt lat="48.50962" lon="7.16317">
        <ele>907</ele>
        <time>2021-02-21T09:39:30.268Z</time>
      </trkpt>
      <trkpt lat="48.50962" lon="7.16319">
        <ele>907</ele>
        <time>2021-02-21T09:39:31.268Z</time>
      </trkpt>
      <trkpt lat="48.50962" lon="7.16319">
        <ele>907</ele>
        <time>2021-02-21T09:39:32.268Z</time>
      </trkpt>
      <trkpt lat="48.50962" lon="7.1632">
        <ele>908</ele>
        <time>2021-02-21T09:39:33.268Z</time>
      </trkpt>
      <trkpt lat="48.50963" lon="7.16322">
        <ele>908</ele>
        <time>2021-02-21T09:39:34.268Z</time>
      </trkpt>
      <trkpt lat="48.50965" lon="7.16323">
        <ele>908</ele>
        <time>2021-02-21T09:39:35.268Z</time>
      </trkpt>
      <trkpt lat="48.50966" lon="7.16323">
        <ele>908</ele>
        <time>2021-02-21T09:39:36.268Z</time>
      </trkpt>
      <trkpt lat="48.50967" lon="7.16325">
        <ele>908</ele>
        <time>2021-02-21T09:39:37.267Z</time>
      </trkpt>
      <trkpt lat="48.50969" lon="7.16326">
        <ele>908</ele>
        <time>2021-02-21T09:39:38.268Z</time>
      </trkpt>
      <trkpt lat="48.50969" lon="7.16327">
        <ele>908</ele>
        <time>2021-02-21T09:39:39.268Z</time>
      </trkpt>
      <trkpt lat="48.50969" lon="7.16328">
        <ele>907</ele>
        <time>2021-02-21T09:39:40.268Z</time>
      </trkpt>
      <trkpt lat="48.5097" lon="7.16329">
        <ele>907</ele>
        <time>2021-02-21T09:39:41.267Z</time>
      </trkpt>
      <trkpt lat="48.5097" lon="7.1633">
        <ele>907</ele>
        <time>2021-02-21T09:39:42.267Z</time>
      </trkpt>
      <trkpt lat="48.50971" lon="7.16329">
        <ele>907</ele>
        <time>2021-02-21T09:39:43.268Z</time>
      </trkpt>
      <trkpt lat="48.50972" lon="7.16327">
        <ele>907</ele>
        <time>2021-02-21T09:39:44.268Z</time>
      </trkpt>
      <trkpt lat="48.50972" lon="7.16327">
        <ele>907</ele>
        <time>2021-02-21T09:39:45.267Z</time>
      </trkpt>
      <trkpt lat="48.50972" lon="7.16326">
        <ele>907</ele>
        <time>2021-02-21T09:39:46.268Z</time>
      </trkpt>
      <trkpt lat="48.50972" lon="7.16326">
        <ele>907</ele>
        <time>2021-02-21T09:39:47.268Z</time>
      </trkpt>
      <trkpt lat="48.50972" lon="7.16326">
        <ele>907</ele>
        <time>2021-02-21T09:39:48.267Z</time>
      </trkpt>
      <trkpt lat="48.50973" lon="7.16326">
        <ele>908</ele>
        <time>2021-02-21T09:39:49.268Z</time>
      </trkpt>
      <trkpt lat="48.50974" lon="7.16327">
        <ele>908</ele>
        <time>2021-02-21T09:39:50.268Z</time>
      </trkpt>
      <trkpt lat="48.50974" lon="7.16328">
        <ele>908</ele>
        <time>2021-02-21T09:39:51.268Z</time>
      </trkpt>
      <trkpt lat="48.50975" lon="7.16328">
        <ele>908</ele>
        <time>2021-02-21T09:39:52.268Z</time>
      </trkpt>
      <trkpt lat="48.50976" lon="7.16328">
        <ele>909</ele>
        <time>2021-02-21T09:39:53.268Z</time>
      </trkpt>
      <trkpt lat="48.50977" lon="7.16328">
        <ele>909</ele>
        <time>2021-02-21T09:39:54.267Z</time>
      </trkpt>
      <trkpt lat="48.50977" lon="7.16329">
        <ele>909</ele>
        <time>2021-02-21T09:39:55.268Z</time>
      </trkpt>
      <trkpt lat="48.50978" lon="7.16329">
        <ele>909</ele>
        <time>2021-02-21T09:39:56.268Z</time>
      </trkpt>
      <trkpt lat="48.50978" lon="7.1633">
        <ele>910</ele>
        <time>2021-02-21T09:39:57.268Z</time>
      </trkpt>
      <trkpt lat="48.50978" lon="7.1633">
        <ele>910</ele>
        <time>2021-02-21T09:39:58.268Z</time>
      </trkpt>
      <trkpt lat="48.50979" lon="7.16331">
        <ele>910</ele>
        <time>2021-02-21T09:39:59.268Z</time>
      </trkpt>
      <trkpt lat="48.50979" lon="7.16331">
        <ele>910</ele>
        <time>2021-02-21T09:40:00.267Z</time>
      </trkpt>
      <trkpt lat="48.5098" lon="7.16331">
        <ele>911</ele>
        <time>2021-02-21T09:40:01.268Z</time>
      </trkpt>
      <trkpt lat="48.50982" lon="7.16332">
        <ele>911</ele>
        <time>2021-02-21T09:40:02.268Z</time>
      </trkpt>
      <trkpt lat="48.50982" lon="7.16333">
        <ele>911</ele>
        <time>2021-02-21T09:40:03.267Z</time>
      </trkpt>
      <trkpt lat="48.50983" lon="7.16334">
        <ele>911</ele>
        <time>2021-02-21T09:40:04.268Z</time>
      </trkpt>
      <trkpt lat="48.50984" lon="7.16335">
        <ele>911</ele>
        <time>2021-02-21T09:40:05.267Z</time>
      </trkpt>
      <trkpt lat="48.50985" lon="7.16334">
        <ele>911</ele>
        <time>2021-02-21T09:40:06.268Z</time>
      </trkpt>
      <trkpt lat="48.50986" lon="7.16333">
        <ele>912</ele>
        <time>2021-02-21T09:40:07.268Z</time>
      </trkpt>
      <trkpt lat="48.50987" lon="7.16332">
        <ele>912</ele>
        <time>2021-02-21T09:40:08.268Z</time>
      </trkpt>
      <trkpt lat="48.50987" lon="7.16331">
        <ele>912</ele>
        <time>2021-02-21T09:40:09.267Z</time>
      </trkpt>
      <trkpt lat="48.50987" lon="7.16331">
        <ele>912</ele>
        <time>2021-02-21T09:40:10.268Z</time>
      </trkpt>
      <trkpt lat="48.50988" lon="7.16331">
        <ele>912</ele>
        <time>2021-02-21T09:40:11.268Z</time>
      </trkpt>
      <trkpt lat="48.50989" lon="7.16332">
        <ele>913</ele>
        <time>2021-02-21T09:40:12.267Z</time>
      </trkpt>
      <trkpt lat="48.5099" lon="7.16332">
        <ele>913</ele>
        <time>2021-02-21T09:40:13.268Z</time>
      </trkpt>
      <trkpt lat="48.50991" lon="7.16333">
        <ele>913</ele>
        <time>2021-02-21T09:40:14.268Z</time>
      </trkpt>
      <trkpt lat="48.50992" lon="7.16333">
        <ele>912</ele>
        <time>2021-02-21T09:40:15.267Z</time>
      </trkpt>
      <trkpt lat="48.50993" lon="7.16334">
        <ele>912</ele>
        <time>2021-02-21T09:40:16.267Z</time>
      </trkpt>
      <trkpt lat="48.50993" lon="7.16334">
        <ele>912</ele>
        <time>2021-02-21T09:40:17.268Z</time>
      </trkpt>
      <trkpt lat="48.50994" lon="7.16334">
        <ele>911</ele>
        <time>2021-02-21T09:40:18.268Z</time>
      </trkpt>
      <trkpt lat="48.50994" lon="7.16334">
        <ele>912</ele>
        <time>2021-02-21T09:40:19.268Z</time>
      </trkpt>
      <trkpt lat="48.50995" lon="7.16334">
        <ele>912</ele>
        <time>2021-02-21T09:40:20.267Z</time>
      </trkpt>
      <trkpt lat="48.50996" lon="7.16334">
        <ele>912</ele>
        <time>2021-02-21T09:40:21.268Z</time>
      </trkpt>
      <trkpt lat="48.50997" lon="7.16335">
        <ele>912</ele>
        <time>2021-02-21T09:40:22.267Z</time>
      </trkpt>
      <trkpt lat="48.50998" lon="7.16335">
        <ele>912</ele>
        <time>2021-02-21T09:40:23.267Z</time>
      </trkpt>
      <trkpt lat="48.50999" lon="7.16336">
        <ele>912</ele>
        <time>2021-02-21T09:40:24.268Z</time>
      </trkpt>
      <trkpt lat="48.51" lon="7.16337">
        <ele>912</ele>
        <time>2021-02-21T09:40:25.268Z</time>
      </trkpt>
      <trkpt lat="48.51001" lon="7.16339">
        <ele>913</ele>
        <time>2021-02-21T09:40:26.268Z</time>
      </trkpt>
      <trkpt lat="48.51003" lon="7.1634">
        <ele>913</ele>
        <time>2021-02-21T09:40:27.268Z</time>
      </trkpt>
      <trkpt lat="48.51004" lon="7.16342">
        <ele>913</ele>
        <time>2021-02-21T09:40:28.268Z</time>
      </trkpt>
      <trkpt lat="48.51003" lon="7.16343">
        <ele>913</ele>
        <time>2021-02-21T09:40:29.268Z</time>
      </trkpt>
      <trkpt lat="48.51004" lon="7.16342">
        <ele>913</ele>
        <time>2021-02-21T09:40:30.268Z</time>
      </trkpt>
      <trkpt lat="48.51004" lon="7.16342">
        <ele>914</ele>
        <time>2021-02-21T09:40:31.267Z</time>
      </trkpt>
      <trkpt lat="48.51005" lon="7.16342">
        <ele>914</ele>
        <time>2021-02-21T09:40:32.268Z</time>
      </trkpt>
      <trkpt lat="48.51007" lon="7.16342">
        <ele>914</ele>
        <time>2021-02-21T09:40:33.268Z</time>
      </trkpt>
      <trkpt lat="48.51008" lon="7.16342">
        <ele>914</ele>
        <time>2021-02-21T09:40:34.268Z</time>
      </trkpt>
      <trkpt lat="48.51009" lon="7.16343">
        <ele>914</ele>
        <time>2021-02-21T09:40:35.268Z</time>
      </trkpt>
      <trkpt lat="48.51011" lon="7.16343">
        <ele>914</ele>
        <time>2021-02-21T09:40:36.268Z</time>
      </trkpt>
      <trkpt lat="48.51011" lon="7.16343">
        <ele>914</ele>
        <time>2021-02-21T09:40:37.268Z</time>
      </trkpt>
      <trkpt lat="48.51011" lon="7.16342">
        <ele>915</ele>
        <time>2021-02-21T09:40:38.268Z</time>
      </trkpt>
      <trkpt lat="48.51011" lon="7.16342">
        <ele>915</ele>
        <time>2021-02-21T09:40:39.267Z</time>
      </trkpt>
      <trkpt lat="48.51011" lon="7.16342">
        <ele>915</ele>
        <time>2021-02-21T09:40:40.267Z</time>
      </trkpt>
      <trkpt lat="48.51012" lon="7.16342">
        <ele>915</ele>
        <time>2021-02-21T09:40:41.268Z</time>
      </trkpt>
      <trkpt lat="48.51013" lon="7.16343">
        <ele>915</ele>
        <time>2021-02-21T09:40:42.268Z</time>
      </trkpt>
      <trkpt lat="48.51012" lon="7.16344">
        <ele>915</ele>
        <time>2021-02-21T09:40:43.267Z</time>
      </trkpt>
      <trkpt lat="48.51013" lon="7.16344">
        <ele>916</ele>
        <time>2021-02-21T09:40:44.268Z</time>
      </trkpt>
      <trkpt lat="48.51013" lon="7.16345">
        <ele>916</ele>
        <time>2021-02-21T09:40:45.268Z</time>
      </trkpt>
      <trkpt lat="48.51014" lon="7.16347">
        <ele>916</ele>
        <time>2021-02-21T09:40:46.268Z</time>
      </trkpt>
      <trkpt lat="48.51014" lon="7.16347">
        <ele>917</ele>
        <time>2021-02-21T09:40:47.268Z</time>
      </trkpt>
      <trkpt lat="48.51014" lon="7.16348">
        <ele>917</ele>
        <time>2021-02-21T09:40:48.268Z</time>
      </trkpt>
      <trkpt lat="48.51015" lon="7.16348">
        <ele>918</ele>
        <time>2021-02-21T09:40:49.268Z</time>
      </trkpt>
      <trkpt lat="48.51015" lon="7.16349">
        <ele>918</ele>
        <time>2021-02-21T09:40:50.268Z</time>
      </trkpt>
      <trkpt lat="48.51016" lon="7.16348">
        <ele>918</ele>
        <time>2021-02-21T09:40:51.268Z</time>
      </trkpt>
      <trkpt lat="48.51017" lon="7.16348">
        <ele>919</ele>
        <time>2021-02-21T09:40:52.268Z</time>
      </trkpt>
      <trkpt lat="48.51018" lon="7.16347">
        <ele>919</ele>
        <time>2021-02-21T09:40:53.267Z</time>
      </trkpt>
      <trkpt lat="48.51018" lon="7.16347">
        <ele>919</ele>
        <time>2021-02-21T09:40:54.268Z</time>
      </trkpt>
      <trkpt lat="48.51019" lon="7.16347">
        <ele>919</ele>
        <time>2021-02-21T09:40:55.268Z</time>
      </trkpt>
      <trkpt lat="48.5102" lon="7.16347">
        <ele>919</ele>
        <time>2021-02-21T09:40:56.267Z</time>
      </trkpt>
      <trkpt lat="48.51021" lon="7.16347">
        <ele>919</ele>
        <time>2021-02-21T09:40:57.268Z</time>
      </trkpt>
      <trkpt lat="48.51022" lon="7.16348">
        <ele>919</ele>
        <time>2021-02-21T09:40:58.268Z</time>
      </trkpt>
      <trkpt lat="48.51023" lon="7.16348">
        <ele>919</ele>
        <time>2021-02-21T09:40:59.268Z</time>
      </trkpt>
      <trkpt lat="48.51023" lon="7.16349">
        <ele>920</ele>
        <time>2021-02-21T09:41:00.268Z</time>
      </trkpt>
      <trkpt lat="48.51025" lon="7.1635">
        <ele>920</ele>
        <time>2021-02-21T09:41:01.268Z</time>
      </trkpt>
      <trkpt lat="48.51026" lon="7.16352">
        <ele>920</ele>
        <time>2021-02-21T09:41:02.267Z</time>
      </trkpt>
      <trkpt lat="48.51027" lon="7.16353">
        <ele>921</ele>
        <time>2021-02-21T09:41:03.268Z</time>
      </trkpt>
      <trkpt lat="48.51029" lon="7.16355">
        <ele>921</ele>
        <time>2021-02-21T09:41:04.268Z</time>
      </trkpt>
      <trkpt lat="48.5103" lon="7.16356">
        <ele>922</ele>
        <time>2021-02-21T09:41:05.268Z</time>
      </trkpt>
      <trkpt lat="48.51032" lon="7.16357">
        <ele>922</ele>
        <time>2021-02-21T09:41:06.267Z</time>
      </trkpt>
      <trkpt lat="48.51033" lon="7.16358">
        <ele>922</ele>
        <time>2021-02-21T09:41:07.268Z</time>
      </trkpt>
      <trkpt lat="48.51034" lon="7.16359">
        <ele>923</ele>
        <time>2021-02-21T09:41:08.268Z</time>
      </trkpt>
      <trkpt lat="48.51035" lon="7.1636">
        <ele>923</ele>
        <time>2021-02-21T09:41:09.268Z</time>
      </trkpt>
      <trkpt lat="48.51036" lon="7.1636">
        <ele>923</ele>
        <time>2021-02-21T09:41:10.267Z</time>
      </trkpt>
      <trkpt lat="48.51036" lon="7.16361">
        <ele>924</ele>
        <time>2021-02-21T09:41:11.268Z</time>
      </trkpt>
      <trkpt lat="48.51037" lon="7.16362">
        <ele>924</ele>
        <time>2021-02-21T09:41:12.268Z</time>
      </trkpt>
      <trkpt lat="48.51038" lon="7.16363">
        <ele>924</ele>
        <time>2021-02-21T09:41:13.268Z</time>
      </trkpt>
      <trkpt lat="48.51038" lon="7.16363">
        <ele>924</ele>
        <time>2021-02-21T09:41:14.268Z</time>
      </trkpt>
      <trkpt lat="48.51039" lon="7.16364">
        <ele>925</ele>
        <time>2021-02-21T09:41:15.268Z</time>
      </trkpt>
      <trkpt lat="48.51041" lon="7.16364">
        <ele>925</ele>
        <time>2021-02-21T09:41:16.267Z</time>
      </trkpt>
      <trkpt lat="48.51042" lon="7.16365">
        <ele>926</ele>
        <time>2021-02-21T09:41:17.267Z</time>
      </trkpt>
      <trkpt lat="48.51042" lon="7.16366">
        <ele>926</ele>
        <time>2021-02-21T09:41:18.267Z</time>
      </trkpt>
      <trkpt lat="48.51043" lon="7.16366">
        <ele>926</ele>
        <time>2021-02-21T09:41:19.267Z</time>
      </trkpt>
      <trkpt lat="48.51043" lon="7.16366">
        <ele>926</ele>
        <time>2021-02-21T09:41:20.267Z</time>
      </trkpt>
      <trkpt lat="48.51044" lon="7.16367">
        <ele>925</ele>
        <time>2021-02-21T09:41:21.268Z</time>
      </trkpt>
      <trkpt lat="48.51045" lon="7.16368">
        <ele>926</ele>
        <time>2021-02-21T09:41:22.268Z</time>
      </trkpt>
      <trkpt lat="48.51046" lon="7.16369">
        <ele>926</ele>
        <time>2021-02-21T09:41:23.268Z</time>
      </trkpt>
      <trkpt lat="48.51046" lon="7.1637">
        <ele>926</ele>
        <time>2021-02-21T09:41:24.268Z</time>
      </trkpt>
      <trkpt lat="48.51047" lon="7.16371">
        <ele>926</ele>
        <time>2021-02-21T09:41:25.268Z</time>
      </trkpt>
      <trkpt lat="48.51047" lon="7.16372">
        <ele>926</ele>
        <time>2021-02-21T09:41:26.268Z</time>
      </trkpt>
      <trkpt lat="48.51048" lon="7.16372">
        <ele>927</ele>
        <time>2021-02-21T09:41:27.268Z</time>
      </trkpt>
      <trkpt lat="48.51048" lon="7.16373">
        <ele>927</ele>
        <time>2021-02-21T09:41:28.268Z</time>
      </trkpt>
      <trkpt lat="48.51049" lon="7.16373">
        <ele>927</ele>
        <time>2021-02-21T09:41:29.268Z</time>
      </trkpt>
      <trkpt lat="48.5105" lon="7.16373">
        <ele>927</ele>
        <time>2021-02-21T09:41:30.268Z</time>
      </trkpt>
      <trkpt lat="48.51049" lon="7.16373">
        <ele>927</ele>
        <time>2021-02-21T09:41:31.267Z</time>
      </trkpt>
      <trkpt lat="48.51049" lon="7.16372">
        <ele>928</ele>
        <time>2021-02-21T09:41:32.267Z</time>
      </trkpt>
      <trkpt lat="48.5105" lon="7.16371">
        <ele>928</ele>
        <time>2021-02-21T09:41:33.268Z</time>
      </trkpt>
      <trkpt lat="48.51051" lon="7.16371">
        <ele>929</ele>
        <time>2021-02-21T09:41:34.268Z</time>
      </trkpt>
      <trkpt lat="48.51052" lon="7.16372">
        <ele>929</ele>
        <time>2021-02-21T09:41:35.268Z</time>
      </trkpt>
      <trkpt lat="48.51053" lon="7.16373">
        <ele>929</ele>
        <time>2021-02-21T09:41:36.268Z</time>
      </trkpt>
      <trkpt lat="48.51054" lon="7.16373">
        <ele>929</ele>
        <time>2021-02-21T09:41:37.268Z</time>
      </trkpt>
      <trkpt lat="48.51055" lon="7.16375">
        <ele>929</ele>
        <time>2021-02-21T09:41:38.267Z</time>
      </trkpt>
      <trkpt lat="48.51055" lon="7.16375">
        <ele>929</ele>
        <time>2021-02-21T09:41:39.268Z</time>
      </trkpt>
      <trkpt lat="48.51056" lon="7.16375">
        <ele>930</ele>
        <time>2021-02-21T09:41:40.268Z</time>
      </trkpt>
      <trkpt lat="48.51057" lon="7.16375">
        <ele>930</ele>
        <time>2021-02-21T09:41:41.268Z</time>
      </trkpt>
      <trkpt lat="48.51058" lon="7.16376">
        <ele>930</ele>
        <time>2021-02-21T09:41:42.268Z</time>
      </trkpt>
      <trkpt lat="48.51059" lon="7.16376">
        <ele>930</ele>
        <time>2021-02-21T09:41:43.268Z</time>
      </trkpt>
      <trkpt lat="48.5106" lon="7.16377">
        <ele>930</ele>
        <time>2021-02-21T09:41:44.268Z</time>
      </trkpt>
      <trkpt lat="48.51061" lon="7.16377">
        <ele>930</ele>
        <time>2021-02-21T09:41:45.268Z</time>
      </trkpt>
      <trkpt lat="48.51063" lon="7.16379">
        <ele>931</ele>
        <time>2021-02-21T09:41:46.268Z</time>
      </trkpt>
      <trkpt lat="48.51065" lon="7.1638">
        <ele>931</ele>
        <time>2021-02-21T09:41:47.267Z</time>
      </trkpt>
      <trkpt lat="48.51066" lon="7.16381">
        <ele>932</ele>
        <time>2021-02-21T09:41:48.268Z</time>
      </trkpt>
      <trkpt lat="48.51067" lon="7.16382">
        <ele>933</ele>
        <time>2021-02-21T09:41:49.268Z</time>
      </trkpt>
      <trkpt lat="48.51069" lon="7.16382">
        <ele>933</ele>
        <time>2021-02-21T09:41:50.268Z</time>
      </trkpt>
      <trkpt lat="48.5107" lon="7.16383">
        <ele>933</ele>
        <time>2021-02-21T09:41:51.267Z</time>
      </trkpt>
      <trkpt lat="48.51071" lon="7.16384">
        <ele>933</ele>
        <time>2021-02-21T09:41:52.268Z</time>
      </trkpt>
      <trkpt lat="48.51072" lon="7.16385">
        <ele>933</ele>
        <time>2021-02-21T09:41:53.268Z</time>
      </trkpt>
      <trkpt lat="48.51073" lon="7.16385">
        <ele>933</ele>
        <time>2021-02-21T09:41:54.268Z</time>
      </trkpt>
      <trkpt lat="48.51074" lon="7.16386">
        <ele>933</ele>
        <time>2021-02-21T09:41:55.268Z</time>
      </trkpt>
      <trkpt lat="48.51075" lon="7.16387">
        <ele>933</ele>
        <time>2021-02-21T09:41:56.268Z</time>
      </trkpt>
      <trkpt lat="48.51077" lon="7.16388">
        <ele>933</ele>
        <time>2021-02-21T09:41:57.267Z</time>
      </trkpt>
      <trkpt lat="48.51078" lon="7.16389">
        <ele>933</ele>
        <time>2021-02-21T09:41:58.268Z</time>
      </trkpt>
      <trkpt lat="48.51079" lon="7.16389">
        <ele>933</ele>
        <time>2021-02-21T09:41:59.268Z</time>
      </trkpt>
      <trkpt lat="48.5108" lon="7.16389">
        <ele>933</ele>
        <time>2021-02-21T09:42:00.268Z</time>
      </trkpt>
      <trkpt lat="48.51079" lon="7.16388">
        <ele>933</ele>
        <time>2021-02-21T09:42:01.267Z</time>
      </trkpt>
      <trkpt lat="48.51079" lon="7.16382">
        <ele>934</ele>
        <time>2021-02-21T09:42:02.268Z</time>
      </trkpt>
      <trkpt lat="48.51078" lon="7.16381">
        <ele>935</ele>
        <time>2021-02-21T09:42:03.268Z</time>
      </trkpt>
      <trkpt lat="48.51078" lon="7.1638">
        <ele>935</ele>
        <time>2021-02-21T09:42:04.268Z</time>
      </trkpt>
      <trkpt lat="48.51078" lon="7.16379">
        <ele>936</ele>
        <time>2021-02-21T09:42:05.268Z</time>
      </trkpt>
      <trkpt lat="48.51077" lon="7.16378">
        <ele>936</ele>
        <time>2021-02-21T09:42:06.268Z</time>
      </trkpt>
      <trkpt lat="48.51077" lon="7.16377">
        <ele>936</ele>
        <time>2021-02-21T09:42:07.268Z</time>
      </trkpt>
      <trkpt lat="48.51077" lon="7.16376">
        <ele>937</ele>
        <time>2021-02-21T09:42:08.267Z</time>
      </trkpt>
      <trkpt lat="48.51077" lon="7.16375">
        <ele>937</ele>
        <time>2021-02-21T09:42:09.268Z</time>
      </trkpt>
      <trkpt lat="48.51077" lon="7.16373">
        <ele>938</ele>
        <time>2021-02-21T09:42:10.268Z</time>
      </trkpt>
      <trkpt lat="48.51077" lon="7.16372">
        <ele>939</ele>
        <time>2021-02-21T09:42:11.268Z</time>
      </trkpt>
      <trkpt lat="48.51076" lon="7.16371">
        <ele>939</ele>
        <time>2021-02-21T09:42:12.268Z</time>
      </trkpt>
      <trkpt lat="48.51076" lon="7.16369">
        <ele>940</ele>
        <time>2021-02-21T09:42:13.268Z</time>
      </trkpt>
      <trkpt lat="48.51076" lon="7.16368">
        <ele>940</ele>
        <time>2021-02-21T09:42:14.268Z</time>
      </trkpt>
      <trkpt lat="48.51076" lon="7.16368">
        <ele>940</ele>
        <time>2021-02-21T09:42:15.268Z</time>
      </trkpt>
      <trkpt lat="48.51075" lon="7.16367">
        <ele>941</ele>
        <time>2021-02-21T09:42:16.268Z</time>
      </trkpt>
      <trkpt lat="48.51074" lon="7.16366">
        <ele>941</ele>
        <time>2021-02-21T09:42:17.268Z</time>
      </trkpt>
      <trkpt lat="48.51074" lon="7.16365">
        <ele>941</ele>
        <time>2021-02-21T09:42:18.268Z</time>
      </trkpt>
      <trkpt lat="48.51073" lon="7.16364">
        <ele>941</ele>
        <time>2021-02-21T09:42:19.267Z</time>
      </trkpt>
      <trkpt lat="48.51073" lon="7.16362">
        <ele>942</ele>
        <time>2021-02-21T09:42:20.268Z</time>
      </trkpt>
      <trkpt lat="48.51072" lon="7.16361">
        <ele>942</ele>
        <time>2021-02-21T09:42:21.268Z</time>
      </trkpt>
      <trkpt lat="48.51071" lon="7.16359">
        <ele>942</ele>
        <time>2021-02-21T09:42:22.268Z</time>
      </trkpt>
      <trkpt lat="48.51071" lon="7.16359">
        <ele>942</ele>
        <time>2021-02-21T09:42:23.268Z</time>
      </trkpt>
      <trkpt lat="48.51071" lon="7.16358">
        <ele>942</ele>
        <time>2021-02-21T09:42:24.268Z</time>
      </trkpt>
      <trkpt lat="48.5107" lon="7.16358">
        <ele>939</ele>
        <time>2021-02-21T09:42:25.268Z</time>
      </trkpt>
      <trkpt lat="48.51069" lon="7.16358">
        <ele>938</ele>
        <time>2021-02-21T09:42:26.268Z</time>
      </trkpt>
      <trkpt lat="48.51071" lon="7.16351">
        <ele>934</ele>
        <time>2021-02-21T09:42:27.269Z</time>
      </trkpt>
      <trkpt lat="48.51069" lon="7.16349">
        <ele>934</ele>
        <time>2021-02-21T09:42:28.269Z</time>
      </trkpt>
      <trkpt lat="48.51068" lon="7.16347">
        <ele>934</ele>
        <time>2021-02-21T09:42:29.269Z</time>
      </trkpt>
      <trkpt lat="48.51067" lon="7.16345">
        <ele>935</ele>
        <time>2021-02-21T09:42:30.269Z</time>
      </trkpt>
      <trkpt lat="48.51066" lon="7.16343">
        <ele>935</ele>
        <time>2021-02-21T09:42:31.269Z</time>
      </trkpt>
      <trkpt lat="48.51064" lon="7.16341">
        <ele>935</ele>
        <time>2021-02-21T09:42:32.269Z</time>
      </trkpt>
      <trkpt lat="48.51063" lon="7.16339">
        <ele>935</ele>
        <time>2021-02-21T09:42:33.269Z</time>
      </trkpt>
      <trkpt lat="48.51061" lon="7.16338">
        <ele>935</ele>
        <time>2021-02-21T09:42:34.269Z</time>
      </trkpt>
      <trkpt lat="48.5106" lon="7.16337">
        <ele>936</ele>
        <time>2021-02-21T09:42:35.269Z</time>
      </trkpt>
      <trkpt lat="48.51058" lon="7.16336">
        <ele>936</ele>
        <time>2021-02-21T09:42:36.269Z</time>
      </trkpt>
      <trkpt lat="48.51056" lon="7.16335">
        <ele>937</ele>
        <time>2021-02-21T09:42:37.269Z</time>
      </trkpt>
      <trkpt lat="48.51055" lon="7.16335">
        <ele>938</ele>
        <time>2021-02-21T09:42:38.269Z</time>
      </trkpt>
      <trkpt lat="48.51053" lon="7.16335">
        <ele>938</ele>
        <time>2021-02-21T09:42:39.269Z</time>
      </trkpt>
      <trkpt lat="48.51052" lon="7.16334">
        <ele>939</ele>
        <time>2021-02-21T09:42:40.269Z</time>
      </trkpt>
      <trkpt lat="48.51051" lon="7.16333">
        <ele>939</ele>
        <time>2021-02-21T09:42:41.269Z</time>
      </trkpt>
      <trkpt lat="48.5105" lon="7.16332">
        <ele>940</ele>
        <time>2021-02-21T09:42:42.269Z</time>
      </trkpt>
      <trkpt lat="48.51049" lon="7.16331">
        <ele>940</ele>
        <time>2021-02-21T09:42:43.269Z</time>
      </trkpt>
      <trkpt lat="48.51049" lon="7.16329">
        <ele>940</ele>
        <time>2021-02-21T09:42:44.269Z</time>
      </trkpt>
      <trkpt lat="48.51048" lon="7.16328">
        <ele>941</ele>
        <time>2021-02-21T09:42:45.269Z</time>
      </trkpt>
      <trkpt lat="48.51046" lon="7.16327">
        <ele>941</ele>
        <time>2021-02-21T09:42:46.269Z</time>
      </trkpt>
      <trkpt lat="48.51045" lon="7.16325">
        <ele>941</ele>
        <time>2021-02-21T09:42:47.269Z</time>
      </trkpt>
      <trkpt lat="48.51044" lon="7.16324">
        <ele>941</ele>
        <time>2021-02-21T09:42:48.269Z</time>
      </trkpt>
      <trkpt lat="48.51043" lon="7.16323">
        <ele>942</ele>
        <time>2021-02-21T09:42:49.269Z</time>
      </trkpt>
      <trkpt lat="48.51041" lon="7.16322">
        <ele>942</ele>
        <time>2021-02-21T09:42:50.269Z</time>
      </trkpt>
      <trkpt lat="48.51041" lon="7.1632">
        <ele>942</ele>
        <time>2021-02-21T09:42:51.269Z</time>
      </trkpt>
      <trkpt lat="48.5104" lon="7.16319">
        <ele>942</ele>
        <time>2021-02-21T09:42:52.269Z</time>
      </trkpt>
      <trkpt lat="48.51039" lon="7.16318">
        <ele>942</ele>
        <time>2021-02-21T09:42:53.269Z</time>
      </trkpt>
      <trkpt lat="48.51038" lon="7.16317">
        <ele>942</ele>
        <time>2021-02-21T09:42:54.269Z</time>
      </trkpt>
      <trkpt lat="48.51037" lon="7.16316">
        <ele>942</ele>
        <time>2021-02-21T09:42:55.269Z</time>
      </trkpt>
      <trkpt lat="48.51036" lon="7.16315">
        <ele>942</ele>
        <time>2021-02-21T09:42:56.269Z</time>
      </trkpt>
      <trkpt lat="48.51036" lon="7.16314">
        <ele>942</ele>
        <time>2021-02-21T09:42:57.268Z</time>
      </trkpt>
      <trkpt lat="48.51035" lon="7.16313">
        <ele>942</ele>
        <time>2021-02-21T09:42:58.269Z</time>
      </trkpt>
      <trkpt lat="48.51033" lon="7.16312">
        <ele>942</ele>
        <time>2021-02-21T09:42:59.269Z</time>
      </trkpt>
      <trkpt lat="48.51032" lon="7.16311">
        <ele>942</ele>
        <time>2021-02-21T09:43:00.269Z</time>
      </trkpt>
      <trkpt lat="48.51031" lon="7.16309">
        <ele>942</ele>
        <time>2021-02-21T09:43:01.269Z</time>
      </trkpt>
      <trkpt lat="48.51031" lon="7.16308">
        <ele>942</ele>
        <time>2021-02-21T09:43:02.269Z</time>
      </trkpt>
      <trkpt lat="48.5103" lon="7.16306">
        <ele>942</ele>
        <time>2021-02-21T09:43:03.268Z</time>
      </trkpt>
      <trkpt lat="48.5103" lon="7.16305">
        <ele>943</ele>
        <time>2021-02-21T09:43:04.269Z</time>
      </trkpt>
      <trkpt lat="48.51029" lon="7.16304">
        <ele>943</ele>
        <time>2021-02-21T09:43:05.269Z</time>
      </trkpt>
      <trkpt lat="48.51028" lon="7.16302">
        <ele>944</ele>
        <time>2021-02-21T09:43:06.269Z</time>
      </trkpt>
      <trkpt lat="48.51028" lon="7.16301">
        <ele>944</ele>
        <time>2021-02-21T09:43:07.269Z</time>
      </trkpt>
      <trkpt lat="48.51028" lon="7.163">
        <ele>945</ele>
        <time>2021-02-21T09:43:08.269Z</time>
      </trkpt>
      <trkpt lat="48.51029" lon="7.16298">
        <ele>945</ele>
        <time>2021-02-21T09:43:09.269Z</time>
      </trkpt>
      <trkpt lat="48.5103" lon="7.16296">
        <ele>946</ele>
        <time>2021-02-21T09:43:10.268Z</time>
      </trkpt>
      <trkpt lat="48.5103" lon="7.16296">
        <ele>946</ele>
        <time>2021-02-21T09:43:11.269Z</time>
      </trkpt>
      <trkpt lat="48.51029" lon="7.16296">
        <ele>946</ele>
        <time>2021-02-21T09:43:12.268Z</time>
      </trkpt>
      <trkpt lat="48.5103" lon="7.16296">
        <ele>946</ele>
        <time>2021-02-21T09:43:13.269Z</time>
      </trkpt>
      <trkpt lat="48.5103" lon="7.16296">
        <ele>945</ele>
        <time>2021-02-21T09:43:14.269Z</time>
      </trkpt>
      <trkpt lat="48.5103" lon="7.16295">
        <ele>945</ele>
        <time>2021-02-21T09:43:15.270Z</time>
      </trkpt>
      <trkpt lat="48.51032" lon="7.16307">
        <ele>940</ele>
        <time>2021-02-21T09:43:16.270Z</time>
      </trkpt>
      <trkpt lat="48.51033" lon="7.16308">
        <ele>940</ele>
        <time>2021-02-21T09:43:17.270Z</time>
      </trkpt>
      <trkpt lat="48.51035" lon="7.16309">
        <ele>940</ele>
        <time>2021-02-21T09:43:18.270Z</time>
      </trkpt>
      <trkpt lat="48.51037" lon="7.1631">
        <ele>940</ele>
        <time>2021-02-21T09:43:19.270Z</time>
      </trkpt>
      <trkpt lat="48.51039" lon="7.16311">
        <ele>939</ele>
        <time>2021-02-21T09:43:20.270Z</time>
      </trkpt>
      <trkpt lat="48.5104" lon="7.16312">
        <ele>939</ele>
        <time>2021-02-21T09:43:21.270Z</time>
      </trkpt>
      <trkpt lat="48.51041" lon="7.16314">
        <ele>939</ele>
        <time>2021-02-21T09:43:22.270Z</time>
      </trkpt>
      <trkpt lat="48.51042" lon="7.16315">
        <ele>938</ele>
        <time>2021-02-21T09:43:23.270Z</time>
      </trkpt>
      <trkpt lat="48.51043" lon="7.16318">
        <ele>939</ele>
        <time>2021-02-21T09:43:24.270Z</time>
      </trkpt>
      <trkpt lat="48.51044" lon="7.16319">
        <ele>939</ele>
        <time>2021-02-21T09:43:25.270Z</time>
      </trkpt>
      <trkpt lat="48.51045" lon="7.16321">
        <ele>940</ele>
        <time>2021-02-21T09:43:26.270Z</time>
      </trkpt>
      <trkpt lat="48.51046" lon="7.16322">
        <ele>940</ele>
        <time>2021-02-21T09:43:27.270Z</time>
      </trkpt>
      <trkpt lat="48.51047" lon="7.16323">
        <ele>941</ele>
        <time>2021-02-21T09:43:28.270Z</time>
      </trkpt>
      <trkpt lat="48.51049" lon="7.16324">
        <ele>942</ele>
        <time>2021-02-21T09:43:29.270Z</time>
      </trkpt>
      <trkpt lat="48.5105" lon="7.16325">
        <ele>942</ele>
        <time>2021-02-21T09:43:30.270Z</time>
      </trkpt>
      <trkpt lat="48.51052" lon="7.16326">
        <ele>943</ele>
        <time>2021-02-21T09:43:31.270Z</time>
      </trkpt>
      <trkpt lat="48.51053" lon="7.16327">
        <ele>943</ele>
        <time>2021-02-21T09:43:32.270Z</time>
      </trkpt>
      <trkpt lat="48.51055" lon="7.16328">
        <ele>944</ele>
        <time>2021-02-21T09:43:33.270Z</time>
      </trkpt>
      <trkpt lat="48.51056" lon="7.16329">
        <ele>944</ele>
        <time>2021-02-21T09:43:34.270Z</time>
      </trkpt>
      <trkpt lat="48.51057" lon="7.1633">
        <ele>945</ele>
        <time>2021-02-21T09:43:35.270Z</time>
      </trkpt>
      <trkpt lat="48.51059" lon="7.16331">
        <ele>945</ele>
        <time>2021-02-21T09:43:36.270Z</time>
      </trkpt>
      <trkpt lat="48.51061" lon="7.16332">
        <ele>945</ele>
        <time>2021-02-21T09:43:37.270Z</time>
      </trkpt>
      <trkpt lat="48.51063" lon="7.16333">
        <ele>945</ele>
        <time>2021-02-21T09:43:38.270Z</time>
      </trkpt>
      <trkpt lat="48.51064" lon="7.16334">
        <ele>945</ele>
        <time>2021-02-21T09:43:39.270Z</time>
      </trkpt>
      <trkpt lat="48.51065" lon="7.16335">
        <ele>944</ele>
        <time>2021-02-21T09:43:40.270Z</time>
      </trkpt>
      <trkpt lat="48.51067" lon="7.16337">
        <ele>944</ele>
        <time>2021-02-21T09:43:41.270Z</time>
      </trkpt>
      <trkpt lat="48.51068" lon="7.16339">
        <ele>944</ele>
        <time>2021-02-21T09:43:42.270Z</time>
      </trkpt>
      <trkpt lat="48.51069" lon="7.1634">
        <ele>944</ele>
        <time>2021-02-21T09:43:43.270Z</time>
      </trkpt>
      <trkpt lat="48.5107" lon="7.16341">
        <ele>944</ele>
        <time>2021-02-21T09:43:44.270Z</time>
      </trkpt>
      <trkpt lat="48.51071" lon="7.16342">
        <ele>943</ele>
        <time>2021-02-21T09:43:45.270Z</time>
      </trkpt>
      <trkpt lat="48.51073" lon="7.16343">
        <ele>943</ele>
        <time>2021-02-21T09:43:46.270Z</time>
      </trkpt>
      <trkpt lat="48.51074" lon="7.16345">
        <ele>942</ele>
        <time>2021-02-21T09:43:47.270Z</time>
      </trkpt>
      <trkpt lat="48.51075" lon="7.16346">
        <ele>942</ele>
        <time>2021-02-21T09:43:48.270Z</time>
      </trkpt>
      <trkpt lat="48.51075" lon="7.16349">
        <ele>942</ele>
        <time>2021-02-21T09:43:49.270Z</time>
      </trkpt>
      <trkpt lat="48.51076" lon="7.1635">
        <ele>941</ele>
        <time>2021-02-21T09:43:50.270Z</time>
      </trkpt>
      <trkpt lat="48.51077" lon="7.16351">
        <ele>941</ele>
        <time>2021-02-21T09:43:51.270Z</time>
      </trkpt>
      <trkpt lat="48.51077" lon="7.16351">
        <ele>940</ele>
        <time>2021-02-21T09:43:52.270Z</time>
      </trkpt>
      <trkpt lat="48.51077" lon="7.16351">
        <ele>939</ele>
        <time>2021-02-21T09:43:53.270Z</time>
      </trkpt>
      <trkpt lat="48.51077" lon="7.1635">
        <ele>937</ele>
        <time>2021-02-21T09:43:54.271Z</time>
      </trkpt>
      <trkpt lat="48.51076" lon="7.1635">
        <ele>937</ele>
        <time>2021-02-21T09:43:55.270Z</time>
      </trkpt>
      <trkpt lat="48.51078" lon="7.16352">
        <ele>935</ele>
        <time>2021-02-21T09:43:56.271Z</time>
      </trkpt>
      <trkpt lat="48.51079" lon="7.16353">
        <ele>935</ele>
        <time>2021-02-21T09:43:57.270Z</time>
      </trkpt>
      <trkpt lat="48.51079" lon="7.16354">
        <ele>934</ele>
        <time>2021-02-21T09:43:58.270Z</time>
      </trkpt>
      <trkpt lat="48.51079" lon="7.16354">
        <ele>933</ele>
        <time>2021-02-21T09:43:59.270Z</time>
      </trkpt>
      <trkpt lat="48.5108" lon="7.16354">
        <ele>933</ele>
        <time>2021-02-21T09:44:00.270Z</time>
      </trkpt>
      <trkpt lat="48.51081" lon="7.16355">
        <ele>932</ele>
        <time>2021-02-21T09:44:01.270Z</time>
      </trkpt>
      <trkpt lat="48.51082" lon="7.16355">
        <ele>932</ele>
        <time>2021-02-21T09:44:02.270Z</time>
      </trkpt>
      <trkpt lat="48.51083" lon="7.16355">
        <ele>932</ele>
        <time>2021-02-21T09:44:03.270Z</time>
      </trkpt>
      <trkpt lat="48.51083" lon="7.16356">
        <ele>932</ele>
        <time>2021-02-21T09:44:04.271Z</time>
      </trkpt>
      <trkpt lat="48.51083" lon="7.16356">
        <ele>932</ele>
        <time>2021-02-21T09:44:05.270Z</time>
      </trkpt>
      <trkpt lat="48.51083" lon="7.16357">
        <ele>932</ele>
        <time>2021-02-21T09:44:06.270Z</time>
      </trkpt>
      <trkpt lat="48.51084" lon="7.16358">
        <ele>931</ele>
        <time>2021-02-21T09:44:07.270Z</time>
      </trkpt>
      <trkpt lat="48.51084" lon="7.16358">
        <ele>931</ele>
        <time>2021-02-21T09:44:08.270Z</time>
      </trkpt>
      <trkpt lat="48.51086" lon="7.16359">
        <ele>931</ele>
        <time>2021-02-21T09:44:09.270Z</time>
      </trkpt>
      <trkpt lat="48.51087" lon="7.16358">
        <ele>931</ele>
        <time>2021-02-21T09:44:10.271Z</time>
      </trkpt>
      <trkpt lat="48.51088" lon="7.16359">
        <ele>931</ele>
        <time>2021-02-21T09:44:11.270Z</time>
      </trkpt>
      <trkpt lat="48.51089" lon="7.16359">
        <ele>931</ele>
        <time>2021-02-21T09:44:12.271Z</time>
      </trkpt>
      <trkpt lat="48.5109" lon="7.1636">
        <ele>931</ele>
        <time>2021-02-21T09:44:13.271Z</time>
      </trkpt>
      <trkpt lat="48.5109" lon="7.1636">
        <ele>931</ele>
        <time>2021-02-21T09:44:14.270Z</time>
      </trkpt>
      <trkpt lat="48.51091" lon="7.16361">
        <ele>931</ele>
        <time>2021-02-21T09:44:15.270Z</time>
      </trkpt>
      <trkpt lat="48.5109" lon="7.16363">
        <ele>931</ele>
        <time>2021-02-21T09:44:16.270Z</time>
      </trkpt>
      <trkpt lat="48.51091" lon="7.16363">
        <ele>931</ele>
        <time>2021-02-21T09:44:17.271Z</time>
      </trkpt>
      <trkpt lat="48.51091" lon="7.16362">
        <ele>930</ele>
        <time>2021-02-21T09:44:18.271Z</time>
      </trkpt>
      <trkpt lat="48.51092" lon="7.16362">
        <ele>930</ele>
        <time>2021-02-21T09:44:19.271Z</time>
      </trkpt>
      <trkpt lat="48.51093" lon="7.16362">
        <ele>930</ele>
        <time>2021-02-21T09:44:20.271Z</time>
      </trkpt>
      <trkpt lat="48.51093" lon="7.16361">
        <ele>930</ele>
        <time>2021-02-21T09:44:21.270Z</time>
      </trkpt>
      <trkpt lat="48.51093" lon="7.1636">
        <ele>930</ele>
        <time>2021-02-21T09:44:22.270Z</time>
      </trkpt>
      <trkpt lat="48.51093" lon="7.16358">
        <ele>930</ele>
        <time>2021-02-21T09:44:23.270Z</time>
      </trkpt>
      <trkpt lat="48.51092" lon="7.16357">
        <ele>931</ele>
        <time>2021-02-21T09:44:24.270Z</time>
      </trkpt>
      <trkpt lat="48.51092" lon="7.16356">
        <ele>931</ele>
        <time>2021-02-21T09:44:25.270Z</time>
      </trkpt>
      <trkpt lat="48.51092" lon="7.16356">
        <ele>932</ele>
        <time>2021-02-21T09:44:26.270Z</time>
      </trkpt>
      <trkpt lat="48.51092" lon="7.16355">
        <ele>933</ele>
        <time>2021-02-21T09:44:27.270Z</time>
      </trkpt>
      <trkpt lat="48.51092" lon="7.16354">
        <ele>933</ele>
        <time>2021-02-21T09:44:28.271Z</time>
      </trkpt>
      <trkpt lat="48.51091" lon="7.16353">
        <ele>934</ele>
        <time>2021-02-21T09:44:29.271Z</time>
      </trkpt>
      <trkpt lat="48.51091" lon="7.16352">
        <ele>934</ele>
        <time>2021-02-21T09:44:30.271Z</time>
      </trkpt>
      <trkpt lat="48.51091" lon="7.1635">
        <ele>935</ele>
        <time>2021-02-21T09:44:31.271Z</time>
      </trkpt>
      <trkpt lat="48.51091" lon="7.16349">
        <ele>935</ele>
        <time>2021-02-21T09:44:32.270Z</time>
      </trkpt>
      <trkpt lat="48.51091" lon="7.16348">
        <ele>935</ele>
        <time>2021-02-21T09:44:33.270Z</time>
      </trkpt>
      <trkpt lat="48.51091" lon="7.16346">
        <ele>936</ele>
        <time>2021-02-21T09:44:34.270Z</time>
      </trkpt>
      <trkpt lat="48.51091" lon="7.16345">
        <ele>936</ele>
        <time>2021-02-21T09:44:35.270Z</time>
      </trkpt>
      <trkpt lat="48.51091" lon="7.16343">
        <ele>936</ele>
        <time>2021-02-21T09:44:36.270Z</time>
      </trkpt>
      <trkpt lat="48.5109" lon="7.16342">
        <ele>936</ele>
        <time>2021-02-21T09:44:37.270Z</time>
      </trkpt>
      <trkpt lat="48.5109" lon="7.16341">
        <ele>936</ele>
        <time>2021-02-21T09:44:38.270Z</time>
      </trkpt>
      <trkpt lat="48.5109" lon="7.1634">
        <ele>937</ele>
        <time>2021-02-21T09:44:39.270Z</time>
      </trkpt>
      <trkpt lat="48.51089" lon="7.16339">
        <ele>937</ele>
        <time>2021-02-21T09:44:40.270Z</time>
      </trkpt>
      <trkpt lat="48.51089" lon="7.16337">
        <ele>938</ele>
        <time>2021-02-21T09:44:41.270Z</time>
      </trkpt>
      <trkpt lat="48.51089" lon="7.16337">
        <ele>938</ele>
        <time>2021-02-21T09:44:42.271Z</time>
      </trkpt>
      <trkpt lat="48.51089" lon="7.16336">
        <ele>938</ele>
        <time>2021-02-21T09:44:43.270Z</time>
      </trkpt>
      <trkpt lat="48.51089" lon="7.16334">
        <ele>939</ele>
        <time>2021-02-21T09:44:44.271Z</time>
      </trkpt>
      <trkpt lat="48.51089" lon="7.16332">
        <ele>939</ele>
        <time>2021-02-21T09:44:45.270Z</time>
      </trkpt>
      <trkpt lat="48.51088" lon="7.16331">
        <ele>939</ele>
        <time>2021-02-21T09:44:46.270Z</time>
      </trkpt>
      <trkpt lat="48.51087" lon="7.16331">
        <ele>939</ele>
        <time>2021-02-21T09:44:47.271Z</time>
      </trkpt>
      <trkpt lat="48.51087" lon="7.1633">
        <ele>939</ele>
        <time>2021-02-21T09:44:48.270Z</time>
      </trkpt>
      <trkpt lat="48.51086" lon="7.16329">
        <ele>940</ele>
        <time>2021-02-21T09:44:49.270Z</time>
      </trkpt>
      <trkpt lat="48.51085" lon="7.16328">
        <ele>940</ele>
        <time>2021-02-21T09:44:50.270Z</time>
      </trkpt>
      <trkpt lat="48.51084" lon="7.16327">
        <ele>940</ele>
        <time>2021-02-21T09:44:51.270Z</time>
      </trkpt>
      <trkpt lat="48.51084" lon="7.16325">
        <ele>941</ele>
        <time>2021-02-21T09:44:52.270Z</time>
      </trkpt>
      <trkpt lat="48.51083" lon="7.16323">
        <ele>941</ele>
        <time>2021-02-21T09:44:53.270Z</time>
      </trkpt>
      <trkpt lat="48.51083" lon="7.16322">
        <ele>942</ele>
        <time>2021-02-21T09:44:54.270Z</time>
      </trkpt>
      <trkpt lat="48.51083" lon="7.1632">
        <ele>942</ele>
        <time>2021-02-21T09:44:55.270Z</time>
      </trkpt>
      <trkpt lat="48.51082" lon="7.16319">
        <ele>942</ele>
        <time>2021-02-21T09:44:56.270Z</time>
      </trkpt>
      <trkpt lat="48.51082" lon="7.16318">
        <ele>942</ele>
        <time>2021-02-21T09:44:57.270Z</time>
      </trkpt>
      <trkpt lat="48.51082" lon="7.16318">
        <ele>943</ele>
        <time>2021-02-21T09:44:58.271Z</time>
      </trkpt>
      <trkpt lat="48.51081" lon="7.16316">
        <ele>943</ele>
        <time>2021-02-21T09:44:59.270Z</time>
      </trkpt>
      <trkpt lat="48.51081" lon="7.16315">
        <ele>944</ele>
        <time>2021-02-21T09:45:00.270Z</time>
      </trkpt>
      <trkpt lat="48.5108" lon="7.16315">
        <ele>944</ele>
        <time>2021-02-21T09:45:01.270Z</time>
      </trkpt>
      <trkpt lat="48.5108" lon="7.16314">
        <ele>945</ele>
        <time>2021-02-21T09:45:02.270Z</time>
      </trkpt>
      <trkpt lat="48.51079" lon="7.16314">
        <ele>945</ele>
        <time>2021-02-21T09:45:03.271Z</time>
      </trkpt>
      <trkpt lat="48.51079" lon="7.16313">
        <ele>945</ele>
        <time>2021-02-21T09:45:04.270Z</time>
      </trkpt>
      <trkpt lat="48.51078" lon="7.16312">
        <ele>945</ele>
        <time>2021-02-21T09:45:05.270Z</time>
      </trkpt>
      <trkpt lat="48.51078" lon="7.16311">
        <ele>946</ele>
        <time>2021-02-21T09:45:06.270Z</time>
      </trkpt>
      <trkpt lat="48.51078" lon="7.16309">
        <ele>946</ele>
        <time>2021-02-21T09:45:07.270Z</time>
      </trkpt>
      <trkpt lat="48.51077" lon="7.16308">
        <ele>946</ele>
        <time>2021-02-21T09:45:08.270Z</time>
      </trkpt>
      <trkpt lat="48.51077" lon="7.16307">
        <ele>946</ele>
        <time>2021-02-21T09:45:09.270Z</time>
      </trkpt>
      <trkpt lat="48.51076" lon="7.16307">
        <ele>946</ele>
        <time>2021-02-21T09:45:10.271Z</time>
      </trkpt>
      <trkpt lat="48.51075" lon="7.16307">
        <ele>946</ele>
        <time>2021-02-21T09:45:11.270Z</time>
      </trkpt>
      <trkpt lat="48.51075" lon="7.16306">
        <ele>946</ele>
        <time>2021-02-21T09:45:12.271Z</time>
      </trkpt>
      <trkpt lat="48.51073" lon="7.16305">
        <ele>947</ele>
        <time>2021-02-21T09:45:13.271Z</time>
      </trkpt>
      <trkpt lat="48.51072" lon="7.16304">
        <ele>947</ele>
        <time>2021-02-21T09:45:14.270Z</time>
      </trkpt>
      <trkpt lat="48.51072" lon="7.16302">
        <ele>947</ele>
        <time>2021-02-21T09:45:15.270Z</time>
      </trkpt>
      <trkpt lat="48.51072" lon="7.16301">
        <ele>948</ele>
        <time>2021-02-21T09:45:16.270Z</time>
      </trkpt>
      <trkpt lat="48.51072" lon="7.163">
        <ele>948</ele>
        <time>2021-02-21T09:45:17.271Z</time>
      </trkpt>
      <trkpt lat="48.51071" lon="7.16299">
        <ele>948</ele>
        <time>2021-02-21T09:45:18.271Z</time>
      </trkpt>
      <trkpt lat="48.51071" lon="7.16298">
        <ele>948</ele>
        <time>2021-02-21T09:45:19.270Z</time>
      </trkpt>
      <trkpt lat="48.5107" lon="7.16297">
        <ele>948</ele>
        <time>2021-02-21T09:45:20.271Z</time>
      </trkpt>
      <trkpt lat="48.51068" lon="7.16296">
        <ele>948</ele>
        <time>2021-02-21T09:45:21.270Z</time>
      </trkpt>
      <trkpt lat="48.51068" lon="7.16296">
        <ele>948</ele>
        <time>2021-02-21T09:45:22.270Z</time>
      </trkpt>
      <trkpt lat="48.51067" lon="7.16295">
        <ele>949</ele>
        <time>2021-02-21T09:45:23.271Z</time>
      </trkpt>
      <trkpt lat="48.51067" lon="7.16294">
        <ele>949</ele>
        <time>2021-02-21T09:45:24.271Z</time>
      </trkpt>
      <trkpt lat="48.51066" lon="7.16294">
        <ele>950</ele>
        <time>2021-02-21T09:45:25.270Z</time>
      </trkpt>
      <trkpt lat="48.51066" lon="7.16293">
        <ele>951</ele>
        <time>2021-02-21T09:45:26.270Z</time>
      </trkpt>
      <trkpt lat="48.51065" lon="7.16291">
        <ele>951</ele>
        <time>2021-02-21T09:45:27.270Z</time>
      </trkpt>
      <trkpt lat="48.51065" lon="7.1629">
        <ele>952</ele>
        <time>2021-02-21T09:45:28.270Z</time>
      </trkpt>
      <trkpt lat="48.51065" lon="7.16288">
        <ele>953</ele>
        <time>2021-02-21T09:45:29.270Z</time>
      </trkpt>
      <trkpt lat="48.51064" lon="7.16288">
        <ele>953</ele>
        <time>2021-02-21T09:45:30.270Z</time>
      </trkpt>
      <trkpt lat="48.51064" lon="7.16287">
        <ele>954</ele>
        <time>2021-02-21T09:45:31.270Z</time>
      </trkpt>
      <trkpt lat="48.51063" lon="7.16285">
        <ele>954</ele>
        <time>2021-02-21T09:45:32.270Z</time>
      </trkpt>
      <trkpt lat="48.51062" lon="7.16284">
        <ele>955</ele>
        <time>2021-02-21T09:45:33.270Z</time>
      </trkpt>
      <trkpt lat="48.51061" lon="7.16284">
        <ele>954</ele>
        <time>2021-02-21T09:45:34.271Z</time>
      </trkpt>
      <trkpt lat="48.51061" lon="7.16283">
        <ele>954</ele>
        <time>2021-02-21T09:45:35.271Z</time>
      </trkpt>
      <trkpt lat="48.5106" lon="7.16282">
        <ele>954</ele>
        <time>2021-02-21T09:45:36.271Z</time>
      </trkpt>
      <trkpt lat="48.5106" lon="7.16281">
        <ele>955</ele>
        <time>2021-02-21T09:45:37.270Z</time>
      </trkpt>
      <trkpt lat="48.51058" lon="7.1628">
        <ele>955</ele>
        <time>2021-02-21T09:45:38.271Z</time>
      </trkpt>
      <trkpt lat="48.51058" lon="7.1628">
        <ele>955</ele>
        <time>2021-02-21T09:45:39.270Z</time>
      </trkpt>
      <trkpt lat="48.51057" lon="7.16279">
        <ele>955</ele>
        <time>2021-02-21T09:45:40.270Z</time>
      </trkpt>
      <trkpt lat="48.51056" lon="7.16277">
        <ele>955</ele>
        <time>2021-02-21T09:45:41.270Z</time>
      </trkpt>
      <trkpt lat="48.51056" lon="7.16275">
        <ele>956</ele>
        <time>2021-02-21T09:45:42.270Z</time>
      </trkpt>
      <trkpt lat="48.51055" lon="7.16274">
        <ele>956</ele>
        <time>2021-02-21T09:45:43.271Z</time>
      </trkpt>
      <trkpt lat="48.51054" lon="7.16273">
        <ele>956</ele>
        <time>2021-02-21T09:45:44.271Z</time>
      </trkpt>
      <trkpt lat="48.51053" lon="7.16272">
        <ele>956</ele>
        <time>2021-02-21T09:45:45.271Z</time>
      </trkpt>
      <trkpt lat="48.51052" lon="7.16272">
        <ele>956</ele>
        <time>2021-02-21T09:45:46.271Z</time>
      </trkpt>
      <trkpt lat="48.51051" lon="7.16271">
        <ele>956</ele>
        <time>2021-02-21T09:45:47.270Z</time>
      </trkpt>
      <trkpt lat="48.51051" lon="7.1627">
        <ele>956</ele>
        <time>2021-02-21T09:45:48.270Z</time>
      </trkpt>
      <trkpt lat="48.5105" lon="7.16268">
        <ele>956</ele>
        <time>2021-02-21T09:45:49.270Z</time>
      </trkpt>
      <trkpt lat="48.51049" lon="7.16267">
        <ele>956</ele>
        <time>2021-02-21T09:45:50.270Z</time>
      </trkpt>
      <trkpt lat="48.51049" lon="7.16266">
        <ele>956</ele>
        <time>2021-02-21T09:45:51.271Z</time>
      </trkpt>
      <trkpt lat="48.51048" lon="7.16265">
        <ele>956</ele>
        <time>2021-02-21T09:45:52.270Z</time>
      </trkpt>
      <trkpt lat="48.51047" lon="7.16264">
        <ele>956</ele>
        <time>2021-02-21T09:45:53.270Z</time>
      </trkpt>
      <trkpt lat="48.51047" lon="7.16263">
        <ele>956</ele>
        <time>2021-02-21T09:45:54.271Z</time>
      </trkpt>
      <trkpt lat="48.51046" lon="7.16263">
        <ele>956</ele>
        <time>2021-02-21T09:45:55.270Z</time>
      </trkpt>
      <trkpt lat="48.51046" lon="7.16263">
        <ele>956</ele>
        <time>2021-02-21T09:45:56.271Z</time>
      </trkpt>
      <trkpt lat="48.51045" lon="7.16263">
        <ele>956</ele>
        <time>2021-02-21T09:45:57.270Z</time>
      </trkpt>
      <trkpt lat="48.51045" lon="7.16262">
        <ele>956</ele>
        <time>2021-02-21T09:45:58.270Z</time>
      </trkpt>
      <trkpt lat="48.51044" lon="7.16261">
        <ele>956</ele>
        <time>2021-02-21T09:45:59.270Z</time>
      </trkpt>
      <trkpt lat="48.51044" lon="7.16259">
        <ele>956</ele>
        <time>2021-02-21T09:46:00.270Z</time>
      </trkpt>
      <trkpt lat="48.51043" lon="7.16259">
        <ele>956</ele>
        <time>2021-02-21T09:46:01.271Z</time>
      </trkpt>
      <trkpt lat="48.51043" lon="7.16259">
        <ele>956</ele>
        <time>2021-02-21T09:46:02.271Z</time>
      </trkpt>
      <trkpt lat="48.51042" lon="7.16259">
        <ele>956</ele>
        <time>2021-02-21T09:46:03.270Z</time>
      </trkpt>
      <trkpt lat="48.51042" lon="7.16259">
        <ele>956</ele>
        <time>2021-02-21T09:46:04.270Z</time>
      </trkpt>
      <trkpt lat="48.51041" lon="7.16257">
        <ele>955</ele>
        <time>2021-02-21T09:46:05.270Z</time>
      </trkpt>
      <trkpt lat="48.51041" lon="7.16255">
        <ele>955</ele>
        <time>2021-02-21T09:46:06.270Z</time>
      </trkpt>
      <trkpt lat="48.5104" lon="7.16254">
        <ele>955</ele>
        <time>2021-02-21T09:46:07.270Z</time>
      </trkpt>
      <trkpt lat="48.5104" lon="7.16252">
        <ele>954</ele>
        <time>2021-02-21T09:46:08.270Z</time>
      </trkpt>
      <trkpt lat="48.51039" lon="7.16251">
        <ele>954</ele>
        <time>2021-02-21T09:46:09.270Z</time>
      </trkpt>
      <trkpt lat="48.51039" lon="7.16249">
        <ele>954</ele>
        <time>2021-02-21T09:46:10.270Z</time>
      </trkpt>
      <trkpt lat="48.51038" lon="7.16248">
        <ele>955</ele>
        <time>2021-02-21T09:46:11.270Z</time>
      </trkpt>
      <trkpt lat="48.51037" lon="7.16247">
        <ele>955</ele>
        <time>2021-02-21T09:46:12.270Z</time>
      </trkpt>
      <trkpt lat="48.51037" lon="7.16245">
        <ele>955</ele>
        <time>2021-02-21T09:46:13.270Z</time>
      </trkpt>
      <trkpt lat="48.51037" lon="7.16244">
        <ele>955</ele>
        <time>2021-02-21T09:46:14.270Z</time>
      </trkpt>
      <trkpt lat="48.51036" lon="7.16243">
        <ele>955</ele>
        <time>2021-02-21T09:46:15.270Z</time>
      </trkpt>
      <trkpt lat="48.51035" lon="7.16241">
        <ele>955</ele>
        <time>2021-02-21T09:46:16.270Z</time>
      </trkpt>
      <trkpt lat="48.51035" lon="7.1624">
        <ele>956</ele>
        <time>2021-02-21T09:46:17.270Z</time>
      </trkpt>
      <trkpt lat="48.51035" lon="7.16239">
        <ele>955</ele>
        <time>2021-02-21T09:46:18.271Z</time>
      </trkpt>
      <trkpt lat="48.51034" lon="7.16239">
        <ele>955</ele>
        <time>2021-02-21T09:46:19.271Z</time>
      </trkpt>
      <trkpt lat="48.51034" lon="7.16237">
        <ele>955</ele>
        <time>2021-02-21T09:46:20.270Z</time>
      </trkpt>
      <trkpt lat="48.51034" lon="7.16235">
        <ele>955</ele>
        <time>2021-02-21T09:46:21.270Z</time>
      </trkpt>
      <trkpt lat="48.51033" lon="7.16234">
        <ele>955</ele>
        <time>2021-02-21T09:46:22.270Z</time>
      </trkpt>
      <trkpt lat="48.51032" lon="7.16232">
        <ele>955</ele>
        <time>2021-02-21T09:46:23.270Z</time>
      </trkpt>
      <trkpt lat="48.51032" lon="7.16231">
        <ele>955</ele>
        <time>2021-02-21T09:46:24.270Z</time>
      </trkpt>
      <trkpt lat="48.5103" lon="7.16229">
        <ele>955</ele>
        <time>2021-02-21T09:46:25.270Z</time>
      </trkpt>
      <trkpt lat="48.51029" lon="7.16228">
        <ele>955</ele>
        <time>2021-02-21T09:46:26.270Z</time>
      </trkpt>
      <trkpt lat="48.51029" lon="7.16227">
        <ele>955</ele>
        <time>2021-02-21T09:46:27.270Z</time>
      </trkpt>
      <trkpt lat="48.51029" lon="7.16226">
        <ele>955</ele>
        <time>2021-02-21T09:46:28.271Z</time>
      </trkpt>
      <trkpt lat="48.51029" lon="7.16224">
        <ele>955</ele>
        <time>2021-02-21T09:46:29.271Z</time>
      </trkpt>
      <trkpt lat="48.51028" lon="7.16223">
        <ele>956</ele>
        <time>2021-02-21T09:46:30.270Z</time>
      </trkpt>
      <trkpt lat="48.51028" lon="7.16221">
        <ele>956</ele>
        <time>2021-02-21T09:46:31.270Z</time>
      </trkpt>
      <trkpt lat="48.51028" lon="7.1622">
        <ele>956</ele>
        <time>2021-02-21T09:46:32.270Z</time>
      </trkpt>
      <trkpt lat="48.51028" lon="7.16219">
        <ele>957</ele>
        <time>2021-02-21T09:46:33.270Z</time>
      </trkpt>
      <trkpt lat="48.51028" lon="7.16217">
        <ele>957</ele>
        <time>2021-02-21T09:46:34.271Z</time>
      </trkpt>
      <trkpt lat="48.51028" lon="7.16215">
        <ele>958</ele>
        <time>2021-02-21T09:46:35.271Z</time>
      </trkpt>
      <trkpt lat="48.51027" lon="7.16214">
        <ele>958</ele>
        <time>2021-02-21T09:46:36.271Z</time>
      </trkpt>
      <trkpt lat="48.51026" lon="7.16213">
        <ele>959</ele>
        <time>2021-02-21T09:46:37.271Z</time>
      </trkpt>
      <trkpt lat="48.51026" lon="7.16213">
        <ele>959</ele>
        <time>2021-02-21T09:46:38.270Z</time>
      </trkpt>
      <trkpt lat="48.51026" lon="7.16211">
        <ele>960</ele>
        <time>2021-02-21T09:46:39.270Z</time>
      </trkpt>
      <trkpt lat="48.51026" lon="7.16209">
        <ele>960</ele>
        <time>2021-02-21T09:46:40.270Z</time>
      </trkpt>
      <trkpt lat="48.51026" lon="7.16208">
        <ele>960</ele>
        <time>2021-02-21T09:46:41.270Z</time>
      </trkpt>
      <trkpt lat="48.51026" lon="7.16206">
        <ele>960</ele>
        <time>2021-02-21T09:46:42.270Z</time>
      </trkpt>
      <trkpt lat="48.51026" lon="7.16206">
        <ele>961</ele>
        <time>2021-02-21T09:46:43.270Z</time>
      </trkpt>
      <trkpt lat="48.51026" lon="7.16205">
        <ele>961</ele>
        <time>2021-02-21T09:46:44.270Z</time>
      </trkpt>
      <trkpt lat="48.51026" lon="7.16204">
        <ele>961</ele>
        <time>2021-02-21T09:46:45.270Z</time>
      </trkpt>
      <trkpt lat="48.51027" lon="7.16203">
        <ele>962</ele>
        <time>2021-02-21T09:46:46.270Z</time>
      </trkpt>
      <trkpt lat="48.51027" lon="7.16202">
        <ele>962</ele>
        <time>2021-02-21T09:46:47.271Z</time>
      </trkpt>
      <trkpt lat="48.51028" lon="7.162">
        <ele>962</ele>
        <time>2021-02-21T09:46:48.270Z</time>
      </trkpt>
      <trkpt lat="48.51028" lon="7.162">
        <ele>962</ele>
        <time>2021-02-21T09:46:49.270Z</time>
      </trkpt>
      <trkpt lat="48.51029" lon="7.16199">
        <ele>962</ele>
        <time>2021-02-21T09:46:50.271Z</time>
      </trkpt>
      <trkpt lat="48.5103" lon="7.16198">
        <ele>962</ele>
        <time>2021-02-21T09:46:51.271Z</time>
      </trkpt>
      <trkpt lat="48.51031" lon="7.16198">
        <ele>962</ele>
        <time>2021-02-21T09:46:52.271Z</time>
      </trkpt>
      <trkpt lat="48.51033" lon="7.16197">
        <ele>962</ele>
        <time>2021-02-21T09:46:53.270Z</time>
      </trkpt>
      <trkpt lat="48.51033" lon="7.16196">
        <ele>962</ele>
        <time>2021-02-21T09:46:54.270Z</time>
      </trkpt>
      <trkpt lat="48.51033" lon="7.16195">
        <ele>962</ele>
        <time>2021-02-21T09:46:55.271Z</time>
      </trkpt>
      <trkpt lat="48.51033" lon="7.16195">
        <ele>962</ele>
        <time>2021-02-21T09:46:56.271Z</time>
      </trkpt>
      <trkpt lat="48.51034" lon="7.16195">
        <ele>962</ele>
        <time>2021-02-21T09:46:57.271Z</time>
      </trkpt>
      <trkpt lat="48.51035" lon="7.16195">
        <ele>962</ele>
        <time>2021-02-21T09:46:58.270Z</time>
      </trkpt>
      <trkpt lat="48.51035" lon="7.16195">
        <ele>962</ele>
        <time>2021-02-21T09:46:59.271Z</time>
      </trkpt>
      <trkpt lat="48.51036" lon="7.16195">
        <ele>962</ele>
        <time>2021-02-21T09:47:00.271Z</time>
      </trkpt>
      <trkpt lat="48.51037" lon="7.16195">
        <ele>962</ele>
        <time>2021-02-21T09:47:01.271Z</time>
      </trkpt>
      <trkpt lat="48.51038" lon="7.16195">
        <ele>961</ele>
        <time>2021-02-21T09:47:02.270Z</time>
      </trkpt>
      <trkpt lat="48.51038" lon="7.16195">
        <ele>961</ele>
        <time>2021-02-21T09:47:03.271Z</time>
      </trkpt>
      <trkpt lat="48.51039" lon="7.16196">
        <ele>961</ele>
        <time>2021-02-21T09:47:04.271Z</time>
      </trkpt>
      <trkpt lat="48.51039" lon="7.16196">
        <ele>961</ele>
        <time>2021-02-21T09:47:05.270Z</time>
      </trkpt>
      <trkpt lat="48.51039" lon="7.16196">
        <ele>962</ele>
        <time>2021-02-21T09:47:06.271Z</time>
      </trkpt>
      <trkpt lat="48.51039" lon="7.16196">
        <ele>962</ele>
        <time>2021-02-21T09:47:07.271Z</time>
      </trkpt>
      <trkpt lat="48.5104" lon="7.16197">
        <ele>962</ele>
        <time>2021-02-21T09:47:08.270Z</time>
      </trkpt>
      <trkpt lat="48.5104" lon="7.16197">
        <ele>962</ele>
        <time>2021-02-21T09:47:09.270Z</time>
      </trkpt>
      <trkpt lat="48.51041" lon="7.16198">
        <ele>962</ele>
        <time>2021-02-21T09:47:10.270Z</time>
      </trkpt>
      <trkpt lat="48.51041" lon="7.16198">
        <ele>962</ele>
        <time>2021-02-21T09:47:11.270Z</time>
      </trkpt>
      <trkpt lat="48.51042" lon="7.16199">
        <ele>962</ele>
        <time>2021-02-21T09:47:12.270Z</time>
      </trkpt>
      <trkpt lat="48.51042" lon="7.162">
        <ele>962</ele>
        <time>2021-02-21T09:47:13.271Z</time>
      </trkpt>
      <trkpt lat="48.51043" lon="7.162">
        <ele>962</ele>
        <time>2021-02-21T09:47:14.270Z</time>
      </trkpt>
      <trkpt lat="48.51043" lon="7.162">
        <ele>962</ele>
        <time>2021-02-21T09:47:15.270Z</time>
      </trkpt>
      <trkpt lat="48.51044" lon="7.16201">
        <ele>962</ele>
        <time>2021-02-21T09:47:16.270Z</time>
      </trkpt>
      <trkpt lat="48.51044" lon="7.16202">
        <ele>962</ele>
        <time>2021-02-21T09:47:17.270Z</time>
      </trkpt>
      <trkpt lat="48.51045" lon="7.16203">
        <ele>962</ele>
        <time>2021-02-21T09:47:18.270Z</time>
      </trkpt>
      <trkpt lat="48.51046" lon="7.16203">
        <ele>962</ele>
        <time>2021-02-21T09:47:19.270Z</time>
      </trkpt>
      <trkpt lat="48.51047" lon="7.16203">
        <ele>962</ele>
        <time>2021-02-21T09:47:20.271Z</time>
      </trkpt>
      <trkpt lat="48.51048" lon="7.16203">
        <ele>962</ele>
        <time>2021-02-21T09:47:21.270Z</time>
      </trkpt>
      <trkpt lat="48.51049" lon="7.16204">
        <ele>962</ele>
        <time>2021-02-21T09:47:22.270Z</time>
      </trkpt>
      <trkpt lat="48.51052" lon="7.16204">
        <ele>963</ele>
        <time>2021-02-21T09:47:23.270Z</time>
      </trkpt>
      <trkpt lat="48.51053" lon="7.16205">
        <ele>963</ele>
        <time>2021-02-21T09:47:24.270Z</time>
      </trkpt>
      <trkpt lat="48.51055" lon="7.16204">
        <ele>963</ele>
        <time>2021-02-21T09:47:25.270Z</time>
      </trkpt>
      <trkpt lat="48.51057" lon="7.16204">
        <ele>964</ele>
        <time>2021-02-21T09:47:26.271Z</time>
      </trkpt>
      <trkpt lat="48.51059" lon="7.16204">
        <ele>964</ele>
        <time>2021-02-21T09:47:27.271Z</time>
      </trkpt>
      <trkpt lat="48.5106" lon="7.16202">
        <ele>965</ele>
        <time>2021-02-21T09:47:28.271Z</time>
      </trkpt>
      <trkpt lat="48.5106" lon="7.16201">
        <ele>965</ele>
        <time>2021-02-21T09:47:29.270Z</time>
      </trkpt>
      <trkpt lat="48.51061" lon="7.162">
        <ele>965</ele>
        <time>2021-02-21T09:47:30.270Z</time>
      </trkpt>
      <trkpt lat="48.51062" lon="7.162">
        <ele>965</ele>
        <time>2021-02-21T09:47:31.271Z</time>
      </trkpt>
      <trkpt lat="48.51062" lon="7.16199">
        <ele>965</ele>
        <time>2021-02-21T09:47:32.270Z</time>
      </trkpt>
      <trkpt lat="48.51064" lon="7.16199">
        <ele>964</ele>
        <time>2021-02-21T09:47:33.271Z</time>
      </trkpt>
      <trkpt lat="48.51065" lon="7.16199">
        <ele>964</ele>
        <time>2021-02-21T09:47:34.270Z</time>
      </trkpt>
      <trkpt lat="48.51066" lon="7.16199">
        <ele>964</ele>
        <time>2021-02-21T09:47:35.271Z</time>
      </trkpt>
      <trkpt lat="48.51066" lon="7.16198">
        <ele>964</ele>
        <time>2021-02-21T09:47:36.270Z</time>
      </trkpt>
      <trkpt lat="48.51065" lon="7.16199">
        <ele>964</ele>
        <time>2021-02-21T09:47:37.271Z</time>
      </trkpt>
      <trkpt lat="48.51065" lon="7.16199">
        <ele>964</ele>
        <time>2021-02-21T09:47:38.270Z</time>
      </trkpt>
      <trkpt lat="48.51064" lon="7.16199">
        <ele>962</ele>
        <time>2021-02-21T09:47:39.271Z</time>
      </trkpt>
      <trkpt lat="48.51064" lon="7.16199">
        <ele>962</ele>
        <time>2021-02-21T09:47:40.270Z</time>
      </trkpt>
      <trkpt lat="48.51072" lon="7.16201">
        <ele>963</ele>
        <time>2021-02-21T09:47:41.271Z</time>
      </trkpt>
      <trkpt lat="48.51073" lon="7.16203">
        <ele>963</ele>
        <time>2021-02-21T09:47:42.270Z</time>
      </trkpt>
      <trkpt lat="48.51074" lon="7.16205">
        <ele>963</ele>
        <time>2021-02-21T09:47:43.271Z</time>
      </trkpt>
      <trkpt lat="48.51075" lon="7.16207">
        <ele>963</ele>
        <time>2021-02-21T09:47:44.270Z</time>
      </trkpt>
      <trkpt lat="48.51076" lon="7.16209">
        <ele>963</ele>
        <time>2021-02-21T09:47:45.271Z</time>
      </trkpt>
      <trkpt lat="48.51078" lon="7.16211">
        <ele>963</ele>
        <time>2021-02-21T09:47:46.270Z</time>
      </trkpt>
      <trkpt lat="48.51079" lon="7.16214">
        <ele>963</ele>
        <time>2021-02-21T09:47:47.271Z</time>
      </trkpt>
      <trkpt lat="48.5108" lon="7.16216">
        <ele>963</ele>
        <time>2021-02-21T09:47:48.270Z</time>
      </trkpt>
      <trkpt lat="48.5108" lon="7.16217">
        <ele>963</ele>
        <time>2021-02-21T09:47:49.271Z</time>
      </trkpt>
      <trkpt lat="48.51081" lon="7.16218">
        <ele>964</ele>
        <time>2021-02-21T09:47:50.271Z</time>
      </trkpt>
      <trkpt lat="48.51082" lon="7.16219">
        <ele>964</ele>
        <time>2021-02-21T09:47:51.270Z</time>
      </trkpt>
      <trkpt lat="48.51083" lon="7.16219">
        <ele>964</ele>
        <time>2021-02-21T09:47:52.271Z</time>
      </trkpt>
      <trkpt lat="48.51084" lon="7.1622">
        <ele>963</ele>
        <time>2021-02-21T09:47:53.271Z</time>
      </trkpt>
      <trkpt lat="48.51086" lon="7.1622">
        <ele>963</ele>
        <time>2021-02-21T09:47:54.270Z</time>
      </trkpt>
      <trkpt lat="48.51087" lon="7.16221">
        <ele>963</ele>
        <time>2021-02-21T09:47:55.271Z</time>
      </trkpt>
      <trkpt lat="48.51088" lon="7.16221">
        <ele>963</ele>
        <time>2021-02-21T09:47:56.271Z</time>
      </trkpt>
      <trkpt lat="48.51089" lon="7.16221">
        <ele>963</ele>
        <time>2021-02-21T09:47:57.270Z</time>
      </trkpt>
      <trkpt lat="48.5109" lon="7.1622">
        <ele>963</ele>
        <time>2021-02-21T09:47:58.271Z</time>
      </trkpt>
      <trkpt lat="48.51091" lon="7.1622">
        <ele>963</ele>
        <time>2021-02-21T09:47:59.270Z</time>
      </trkpt>
      <trkpt lat="48.51092" lon="7.16219">
        <ele>963</ele>
        <time>2021-02-21T09:48:00.270Z</time>
      </trkpt>
      <trkpt lat="48.51092" lon="7.16218">
        <ele>963</ele>
        <time>2021-02-21T09:48:01.271Z</time>
      </trkpt>
      <trkpt lat="48.51093" lon="7.16217">
        <ele>963</ele>
        <time>2021-02-21T09:48:02.271Z</time>
      </trkpt>
      <trkpt lat="48.51094" lon="7.16217">
        <ele>963</ele>
        <time>2021-02-21T09:48:03.271Z</time>
      </trkpt>
      <trkpt lat="48.51094" lon="7.16216">
        <ele>963</ele>
        <time>2021-02-21T09:48:04.270Z</time>
      </trkpt>
      <trkpt lat="48.51094" lon="7.16216">
        <ele>963</ele>
        <time>2021-02-21T09:48:05.271Z</time>
      </trkpt>
      <trkpt lat="48.51095" lon="7.16216">
        <ele>964</ele>
        <time>2021-02-21T09:48:06.271Z</time>
      </trkpt>
      <trkpt lat="48.51095" lon="7.16216">
        <ele>964</ele>
        <time>2021-02-21T09:48:07.270Z</time>
      </trkpt>
      <trkpt lat="48.51095" lon="7.16217">
        <ele>965</ele>
        <time>2021-02-21T09:48:08.271Z</time>
      </trkpt>
      <trkpt lat="48.51095" lon="7.16218">
        <ele>965</ele>
        <time>2021-02-21T09:48:09.271Z</time>
      </trkpt>
      <trkpt lat="48.51095" lon="7.16218">
        <ele>966</ele>
        <time>2021-02-21T09:48:10.271Z</time>
      </trkpt>
      <trkpt lat="48.51094" lon="7.16216">
        <ele>961</ele>
        <time>2021-02-21T09:48:11.271Z</time>
      </trkpt>
      <trkpt lat="48.51094" lon="7.16215">
        <ele>961</ele>
        <time>2021-02-21T09:48:12.270Z</time>
      </trkpt>
      <trkpt lat="48.51095" lon="7.16213">
        <ele>961</ele>
        <time>2021-02-21T09:48:13.271Z</time>
      </trkpt>
      <trkpt lat="48.51096" lon="7.16212">
        <ele>962</ele>
        <time>2021-02-21T09:48:14.270Z</time>
      </trkpt>
      <trkpt lat="48.51097" lon="7.16211">
        <ele>962</ele>
        <time>2021-02-21T09:48:15.271Z</time>
      </trkpt>
      <trkpt lat="48.51098" lon="7.16209">
        <ele>963</ele>
        <time>2021-02-21T09:48:16.271Z</time>
      </trkpt>
      <trkpt lat="48.51099" lon="7.16205">
        <ele>964</ele>
        <time>2021-02-21T09:48:17.271Z</time>
      </trkpt>
      <trkpt lat="48.51099" lon="7.16204">
        <ele>964</ele>
        <time>2021-02-21T09:48:18.271Z</time>
      </trkpt>
      <trkpt lat="48.511" lon="7.16204">
        <ele>964</ele>
        <time>2021-02-21T09:48:19.271Z</time>
      </trkpt>
      <trkpt lat="48.51101" lon="7.16204">
        <ele>965</ele>
        <time>2021-02-21T09:48:20.271Z</time>
      </trkpt>
      <trkpt lat="48.51101" lon="7.16205">
        <ele>965</ele>
        <time>2021-02-21T09:48:21.271Z</time>
      </trkpt>
      <trkpt lat="48.51102" lon="7.16205">
        <ele>966</ele>
        <time>2021-02-21T09:48:22.270Z</time>
      </trkpt>
      <trkpt lat="48.51103" lon="7.16206">
        <ele>966</ele>
        <time>2021-02-21T09:48:23.270Z</time>
      </trkpt>
      <trkpt lat="48.51103" lon="7.16205">
        <ele>965</ele>
        <time>2021-02-21T09:48:24.270Z</time>
      </trkpt>
      <trkpt lat="48.51103" lon="7.16206">
        <ele>965</ele>
        <time>2021-02-21T09:48:25.270Z</time>
      </trkpt>
      <trkpt lat="48.51104" lon="7.16205">
        <ele>965</ele>
        <time>2021-02-21T09:48:26.271Z</time>
      </trkpt>
      <trkpt lat="48.51105" lon="7.16206">
        <ele>965</ele>
        <time>2021-02-21T09:48:27.271Z</time>
      </trkpt>
      <trkpt lat="48.51106" lon="7.16206">
        <ele>966</ele>
        <time>2021-02-21T09:48:28.270Z</time>
      </trkpt>
      <trkpt lat="48.51108" lon="7.16207">
        <ele>966</ele>
        <time>2021-02-21T09:48:29.271Z</time>
      </trkpt>
      <trkpt lat="48.51108" lon="7.16208">
        <ele>965</ele>
        <time>2021-02-21T09:48:30.270Z</time>
      </trkpt>
      <trkpt lat="48.51109" lon="7.16209">
        <ele>965</ele>
        <time>2021-02-21T09:48:31.271Z</time>
      </trkpt>
      <trkpt lat="48.5111" lon="7.1621">
        <ele>964</ele>
        <time>2021-02-21T09:48:32.271Z</time>
      </trkpt>
      <trkpt lat="48.51111" lon="7.1621">
        <ele>964</ele>
        <time>2021-02-21T09:48:33.271Z</time>
      </trkpt>
      <trkpt lat="48.51112" lon="7.16211">
        <ele>965</ele>
        <time>2021-02-21T09:48:34.270Z</time>
      </trkpt>
      <trkpt lat="48.51113" lon="7.16212">
        <ele>965</ele>
        <time>2021-02-21T09:48:35.271Z</time>
      </trkpt>
      <trkpt lat="48.51114" lon="7.16213">
        <ele>965</ele>
        <time>2021-02-21T09:48:36.271Z</time>
      </trkpt>
      <trkpt lat="48.51115" lon="7.16214">
        <ele>965</ele>
        <time>2021-02-21T09:48:37.271Z</time>
      </trkpt>
      <trkpt lat="48.51116" lon="7.16215">
        <ele>965</ele>
        <time>2021-02-21T09:48:38.271Z</time>
      </trkpt>
      <trkpt lat="48.51118" lon="7.16215">
        <ele>965</ele>
        <time>2021-02-21T09:48:39.270Z</time>
      </trkpt>
      <trkpt lat="48.51119" lon="7.16216">
        <ele>966</ele>
        <time>2021-02-21T09:48:40.271Z</time>
      </trkpt>
      <trkpt lat="48.51121" lon="7.16216">
        <ele>966</ele>
        <time>2021-02-21T09:48:41.271Z</time>
      </trkpt>
      <trkpt lat="48.51122" lon="7.16217">
        <ele>966</ele>
        <time>2021-02-21T09:48:42.271Z</time>
      </trkpt>
      <trkpt lat="48.51123" lon="7.16218">
        <ele>967</ele>
        <time>2021-02-21T09:48:43.271Z</time>
      </trkpt>
      <trkpt lat="48.51124" lon="7.16218">
        <ele>967</ele>
        <time>2021-02-21T09:48:44.271Z</time>
      </trkpt>
      <trkpt lat="48.51125" lon="7.16219">
        <ele>967</ele>
        <time>2021-02-21T09:48:45.271Z</time>
      </trkpt>
      <trkpt lat="48.51126" lon="7.1622">
        <ele>967</ele>
        <time>2021-02-21T09:48:46.270Z</time>
      </trkpt>
      <trkpt lat="48.51126" lon="7.1622">
        <ele>968</ele>
        <time>2021-02-21T09:48:47.270Z</time>
      </trkpt>
      <trkpt lat="48.51127" lon="7.16221">
        <ele>968</ele>
        <time>2021-02-21T09:48:48.271Z</time>
      </trkpt>
      <trkpt lat="48.51127" lon="7.16221">
        <ele>969</ele>
        <time>2021-02-21T09:48:49.271Z</time>
      </trkpt>
      <trkpt lat="48.51128" lon="7.16222">
        <ele>969</ele>
        <time>2021-02-21T09:48:50.270Z</time>
      </trkpt>
      <trkpt lat="48.51129" lon="7.16223">
        <ele>969</ele>
        <time>2021-02-21T09:48:51.270Z</time>
      </trkpt>
      <trkpt lat="48.5113" lon="7.16224">
        <ele>969</ele>
        <time>2021-02-21T09:48:52.271Z</time>
      </trkpt>
      <trkpt lat="48.51131" lon="7.16224">
        <ele>969</ele>
        <time>2021-02-21T09:48:53.271Z</time>
      </trkpt>
      <trkpt lat="48.51131" lon="7.16225">
        <ele>969</ele>
        <time>2021-02-21T09:48:54.270Z</time>
      </trkpt>
      <trkpt lat="48.51132" lon="7.16226">
        <ele>969</ele>
        <time>2021-02-21T09:48:55.271Z</time>
      </trkpt>
      <trkpt lat="48.51132" lon="7.16227">
        <ele>968</ele>
        <time>2021-02-21T09:48:56.271Z</time>
      </trkpt>
      <trkpt lat="48.51133" lon="7.16227">
        <ele>968</ele>
        <time>2021-02-21T09:48:57.271Z</time>
      </trkpt>
      <trkpt lat="48.51133" lon="7.16228">
        <ele>968</ele>
        <time>2021-02-21T09:48:58.271Z</time>
      </trkpt>
      <trkpt lat="48.51133" lon="7.16227">
        <ele>968</ele>
        <time>2021-02-21T09:48:59.271Z</time>
      </trkpt>
      <trkpt lat="48.51133" lon="7.16227">
        <ele>969</ele>
        <time>2021-02-21T09:49:00.272Z</time>
      </trkpt>
      <trkpt lat="48.51132" lon="7.16228">
        <ele>969</ele>
        <time>2021-02-21T09:49:01.271Z</time>
      </trkpt>
      <trkpt lat="48.51131" lon="7.16229">
        <ele>968</ele>
        <time>2021-02-21T09:49:02.272Z</time>
      </trkpt>
      <trkpt lat="48.51131" lon="7.1623">
        <ele>968</ele>
        <time>2021-02-21T09:49:03.272Z</time>
      </trkpt>
      <trkpt lat="48.5113" lon="7.16231">
        <ele>967</ele>
        <time>2021-02-21T09:49:04.272Z</time>
      </trkpt>
      <trkpt lat="48.5113" lon="7.16232">
        <ele>967</ele>
        <time>2021-02-21T09:49:05.271Z</time>
      </trkpt>
      <trkpt lat="48.51131" lon="7.16233">
        <ele>966</ele>
        <time>2021-02-21T09:49:06.271Z</time>
      </trkpt>
      <trkpt lat="48.51131" lon="7.16234">
        <ele>966</ele>
        <time>2021-02-21T09:49:07.272Z</time>
      </trkpt>
      <trkpt lat="48.51131" lon="7.16235">
        <ele>966</ele>
        <time>2021-02-21T09:49:08.271Z</time>
      </trkpt>
      <trkpt lat="48.51131" lon="7.16237">
        <ele>965</ele>
        <time>2021-02-21T09:49:09.271Z</time>
      </trkpt>
      <trkpt lat="48.51131" lon="7.16238">
        <ele>965</ele>
        <time>2021-02-21T09:49:10.272Z</time>
      </trkpt>
      <trkpt lat="48.5113" lon="7.16239">
        <ele>965</ele>
        <time>2021-02-21T09:49:11.271Z</time>
      </trkpt>
      <trkpt lat="48.5113" lon="7.1624">
        <ele>965</ele>
        <time>2021-02-21T09:49:12.271Z</time>
      </trkpt>
      <trkpt lat="48.5113" lon="7.16241">
        <ele>965</ele>
        <time>2021-02-21T09:49:13.272Z</time>
      </trkpt>
      <trkpt lat="48.5113" lon="7.16242">
        <ele>965</ele>
        <time>2021-02-21T09:49:14.272Z</time>
      </trkpt>
      <trkpt lat="48.5113" lon="7.16242">
        <ele>965</ele>
        <time>2021-02-21T09:49:15.272Z</time>
      </trkpt>
      <trkpt lat="48.5113" lon="7.16243">
        <ele>965</ele>
        <time>2021-02-21T09:49:16.271Z</time>
      </trkpt>
      <trkpt lat="48.51129" lon="7.16244">
        <ele>964</ele>
        <time>2021-02-21T09:49:17.272Z</time>
      </trkpt>
      <trkpt lat="48.51129" lon="7.16246">
        <ele>964</ele>
        <time>2021-02-21T09:49:18.271Z</time>
      </trkpt>
      <trkpt lat="48.51129" lon="7.16247">
        <ele>965</ele>
        <time>2021-02-21T09:49:19.271Z</time>
      </trkpt>
      <trkpt lat="48.51128" lon="7.16248">
        <ele>965</ele>
        <time>2021-02-21T09:49:20.271Z</time>
      </trkpt>
      <trkpt lat="48.51128" lon="7.16249">
        <ele>965</ele>
        <time>2021-02-21T09:49:21.272Z</time>
      </trkpt>
      <trkpt lat="48.51127" lon="7.1625">
        <ele>965</ele>
        <time>2021-02-21T09:49:22.271Z</time>
      </trkpt>
      <trkpt lat="48.51127" lon="7.16251">
        <ele>966</ele>
        <time>2021-02-21T09:49:23.271Z</time>
      </trkpt>
      <trkpt lat="48.51127" lon="7.16252">
        <ele>966</ele>
        <time>2021-02-21T09:49:24.271Z</time>
      </trkpt>
      <trkpt lat="48.51126" lon="7.16253">
        <ele>966</ele>
        <time>2021-02-21T09:49:25.271Z</time>
      </trkpt>
      <trkpt lat="48.51126" lon="7.16254">
        <ele>967</ele>
        <time>2021-02-21T09:49:26.271Z</time>
      </trkpt>
      <trkpt lat="48.51126" lon="7.16255">
        <ele>967</ele>
        <time>2021-02-21T09:49:27.272Z</time>
      </trkpt>
      <trkpt lat="48.51127" lon="7.16256">
        <ele>966</ele>
        <time>2021-02-21T09:49:28.272Z</time>
      </trkpt>
      <trkpt lat="48.51127" lon="7.16257">
        <ele>966</ele>
        <time>2021-02-21T09:49:29.272Z</time>
      </trkpt>
      <trkpt lat="48.51128" lon="7.16258">
        <ele>966</ele>
        <time>2021-02-21T09:49:30.272Z</time>
      </trkpt>
      <trkpt lat="48.51128" lon="7.16259">
        <ele>966</ele>
        <time>2021-02-21T09:49:31.272Z</time>
      </trkpt>
      <trkpt lat="48.51129" lon="7.16261">
        <ele>966</ele>
        <time>2021-02-21T09:49:32.272Z</time>
      </trkpt>
      <trkpt lat="48.51129" lon="7.16262">
        <ele>967</ele>
        <time>2021-02-21T09:49:33.271Z</time>
      </trkpt>
      <trkpt lat="48.51129" lon="7.16263">
        <ele>968</ele>
        <time>2021-02-21T09:49:34.271Z</time>
      </trkpt>
      <trkpt lat="48.51129" lon="7.16264">
        <ele>968</ele>
        <time>2021-02-21T09:49:35.272Z</time>
      </trkpt>
      <trkpt lat="48.5113" lon="7.16264">
        <ele>968</ele>
        <time>2021-02-21T09:49:36.272Z</time>
      </trkpt>
      <trkpt lat="48.5113" lon="7.16265">
        <ele>968</ele>
        <time>2021-02-21T09:49:37.272Z</time>
      </trkpt>
      <trkpt lat="48.51131" lon="7.16267">
        <ele>968</ele>
        <time>2021-02-21T09:49:38.272Z</time>
      </trkpt>
      <trkpt lat="48.51131" lon="7.16269">
        <ele>968</ele>
        <time>2021-02-21T09:49:39.271Z</time>
      </trkpt>
      <trkpt lat="48.51132" lon="7.16271">
        <ele>968</ele>
        <time>2021-02-21T09:49:40.271Z</time>
      </trkpt>
      <trkpt lat="48.51132" lon="7.16272">
        <ele>968</ele>
        <time>2021-02-21T09:49:41.271Z</time>
      </trkpt>
      <trkpt lat="48.51133" lon="7.16273">
        <ele>968</ele>
        <time>2021-02-21T09:49:42.272Z</time>
      </trkpt>
      <trkpt lat="48.51133" lon="7.16274">
        <ele>968</ele>
        <time>2021-02-21T09:49:43.271Z</time>
      </trkpt>
      <trkpt lat="48.51134" lon="7.16276">
        <ele>968</ele>
        <time>2021-02-21T09:49:44.271Z</time>
      </trkpt>
      <trkpt lat="48.51134" lon="7.16277">
        <ele>968</ele>
        <time>2021-02-21T09:49:45.271Z</time>
      </trkpt>
      <trkpt lat="48.51134" lon="7.16278">
        <ele>968</ele>
        <time>2021-02-21T09:49:46.272Z</time>
      </trkpt>
      <trkpt lat="48.51135" lon="7.16279">
        <ele>968</ele>
        <time>2021-02-21T09:49:47.271Z</time>
      </trkpt>
      <trkpt lat="48.51135" lon="7.16281">
        <ele>968</ele>
        <time>2021-02-21T09:49:48.271Z</time>
      </trkpt>
      <trkpt lat="48.51136" lon="7.16282">
        <ele>969</ele>
        <time>2021-02-21T09:49:49.271Z</time>
      </trkpt>
      <trkpt lat="48.51136" lon="7.16283">
        <ele>969</ele>
        <time>2021-02-21T09:49:50.271Z</time>
      </trkpt>
      <trkpt lat="48.51137" lon="7.16284">
        <ele>970</ele>
        <time>2021-02-21T09:49:51.272Z</time>
      </trkpt>
      <trkpt lat="48.51137" lon="7.16284">
        <ele>970</ele>
        <time>2021-02-21T09:49:52.271Z</time>
      </trkpt>
      <trkpt lat="48.51138" lon="7.16285">
        <ele>970</ele>
        <time>2021-02-21T09:49:53.271Z</time>
      </trkpt>
      <trkpt lat="48.51138" lon="7.16286">
        <ele>970</ele>
        <time>2021-02-21T09:49:54.272Z</time>
      </trkpt>
      <trkpt lat="48.51139" lon="7.16286">
        <ele>971</ele>
        <time>2021-02-21T09:49:55.271Z</time>
      </trkpt>
      <trkpt lat="48.5114" lon="7.16287">
        <ele>971</ele>
        <time>2021-02-21T09:49:56.272Z</time>
      </trkpt>
      <trkpt lat="48.5114" lon="7.16287">
        <ele>971</ele>
        <time>2021-02-21T09:49:57.272Z</time>
      </trkpt>
      <trkpt lat="48.51141" lon="7.16288">
        <ele>972</ele>
        <time>2021-02-21T09:49:58.272Z</time>
      </trkpt>
      <trkpt lat="48.51142" lon="7.16288">
        <ele>972</ele>
        <time>2021-02-21T09:49:59.272Z</time>
      </trkpt>
      <trkpt lat="48.51142" lon="7.16289">
        <ele>972</ele>
        <time>2021-02-21T09:50:00.271Z</time>
      </trkpt>
      <trkpt lat="48.51143" lon="7.1629">
        <ele>973</ele>
        <time>2021-02-21T09:50:01.271Z</time>
      </trkpt>
      <trkpt lat="48.51144" lon="7.16291">
        <ele>973</ele>
        <time>2021-02-21T09:50:02.271Z</time>
      </trkpt>
      <trkpt lat="48.51145" lon="7.16292">
        <ele>973</ele>
        <time>2021-02-21T09:50:03.272Z</time>
      </trkpt>
      <trkpt lat="48.51146" lon="7.16292">
        <ele>973</ele>
        <time>2021-02-21T09:50:04.272Z</time>
      </trkpt>
      <trkpt lat="48.51147" lon="7.16293">
        <ele>974</ele>
        <time>2021-02-21T09:50:05.271Z</time>
      </trkpt>
      <trkpt lat="48.51148" lon="7.16294">
        <ele>975</ele>
        <time>2021-02-21T09:50:06.271Z</time>
      </trkpt>
      <trkpt lat="48.51149" lon="7.16295">
        <ele>975</ele>
        <time>2021-02-21T09:50:07.271Z</time>
      </trkpt>
      <trkpt lat="48.5115" lon="7.16296">
        <ele>975</ele>
        <time>2021-02-21T09:50:08.272Z</time>
      </trkpt>
      <trkpt lat="48.5115" lon="7.16297">
        <ele>975</ele>
        <time>2021-02-21T09:50:09.271Z</time>
      </trkpt>
      <trkpt lat="48.5115" lon="7.16298">
        <ele>975</ele>
        <time>2021-02-21T09:50:10.271Z</time>
      </trkpt>
      <trkpt lat="48.51151" lon="7.16299">
        <ele>975</ele>
        <time>2021-02-21T09:50:11.272Z</time>
      </trkpt>
      <trkpt lat="48.51152" lon="7.16299">
        <ele>975</ele>
        <time>2021-02-21T09:50:12.272Z</time>
      </trkpt>
      <trkpt lat="48.51153" lon="7.163">
        <ele>974</ele>
        <time>2021-02-21T09:50:13.271Z</time>
      </trkpt>
      <trkpt lat="48.51153" lon="7.16301">
        <ele>974</ele>
        <time>2021-02-21T09:50:14.272Z</time>
      </trkpt>
      <trkpt lat="48.51154" lon="7.16302">
        <ele>974</ele>
        <time>2021-02-21T09:50:15.271Z</time>
      </trkpt>
      <trkpt lat="48.51155" lon="7.16303">
        <ele>974</ele>
        <time>2021-02-21T09:50:16.271Z</time>
      </trkpt>
      <trkpt lat="48.51155" lon="7.16303">
        <ele>973</ele>
        <time>2021-02-21T09:50:17.272Z</time>
      </trkpt>
      <trkpt lat="48.51156" lon="7.16304">
        <ele>973</ele>
        <time>2021-02-21T09:50:18.271Z</time>
      </trkpt>
      <trkpt lat="48.51157" lon="7.16304">
        <ele>973</ele>
        <time>2021-02-21T09:50:19.271Z</time>
      </trkpt>
      <trkpt lat="48.51157" lon="7.16305">
        <ele>973</ele>
        <time>2021-02-21T09:50:20.271Z</time>
      </trkpt>
      <trkpt lat="48.51158" lon="7.16306">
        <ele>973</ele>
        <time>2021-02-21T09:50:21.272Z</time>
      </trkpt>
      <trkpt lat="48.51159" lon="7.16306">
        <ele>973</ele>
        <time>2021-02-21T09:50:22.272Z</time>
      </trkpt>
      <trkpt lat="48.51159" lon="7.16307">
        <ele>972</ele>
        <time>2021-02-21T09:50:23.271Z</time>
      </trkpt>
      <trkpt lat="48.5116" lon="7.16307">
        <ele>973</ele>
        <time>2021-02-21T09:50:24.272Z</time>
      </trkpt>
      <trkpt lat="48.51161" lon="7.16308">
        <ele>973</ele>
        <time>2021-02-21T09:50:25.272Z</time>
      </trkpt>
      <trkpt lat="48.51162" lon="7.16308">
        <ele>973</ele>
        <time>2021-02-21T09:50:26.272Z</time>
      </trkpt>
      <trkpt lat="48.51162" lon="7.16309">
        <ele>974</ele>
        <time>2021-02-21T09:50:27.271Z</time>
      </trkpt>
      <trkpt lat="48.51163" lon="7.16309">
        <ele>974</ele>
        <time>2021-02-21T09:50:28.272Z</time>
      </trkpt>
      <trkpt lat="48.51164" lon="7.1631">
        <ele>974</ele>
        <time>2021-02-21T09:50:29.272Z</time>
      </trkpt>
      <trkpt lat="48.51165" lon="7.1631">
        <ele>974</ele>
        <time>2021-02-21T09:50:30.272Z</time>
      </trkpt>
      <trkpt lat="48.51165" lon="7.16311">
        <ele>974</ele>
        <time>2021-02-21T09:50:31.272Z</time>
      </trkpt>
      <trkpt lat="48.51166" lon="7.16312">
        <ele>974</ele>
        <time>2021-02-21T09:50:32.271Z</time>
      </trkpt>
      <trkpt lat="48.51167" lon="7.16312">
        <ele>974</ele>
        <time>2021-02-21T09:50:33.271Z</time>
      </trkpt>
      <trkpt lat="48.51168" lon="7.16313">
        <ele>974</ele>
        <time>2021-02-21T09:50:34.271Z</time>
      </trkpt>
      <trkpt lat="48.51168" lon="7.16314">
        <ele>974</ele>
        <time>2021-02-21T09:50:35.272Z</time>
      </trkpt>
      <trkpt lat="48.51168" lon="7.16315">
        <ele>974</ele>
        <time>2021-02-21T09:50:36.271Z</time>
      </trkpt>
      <trkpt lat="48.51169" lon="7.16315">
        <ele>974</ele>
        <time>2021-02-21T09:50:37.272Z</time>
      </trkpt>
      <trkpt lat="48.51169" lon="7.16316">
        <ele>974</ele>
        <time>2021-02-21T09:50:38.271Z</time>
      </trkpt>
      <trkpt lat="48.5117" lon="7.16317">
        <ele>974</ele>
        <time>2021-02-21T09:50:39.271Z</time>
      </trkpt>
      <trkpt lat="48.5117" lon="7.16318">
        <ele>974</ele>
        <time>2021-02-21T09:50:40.272Z</time>
      </trkpt>
      <trkpt lat="48.51171" lon="7.16319">
        <ele>974</ele>
        <time>2021-02-21T09:50:41.272Z</time>
      </trkpt>
      <trkpt lat="48.51172" lon="7.16319">
        <ele>974</ele>
        <time>2021-02-21T09:50:42.272Z</time>
      </trkpt>
      <trkpt lat="48.51173" lon="7.16319">
        <ele>974</ele>
        <time>2021-02-21T09:50:43.271Z</time>
      </trkpt>
      <trkpt lat="48.51174" lon="7.1632">
        <ele>974</ele>
        <time>2021-02-21T09:50:44.272Z</time>
      </trkpt>
      <trkpt lat="48.51174" lon="7.16321">
        <ele>974</ele>
        <time>2021-02-21T09:50:45.272Z</time>
      </trkpt>
      <trkpt lat="48.51175" lon="7.16321">
        <ele>974</ele>
        <time>2021-02-21T09:50:46.272Z</time>
      </trkpt>
      <trkpt lat="48.51176" lon="7.16322">
        <ele>974</ele>
        <time>2021-02-21T09:50:47.271Z</time>
      </trkpt>
      <trkpt lat="48.51176" lon="7.16323">
        <ele>974</ele>
        <time>2021-02-21T09:50:48.271Z</time>
      </trkpt>
      <trkpt lat="48.51177" lon="7.16324">
        <ele>975</ele>
        <time>2021-02-21T09:50:49.271Z</time>
      </trkpt>
      <trkpt lat="48.51178" lon="7.16325">
        <ele>974</ele>
        <time>2021-02-21T09:50:50.272Z</time>
      </trkpt>
      <trkpt lat="48.51178" lon="7.16325">
        <ele>974</ele>
        <time>2021-02-21T09:50:51.271Z</time>
      </trkpt>
      <trkpt lat="48.51179" lon="7.16326">
        <ele>974</ele>
        <time>2021-02-21T09:50:52.272Z</time>
      </trkpt>
      <trkpt lat="48.5118" lon="7.16327">
        <ele>973</ele>
        <time>2021-02-21T09:50:53.271Z</time>
      </trkpt>
      <trkpt lat="48.51181" lon="7.16328">
        <ele>973</ele>
        <time>2021-02-21T09:50:54.272Z</time>
      </trkpt>
      <trkpt lat="48.51181" lon="7.16328">
        <ele>974</ele>
        <time>2021-02-21T09:50:55.272Z</time>
      </trkpt>
      <trkpt lat="48.51182" lon="7.16329">
        <ele>974</ele>
        <time>2021-02-21T09:50:56.271Z</time>
      </trkpt>
      <trkpt lat="48.51183" lon="7.1633">
        <ele>974</ele>
        <time>2021-02-21T09:50:57.271Z</time>
      </trkpt>
      <trkpt lat="48.51183" lon="7.16331">
        <ele>975</ele>
        <time>2021-02-21T09:50:58.272Z</time>
      </trkpt>
      <trkpt lat="48.51184" lon="7.16331">
        <ele>975</ele>
        <time>2021-02-21T09:50:59.272Z</time>
      </trkpt>
      <trkpt lat="48.51185" lon="7.16332">
        <ele>975</ele>
        <time>2021-02-21T09:51:00.271Z</time>
      </trkpt>
      <trkpt lat="48.51186" lon="7.16332">
        <ele>976</ele>
        <time>2021-02-21T09:51:01.271Z</time>
      </trkpt>
      <trkpt lat="48.51186" lon="7.16333">
        <ele>976</ele>
        <time>2021-02-21T09:51:02.271Z</time>
      </trkpt>
      <trkpt lat="48.51187" lon="7.16334">
        <ele>976</ele>
        <time>2021-02-21T09:51:03.271Z</time>
      </trkpt>
      <trkpt lat="48.51188" lon="7.16335">
        <ele>976</ele>
        <time>2021-02-21T09:51:04.271Z</time>
      </trkpt>
      <trkpt lat="48.51188" lon="7.16335">
        <ele>976</ele>
        <time>2021-02-21T09:51:05.271Z</time>
      </trkpt>
      <trkpt lat="48.51189" lon="7.16336">
        <ele>975</ele>
        <time>2021-02-21T09:51:06.272Z</time>
      </trkpt>
      <trkpt lat="48.5119" lon="7.16336">
        <ele>975</ele>
        <time>2021-02-21T09:51:07.272Z</time>
      </trkpt>
      <trkpt lat="48.5119" lon="7.16337">
        <ele>974</ele>
        <time>2021-02-21T09:51:08.271Z</time>
      </trkpt>
      <trkpt lat="48.51191" lon="7.16337">
        <ele>974</ele>
        <time>2021-02-21T09:51:09.271Z</time>
      </trkpt>
      <trkpt lat="48.51192" lon="7.16338">
        <ele>973</ele>
        <time>2021-02-21T09:51:10.271Z</time>
      </trkpt>
      <trkpt lat="48.51192" lon="7.16339">
        <ele>974</ele>
        <time>2021-02-21T09:51:11.271Z</time>
      </trkpt>
      <trkpt lat="48.51193" lon="7.16339">
        <ele>974</ele>
        <time>2021-02-21T09:51:12.271Z</time>
      </trkpt>
      <trkpt lat="48.51193" lon="7.1634">
        <ele>974</ele>
        <time>2021-02-21T09:51:13.271Z</time>
      </trkpt>
      <trkpt lat="48.51194" lon="7.16341">
        <ele>975</ele>
        <time>2021-02-21T09:51:14.271Z</time>
      </trkpt>
      <trkpt lat="48.51194" lon="7.16342">
        <ele>975</ele>
        <time>2021-02-21T09:51:15.272Z</time>
      </trkpt>
      <trkpt lat="48.51195" lon="7.16343">
        <ele>975</ele>
        <time>2021-02-21T09:51:16.271Z</time>
      </trkpt>
      <trkpt lat="48.51195" lon="7.16344">
        <ele>976</ele>
        <time>2021-02-21T09:51:17.271Z</time>
      </trkpt>
      <trkpt lat="48.51195" lon="7.16344">
        <ele>976</ele>
        <time>2021-02-21T09:51:18.271Z</time>
      </trkpt>
      <trkpt lat="48.51194" lon="7.16345">
        <ele>977</ele>
        <time>2021-02-21T09:51:19.272Z</time>
      </trkpt>
      <trkpt lat="48.51194" lon="7.16346">
        <ele>978</ele>
        <time>2021-02-21T09:51:20.272Z</time>
      </trkpt>
      <trkpt lat="48.51194" lon="7.16348">
        <ele>978</ele>
        <time>2021-02-21T09:51:21.271Z</time>
      </trkpt>
      <trkpt lat="48.51195" lon="7.16348">
        <ele>979</ele>
        <time>2021-02-21T09:51:22.271Z</time>
      </trkpt>
      <trkpt lat="48.51195" lon="7.16349">
        <ele>979</ele>
        <time>2021-02-21T09:51:23.272Z</time>
      </trkpt>
      <trkpt lat="48.51195" lon="7.1635">
        <ele>979</ele>
        <time>2021-02-21T09:51:24.271Z</time>
      </trkpt>
      <trkpt lat="48.51196" lon="7.1635">
        <ele>980</ele>
        <time>2021-02-21T09:51:25.271Z</time>
      </trkpt>
      <trkpt lat="48.51196" lon="7.16351">
        <ele>980</ele>
        <time>2021-02-21T09:51:26.272Z</time>
      </trkpt>
      <trkpt lat="48.51197" lon="7.16351">
        <ele>981</ele>
        <time>2021-02-21T09:51:27.271Z</time>
      </trkpt>
      <trkpt lat="48.51198" lon="7.16352">
        <ele>982</ele>
        <time>2021-02-21T09:51:28.271Z</time>
      </trkpt>
      <trkpt lat="48.51198" lon="7.16352">
        <ele>982</ele>
        <time>2021-02-21T09:51:29.271Z</time>
      </trkpt>
      <trkpt lat="48.51199" lon="7.16352">
        <ele>982</ele>
        <time>2021-02-21T09:51:30.272Z</time>
      </trkpt>
      <trkpt lat="48.51199" lon="7.16352">
        <ele>983</ele>
        <time>2021-02-21T09:51:31.272Z</time>
      </trkpt>
      <trkpt lat="48.512" lon="7.16352">
        <ele>983</ele>
        <time>2021-02-21T09:51:32.272Z</time>
      </trkpt>
      <trkpt lat="48.512" lon="7.16352">
        <ele>983</ele>
        <time>2021-02-21T09:51:33.271Z</time>
      </trkpt>
      <trkpt lat="48.51201" lon="7.16353">
        <ele>984</ele>
        <time>2021-02-21T09:51:34.272Z</time>
      </trkpt>
      <trkpt lat="48.51201" lon="7.16353">
        <ele>985</ele>
        <time>2021-02-21T09:51:35.271Z</time>
      </trkpt>
      <trkpt lat="48.51202" lon="7.16353">
        <ele>985</ele>
        <time>2021-02-21T09:51:36.271Z</time>
      </trkpt>
      <trkpt lat="48.51203" lon="7.16354">
        <ele>986</ele>
        <time>2021-02-21T09:51:37.272Z</time>
      </trkpt>
      <trkpt lat="48.51204" lon="7.16355">
        <ele>986</ele>
        <time>2021-02-21T09:51:38.271Z</time>
      </trkpt>
      <trkpt lat="48.51204" lon="7.16356">
        <ele>986</ele>
        <time>2021-02-21T09:51:39.271Z</time>
      </trkpt>
      <trkpt lat="48.51205" lon="7.16356">
        <ele>986</ele>
        <time>2021-02-21T09:51:40.271Z</time>
      </trkpt>
      <trkpt lat="48.51205" lon="7.16357">
        <ele>986</ele>
        <time>2021-02-21T09:51:41.272Z</time>
      </trkpt>
      <trkpt lat="48.51205" lon="7.16358">
        <ele>986</ele>
        <time>2021-02-21T09:51:42.272Z</time>
      </trkpt>
      <trkpt lat="48.51206" lon="7.16358">
        <ele>986</ele>
        <time>2021-02-21T09:51:43.271Z</time>
      </trkpt>
      <trkpt lat="48.51206" lon="7.16359">
        <ele>986</ele>
        <time>2021-02-21T09:51:44.271Z</time>
      </trkpt>
      <trkpt lat="48.51207" lon="7.1636">
        <ele>986</ele>
        <time>2021-02-21T09:51:45.271Z</time>
      </trkpt>
      <trkpt lat="48.51207" lon="7.16361">
        <ele>986</ele>
        <time>2021-02-21T09:51:46.271Z</time>
      </trkpt>
      <trkpt lat="48.51207" lon="7.16361">
        <ele>986</ele>
        <time>2021-02-21T09:51:47.272Z</time>
      </trkpt>
      <trkpt lat="48.51208" lon="7.16362">
        <ele>986</ele>
        <time>2021-02-21T09:51:48.272Z</time>
      </trkpt>
      <trkpt lat="48.51208" lon="7.16362">
        <ele>986</ele>
        <time>2021-02-21T09:51:49.271Z</time>
      </trkpt>
      <trkpt lat="48.51208" lon="7.16363">
        <ele>986</ele>
        <time>2021-02-21T09:51:50.272Z</time>
      </trkpt>
      <trkpt lat="48.51209" lon="7.16364">
        <ele>986</ele>
        <time>2021-02-21T09:51:51.272Z</time>
      </trkpt>
      <trkpt lat="48.5121" lon="7.16364">
        <ele>986</ele>
        <time>2021-02-21T09:51:52.272Z</time>
      </trkpt>
      <trkpt lat="48.5121" lon="7.16365">
        <ele>986</ele>
        <time>2021-02-21T09:51:53.271Z</time>
      </trkpt>
      <trkpt lat="48.51211" lon="7.16367">
        <ele>986</ele>
        <time>2021-02-21T09:51:54.271Z</time>
      </trkpt>
      <trkpt lat="48.51212" lon="7.16368">
        <ele>986</ele>
        <time>2021-02-21T09:51:55.271Z</time>
      </trkpt>
      <trkpt lat="48.51212" lon="7.16369">
        <ele>986</ele>
        <time>2021-02-21T09:51:56.272Z</time>
      </trkpt>
      <trkpt lat="48.51212" lon="7.1637">
        <ele>986</ele>
        <time>2021-02-21T09:51:57.271Z</time>
      </trkpt>
      <trkpt lat="48.51213" lon="7.16371">
        <ele>985</ele>
        <time>2021-02-21T09:51:58.271Z</time>
      </trkpt>
      <trkpt lat="48.51213" lon="7.16372">
        <ele>985</ele>
        <time>2021-02-21T09:51:59.272Z</time>
      </trkpt>
      <trkpt lat="48.51213" lon="7.16372">
        <ele>986</ele>
        <time>2021-02-21T09:52:00.272Z</time>
      </trkpt>
      <trkpt lat="48.51213" lon="7.16373">
        <ele>986</ele>
        <time>2021-02-21T09:52:01.272Z</time>
      </trkpt>
      <trkpt lat="48.51214" lon="7.16374">
        <ele>986</ele>
        <time>2021-02-21T09:52:02.272Z</time>
      </trkpt>
      <trkpt lat="48.51215" lon="7.16375">
        <ele>986</ele>
        <time>2021-02-21T09:52:03.272Z</time>
      </trkpt>
      <trkpt lat="48.51216" lon="7.16376">
        <ele>987</ele>
        <time>2021-02-21T09:52:04.272Z</time>
      </trkpt>
      <trkpt lat="48.51216" lon="7.16377">
        <ele>987</ele>
        <time>2021-02-21T09:52:05.272Z</time>
      </trkpt>
      <trkpt lat="48.51217" lon="7.16379">
        <ele>986</ele>
        <time>2021-02-21T09:52:06.271Z</time>
      </trkpt>
      <trkpt lat="48.51217" lon="7.1638">
        <ele>987</ele>
        <time>2021-02-21T09:52:07.271Z</time>
      </trkpt>
      <trkpt lat="48.51217" lon="7.1638">
        <ele>987</ele>
        <time>2021-02-21T09:52:08.271Z</time>
      </trkpt>
      <trkpt lat="48.51218" lon="7.16381">
        <ele>988</ele>
        <time>2021-02-21T09:52:09.272Z</time>
      </trkpt>
      <trkpt lat="48.51219" lon="7.16381">
        <ele>988</ele>
        <time>2021-02-21T09:52:10.272Z</time>
      </trkpt>
      <trkpt lat="48.51219" lon="7.16381">
        <ele>989</ele>
        <time>2021-02-21T09:52:11.272Z</time>
      </trkpt>
      <trkpt lat="48.5122" lon="7.16382">
        <ele>989</ele>
        <time>2021-02-21T09:52:12.272Z</time>
      </trkpt>
      <trkpt lat="48.51221" lon="7.16382">
        <ele>990</ele>
        <time>2021-02-21T09:52:13.271Z</time>
      </trkpt>
      <trkpt lat="48.51222" lon="7.16383">
        <ele>991</ele>
        <time>2021-02-21T09:52:14.272Z</time>
      </trkpt>
      <trkpt lat="48.51223" lon="7.16384">
        <ele>991</ele>
        <time>2021-02-21T09:52:15.271Z</time>
      </trkpt>
      <trkpt lat="48.51224" lon="7.16384">
        <ele>992</ele>
        <time>2021-02-21T09:52:16.271Z</time>
      </trkpt>
      <trkpt lat="48.51225" lon="7.16385">
        <ele>992</ele>
        <time>2021-02-21T09:52:17.271Z</time>
      </trkpt>
      <trkpt lat="48.51226" lon="7.16385">
        <ele>992</ele>
        <time>2021-02-21T09:52:18.272Z</time>
      </trkpt>
      <trkpt lat="48.51226" lon="7.16386">
        <ele>992</ele>
        <time>2021-02-21T09:52:19.271Z</time>
      </trkpt>
      <trkpt lat="48.51227" lon="7.16386">
        <ele>992</ele>
        <time>2021-02-21T09:52:20.271Z</time>
      </trkpt>
      <trkpt lat="48.51228" lon="7.16386">
        <ele>991</ele>
        <time>2021-02-21T09:52:21.272Z</time>
      </trkpt>
      <trkpt lat="48.51228" lon="7.16387">
        <ele>991</ele>
        <time>2021-02-21T09:52:22.272Z</time>
      </trkpt>
      <trkpt lat="48.5123" lon="7.16387">
        <ele>991</ele>
        <time>2021-02-21T09:52:23.272Z</time>
      </trkpt>
      <trkpt lat="48.51231" lon="7.16388">
        <ele>990</ele>
        <time>2021-02-21T09:52:24.271Z</time>
      </trkpt>
      <trkpt lat="48.51232" lon="7.16389">
        <ele>990</ele>
        <time>2021-02-21T09:52:25.271Z</time>
      </trkpt>
      <trkpt lat="48.51233" lon="7.16389">
        <ele>990</ele>
        <time>2021-02-21T09:52:26.271Z</time>
      </trkpt>
      <trkpt lat="48.51233" lon="7.16389">
        <ele>991</ele>
        <time>2021-02-21T09:52:27.272Z</time>
      </trkpt>
      <trkpt lat="48.51234" lon="7.16389">
        <ele>991</ele>
        <time>2021-02-21T09:52:28.272Z</time>
      </trkpt>
      <trkpt lat="48.51235" lon="7.1639">
        <ele>991</ele>
        <time>2021-02-21T09:52:29.271Z</time>
      </trkpt>
      <trkpt lat="48.51236" lon="7.1639">
        <ele>992</ele>
        <time>2021-02-21T09:52:30.272Z</time>
      </trkpt>
      <trkpt lat="48.51237" lon="7.1639">
        <ele>992</ele>
        <time>2021-02-21T09:52:31.272Z</time>
      </trkpt>
      <trkpt lat="48.51238" lon="7.16391">
        <ele>992</ele>
        <time>2021-02-21T09:52:32.271Z</time>
      </trkpt>
      <trkpt lat="48.51238" lon="7.16391">
        <ele>992</ele>
        <time>2021-02-21T09:52:33.271Z</time>
      </trkpt>
      <trkpt lat="48.51239" lon="7.16392">
        <ele>993</ele>
        <time>2021-02-21T09:52:34.271Z</time>
      </trkpt>
      <trkpt lat="48.5124" lon="7.16392">
        <ele>993</ele>
        <time>2021-02-21T09:52:35.272Z</time>
      </trkpt>
      <trkpt lat="48.5124" lon="7.16393">
        <ele>993</ele>
        <time>2021-02-21T09:52:36.271Z</time>
      </trkpt>
      <trkpt lat="48.51242" lon="7.16393">
        <ele>994</ele>
        <time>2021-02-21T09:52:37.272Z</time>
      </trkpt>
      <trkpt lat="48.51242" lon="7.16393">
        <ele>994</ele>
        <time>2021-02-21T09:52:38.272Z</time>
      </trkpt>
      <trkpt lat="48.51244" lon="7.16393">
        <ele>995</ele>
        <time>2021-02-21T09:52:39.272Z</time>
      </trkpt>
      <trkpt lat="48.51244" lon="7.16393">
        <ele>996</ele>
        <time>2021-02-21T09:52:40.272Z</time>
      </trkpt>
      <trkpt lat="48.51245" lon="7.16395">
        <ele>996</ele>
        <time>2021-02-21T09:52:41.271Z</time>
      </trkpt>
      <trkpt lat="48.51246" lon="7.16396">
        <ele>996</ele>
        <time>2021-02-21T09:52:42.271Z</time>
      </trkpt>
      <trkpt lat="48.51246" lon="7.16396">
        <ele>997</ele>
        <time>2021-02-21T09:52:43.271Z</time>
      </trkpt>
      <trkpt lat="48.51247" lon="7.16397">
        <ele>997</ele>
        <time>2021-02-21T09:52:44.272Z</time>
      </trkpt>
      <trkpt lat="48.51247" lon="7.16398">
        <ele>997</ele>
        <time>2021-02-21T09:52:45.272Z</time>
      </trkpt>
      <trkpt lat="48.51248" lon="7.16398">
        <ele>997</ele>
        <time>2021-02-21T09:52:46.271Z</time>
      </trkpt>
      <trkpt lat="48.51248" lon="7.16399">
        <ele>997</ele>
        <time>2021-02-21T09:52:47.272Z</time>
      </trkpt>
      <trkpt lat="48.51249" lon="7.16399">
        <ele>998</ele>
        <time>2021-02-21T09:52:48.271Z</time>
      </trkpt>
      <trkpt lat="48.5125" lon="7.16399">
        <ele>998</ele>
        <time>2021-02-21T09:52:49.272Z</time>
      </trkpt>
      <trkpt lat="48.5125" lon="7.16399">
        <ele>999</ele>
        <time>2021-02-21T09:52:50.271Z</time>
      </trkpt>
      <trkpt lat="48.51251" lon="7.164">
        <ele>999</ele>
        <time>2021-02-21T09:52:51.271Z</time>
      </trkpt>
      <trkpt lat="48.51251" lon="7.16401">
        <ele>1000</ele>
        <time>2021-02-21T09:52:52.272Z</time>
      </trkpt>
      <trkpt lat="48.51252" lon="7.16402">
        <ele>1000</ele>
        <time>2021-02-21T09:52:53.271Z</time>
      </trkpt>
      <trkpt lat="48.51252" lon="7.16403">
        <ele>1000</ele>
        <time>2021-02-21T09:52:54.272Z</time>
      </trkpt>
      <trkpt lat="48.51252" lon="7.16404">
        <ele>1000</ele>
        <time>2021-02-21T09:52:55.271Z</time>
      </trkpt>
      <trkpt lat="48.51253" lon="7.16405">
        <ele>1000</ele>
        <time>2021-02-21T09:52:56.271Z</time>
      </trkpt>
      <trkpt lat="48.51253" lon="7.16405">
        <ele>999</ele>
        <time>2021-02-21T09:52:57.271Z</time>
      </trkpt>
      <trkpt lat="48.51252" lon="7.16406">
        <ele>999</ele>
        <time>2021-02-21T09:52:58.272Z</time>
      </trkpt>
      <trkpt lat="48.51253" lon="7.16406">
        <ele>999</ele>
        <time>2021-02-21T09:52:59.272Z</time>
      </trkpt>
      <trkpt lat="48.51253" lon="7.16407">
        <ele>999</ele>
        <time>2021-02-21T09:53:00.271Z</time>
      </trkpt>
      <trkpt lat="48.51252" lon="7.16408">
        <ele>998</ele>
        <time>2021-02-21T09:53:01.271Z</time>
      </trkpt>
      <trkpt lat="48.51253" lon="7.16409">
        <ele>999</ele>
        <time>2021-02-21T09:53:02.272Z</time>
      </trkpt>
      <trkpt lat="48.51253" lon="7.1641">
        <ele>999</ele>
        <time>2021-02-21T09:53:03.271Z</time>
      </trkpt>
      <trkpt lat="48.51252" lon="7.1641">
        <ele>999</ele>
        <time>2021-02-21T09:53:04.271Z</time>
      </trkpt>
      <trkpt lat="48.51252" lon="7.16411">
        <ele>999</ele>
        <time>2021-02-21T09:53:05.271Z</time>
      </trkpt>
      <trkpt lat="48.51252" lon="7.16412">
        <ele>999</ele>
        <time>2021-02-21T09:53:06.271Z</time>
      </trkpt>
      <trkpt lat="48.51252" lon="7.16412">
        <ele>999</ele>
        <time>2021-02-21T09:53:07.272Z</time>
      </trkpt>
      <trkpt lat="48.51252" lon="7.16413">
        <ele>999</ele>
        <time>2021-02-21T09:53:08.271Z</time>
      </trkpt>
      <trkpt lat="48.51252" lon="7.16413">
        <ele>999</ele>
        <time>2021-02-21T09:53:09.271Z</time>
      </trkpt>
      <trkpt lat="48.51252" lon="7.16413">
        <ele>999</ele>
        <time>2021-02-21T09:53:10.271Z</time>
      </trkpt>
      <trkpt lat="48.5125" lon="7.16411">
        <ele>1000</ele>
        <time>2021-02-21T09:53:11.273Z</time>
      </trkpt>
      <trkpt lat="48.5125" lon="7.16411">
        <ele>1000</ele>
        <time>2021-02-21T09:53:12.273Z</time>
      </trkpt>
      <trkpt lat="48.5125" lon="7.16411">
        <ele>1000</ele>
        <time>2021-02-21T09:53:13.272Z</time>
      </trkpt>
      <trkpt lat="48.5125" lon="7.16411">
        <ele>1001</ele>
        <time>2021-02-21T09:53:14.273Z</time>
      </trkpt>
      <trkpt lat="48.51247" lon="7.16411">
        <ele>1002</ele>
        <time>2021-02-21T09:53:15.272Z</time>
      </trkpt>
      <trkpt lat="48.51246" lon="7.16411">
        <ele>1002</ele>
        <time>2021-02-21T09:53:16.273Z</time>
      </trkpt>
      <trkpt lat="48.51245" lon="7.16411">
        <ele>1002</ele>
        <time>2021-02-21T09:53:17.272Z</time>
      </trkpt>
      <trkpt lat="48.51244" lon="7.16411">
        <ele>1001</ele>
        <time>2021-02-21T09:53:18.273Z</time>
      </trkpt>
      <trkpt lat="48.51243" lon="7.16411">
        <ele>1001</ele>
        <time>2021-02-21T09:53:19.273Z</time>
      </trkpt>
      <trkpt lat="48.51242" lon="7.16411">
        <ele>1001</ele>
        <time>2021-02-21T09:53:20.272Z</time>
      </trkpt>
      <trkpt lat="48.5124" lon="7.16412">
        <ele>1001</ele>
        <time>2021-02-21T09:53:21.273Z</time>
      </trkpt>
      <trkpt lat="48.51239" lon="7.16412">
        <ele>1001</ele>
        <time>2021-02-21T09:53:22.273Z</time>
      </trkpt>
      <trkpt lat="48.51239" lon="7.16412">
        <ele>1001</ele>
        <time>2021-02-21T09:53:23.273Z</time>
      </trkpt>
      <trkpt lat="48.51238" lon="7.16412">
        <ele>1001</ele>
        <time>2021-02-21T09:53:24.273Z</time>
      </trkpt>
      <trkpt lat="48.51237" lon="7.16412">
        <ele>1000</ele>
        <time>2021-02-21T09:53:25.272Z</time>
      </trkpt>
      <trkpt lat="48.51236" lon="7.16411">
        <ele>1000</ele>
        <time>2021-02-21T09:53:26.273Z</time>
      </trkpt>
      <trkpt lat="48.51237" lon="7.16411">
        <ele>1000</ele>
        <time>2021-02-21T09:53:27.275Z</time>
      </trkpt>
      <trkpt lat="48.5124" lon="7.16419">
        <ele>1001</ele>
        <time>2021-02-21T09:53:28.275Z</time>
      </trkpt>
      <trkpt lat="48.51241" lon="7.1642">
        <ele>1001</ele>
        <time>2021-02-21T09:53:29.275Z</time>
      </trkpt>
      <trkpt lat="48.51245" lon="7.16428">
        <ele>1003</ele>
        <time>2021-02-21T09:53:30.276Z</time>
      </trkpt>
      <trkpt lat="48.51246" lon="7.16429">
        <ele>1003</ele>
        <time>2021-02-21T09:53:31.276Z</time>
      </trkpt>
      <trkpt lat="48.51247" lon="7.16429">
        <ele>1004</ele>
        <time>2021-02-21T09:53:32.275Z</time>
      </trkpt>
      <trkpt lat="48.51248" lon="7.1643">
        <ele>1004</ele>
        <time>2021-02-21T09:53:33.276Z</time>
      </trkpt>
      <trkpt lat="48.51248" lon="7.1643">
        <ele>1004</ele>
        <time>2021-02-21T09:53:34.276Z</time>
      </trkpt>
      <trkpt lat="48.51249" lon="7.16431">
        <ele>1004</ele>
        <time>2021-02-21T09:53:35.275Z</time>
      </trkpt>
      <trkpt lat="48.51249" lon="7.16432">
        <ele>1003</ele>
        <time>2021-02-21T09:53:36.276Z</time>
      </trkpt>
      <trkpt lat="48.5125" lon="7.16433">
        <ele>1003</ele>
        <time>2021-02-21T09:53:37.275Z</time>
      </trkpt>
      <trkpt lat="48.5125" lon="7.16432">
        <ele>1003</ele>
        <time>2021-02-21T09:53:38.276Z</time>
      </trkpt>
      <trkpt lat="48.5125" lon="7.16432">
        <ele>1003</ele>
        <time>2021-02-21T09:53:39.275Z</time>
      </trkpt>
      <trkpt lat="48.5125" lon="7.16431">
        <ele>1003</ele>
        <time>2021-02-21T09:53:40.276Z</time>
      </trkpt>
      <trkpt lat="48.5125" lon="7.1643">
        <ele>1003</ele>
        <time>2021-02-21T09:53:41.276Z</time>
      </trkpt>
      <trkpt lat="48.5125" lon="7.16429">
        <ele>1003</ele>
        <time>2021-02-21T09:53:42.276Z</time>
      </trkpt>
      <trkpt lat="48.5125" lon="7.16428">
        <ele>1004</ele>
        <time>2021-02-21T09:53:43.276Z</time>
      </trkpt>
      <trkpt lat="48.51251" lon="7.16428">
        <ele>1004</ele>
        <time>2021-02-21T09:53:44.276Z</time>
      </trkpt>
      <trkpt lat="48.51253" lon="7.16433">
        <ele>1005</ele>
        <time>2021-02-21T09:53:45.276Z</time>
      </trkpt>
      <trkpt lat="48.51253" lon="7.16434">
        <ele>1005</ele>
        <time>2021-02-21T09:53:46.276Z</time>
      </trkpt>
      <trkpt lat="48.51253" lon="7.16434">
        <ele>1005</ele>
        <time>2021-02-21T09:53:47.275Z</time>
      </trkpt>
      <trkpt lat="48.51253" lon="7.16432">
        <ele>1005</ele>
        <time>2021-02-21T09:53:48.276Z</time>
      </trkpt>
      <trkpt lat="48.51253" lon="7.16431">
        <ele>1005</ele>
        <time>2021-02-21T09:53:49.276Z</time>
      </trkpt>
      <trkpt lat="48.51252" lon="7.1643">
        <ele>1005</ele>
        <time>2021-02-21T09:53:50.275Z</time>
      </trkpt>
      <trkpt lat="48.51252" lon="7.16429">
        <ele>1004</ele>
        <time>2021-02-21T09:53:51.276Z</time>
      </trkpt>
      <trkpt lat="48.51252" lon="7.16428">
        <ele>1004</ele>
        <time>2021-02-21T09:53:52.276Z</time>
      </trkpt>
      <trkpt lat="48.51251" lon="7.16427">
        <ele>1004</ele>
        <time>2021-02-21T09:53:53.276Z</time>
      </trkpt>
      <trkpt lat="48.51251" lon="7.16427">
        <ele>1004</ele>
        <time>2021-02-21T09:53:54.275Z</time>
      </trkpt>
      <trkpt lat="48.5125" lon="7.16427">
        <ele>1004</ele>
        <time>2021-02-21T09:53:55.275Z</time>
      </trkpt>
      <trkpt lat="48.5125" lon="7.16427">
        <ele>1004</ele>
        <time>2021-02-21T09:53:56.275Z</time>
      </trkpt>
      <trkpt lat="48.5125" lon="7.16427">
        <ele>1004</ele>
        <time>2021-02-21T09:53:57.275Z</time>
      </trkpt>
      <trkpt lat="48.51247" lon="7.16425">
        <ele>1003</ele>
        <time>2021-02-21T09:53:58.277Z</time>
      </trkpt>
      <trkpt lat="48.51246" lon="7.16423">
        <ele>1003</ele>
        <time>2021-02-21T09:53:59.277Z</time>
      </trkpt>
      <trkpt lat="48.51245" lon="7.16422">
        <ele>1003</ele>
        <time>2021-02-21T09:54:00.277Z</time>
      </trkpt>
      <trkpt lat="48.51244" lon="7.16422">
        <ele>1003</ele>
        <time>2021-02-21T09:54:01.277Z</time>
      </trkpt>
      <trkpt lat="48.51245" lon="7.16423">
        <ele>1009</ele>
        <time>2021-02-21T09:54:02.277Z</time>
      </trkpt>
      <trkpt lat="48.51245" lon="7.16424">
        <ele>1009</ele>
        <time>2021-02-21T09:54:03.277Z</time>
      </trkpt>
      <trkpt lat="48.51247" lon="7.16427">
        <ele>1009</ele>
        <time>2021-02-21T09:54:04.278Z</time>
      </trkpt>
      <trkpt lat="48.51247" lon="7.16428">
        <ele>1009</ele>
        <time>2021-02-21T09:54:05.277Z</time>
      </trkpt>
      <trkpt lat="48.51247" lon="7.16422">
        <ele>1007</ele>
        <time>2021-02-21T09:54:06.277Z</time>
      </trkpt>
      <trkpt lat="48.51247" lon="7.16421">
        <ele>1007</ele>
        <time>2021-02-21T09:54:07.277Z</time>
      </trkpt>
      <trkpt lat="48.51247" lon="7.16422">
        <ele>1005</ele>
        <time>2021-02-21T09:54:08.279Z</time>
      </trkpt>
      <trkpt lat="48.51248" lon="7.16423">
        <ele>1005</ele>
        <time>2021-02-21T09:54:09.279Z</time>
      </trkpt>
      <trkpt lat="48.51248" lon="7.16425">
        <ele>1005</ele>
        <time>2021-02-21T09:54:10.278Z</time>
      </trkpt>
      <trkpt lat="48.51248" lon="7.16426">
        <ele>1005</ele>
        <time>2021-02-21T09:54:11.279Z</time>
      </trkpt>
      <trkpt lat="48.51249" lon="7.16428">
        <ele>1005</ele>
        <time>2021-02-21T09:54:12.279Z</time>
      </trkpt>
      <trkpt lat="48.51249" lon="7.16429">
        <ele>1005</ele>
        <time>2021-02-21T09:54:13.278Z</time>
      </trkpt>
      <trkpt lat="48.5125" lon="7.1643">
        <ele>1005</ele>
        <time>2021-02-21T09:54:14.278Z</time>
      </trkpt>
      <trkpt lat="48.5125" lon="7.16436">
        <ele>1005</ele>
        <time>2021-02-21T09:54:15.279Z</time>
      </trkpt>
      <trkpt lat="48.5125" lon="7.16436">
        <ele>1006</ele>
        <time>2021-02-21T09:54:16.279Z</time>
      </trkpt>
      <trkpt lat="48.51251" lon="7.16436">
        <ele>1006</ele>
        <time>2021-02-21T09:54:17.280Z</time>
      </trkpt>
      <trkpt lat="48.51251" lon="7.16435">
        <ele>1006</ele>
        <time>2021-02-21T09:54:18.280Z</time>
      </trkpt>
      <trkpt lat="48.51252" lon="7.16436">
        <ele>1006</ele>
        <time>2021-02-21T09:54:19.280Z</time>
      </trkpt>
      <trkpt lat="48.51252" lon="7.16436">
        <ele>1006</ele>
        <time>2021-02-21T09:54:20.279Z</time>
      </trkpt>
      <trkpt lat="48.51255" lon="7.16442">
        <ele>1006</ele>
        <time>2021-02-21T09:54:21.281Z</time>
      </trkpt>
      <trkpt lat="48.51255" lon="7.16442">
        <ele>1006</ele>
        <time>2021-02-21T09:54:22.280Z</time>
      </trkpt>
      <trkpt lat="48.51261" lon="7.16467">
        <ele>1008</ele>
        <time>2021-02-21T09:54:23.281Z</time>
      </trkpt>
      <trkpt lat="48.51262" lon="7.16469">
        <ele>1008</ele>
        <time>2021-02-21T09:54:24.281Z</time>
      </trkpt>
      <trkpt lat="48.51262" lon="7.1647">
        <ele>1008</ele>
        <time>2021-02-21T09:54:25.281Z</time>
      </trkpt>
      <trkpt lat="48.51263" lon="7.16472">
        <ele>1007</ele>
        <time>2021-02-21T09:54:26.281Z</time>
      </trkpt>
      <trkpt lat="48.51263" lon="7.16473">
        <ele>1007</ele>
        <time>2021-02-21T09:54:27.280Z</time>
      </trkpt>
      <trkpt lat="48.51263" lon="7.16474">
        <ele>1007</ele>
        <time>2021-02-21T09:54:28.281Z</time>
      </trkpt>
      <trkpt lat="48.51264" lon="7.16475">
        <ele>1008</ele>
        <time>2021-02-21T09:54:29.280Z</time>
      </trkpt>
      <trkpt lat="48.51264" lon="7.16476">
        <ele>1008</ele>
        <time>2021-02-21T09:54:30.280Z</time>
      </trkpt>
      <trkpt lat="48.51263" lon="7.16476">
        <ele>1008</ele>
        <time>2021-02-21T09:54:31.281Z</time>
      </trkpt>
      <trkpt lat="48.51264" lon="7.16475">
        <ele>1008</ele>
        <time>2021-02-21T09:54:32.281Z</time>
      </trkpt>
      <trkpt lat="48.51264" lon="7.16475">
        <ele>1008</ele>
        <time>2021-02-21T09:54:33.281Z</time>
      </trkpt>
      <trkpt lat="48.51264" lon="7.16475">
        <ele>1008</ele>
        <time>2021-02-21T09:54:34.280Z</time>
      </trkpt>
      <trkpt lat="48.51264" lon="7.16474">
        <ele>1008</ele>
        <time>2021-02-21T09:54:35.281Z</time>
      </trkpt>
      <trkpt lat="48.51265" lon="7.16474">
        <ele>1009</ele>
        <time>2021-02-21T09:54:36.281Z</time>
      </trkpt>
      <trkpt lat="48.51265" lon="7.16473">
        <ele>1009</ele>
        <time>2021-02-21T09:54:37.281Z</time>
      </trkpt>
      <trkpt lat="48.51265" lon="7.16474">
        <ele>1009</ele>
        <time>2021-02-21T09:54:38.281Z</time>
      </trkpt>
      <trkpt lat="48.51265" lon="7.16474">
        <ele>1008</ele>
        <time>2021-02-21T09:54:39.281Z</time>
      </trkpt>
      <trkpt lat="48.51267" lon="7.16479">
        <ele>1009</ele>
        <time>2021-02-21T09:54:40.282Z</time>
      </trkpt>
      <trkpt lat="48.51269" lon="7.16481">
        <ele>1010</ele>
        <time>2021-02-21T09:54:41.281Z</time>
      </trkpt>
      <trkpt lat="48.51269" lon="7.16483">
        <ele>1010</ele>
        <time>2021-02-21T09:54:42.282Z</time>
      </trkpt>
      <trkpt lat="48.5127" lon="7.16485">
        <ele>1010</ele>
        <time>2021-02-21T09:54:43.282Z</time>
      </trkpt>
      <trkpt lat="48.5127" lon="7.16487">
        <ele>1011</ele>
        <time>2021-02-21T09:54:44.281Z</time>
      </trkpt>
      <trkpt lat="48.5127" lon="7.16489">
        <ele>1011</ele>
        <time>2021-02-21T09:54:45.282Z</time>
      </trkpt>
      <trkpt lat="48.5127" lon="7.1649">
        <ele>1011</ele>
        <time>2021-02-21T09:54:46.282Z</time>
      </trkpt>
      <trkpt lat="48.51271" lon="7.16491">
        <ele>1010</ele>
        <time>2021-02-21T09:54:47.281Z</time>
      </trkpt>
      <trkpt lat="48.51271" lon="7.16491">
        <ele>1010</ele>
        <time>2021-02-21T09:54:48.282Z</time>
      </trkpt>
      <trkpt lat="48.51271" lon="7.16494">
        <ele>1010</ele>
        <time>2021-02-21T09:54:49.282Z</time>
      </trkpt>
      <trkpt lat="48.51272" lon="7.16496">
        <ele>1009</ele>
        <time>2021-02-21T09:54:50.282Z</time>
      </trkpt>
      <trkpt lat="48.51272" lon="7.16498">
        <ele>1008</ele>
        <time>2021-02-21T09:54:51.281Z</time>
      </trkpt>
      <trkpt lat="48.51272" lon="7.165">
        <ele>1007</ele>
        <time>2021-02-21T09:54:52.282Z</time>
      </trkpt>
      <trkpt lat="48.51272" lon="7.16503">
        <ele>1006</ele>
        <time>2021-02-21T09:54:53.281Z</time>
      </trkpt>
      <trkpt lat="48.51272" lon="7.16504">
        <ele>1005</ele>
        <time>2021-02-21T09:54:54.281Z</time>
      </trkpt>
      <trkpt lat="48.51273" lon="7.16506">
        <ele>1005</ele>
        <time>2021-02-21T09:54:55.282Z</time>
      </trkpt>
      <trkpt lat="48.51274" lon="7.16508">
        <ele>1004</ele>
        <time>2021-02-21T09:54:56.281Z</time>
      </trkpt>
      <trkpt lat="48.51274" lon="7.16509">
        <ele>1004</ele>
        <time>2021-02-21T09:54:57.281Z</time>
      </trkpt>
      <trkpt lat="48.51274" lon="7.1651">
        <ele>1004</ele>
        <time>2021-02-21T09:54:58.282Z</time>
      </trkpt>
      <trkpt lat="48.51274" lon="7.16512">
        <ele>1003</ele>
        <time>2021-02-21T09:54:59.281Z</time>
      </trkpt>
      <trkpt lat="48.51275" lon="7.16513">
        <ele>1003</ele>
        <time>2021-02-21T09:55:00.281Z</time>
      </trkpt>
      <trkpt lat="48.51275" lon="7.16515">
        <ele>1003</ele>
        <time>2021-02-21T09:55:01.281Z</time>
      </trkpt>
      <trkpt lat="48.51276" lon="7.16517">
        <ele>1003</ele>
        <time>2021-02-21T09:55:02.281Z</time>
      </trkpt>
      <trkpt lat="48.51276" lon="7.16518">
        <ele>1003</ele>
        <time>2021-02-21T09:55:03.282Z</time>
      </trkpt>
      <trkpt lat="48.51276" lon="7.1652">
        <ele>1003</ele>
        <time>2021-02-21T09:55:04.281Z</time>
      </trkpt>
      <trkpt lat="48.51276" lon="7.16522">
        <ele>1003</ele>
        <time>2021-02-21T09:55:05.281Z</time>
      </trkpt>
      <trkpt lat="48.51276" lon="7.16523">
        <ele>1002</ele>
        <time>2021-02-21T09:55:06.281Z</time>
      </trkpt>
      <trkpt lat="48.51277" lon="7.16524">
        <ele>1002</ele>
        <time>2021-02-21T09:55:07.281Z</time>
      </trkpt>
      <trkpt lat="48.51277" lon="7.16525">
        <ele>1001</ele>
        <time>2021-02-21T09:55:08.281Z</time>
      </trkpt>
      <trkpt lat="48.51278" lon="7.16526">
        <ele>1002</ele>
        <time>2021-02-21T09:55:09.281Z</time>
      </trkpt>
      <trkpt lat="48.51278" lon="7.16527">
        <ele>1002</ele>
        <time>2021-02-21T09:55:10.281Z</time>
      </trkpt>
      <trkpt lat="48.51279" lon="7.16528">
        <ele>1002</ele>
        <time>2021-02-21T09:55:11.282Z</time>
      </trkpt>
      <trkpt lat="48.51279" lon="7.16529">
        <ele>1002</ele>
        <time>2021-02-21T09:55:12.282Z</time>
      </trkpt>
      <trkpt lat="48.51279" lon="7.1653">
        <ele>1003</ele>
        <time>2021-02-21T09:55:13.281Z</time>
      </trkpt>
      <trkpt lat="48.51279" lon="7.16531">
        <ele>1003</ele>
        <time>2021-02-21T09:55:14.282Z</time>
      </trkpt>
      <trkpt lat="48.51279" lon="7.16532">
        <ele>1003</ele>
        <time>2021-02-21T09:55:15.281Z</time>
      </trkpt>
      <trkpt lat="48.51279" lon="7.16533">
        <ele>1003</ele>
        <time>2021-02-21T09:55:16.282Z</time>
      </trkpt>
      <trkpt lat="48.51278" lon="7.16535">
        <ele>1003</ele>
        <time>2021-02-21T09:55:17.282Z</time>
      </trkpt>
      <trkpt lat="48.51278" lon="7.16535">
        <ele>1003</ele>
        <time>2021-02-21T09:55:18.282Z</time>
      </trkpt>
      <trkpt lat="48.51279" lon="7.16536">
        <ele>1003</ele>
        <time>2021-02-21T09:55:19.281Z</time>
      </trkpt>
      <trkpt lat="48.51279" lon="7.16536">
        <ele>1003</ele>
        <time>2021-02-21T09:55:20.281Z</time>
      </trkpt>
      <trkpt lat="48.51278" lon="7.16536">
        <ele>1004</ele>
        <time>2021-02-21T09:55:21.281Z</time>
      </trkpt>
      <trkpt lat="48.51278" lon="7.16536">
        <ele>1005</ele>
        <time>2021-02-21T09:55:22.282Z</time>
      </trkpt>
      <trkpt lat="48.51277" lon="7.16537">
        <ele>1005</ele>
        <time>2021-02-21T09:55:23.283Z</time>
      </trkpt>
      <trkpt lat="48.51278" lon="7.16537">
        <ele>1005</ele>
        <time>2021-02-21T09:55:24.282Z</time>
      </trkpt>
      <trkpt lat="48.51278" lon="7.16538">
        <ele>1006</ele>
        <time>2021-02-21T09:55:25.282Z</time>
      </trkpt>
      <trkpt lat="48.51278" lon="7.16538">
        <ele>1006</ele>
        <time>2021-02-21T09:55:26.282Z</time>
      </trkpt>
      <trkpt lat="48.51281" lon="7.16542">
        <ele>1009</ele>
        <time>2021-02-21T09:55:27.284Z</time>
      </trkpt>
      <trkpt lat="48.51282" lon="7.16544">
        <ele>1009</ele>
        <time>2021-02-21T09:55:28.283Z</time>
      </trkpt>
      <trkpt lat="48.51283" lon="7.16546">
        <ele>1008</ele>
        <time>2021-02-21T09:55:29.284Z</time>
      </trkpt>
      <trkpt lat="48.51284" lon="7.16547">
        <ele>1009</ele>
        <time>2021-02-21T09:55:30.283Z</time>
      </trkpt>
      <trkpt lat="48.51284" lon="7.16549">
        <ele>1009</ele>
        <time>2021-02-21T09:55:31.284Z</time>
      </trkpt>
      <trkpt lat="48.51285" lon="7.1655">
        <ele>1009</ele>
        <time>2021-02-21T09:55:32.284Z</time>
      </trkpt>
      <trkpt lat="48.51286" lon="7.16552">
        <ele>1009</ele>
        <time>2021-02-21T09:55:33.284Z</time>
      </trkpt>
      <trkpt lat="48.51288" lon="7.16553">
        <ele>1009</ele>
        <time>2021-02-21T09:55:34.284Z</time>
      </trkpt>
      <trkpt lat="48.51288" lon="7.16553">
        <ele>1009</ele>
        <time>2021-02-21T09:55:35.283Z</time>
      </trkpt>
      <trkpt lat="48.51289" lon="7.16554">
        <ele>1009</ele>
        <time>2021-02-21T09:55:36.284Z</time>
      </trkpt>
      <trkpt lat="48.51289" lon="7.16555">
        <ele>1008</ele>
        <time>2021-02-21T09:55:37.284Z</time>
      </trkpt>
      <trkpt lat="48.51289" lon="7.16555">
        <ele>1008</ele>
        <time>2021-02-21T09:55:38.283Z</time>
      </trkpt>
      <trkpt lat="48.51288" lon="7.16556">
        <ele>1008</ele>
        <time>2021-02-21T09:55:39.284Z</time>
      </trkpt>
      <trkpt lat="48.51288" lon="7.16557">
        <ele>1007</ele>
        <time>2021-02-21T09:55:40.283Z</time>
      </trkpt>
      <trkpt lat="48.51287" lon="7.16557">
        <ele>1007</ele>
        <time>2021-02-21T09:55:41.284Z</time>
      </trkpt>
      <trkpt lat="48.51287" lon="7.16559">
        <ele>1006</ele>
        <time>2021-02-21T09:55:42.284Z</time>
      </trkpt>
      <trkpt lat="48.51287" lon="7.16559">
        <ele>1005</ele>
        <time>2021-02-21T09:55:43.283Z</time>
      </trkpt>
      <trkpt lat="48.51287" lon="7.16561">
        <ele>1004</ele>
        <time>2021-02-21T09:55:44.284Z</time>
      </trkpt>
      <trkpt lat="48.51287" lon="7.16562">
        <ele>1003</ele>
        <time>2021-02-21T09:55:45.284Z</time>
      </trkpt>
      <trkpt lat="48.51287" lon="7.16563">
        <ele>1002</ele>
        <time>2021-02-21T09:55:46.284Z</time>
      </trkpt>
      <trkpt lat="48.51287" lon="7.16563">
        <ele>1002</ele>
        <time>2021-02-21T09:55:47.283Z</time>
      </trkpt>
      <trkpt lat="48.51286" lon="7.16564">
        <ele>1001</ele>
        <time>2021-02-21T09:55:48.283Z</time>
      </trkpt>
      <trkpt lat="48.51285" lon="7.16566">
        <ele>1001</ele>
        <time>2021-02-21T09:55:49.284Z</time>
      </trkpt>
      <trkpt lat="48.51285" lon="7.16566">
        <ele>1001</ele>
        <time>2021-02-21T09:55:50.284Z</time>
      </trkpt>
      <trkpt lat="48.51285" lon="7.16572">
        <ele>1001</ele>
        <time>2021-02-21T09:55:51.283Z</time>
      </trkpt>
      <trkpt lat="48.51286" lon="7.16572">
        <ele>1001</ele>
        <time>2021-02-21T09:55:52.284Z</time>
      </trkpt>
      <trkpt lat="48.51286" lon="7.16575">
        <ele>997</ele>
        <time>2021-02-21T09:55:53.284Z</time>
      </trkpt>
      <trkpt lat="48.51286" lon="7.16576">
        <ele>996</ele>
        <time>2021-02-21T09:55:54.283Z</time>
      </trkpt>
      <trkpt lat="48.51286" lon="7.16577">
        <ele>996</ele>
        <time>2021-02-21T09:55:55.283Z</time>
      </trkpt>
      <trkpt lat="48.51286" lon="7.16578">
        <ele>996</ele>
        <time>2021-02-21T09:55:56.284Z</time>
      </trkpt>
      <trkpt lat="48.51286" lon="7.16578">
        <ele>996</ele>
        <time>2021-02-21T09:55:57.284Z</time>
      </trkpt>
      <trkpt lat="48.51292" lon="7.16582">
        <ele>998</ele>
        <time>2021-02-21T09:55:58.284Z</time>
      </trkpt>
      <trkpt lat="48.51293" lon="7.16582">
        <ele>998</ele>
        <time>2021-02-21T09:55:59.285Z</time>
      </trkpt>
      <trkpt lat="48.51294" lon="7.16581">
        <ele>997</ele>
        <time>2021-02-21T09:56:00.285Z</time>
      </trkpt>
      <trkpt lat="48.51295" lon="7.16581">
        <ele>997</ele>
        <time>2021-02-21T09:56:01.285Z</time>
      </trkpt>
      <trkpt lat="48.51296" lon="7.16581">
        <ele>998</ele>
        <time>2021-02-21T09:56:02.284Z</time>
      </trkpt>
      <trkpt lat="48.51297" lon="7.16581">
        <ele>998</ele>
        <time>2021-02-21T09:56:03.284Z</time>
      </trkpt>
      <trkpt lat="48.51298" lon="7.16581">
        <ele>998</ele>
        <time>2021-02-21T09:56:04.285Z</time>
      </trkpt>
      <trkpt lat="48.51299" lon="7.16581">
        <ele>999</ele>
        <time>2021-02-21T09:56:05.285Z</time>
      </trkpt>
      <trkpt lat="48.513" lon="7.16581">
        <ele>999</ele>
        <time>2021-02-21T09:56:06.285Z</time>
      </trkpt>
      <trkpt lat="48.51301" lon="7.1658">
        <ele>999</ele>
        <time>2021-02-21T09:56:07.285Z</time>
      </trkpt>
      <trkpt lat="48.51302" lon="7.16579">
        <ele>999</ele>
        <time>2021-02-21T09:56:08.284Z</time>
      </trkpt>
      <trkpt lat="48.51304" lon="7.16578">
        <ele>999</ele>
        <time>2021-02-21T09:56:09.285Z</time>
      </trkpt>
      <trkpt lat="48.51304" lon="7.16577">
        <ele>999</ele>
        <time>2021-02-21T09:56:10.284Z</time>
      </trkpt>
      <trkpt lat="48.51305" lon="7.16575">
        <ele>999</ele>
        <time>2021-02-21T09:56:11.285Z</time>
      </trkpt>
      <trkpt lat="48.51306" lon="7.16574">
        <ele>999</ele>
        <time>2021-02-21T09:56:12.285Z</time>
      </trkpt>
      <trkpt lat="48.51307" lon="7.16573">
        <ele>1000</ele>
        <time>2021-02-21T09:56:13.285Z</time>
      </trkpt>
      <trkpt lat="48.51308" lon="7.16572">
        <ele>1000</ele>
        <time>2021-02-21T09:56:14.284Z</time>
      </trkpt>
      <trkpt lat="48.51309" lon="7.16572">
        <ele>1000</ele>
        <time>2021-02-21T09:56:15.285Z</time>
      </trkpt>
      <trkpt lat="48.51311" lon="7.16571">
        <ele>1000</ele>
        <time>2021-02-21T09:56:16.285Z</time>
      </trkpt>
      <trkpt lat="48.51312" lon="7.1657">
        <ele>1000</ele>
        <time>2021-02-21T09:56:17.285Z</time>
      </trkpt>
      <trkpt lat="48.51312" lon="7.16569">
        <ele>999</ele>
        <time>2021-02-21T09:56:18.284Z</time>
      </trkpt>
      <trkpt lat="48.51313" lon="7.16569">
        <ele>999</ele>
        <time>2021-02-21T09:56:19.284Z</time>
      </trkpt>
      <trkpt lat="48.51314" lon="7.16569">
        <ele>999</ele>
        <time>2021-02-21T09:56:20.284Z</time>
      </trkpt>
      <trkpt lat="48.51315" lon="7.16569">
        <ele>999</ele>
        <time>2021-02-21T09:56:21.285Z</time>
      </trkpt>
      <trkpt lat="48.51315" lon="7.16569">
        <ele>998</ele>
        <time>2021-02-21T09:56:22.285Z</time>
      </trkpt>
      <trkpt lat="48.51315" lon="7.1657">
        <ele>998</ele>
        <time>2021-02-21T09:56:23.285Z</time>
      </trkpt>
      <trkpt lat="48.51315" lon="7.16572">
        <ele>998</ele>
        <time>2021-02-21T09:56:24.284Z</time>
      </trkpt>
      <trkpt lat="48.51315" lon="7.16573">
        <ele>998</ele>
        <time>2021-02-21T09:56:25.284Z</time>
      </trkpt>
      <trkpt lat="48.51314" lon="7.16575">
        <ele>997</ele>
        <time>2021-02-21T09:56:26.285Z</time>
      </trkpt>
      <trkpt lat="48.51314" lon="7.16576">
        <ele>996</ele>
        <time>2021-02-21T09:56:27.284Z</time>
      </trkpt>
      <trkpt lat="48.51313" lon="7.16577">
        <ele>996</ele>
        <time>2021-02-21T09:56:28.285Z</time>
      </trkpt>
      <trkpt lat="48.51313" lon="7.16578">
        <ele>995</ele>
        <time>2021-02-21T09:56:29.285Z</time>
      </trkpt>
      <trkpt lat="48.51313" lon="7.1658">
        <ele>995</ele>
        <time>2021-02-21T09:56:30.285Z</time>
      </trkpt>
      <trkpt lat="48.51313" lon="7.16581">
        <ele>995</ele>
        <time>2021-02-21T09:56:31.285Z</time>
      </trkpt>
      <trkpt lat="48.51313" lon="7.16583">
        <ele>994</ele>
        <time>2021-02-21T09:56:32.285Z</time>
      </trkpt>
      <trkpt lat="48.51312" lon="7.16585">
        <ele>994</ele>
        <time>2021-02-21T09:56:33.285Z</time>
      </trkpt>
      <trkpt lat="48.51311" lon="7.16586">
        <ele>994</ele>
        <time>2021-02-21T09:56:34.284Z</time>
      </trkpt>
      <trkpt lat="48.51311" lon="7.16587">
        <ele>993</ele>
        <time>2021-02-21T09:56:35.285Z</time>
      </trkpt>
      <trkpt lat="48.51311" lon="7.16589">
        <ele>993</ele>
        <time>2021-02-21T09:56:36.285Z</time>
      </trkpt>
      <trkpt lat="48.5131" lon="7.1659">
        <ele>992</ele>
        <time>2021-02-21T09:56:37.284Z</time>
      </trkpt>
      <trkpt lat="48.5131" lon="7.16591">
        <ele>992</ele>
        <time>2021-02-21T09:56:38.284Z</time>
      </trkpt>
      <trkpt lat="48.51309" lon="7.16592">
        <ele>991</ele>
        <time>2021-02-21T09:56:39.285Z</time>
      </trkpt>
      <trkpt lat="48.51309" lon="7.16592">
        <ele>990</ele>
        <time>2021-02-21T09:56:40.285Z</time>
      </trkpt>
      <trkpt lat="48.51308" lon="7.16593">
        <ele>990</ele>
        <time>2021-02-21T09:56:41.285Z</time>
      </trkpt>
      <trkpt lat="48.51307" lon="7.16594">
        <ele>989</ele>
        <time>2021-02-21T09:56:42.284Z</time>
      </trkpt>
      <trkpt lat="48.51307" lon="7.16595">
        <ele>989</ele>
        <time>2021-02-21T09:56:43.285Z</time>
      </trkpt>
      <trkpt lat="48.51306" lon="7.16596">
        <ele>989</ele>
        <time>2021-02-21T09:56:44.285Z</time>
      </trkpt>
      <trkpt lat="48.51306" lon="7.16597">
        <ele>989</ele>
        <time>2021-02-21T09:56:45.285Z</time>
      </trkpt>
      <trkpt lat="48.51305" lon="7.16598">
        <ele>989</ele>
        <time>2021-02-21T09:56:46.284Z</time>
      </trkpt>
      <trkpt lat="48.51305" lon="7.16598">
        <ele>990</ele>
        <time>2021-02-21T09:56:47.285Z</time>
      </trkpt>
      <trkpt lat="48.51305" lon="7.16599">
        <ele>990</ele>
        <time>2021-02-21T09:56:48.285Z</time>
      </trkpt>
      <trkpt lat="48.51304" lon="7.166">
        <ele>990</ele>
        <time>2021-02-21T09:56:49.285Z</time>
      </trkpt>
      <trkpt lat="48.51304" lon="7.16601">
        <ele>990</ele>
        <time>2021-02-21T09:56:50.285Z</time>
      </trkpt>
      <trkpt lat="48.51303" lon="7.16602">
        <ele>989</ele>
        <time>2021-02-21T09:56:51.284Z</time>
      </trkpt>
      <trkpt lat="48.51302" lon="7.16604">
        <ele>989</ele>
        <time>2021-02-21T09:56:52.285Z</time>
      </trkpt>
      <trkpt lat="48.51301" lon="7.16605">
        <ele>989</ele>
        <time>2021-02-21T09:56:53.285Z</time>
      </trkpt>
      <trkpt lat="48.51301" lon="7.16606">
        <ele>988</ele>
        <time>2021-02-21T09:56:54.285Z</time>
      </trkpt>
      <trkpt lat="48.51299" lon="7.16607">
        <ele>988</ele>
        <time>2021-02-21T09:56:55.285Z</time>
      </trkpt>
      <trkpt lat="48.51298" lon="7.16607">
        <ele>987</ele>
        <time>2021-02-21T09:56:56.285Z</time>
      </trkpt>
      <trkpt lat="48.51298" lon="7.16607">
        <ele>986</ele>
        <time>2021-02-21T09:56:57.285Z</time>
      </trkpt>
      <trkpt lat="48.51297" lon="7.16607">
        <ele>986</ele>
        <time>2021-02-21T09:56:58.284Z</time>
      </trkpt>
      <trkpt lat="48.51297" lon="7.16607">
        <ele>986</ele>
        <time>2021-02-21T09:56:59.285Z</time>
      </trkpt>
      <trkpt lat="48.51296" lon="7.16607">
        <ele>985</ele>
        <time>2021-02-21T09:57:00.284Z</time>
      </trkpt>
      <trkpt lat="48.51296" lon="7.16608">
        <ele>985</ele>
        <time>2021-02-21T09:57:01.285Z</time>
      </trkpt>
      <trkpt lat="48.51295" lon="7.1661">
        <ele>985</ele>
        <time>2021-02-21T09:57:02.285Z</time>
      </trkpt>
      <trkpt lat="48.51294" lon="7.1661">
        <ele>985</ele>
        <time>2021-02-21T09:57:03.284Z</time>
      </trkpt>
      <trkpt lat="48.51293" lon="7.16612">
        <ele>985</ele>
        <time>2021-02-21T09:57:04.285Z</time>
      </trkpt>
      <trkpt lat="48.51292" lon="7.16613">
        <ele>985</ele>
        <time>2021-02-21T09:57:05.284Z</time>
      </trkpt>
      <trkpt lat="48.51291" lon="7.16614">
        <ele>985</ele>
        <time>2021-02-21T09:57:06.285Z</time>
      </trkpt>
      <trkpt lat="48.51291" lon="7.16614">
        <ele>986</ele>
        <time>2021-02-21T09:57:07.285Z</time>
      </trkpt>
      <trkpt lat="48.51292" lon="7.16614">
        <ele>986</ele>
        <time>2021-02-21T09:57:08.285Z</time>
      </trkpt>
      <trkpt lat="48.51292" lon="7.16614">
        <ele>986</ele>
        <time>2021-02-21T09:57:09.285Z</time>
      </trkpt>
      <trkpt lat="48.51293" lon="7.16614">
        <ele>986</ele>
        <time>2021-02-21T09:57:10.285Z</time>
      </trkpt>
      <trkpt lat="48.51294" lon="7.16614">
        <ele>986</ele>
        <time>2021-02-21T09:57:11.284Z</time>
      </trkpt>
      <trkpt lat="48.51295" lon="7.16614">
        <ele>986</ele>
        <time>2021-02-21T09:57:12.285Z</time>
      </trkpt>
      <trkpt lat="48.51295" lon="7.16614">
        <ele>986</ele>
        <time>2021-02-21T09:57:13.285Z</time>
      </trkpt>
      <trkpt lat="48.51296" lon="7.16614">
        <ele>987</ele>
        <time>2021-02-21T09:57:14.285Z</time>
      </trkpt>
      <trkpt lat="48.51297" lon="7.16614">
        <ele>987</ele>
        <time>2021-02-21T09:57:15.285Z</time>
      </trkpt>
      <trkpt lat="48.51297" lon="7.16614">
        <ele>987</ele>
        <time>2021-02-21T09:57:16.284Z</time>
      </trkpt>
      <trkpt lat="48.51298" lon="7.16614">
        <ele>987</ele>
        <time>2021-02-21T09:57:17.285Z</time>
      </trkpt>
      <trkpt lat="48.51299" lon="7.16615">
        <ele>987</ele>
        <time>2021-02-21T09:57:18.284Z</time>
      </trkpt>
      <trkpt lat="48.51299" lon="7.16615">
        <ele>987</ele>
        <time>2021-02-21T09:57:19.285Z</time>
      </trkpt>
      <trkpt lat="48.51298" lon="7.16615">
        <ele>986</ele>
        <time>2021-02-21T09:57:20.284Z</time>
      </trkpt>
      <trkpt lat="48.51298" lon="7.16615">
        <ele>985</ele>
        <time>2021-02-21T09:57:21.285Z</time>
      </trkpt>
      <trkpt lat="48.51298" lon="7.16615">
        <ele>985</ele>
        <time>2021-02-21T09:57:22.284Z</time>
      </trkpt>
      <trkpt lat="48.51299" lon="7.16614">
        <ele>985</ele>
        <time>2021-02-21T09:57:23.286Z</time>
      </trkpt>
      <trkpt lat="48.51299" lon="7.16613">
        <ele>985</ele>
        <time>2021-02-21T09:57:24.286Z</time>
      </trkpt>
      <trkpt lat="48.513" lon="7.16612">
        <ele>985</ele>
        <time>2021-02-21T09:57:25.285Z</time>
      </trkpt>
      <trkpt lat="48.513" lon="7.16612">
        <ele>984</ele>
        <time>2021-02-21T09:57:26.286Z</time>
      </trkpt>
      <trkpt lat="48.51301" lon="7.16612">
        <ele>984</ele>
        <time>2021-02-21T09:57:27.285Z</time>
      </trkpt>
      <trkpt lat="48.51301" lon="7.16611">
        <ele>984</ele>
        <time>2021-02-21T09:57:28.285Z</time>
      </trkpt>
      <trkpt lat="48.51302" lon="7.16611">
        <ele>983</ele>
        <time>2021-02-21T09:57:29.286Z</time>
      </trkpt>
      <trkpt lat="48.51303" lon="7.16611">
        <ele>983</ele>
        <time>2021-02-21T09:57:30.286Z</time>
      </trkpt>
      <trkpt lat="48.51303" lon="7.1661">
        <ele>982</ele>
        <time>2021-02-21T09:57:31.285Z</time>
      </trkpt>
      <trkpt lat="48.51304" lon="7.1661">
        <ele>982</ele>
        <time>2021-02-21T09:57:32.286Z</time>
      </trkpt>
      <trkpt lat="48.51304" lon="7.16609">
        <ele>983</ele>
        <time>2021-02-21T09:57:33.286Z</time>
      </trkpt>
      <trkpt lat="48.51305" lon="7.16609">
        <ele>983</ele>
        <time>2021-02-21T09:57:34.286Z</time>
      </trkpt>
      <trkpt lat="48.51306" lon="7.16609">
        <ele>983</ele>
        <time>2021-02-21T09:57:35.285Z</time>
      </trkpt>
      <trkpt lat="48.51307" lon="7.16608">
        <ele>983</ele>
        <time>2021-02-21T09:57:36.286Z</time>
      </trkpt>
      <trkpt lat="48.51307" lon="7.16608">
        <ele>983</ele>
        <time>2021-02-21T09:57:37.286Z</time>
      </trkpt>
      <trkpt lat="48.51307" lon="7.16607">
        <ele>984</ele>
        <time>2021-02-21T09:57:38.286Z</time>
      </trkpt>
      <trkpt lat="48.51308" lon="7.16607">
        <ele>984</ele>
        <time>2021-02-21T09:57:39.285Z</time>
      </trkpt>
      <trkpt lat="48.51309" lon="7.16606">
        <ele>985</ele>
        <time>2021-02-21T09:57:40.285Z</time>
      </trkpt>
      <trkpt lat="48.5131" lon="7.16606">
        <ele>985</ele>
        <time>2021-02-21T09:57:41.286Z</time>
      </trkpt>
      <trkpt lat="48.5131" lon="7.16606">
        <ele>986</ele>
        <time>2021-02-21T09:57:42.286Z</time>
      </trkpt>
      <trkpt lat="48.51311" lon="7.16606">
        <ele>986</ele>
        <time>2021-02-21T09:57:43.285Z</time>
      </trkpt>
      <trkpt lat="48.51312" lon="7.16606">
        <ele>987</ele>
        <time>2021-02-21T09:57:44.285Z</time>
      </trkpt>
      <trkpt lat="48.51313" lon="7.16605">
        <ele>987</ele>
        <time>2021-02-21T09:57:45.285Z</time>
      </trkpt>
      <trkpt lat="48.51313" lon="7.16605">
        <ele>987</ele>
        <time>2021-02-21T09:57:46.285Z</time>
      </trkpt>
      <trkpt lat="48.51313" lon="7.16605">
        <ele>987</ele>
        <time>2021-02-21T09:57:47.286Z</time>
      </trkpt>
      <trkpt lat="48.51314" lon="7.16605">
        <ele>987</ele>
        <time>2021-02-21T09:57:48.286Z</time>
      </trkpt>
      <trkpt lat="48.51315" lon="7.16604">
        <ele>987</ele>
        <time>2021-02-21T09:57:49.285Z</time>
      </trkpt>
      <trkpt lat="48.51315" lon="7.16604">
        <ele>986</ele>
        <time>2021-02-21T09:57:50.286Z</time>
      </trkpt>
      <trkpt lat="48.51316" lon="7.16603">
        <ele>986</ele>
        <time>2021-02-21T09:57:51.286Z</time>
      </trkpt>
      <trkpt lat="48.51317" lon="7.16603">
        <ele>986</ele>
        <time>2021-02-21T09:57:52.285Z</time>
      </trkpt>
      <trkpt lat="48.51317" lon="7.16602">
        <ele>986</ele>
        <time>2021-02-21T09:57:53.286Z</time>
      </trkpt>
      <trkpt lat="48.51318" lon="7.16602">
        <ele>986</ele>
        <time>2021-02-21T09:57:54.286Z</time>
      </trkpt>
      <trkpt lat="48.51319" lon="7.16602">
        <ele>986</ele>
        <time>2021-02-21T09:57:55.286Z</time>
      </trkpt>
      <trkpt lat="48.5132" lon="7.16601">
        <ele>986</ele>
        <time>2021-02-21T09:57:56.286Z</time>
      </trkpt>
      <trkpt lat="48.51322" lon="7.16601">
        <ele>987</ele>
        <time>2021-02-21T09:57:57.285Z</time>
      </trkpt>
      <trkpt lat="48.51322" lon="7.16599">
        <ele>987</ele>
        <time>2021-02-21T09:57:58.286Z</time>
      </trkpt>
      <trkpt lat="48.51323" lon="7.16598">
        <ele>987</ele>
        <time>2021-02-21T09:57:59.286Z</time>
      </trkpt>
      <trkpt lat="48.51324" lon="7.16597">
        <ele>987</ele>
        <time>2021-02-21T09:58:00.285Z</time>
      </trkpt>
      <trkpt lat="48.51324" lon="7.16597">
        <ele>987</ele>
        <time>2021-02-21T09:58:01.286Z</time>
      </trkpt>
      <trkpt lat="48.51325" lon="7.16596">
        <ele>987</ele>
        <time>2021-02-21T09:58:02.285Z</time>
      </trkpt>
      <trkpt lat="48.51326" lon="7.16596">
        <ele>986</ele>
        <time>2021-02-21T09:58:03.286Z</time>
      </trkpt>
      <trkpt lat="48.51327" lon="7.16595">
        <ele>986</ele>
        <time>2021-02-21T09:58:04.285Z</time>
      </trkpt>
      <trkpt lat="48.51327" lon="7.16595">
        <ele>986</ele>
        <time>2021-02-21T09:58:05.285Z</time>
      </trkpt>
      <trkpt lat="48.51328" lon="7.16594">
        <ele>986</ele>
        <time>2021-02-21T09:58:06.286Z</time>
      </trkpt>
      <trkpt lat="48.51329" lon="7.16593">
        <ele>985</ele>
        <time>2021-02-21T09:58:07.286Z</time>
      </trkpt>
      <trkpt lat="48.5133" lon="7.16592">
        <ele>984</ele>
        <time>2021-02-21T09:58:08.285Z</time>
      </trkpt>
      <trkpt lat="48.5133" lon="7.16592">
        <ele>983</ele>
        <time>2021-02-21T09:58:09.286Z</time>
      </trkpt>
      <trkpt lat="48.51331" lon="7.16591">
        <ele>982</ele>
        <time>2021-02-21T09:58:10.286Z</time>
      </trkpt>
      <trkpt lat="48.51332" lon="7.16591">
        <ele>982</ele>
        <time>2021-02-21T09:58:11.286Z</time>
      </trkpt>
      <trkpt lat="48.51332" lon="7.1659">
        <ele>981</ele>
        <time>2021-02-21T09:58:12.286Z</time>
      </trkpt>
      <trkpt lat="48.51333" lon="7.1659">
        <ele>981</ele>
        <time>2021-02-21T09:58:13.286Z</time>
      </trkpt>
      <trkpt lat="48.51334" lon="7.1659">
        <ele>981</ele>
        <time>2021-02-21T09:58:14.286Z</time>
      </trkpt>
      <trkpt lat="48.51335" lon="7.1659">
        <ele>981</ele>
        <time>2021-02-21T09:58:15.285Z</time>
      </trkpt>
      <trkpt lat="48.51336" lon="7.1659">
        <ele>981</ele>
        <time>2021-02-21T09:58:16.285Z</time>
      </trkpt>
      <trkpt lat="48.51336" lon="7.16589">
        <ele>981</ele>
        <time>2021-02-21T09:58:17.286Z</time>
      </trkpt>
      <trkpt lat="48.51337" lon="7.16588">
        <ele>980</ele>
        <time>2021-02-21T09:58:18.286Z</time>
      </trkpt>
      <trkpt lat="48.51338" lon="7.16589">
        <ele>980</ele>
        <time>2021-02-21T09:58:19.286Z</time>
      </trkpt>
      <trkpt lat="48.51338" lon="7.16588">
        <ele>980</ele>
        <time>2021-02-21T09:58:20.285Z</time>
      </trkpt>
      <trkpt lat="48.5134" lon="7.16588">
        <ele>980</ele>
        <time>2021-02-21T09:58:21.285Z</time>
      </trkpt>
      <trkpt lat="48.51341" lon="7.16588">
        <ele>980</ele>
        <time>2021-02-21T09:58:22.285Z</time>
      </trkpt>
      <trkpt lat="48.51342" lon="7.16588">
        <ele>979</ele>
        <time>2021-02-21T09:58:23.286Z</time>
      </trkpt>
      <trkpt lat="48.51343" lon="7.16588">
        <ele>979</ele>
        <time>2021-02-21T09:58:24.286Z</time>
      </trkpt>
      <trkpt lat="48.51343" lon="7.16588">
        <ele>979</ele>
        <time>2021-02-21T09:58:25.286Z</time>
      </trkpt>
      <trkpt lat="48.51344" lon="7.16587">
        <ele>978</ele>
        <time>2021-02-21T09:58:26.285Z</time>
      </trkpt>
      <trkpt lat="48.51345" lon="7.16587">
        <ele>978</ele>
        <time>2021-02-21T09:58:27.286Z</time>
      </trkpt>
      <trkpt lat="48.51345" lon="7.16586">
        <ele>978</ele>
        <time>2021-02-21T09:58:28.286Z</time>
      </trkpt>
      <trkpt lat="48.51346" lon="7.16586">
        <ele>977</ele>
        <time>2021-02-21T09:58:29.285Z</time>
      </trkpt>
      <trkpt lat="48.51347" lon="7.16586">
        <ele>977</ele>
        <time>2021-02-21T09:58:30.286Z</time>
      </trkpt>
      <trkpt lat="48.51348" lon="7.16585">
        <ele>976</ele>
        <time>2021-02-21T09:58:31.285Z</time>
      </trkpt>
      <trkpt lat="48.51349" lon="7.16584">
        <ele>976</ele>
        <time>2021-02-21T09:58:32.286Z</time>
      </trkpt>
      <trkpt lat="48.5135" lon="7.16583">
        <ele>976</ele>
        <time>2021-02-21T09:58:33.285Z</time>
      </trkpt>
      <trkpt lat="48.51351" lon="7.16583">
        <ele>976</ele>
        <time>2021-02-21T09:58:34.285Z</time>
      </trkpt>
      <trkpt lat="48.51351" lon="7.16582">
        <ele>976</ele>
        <time>2021-02-21T09:58:35.286Z</time>
      </trkpt>
      <trkpt lat="48.51351" lon="7.16581">
        <ele>975</ele>
        <time>2021-02-21T09:58:36.285Z</time>
      </trkpt>
      <trkpt lat="48.51351" lon="7.1658">
        <ele>975</ele>
        <time>2021-02-21T09:58:37.285Z</time>
      </trkpt>
      <trkpt lat="48.51351" lon="7.16579">
        <ele>976</ele>
        <time>2021-02-21T09:58:38.285Z</time>
      </trkpt>
      <trkpt lat="48.51351" lon="7.16579">
        <ele>975</ele>
        <time>2021-02-21T09:58:39.285Z</time>
      </trkpt>
      <trkpt lat="48.51352" lon="7.16578">
        <ele>975</ele>
        <time>2021-02-21T09:58:40.286Z</time>
      </trkpt>
      <trkpt lat="48.51353" lon="7.16578">
        <ele>975</ele>
        <time>2021-02-21T09:58:41.285Z</time>
      </trkpt>
      <trkpt lat="48.51353" lon="7.16576">
        <ele>975</ele>
        <time>2021-02-21T09:58:42.286Z</time>
      </trkpt>
      <trkpt lat="48.51353" lon="7.16575">
        <ele>975</ele>
        <time>2021-02-21T09:58:43.286Z</time>
      </trkpt>
      <trkpt lat="48.51354" lon="7.16574">
        <ele>975</ele>
        <time>2021-02-21T09:58:44.286Z</time>
      </trkpt>
      <trkpt lat="48.51354" lon="7.16572">
        <ele>975</ele>
        <time>2021-02-21T09:58:45.286Z</time>
      </trkpt>
      <trkpt lat="48.51354" lon="7.16571">
        <ele>975</ele>
        <time>2021-02-21T09:58:46.286Z</time>
      </trkpt>
      <trkpt lat="48.51354" lon="7.1657">
        <ele>974</ele>
        <time>2021-02-21T09:58:47.285Z</time>
      </trkpt>
      <trkpt lat="48.51354" lon="7.16569">
        <ele>974</ele>
        <time>2021-02-21T09:58:48.286Z</time>
      </trkpt>
      <trkpt lat="48.51354" lon="7.16567">
        <ele>974</ele>
        <time>2021-02-21T09:58:49.285Z</time>
      </trkpt>
      <trkpt lat="48.51354" lon="7.16566">
        <ele>973</ele>
        <time>2021-02-21T09:58:50.285Z</time>
      </trkpt>
      <trkpt lat="48.51355" lon="7.16565">
        <ele>973</ele>
        <time>2021-02-21T09:58:51.285Z</time>
      </trkpt>
      <trkpt lat="48.51355" lon="7.16564">
        <ele>972</ele>
        <time>2021-02-21T09:58:52.286Z</time>
      </trkpt>
      <trkpt lat="48.51355" lon="7.16562">
        <ele>972</ele>
        <time>2021-02-21T09:58:53.285Z</time>
      </trkpt>
      <trkpt lat="48.51356" lon="7.16561">
        <ele>971</ele>
        <time>2021-02-21T09:58:54.285Z</time>
      </trkpt>
      <trkpt lat="48.51356" lon="7.16559">
        <ele>970</ele>
        <time>2021-02-21T09:58:55.285Z</time>
      </trkpt>
      <trkpt lat="48.51356" lon="7.16557">
        <ele>970</ele>
        <time>2021-02-21T09:58:56.286Z</time>
      </trkpt>
      <trkpt lat="48.51356" lon="7.16556">
        <ele>969</ele>
        <time>2021-02-21T09:58:57.286Z</time>
      </trkpt>
      <trkpt lat="48.51356" lon="7.16554">
        <ele>969</ele>
        <time>2021-02-21T09:58:58.285Z</time>
      </trkpt>
      <trkpt lat="48.51356" lon="7.16554">
        <ele>969</ele>
        <time>2021-02-21T09:58:59.285Z</time>
      </trkpt>
      <trkpt lat="48.51357" lon="7.16553">
        <ele>970</ele>
        <time>2021-02-21T09:59:00.286Z</time>
      </trkpt>
      <trkpt lat="48.51357" lon="7.16552">
        <ele>970</ele>
        <time>2021-02-21T09:59:01.286Z</time>
      </trkpt>
      <trkpt lat="48.51357" lon="7.16551">
        <ele>969</ele>
        <time>2021-02-21T09:59:02.285Z</time>
      </trkpt>
      <trkpt lat="48.51357" lon="7.16549">
        <ele>970</ele>
        <time>2021-02-21T09:59:03.285Z</time>
      </trkpt>
      <trkpt lat="48.51357" lon="7.16548">
        <ele>970</ele>
        <time>2021-02-21T09:59:04.285Z</time>
      </trkpt>
      <trkpt lat="48.51358" lon="7.16546">
        <ele>971</ele>
        <time>2021-02-21T09:59:05.286Z</time>
      </trkpt>
      <trkpt lat="48.51359" lon="7.16545">
        <ele>971</ele>
        <time>2021-02-21T09:59:06.286Z</time>
      </trkpt>
      <trkpt lat="48.51359" lon="7.16544">
        <ele>971</ele>
        <time>2021-02-21T09:59:07.285Z</time>
      </trkpt>
      <trkpt lat="48.5136" lon="7.16543">
        <ele>971</ele>
        <time>2021-02-21T09:59:08.286Z</time>
      </trkpt>
      <trkpt lat="48.5136" lon="7.16542">
        <ele>970</ele>
        <time>2021-02-21T09:59:09.285Z</time>
      </trkpt>
      <trkpt lat="48.5136" lon="7.1654">
        <ele>970</ele>
        <time>2021-02-21T09:59:10.285Z</time>
      </trkpt>
      <trkpt lat="48.5136" lon="7.16539">
        <ele>970</ele>
        <time>2021-02-21T09:59:11.285Z</time>
      </trkpt>
      <trkpt lat="48.5136" lon="7.16538">
        <ele>969</ele>
        <time>2021-02-21T09:59:12.285Z</time>
      </trkpt>
      <trkpt lat="48.5136" lon="7.16536">
        <ele>969</ele>
        <time>2021-02-21T09:59:13.285Z</time>
      </trkpt>
      <trkpt lat="48.51359" lon="7.16535">
        <ele>969</ele>
        <time>2021-02-21T09:59:14.285Z</time>
      </trkpt>
      <trkpt lat="48.51359" lon="7.16534">
        <ele>968</ele>
        <time>2021-02-21T09:59:15.285Z</time>
      </trkpt>
      <trkpt lat="48.51359" lon="7.16532">
        <ele>968</ele>
        <time>2021-02-21T09:59:16.285Z</time>
      </trkpt>
      <trkpt lat="48.51359" lon="7.16531">
        <ele>969</ele>
        <time>2021-02-21T09:59:17.286Z</time>
      </trkpt>
      <trkpt lat="48.51359" lon="7.1653">
        <ele>969</ele>
        <time>2021-02-21T09:59:18.285Z</time>
      </trkpt>
      <trkpt lat="48.51359" lon="7.16529">
        <ele>969</ele>
        <time>2021-02-21T09:59:19.285Z</time>
      </trkpt>
      <trkpt lat="48.5136" lon="7.16528">
        <ele>969</ele>
        <time>2021-02-21T09:59:20.285Z</time>
      </trkpt>
      <trkpt lat="48.5136" lon="7.16527">
        <ele>969</ele>
        <time>2021-02-21T09:59:21.285Z</time>
      </trkpt>
      <trkpt lat="48.51361" lon="7.16526">
        <ele>968</ele>
        <time>2021-02-21T09:59:22.285Z</time>
      </trkpt>
      <trkpt lat="48.51361" lon="7.16524">
        <ele>968</ele>
        <time>2021-02-21T09:59:23.286Z</time>
      </trkpt>
      <trkpt lat="48.51361" lon="7.16522">
        <ele>967</ele>
        <time>2021-02-21T09:59:24.286Z</time>
      </trkpt>
      <trkpt lat="48.51361" lon="7.16521">
        <ele>967</ele>
        <time>2021-02-21T09:59:25.286Z</time>
      </trkpt>
      <trkpt lat="48.51362" lon="7.16519">
        <ele>966</ele>
        <time>2021-02-21T09:59:26.286Z</time>
      </trkpt>
      <trkpt lat="48.51361" lon="7.16518">
        <ele>966</ele>
        <time>2021-02-21T09:59:27.286Z</time>
      </trkpt>
      <trkpt lat="48.51361" lon="7.16517">
        <ele>965</ele>
        <time>2021-02-21T09:59:28.286Z</time>
      </trkpt>
      <trkpt lat="48.5136" lon="7.16515">
        <ele>965</ele>
        <time>2021-02-21T09:59:29.286Z</time>
      </trkpt>
      <trkpt lat="48.5136" lon="7.16514">
        <ele>965</ele>
        <time>2021-02-21T09:59:30.286Z</time>
      </trkpt>
      <trkpt lat="48.5136" lon="7.16512">
        <ele>965</ele>
        <time>2021-02-21T09:59:31.285Z</time>
      </trkpt>
      <trkpt lat="48.5136" lon="7.1651">
        <ele>965</ele>
        <time>2021-02-21T09:59:32.286Z</time>
      </trkpt>
      <trkpt lat="48.5136" lon="7.16509">
        <ele>965</ele>
        <time>2021-02-21T09:59:33.286Z</time>
      </trkpt>
      <trkpt lat="48.5136" lon="7.16507">
        <ele>965</ele>
        <time>2021-02-21T09:59:34.285Z</time>
      </trkpt>
      <trkpt lat="48.51359" lon="7.16506">
        <ele>966</ele>
        <time>2021-02-21T09:59:35.286Z</time>
      </trkpt>
      <trkpt lat="48.51358" lon="7.16504">
        <ele>966</ele>
        <time>2021-02-21T09:59:36.285Z</time>
      </trkpt>
      <trkpt lat="48.51358" lon="7.16503">
        <ele>965</ele>
        <time>2021-02-21T09:59:37.286Z</time>
      </trkpt>
      <trkpt lat="48.51358" lon="7.16502">
        <ele>965</ele>
        <time>2021-02-21T09:59:38.286Z</time>
      </trkpt>
      <trkpt lat="48.51358" lon="7.16501">
        <ele>965</ele>
        <time>2021-02-21T09:59:39.286Z</time>
      </trkpt>
      <trkpt lat="48.51358" lon="7.165">
        <ele>965</ele>
        <time>2021-02-21T09:59:40.285Z</time>
      </trkpt>
      <trkpt lat="48.51358" lon="7.16499">
        <ele>966</ele>
        <time>2021-02-21T09:59:41.286Z</time>
      </trkpt>
      <trkpt lat="48.51358" lon="7.16498">
        <ele>966</ele>
        <time>2021-02-21T09:59:42.286Z</time>
      </trkpt>
      <trkpt lat="48.51358" lon="7.16497">
        <ele>966</ele>
        <time>2021-02-21T09:59:43.286Z</time>
      </trkpt>
      <trkpt lat="48.51358" lon="7.16496">
        <ele>965</ele>
        <time>2021-02-21T09:59:44.286Z</time>
      </trkpt>
      <trkpt lat="48.51358" lon="7.16495">
        <ele>965</ele>
        <time>2021-02-21T09:59:45.286Z</time>
      </trkpt>
      <trkpt lat="48.51358" lon="7.16494">
        <ele>964</ele>
        <time>2021-02-21T09:59:46.286Z</time>
      </trkpt>
      <trkpt lat="48.51358" lon="7.16493">
        <ele>964</ele>
        <time>2021-02-21T09:59:47.286Z</time>
      </trkpt>
      <trkpt lat="48.51358" lon="7.16492">
        <ele>964</ele>
        <time>2021-02-21T09:59:48.286Z</time>
      </trkpt>
      <trkpt lat="48.51359" lon="7.16492">
        <ele>964</ele>
        <time>2021-02-21T09:59:49.286Z</time>
      </trkpt>
      <trkpt lat="48.51359" lon="7.16491">
        <ele>964</ele>
        <time>2021-02-21T09:59:50.286Z</time>
      </trkpt>
      <trkpt lat="48.5136" lon="7.1649">
        <ele>965</ele>
        <time>2021-02-21T09:59:51.285Z</time>
      </trkpt>
      <trkpt lat="48.51359" lon="7.16489">
        <ele>965</ele>
        <time>2021-02-21T09:59:52.286Z</time>
      </trkpt>
      <trkpt lat="48.51359" lon="7.16487">
        <ele>965</ele>
        <time>2021-02-21T09:59:53.286Z</time>
      </trkpt>
      <trkpt lat="48.51358" lon="7.16485">
        <ele>965</ele>
        <time>2021-02-21T09:59:54.286Z</time>
      </trkpt>
      <trkpt lat="48.51356" lon="7.16483">
        <ele>965</ele>
        <time>2021-02-21T09:59:55.286Z</time>
      </trkpt>
      <trkpt lat="48.51357" lon="7.16481">
        <ele>965</ele>
        <time>2021-02-21T09:59:56.285Z</time>
      </trkpt>
      <trkpt lat="48.51358" lon="7.16481">
        <ele>965</ele>
        <time>2021-02-21T09:59:57.286Z</time>
      </trkpt>
      <trkpt lat="48.51359" lon="7.16481">
        <ele>965</ele>
        <time>2021-02-21T09:59:58.286Z</time>
      </trkpt>
      <trkpt lat="48.51359" lon="7.16482">
        <ele>966</ele>
        <time>2021-02-21T09:59:59.286Z</time>
      </trkpt>
      <trkpt lat="48.5136" lon="7.16483">
        <ele>966</ele>
        <time>2021-02-21T10:00:00.285Z</time>
      </trkpt>
      <trkpt lat="48.5136" lon="7.16485">
        <ele>967</ele>
        <time>2021-02-21T10:00:01.285Z</time>
      </trkpt>
      <trkpt lat="48.51361" lon="7.16485">
        <ele>967</ele>
        <time>2021-02-21T10:00:02.286Z</time>
      </trkpt>
      <trkpt lat="48.51361" lon="7.16487">
        <ele>967</ele>
        <time>2021-02-21T10:00:03.286Z</time>
      </trkpt>
      <trkpt lat="48.51362" lon="7.16487">
        <ele>967</ele>
        <time>2021-02-21T10:00:04.286Z</time>
      </trkpt>
      <trkpt lat="48.51363" lon="7.16488">
        <ele>966</ele>
        <time>2021-02-21T10:00:05.285Z</time>
      </trkpt>
      <trkpt lat="48.51364" lon="7.16488">
        <ele>966</ele>
        <time>2021-02-21T10:00:06.286Z</time>
      </trkpt>
      <trkpt lat="48.51365" lon="7.16489">
        <ele>966</ele>
        <time>2021-02-21T10:00:07.286Z</time>
      </trkpt>
      <trkpt lat="48.51366" lon="7.16491">
        <ele>966</ele>
        <time>2021-02-21T10:00:08.286Z</time>
      </trkpt>
      <trkpt lat="48.51366" lon="7.16492">
        <ele>966</ele>
        <time>2021-02-21T10:00:09.286Z</time>
      </trkpt>
      <trkpt lat="48.51367" lon="7.16493">
        <ele>965</ele>
        <time>2021-02-21T10:00:10.286Z</time>
      </trkpt>
      <trkpt lat="48.51368" lon="7.16494">
        <ele>965</ele>
        <time>2021-02-21T10:00:11.286Z</time>
      </trkpt>
      <trkpt lat="48.51369" lon="7.16495">
        <ele>965</ele>
        <time>2021-02-21T10:00:12.286Z</time>
      </trkpt>
      <trkpt lat="48.51369" lon="7.16495">
        <ele>965</ele>
        <time>2021-02-21T10:00:13.286Z</time>
      </trkpt>
      <trkpt lat="48.5137" lon="7.16495">
        <ele>964</ele>
        <time>2021-02-21T10:00:14.286Z</time>
      </trkpt>
      <trkpt lat="48.51371" lon="7.16495">
        <ele>964</ele>
        <time>2021-02-21T10:00:15.286Z</time>
      </trkpt>
      <trkpt lat="48.51372" lon="7.16496">
        <ele>964</ele>
        <time>2021-02-21T10:00:16.285Z</time>
      </trkpt>
      <trkpt lat="48.51372" lon="7.16497">
        <ele>963</ele>
        <time>2021-02-21T10:00:17.286Z</time>
      </trkpt>
      <trkpt lat="48.51372" lon="7.16498">
        <ele>962</ele>
        <time>2021-02-21T10:00:18.285Z</time>
      </trkpt>
      <trkpt lat="48.51373" lon="7.165">
        <ele>962</ele>
        <time>2021-02-21T10:00:19.285Z</time>
      </trkpt>
      <trkpt lat="48.51373" lon="7.16501">
        <ele>962</ele>
        <time>2021-02-21T10:00:20.285Z</time>
      </trkpt>
      <trkpt lat="48.51373" lon="7.16502">
        <ele>961</ele>
        <time>2021-02-21T10:00:21.285Z</time>
      </trkpt>
      <trkpt lat="48.51374" lon="7.16503">
        <ele>961</ele>
        <time>2021-02-21T10:00:22.286Z</time>
      </trkpt>
      <trkpt lat="48.51374" lon="7.16505">
        <ele>961</ele>
        <time>2021-02-21T10:00:23.286Z</time>
      </trkpt>
      <trkpt lat="48.51374" lon="7.16506">
        <ele>961</ele>
        <time>2021-02-21T10:00:24.286Z</time>
      </trkpt>
      <trkpt lat="48.51374" lon="7.16507">
        <ele>961</ele>
        <time>2021-02-21T10:00:25.286Z</time>
      </trkpt>
      <trkpt lat="48.51374" lon="7.16508">
        <ele>961</ele>
        <time>2021-02-21T10:00:26.285Z</time>
      </trkpt>
      <trkpt lat="48.51375" lon="7.16509">
        <ele>962</ele>
        <time>2021-02-21T10:00:27.286Z</time>
      </trkpt>
      <trkpt lat="48.51376" lon="7.1651">
        <ele>962</ele>
        <time>2021-02-21T10:00:28.286Z</time>
      </trkpt>
      <trkpt lat="48.51376" lon="7.16511">
        <ele>962</ele>
        <time>2021-02-21T10:00:29.285Z</time>
      </trkpt>
      <trkpt lat="48.51377" lon="7.16512">
        <ele>962</ele>
        <time>2021-02-21T10:00:30.285Z</time>
      </trkpt>
      <trkpt lat="48.51377" lon="7.16513">
        <ele>962</ele>
        <time>2021-02-21T10:00:31.285Z</time>
      </trkpt>
      <trkpt lat="48.51378" lon="7.16515">
        <ele>962</ele>
        <time>2021-02-21T10:00:32.286Z</time>
      </trkpt>
      <trkpt lat="48.51379" lon="7.16516">
        <ele>962</ele>
        <time>2021-02-21T10:00:33.286Z</time>
      </trkpt>
      <trkpt lat="48.51379" lon="7.16518">
        <ele>962</ele>
        <time>2021-02-21T10:00:34.286Z</time>
      </trkpt>
      <trkpt lat="48.5138" lon="7.16519">
        <ele>962</ele>
        <time>2021-02-21T10:00:35.286Z</time>
      </trkpt>
      <trkpt lat="48.5138" lon="7.1652">
        <ele>962</ele>
        <time>2021-02-21T10:00:36.286Z</time>
      </trkpt>
      <trkpt lat="48.51381" lon="7.16521">
        <ele>962</ele>
        <time>2021-02-21T10:00:37.286Z</time>
      </trkpt>
      <trkpt lat="48.51381" lon="7.16523">
        <ele>961</ele>
        <time>2021-02-21T10:00:38.285Z</time>
      </trkpt>
      <trkpt lat="48.51381" lon="7.16524">
        <ele>961</ele>
        <time>2021-02-21T10:00:39.285Z</time>
      </trkpt>
      <trkpt lat="48.51381" lon="7.16525">
        <ele>961</ele>
        <time>2021-02-21T10:00:40.286Z</time>
      </trkpt>
      <trkpt lat="48.51381" lon="7.16526">
        <ele>961</ele>
        <time>2021-02-21T10:00:41.285Z</time>
      </trkpt>
      <trkpt lat="48.51382" lon="7.16527">
        <ele>960</ele>
        <time>2021-02-21T10:00:42.286Z</time>
      </trkpt>
      <trkpt lat="48.51383" lon="7.16528">
        <ele>960</ele>
        <time>2021-02-21T10:00:43.286Z</time>
      </trkpt>
      <trkpt lat="48.51383" lon="7.1653">
        <ele>959</ele>
        <time>2021-02-21T10:00:44.286Z</time>
      </trkpt>
      <trkpt lat="48.51384" lon="7.16531">
        <ele>959</ele>
        <time>2021-02-21T10:00:45.285Z</time>
      </trkpt>
      <trkpt lat="48.51384" lon="7.16533">
        <ele>959</ele>
        <time>2021-02-21T10:00:46.285Z</time>
      </trkpt>
      <trkpt lat="48.51384" lon="7.16534">
        <ele>959</ele>
        <time>2021-02-21T10:00:47.286Z</time>
      </trkpt>
      <trkpt lat="48.51384" lon="7.16536">
        <ele>958</ele>
        <time>2021-02-21T10:00:48.286Z</time>
      </trkpt>
      <trkpt lat="48.51385" lon="7.16538">
        <ele>958</ele>
        <time>2021-02-21T10:00:49.286Z</time>
      </trkpt>
      <trkpt lat="48.51385" lon="7.16539">
        <ele>958</ele>
        <time>2021-02-21T10:00:50.285Z</time>
      </trkpt>
      <trkpt lat="48.51385" lon="7.1654">
        <ele>958</ele>
        <time>2021-02-21T10:00:51.286Z</time>
      </trkpt>
      <trkpt lat="48.51385" lon="7.16541">
        <ele>958</ele>
        <time>2021-02-21T10:00:52.286Z</time>
      </trkpt>
      <trkpt lat="48.51385" lon="7.16542">
        <ele>959</ele>
        <time>2021-02-21T10:00:53.286Z</time>
      </trkpt>
      <trkpt lat="48.51385" lon="7.16543">
        <ele>959</ele>
        <time>2021-02-21T10:00:54.286Z</time>
      </trkpt>
      <trkpt lat="48.51386" lon="7.16545">
        <ele>960</ele>
        <time>2021-02-21T10:00:55.285Z</time>
      </trkpt>
      <trkpt lat="48.51387" lon="7.16546">
        <ele>961</ele>
        <time>2021-02-21T10:00:56.286Z</time>
      </trkpt>
      <trkpt lat="48.51387" lon="7.16548">
        <ele>961</ele>
        <time>2021-02-21T10:00:57.286Z</time>
      </trkpt>
      <trkpt lat="48.51387" lon="7.1655">
        <ele>962</ele>
        <time>2021-02-21T10:00:58.286Z</time>
      </trkpt>
      <trkpt lat="48.51387" lon="7.16552">
        <ele>962</ele>
        <time>2021-02-21T10:00:59.286Z</time>
      </trkpt>
      <trkpt lat="48.51387" lon="7.16554">
        <ele>962</ele>
        <time>2021-02-21T10:01:00.286Z</time>
      </trkpt>
      <trkpt lat="48.51388" lon="7.16556">
        <ele>961</ele>
        <time>2021-02-21T10:01:01.286Z</time>
      </trkpt>
      <trkpt lat="48.51387" lon="7.16558">
        <ele>961</ele>
        <time>2021-02-21T10:01:02.286Z</time>
      </trkpt>
      <trkpt lat="48.51387" lon="7.1656">
        <ele>961</ele>
        <time>2021-02-21T10:01:03.286Z</time>
      </trkpt>
      <trkpt lat="48.51387" lon="7.16561">
        <ele>960</ele>
        <time>2021-02-21T10:01:04.286Z</time>
      </trkpt>
      <trkpt lat="48.51387" lon="7.16563">
        <ele>960</ele>
        <time>2021-02-21T10:01:05.286Z</time>
      </trkpt>
      <trkpt lat="48.51387" lon="7.16563">
        <ele>960</ele>
        <time>2021-02-21T10:01:06.285Z</time>
      </trkpt>
      <trkpt lat="48.51388" lon="7.16565">
        <ele>959</ele>
        <time>2021-02-21T10:01:07.286Z</time>
      </trkpt>
      <trkpt lat="48.51388" lon="7.16566">
        <ele>959</ele>
        <time>2021-02-21T10:01:08.286Z</time>
      </trkpt>
      <trkpt lat="48.51388" lon="7.16567">
        <ele>958</ele>
        <time>2021-02-21T10:01:09.286Z</time>
      </trkpt>
      <trkpt lat="48.51389" lon="7.16568">
        <ele>958</ele>
        <time>2021-02-21T10:01:10.286Z</time>
      </trkpt>
      <trkpt lat="48.5139" lon="7.16568">
        <ele>958</ele>
        <time>2021-02-21T10:01:11.285Z</time>
      </trkpt>
      <trkpt lat="48.5139" lon="7.16569">
        <ele>957</ele>
        <time>2021-02-21T10:01:12.285Z</time>
      </trkpt>
      <trkpt lat="48.51391" lon="7.1657">
        <ele>957</ele>
        <time>2021-02-21T10:01:13.286Z</time>
      </trkpt>
      <trkpt lat="48.51391" lon="7.16571">
        <ele>957</ele>
        <time>2021-02-21T10:01:14.286Z</time>
      </trkpt>
      <trkpt lat="48.51391" lon="7.16572">
        <ele>957</ele>
        <time>2021-02-21T10:01:15.286Z</time>
      </trkpt>
      <trkpt lat="48.5139" lon="7.16573">
        <ele>956</ele>
        <time>2021-02-21T10:01:16.285Z</time>
      </trkpt>
      <trkpt lat="48.5139" lon="7.16574">
        <ele>956</ele>
        <time>2021-02-21T10:01:17.286Z</time>
      </trkpt>
      <trkpt lat="48.5139" lon="7.16575">
        <ele>956</ele>
        <time>2021-02-21T10:01:18.286Z</time>
      </trkpt>
      <trkpt lat="48.51391" lon="7.16576">
        <ele>956</ele>
        <time>2021-02-21T10:01:19.286Z</time>
      </trkpt>
      <trkpt lat="48.51391" lon="7.16577">
        <ele>955</ele>
        <time>2021-02-21T10:01:20.286Z</time>
      </trkpt>
      <trkpt lat="48.51391" lon="7.16577">
        <ele>955</ele>
        <time>2021-02-21T10:01:21.286Z</time>
      </trkpt>
      <trkpt lat="48.51391" lon="7.16577">
        <ele>954</ele>
        <time>2021-02-21T10:01:22.286Z</time>
      </trkpt>
      <trkpt lat="48.51391" lon="7.16577">
        <ele>954</ele>
        <time>2021-02-21T10:01:23.286Z</time>
      </trkpt>
      <trkpt lat="48.51391" lon="7.16577">
        <ele>954</ele>
        <time>2021-02-21T10:01:24.285Z</time>
      </trkpt>
      <trkpt lat="48.51392" lon="7.16578">
        <ele>954</ele>
        <time>2021-02-21T10:01:25.286Z</time>
      </trkpt>
      <trkpt lat="48.51392" lon="7.16577">
        <ele>954</ele>
        <time>2021-02-21T10:01:26.286Z</time>
      </trkpt>
      <trkpt lat="48.51392" lon="7.16576">
        <ele>954</ele>
        <time>2021-02-21T10:01:27.286Z</time>
      </trkpt>
      <trkpt lat="48.51392" lon="7.16576">
        <ele>954</ele>
        <time>2021-02-21T10:01:28.286Z</time>
      </trkpt>
      <trkpt lat="48.51392" lon="7.16575">
        <ele>954</ele>
        <time>2021-02-21T10:01:29.286Z</time>
      </trkpt>
      <trkpt lat="48.51392" lon="7.16575">
        <ele>954</ele>
        <time>2021-02-21T10:01:30.286Z</time>
      </trkpt>
      <trkpt lat="48.51393" lon="7.16574">
        <ele>955</ele>
        <time>2021-02-21T10:01:31.285Z</time>
      </trkpt>
      <trkpt lat="48.51393" lon="7.16573">
        <ele>955</ele>
        <time>2021-02-21T10:01:32.286Z</time>
      </trkpt>
      <trkpt lat="48.51394" lon="7.16572">
        <ele>955</ele>
        <time>2021-02-21T10:01:33.286Z</time>
      </trkpt>
      <trkpt lat="48.51394" lon="7.16571">
        <ele>955</ele>
        <time>2021-02-21T10:01:34.286Z</time>
      </trkpt>
      <trkpt lat="48.51395" lon="7.16571">
        <ele>954</ele>
        <time>2021-02-21T10:01:35.286Z</time>
      </trkpt>
      <trkpt lat="48.51395" lon="7.1657">
        <ele>954</ele>
        <time>2021-02-21T10:01:36.286Z</time>
      </trkpt>
      <trkpt lat="48.51396" lon="7.16569">
        <ele>954</ele>
        <time>2021-02-21T10:01:37.286Z</time>
      </trkpt>
      <trkpt lat="48.51396" lon="7.16569">
        <ele>953</ele>
        <time>2021-02-21T10:01:38.286Z</time>
      </trkpt>
      <trkpt lat="48.51396" lon="7.16568">
        <ele>953</ele>
        <time>2021-02-21T10:01:39.286Z</time>
      </trkpt>
      <trkpt lat="48.51396" lon="7.16567">
        <ele>953</ele>
        <time>2021-02-21T10:01:40.286Z</time>
      </trkpt>
      <trkpt lat="48.51396" lon="7.16565">
        <ele>953</ele>
        <time>2021-02-21T10:01:41.285Z</time>
      </trkpt>
      <trkpt lat="48.51397" lon="7.16565">
        <ele>952</ele>
        <time>2021-02-21T10:01:42.286Z</time>
      </trkpt>
      <trkpt lat="48.51397" lon="7.16565">
        <ele>952</ele>
        <time>2021-02-21T10:01:43.286Z</time>
      </trkpt>
      <trkpt lat="48.51397" lon="7.16567">
        <ele>952</ele>
        <time>2021-02-21T10:01:44.286Z</time>
      </trkpt>
      <trkpt lat="48.51398" lon="7.16567">
        <ele>952</ele>
        <time>2021-02-21T10:01:45.286Z</time>
      </trkpt>
      <trkpt lat="48.51398" lon="7.16567">
        <ele>952</ele>
        <time>2021-02-21T10:01:46.286Z</time>
      </trkpt>
      <trkpt lat="48.51398" lon="7.16566">
        <ele>952</ele>
        <time>2021-02-21T10:01:47.285Z</time>
      </trkpt>
      <trkpt lat="48.51398" lon="7.16565">
        <ele>952</ele>
        <time>2021-02-21T10:01:48.286Z</time>
      </trkpt>
      <trkpt lat="48.51398" lon="7.16564">
        <ele>951</ele>
        <time>2021-02-21T10:01:49.285Z</time>
      </trkpt>
      <trkpt lat="48.51398" lon="7.16562">
        <ele>951</ele>
        <time>2021-02-21T10:01:50.285Z</time>
      </trkpt>
      <trkpt lat="48.51398" lon="7.16561">
        <ele>951</ele>
        <time>2021-02-21T10:01:51.286Z</time>
      </trkpt>
      <trkpt lat="48.51398" lon="7.16559">
        <ele>950</ele>
        <time>2021-02-21T10:01:52.286Z</time>
      </trkpt>
      <trkpt lat="48.51398" lon="7.16557">
        <ele>950</ele>
        <time>2021-02-21T10:01:53.286Z</time>
      </trkpt>
      <trkpt lat="48.51399" lon="7.16555">
        <ele>950</ele>
        <time>2021-02-21T10:01:54.286Z</time>
      </trkpt>
      <trkpt lat="48.51399" lon="7.16554">
        <ele>950</ele>
        <time>2021-02-21T10:01:55.286Z</time>
      </trkpt>
      <trkpt lat="48.514" lon="7.16553">
        <ele>950</ele>
        <time>2021-02-21T10:01:56.286Z</time>
      </trkpt>
      <trkpt lat="48.514" lon="7.16551">
        <ele>950</ele>
        <time>2021-02-21T10:01:57.286Z</time>
      </trkpt>
      <trkpt lat="48.514" lon="7.16549">
        <ele>949</ele>
        <time>2021-02-21T10:01:58.286Z</time>
      </trkpt>
      <trkpt lat="48.514" lon="7.16547">
        <ele>949</ele>
        <time>2021-02-21T10:01:59.285Z</time>
      </trkpt>
      <trkpt lat="48.514" lon="7.16545">
        <ele>949</ele>
        <time>2021-02-21T10:02:00.285Z</time>
      </trkpt>
      <trkpt lat="48.514" lon="7.16544">
        <ele>948</ele>
        <time>2021-02-21T10:02:01.286Z</time>
      </trkpt>
      <trkpt lat="48.514" lon="7.16543">
        <ele>948</ele>
        <time>2021-02-21T10:02:02.286Z</time>
      </trkpt>
      <trkpt lat="48.514" lon="7.16541">
        <ele>948</ele>
        <time>2021-02-21T10:02:03.286Z</time>
      </trkpt>
      <trkpt lat="48.514" lon="7.1654">
        <ele>948</ele>
        <time>2021-02-21T10:02:04.286Z</time>
      </trkpt>
      <trkpt lat="48.514" lon="7.16539">
        <ele>948</ele>
        <time>2021-02-21T10:02:05.286Z</time>
      </trkpt>
      <trkpt lat="48.51401" lon="7.16538">
        <ele>948</ele>
        <time>2021-02-21T10:02:06.286Z</time>
      </trkpt>
      <trkpt lat="48.514" lon="7.16537">
        <ele>948</ele>
        <time>2021-02-21T10:02:07.286Z</time>
      </trkpt>
      <trkpt lat="48.514" lon="7.16536">
        <ele>948</ele>
        <time>2021-02-21T10:02:08.286Z</time>
      </trkpt>
      <trkpt lat="48.51401" lon="7.16535">
        <ele>947</ele>
        <time>2021-02-21T10:02:09.286Z</time>
      </trkpt>
      <trkpt lat="48.51402" lon="7.16534">
        <ele>948</ele>
        <time>2021-02-21T10:02:10.286Z</time>
      </trkpt>
      <trkpt lat="48.51403" lon="7.16533">
        <ele>948</ele>
        <time>2021-02-21T10:02:11.286Z</time>
      </trkpt>
      <trkpt lat="48.51404" lon="7.16533">
        <ele>948</ele>
        <time>2021-02-21T10:02:12.286Z</time>
      </trkpt>
      <trkpt lat="48.51404" lon="7.16532">
        <ele>948</ele>
        <time>2021-02-21T10:02:13.286Z</time>
      </trkpt>
      <trkpt lat="48.51404" lon="7.16531">
        <ele>948</ele>
        <time>2021-02-21T10:02:14.286Z</time>
      </trkpt>
      <trkpt lat="48.51404" lon="7.1653">
        <ele>948</ele>
        <time>2021-02-21T10:02:15.285Z</time>
      </trkpt>
      <trkpt lat="48.51404" lon="7.16528">
        <ele>947</ele>
        <time>2021-02-21T10:02:16.286Z</time>
      </trkpt>
      <trkpt lat="48.51404" lon="7.16526">
        <ele>947</ele>
        <time>2021-02-21T10:02:17.286Z</time>
      </trkpt>
      <trkpt lat="48.51404" lon="7.16524">
        <ele>947</ele>
        <time>2021-02-21T10:02:18.286Z</time>
      </trkpt>
      <trkpt lat="48.51403" lon="7.16523">
        <ele>947</ele>
        <time>2021-02-21T10:02:19.286Z</time>
      </trkpt>
      <trkpt lat="48.51404" lon="7.16522">
        <ele>946</ele>
        <time>2021-02-21T10:02:20.285Z</time>
      </trkpt>
      <trkpt lat="48.51404" lon="7.1652">
        <ele>946</ele>
        <time>2021-02-21T10:02:21.286Z</time>
      </trkpt>
      <trkpt lat="48.51404" lon="7.16519">
        <ele>946</ele>
        <time>2021-02-21T10:02:22.286Z</time>
      </trkpt>
      <trkpt lat="48.51405" lon="7.16517">
        <ele>946</ele>
        <time>2021-02-21T10:02:23.286Z</time>
      </trkpt>
      <trkpt lat="48.51404" lon="7.16515">
        <ele>946</ele>
        <time>2021-02-21T10:02:24.285Z</time>
      </trkpt>
      <trkpt lat="48.51404" lon="7.16514">
        <ele>946</ele>
        <time>2021-02-21T10:02:25.285Z</time>
      </trkpt>
      <trkpt lat="48.51404" lon="7.16513">
        <ele>946</ele>
        <time>2021-02-21T10:02:26.286Z</time>
      </trkpt>
      <trkpt lat="48.51404" lon="7.16512">
        <ele>946</ele>
        <time>2021-02-21T10:02:27.286Z</time>
      </trkpt>
      <trkpt lat="48.51403" lon="7.16511">
        <ele>945</ele>
        <time>2021-02-21T10:02:28.286Z</time>
      </trkpt>
      <trkpt lat="48.51404" lon="7.16511">
        <ele>945</ele>
        <time>2021-02-21T10:02:29.286Z</time>
      </trkpt>
      <trkpt lat="48.51403" lon="7.16511">
        <ele>945</ele>
        <time>2021-02-21T10:02:30.286Z</time>
      </trkpt>
      <trkpt lat="48.51403" lon="7.16511">
        <ele>945</ele>
        <time>2021-02-21T10:02:31.286Z</time>
      </trkpt>
      <trkpt lat="48.51404" lon="7.1651">
        <ele>946</ele>
        <time>2021-02-21T10:02:32.286Z</time>
      </trkpt>
      <trkpt lat="48.51404" lon="7.16509">
        <ele>946</ele>
        <time>2021-02-21T10:02:33.286Z</time>
      </trkpt>
      <trkpt lat="48.51405" lon="7.16508">
        <ele>946</ele>
        <time>2021-02-21T10:02:34.285Z</time>
      </trkpt>
      <trkpt lat="48.51405" lon="7.16507">
        <ele>945</ele>
        <time>2021-02-21T10:02:35.286Z</time>
      </trkpt>
      <trkpt lat="48.51405" lon="7.16507">
        <ele>945</ele>
        <time>2021-02-21T10:02:36.286Z</time>
      </trkpt>
      <trkpt lat="48.51405" lon="7.16505">
        <ele>945</ele>
        <time>2021-02-21T10:02:37.286Z</time>
      </trkpt>
      <trkpt lat="48.51405" lon="7.16504">
        <ele>945</ele>
        <time>2021-02-21T10:02:38.286Z</time>
      </trkpt>
      <trkpt lat="48.51406" lon="7.16502">
        <ele>945</ele>
        <time>2021-02-21T10:02:39.286Z</time>
      </trkpt>
      <trkpt lat="48.51406" lon="7.16501">
        <ele>945</ele>
        <time>2021-02-21T10:02:40.286Z</time>
      </trkpt>
      <trkpt lat="48.51406" lon="7.16501">
        <ele>945</ele>
        <time>2021-02-21T10:02:41.286Z</time>
      </trkpt>
      <trkpt lat="48.51406" lon="7.165">
        <ele>944</ele>
        <time>2021-02-21T10:02:42.286Z</time>
      </trkpt>
      <trkpt lat="48.51406" lon="7.16499">
        <ele>944</ele>
        <time>2021-02-21T10:02:43.286Z</time>
      </trkpt>
      <trkpt lat="48.51407" lon="7.16498">
        <ele>944</ele>
        <time>2021-02-21T10:02:44.285Z</time>
      </trkpt>
      <trkpt lat="48.51407" lon="7.16497">
        <ele>944</ele>
        <time>2021-02-21T10:02:45.286Z</time>
      </trkpt>
      <trkpt lat="48.51407" lon="7.16496">
        <ele>944</ele>
        <time>2021-02-21T10:02:46.286Z</time>
      </trkpt>
      <trkpt lat="48.51407" lon="7.16495">
        <ele>943</ele>
        <time>2021-02-21T10:02:47.286Z</time>
      </trkpt>
      <trkpt lat="48.51408" lon="7.16494">
        <ele>943</ele>
        <time>2021-02-21T10:02:48.286Z</time>
      </trkpt>
      <trkpt lat="48.51408" lon="7.16493">
        <ele>942</ele>
        <time>2021-02-21T10:02:49.286Z</time>
      </trkpt>
      <trkpt lat="48.51409" lon="7.16492">
        <ele>942</ele>
        <time>2021-02-21T10:02:50.286Z</time>
      </trkpt>
      <trkpt lat="48.51409" lon="7.16492">
        <ele>942</ele>
        <time>2021-02-21T10:02:51.286Z</time>
      </trkpt>
      <trkpt lat="48.51409" lon="7.16491">
        <ele>942</ele>
        <time>2021-02-21T10:02:52.286Z</time>
      </trkpt>
      <trkpt lat="48.51409" lon="7.1649">
        <ele>941</ele>
        <time>2021-02-21T10:02:53.286Z</time>
      </trkpt>
      <trkpt lat="48.51408" lon="7.16489">
        <ele>941</ele>
        <time>2021-02-21T10:02:54.286Z</time>
      </trkpt>
      <trkpt lat="48.51407" lon="7.16487">
        <ele>942</ele>
        <time>2021-02-21T10:02:55.286Z</time>
      </trkpt>
      <trkpt lat="48.51407" lon="7.16486">
        <ele>942</ele>
        <time>2021-02-21T10:02:56.286Z</time>
      </trkpt>
      <trkpt lat="48.51407" lon="7.16484">
        <ele>941</ele>
        <time>2021-02-21T10:02:57.285Z</time>
      </trkpt>
      <trkpt lat="48.51407" lon="7.16483">
        <ele>941</ele>
        <time>2021-02-21T10:02:58.286Z</time>
      </trkpt>
      <trkpt lat="48.51408" lon="7.16482">
        <ele>941</ele>
        <time>2021-02-21T10:02:59.286Z</time>
      </trkpt>
      <trkpt lat="48.51408" lon="7.16482">
        <ele>941</ele>
        <time>2021-02-21T10:03:00.285Z</time>
      </trkpt>
      <trkpt lat="48.51408" lon="7.16481">
        <ele>941</ele>
        <time>2021-02-21T10:03:01.285Z</time>
      </trkpt>
      <trkpt lat="48.51408" lon="7.1648">
        <ele>940</ele>
        <time>2021-02-21T10:03:02.286Z</time>
      </trkpt>
      <trkpt lat="48.51408" lon="7.16479">
        <ele>940</ele>
        <time>2021-02-21T10:03:03.286Z</time>
      </trkpt>
      <trkpt lat="48.51409" lon="7.1648">
        <ele>940</ele>
        <time>2021-02-21T10:03:04.286Z</time>
      </trkpt>
      <trkpt lat="48.5141" lon="7.16481">
        <ele>940</ele>
        <time>2021-02-21T10:03:05.286Z</time>
      </trkpt>
      <trkpt lat="48.5141" lon="7.16483">
        <ele>940</ele>
        <time>2021-02-21T10:03:06.286Z</time>
      </trkpt>
      <trkpt lat="48.51411" lon="7.16486">
        <ele>939</ele>
        <time>2021-02-21T10:03:07.286Z</time>
      </trkpt>
      <trkpt lat="48.51412" lon="7.16487">
        <ele>939</ele>
        <time>2021-02-21T10:03:08.286Z</time>
      </trkpt>
      <trkpt lat="48.51413" lon="7.16488">
        <ele>939</ele>
        <time>2021-02-21T10:03:09.285Z</time>
      </trkpt>
      <trkpt lat="48.51414" lon="7.16489">
        <ele>939</ele>
        <time>2021-02-21T10:03:10.286Z</time>
      </trkpt>
      <trkpt lat="48.51414" lon="7.1649">
        <ele>939</ele>
        <time>2021-02-21T10:03:11.286Z</time>
      </trkpt>
      <trkpt lat="48.51415" lon="7.16491">
        <ele>939</ele>
        <time>2021-02-21T10:03:12.286Z</time>
      </trkpt>
      <trkpt lat="48.51414" lon="7.16492">
        <ele>939</ele>
        <time>2021-02-21T10:03:13.286Z</time>
      </trkpt>
      <trkpt lat="48.51415" lon="7.16493">
        <ele>939</ele>
        <time>2021-02-21T10:03:14.286Z</time>
      </trkpt>
      <trkpt lat="48.51415" lon="7.16495">
        <ele>938</ele>
        <time>2021-02-21T10:03:15.286Z</time>
      </trkpt>
      <trkpt lat="48.51415" lon="7.16496">
        <ele>938</ele>
        <time>2021-02-21T10:03:16.286Z</time>
      </trkpt>
      <trkpt lat="48.51415" lon="7.16497">
        <ele>938</ele>
        <time>2021-02-21T10:03:17.286Z</time>
      </trkpt>
      <trkpt lat="48.51415" lon="7.16499">
        <ele>938</ele>
        <time>2021-02-21T10:03:18.286Z</time>
      </trkpt>
      <trkpt lat="48.51415" lon="7.165">
        <ele>937</ele>
        <time>2021-02-21T10:03:19.286Z</time>
      </trkpt>
      <trkpt lat="48.51415" lon="7.16501">
        <ele>937</ele>
        <time>2021-02-21T10:03:20.285Z</time>
      </trkpt>
      <trkpt lat="48.51416" lon="7.16502">
        <ele>937</ele>
        <time>2021-02-21T10:03:21.286Z</time>
      </trkpt>
      <trkpt lat="48.51416" lon="7.16503">
        <ele>937</ele>
        <time>2021-02-21T10:03:22.286Z</time>
      </trkpt>
      <trkpt lat="48.51416" lon="7.16503">
        <ele>937</ele>
        <time>2021-02-21T10:03:23.286Z</time>
      </trkpt>
      <trkpt lat="48.51417" lon="7.16504">
        <ele>937</ele>
        <time>2021-02-21T10:03:24.286Z</time>
      </trkpt>
      <trkpt lat="48.51417" lon="7.16505">
        <ele>937</ele>
        <time>2021-02-21T10:03:25.286Z</time>
      </trkpt>
      <trkpt lat="48.51418" lon="7.16506">
        <ele>937</ele>
        <time>2021-02-21T10:03:26.286Z</time>
      </trkpt>
      <trkpt lat="48.51418" lon="7.16507">
        <ele>937</ele>
        <time>2021-02-21T10:03:27.286Z</time>
      </trkpt>
      <trkpt lat="48.51418" lon="7.16508">
        <ele>936</ele>
        <time>2021-02-21T10:03:28.286Z</time>
      </trkpt>
      <trkpt lat="48.51418" lon="7.16509">
        <ele>936</ele>
        <time>2021-02-21T10:03:29.286Z</time>
      </trkpt>
      <trkpt lat="48.51418" lon="7.1651">
        <ele>936</ele>
        <time>2021-02-21T10:03:30.286Z</time>
      </trkpt>
      <trkpt lat="48.51418" lon="7.16512">
        <ele>936</ele>
        <time>2021-02-21T10:03:31.286Z</time>
      </trkpt>
      <trkpt lat="48.51418" lon="7.16513">
        <ele>937</ele>
        <time>2021-02-21T10:03:32.286Z</time>
      </trkpt>
      <trkpt lat="48.51418" lon="7.16514">
        <ele>937</ele>
        <time>2021-02-21T10:03:33.286Z</time>
      </trkpt>
      <trkpt lat="48.51418" lon="7.16514">
        <ele>936</ele>
        <time>2021-02-21T10:03:34.286Z</time>
      </trkpt>
      <trkpt lat="48.51418" lon="7.16515">
        <ele>936</ele>
        <time>2021-02-21T10:03:35.286Z</time>
      </trkpt>
      <trkpt lat="48.51418" lon="7.16516">
        <ele>935</ele>
        <time>2021-02-21T10:03:36.286Z</time>
      </trkpt>
      <trkpt lat="48.51418" lon="7.16517">
        <ele>935</ele>
        <time>2021-02-21T10:03:37.286Z</time>
      </trkpt>
      <trkpt lat="48.51419" lon="7.16519">
        <ele>935</ele>
        <time>2021-02-21T10:03:38.286Z</time>
      </trkpt>
      <trkpt lat="48.51419" lon="7.16522">
        <ele>935</ele>
        <time>2021-02-21T10:03:39.286Z</time>
      </trkpt>
      <trkpt lat="48.51419" lon="7.16525">
        <ele>935</ele>
        <time>2021-02-21T10:03:40.286Z</time>
      </trkpt>
      <trkpt lat="48.5142" lon="7.16527">
        <ele>935</ele>
        <time>2021-02-21T10:03:41.285Z</time>
      </trkpt>
      <trkpt lat="48.51419" lon="7.16528">
        <ele>935</ele>
        <time>2021-02-21T10:03:42.285Z</time>
      </trkpt>
      <trkpt lat="48.5142" lon="7.16529">
        <ele>935</ele>
        <time>2021-02-21T10:03:43.286Z</time>
      </trkpt>
      <trkpt lat="48.51421" lon="7.16529">
        <ele>935</ele>
        <time>2021-02-21T10:03:44.286Z</time>
      </trkpt>
      <trkpt lat="48.51421" lon="7.16528">
        <ele>935</ele>
        <time>2021-02-21T10:03:45.286Z</time>
      </trkpt>
      <trkpt lat="48.51422" lon="7.16529">
        <ele>935</ele>
        <time>2021-02-21T10:03:46.286Z</time>
      </trkpt>
      <trkpt lat="48.51422" lon="7.16529">
        <ele>934</ele>
        <time>2021-02-21T10:03:47.286Z</time>
      </trkpt>
      <trkpt lat="48.51423" lon="7.16529">
        <ele>934</ele>
        <time>2021-02-21T10:03:48.285Z</time>
      </trkpt>
      <trkpt lat="48.51423" lon="7.1653">
        <ele>934</ele>
        <time>2021-02-21T10:03:49.286Z</time>
      </trkpt>
      <trkpt lat="48.51423" lon="7.16531">
        <ele>934</ele>
        <time>2021-02-21T10:03:50.286Z</time>
      </trkpt>
      <trkpt lat="48.51423" lon="7.16532">
        <ele>934</ele>
        <time>2021-02-21T10:03:51.286Z</time>
      </trkpt>
      <trkpt lat="48.51423" lon="7.16534">
        <ele>933</ele>
        <time>2021-02-21T10:03:52.286Z</time>
      </trkpt>
      <trkpt lat="48.51424" lon="7.16535">
        <ele>932</ele>
        <time>2021-02-21T10:03:53.286Z</time>
      </trkpt>
      <trkpt lat="48.51424" lon="7.16536">
        <ele>931</ele>
        <time>2021-02-21T10:03:54.286Z</time>
      </trkpt>
      <trkpt lat="48.51424" lon="7.16538">
        <ele>931</ele>
        <time>2021-02-21T10:03:55.285Z</time>
      </trkpt>
      <trkpt lat="48.51425" lon="7.1654">
        <ele>930</ele>
        <time>2021-02-21T10:03:56.286Z</time>
      </trkpt>
      <trkpt lat="48.51425" lon="7.16541">
        <ele>930</ele>
        <time>2021-02-21T10:03:57.286Z</time>
      </trkpt>
      <trkpt lat="48.51425" lon="7.16542">
        <ele>930</ele>
        <time>2021-02-21T10:03:58.286Z</time>
      </trkpt>
      <trkpt lat="48.51425" lon="7.16543">
        <ele>930</ele>
        <time>2021-02-21T10:03:59.286Z</time>
      </trkpt>
      <trkpt lat="48.51426" lon="7.16543">
        <ele>929</ele>
        <time>2021-02-21T10:04:00.286Z</time>
      </trkpt>
      <trkpt lat="48.51426" lon="7.16544">
        <ele>929</ele>
        <time>2021-02-21T10:04:01.285Z</time>
      </trkpt>
      <trkpt lat="48.51426" lon="7.16545">
        <ele>928</ele>
        <time>2021-02-21T10:04:02.286Z</time>
      </trkpt>
      <trkpt lat="48.51426" lon="7.16546">
        <ele>928</ele>
        <time>2021-02-21T10:04:03.286Z</time>
      </trkpt>
      <trkpt lat="48.51426" lon="7.16546">
        <ele>928</ele>
        <time>2021-02-21T10:04:04.285Z</time>
      </trkpt>
      <trkpt lat="48.51427" lon="7.16547">
        <ele>928</ele>
        <time>2021-02-21T10:04:05.285Z</time>
      </trkpt>
      <trkpt lat="48.51427" lon="7.16548">
        <ele>928</ele>
        <time>2021-02-21T10:04:06.286Z</time>
      </trkpt>
      <trkpt lat="48.51428" lon="7.16548">
        <ele>928</ele>
        <time>2021-02-21T10:04:07.286Z</time>
      </trkpt>
      <trkpt lat="48.51428" lon="7.16549">
        <ele>928</ele>
        <time>2021-02-21T10:04:08.286Z</time>
      </trkpt>
      <trkpt lat="48.51428" lon="7.1655">
        <ele>927</ele>
        <time>2021-02-21T10:04:09.286Z</time>
      </trkpt>
      <trkpt lat="48.51428" lon="7.16551">
        <ele>927</ele>
        <time>2021-02-21T10:04:10.285Z</time>
      </trkpt>
      <trkpt lat="48.51428" lon="7.16552">
        <ele>926</ele>
        <time>2021-02-21T10:04:11.285Z</time>
      </trkpt>
      <trkpt lat="48.51429" lon="7.16553">
        <ele>926</ele>
        <time>2021-02-21T10:04:12.286Z</time>
      </trkpt>
      <trkpt lat="48.51429" lon="7.16551">
        <ele>926</ele>
        <time>2021-02-21T10:04:13.285Z</time>
      </trkpt>
      <trkpt lat="48.51429" lon="7.1655">
        <ele>926</ele>
        <time>2021-02-21T10:04:14.285Z</time>
      </trkpt>
      <trkpt lat="48.51429" lon="7.16549">
        <ele>926</ele>
        <time>2021-02-21T10:04:15.285Z</time>
      </trkpt>
      <trkpt lat="48.51429" lon="7.16548">
        <ele>926</ele>
        <time>2021-02-21T10:04:16.286Z</time>
      </trkpt>
      <trkpt lat="48.5143" lon="7.16547">
        <ele>926</ele>
        <time>2021-02-21T10:04:17.286Z</time>
      </trkpt>
      <trkpt lat="48.51431" lon="7.16547">
        <ele>926</ele>
        <time>2021-02-21T10:04:18.285Z</time>
      </trkpt>
      <trkpt lat="48.51432" lon="7.16546">
        <ele>927</ele>
        <time>2021-02-21T10:04:19.285Z</time>
      </trkpt>
      <trkpt lat="48.51431" lon="7.16546">
        <ele>927</ele>
        <time>2021-02-21T10:04:20.285Z</time>
      </trkpt>
      <trkpt lat="48.51432" lon="7.16545">
        <ele>927</ele>
        <time>2021-02-21T10:04:21.285Z</time>
      </trkpt>
      <trkpt lat="48.51432" lon="7.16544">
        <ele>927</ele>
        <time>2021-02-21T10:04:22.286Z</time>
      </trkpt>
      <trkpt lat="48.51432" lon="7.16544">
        <ele>928</ele>
        <time>2021-02-21T10:04:23.285Z</time>
      </trkpt>
      <trkpt lat="48.51432" lon="7.16543">
        <ele>928</ele>
        <time>2021-02-21T10:04:24.286Z</time>
      </trkpt>
      <trkpt lat="48.51433" lon="7.16543">
        <ele>929</ele>
        <time>2021-02-21T10:04:25.286Z</time>
      </trkpt>
      <trkpt lat="48.51433" lon="7.16543">
        <ele>929</ele>
        <time>2021-02-21T10:04:26.286Z</time>
      </trkpt>
      <trkpt lat="48.51434" lon="7.16538">
        <ele>929</ele>
        <time>2021-02-21T10:04:27.288Z</time>
      </trkpt>
      <trkpt lat="48.51434" lon="7.16536">
        <ele>929</ele>
        <time>2021-02-21T10:04:28.288Z</time>
      </trkpt>
      <trkpt lat="48.51435" lon="7.16534">
        <ele>929</ele>
        <time>2021-02-21T10:04:29.287Z</time>
      </trkpt>
      <trkpt lat="48.51435" lon="7.1653">
        <ele>928</ele>
        <time>2021-02-21T10:04:30.287Z</time>
      </trkpt>
      <trkpt lat="48.51435" lon="7.16527">
        <ele>928</ele>
        <time>2021-02-21T10:04:31.288Z</time>
      </trkpt>
      <trkpt lat="48.51435" lon="7.16525">
        <ele>928</ele>
        <time>2021-02-21T10:04:32.288Z</time>
      </trkpt>
      <trkpt lat="48.51435" lon="7.16522">
        <ele>927</ele>
        <time>2021-02-21T10:04:33.288Z</time>
      </trkpt>
      <trkpt lat="48.51435" lon="7.1652">
        <ele>927</ele>
        <time>2021-02-21T10:04:34.287Z</time>
      </trkpt>
      <trkpt lat="48.51435" lon="7.16519">
        <ele>926</ele>
        <time>2021-02-21T10:04:35.288Z</time>
      </trkpt>
      <trkpt lat="48.51435" lon="7.16517">
        <ele>926</ele>
        <time>2021-02-21T10:04:36.288Z</time>
      </trkpt>
      <trkpt lat="48.51434" lon="7.16516">
        <ele>925</ele>
        <time>2021-02-21T10:04:37.288Z</time>
      </trkpt>
      <trkpt lat="48.51434" lon="7.16515">
        <ele>925</ele>
        <time>2021-02-21T10:04:38.288Z</time>
      </trkpt>
      <trkpt lat="48.51434" lon="7.16514">
        <ele>924</ele>
        <time>2021-02-21T10:04:39.287Z</time>
      </trkpt>
      <trkpt lat="48.51434" lon="7.16512">
        <ele>924</ele>
        <time>2021-02-21T10:04:40.287Z</time>
      </trkpt>
      <trkpt lat="48.51434" lon="7.16511">
        <ele>923</ele>
        <time>2021-02-21T10:04:41.288Z</time>
      </trkpt>
      <trkpt lat="48.51434" lon="7.1651">
        <ele>923</ele>
        <time>2021-02-21T10:04:42.288Z</time>
      </trkpt>
      <trkpt lat="48.51433" lon="7.16509">
        <ele>923</ele>
        <time>2021-02-21T10:04:43.288Z</time>
      </trkpt>
      <trkpt lat="48.51433" lon="7.16508">
        <ele>923</ele>
        <time>2021-02-21T10:04:44.288Z</time>
      </trkpt>
      <trkpt lat="48.51434" lon="7.16507">
        <ele>923</ele>
        <time>2021-02-21T10:04:45.287Z</time>
      </trkpt>
      <trkpt lat="48.51434" lon="7.16506">
        <ele>923</ele>
        <time>2021-02-21T10:04:46.288Z</time>
      </trkpt>
      <trkpt lat="48.51434" lon="7.16505">
        <ele>923</ele>
        <time>2021-02-21T10:04:47.287Z</time>
      </trkpt>
      <trkpt lat="48.51434" lon="7.16504">
        <ele>923</ele>
        <time>2021-02-21T10:04:48.288Z</time>
      </trkpt>
      <trkpt lat="48.51434" lon="7.16502">
        <ele>922</ele>
        <time>2021-02-21T10:04:49.287Z</time>
      </trkpt>
      <trkpt lat="48.51435" lon="7.165">
        <ele>922</ele>
        <time>2021-02-21T10:04:50.287Z</time>
      </trkpt>
      <trkpt lat="48.51436" lon="7.165">
        <ele>922</ele>
        <time>2021-02-21T10:04:51.287Z</time>
      </trkpt>
      <trkpt lat="48.51437" lon="7.165">
        <ele>922</ele>
        <time>2021-02-21T10:04:52.288Z</time>
      </trkpt>
      <trkpt lat="48.51438" lon="7.16501">
        <ele>922</ele>
        <time>2021-02-21T10:04:53.287Z</time>
      </trkpt>
      <trkpt lat="48.51439" lon="7.16503">
        <ele>922</ele>
        <time>2021-02-21T10:04:54.288Z</time>
      </trkpt>
      <trkpt lat="48.5144" lon="7.16504">
        <ele>921</ele>
        <time>2021-02-21T10:04:55.288Z</time>
      </trkpt>
      <trkpt lat="48.5144" lon="7.16506">
        <ele>921</ele>
        <time>2021-02-21T10:04:56.288Z</time>
      </trkpt>
      <trkpt lat="48.5144" lon="7.16507">
        <ele>921</ele>
        <time>2021-02-21T10:04:57.288Z</time>
      </trkpt>
      <trkpt lat="48.51441" lon="7.1651">
        <ele>921</ele>
        <time>2021-02-21T10:04:58.288Z</time>
      </trkpt>
      <trkpt lat="48.51441" lon="7.16511">
        <ele>920</ele>
        <time>2021-02-21T10:04:59.288Z</time>
      </trkpt>
      <trkpt lat="48.51441" lon="7.16512">
        <ele>920</ele>
        <time>2021-02-21T10:05:00.287Z</time>
      </trkpt>
      <trkpt lat="48.51442" lon="7.16513">
        <ele>920</ele>
        <time>2021-02-21T10:05:01.287Z</time>
      </trkpt>
      <trkpt lat="48.51442" lon="7.16515">
        <ele>919</ele>
        <time>2021-02-21T10:05:02.288Z</time>
      </trkpt>
      <trkpt lat="48.51443" lon="7.16517">
        <ele>919</ele>
        <time>2021-02-21T10:05:03.288Z</time>
      </trkpt>
      <trkpt lat="48.51443" lon="7.16518">
        <ele>919</ele>
        <time>2021-02-21T10:05:04.288Z</time>
      </trkpt>
      <trkpt lat="48.51444" lon="7.1652">
        <ele>919</ele>
        <time>2021-02-21T10:05:05.287Z</time>
      </trkpt>
      <trkpt lat="48.51444" lon="7.16521">
        <ele>919</ele>
        <time>2021-02-21T10:05:06.288Z</time>
      </trkpt>
      <trkpt lat="48.51444" lon="7.16523">
        <ele>919</ele>
        <time>2021-02-21T10:05:07.288Z</time>
      </trkpt>
      <trkpt lat="48.51445" lon="7.16524">
        <ele>919</ele>
        <time>2021-02-21T10:05:08.287Z</time>
      </trkpt>
      <trkpt lat="48.51445" lon="7.16525">
        <ele>919</ele>
        <time>2021-02-21T10:05:09.288Z</time>
      </trkpt>
      <trkpt lat="48.51445" lon="7.16526">
        <ele>918</ele>
        <time>2021-02-21T10:05:10.288Z</time>
      </trkpt>
      <trkpt lat="48.51445" lon="7.16527">
        <ele>918</ele>
        <time>2021-02-21T10:05:11.288Z</time>
      </trkpt>
      <trkpt lat="48.51445" lon="7.16528">
        <ele>918</ele>
        <time>2021-02-21T10:05:12.288Z</time>
      </trkpt>
      <trkpt lat="48.51445" lon="7.1653">
        <ele>917</ele>
        <time>2021-02-21T10:05:13.288Z</time>
      </trkpt>
      <trkpt lat="48.51446" lon="7.16531">
        <ele>917</ele>
        <time>2021-02-21T10:05:14.288Z</time>
      </trkpt>
      <trkpt lat="48.51446" lon="7.16533">
        <ele>917</ele>
        <time>2021-02-21T10:05:15.288Z</time>
      </trkpt>
      <trkpt lat="48.51447" lon="7.16534">
        <ele>916</ele>
        <time>2021-02-21T10:05:16.288Z</time>
      </trkpt>
      <trkpt lat="48.51447" lon="7.16536">
        <ele>916</ele>
        <time>2021-02-21T10:05:17.288Z</time>
      </trkpt>
      <trkpt lat="48.51447" lon="7.16537">
        <ele>916</ele>
        <time>2021-02-21T10:05:18.288Z</time>
      </trkpt>
      <trkpt lat="48.51447" lon="7.16539">
        <ele>916</ele>
        <time>2021-02-21T10:05:19.287Z</time>
      </trkpt>
      <trkpt lat="48.51447" lon="7.1654">
        <ele>916</ele>
        <time>2021-02-21T10:05:20.287Z</time>
      </trkpt>
      <trkpt lat="48.51447" lon="7.16542">
        <ele>915</ele>
        <time>2021-02-21T10:05:21.287Z</time>
      </trkpt>
      <trkpt lat="48.51447" lon="7.16543">
        <ele>915</ele>
        <time>2021-02-21T10:05:22.288Z</time>
      </trkpt>
      <trkpt lat="48.51447" lon="7.16545">
        <ele>915</ele>
        <time>2021-02-21T10:05:23.288Z</time>
      </trkpt>
      <trkpt lat="48.51447" lon="7.16546">
        <ele>915</ele>
        <time>2021-02-21T10:05:24.287Z</time>
      </trkpt>
      <trkpt lat="48.51447" lon="7.16548">
        <ele>915</ele>
        <time>2021-02-21T10:05:25.288Z</time>
      </trkpt>
      <trkpt lat="48.51447" lon="7.16549">
        <ele>915</ele>
        <time>2021-02-21T10:05:26.287Z</time>
      </trkpt>
      <trkpt lat="48.51447" lon="7.1655">
        <ele>915</ele>
        <time>2021-02-21T10:05:27.287Z</time>
      </trkpt>
      <trkpt lat="48.51447" lon="7.16551">
        <ele>915</ele>
        <time>2021-02-21T10:05:28.288Z</time>
      </trkpt>
      <trkpt lat="48.51447" lon="7.16552">
        <ele>914</ele>
        <time>2021-02-21T10:05:29.288Z</time>
      </trkpt>
      <trkpt lat="48.51447" lon="7.16553">
        <ele>914</ele>
        <time>2021-02-21T10:05:30.288Z</time>
      </trkpt>
      <trkpt lat="48.51448" lon="7.16553">
        <ele>913</ele>
        <time>2021-02-21T10:05:31.288Z</time>
      </trkpt>
      <trkpt lat="48.51448" lon="7.16553">
        <ele>913</ele>
        <time>2021-02-21T10:05:32.287Z</time>
      </trkpt>
      <trkpt lat="48.51448" lon="7.16554">
        <ele>913</ele>
        <time>2021-02-21T10:05:33.288Z</time>
      </trkpt>
      <trkpt lat="48.51448" lon="7.16554">
        <ele>913</ele>
        <time>2021-02-21T10:05:34.288Z</time>
      </trkpt>
      <trkpt lat="48.51447" lon="7.16555">
        <ele>914</ele>
        <time>2021-02-21T10:05:35.288Z</time>
      </trkpt>
      <trkpt lat="48.51448" lon="7.16555">
        <ele>914</ele>
        <time>2021-02-21T10:05:36.288Z</time>
      </trkpt>
      <trkpt lat="48.51448" lon="7.16556">
        <ele>914</ele>
        <time>2021-02-21T10:05:37.287Z</time>
      </trkpt>
      <trkpt lat="48.51448" lon="7.16556">
        <ele>914</ele>
        <time>2021-02-21T10:05:38.287Z</time>
      </trkpt>
      <trkpt lat="48.51449" lon="7.16556">
        <ele>914</ele>
        <time>2021-02-21T10:05:39.287Z</time>
      </trkpt>
      <trkpt lat="48.5145" lon="7.16557">
        <ele>914</ele>
        <time>2021-02-21T10:05:40.288Z</time>
      </trkpt>
      <trkpt lat="48.51451" lon="7.16558">
        <ele>914</ele>
        <time>2021-02-21T10:05:41.288Z</time>
      </trkpt>
      <trkpt lat="48.51451" lon="7.16558">
        <ele>914</ele>
        <time>2021-02-21T10:05:42.287Z</time>
      </trkpt>
      <trkpt lat="48.51452" lon="7.16558">
        <ele>914</ele>
        <time>2021-02-21T10:05:43.288Z</time>
      </trkpt>
      <trkpt lat="48.51453" lon="7.16559">
        <ele>914</ele>
        <time>2021-02-21T10:05:44.288Z</time>
      </trkpt>
      <trkpt lat="48.51452" lon="7.16559">
        <ele>914</ele>
        <time>2021-02-21T10:05:45.288Z</time>
      </trkpt>
      <trkpt lat="48.51452" lon="7.16559">
        <ele>914</ele>
        <time>2021-02-21T10:05:46.288Z</time>
      </trkpt>
      <trkpt lat="48.51453" lon="7.16558">
        <ele>913</ele>
        <time>2021-02-21T10:05:47.288Z</time>
      </trkpt>
      <trkpt lat="48.51453" lon="7.16558">
        <ele>913</ele>
        <time>2021-02-21T10:05:48.288Z</time>
      </trkpt>
      <trkpt lat="48.51454" lon="7.16558">
        <ele>913</ele>
        <time>2021-02-21T10:05:49.288Z</time>
      </trkpt>
      <trkpt lat="48.51454" lon="7.16558">
        <ele>913</ele>
        <time>2021-02-21T10:05:50.289Z</time>
      </trkpt>
      <trkpt lat="48.51454" lon="7.16559">
        <ele>912</ele>
        <time>2021-02-21T10:05:51.289Z</time>
      </trkpt>
      <trkpt lat="48.51454" lon="7.1656">
        <ele>912</ele>
        <time>2021-02-21T10:05:52.289Z</time>
      </trkpt>
      <trkpt lat="48.51454" lon="7.16561">
        <ele>912</ele>
        <time>2021-02-21T10:05:53.288Z</time>
      </trkpt>
      <trkpt lat="48.51455" lon="7.16562">
        <ele>912</ele>
        <time>2021-02-21T10:05:54.288Z</time>
      </trkpt>
      <trkpt lat="48.51454" lon="7.16564">
        <ele>912</ele>
        <time>2021-02-21T10:05:55.289Z</time>
      </trkpt>
      <trkpt lat="48.51454" lon="7.16565">
        <ele>912</ele>
        <time>2021-02-21T10:05:56.289Z</time>
      </trkpt>
      <trkpt lat="48.51454" lon="7.16566">
        <ele>912</ele>
        <time>2021-02-21T10:05:57.289Z</time>
      </trkpt>
      <trkpt lat="48.51454" lon="7.16567">
        <ele>912</ele>
        <time>2021-02-21T10:05:58.289Z</time>
      </trkpt>
      <trkpt lat="48.51455" lon="7.16568">
        <ele>912</ele>
        <time>2021-02-21T10:05:59.289Z</time>
      </trkpt>
      <trkpt lat="48.51455" lon="7.1657">
        <ele>912</ele>
        <time>2021-02-21T10:06:00.289Z</time>
      </trkpt>
      <trkpt lat="48.51455" lon="7.16571">
        <ele>911</ele>
        <time>2021-02-21T10:06:01.289Z</time>
      </trkpt>
      <trkpt lat="48.51456" lon="7.16572">
        <ele>911</ele>
        <time>2021-02-21T10:06:02.289Z</time>
      </trkpt>
      <trkpt lat="48.51456" lon="7.16574">
        <ele>911</ele>
        <time>2021-02-21T10:06:03.289Z</time>
      </trkpt>
      <trkpt lat="48.51456" lon="7.16575">
        <ele>911</ele>
        <time>2021-02-21T10:06:04.289Z</time>
      </trkpt>
      <trkpt lat="48.51457" lon="7.16576">
        <ele>911</ele>
        <time>2021-02-21T10:06:05.289Z</time>
      </trkpt>
      <trkpt lat="48.51456" lon="7.16577">
        <ele>912</ele>
        <time>2021-02-21T10:06:06.289Z</time>
      </trkpt>
      <trkpt lat="48.51456" lon="7.16578">
        <ele>913</ele>
        <time>2021-02-21T10:06:07.289Z</time>
      </trkpt>
      <trkpt lat="48.51456" lon="7.16579">
        <ele>913</ele>
        <time>2021-02-21T10:06:08.289Z</time>
      </trkpt>
      <trkpt lat="48.51456" lon="7.16579">
        <ele>913</ele>
        <time>2021-02-21T10:06:09.289Z</time>
      </trkpt>
      <trkpt lat="48.51456" lon="7.16579">
        <ele>913</ele>
        <time>2021-02-21T10:06:10.289Z</time>
      </trkpt>
      <trkpt lat="48.51456" lon="7.1658">
        <ele>913</ele>
        <time>2021-02-21T10:06:11.289Z</time>
      </trkpt>
      <trkpt lat="48.51456" lon="7.1658">
        <ele>914</ele>
        <time>2021-02-21T10:06:12.289Z</time>
      </trkpt>
      <trkpt lat="48.51456" lon="7.16581">
        <ele>914</ele>
        <time>2021-02-21T10:06:13.289Z</time>
      </trkpt>
      <trkpt lat="48.51456" lon="7.16581">
        <ele>914</ele>
        <time>2021-02-21T10:06:14.289Z</time>
      </trkpt>
      <trkpt lat="48.51456" lon="7.16587">
        <ele>918</ele>
        <time>2021-02-21T10:06:15.289Z</time>
      </trkpt>
      <trkpt lat="48.51456" lon="7.16588">
        <ele>918</ele>
        <time>2021-02-21T10:06:16.289Z</time>
      </trkpt>
      <trkpt lat="48.51455" lon="7.16589">
        <ele>919</ele>
        <time>2021-02-21T10:06:17.289Z</time>
      </trkpt>
      <trkpt lat="48.51459" lon="7.1659">
        <ele>918</ele>
        <time>2021-02-21T10:06:18.290Z</time>
      </trkpt>
      <trkpt lat="48.5146" lon="7.16591">
        <ele>918</ele>
        <time>2021-02-21T10:06:19.290Z</time>
      </trkpt>
      <trkpt lat="48.5146" lon="7.16591">
        <ele>918</ele>
        <time>2021-02-21T10:06:20.289Z</time>
      </trkpt>
      <trkpt lat="48.51459" lon="7.16592">
        <ele>918</ele>
        <time>2021-02-21T10:06:21.289Z</time>
      </trkpt>
      <trkpt lat="48.51459" lon="7.16592">
        <ele>917</ele>
        <time>2021-02-21T10:06:22.290Z</time>
      </trkpt>
      <trkpt lat="48.51459" lon="7.16592">
        <ele>916</ele>
        <time>2021-02-21T10:06:23.290Z</time>
      </trkpt>
      <trkpt lat="48.51457" lon="7.16603">
        <ele>909</ele>
        <time>2021-02-21T10:06:24.291Z</time>
      </trkpt>
      <trkpt lat="48.51457" lon="7.16606">
        <ele>909</ele>
        <time>2021-02-21T10:06:25.291Z</time>
      </trkpt>
      <trkpt lat="48.51457" lon="7.16608">
        <ele>909</ele>
        <time>2021-02-21T10:06:26.291Z</time>
      </trkpt>
      <trkpt lat="48.51457" lon="7.16611">
        <ele>909</ele>
        <time>2021-02-21T10:06:27.291Z</time>
      </trkpt>
      <trkpt lat="48.51458" lon="7.16614">
        <ele>910</ele>
        <time>2021-02-21T10:06:28.291Z</time>
      </trkpt>
      <trkpt lat="48.51458" lon="7.16617">
        <ele>910</ele>
        <time>2021-02-21T10:06:29.291Z</time>
      </trkpt>
      <trkpt lat="48.51459" lon="7.1662">
        <ele>910</ele>
        <time>2021-02-21T10:06:30.291Z</time>
      </trkpt>
      <trkpt lat="48.51459" lon="7.16622">
        <ele>910</ele>
        <time>2021-02-21T10:06:31.291Z</time>
      </trkpt>
      <trkpt lat="48.51459" lon="7.16623">
        <ele>910</ele>
        <time>2021-02-21T10:06:32.291Z</time>
      </trkpt>
      <trkpt lat="48.51459" lon="7.16624">
        <ele>910</ele>
        <time>2021-02-21T10:06:33.291Z</time>
      </trkpt>
      <trkpt lat="48.51459" lon="7.16625">
        <ele>909</ele>
        <time>2021-02-21T10:06:34.291Z</time>
      </trkpt>
      <trkpt lat="48.51459" lon="7.16627">
        <ele>908</ele>
        <time>2021-02-21T10:06:35.291Z</time>
      </trkpt>
      <trkpt lat="48.51459" lon="7.16628">
        <ele>908</ele>
        <time>2021-02-21T10:06:36.291Z</time>
      </trkpt>
      <trkpt lat="48.51459" lon="7.1663">
        <ele>908</ele>
        <time>2021-02-21T10:06:37.291Z</time>
      </trkpt>
      <trkpt lat="48.5146" lon="7.16631">
        <ele>908</ele>
        <time>2021-02-21T10:06:38.291Z</time>
      </trkpt>
      <trkpt lat="48.5146" lon="7.16632">
        <ele>907</ele>
        <time>2021-02-21T10:06:39.291Z</time>
      </trkpt>
      <trkpt lat="48.5146" lon="7.16633">
        <ele>907</ele>
        <time>2021-02-21T10:06:40.291Z</time>
      </trkpt>
      <trkpt lat="48.5146" lon="7.16634">
        <ele>906</ele>
        <time>2021-02-21T10:06:41.291Z</time>
      </trkpt>
      <trkpt lat="48.5146" lon="7.16635">
        <ele>905</ele>
        <time>2021-02-21T10:06:42.291Z</time>
      </trkpt>
      <trkpt lat="48.51459" lon="7.16636">
        <ele>904</ele>
        <time>2021-02-21T10:06:43.291Z</time>
      </trkpt>
      <trkpt lat="48.51459" lon="7.16637">
        <ele>903</ele>
        <time>2021-02-21T10:06:44.291Z</time>
      </trkpt>
      <trkpt lat="48.51459" lon="7.16639">
        <ele>902</ele>
        <time>2021-02-21T10:06:45.291Z</time>
      </trkpt>
      <trkpt lat="48.51459" lon="7.1664">
        <ele>902</ele>
        <time>2021-02-21T10:06:46.291Z</time>
      </trkpt>
      <trkpt lat="48.51459" lon="7.16641">
        <ele>902</ele>
        <time>2021-02-21T10:06:47.291Z</time>
      </trkpt>
      <trkpt lat="48.51459" lon="7.16642">
        <ele>902</ele>
        <time>2021-02-21T10:06:48.291Z</time>
      </trkpt>
      <trkpt lat="48.51459" lon="7.16643">
        <ele>902</ele>
        <time>2021-02-21T10:06:49.291Z</time>
      </trkpt>
      <trkpt lat="48.51459" lon="7.16644">
        <ele>902</ele>
        <time>2021-02-21T10:06:50.291Z</time>
      </trkpt>
      <trkpt lat="48.51459" lon="7.16645">
        <ele>902</ele>
        <time>2021-02-21T10:06:51.291Z</time>
      </trkpt>
      <trkpt lat="48.51459" lon="7.16646">
        <ele>902</ele>
        <time>2021-02-21T10:06:52.291Z</time>
      </trkpt>
      <trkpt lat="48.51458" lon="7.16648">
        <ele>902</ele>
        <time>2021-02-21T10:06:53.291Z</time>
      </trkpt>
      <trkpt lat="48.51458" lon="7.16649">
        <ele>901</ele>
        <time>2021-02-21T10:06:54.291Z</time>
      </trkpt>
      <trkpt lat="48.51458" lon="7.16651">
        <ele>901</ele>
        <time>2021-02-21T10:06:55.291Z</time>
      </trkpt>
      <trkpt lat="48.51458" lon="7.16653">
        <ele>902</ele>
        <time>2021-02-21T10:06:56.291Z</time>
      </trkpt>
      <trkpt lat="48.51458" lon="7.16655">
        <ele>902</ele>
        <time>2021-02-21T10:06:57.291Z</time>
      </trkpt>
      <trkpt lat="48.51458" lon="7.16656">
        <ele>902</ele>
        <time>2021-02-21T10:06:58.291Z</time>
      </trkpt>
      <trkpt lat="48.51458" lon="7.16657">
        <ele>902</ele>
        <time>2021-02-21T10:06:59.291Z</time>
      </trkpt>
      <trkpt lat="48.51458" lon="7.16658">
        <ele>902</ele>
        <time>2021-02-21T10:07:00.291Z</time>
      </trkpt>
      <trkpt lat="48.51457" lon="7.16659">
        <ele>902</ele>
        <time>2021-02-21T10:07:01.291Z</time>
      </trkpt>
      <trkpt lat="48.51457" lon="7.1666">
        <ele>902</ele>
        <time>2021-02-21T10:07:02.291Z</time>
      </trkpt>
      <trkpt lat="48.51456" lon="7.16662">
        <ele>902</ele>
        <time>2021-02-21T10:07:03.291Z</time>
      </trkpt>
      <trkpt lat="48.51456" lon="7.16663">
        <ele>902</ele>
        <time>2021-02-21T10:07:04.291Z</time>
      </trkpt>
      <trkpt lat="48.51456" lon="7.16664">
        <ele>901</ele>
        <time>2021-02-21T10:07:05.291Z</time>
      </trkpt>
      <trkpt lat="48.51456" lon="7.16664">
        <ele>901</ele>
        <time>2021-02-21T10:07:06.291Z</time>
      </trkpt>
      <trkpt lat="48.51456" lon="7.16665">
        <ele>902</ele>
        <time>2021-02-21T10:07:07.291Z</time>
      </trkpt>
      <trkpt lat="48.51455" lon="7.16666">
        <ele>902</ele>
        <time>2021-02-21T10:07:08.291Z</time>
      </trkpt>
      <trkpt lat="48.51455" lon="7.16667">
        <ele>902</ele>
        <time>2021-02-21T10:07:09.291Z</time>
      </trkpt>
      <trkpt lat="48.51454" lon="7.16668">
        <ele>902</ele>
        <time>2021-02-21T10:07:10.291Z</time>
      </trkpt>
      <trkpt lat="48.51454" lon="7.16668">
        <ele>902</ele>
        <time>2021-02-21T10:07:11.291Z</time>
      </trkpt>
      <trkpt lat="48.51454" lon="7.16669">
        <ele>902</ele>
        <time>2021-02-21T10:07:12.291Z</time>
      </trkpt>
      <trkpt lat="48.51453" lon="7.1667">
        <ele>901</ele>
        <time>2021-02-21T10:07:13.291Z</time>
      </trkpt>
      <trkpt lat="48.51453" lon="7.16671">
        <ele>901</ele>
        <time>2021-02-21T10:07:14.291Z</time>
      </trkpt>
      <trkpt lat="48.51453" lon="7.16672">
        <ele>902</ele>
        <time>2021-02-21T10:07:15.291Z</time>
      </trkpt>
      <trkpt lat="48.51453" lon="7.16673">
        <ele>902</ele>
        <time>2021-02-21T10:07:16.291Z</time>
      </trkpt>
      <trkpt lat="48.51453" lon="7.16674">
        <ele>902</ele>
        <time>2021-02-21T10:07:17.291Z</time>
      </trkpt>
      <trkpt lat="48.51452" lon="7.16675">
        <ele>903</ele>
        <time>2021-02-21T10:07:18.291Z</time>
      </trkpt>
      <trkpt lat="48.51451" lon="7.16676">
        <ele>903</ele>
        <time>2021-02-21T10:07:19.291Z</time>
      </trkpt>
      <trkpt lat="48.51451" lon="7.16677">
        <ele>904</ele>
        <time>2021-02-21T10:07:20.291Z</time>
      </trkpt>
      <trkpt lat="48.51451" lon="7.16678">
        <ele>903</ele>
        <time>2021-02-21T10:07:21.291Z</time>
      </trkpt>
      <trkpt lat="48.5145" lon="7.16678">
        <ele>903</ele>
        <time>2021-02-21T10:07:22.291Z</time>
      </trkpt>
      <trkpt lat="48.5145" lon="7.16679">
        <ele>903</ele>
        <time>2021-02-21T10:07:23.291Z</time>
      </trkpt>
      <trkpt lat="48.51449" lon="7.1668">
        <ele>903</ele>
        <time>2021-02-21T10:07:24.291Z</time>
      </trkpt>
      <trkpt lat="48.51449" lon="7.16681">
        <ele>903</ele>
        <time>2021-02-21T10:07:25.291Z</time>
      </trkpt>
      <trkpt lat="48.51448" lon="7.16681">
        <ele>902</ele>
        <time>2021-02-21T10:07:26.291Z</time>
      </trkpt>
      <trkpt lat="48.51447" lon="7.16682">
        <ele>902</ele>
        <time>2021-02-21T10:07:27.291Z</time>
      </trkpt>
      <trkpt lat="48.51447" lon="7.16681">
        <ele>902</ele>
        <time>2021-02-21T10:07:28.291Z</time>
      </trkpt>
      <trkpt lat="48.51446" lon="7.16682">
        <ele>901</ele>
        <time>2021-02-21T10:07:29.291Z</time>
      </trkpt>
      <trkpt lat="48.51446" lon="7.16683">
        <ele>900</ele>
        <time>2021-02-21T10:07:30.291Z</time>
      </trkpt>
      <trkpt lat="48.51445" lon="7.16683">
        <ele>900</ele>
        <time>2021-02-21T10:07:31.291Z</time>
      </trkpt>
      <trkpt lat="48.51445" lon="7.16684">
        <ele>900</ele>
        <time>2021-02-21T10:07:32.291Z</time>
      </trkpt>
      <trkpt lat="48.51444" lon="7.16685">
        <ele>900</ele>
        <time>2021-02-21T10:07:33.291Z</time>
      </trkpt>
      <trkpt lat="48.51443" lon="7.16685">
        <ele>900</ele>
        <time>2021-02-21T10:07:34.291Z</time>
      </trkpt>
      <trkpt lat="48.51442" lon="7.16685">
        <ele>900</ele>
        <time>2021-02-21T10:07:35.291Z</time>
      </trkpt>
      <trkpt lat="48.51441" lon="7.16685">
        <ele>899</ele>
        <time>2021-02-21T10:07:36.291Z</time>
      </trkpt>
      <trkpt lat="48.51439" lon="7.16685">
        <ele>898</ele>
        <time>2021-02-21T10:07:37.291Z</time>
      </trkpt>
      <trkpt lat="48.51439" lon="7.16685">
        <ele>898</ele>
        <time>2021-02-21T10:07:38.291Z</time>
      </trkpt>
      <trkpt lat="48.51438" lon="7.16685">
        <ele>898</ele>
        <time>2021-02-21T10:07:39.291Z</time>
      </trkpt>
      <trkpt lat="48.51438" lon="7.16686">
        <ele>897</ele>
        <time>2021-02-21T10:07:40.291Z</time>
      </trkpt>
      <trkpt lat="48.51438" lon="7.16687">
        <ele>896</ele>
        <time>2021-02-21T10:07:41.291Z</time>
      </trkpt>
      <trkpt lat="48.51438" lon="7.16688">
        <ele>896</ele>
        <time>2021-02-21T10:07:42.291Z</time>
      </trkpt>
      <trkpt lat="48.51439" lon="7.16688">
        <ele>895</ele>
        <time>2021-02-21T10:07:43.292Z</time>
      </trkpt>
      <trkpt lat="48.51439" lon="7.16688">
        <ele>895</ele>
        <time>2021-02-21T10:07:44.291Z</time>
      </trkpt>
      <trkpt lat="48.5144" lon="7.16689">
        <ele>895</ele>
        <time>2021-02-21T10:07:45.291Z</time>
      </trkpt>
      <trkpt lat="48.5144" lon="7.16688">
        <ele>896</ele>
        <time>2021-02-21T10:07:46.291Z</time>
      </trkpt>
      <trkpt lat="48.51442" lon="7.16688">
        <ele>896</ele>
        <time>2021-02-21T10:07:47.291Z</time>
      </trkpt>
      <trkpt lat="48.51443" lon="7.16688">
        <ele>896</ele>
        <time>2021-02-21T10:07:48.291Z</time>
      </trkpt>
      <trkpt lat="48.51444" lon="7.16688">
        <ele>897</ele>
        <time>2021-02-21T10:07:49.292Z</time>
      </trkpt>
      <trkpt lat="48.51445" lon="7.16689">
        <ele>898</ele>
        <time>2021-02-21T10:07:50.291Z</time>
      </trkpt>
      <trkpt lat="48.51446" lon="7.16689">
        <ele>898</ele>
        <time>2021-02-21T10:07:51.291Z</time>
      </trkpt>
      <trkpt lat="48.51447" lon="7.16689">
        <ele>899</ele>
        <time>2021-02-21T10:07:52.291Z</time>
      </trkpt>
      <trkpt lat="48.51448" lon="7.16688">
        <ele>899</ele>
        <time>2021-02-21T10:07:53.292Z</time>
      </trkpt>
      <trkpt lat="48.51449" lon="7.16689">
        <ele>900</ele>
        <time>2021-02-21T10:07:54.291Z</time>
      </trkpt>
      <trkpt lat="48.5145" lon="7.16689">
        <ele>900</ele>
        <time>2021-02-21T10:07:55.291Z</time>
      </trkpt>
      <trkpt lat="48.51451" lon="7.1669">
        <ele>900</ele>
        <time>2021-02-21T10:07:56.291Z</time>
      </trkpt>
      <trkpt lat="48.51452" lon="7.1669">
        <ele>900</ele>
        <time>2021-02-21T10:07:57.292Z</time>
      </trkpt>
      <trkpt lat="48.51452" lon="7.1669">
        <ele>899</ele>
        <time>2021-02-21T10:07:58.291Z</time>
      </trkpt>
      <trkpt lat="48.51453" lon="7.1669">
        <ele>899</ele>
        <time>2021-02-21T10:07:59.292Z</time>
      </trkpt>
      <trkpt lat="48.51453" lon="7.16691">
        <ele>898</ele>
        <time>2021-02-21T10:08:00.291Z</time>
      </trkpt>
      <trkpt lat="48.51454" lon="7.16691">
        <ele>897</ele>
        <time>2021-02-21T10:08:01.291Z</time>
      </trkpt>
      <trkpt lat="48.51455" lon="7.16691">
        <ele>897</ele>
        <time>2021-02-21T10:08:02.291Z</time>
      </trkpt>
      <trkpt lat="48.51456" lon="7.16692">
        <ele>896</ele>
        <time>2021-02-21T10:08:03.291Z</time>
      </trkpt>
      <trkpt lat="48.51457" lon="7.16693">
        <ele>896</ele>
        <time>2021-02-21T10:08:04.291Z</time>
      </trkpt>
      <trkpt lat="48.51458" lon="7.16693">
        <ele>895</ele>
        <time>2021-02-21T10:08:05.292Z</time>
      </trkpt>
      <trkpt lat="48.51459" lon="7.16693">
        <ele>895</ele>
        <time>2021-02-21T10:08:06.291Z</time>
      </trkpt>
      <trkpt lat="48.51461" lon="7.16693">
        <ele>895</ele>
        <time>2021-02-21T10:08:07.291Z</time>
      </trkpt>
      <trkpt lat="48.51461" lon="7.16693">
        <ele>895</ele>
        <time>2021-02-21T10:08:08.292Z</time>
      </trkpt>
      <trkpt lat="48.51462" lon="7.16693">
        <ele>895</ele>
        <time>2021-02-21T10:08:09.292Z</time>
      </trkpt>
      <trkpt lat="48.51463" lon="7.16693">
        <ele>895</ele>
        <time>2021-02-21T10:08:10.291Z</time>
      </trkpt>
      <trkpt lat="48.51464" lon="7.16693">
        <ele>895</ele>
        <time>2021-02-21T10:08:11.292Z</time>
      </trkpt>
      <trkpt lat="48.51464" lon="7.16693">
        <ele>895</ele>
        <time>2021-02-21T10:08:12.292Z</time>
      </trkpt>
      <trkpt lat="48.51464" lon="7.16694">
        <ele>894</ele>
        <time>2021-02-21T10:08:13.291Z</time>
      </trkpt>
      <trkpt lat="48.51464" lon="7.16694">
        <ele>894</ele>
        <time>2021-02-21T10:08:14.292Z</time>
      </trkpt>
      <trkpt lat="48.51463" lon="7.16695">
        <ele>893</ele>
        <time>2021-02-21T10:08:15.292Z</time>
      </trkpt>
      <trkpt lat="48.51463" lon="7.16696">
        <ele>893</ele>
        <time>2021-02-21T10:08:16.291Z</time>
      </trkpt>
      <trkpt lat="48.51462" lon="7.16696">
        <ele>894</ele>
        <time>2021-02-21T10:08:17.292Z</time>
      </trkpt>
      <trkpt lat="48.51461" lon="7.16697">
        <ele>894</ele>
        <time>2021-02-21T10:08:18.292Z</time>
      </trkpt>
      <trkpt lat="48.51461" lon="7.16697">
        <ele>894</ele>
        <time>2021-02-21T10:08:19.292Z</time>
      </trkpt>
      <trkpt lat="48.5146" lon="7.16699">
        <ele>894</ele>
        <time>2021-02-21T10:08:20.292Z</time>
      </trkpt>
      <trkpt lat="48.51459" lon="7.167">
        <ele>894</ele>
        <time>2021-02-21T10:08:21.292Z</time>
      </trkpt>
      <trkpt lat="48.51458" lon="7.16701">
        <ele>894</ele>
        <time>2021-02-21T10:08:22.291Z</time>
      </trkpt>
      <trkpt lat="48.51457" lon="7.16702">
        <ele>894</ele>
        <time>2021-02-21T10:08:23.291Z</time>
      </trkpt>
      <trkpt lat="48.51456" lon="7.16702">
        <ele>893</ele>
        <time>2021-02-21T10:08:24.291Z</time>
      </trkpt>
      <trkpt lat="48.51455" lon="7.16702">
        <ele>893</ele>
        <time>2021-02-21T10:08:25.291Z</time>
      </trkpt>
      <trkpt lat="48.51455" lon="7.16702">
        <ele>893</ele>
        <time>2021-02-21T10:08:26.291Z</time>
      </trkpt>
      <trkpt lat="48.51455" lon="7.16703">
        <ele>893</ele>
        <time>2021-02-21T10:08:27.291Z</time>
      </trkpt>
      <trkpt lat="48.51454" lon="7.16704">
        <ele>893</ele>
        <time>2021-02-21T10:08:28.291Z</time>
      </trkpt>
      <trkpt lat="48.51453" lon="7.16706">
        <ele>893</ele>
        <time>2021-02-21T10:08:29.291Z</time>
      </trkpt>
      <trkpt lat="48.51452" lon="7.16708">
        <ele>893</ele>
        <time>2021-02-21T10:08:30.292Z</time>
      </trkpt>
      <trkpt lat="48.51451" lon="7.16709">
        <ele>892</ele>
        <time>2021-02-21T10:08:31.291Z</time>
      </trkpt>
      <trkpt lat="48.5145" lon="7.1671">
        <ele>892</ele>
        <time>2021-02-21T10:08:32.292Z</time>
      </trkpt>
      <trkpt lat="48.51448" lon="7.1671">
        <ele>892</ele>
        <time>2021-02-21T10:08:33.292Z</time>
      </trkpt>
      <trkpt lat="48.51447" lon="7.16709">
        <ele>892</ele>
        <time>2021-02-21T10:08:34.292Z</time>
      </trkpt>
      <trkpt lat="48.51447" lon="7.16709">
        <ele>892</ele>
        <time>2021-02-21T10:08:35.292Z</time>
      </trkpt>
      <trkpt lat="48.51446" lon="7.16709">
        <ele>892</ele>
        <time>2021-02-21T10:08:36.291Z</time>
      </trkpt>
      <trkpt lat="48.51446" lon="7.16709">
        <ele>892</ele>
        <time>2021-02-21T10:08:37.292Z</time>
      </trkpt>
      <trkpt lat="48.51445" lon="7.1671">
        <ele>892</ele>
        <time>2021-02-21T10:08:38.292Z</time>
      </trkpt>
      <trkpt lat="48.51445" lon="7.1671">
        <ele>891</ele>
        <time>2021-02-21T10:08:39.292Z</time>
      </trkpt>
      <trkpt lat="48.51444" lon="7.1671">
        <ele>891</ele>
        <time>2021-02-21T10:08:40.292Z</time>
      </trkpt>
      <trkpt lat="48.51444" lon="7.16711">
        <ele>891</ele>
        <time>2021-02-21T10:08:41.291Z</time>
      </trkpt>
      <trkpt lat="48.51443" lon="7.16712">
        <ele>891</ele>
        <time>2021-02-21T10:08:42.292Z</time>
      </trkpt>
      <trkpt lat="48.51443" lon="7.16713">
        <ele>890</ele>
        <time>2021-02-21T10:08:43.291Z</time>
      </trkpt>
      <trkpt lat="48.51442" lon="7.16713">
        <ele>890</ele>
        <time>2021-02-21T10:08:44.291Z</time>
      </trkpt>
      <trkpt lat="48.51442" lon="7.16714">
        <ele>890</ele>
        <time>2021-02-21T10:08:45.291Z</time>
      </trkpt>
      <trkpt lat="48.51441" lon="7.16714">
        <ele>890</ele>
        <time>2021-02-21T10:08:46.291Z</time>
      </trkpt>
      <trkpt lat="48.5144" lon="7.16715">
        <ele>889</ele>
        <time>2021-02-21T10:08:47.291Z</time>
      </trkpt>
      <trkpt lat="48.51439" lon="7.16715">
        <ele>888</ele>
        <time>2021-02-21T10:08:48.291Z</time>
      </trkpt>
      <trkpt lat="48.51438" lon="7.16716">
        <ele>888</ele>
        <time>2021-02-21T10:08:49.292Z</time>
      </trkpt>
      <trkpt lat="48.51437" lon="7.16717">
        <ele>888</ele>
        <time>2021-02-21T10:08:50.292Z</time>
      </trkpt>
      <trkpt lat="48.51437" lon="7.16717">
        <ele>887</ele>
        <time>2021-02-21T10:08:51.292Z</time>
      </trkpt>
      <trkpt lat="48.51437" lon="7.16717">
        <ele>887</ele>
        <time>2021-02-21T10:08:52.292Z</time>
      </trkpt>
      <trkpt lat="48.51436" lon="7.16717">
        <ele>886</ele>
        <time>2021-02-21T10:08:53.292Z</time>
      </trkpt>
      <trkpt lat="48.51436" lon="7.16718">
        <ele>885</ele>
        <time>2021-02-21T10:08:54.292Z</time>
      </trkpt>
      <trkpt lat="48.51436" lon="7.16718">
        <ele>885</ele>
        <time>2021-02-21T10:08:55.291Z</time>
      </trkpt>
      <trkpt lat="48.51435" lon="7.1672">
        <ele>885</ele>
        <time>2021-02-21T10:08:56.291Z</time>
      </trkpt>
      <trkpt lat="48.51434" lon="7.16722">
        <ele>885</ele>
        <time>2021-02-21T10:08:57.291Z</time>
      </trkpt>
      <trkpt lat="48.51433" lon="7.16724">
        <ele>885</ele>
        <time>2021-02-21T10:08:58.291Z</time>
      </trkpt>
      <trkpt lat="48.51433" lon="7.16724">
        <ele>886</ele>
        <time>2021-02-21T10:08:59.292Z</time>
      </trkpt>
      <trkpt lat="48.51432" lon="7.16724">
        <ele>886</ele>
        <time>2021-02-21T10:09:00.292Z</time>
      </trkpt>
      <trkpt lat="48.51432" lon="7.16723">
        <ele>886</ele>
        <time>2021-02-21T10:09:01.291Z</time>
      </trkpt>
      <trkpt lat="48.51431" lon="7.16723">
        <ele>886</ele>
        <time>2021-02-21T10:09:02.291Z</time>
      </trkpt>
      <trkpt lat="48.51431" lon="7.16723">
        <ele>886</ele>
        <time>2021-02-21T10:09:03.292Z</time>
      </trkpt>
      <trkpt lat="48.5143" lon="7.16725">
        <ele>887</ele>
        <time>2021-02-21T10:09:04.291Z</time>
      </trkpt>
      <trkpt lat="48.51429" lon="7.16726">
        <ele>887</ele>
        <time>2021-02-21T10:09:05.292Z</time>
      </trkpt>
      <trkpt lat="48.51428" lon="7.16726">
        <ele>888</ele>
        <time>2021-02-21T10:09:06.291Z</time>
      </trkpt>
      <trkpt lat="48.51427" lon="7.16727">
        <ele>888</ele>
        <time>2021-02-21T10:09:07.291Z</time>
      </trkpt>
      <trkpt lat="48.51425" lon="7.16728">
        <ele>889</ele>
        <time>2021-02-21T10:09:08.291Z</time>
      </trkpt>
      <trkpt lat="48.51424" lon="7.16729">
        <ele>889</ele>
        <time>2021-02-21T10:09:09.292Z</time>
      </trkpt>
      <trkpt lat="48.51423" lon="7.1673">
        <ele>889</ele>
        <time>2021-02-21T10:09:10.291Z</time>
      </trkpt>
      <trkpt lat="48.51422" lon="7.16732">
        <ele>889</ele>
        <time>2021-02-21T10:09:11.291Z</time>
      </trkpt>
      <trkpt lat="48.51421" lon="7.16733">
        <ele>890</ele>
        <time>2021-02-21T10:09:12.292Z</time>
      </trkpt>
      <trkpt lat="48.5142" lon="7.16734">
        <ele>890</ele>
        <time>2021-02-21T10:09:13.292Z</time>
      </trkpt>
      <trkpt lat="48.51419" lon="7.16736">
        <ele>891</ele>
        <time>2021-02-21T10:09:14.291Z</time>
      </trkpt>
      <trkpt lat="48.51418" lon="7.16737">
        <ele>891</ele>
        <time>2021-02-21T10:09:15.291Z</time>
      </trkpt>
      <trkpt lat="48.51417" lon="7.16738">
        <ele>891</ele>
        <time>2021-02-21T10:09:16.291Z</time>
      </trkpt>
      <trkpt lat="48.51416" lon="7.1674">
        <ele>890</ele>
        <time>2021-02-21T10:09:17.292Z</time>
      </trkpt>
      <trkpt lat="48.51415" lon="7.16741">
        <ele>890</ele>
        <time>2021-02-21T10:09:18.291Z</time>
      </trkpt>
      <trkpt lat="48.51414" lon="7.16742">
        <ele>889</ele>
        <time>2021-02-21T10:09:19.291Z</time>
      </trkpt>
      <trkpt lat="48.51413" lon="7.16742">
        <ele>888</ele>
        <time>2021-02-21T10:09:20.292Z</time>
      </trkpt>
      <trkpt lat="48.51412" lon="7.16743">
        <ele>887</ele>
        <time>2021-02-21T10:09:21.291Z</time>
      </trkpt>
      <trkpt lat="48.51411" lon="7.16744">
        <ele>887</ele>
        <time>2021-02-21T10:09:22.291Z</time>
      </trkpt>
      <trkpt lat="48.5141" lon="7.16745">
        <ele>886</ele>
        <time>2021-02-21T10:09:23.291Z</time>
      </trkpt>
      <trkpt lat="48.5141" lon="7.16746">
        <ele>886</ele>
        <time>2021-02-21T10:09:24.292Z</time>
      </trkpt>
      <trkpt lat="48.51409" lon="7.16747">
        <ele>885</ele>
        <time>2021-02-21T10:09:25.291Z</time>
      </trkpt>
      <trkpt lat="48.51409" lon="7.16748">
        <ele>885</ele>
        <time>2021-02-21T10:09:26.291Z</time>
      </trkpt>
      <trkpt lat="48.51408" lon="7.16749">
        <ele>885</ele>
        <time>2021-02-21T10:09:27.291Z</time>
      </trkpt>
      <trkpt lat="48.51407" lon="7.1675">
        <ele>884</ele>
        <time>2021-02-21T10:09:28.291Z</time>
      </trkpt>
      <trkpt lat="48.51407" lon="7.16751">
        <ele>885</ele>
        <time>2021-02-21T10:09:29.291Z</time>
      </trkpt>
      <trkpt lat="48.51406" lon="7.16752">
        <ele>885</ele>
        <time>2021-02-21T10:09:30.292Z</time>
      </trkpt>
      <trkpt lat="48.51406" lon="7.16753">
        <ele>885</ele>
        <time>2021-02-21T10:09:31.292Z</time>
      </trkpt>
      <trkpt lat="48.51406" lon="7.16754">
        <ele>886</ele>
        <time>2021-02-21T10:09:32.291Z</time>
      </trkpt>
      <trkpt lat="48.51406" lon="7.16755">
        <ele>886</ele>
        <time>2021-02-21T10:09:33.291Z</time>
      </trkpt>
      <trkpt lat="48.51405" lon="7.16755">
        <ele>886</ele>
        <time>2021-02-21T10:09:34.292Z</time>
      </trkpt>
      <trkpt lat="48.51405" lon="7.16757">
        <ele>886</ele>
        <time>2021-02-21T10:09:35.292Z</time>
      </trkpt>
      <trkpt lat="48.51404" lon="7.16757">
        <ele>886</ele>
        <time>2021-02-21T10:09:36.291Z</time>
      </trkpt>
      <trkpt lat="48.51404" lon="7.16758">
        <ele>886</ele>
        <time>2021-02-21T10:09:37.291Z</time>
      </trkpt>
      <trkpt lat="48.51404" lon="7.16759">
        <ele>885</ele>
        <time>2021-02-21T10:09:38.291Z</time>
      </trkpt>
      <trkpt lat="48.51404" lon="7.1676">
        <ele>884</ele>
        <time>2021-02-21T10:09:39.291Z</time>
      </trkpt>
      <trkpt lat="48.51404" lon="7.16761">
        <ele>884</ele>
        <time>2021-02-21T10:09:40.291Z</time>
      </trkpt>
      <trkpt lat="48.51405" lon="7.1676">
        <ele>884</ele>
        <time>2021-02-21T10:09:41.292Z</time>
      </trkpt>
      <trkpt lat="48.51406" lon="7.16759">
        <ele>884</ele>
        <time>2021-02-21T10:09:42.292Z</time>
      </trkpt>
      <trkpt lat="48.51406" lon="7.16758">
        <ele>884</ele>
        <time>2021-02-21T10:09:43.292Z</time>
      </trkpt>
      <trkpt lat="48.51407" lon="7.16757">
        <ele>885</ele>
        <time>2021-02-21T10:09:44.291Z</time>
      </trkpt>
      <trkpt lat="48.51408" lon="7.16757">
        <ele>885</ele>
        <time>2021-02-21T10:09:45.292Z</time>
      </trkpt>
      <trkpt lat="48.51408" lon="7.16757">
        <ele>886</ele>
        <time>2021-02-21T10:09:46.291Z</time>
      </trkpt>
      <trkpt lat="48.51408" lon="7.16757">
        <ele>886</ele>
        <time>2021-02-21T10:09:47.291Z</time>
      </trkpt>
      <trkpt lat="48.51408" lon="7.16757">
        <ele>886</ele>
        <time>2021-02-21T10:09:48.291Z</time>
      </trkpt>
      <trkpt lat="48.51414" lon="7.16755">
        <ele>886</ele>
        <time>2021-02-21T10:09:49.292Z</time>
      </trkpt>
      <trkpt lat="48.51415" lon="7.16756">
        <ele>886</ele>
        <time>2021-02-21T10:09:50.291Z</time>
      </trkpt>
      <trkpt lat="48.51417" lon="7.16755">
        <ele>886</ele>
        <time>2021-02-21T10:09:51.291Z</time>
      </trkpt>
      <trkpt lat="48.51422" lon="7.16753">
        <ele>886</ele>
        <time>2021-02-21T10:09:52.292Z</time>
      </trkpt>
      <trkpt lat="48.51423" lon="7.16753">
        <ele>886</ele>
        <time>2021-02-21T10:09:53.291Z</time>
      </trkpt>
      <trkpt lat="48.51424" lon="7.16752">
        <ele>886</ele>
        <time>2021-02-21T10:09:54.291Z</time>
      </trkpt>
      <trkpt lat="48.51425" lon="7.16752">
        <ele>886</ele>
        <time>2021-02-21T10:09:55.291Z</time>
      </trkpt>
      <trkpt lat="48.51426" lon="7.16752">
        <ele>887</ele>
        <time>2021-02-21T10:09:56.292Z</time>
      </trkpt>
      <trkpt lat="48.51427" lon="7.16751">
        <ele>887</ele>
        <time>2021-02-21T10:09:57.292Z</time>
      </trkpt>
      <trkpt lat="48.51428" lon="7.16751">
        <ele>887</ele>
        <time>2021-02-21T10:09:58.292Z</time>
      </trkpt>
      <trkpt lat="48.51429" lon="7.16752">
        <ele>887</ele>
        <time>2021-02-21T10:09:59.291Z</time>
      </trkpt>
      <trkpt lat="48.51431" lon="7.16752">
        <ele>887</ele>
        <time>2021-02-21T10:10:00.291Z</time>
      </trkpt>
      <trkpt lat="48.51433" lon="7.16753">
        <ele>886</ele>
        <time>2021-02-21T10:10:01.291Z</time>
      </trkpt>
      <trkpt lat="48.51434" lon="7.16753">
        <ele>886</ele>
        <time>2021-02-21T10:10:02.291Z</time>
      </trkpt>
      <trkpt lat="48.51435" lon="7.16753">
        <ele>886</ele>
        <time>2021-02-21T10:10:03.291Z</time>
      </trkpt>
      <trkpt lat="48.51435" lon="7.16753">
        <ele>886</ele>
        <time>2021-02-21T10:10:04.291Z</time>
      </trkpt>
      <trkpt lat="48.51436" lon="7.16752">
        <ele>886</ele>
        <time>2021-02-21T10:10:05.292Z</time>
      </trkpt>
      <trkpt lat="48.51437" lon="7.16751">
        <ele>886</ele>
        <time>2021-02-21T10:10:06.292Z</time>
      </trkpt>
      <trkpt lat="48.51438" lon="7.16752">
        <ele>886</ele>
        <time>2021-02-21T10:10:07.291Z</time>
      </trkpt>
      <trkpt lat="48.51439" lon="7.16752">
        <ele>885</ele>
        <time>2021-02-21T10:10:08.291Z</time>
      </trkpt>
      <trkpt lat="48.51439" lon="7.16753">
        <ele>885</ele>
        <time>2021-02-21T10:10:09.291Z</time>
      </trkpt>
      <trkpt lat="48.5144" lon="7.16754">
        <ele>884</ele>
        <time>2021-02-21T10:10:10.291Z</time>
      </trkpt>
      <trkpt lat="48.51441" lon="7.16755">
        <ele>884</ele>
        <time>2021-02-21T10:10:11.292Z</time>
      </trkpt>
      <trkpt lat="48.51442" lon="7.16755">
        <ele>883</ele>
        <time>2021-02-21T10:10:12.292Z</time>
      </trkpt>
      <trkpt lat="48.51443" lon="7.16755">
        <ele>883</ele>
        <time>2021-02-21T10:10:13.291Z</time>
      </trkpt>
      <trkpt lat="48.51444" lon="7.16755">
        <ele>883</ele>
        <time>2021-02-21T10:10:14.291Z</time>
      </trkpt>
      <trkpt lat="48.51446" lon="7.16755">
        <ele>882</ele>
        <time>2021-02-21T10:10:15.291Z</time>
      </trkpt>
      <trkpt lat="48.51448" lon="7.16755">
        <ele>882</ele>
        <time>2021-02-21T10:10:16.291Z</time>
      </trkpt>
      <trkpt lat="48.51449" lon="7.16755">
        <ele>881</ele>
        <time>2021-02-21T10:10:17.291Z</time>
      </trkpt>
      <trkpt lat="48.5145" lon="7.16756">
        <ele>881</ele>
        <time>2021-02-21T10:10:18.292Z</time>
      </trkpt>
      <trkpt lat="48.51451" lon="7.16756">
        <ele>881</ele>
        <time>2021-02-21T10:10:19.291Z</time>
      </trkpt>
      <trkpt lat="48.51452" lon="7.16756">
        <ele>881</ele>
        <time>2021-02-21T10:10:20.291Z</time>
      </trkpt>
      <trkpt lat="48.51453" lon="7.16757">
        <ele>881</ele>
        <time>2021-02-21T10:10:21.292Z</time>
      </trkpt>
      <trkpt lat="48.51454" lon="7.16757">
        <ele>881</ele>
        <time>2021-02-21T10:10:22.292Z</time>
      </trkpt>
      <trkpt lat="48.51455" lon="7.16758">
        <ele>881</ele>
        <time>2021-02-21T10:10:23.291Z</time>
      </trkpt>
      <trkpt lat="48.51456" lon="7.16758">
        <ele>881</ele>
        <time>2021-02-21T10:10:24.291Z</time>
      </trkpt>
      <trkpt lat="48.51457" lon="7.16758">
        <ele>881</ele>
        <time>2021-02-21T10:10:25.291Z</time>
      </trkpt>
      <trkpt lat="48.51458" lon="7.16758">
        <ele>881</ele>
        <time>2021-02-21T10:10:26.291Z</time>
      </trkpt>
      <trkpt lat="48.51458" lon="7.16759">
        <ele>882</ele>
        <time>2021-02-21T10:10:27.292Z</time>
      </trkpt>
      <trkpt lat="48.51459" lon="7.16759">
        <ele>882</ele>
        <time>2021-02-21T10:10:28.291Z</time>
      </trkpt>
      <trkpt lat="48.5146" lon="7.16759">
        <ele>881</ele>
        <time>2021-02-21T10:10:29.292Z</time>
      </trkpt>
      <trkpt lat="48.51461" lon="7.1676">
        <ele>881</ele>
        <time>2021-02-21T10:10:30.292Z</time>
      </trkpt>
      <trkpt lat="48.51462" lon="7.1676">
        <ele>880</ele>
        <time>2021-02-21T10:10:31.291Z</time>
      </trkpt>
      <trkpt lat="48.51463" lon="7.16761">
        <ele>880</ele>
        <time>2021-02-21T10:10:32.291Z</time>
      </trkpt>
      <trkpt lat="48.51464" lon="7.16761">
        <ele>879</ele>
        <time>2021-02-21T10:10:33.291Z</time>
      </trkpt>
      <trkpt lat="48.51465" lon="7.16762">
        <ele>879</ele>
        <time>2021-02-21T10:10:34.291Z</time>
      </trkpt>
      <trkpt lat="48.51466" lon="7.16763">
        <ele>878</ele>
        <time>2021-02-21T10:10:35.291Z</time>
      </trkpt>
      <trkpt lat="48.51467" lon="7.16763">
        <ele>878</ele>
        <time>2021-02-21T10:10:36.292Z</time>
      </trkpt>
      <trkpt lat="48.51468" lon="7.16763">
        <ele>877</ele>
        <time>2021-02-21T10:10:37.291Z</time>
      </trkpt>
      <trkpt lat="48.51469" lon="7.16764">
        <ele>877</ele>
        <time>2021-02-21T10:10:38.291Z</time>
      </trkpt>
      <trkpt lat="48.5147" lon="7.16764">
        <ele>878</ele>
        <time>2021-02-21T10:10:39.291Z</time>
      </trkpt>
      <trkpt lat="48.51471" lon="7.16765">
        <ele>878</ele>
        <time>2021-02-21T10:10:40.291Z</time>
      </trkpt>
      <trkpt lat="48.51472" lon="7.16766">
        <ele>879</ele>
        <time>2021-02-21T10:10:41.291Z</time>
      </trkpt>
      <trkpt lat="48.51473" lon="7.16766">
        <ele>879</ele>
        <time>2021-02-21T10:10:42.291Z</time>
      </trkpt>
      <trkpt lat="48.51474" lon="7.16766">
        <ele>879</ele>
        <time>2021-02-21T10:10:43.291Z</time>
      </trkpt>
      <trkpt lat="48.51476" lon="7.16766">
        <ele>879</ele>
        <time>2021-02-21T10:10:44.291Z</time>
      </trkpt>
      <trkpt lat="48.51477" lon="7.16767">
        <ele>879</ele>
        <time>2021-02-21T10:10:45.291Z</time>
      </trkpt>
      <trkpt lat="48.51478" lon="7.16767">
        <ele>879</ele>
        <time>2021-02-21T10:10:46.292Z</time>
      </trkpt>
      <trkpt lat="48.51479" lon="7.16768">
        <ele>879</ele>
        <time>2021-02-21T10:10:47.291Z</time>
      </trkpt>
      <trkpt lat="48.51481" lon="7.16768">
        <ele>880</ele>
        <time>2021-02-21T10:10:48.291Z</time>
      </trkpt>
      <trkpt lat="48.51482" lon="7.16769">
        <ele>880</ele>
        <time>2021-02-21T10:10:49.291Z</time>
      </trkpt>
      <trkpt lat="48.51483" lon="7.16769">
        <ele>880</ele>
        <time>2021-02-21T10:10:50.291Z</time>
      </trkpt>
      <trkpt lat="48.51484" lon="7.1677">
        <ele>880</ele>
        <time>2021-02-21T10:10:51.291Z</time>
      </trkpt>
      <trkpt lat="48.51485" lon="7.16771">
        <ele>879</ele>
        <time>2021-02-21T10:10:52.291Z</time>
      </trkpt>
      <trkpt lat="48.51486" lon="7.16771">
        <ele>879</ele>
        <time>2021-02-21T10:10:53.291Z</time>
      </trkpt>
      <trkpt lat="48.51487" lon="7.16771">
        <ele>879</ele>
        <time>2021-02-21T10:10:54.291Z</time>
      </trkpt>
      <trkpt lat="48.51489" lon="7.16771">
        <ele>879</ele>
        <time>2021-02-21T10:10:55.291Z</time>
      </trkpt>
      <trkpt lat="48.51489" lon="7.16771">
        <ele>879</ele>
        <time>2021-02-21T10:10:56.291Z</time>
      </trkpt>
      <trkpt lat="48.5149" lon="7.16772">
        <ele>878</ele>
        <time>2021-02-21T10:10:57.292Z</time>
      </trkpt>
      <trkpt lat="48.51492" lon="7.16771">
        <ele>878</ele>
        <time>2021-02-21T10:10:58.291Z</time>
      </trkpt>
      <trkpt lat="48.51493" lon="7.1677">
        <ele>877</ele>
        <time>2021-02-21T10:10:59.291Z</time>
      </trkpt>
      <trkpt lat="48.51494" lon="7.16768">
        <ele>877</ele>
        <time>2021-02-21T10:11:00.291Z</time>
      </trkpt>
      <trkpt lat="48.51495" lon="7.16767">
        <ele>876</ele>
        <time>2021-02-21T10:11:01.291Z</time>
      </trkpt>
      <trkpt lat="48.51496" lon="7.16766">
        <ele>875</ele>
        <time>2021-02-21T10:11:02.291Z</time>
      </trkpt>
      <trkpt lat="48.51497" lon="7.16765">
        <ele>874</ele>
        <time>2021-02-21T10:11:03.291Z</time>
      </trkpt>
      <trkpt lat="48.51499" lon="7.16764">
        <ele>874</ele>
        <time>2021-02-21T10:11:04.291Z</time>
      </trkpt>
      <trkpt lat="48.515" lon="7.16763">
        <ele>873</ele>
        <time>2021-02-21T10:11:05.291Z</time>
      </trkpt>
      <trkpt lat="48.515" lon="7.16762">
        <ele>872</ele>
        <time>2021-02-21T10:11:06.292Z</time>
      </trkpt>
      <trkpt lat="48.51501" lon="7.16761">
        <ele>871</ele>
        <time>2021-02-21T10:11:07.292Z</time>
      </trkpt>
      <trkpt lat="48.51501" lon="7.1676">
        <ele>871</ele>
        <time>2021-02-21T10:11:08.291Z</time>
      </trkpt>
      <trkpt lat="48.51502" lon="7.16759">
        <ele>870</ele>
        <time>2021-02-21T10:11:09.292Z</time>
      </trkpt>
      <trkpt lat="48.51503" lon="7.16758">
        <ele>870</ele>
        <time>2021-02-21T10:11:10.291Z</time>
      </trkpt>
      <trkpt lat="48.51504" lon="7.16757">
        <ele>870</ele>
        <time>2021-02-21T10:11:11.292Z</time>
      </trkpt>
      <trkpt lat="48.51506" lon="7.16757">
        <ele>869</ele>
        <time>2021-02-21T10:11:12.292Z</time>
      </trkpt>
      <trkpt lat="48.51507" lon="7.16756">
        <ele>869</ele>
        <time>2021-02-21T10:11:13.291Z</time>
      </trkpt>
      <trkpt lat="48.51508" lon="7.16755">
        <ele>868</ele>
        <time>2021-02-21T10:11:14.291Z</time>
      </trkpt>
      <trkpt lat="48.51509" lon="7.16754">
        <ele>867</ele>
        <time>2021-02-21T10:11:15.292Z</time>
      </trkpt>
      <trkpt lat="48.5151" lon="7.16753">
        <ele>866</ele>
        <time>2021-02-21T10:11:16.291Z</time>
      </trkpt>
      <trkpt lat="48.51511" lon="7.16752">
        <ele>865</ele>
        <time>2021-02-21T10:11:17.291Z</time>
      </trkpt>
      <trkpt lat="48.51512" lon="7.1675">
        <ele>865</ele>
        <time>2021-02-21T10:11:18.291Z</time>
      </trkpt>
      <trkpt lat="48.51512" lon="7.16749">
        <ele>864</ele>
        <time>2021-02-21T10:11:19.291Z</time>
      </trkpt>
      <trkpt lat="48.51513" lon="7.16747">
        <ele>864</ele>
        <time>2021-02-21T10:11:20.291Z</time>
      </trkpt>
      <trkpt lat="48.51513" lon="7.16746">
        <ele>863</ele>
        <time>2021-02-21T10:11:21.292Z</time>
      </trkpt>
      <trkpt lat="48.51514" lon="7.16745">
        <ele>863</ele>
        <time>2021-02-21T10:11:22.291Z</time>
      </trkpt>
      <trkpt lat="48.51514" lon="7.16744">
        <ele>862</ele>
        <time>2021-02-21T10:11:23.291Z</time>
      </trkpt>
      <trkpt lat="48.51515" lon="7.16742">
        <ele>862</ele>
        <time>2021-02-21T10:11:24.291Z</time>
      </trkpt>
      <trkpt lat="48.51515" lon="7.16741">
        <ele>862</ele>
        <time>2021-02-21T10:11:25.291Z</time>
      </trkpt>
      <trkpt lat="48.51516" lon="7.16739">
        <ele>862</ele>
        <time>2021-02-21T10:11:26.292Z</time>
      </trkpt>
      <trkpt lat="48.51516" lon="7.16738">
        <ele>862</ele>
        <time>2021-02-21T10:11:27.291Z</time>
      </trkpt>
      <trkpt lat="48.51517" lon="7.16736">
        <ele>862</ele>
        <time>2021-02-21T10:11:28.291Z</time>
      </trkpt>
      <trkpt lat="48.51517" lon="7.16735">
        <ele>861</ele>
        <time>2021-02-21T10:11:29.292Z</time>
      </trkpt>
      <trkpt lat="48.51518" lon="7.16733">
        <ele>861</ele>
        <time>2021-02-21T10:11:30.291Z</time>
      </trkpt>
      <trkpt lat="48.51519" lon="7.16732">
        <ele>861</ele>
        <time>2021-02-21T10:11:31.291Z</time>
      </trkpt>
      <trkpt lat="48.51519" lon="7.16731">
        <ele>861</ele>
        <time>2021-02-21T10:11:32.292Z</time>
      </trkpt>
      <trkpt lat="48.51519" lon="7.16729">
        <ele>860</ele>
        <time>2021-02-21T10:11:33.291Z</time>
      </trkpt>
      <trkpt lat="48.5152" lon="7.16728">
        <ele>860</ele>
        <time>2021-02-21T10:11:34.291Z</time>
      </trkpt>
      <trkpt lat="48.5152" lon="7.16726">
        <ele>859</ele>
        <time>2021-02-21T10:11:35.291Z</time>
      </trkpt>
      <trkpt lat="48.5152" lon="7.16725">
        <ele>859</ele>
        <time>2021-02-21T10:11:36.291Z</time>
      </trkpt>
      <trkpt lat="48.51521" lon="7.16723">
        <ele>858</ele>
        <time>2021-02-21T10:11:37.292Z</time>
      </trkpt>
      <trkpt lat="48.51522" lon="7.16722">
        <ele>858</ele>
        <time>2021-02-21T10:11:38.291Z</time>
      </trkpt>
      <trkpt lat="48.51523" lon="7.1672">
        <ele>857</ele>
        <time>2021-02-21T10:11:39.291Z</time>
      </trkpt>
      <trkpt lat="48.51524" lon="7.16719">
        <ele>857</ele>
        <time>2021-02-21T10:11:40.291Z</time>
      </trkpt>
      <trkpt lat="48.51525" lon="7.16718">
        <ele>857</ele>
        <time>2021-02-21T10:11:41.291Z</time>
      </trkpt>
      <trkpt lat="48.51526" lon="7.16716">
        <ele>857</ele>
        <time>2021-02-21T10:11:42.291Z</time>
      </trkpt>
      <trkpt lat="48.51527" lon="7.16714">
        <ele>856</ele>
        <time>2021-02-21T10:11:43.292Z</time>
      </trkpt>
      <trkpt lat="48.51527" lon="7.16713">
        <ele>856</ele>
        <time>2021-02-21T10:11:44.291Z</time>
      </trkpt>
      <trkpt lat="48.51529" lon="7.16711">
        <ele>856</ele>
        <time>2021-02-21T10:11:45.291Z</time>
      </trkpt>
      <trkpt lat="48.51529" lon="7.1671">
        <ele>856</ele>
        <time>2021-02-21T10:11:46.291Z</time>
      </trkpt>
      <trkpt lat="48.5153" lon="7.16708">
        <ele>856</ele>
        <time>2021-02-21T10:11:47.291Z</time>
      </trkpt>
      <trkpt lat="48.51531" lon="7.16706">
        <ele>856</ele>
        <time>2021-02-21T10:11:48.291Z</time>
      </trkpt>
      <trkpt lat="48.51531" lon="7.16704">
        <ele>856</ele>
        <time>2021-02-21T10:11:49.291Z</time>
      </trkpt>
      <trkpt lat="48.51532" lon="7.16702">
        <ele>855</ele>
        <time>2021-02-21T10:11:50.292Z</time>
      </trkpt>
      <trkpt lat="48.51533" lon="7.16701">
        <ele>855</ele>
        <time>2021-02-21T10:11:51.291Z</time>
      </trkpt>
      <trkpt lat="48.51533" lon="7.16699">
        <ele>854</ele>
        <time>2021-02-21T10:11:52.291Z</time>
      </trkpt>
      <trkpt lat="48.51534" lon="7.16697">
        <ele>854</ele>
        <time>2021-02-21T10:11:53.291Z</time>
      </trkpt>
      <trkpt lat="48.51534" lon="7.16695">
        <ele>854</ele>
        <time>2021-02-21T10:11:54.291Z</time>
      </trkpt>
      <trkpt lat="48.51534" lon="7.16695">
        <ele>854</ele>
        <time>2021-02-21T10:11:55.291Z</time>
      </trkpt>
      <trkpt lat="48.51536" lon="7.16692">
        <ele>853</ele>
        <time>2021-02-21T10:11:56.292Z</time>
      </trkpt>
      <trkpt lat="48.51537" lon="7.16691">
        <ele>853</ele>
        <time>2021-02-21T10:11:57.292Z</time>
      </trkpt>
      <trkpt lat="48.51537" lon="7.16689">
        <ele>853</ele>
        <time>2021-02-21T10:11:58.291Z</time>
      </trkpt>
      <trkpt lat="48.51538" lon="7.16688">
        <ele>853</ele>
        <time>2021-02-21T10:11:59.291Z</time>
      </trkpt>
      <trkpt lat="48.51539" lon="7.16686">
        <ele>853</ele>
        <time>2021-02-21T10:12:00.291Z</time>
      </trkpt>
      <trkpt lat="48.51539" lon="7.16684">
        <ele>853</ele>
        <time>2021-02-21T10:12:01.292Z</time>
      </trkpt>
      <trkpt lat="48.5154" lon="7.16683">
        <ele>854</ele>
        <time>2021-02-21T10:12:02.291Z</time>
      </trkpt>
      <trkpt lat="48.5154" lon="7.16681">
        <ele>854</ele>
        <time>2021-02-21T10:12:03.291Z</time>
      </trkpt>
      <trkpt lat="48.51541" lon="7.16679">
        <ele>854</ele>
        <time>2021-02-21T10:12:04.292Z</time>
      </trkpt>
      <trkpt lat="48.51541" lon="7.16677">
        <ele>854</ele>
        <time>2021-02-21T10:12:05.291Z</time>
      </trkpt>
      <trkpt lat="48.51541" lon="7.16676">
        <ele>853</ele>
        <time>2021-02-21T10:12:06.291Z</time>
      </trkpt>
      <trkpt lat="48.51542" lon="7.16674">
        <ele>853</ele>
        <time>2021-02-21T10:12:07.292Z</time>
      </trkpt>
      <trkpt lat="48.51542" lon="7.16673">
        <ele>853</ele>
        <time>2021-02-21T10:12:08.291Z</time>
      </trkpt>
      <trkpt lat="48.51542" lon="7.16671">
        <ele>853</ele>
        <time>2021-02-21T10:12:09.291Z</time>
      </trkpt>
      <trkpt lat="48.51543" lon="7.1667">
        <ele>853</ele>
        <time>2021-02-21T10:12:10.291Z</time>
      </trkpt>
      <trkpt lat="48.51543" lon="7.1667">
        <ele>853</ele>
        <time>2021-02-21T10:12:11.291Z</time>
      </trkpt>
      <trkpt lat="48.51543" lon="7.16667">
        <ele>852</ele>
        <time>2021-02-21T10:12:12.292Z</time>
      </trkpt>
      <trkpt lat="48.51543" lon="7.16665">
        <ele>852</ele>
        <time>2021-02-21T10:12:13.291Z</time>
      </trkpt>
      <trkpt lat="48.51543" lon="7.16664">
        <ele>852</ele>
        <time>2021-02-21T10:12:14.291Z</time>
      </trkpt>
      <trkpt lat="48.51543" lon="7.16662">
        <ele>852</ele>
        <time>2021-02-21T10:12:15.291Z</time>
      </trkpt>
      <trkpt lat="48.51544" lon="7.16661">
        <ele>852</ele>
        <time>2021-02-21T10:12:16.291Z</time>
      </trkpt>
      <trkpt lat="48.51544" lon="7.16659">
        <ele>851</ele>
        <time>2021-02-21T10:12:17.291Z</time>
      </trkpt>
      <trkpt lat="48.51544" lon="7.16658">
        <ele>851</ele>
        <time>2021-02-21T10:12:18.291Z</time>
      </trkpt>
      <trkpt lat="48.51544" lon="7.16656">
        <ele>852</ele>
        <time>2021-02-21T10:12:19.291Z</time>
      </trkpt>
      <trkpt lat="48.51545" lon="7.16655">
        <ele>852</ele>
        <time>2021-02-21T10:12:20.291Z</time>
      </trkpt>
      <trkpt lat="48.51546" lon="7.16655">
        <ele>851</ele>
        <time>2021-02-21T10:12:21.291Z</time>
      </trkpt>
      <trkpt lat="48.51546" lon="7.16655">
        <ele>851</ele>
        <time>2021-02-21T10:12:22.291Z</time>
      </trkpt>
      <trkpt lat="48.51548" lon="7.16655">
        <ele>851</ele>
        <time>2021-02-21T10:12:23.291Z</time>
      </trkpt>
      <trkpt lat="48.51549" lon="7.16655">
        <ele>851</ele>
        <time>2021-02-21T10:12:24.291Z</time>
      </trkpt>
      <trkpt lat="48.5155" lon="7.16656">
        <ele>852</ele>
        <time>2021-02-21T10:12:25.291Z</time>
      </trkpt>
      <trkpt lat="48.51551" lon="7.16657">
        <ele>852</ele>
        <time>2021-02-21T10:12:26.291Z</time>
      </trkpt>
      <trkpt lat="48.51552" lon="7.16658">
        <ele>853</ele>
        <time>2021-02-21T10:12:27.291Z</time>
      </trkpt>
      <trkpt lat="48.51552" lon="7.16658">
        <ele>853</ele>
        <time>2021-02-21T10:12:28.291Z</time>
      </trkpt>
      <trkpt lat="48.51552" lon="7.16658">
        <ele>853</ele>
        <time>2021-02-21T10:12:29.291Z</time>
      </trkpt>
      <trkpt lat="48.51553" lon="7.16658">
        <ele>857</ele>
        <time>2021-02-21T10:12:30.292Z</time>
      </trkpt>
      <trkpt lat="48.51553" lon="7.16658">
        <ele>857</ele>
        <time>2021-02-21T10:12:31.291Z</time>
      </trkpt>
      <trkpt lat="48.51553" lon="7.16664">
        <ele>852</ele>
        <time>2021-02-21T10:12:32.291Z</time>
      </trkpt>
      <trkpt lat="48.51553" lon="7.16666">
        <ele>852</ele>
        <time>2021-02-21T10:12:33.291Z</time>
      </trkpt>
      <trkpt lat="48.51552" lon="7.16669">
        <ele>852</ele>
        <time>2021-02-21T10:12:34.291Z</time>
      </trkpt>
      <trkpt lat="48.51552" lon="7.16671">
        <ele>852</ele>
        <time>2021-02-21T10:12:35.291Z</time>
      </trkpt>
      <trkpt lat="48.51552" lon="7.16674">
        <ele>852</ele>
        <time>2021-02-21T10:12:36.292Z</time>
      </trkpt>
      <trkpt lat="48.51552" lon="7.16676">
        <ele>853</ele>
        <time>2021-02-21T10:12:37.291Z</time>
      </trkpt>
      <trkpt lat="48.51552" lon="7.16679">
        <ele>854</ele>
        <time>2021-02-21T10:12:38.292Z</time>
      </trkpt>
      <trkpt lat="48.51552" lon="7.16681">
        <ele>854</ele>
        <time>2021-02-21T10:12:39.291Z</time>
      </trkpt>
      <trkpt lat="48.51552" lon="7.16684">
        <ele>854</ele>
        <time>2021-02-21T10:12:40.291Z</time>
      </trkpt>
      <trkpt lat="48.51552" lon="7.16686">
        <ele>854</ele>
        <time>2021-02-21T10:12:41.292Z</time>
      </trkpt>
      <trkpt lat="48.51552" lon="7.16687">
        <ele>854</ele>
        <time>2021-02-21T10:12:42.292Z</time>
      </trkpt>
      <trkpt lat="48.51552" lon="7.16688">
        <ele>853</ele>
        <time>2021-02-21T10:12:43.291Z</time>
      </trkpt>
      <trkpt lat="48.51552" lon="7.16689">
        <ele>853</ele>
        <time>2021-02-21T10:12:44.292Z</time>
      </trkpt>
      <trkpt lat="48.51552" lon="7.16691">
        <ele>853</ele>
        <time>2021-02-21T10:12:45.292Z</time>
      </trkpt>
      <trkpt lat="48.51552" lon="7.16692">
        <ele>852</ele>
        <time>2021-02-21T10:12:46.292Z</time>
      </trkpt>
      <trkpt lat="48.51552" lon="7.16693">
        <ele>852</ele>
        <time>2021-02-21T10:12:47.292Z</time>
      </trkpt>
      <trkpt lat="48.51552" lon="7.16694">
        <ele>851</ele>
        <time>2021-02-21T10:12:48.291Z</time>
      </trkpt>
      <trkpt lat="48.51552" lon="7.16695">
        <ele>851</ele>
        <time>2021-02-21T10:12:49.292Z</time>
      </trkpt>
      <trkpt lat="48.51552" lon="7.16696">
        <ele>851</ele>
        <time>2021-02-21T10:12:50.291Z</time>
      </trkpt>
      <trkpt lat="48.51551" lon="7.16698">
        <ele>850</ele>
        <time>2021-02-21T10:12:51.292Z</time>
      </trkpt>
      <trkpt lat="48.51551" lon="7.167">
        <ele>850</ele>
        <time>2021-02-21T10:12:52.291Z</time>
      </trkpt>
      <trkpt lat="48.51551" lon="7.16701">
        <ele>850</ele>
        <time>2021-02-21T10:12:53.291Z</time>
      </trkpt>
      <trkpt lat="48.51551" lon="7.16703">
        <ele>849</ele>
        <time>2021-02-21T10:12:54.291Z</time>
      </trkpt>
      <trkpt lat="48.5155" lon="7.16704">
        <ele>849</ele>
        <time>2021-02-21T10:12:55.291Z</time>
      </trkpt>
      <trkpt lat="48.5155" lon="7.16706">
        <ele>849</ele>
        <time>2021-02-21T10:12:56.292Z</time>
      </trkpt>
      <trkpt lat="48.5155" lon="7.16707">
        <ele>849</ele>
        <time>2021-02-21T10:12:57.291Z</time>
      </trkpt>
      <trkpt lat="48.5155" lon="7.16708">
        <ele>849</ele>
        <time>2021-02-21T10:12:58.291Z</time>
      </trkpt>
      <trkpt lat="48.5155" lon="7.1671">
        <ele>849</ele>
        <time>2021-02-21T10:12:59.291Z</time>
      </trkpt>
      <trkpt lat="48.5155" lon="7.16711">
        <ele>849</ele>
        <time>2021-02-21T10:13:00.292Z</time>
      </trkpt>
      <trkpt lat="48.5155" lon="7.16712">
        <ele>849</ele>
        <time>2021-02-21T10:13:01.292Z</time>
      </trkpt>
      <trkpt lat="48.5155" lon="7.16714">
        <ele>849</ele>
        <time>2021-02-21T10:13:02.291Z</time>
      </trkpt>
      <trkpt lat="48.5155" lon="7.16716">
        <ele>849</ele>
        <time>2021-02-21T10:13:03.291Z</time>
      </trkpt>
      <trkpt lat="48.51551" lon="7.16717">
        <ele>849</ele>
        <time>2021-02-21T10:13:04.291Z</time>
      </trkpt>
      <trkpt lat="48.51551" lon="7.16719">
        <ele>849</ele>
        <time>2021-02-21T10:13:05.291Z</time>
      </trkpt>
      <trkpt lat="48.51551" lon="7.1672">
        <ele>849</ele>
        <time>2021-02-21T10:13:06.292Z</time>
      </trkpt>
      <trkpt lat="48.51551" lon="7.16722">
        <ele>849</ele>
        <time>2021-02-21T10:13:07.291Z</time>
      </trkpt>
      <trkpt lat="48.51552" lon="7.16723">
        <ele>848</ele>
        <time>2021-02-21T10:13:08.291Z</time>
      </trkpt>
      <trkpt lat="48.51552" lon="7.16724">
        <ele>848</ele>
        <time>2021-02-21T10:13:09.292Z</time>
      </trkpt>
      <trkpt lat="48.51552" lon="7.16725">
        <ele>847</ele>
        <time>2021-02-21T10:13:10.291Z</time>
      </trkpt>
      <trkpt lat="48.51553" lon="7.16725">
        <ele>847</ele>
        <time>2021-02-21T10:13:11.292Z</time>
      </trkpt>
      <trkpt lat="48.51553" lon="7.16725">
        <ele>846</ele>
        <time>2021-02-21T10:13:12.292Z</time>
      </trkpt>
      <trkpt lat="48.51553" lon="7.16726">
        <ele>846</ele>
        <time>2021-02-21T10:13:13.291Z</time>
      </trkpt>
      <trkpt lat="48.51553" lon="7.16726">
        <ele>846</ele>
        <time>2021-02-21T10:13:14.291Z</time>
      </trkpt>
      <trkpt lat="48.51553" lon="7.16727">
        <ele>845</ele>
        <time>2021-02-21T10:13:15.291Z</time>
      </trkpt>
      <trkpt lat="48.51553" lon="7.16728">
        <ele>845</ele>
        <time>2021-02-21T10:13:16.291Z</time>
      </trkpt>
      <trkpt lat="48.51553" lon="7.16729">
        <ele>845</ele>
        <time>2021-02-21T10:13:17.291Z</time>
      </trkpt>
      <trkpt lat="48.51553" lon="7.1673">
        <ele>846</ele>
        <time>2021-02-21T10:13:18.292Z</time>
      </trkpt>
      <trkpt lat="48.51552" lon="7.16733">
        <ele>845</ele>
        <time>2021-02-21T10:13:19.291Z</time>
      </trkpt>
      <trkpt lat="48.51554" lon="7.16734">
        <ele>846</ele>
        <time>2021-02-21T10:13:20.291Z</time>
      </trkpt>
      <trkpt lat="48.51554" lon="7.16736">
        <ele>845</ele>
        <time>2021-02-21T10:13:21.292Z</time>
      </trkpt>
      <trkpt lat="48.51554" lon="7.16737">
        <ele>845</ele>
        <time>2021-02-21T10:13:22.291Z</time>
      </trkpt>
      <trkpt lat="48.51554" lon="7.16738">
        <ele>845</ele>
        <time>2021-02-21T10:13:23.291Z</time>
      </trkpt>
      <trkpt lat="48.51554" lon="7.16739">
        <ele>845</ele>
        <time>2021-02-21T10:13:24.292Z</time>
      </trkpt>
      <trkpt lat="48.51554" lon="7.16741">
        <ele>845</ele>
        <time>2021-02-21T10:13:25.291Z</time>
      </trkpt>
      <trkpt lat="48.51554" lon="7.16742">
        <ele>845</ele>
        <time>2021-02-21T10:13:26.292Z</time>
      </trkpt>
      <trkpt lat="48.51554" lon="7.16743">
        <ele>845</ele>
        <time>2021-02-21T10:13:27.291Z</time>
      </trkpt>
      <trkpt lat="48.51554" lon="7.16744">
        <ele>845</ele>
        <time>2021-02-21T10:13:28.291Z</time>
      </trkpt>
      <trkpt lat="48.51554" lon="7.16745">
        <ele>845</ele>
        <time>2021-02-21T10:13:29.291Z</time>
      </trkpt>
      <trkpt lat="48.51554" lon="7.16746">
        <ele>845</ele>
        <time>2021-02-21T10:13:30.292Z</time>
      </trkpt>
      <trkpt lat="48.51554" lon="7.16748">
        <ele>844</ele>
        <time>2021-02-21T10:13:31.291Z</time>
      </trkpt>
      <trkpt lat="48.51555" lon="7.16749">
        <ele>844</ele>
        <time>2021-02-21T10:13:32.291Z</time>
      </trkpt>
      <trkpt lat="48.51555" lon="7.1675">
        <ele>844</ele>
        <time>2021-02-21T10:13:33.291Z</time>
      </trkpt>
      <trkpt lat="48.51555" lon="7.16751">
        <ele>844</ele>
        <time>2021-02-21T10:13:34.291Z</time>
      </trkpt>
      <trkpt lat="48.51555" lon="7.16751">
        <ele>843</ele>
        <time>2021-02-21T10:13:35.291Z</time>
      </trkpt>
      <trkpt lat="48.51555" lon="7.16752">
        <ele>843</ele>
        <time>2021-02-21T10:13:36.292Z</time>
      </trkpt>
      <trkpt lat="48.51556" lon="7.16753">
        <ele>843</ele>
        <time>2021-02-21T10:13:37.291Z</time>
      </trkpt>
      <trkpt lat="48.51556" lon="7.16754">
        <ele>843</ele>
        <time>2021-02-21T10:13:38.291Z</time>
      </trkpt>
      <trkpt lat="48.51557" lon="7.16756">
        <ele>844</ele>
        <time>2021-02-21T10:13:39.291Z</time>
      </trkpt>
      <trkpt lat="48.51557" lon="7.16757">
        <ele>844</ele>
        <time>2021-02-21T10:13:40.292Z</time>
      </trkpt>
      <trkpt lat="48.51557" lon="7.16758">
        <ele>844</ele>
        <time>2021-02-21T10:13:41.291Z</time>
      </trkpt>
      <trkpt lat="48.51557" lon="7.1676">
        <ele>843</ele>
        <time>2021-02-21T10:13:42.291Z</time>
      </trkpt>
      <trkpt lat="48.51557" lon="7.16762">
        <ele>843</ele>
        <time>2021-02-21T10:13:43.291Z</time>
      </trkpt>
      <trkpt lat="48.51557" lon="7.16763">
        <ele>843</ele>
        <time>2021-02-21T10:13:44.291Z</time>
      </trkpt>
      <trkpt lat="48.51557" lon="7.16764">
        <ele>843</ele>
        <time>2021-02-21T10:13:45.292Z</time>
      </trkpt>
      <trkpt lat="48.51558" lon="7.16765">
        <ele>842</ele>
        <time>2021-02-21T10:13:46.291Z</time>
      </trkpt>
      <trkpt lat="48.51558" lon="7.16766">
        <ele>842</ele>
        <time>2021-02-21T10:13:47.291Z</time>
      </trkpt>
      <trkpt lat="48.51558" lon="7.16767">
        <ele>841</ele>
        <time>2021-02-21T10:13:48.291Z</time>
      </trkpt>
      <trkpt lat="48.51558" lon="7.16769">
        <ele>841</ele>
        <time>2021-02-21T10:13:49.292Z</time>
      </trkpt>
      <trkpt lat="48.51559" lon="7.1677">
        <ele>841</ele>
        <time>2021-02-21T10:13:50.291Z</time>
      </trkpt>
      <trkpt lat="48.51559" lon="7.16771">
        <ele>840</ele>
        <time>2021-02-21T10:13:51.291Z</time>
      </trkpt>
      <trkpt lat="48.51559" lon="7.16772">
        <ele>840</ele>
        <time>2021-02-21T10:13:52.291Z</time>
      </trkpt>
      <trkpt lat="48.51559" lon="7.16774">
        <ele>840</ele>
        <time>2021-02-21T10:13:53.291Z</time>
      </trkpt>
      <trkpt lat="48.51559" lon="7.16775">
        <ele>840</ele>
        <time>2021-02-21T10:13:54.291Z</time>
      </trkpt>
      <trkpt lat="48.5156" lon="7.16776">
        <ele>840</ele>
        <time>2021-02-21T10:13:55.292Z</time>
      </trkpt>
      <trkpt lat="48.5156" lon="7.16777">
        <ele>840</ele>
        <time>2021-02-21T10:13:56.291Z</time>
      </trkpt>
      <trkpt lat="48.5156" lon="7.16779">
        <ele>840</ele>
        <time>2021-02-21T10:13:57.291Z</time>
      </trkpt>
      <trkpt lat="48.5156" lon="7.1678">
        <ele>840</ele>
        <time>2021-02-21T10:13:58.291Z</time>
      </trkpt>
      <trkpt lat="48.51561" lon="7.16781">
        <ele>840</ele>
        <time>2021-02-21T10:13:59.292Z</time>
      </trkpt>
      <trkpt lat="48.51561" lon="7.16783">
        <ele>839</ele>
        <time>2021-02-21T10:14:00.291Z</time>
      </trkpt>
      <trkpt lat="48.51561" lon="7.16785">
        <ele>839</ele>
        <time>2021-02-21T10:14:01.291Z</time>
      </trkpt>
      <trkpt lat="48.51561" lon="7.16787">
        <ele>839</ele>
        <time>2021-02-21T10:14:02.291Z</time>
      </trkpt>
      <trkpt lat="48.51561" lon="7.16789">
        <ele>839</ele>
        <time>2021-02-21T10:14:03.291Z</time>
      </trkpt>
      <trkpt lat="48.51562" lon="7.16791">
        <ele>839</ele>
        <time>2021-02-21T10:14:04.292Z</time>
      </trkpt>
      <trkpt lat="48.51562" lon="7.16793">
        <ele>839</ele>
        <time>2021-02-21T10:14:05.292Z</time>
      </trkpt>
      <trkpt lat="48.51562" lon="7.16795">
        <ele>839</ele>
        <time>2021-02-21T10:14:06.291Z</time>
      </trkpt>
      <trkpt lat="48.51562" lon="7.16797">
        <ele>839</ele>
        <time>2021-02-21T10:14:07.292Z</time>
      </trkpt>
      <trkpt lat="48.51563" lon="7.16799">
        <ele>838</ele>
        <time>2021-02-21T10:14:08.292Z</time>
      </trkpt>
      <trkpt lat="48.51563" lon="7.16801">
        <ele>838</ele>
        <time>2021-02-21T10:14:09.292Z</time>
      </trkpt>
      <trkpt lat="48.51563" lon="7.16803">
        <ele>838</ele>
        <time>2021-02-21T10:14:10.291Z</time>
      </trkpt>
      <trkpt lat="48.51563" lon="7.16805">
        <ele>838</ele>
        <time>2021-02-21T10:14:11.292Z</time>
      </trkpt>
      <trkpt lat="48.51563" lon="7.16807">
        <ele>838</ele>
        <time>2021-02-21T10:14:12.291Z</time>
      </trkpt>
      <trkpt lat="48.51563" lon="7.16808">
        <ele>838</ele>
        <time>2021-02-21T10:14:13.291Z</time>
      </trkpt>
      <trkpt lat="48.51563" lon="7.1681">
        <ele>838</ele>
        <time>2021-02-21T10:14:14.292Z</time>
      </trkpt>
      <trkpt lat="48.51564" lon="7.16812">
        <ele>837</ele>
        <time>2021-02-21T10:14:15.291Z</time>
      </trkpt>
      <trkpt lat="48.51564" lon="7.16814">
        <ele>837</ele>
        <time>2021-02-21T10:14:16.291Z</time>
      </trkpt>
      <trkpt lat="48.51564" lon="7.16815">
        <ele>837</ele>
        <time>2021-02-21T10:14:17.292Z</time>
      </trkpt>
      <trkpt lat="48.51564" lon="7.16817">
        <ele>837</ele>
        <time>2021-02-21T10:14:18.291Z</time>
      </trkpt>
      <trkpt lat="48.51564" lon="7.16819">
        <ele>837</ele>
        <time>2021-02-21T10:14:19.292Z</time>
      </trkpt>
      <trkpt lat="48.51564" lon="7.1682">
        <ele>837</ele>
        <time>2021-02-21T10:14:20.291Z</time>
      </trkpt>
      <trkpt lat="48.51565" lon="7.16822">
        <ele>836</ele>
        <time>2021-02-21T10:14:21.291Z</time>
      </trkpt>
      <trkpt lat="48.51565" lon="7.16824">
        <ele>836</ele>
        <time>2021-02-21T10:14:22.291Z</time>
      </trkpt>
      <trkpt lat="48.51565" lon="7.16826">
        <ele>836</ele>
        <time>2021-02-21T10:14:23.291Z</time>
      </trkpt>
      <trkpt lat="48.51566" lon="7.16828">
        <ele>836</ele>
        <time>2021-02-21T10:14:24.291Z</time>
      </trkpt>
      <trkpt lat="48.51566" lon="7.16829">
        <ele>836</ele>
        <time>2021-02-21T10:14:25.292Z</time>
      </trkpt>
      <trkpt lat="48.51566" lon="7.16831">
        <ele>836</ele>
        <time>2021-02-21T10:14:26.291Z</time>
      </trkpt>
      <trkpt lat="48.51566" lon="7.16833">
        <ele>836</ele>
        <time>2021-02-21T10:14:27.291Z</time>
      </trkpt>
      <trkpt lat="48.51565" lon="7.16835">
        <ele>836</ele>
        <time>2021-02-21T10:14:28.291Z</time>
      </trkpt>
      <trkpt lat="48.51565" lon="7.16836">
        <ele>835</ele>
        <time>2021-02-21T10:14:29.291Z</time>
      </trkpt>
      <trkpt lat="48.51565" lon="7.16838">
        <ele>835</ele>
        <time>2021-02-21T10:14:30.291Z</time>
      </trkpt>
      <trkpt lat="48.51565" lon="7.16839">
        <ele>835</ele>
        <time>2021-02-21T10:14:31.292Z</time>
      </trkpt>
      <trkpt lat="48.51566" lon="7.1684">
        <ele>835</ele>
        <time>2021-02-21T10:14:32.291Z</time>
      </trkpt>
      <trkpt lat="48.51566" lon="7.16841">
        <ele>835</ele>
        <time>2021-02-21T10:14:33.291Z</time>
      </trkpt>
      <trkpt lat="48.51566" lon="7.16842">
        <ele>835</ele>
        <time>2021-02-21T10:14:34.292Z</time>
      </trkpt>
      <trkpt lat="48.51566" lon="7.16843">
        <ele>835</ele>
        <time>2021-02-21T10:14:35.292Z</time>
      </trkpt>
      <trkpt lat="48.51566" lon="7.16845">
        <ele>835</ele>
        <time>2021-02-21T10:14:36.291Z</time>
      </trkpt>
      <trkpt lat="48.51566" lon="7.16846">
        <ele>835</ele>
        <time>2021-02-21T10:14:37.292Z</time>
      </trkpt>
      <trkpt lat="48.51566" lon="7.16847">
        <ele>835</ele>
        <time>2021-02-21T10:14:38.291Z</time>
      </trkpt>
      <trkpt lat="48.51566" lon="7.16848">
        <ele>835</ele>
        <time>2021-02-21T10:14:39.291Z</time>
      </trkpt>
      <trkpt lat="48.51566" lon="7.1685">
        <ele>836</ele>
        <time>2021-02-21T10:14:40.291Z</time>
      </trkpt>
      <trkpt lat="48.51567" lon="7.16852">
        <ele>836</ele>
        <time>2021-02-21T10:14:41.292Z</time>
      </trkpt>
      <trkpt lat="48.51567" lon="7.16854">
        <ele>837</ele>
        <time>2021-02-21T10:14:42.292Z</time>
      </trkpt>
      <trkpt lat="48.51567" lon="7.16855">
        <ele>837</ele>
        <time>2021-02-21T10:14:43.292Z</time>
      </trkpt>
      <trkpt lat="48.51567" lon="7.16857">
        <ele>837</ele>
        <time>2021-02-21T10:14:44.292Z</time>
      </trkpt>
      <trkpt lat="48.51567" lon="7.16858">
        <ele>837</ele>
        <time>2021-02-21T10:14:45.291Z</time>
      </trkpt>
      <trkpt lat="48.51567" lon="7.1686">
        <ele>837</ele>
        <time>2021-02-21T10:14:46.291Z</time>
      </trkpt>
      <trkpt lat="48.51567" lon="7.16862">
        <ele>837</ele>
        <time>2021-02-21T10:14:47.292Z</time>
      </trkpt>
      <trkpt lat="48.51567" lon="7.16864">
        <ele>837</ele>
        <time>2021-02-21T10:14:48.291Z</time>
      </trkpt>
      <trkpt lat="48.51566" lon="7.16866">
        <ele>837</ele>
        <time>2021-02-21T10:14:49.291Z</time>
      </trkpt>
      <trkpt lat="48.51567" lon="7.16868">
        <ele>837</ele>
        <time>2021-02-21T10:14:50.292Z</time>
      </trkpt>
      <trkpt lat="48.51567" lon="7.16869">
        <ele>836</ele>
        <time>2021-02-21T10:14:51.291Z</time>
      </trkpt>
      <trkpt lat="48.51567" lon="7.16871">
        <ele>836</ele>
        <time>2021-02-21T10:14:52.292Z</time>
      </trkpt>
      <trkpt lat="48.51567" lon="7.16873">
        <ele>836</ele>
        <time>2021-02-21T10:14:53.292Z</time>
      </trkpt>
      <trkpt lat="48.51567" lon="7.16874">
        <ele>835</ele>
        <time>2021-02-21T10:14:54.291Z</time>
      </trkpt>
      <trkpt lat="48.51567" lon="7.16876">
        <ele>835</ele>
        <time>2021-02-21T10:14:55.292Z</time>
      </trkpt>
      <trkpt lat="48.51567" lon="7.16878">
        <ele>834</ele>
        <time>2021-02-21T10:14:56.291Z</time>
      </trkpt>
      <trkpt lat="48.51567" lon="7.16881">
        <ele>834</ele>
        <time>2021-02-21T10:14:57.291Z</time>
      </trkpt>
      <trkpt lat="48.51567" lon="7.16882">
        <ele>834</ele>
        <time>2021-02-21T10:14:58.291Z</time>
      </trkpt>
      <trkpt lat="48.51568" lon="7.16883">
        <ele>834</ele>
        <time>2021-02-21T10:14:59.291Z</time>
      </trkpt>
      <trkpt lat="48.51568" lon="7.16885">
        <ele>834</ele>
        <time>2021-02-21T10:15:00.291Z</time>
      </trkpt>
      <trkpt lat="48.51568" lon="7.16886">
        <ele>834</ele>
        <time>2021-02-21T10:15:01.292Z</time>
      </trkpt>
      <trkpt lat="48.51569" lon="7.16888">
        <ele>835</ele>
        <time>2021-02-21T10:15:02.291Z</time>
      </trkpt>
      <trkpt lat="48.51569" lon="7.1689">
        <ele>835</ele>
        <time>2021-02-21T10:15:03.292Z</time>
      </trkpt>
      <trkpt lat="48.5157" lon="7.16891">
        <ele>835</ele>
        <time>2021-02-21T10:15:04.291Z</time>
      </trkpt>
      <trkpt lat="48.51571" lon="7.16893">
        <ele>835</ele>
        <time>2021-02-21T10:15:05.292Z</time>
      </trkpt>
      <trkpt lat="48.51571" lon="7.16895">
        <ele>834</ele>
        <time>2021-02-21T10:15:06.291Z</time>
      </trkpt>
      <trkpt lat="48.51571" lon="7.16896">
        <ele>834</ele>
        <time>2021-02-21T10:15:07.292Z</time>
      </trkpt>
      <trkpt lat="48.51571" lon="7.16898">
        <ele>834</ele>
        <time>2021-02-21T10:15:08.291Z</time>
      </trkpt>
      <trkpt lat="48.51571" lon="7.169">
        <ele>834</ele>
        <time>2021-02-21T10:15:09.292Z</time>
      </trkpt>
      <trkpt lat="48.51572" lon="7.16901">
        <ele>834</ele>
        <time>2021-02-21T10:15:10.292Z</time>
      </trkpt>
      <trkpt lat="48.51571" lon="7.16903">
        <ele>833</ele>
        <time>2021-02-21T10:15:11.292Z</time>
      </trkpt>
      <trkpt lat="48.51571" lon="7.16905">
        <ele>834</ele>
        <time>2021-02-21T10:15:12.292Z</time>
      </trkpt>
      <trkpt lat="48.51571" lon="7.16906">
        <ele>834</ele>
        <time>2021-02-21T10:15:13.292Z</time>
      </trkpt>
      <trkpt lat="48.51571" lon="7.16908">
        <ele>834</ele>
        <time>2021-02-21T10:15:14.291Z</time>
      </trkpt>
      <trkpt lat="48.51571" lon="7.1691">
        <ele>834</ele>
        <time>2021-02-21T10:15:15.291Z</time>
      </trkpt>
      <trkpt lat="48.51571" lon="7.16913">
        <ele>834</ele>
        <time>2021-02-21T10:15:16.291Z</time>
      </trkpt>
      <trkpt lat="48.51571" lon="7.16915">
        <ele>835</ele>
        <time>2021-02-21T10:15:17.292Z</time>
      </trkpt>
      <trkpt lat="48.51571" lon="7.16918">
        <ele>836</ele>
        <time>2021-02-21T10:15:18.292Z</time>
      </trkpt>
      <trkpt lat="48.51571" lon="7.1692">
        <ele>836</ele>
        <time>2021-02-21T10:15:19.291Z</time>
      </trkpt>
      <trkpt lat="48.51571" lon="7.16922">
        <ele>836</ele>
        <time>2021-02-21T10:15:20.292Z</time>
      </trkpt>
      <trkpt lat="48.51571" lon="7.16924">
        <ele>836</ele>
        <time>2021-02-21T10:15:21.292Z</time>
      </trkpt>
      <trkpt lat="48.51571" lon="7.16926">
        <ele>836</ele>
        <time>2021-02-21T10:15:22.292Z</time>
      </trkpt>
      <trkpt lat="48.51572" lon="7.16928">
        <ele>836</ele>
        <time>2021-02-21T10:15:23.291Z</time>
      </trkpt>
      <trkpt lat="48.51572" lon="7.16931">
        <ele>836</ele>
        <time>2021-02-21T10:15:24.292Z</time>
      </trkpt>
      <trkpt lat="48.51572" lon="7.16933">
        <ele>836</ele>
        <time>2021-02-21T10:15:25.292Z</time>
      </trkpt>
      <trkpt lat="48.51572" lon="7.16935">
        <ele>836</ele>
        <time>2021-02-21T10:15:26.291Z</time>
      </trkpt>
      <trkpt lat="48.51572" lon="7.16937">
        <ele>836</ele>
        <time>2021-02-21T10:15:27.292Z</time>
      </trkpt>
      <trkpt lat="48.51572" lon="7.16938">
        <ele>836</ele>
        <time>2021-02-21T10:15:28.291Z</time>
      </trkpt>
      <trkpt lat="48.51572" lon="7.1694">
        <ele>836</ele>
        <time>2021-02-21T10:15:29.292Z</time>
      </trkpt>
      <trkpt lat="48.51572" lon="7.16942">
        <ele>836</ele>
        <time>2021-02-21T10:15:30.291Z</time>
      </trkpt>
      <trkpt lat="48.51572" lon="7.16944">
        <ele>836</ele>
        <time>2021-02-21T10:15:31.291Z</time>
      </trkpt>
      <trkpt lat="48.51572" lon="7.16946">
        <ele>837</ele>
        <time>2021-02-21T10:15:32.291Z</time>
      </trkpt>
      <trkpt lat="48.51572" lon="7.16947">
        <ele>837</ele>
        <time>2021-02-21T10:15:33.291Z</time>
      </trkpt>
      <trkpt lat="48.51572" lon="7.16948">
        <ele>837</ele>
        <time>2021-02-21T10:15:34.291Z</time>
      </trkpt>
      <trkpt lat="48.51573" lon="7.1695">
        <ele>836</ele>
        <time>2021-02-21T10:15:35.291Z</time>
      </trkpt>
      <trkpt lat="48.51573" lon="7.16951">
        <ele>835</ele>
        <time>2021-02-21T10:15:36.291Z</time>
      </trkpt>
      <trkpt lat="48.51573" lon="7.16953">
        <ele>835</ele>
        <time>2021-02-21T10:15:37.291Z</time>
      </trkpt>
      <trkpt lat="48.51573" lon="7.16955">
        <ele>835</ele>
        <time>2021-02-21T10:15:38.291Z</time>
      </trkpt>
      <trkpt lat="48.51573" lon="7.16957">
        <ele>834</ele>
        <time>2021-02-21T10:15:39.291Z</time>
      </trkpt>
      <trkpt lat="48.51574" lon="7.16959">
        <ele>834</ele>
        <time>2021-02-21T10:15:40.291Z</time>
      </trkpt>
      <trkpt lat="48.51575" lon="7.16961">
        <ele>835</ele>
        <time>2021-02-21T10:15:41.292Z</time>
      </trkpt>
      <trkpt lat="48.51577" lon="7.16963">
        <ele>835</ele>
        <time>2021-02-21T10:15:42.291Z</time>
      </trkpt>
      <trkpt lat="48.51577" lon="7.16965">
        <ele>835</ele>
        <time>2021-02-21T10:15:43.292Z</time>
      </trkpt>
      <trkpt lat="48.51578" lon="7.16966">
        <ele>834</ele>
        <time>2021-02-21T10:15:44.291Z</time>
      </trkpt>
      <trkpt lat="48.51578" lon="7.16967">
        <ele>834</ele>
        <time>2021-02-21T10:15:45.292Z</time>
      </trkpt>
      <trkpt lat="48.51579" lon="7.16968">
        <ele>834</ele>
        <time>2021-02-21T10:15:46.292Z</time>
      </trkpt>
      <trkpt lat="48.5158" lon="7.16969">
        <ele>834</ele>
        <time>2021-02-21T10:15:47.292Z</time>
      </trkpt>
      <trkpt lat="48.51581" lon="7.1697">
        <ele>833</ele>
        <time>2021-02-21T10:15:48.292Z</time>
      </trkpt>
      <trkpt lat="48.51582" lon="7.16971">
        <ele>833</ele>
        <time>2021-02-21T10:15:49.291Z</time>
      </trkpt>
      <trkpt lat="48.51583" lon="7.16972">
        <ele>833</ele>
        <time>2021-02-21T10:15:50.291Z</time>
      </trkpt>
      <trkpt lat="48.51584" lon="7.16973">
        <ele>832</ele>
        <time>2021-02-21T10:15:51.292Z</time>
      </trkpt>
      <trkpt lat="48.51585" lon="7.16973">
        <ele>832</ele>
        <time>2021-02-21T10:15:52.292Z</time>
      </trkpt>
      <trkpt lat="48.51586" lon="7.16974">
        <ele>832</ele>
        <time>2021-02-21T10:15:53.292Z</time>
      </trkpt>
      <trkpt lat="48.51586" lon="7.16975">
        <ele>832</ele>
        <time>2021-02-21T10:15:54.291Z</time>
      </trkpt>
      <trkpt lat="48.51587" lon="7.16977">
        <ele>832</ele>
        <time>2021-02-21T10:15:55.292Z</time>
      </trkpt>
      <trkpt lat="48.51587" lon="7.16978">
        <ele>832</ele>
        <time>2021-02-21T10:15:56.291Z</time>
      </trkpt>
      <trkpt lat="48.51588" lon="7.1698">
        <ele>832</ele>
        <time>2021-02-21T10:15:57.291Z</time>
      </trkpt>
      <trkpt lat="48.51589" lon="7.16981">
        <ele>832</ele>
        <time>2021-02-21T10:15:58.292Z</time>
      </trkpt>
      <trkpt lat="48.51588" lon="7.16981">
        <ele>832</ele>
        <time>2021-02-21T10:15:59.291Z</time>
      </trkpt>
      <trkpt lat="48.51587" lon="7.16981">
        <ele>832</ele>
        <time>2021-02-21T10:16:00.292Z</time>
      </trkpt>
      <trkpt lat="48.51587" lon="7.16981">
        <ele>832</ele>
        <time>2021-02-21T10:16:01.291Z</time>
      </trkpt>
      <trkpt lat="48.51587" lon="7.16981">
        <ele>831</ele>
        <time>2021-02-21T10:16:02.291Z</time>
      </trkpt>
      <trkpt lat="48.51588" lon="7.16981">
        <ele>831</ele>
        <time>2021-02-21T10:16:03.292Z</time>
      </trkpt>
      <trkpt lat="48.51589" lon="7.16981">
        <ele>831</ele>
        <time>2021-02-21T10:16:04.291Z</time>
      </trkpt>
      <trkpt lat="48.51589" lon="7.1698">
        <ele>831</ele>
        <time>2021-02-21T10:16:05.291Z</time>
      </trkpt>
      <trkpt lat="48.51588" lon="7.16979">
        <ele>831</ele>
        <time>2021-02-21T10:16:06.292Z</time>
      </trkpt>
      <trkpt lat="48.51588" lon="7.16978">
        <ele>831</ele>
        <time>2021-02-21T10:16:07.291Z</time>
      </trkpt>
      <trkpt lat="48.51587" lon="7.16978">
        <ele>832</ele>
        <time>2021-02-21T10:16:08.291Z</time>
      </trkpt>
      <trkpt lat="48.51588" lon="7.16977">
        <ele>833</ele>
        <time>2021-02-21T10:16:09.292Z</time>
      </trkpt>
      <trkpt lat="48.51586" lon="7.16985">
        <ele>845</ele>
        <time>2021-02-21T10:16:10.292Z</time>
      </trkpt>
      <trkpt lat="48.51586" lon="7.16988">
        <ele>844</ele>
        <time>2021-02-21T10:16:11.292Z</time>
      </trkpt>
      <trkpt lat="48.51587" lon="7.1699">
        <ele>844</ele>
        <time>2021-02-21T10:16:12.293Z</time>
      </trkpt>
      <trkpt lat="48.51586" lon="7.16993">
        <ele>844</ele>
        <time>2021-02-21T10:16:13.292Z</time>
      </trkpt>
      <trkpt lat="48.51586" lon="7.16995">
        <ele>844</ele>
        <time>2021-02-21T10:16:14.292Z</time>
      </trkpt>
      <trkpt lat="48.51586" lon="7.16997">
        <ele>844</ele>
        <time>2021-02-21T10:16:15.293Z</time>
      </trkpt>
      <trkpt lat="48.51586" lon="7.17001">
        <ele>843</ele>
        <time>2021-02-21T10:16:16.293Z</time>
      </trkpt>
      <trkpt lat="48.51587" lon="7.17004">
        <ele>843</ele>
        <time>2021-02-21T10:16:17.292Z</time>
      </trkpt>
      <trkpt lat="48.51587" lon="7.17007">
        <ele>842</ele>
        <time>2021-02-21T10:16:18.292Z</time>
      </trkpt>
      <trkpt lat="48.51587" lon="7.17011">
        <ele>842</ele>
        <time>2021-02-21T10:16:19.293Z</time>
      </trkpt>
      <trkpt lat="48.51587" lon="7.17012">
        <ele>842</ele>
        <time>2021-02-21T10:16:20.293Z</time>
      </trkpt>
      <trkpt lat="48.51587" lon="7.17014">
        <ele>841</ele>
        <time>2021-02-21T10:16:21.292Z</time>
      </trkpt>
      <trkpt lat="48.51587" lon="7.17016">
        <ele>841</ele>
        <time>2021-02-21T10:16:22.292Z</time>
      </trkpt>
      <trkpt lat="48.51588" lon="7.17018">
        <ele>841</ele>
        <time>2021-02-21T10:16:23.293Z</time>
      </trkpt>
      <trkpt lat="48.51588" lon="7.1702">
        <ele>841</ele>
        <time>2021-02-21T10:16:24.293Z</time>
      </trkpt>
      <trkpt lat="48.51588" lon="7.17021">
        <ele>841</ele>
        <time>2021-02-21T10:16:25.293Z</time>
      </trkpt>
      <trkpt lat="48.51588" lon="7.17023">
        <ele>840</ele>
        <time>2021-02-21T10:16:26.293Z</time>
      </trkpt>
      <trkpt lat="48.51588" lon="7.17025">
        <ele>840</ele>
        <time>2021-02-21T10:16:27.293Z</time>
      </trkpt>
      <trkpt lat="48.51589" lon="7.17026">
        <ele>839</ele>
        <time>2021-02-21T10:16:28.292Z</time>
      </trkpt>
      <trkpt lat="48.51589" lon="7.17028">
        <ele>839</ele>
        <time>2021-02-21T10:16:29.292Z</time>
      </trkpt>
      <trkpt lat="48.51589" lon="7.17029">
        <ele>838</ele>
        <time>2021-02-21T10:16:30.293Z</time>
      </trkpt>
      <trkpt lat="48.5159" lon="7.17031">
        <ele>838</ele>
        <time>2021-02-21T10:16:31.293Z</time>
      </trkpt>
      <trkpt lat="48.5159" lon="7.17033">
        <ele>837</ele>
        <time>2021-02-21T10:16:32.292Z</time>
      </trkpt>
      <trkpt lat="48.5159" lon="7.17034">
        <ele>837</ele>
        <time>2021-02-21T10:16:33.293Z</time>
      </trkpt>
      <trkpt lat="48.5159" lon="7.17036">
        <ele>835</ele>
        <time>2021-02-21T10:16:34.292Z</time>
      </trkpt>
      <trkpt lat="48.5159" lon="7.17037">
        <ele>834</ele>
        <time>2021-02-21T10:16:35.292Z</time>
      </trkpt>
      <trkpt lat="48.5159" lon="7.17037">
        <ele>833</ele>
        <time>2021-02-21T10:16:36.293Z</time>
      </trkpt>
      <trkpt lat="48.5159" lon="7.17038">
        <ele>832</ele>
        <time>2021-02-21T10:16:37.293Z</time>
      </trkpt>
      <trkpt lat="48.5159" lon="7.17039">
        <ele>832</ele>
        <time>2021-02-21T10:16:38.294Z</time>
      </trkpt>
      <trkpt lat="48.5159" lon="7.17039">
        <ele>832</ele>
        <time>2021-02-21T10:16:39.294Z</time>
      </trkpt>
      <trkpt lat="48.51591" lon="7.1704">
        <ele>832</ele>
        <time>2021-02-21T10:16:40.293Z</time>
      </trkpt>
      <trkpt lat="48.5159" lon="7.1704">
        <ele>833</ele>
        <time>2021-02-21T10:16:41.294Z</time>
      </trkpt>
      <trkpt lat="48.5159" lon="7.17033">
        <ele>834</ele>
        <time>2021-02-21T10:16:42.296Z</time>
      </trkpt>
      <trkpt lat="48.51589" lon="7.17031">
        <ele>834</ele>
        <time>2021-02-21T10:16:43.296Z</time>
      </trkpt>
      <trkpt lat="48.51589" lon="7.17029">
        <ele>834</ele>
        <time>2021-02-21T10:16:44.296Z</time>
      </trkpt>
      <trkpt lat="48.51589" lon="7.17026">
        <ele>834</ele>
        <time>2021-02-21T10:16:45.295Z</time>
      </trkpt>
      <trkpt lat="48.51589" lon="7.17024">
        <ele>834</ele>
        <time>2021-02-21T10:16:46.296Z</time>
      </trkpt>
      <trkpt lat="48.51588" lon="7.17022">
        <ele>834</ele>
        <time>2021-02-21T10:16:47.295Z</time>
      </trkpt>
      <trkpt lat="48.51588" lon="7.1702">
        <ele>834</ele>
        <time>2021-02-21T10:16:48.295Z</time>
      </trkpt>
      <trkpt lat="48.51586" lon="7.17018">
        <ele>835</ele>
        <time>2021-02-21T10:16:49.295Z</time>
      </trkpt>
      <trkpt lat="48.51585" lon="7.17017">
        <ele>835</ele>
        <time>2021-02-21T10:16:50.296Z</time>
      </trkpt>
      <trkpt lat="48.51584" lon="7.17014">
        <ele>835</ele>
        <time>2021-02-21T10:16:51.295Z</time>
      </trkpt>
      <trkpt lat="48.51583" lon="7.17012">
        <ele>835</ele>
        <time>2021-02-21T10:16:52.296Z</time>
      </trkpt>
      <trkpt lat="48.51581" lon="7.1701">
        <ele>836</ele>
        <time>2021-02-21T10:16:53.296Z</time>
      </trkpt>
      <trkpt lat="48.51581" lon="7.17007">
        <ele>836</ele>
        <time>2021-02-21T10:16:54.296Z</time>
      </trkpt>
      <trkpt lat="48.51581" lon="7.17005">
        <ele>836</ele>
        <time>2021-02-21T10:16:55.296Z</time>
      </trkpt>
      <trkpt lat="48.51581" lon="7.17003">
        <ele>836</ele>
        <time>2021-02-21T10:16:56.296Z</time>
      </trkpt>
      <trkpt lat="48.51581" lon="7.17001">
        <ele>837</ele>
        <time>2021-02-21T10:16:57.295Z</time>
      </trkpt>
      <trkpt lat="48.51581" lon="7.16999">
        <ele>837</ele>
        <time>2021-02-21T10:16:58.296Z</time>
      </trkpt>
      <trkpt lat="48.51581" lon="7.16997">
        <ele>836</ele>
        <time>2021-02-21T10:16:59.296Z</time>
      </trkpt>
      <trkpt lat="48.51581" lon="7.16996">
        <ele>836</ele>
        <time>2021-02-21T10:17:00.296Z</time>
      </trkpt>
      <trkpt lat="48.51581" lon="7.16995">
        <ele>836</ele>
        <time>2021-02-21T10:17:01.296Z</time>
      </trkpt>
      <trkpt lat="48.51581" lon="7.16994">
        <ele>836</ele>
        <time>2021-02-21T10:17:02.296Z</time>
      </trkpt>
      <trkpt lat="48.51581" lon="7.16992">
        <ele>835</ele>
        <time>2021-02-21T10:17:03.295Z</time>
      </trkpt>
      <trkpt lat="48.51581" lon="7.16992">
        <ele>835</ele>
        <time>2021-02-21T10:17:04.295Z</time>
      </trkpt>
      <trkpt lat="48.51581" lon="7.16991">
        <ele>834</ele>
        <time>2021-02-21T10:17:05.296Z</time>
      </trkpt>
      <trkpt lat="48.51582" lon="7.1699">
        <ele>834</ele>
        <time>2021-02-21T10:17:06.296Z</time>
      </trkpt>
      <trkpt lat="48.51581" lon="7.16989">
        <ele>834</ele>
        <time>2021-02-21T10:17:07.295Z</time>
      </trkpt>
      <trkpt lat="48.51582" lon="7.16989">
        <ele>834</ele>
        <time>2021-02-21T10:17:08.296Z</time>
      </trkpt>
      <trkpt lat="48.51583" lon="7.16989">
        <ele>833</ele>
        <time>2021-02-21T10:17:09.295Z</time>
      </trkpt>
      <trkpt lat="48.51587" lon="7.1699">
        <ele>831</ele>
        <time>2021-02-21T10:17:10.297Z</time>
      </trkpt>
      <trkpt lat="48.51587" lon="7.1699">
        <ele>831</ele>
        <time>2021-02-21T10:17:11.297Z</time>
      </trkpt>
      <trkpt lat="48.51587" lon="7.16989">
        <ele>831</ele>
        <time>2021-02-21T10:17:12.296Z</time>
      </trkpt>
      <trkpt lat="48.51587" lon="7.16988">
        <ele>831</ele>
        <time>2021-02-21T10:17:13.296Z</time>
      </trkpt>
      <trkpt lat="48.51586" lon="7.16987">
        <ele>832</ele>
        <time>2021-02-21T10:17:14.297Z</time>
      </trkpt>
      <trkpt lat="48.51585" lon="7.16987">
        <ele>832</ele>
        <time>2021-02-21T10:17:15.297Z</time>
      </trkpt>
      <trkpt lat="48.51589" lon="7.16982">
        <ele>828</ele>
        <time>2021-02-21T10:17:16.297Z</time>
      </trkpt>
      <trkpt lat="48.5159" lon="7.16982">
        <ele>828</ele>
        <time>2021-02-21T10:17:17.298Z</time>
      </trkpt>
      <trkpt lat="48.5159" lon="7.16982">
        <ele>828</ele>
        <time>2021-02-21T10:17:18.297Z</time>
      </trkpt>
      <trkpt lat="48.51593" lon="7.16997">
        <ele>812</ele>
        <time>2021-02-21T10:17:19.299Z</time>
      </trkpt>
      <trkpt lat="48.51593" lon="7.16998">
        <ele>812</ele>
        <time>2021-02-21T10:17:20.299Z</time>
      </trkpt>
      <trkpt lat="48.51593" lon="7.17">
        <ele>812</ele>
        <time>2021-02-21T10:17:21.298Z</time>
      </trkpt>
      <trkpt lat="48.51593" lon="7.17002">
        <ele>813</ele>
        <time>2021-02-21T10:17:22.299Z</time>
      </trkpt>
      <trkpt lat="48.51593" lon="7.17005">
        <ele>813</ele>
        <time>2021-02-21T10:17:23.299Z</time>
      </trkpt>
      <trkpt lat="48.51593" lon="7.17008">
        <ele>813</ele>
        <time>2021-02-21T10:17:24.299Z</time>
      </trkpt>
      <trkpt lat="48.51592" lon="7.17011">
        <ele>814</ele>
        <time>2021-02-21T10:17:25.298Z</time>
      </trkpt>
      <trkpt lat="48.51592" lon="7.17014">
        <ele>814</ele>
        <time>2021-02-21T10:17:26.298Z</time>
      </trkpt>
      <trkpt lat="48.51593" lon="7.17016">
        <ele>814</ele>
        <time>2021-02-21T10:17:27.298Z</time>
      </trkpt>
      <trkpt lat="48.51593" lon="7.17017">
        <ele>814</ele>
        <time>2021-02-21T10:17:28.299Z</time>
      </trkpt>
      <trkpt lat="48.51593" lon="7.17018">
        <ele>814</ele>
        <time>2021-02-21T10:17:29.298Z</time>
      </trkpt>
      <trkpt lat="48.51593" lon="7.17019">
        <ele>815</ele>
        <time>2021-02-21T10:17:30.299Z</time>
      </trkpt>
      <trkpt lat="48.51593" lon="7.1702">
        <ele>816</ele>
        <time>2021-02-21T10:17:31.298Z</time>
      </trkpt>
      <trkpt lat="48.51593" lon="7.17021">
        <ele>816</ele>
        <time>2021-02-21T10:17:32.299Z</time>
      </trkpt>
      <trkpt lat="48.51593" lon="7.17023">
        <ele>817</ele>
        <time>2021-02-21T10:17:33.299Z</time>
      </trkpt>
      <trkpt lat="48.51593" lon="7.17025">
        <ele>817</ele>
        <time>2021-02-21T10:17:34.299Z</time>
      </trkpt>
      <trkpt lat="48.51593" lon="7.17026">
        <ele>817</ele>
        <time>2021-02-21T10:17:35.298Z</time>
      </trkpt>
      <trkpt lat="48.51594" lon="7.17028">
        <ele>817</ele>
        <time>2021-02-21T10:17:36.299Z</time>
      </trkpt>
      <trkpt lat="48.51594" lon="7.1703">
        <ele>817</ele>
        <time>2021-02-21T10:17:37.299Z</time>
      </trkpt>
      <trkpt lat="48.51594" lon="7.17033">
        <ele>818</ele>
        <time>2021-02-21T10:17:38.298Z</time>
      </trkpt>
      <trkpt lat="48.51594" lon="7.17035">
        <ele>818</ele>
        <time>2021-02-21T10:17:39.299Z</time>
      </trkpt>
      <trkpt lat="48.51594" lon="7.17037">
        <ele>818</ele>
        <time>2021-02-21T10:17:40.298Z</time>
      </trkpt>
      <trkpt lat="48.51593" lon="7.17039">
        <ele>818</ele>
        <time>2021-02-21T10:17:41.298Z</time>
      </trkpt>
      <trkpt lat="48.51593" lon="7.17042">
        <ele>818</ele>
        <time>2021-02-21T10:17:42.299Z</time>
      </trkpt>
      <trkpt lat="48.51593" lon="7.17044">
        <ele>819</ele>
        <time>2021-02-21T10:17:43.298Z</time>
      </trkpt>
      <trkpt lat="48.51593" lon="7.17046">
        <ele>819</ele>
        <time>2021-02-21T10:17:44.298Z</time>
      </trkpt>
      <trkpt lat="48.51593" lon="7.17047">
        <ele>819</ele>
        <time>2021-02-21T10:17:45.298Z</time>
      </trkpt>
      <trkpt lat="48.51592" lon="7.17049">
        <ele>819</ele>
        <time>2021-02-21T10:17:46.298Z</time>
      </trkpt>
      <trkpt lat="48.51592" lon="7.17051">
        <ele>819</ele>
        <time>2021-02-21T10:17:47.299Z</time>
      </trkpt>
      <trkpt lat="48.51591" lon="7.17053">
        <ele>820</ele>
        <time>2021-02-21T10:17:48.299Z</time>
      </trkpt>
      <trkpt lat="48.51592" lon="7.17055">
        <ele>820</ele>
        <time>2021-02-21T10:17:49.299Z</time>
      </trkpt>
      <trkpt lat="48.51592" lon="7.17058">
        <ele>820</ele>
        <time>2021-02-21T10:17:50.298Z</time>
      </trkpt>
      <trkpt lat="48.51593" lon="7.1706">
        <ele>820</ele>
        <time>2021-02-21T10:17:51.299Z</time>
      </trkpt>
      <trkpt lat="48.51592" lon="7.17062">
        <ele>820</ele>
        <time>2021-02-21T10:17:52.299Z</time>
      </trkpt>
      <trkpt lat="48.51592" lon="7.17063">
        <ele>820</ele>
        <time>2021-02-21T10:17:53.299Z</time>
      </trkpt>
      <trkpt lat="48.51592" lon="7.17065">
        <ele>820</ele>
        <time>2021-02-21T10:17:54.298Z</time>
      </trkpt>
      <trkpt lat="48.51592" lon="7.17066">
        <ele>820</ele>
        <time>2021-02-21T10:17:55.299Z</time>
      </trkpt>
      <trkpt lat="48.51592" lon="7.17068">
        <ele>820</ele>
        <time>2021-02-21T10:17:56.298Z</time>
      </trkpt>
      <trkpt lat="48.51592" lon="7.17069">
        <ele>820</ele>
        <time>2021-02-21T10:17:57.299Z</time>
      </trkpt>
      <trkpt lat="48.51592" lon="7.1707">
        <ele>821</ele>
        <time>2021-02-21T10:17:58.299Z</time>
      </trkpt>
      <trkpt lat="48.51592" lon="7.17071">
        <ele>822</ele>
        <time>2021-02-21T10:17:59.298Z</time>
      </trkpt>
      <trkpt lat="48.51592" lon="7.17073">
        <ele>822</ele>
        <time>2021-02-21T10:18:00.298Z</time>
      </trkpt>
      <trkpt lat="48.51591" lon="7.17074">
        <ele>823</ele>
        <time>2021-02-21T10:18:01.299Z</time>
      </trkpt>
      <trkpt lat="48.51591" lon="7.17076">
        <ele>823</ele>
        <time>2021-02-21T10:18:02.299Z</time>
      </trkpt>
      <trkpt lat="48.51591" lon="7.17077">
        <ele>824</ele>
        <time>2021-02-21T10:18:03.298Z</time>
      </trkpt>
      <trkpt lat="48.5159" lon="7.17079">
        <ele>824</ele>
        <time>2021-02-21T10:18:04.298Z</time>
      </trkpt>
      <trkpt lat="48.5159" lon="7.17081">
        <ele>824</ele>
        <time>2021-02-21T10:18:05.299Z</time>
      </trkpt>
      <trkpt lat="48.5159" lon="7.17082">
        <ele>824</ele>
        <time>2021-02-21T10:18:06.298Z</time>
      </trkpt>
      <trkpt lat="48.51589" lon="7.17084">
        <ele>824</ele>
        <time>2021-02-21T10:18:07.299Z</time>
      </trkpt>
      <trkpt lat="48.51589" lon="7.17085">
        <ele>824</ele>
        <time>2021-02-21T10:18:08.299Z</time>
      </trkpt>
      <trkpt lat="48.51588" lon="7.17087">
        <ele>824</ele>
        <time>2021-02-21T10:18:09.298Z</time>
      </trkpt>
      <trkpt lat="48.51588" lon="7.17088">
        <ele>824</ele>
        <time>2021-02-21T10:18:10.298Z</time>
      </trkpt>
      <trkpt lat="48.51588" lon="7.1709">
        <ele>824</ele>
        <time>2021-02-21T10:18:11.298Z</time>
      </trkpt>
      <trkpt lat="48.51587" lon="7.17092">
        <ele>824</ele>
        <time>2021-02-21T10:18:12.298Z</time>
      </trkpt>
      <trkpt lat="48.51587" lon="7.17094">
        <ele>824</ele>
        <time>2021-02-21T10:18:13.299Z</time>
      </trkpt>
      <trkpt lat="48.51587" lon="7.17095">
        <ele>823</ele>
        <time>2021-02-21T10:18:14.298Z</time>
      </trkpt>
      <trkpt lat="48.51586" lon="7.17097">
        <ele>823</ele>
        <time>2021-02-21T10:18:15.298Z</time>
      </trkpt>
      <trkpt lat="48.51586" lon="7.17099">
        <ele>823</ele>
        <time>2021-02-21T10:18:16.298Z</time>
      </trkpt>
      <trkpt lat="48.51586" lon="7.171">
        <ele>823</ele>
        <time>2021-02-21T10:18:17.298Z</time>
      </trkpt>
      <trkpt lat="48.51586" lon="7.17102">
        <ele>824</ele>
        <time>2021-02-21T10:18:18.299Z</time>
      </trkpt>
      <trkpt lat="48.51586" lon="7.17104">
        <ele>825</ele>
        <time>2021-02-21T10:18:19.298Z</time>
      </trkpt>
      <trkpt lat="48.51585" lon="7.17105">
        <ele>826</ele>
        <time>2021-02-21T10:18:20.299Z</time>
      </trkpt>
      <trkpt lat="48.51585" lon="7.17107">
        <ele>827</ele>
        <time>2021-02-21T10:18:21.299Z</time>
      </trkpt>
      <trkpt lat="48.51584" lon="7.17109">
        <ele>828</ele>
        <time>2021-02-21T10:18:22.299Z</time>
      </trkpt>
      <trkpt lat="48.51584" lon="7.17111">
        <ele>829</ele>
        <time>2021-02-21T10:18:23.299Z</time>
      </trkpt>
      <trkpt lat="48.51584" lon="7.17113">
        <ele>830</ele>
        <time>2021-02-21T10:18:24.298Z</time>
      </trkpt>
      <trkpt lat="48.51583" lon="7.17114">
        <ele>830</ele>
        <time>2021-02-21T10:18:25.298Z</time>
      </trkpt>
      <trkpt lat="48.51583" lon="7.17116">
        <ele>830</ele>
        <time>2021-02-21T10:18:26.299Z</time>
      </trkpt>
      <trkpt lat="48.51583" lon="7.17118">
        <ele>830</ele>
        <time>2021-02-21T10:18:27.299Z</time>
      </trkpt>
      <trkpt lat="48.51583" lon="7.1712">
        <ele>830</ele>
        <time>2021-02-21T10:18:28.299Z</time>
      </trkpt>
      <trkpt lat="48.51583" lon="7.17121">
        <ele>830</ele>
        <time>2021-02-21T10:18:29.298Z</time>
      </trkpt>
      <trkpt lat="48.51583" lon="7.17123">
        <ele>830</ele>
        <time>2021-02-21T10:18:30.298Z</time>
      </trkpt>
      <trkpt lat="48.51582" lon="7.17125">
        <ele>830</ele>
        <time>2021-02-21T10:18:31.298Z</time>
      </trkpt>
      <trkpt lat="48.51582" lon="7.17128">
        <ele>830</ele>
        <time>2021-02-21T10:18:32.299Z</time>
      </trkpt>
      <trkpt lat="48.51581" lon="7.17131">
        <ele>829</ele>
        <time>2021-02-21T10:18:33.298Z</time>
      </trkpt>
      <trkpt lat="48.51581" lon="7.17133">
        <ele>829</ele>
        <time>2021-02-21T10:18:34.298Z</time>
      </trkpt>
      <trkpt lat="48.51581" lon="7.17134">
        <ele>828</ele>
        <time>2021-02-21T10:18:35.298Z</time>
      </trkpt>
      <trkpt lat="48.51581" lon="7.17136">
        <ele>828</ele>
        <time>2021-02-21T10:18:36.298Z</time>
      </trkpt>
      <trkpt lat="48.5158" lon="7.17139">
        <ele>828</ele>
        <time>2021-02-21T10:18:37.299Z</time>
      </trkpt>
      <trkpt lat="48.5158" lon="7.17141">
        <ele>828</ele>
        <time>2021-02-21T10:18:38.299Z</time>
      </trkpt>
      <trkpt lat="48.5158" lon="7.17143">
        <ele>827</ele>
        <time>2021-02-21T10:18:39.298Z</time>
      </trkpt>
      <trkpt lat="48.5158" lon="7.17147">
        <ele>827</ele>
        <time>2021-02-21T10:18:40.298Z</time>
      </trkpt>
      <trkpt lat="48.5158" lon="7.17148">
        <ele>827</ele>
        <time>2021-02-21T10:18:41.298Z</time>
      </trkpt>
      <trkpt lat="48.51579" lon="7.17151">
        <ele>827</ele>
        <time>2021-02-21T10:18:42.298Z</time>
      </trkpt>
      <trkpt lat="48.51579" lon="7.17153">
        <ele>827</ele>
        <time>2021-02-21T10:18:43.299Z</time>
      </trkpt>
      <trkpt lat="48.51578" lon="7.17155">
        <ele>826</ele>
        <time>2021-02-21T10:18:44.298Z</time>
      </trkpt>
      <trkpt lat="48.51578" lon="7.17156">
        <ele>827</ele>
        <time>2021-02-21T10:18:45.298Z</time>
      </trkpt>
      <trkpt lat="48.51578" lon="7.17157">
        <ele>827</ele>
        <time>2021-02-21T10:18:46.298Z</time>
      </trkpt>
      <trkpt lat="48.51578" lon="7.17158">
        <ele>828</ele>
        <time>2021-02-21T10:18:47.299Z</time>
      </trkpt>
      <trkpt lat="48.51577" lon="7.1716">
        <ele>829</ele>
        <time>2021-02-21T10:18:48.299Z</time>
      </trkpt>
      <trkpt lat="48.51577" lon="7.17161">
        <ele>829</ele>
        <time>2021-02-21T10:18:49.298Z</time>
      </trkpt>
      <trkpt lat="48.51577" lon="7.17162">
        <ele>830</ele>
        <time>2021-02-21T10:18:50.298Z</time>
      </trkpt>
      <trkpt lat="48.51577" lon="7.17164">
        <ele>831</ele>
        <time>2021-02-21T10:18:51.298Z</time>
      </trkpt>
      <trkpt lat="48.51577" lon="7.17165">
        <ele>832</ele>
        <time>2021-02-21T10:18:52.298Z</time>
      </trkpt>
      <trkpt lat="48.51577" lon="7.17167">
        <ele>832</ele>
        <time>2021-02-21T10:18:53.299Z</time>
      </trkpt>
      <trkpt lat="48.51577" lon="7.1717">
        <ele>832</ele>
        <time>2021-02-21T10:18:54.298Z</time>
      </trkpt>
      <trkpt lat="48.51577" lon="7.17172">
        <ele>833</ele>
        <time>2021-02-21T10:18:55.298Z</time>
      </trkpt>
      <trkpt lat="48.51578" lon="7.17174">
        <ele>833</ele>
        <time>2021-02-21T10:18:56.299Z</time>
      </trkpt>
      <trkpt lat="48.51578" lon="7.17175">
        <ele>834</ele>
        <time>2021-02-21T10:18:57.299Z</time>
      </trkpt>
      <trkpt lat="48.51577" lon="7.17177">
        <ele>834</ele>
        <time>2021-02-21T10:18:58.298Z</time>
      </trkpt>
      <trkpt lat="48.51577" lon="7.17179">
        <ele>834</ele>
        <time>2021-02-21T10:18:59.299Z</time>
      </trkpt>
      <trkpt lat="48.51577" lon="7.17181">
        <ele>834</ele>
        <time>2021-02-21T10:19:00.298Z</time>
      </trkpt>
      <trkpt lat="48.51577" lon="7.17182">
        <ele>834</ele>
        <time>2021-02-21T10:19:01.299Z</time>
      </trkpt>
      <trkpt lat="48.51576" lon="7.17183">
        <ele>833</ele>
        <time>2021-02-21T10:19:02.299Z</time>
      </trkpt>
      <trkpt lat="48.51575" lon="7.17184">
        <ele>833</ele>
        <time>2021-02-21T10:19:03.299Z</time>
      </trkpt>
      <trkpt lat="48.51575" lon="7.17186">
        <ele>833</ele>
        <time>2021-02-21T10:19:04.298Z</time>
      </trkpt>
      <trkpt lat="48.51575" lon="7.17188">
        <ele>833</ele>
        <time>2021-02-21T10:19:05.298Z</time>
      </trkpt>
      <trkpt lat="48.51575" lon="7.17189">
        <ele>833</ele>
        <time>2021-02-21T10:19:06.298Z</time>
      </trkpt>
      <trkpt lat="48.51574" lon="7.17191">
        <ele>833</ele>
        <time>2021-02-21T10:19:07.299Z</time>
      </trkpt>
      <trkpt lat="48.51574" lon="7.17193">
        <ele>834</ele>
        <time>2021-02-21T10:19:08.299Z</time>
      </trkpt>
      <trkpt lat="48.51573" lon="7.17194">
        <ele>834</ele>
        <time>2021-02-21T10:19:09.299Z</time>
      </trkpt>
      <trkpt lat="48.51573" lon="7.17196">
        <ele>833</ele>
        <time>2021-02-21T10:19:10.298Z</time>
      </trkpt>
      <trkpt lat="48.51572" lon="7.17198">
        <ele>833</ele>
        <time>2021-02-21T10:19:11.298Z</time>
      </trkpt>
      <trkpt lat="48.51572" lon="7.172">
        <ele>833</ele>
        <time>2021-02-21T10:19:12.298Z</time>
      </trkpt>
      <trkpt lat="48.51571" lon="7.17202">
        <ele>833</ele>
        <time>2021-02-21T10:19:13.299Z</time>
      </trkpt>
      <trkpt lat="48.51571" lon="7.17204">
        <ele>834</ele>
        <time>2021-02-21T10:19:14.298Z</time>
      </trkpt>
      <trkpt lat="48.51571" lon="7.17205">
        <ele>834</ele>
        <time>2021-02-21T10:19:15.298Z</time>
      </trkpt>
      <trkpt lat="48.5157" lon="7.17207">
        <ele>834</ele>
        <time>2021-02-21T10:19:16.298Z</time>
      </trkpt>
      <trkpt lat="48.5157" lon="7.17208">
        <ele>835</ele>
        <time>2021-02-21T10:19:17.298Z</time>
      </trkpt>
      <trkpt lat="48.51569" lon="7.1721">
        <ele>835</ele>
        <time>2021-02-21T10:19:18.298Z</time>
      </trkpt>
      <trkpt lat="48.51569" lon="7.17212">
        <ele>835</ele>
        <time>2021-02-21T10:19:19.298Z</time>
      </trkpt>
      <trkpt lat="48.51568" lon="7.17213">
        <ele>835</ele>
        <time>2021-02-21T10:19:20.299Z</time>
      </trkpt>
      <trkpt lat="48.51567" lon="7.17215">
        <ele>835</ele>
        <time>2021-02-21T10:19:21.298Z</time>
      </trkpt>
      <trkpt lat="48.51566" lon="7.17217">
        <ele>835</ele>
        <time>2021-02-21T10:19:22.298Z</time>
      </trkpt>
      <trkpt lat="48.51566" lon="7.17218">
        <ele>835</ele>
        <time>2021-02-21T10:19:23.298Z</time>
      </trkpt>
      <trkpt lat="48.51565" lon="7.1722">
        <ele>835</ele>
        <time>2021-02-21T10:19:24.299Z</time>
      </trkpt>
      <trkpt lat="48.51564" lon="7.17222">
        <ele>835</ele>
        <time>2021-02-21T10:19:25.299Z</time>
      </trkpt>
      <trkpt lat="48.51564" lon="7.17224">
        <ele>836</ele>
        <time>2021-02-21T10:19:26.299Z</time>
      </trkpt>
      <trkpt lat="48.51563" lon="7.17226">
        <ele>836</ele>
        <time>2021-02-21T10:19:27.299Z</time>
      </trkpt>
      <trkpt lat="48.51563" lon="7.17228">
        <ele>837</ele>
        <time>2021-02-21T10:19:28.298Z</time>
      </trkpt>
      <trkpt lat="48.51562" lon="7.1723">
        <ele>837</ele>
        <time>2021-02-21T10:19:29.298Z</time>
      </trkpt>
      <trkpt lat="48.51561" lon="7.17232">
        <ele>838</ele>
        <time>2021-02-21T10:19:30.298Z</time>
      </trkpt>
      <trkpt lat="48.5156" lon="7.17234">
        <ele>838</ele>
        <time>2021-02-21T10:19:31.298Z</time>
      </trkpt>
      <trkpt lat="48.51559" lon="7.17236">
        <ele>839</ele>
        <time>2021-02-21T10:19:32.298Z</time>
      </trkpt>
      <trkpt lat="48.51558" lon="7.17237">
        <ele>839</ele>
        <time>2021-02-21T10:19:33.298Z</time>
      </trkpt>
      <trkpt lat="48.51557" lon="7.17239">
        <ele>840</ele>
        <time>2021-02-21T10:19:34.299Z</time>
      </trkpt>
      <trkpt lat="48.51556" lon="7.17241">
        <ele>840</ele>
        <time>2021-02-21T10:19:35.299Z</time>
      </trkpt>
      <trkpt lat="48.51555" lon="7.17242">
        <ele>841</ele>
        <time>2021-02-21T10:19:36.299Z</time>
      </trkpt>
      <trkpt lat="48.51554" lon="7.17243">
        <ele>841</ele>
        <time>2021-02-21T10:19:37.299Z</time>
      </trkpt>
      <trkpt lat="48.51553" lon="7.17245">
        <ele>840</ele>
        <time>2021-02-21T10:19:38.299Z</time>
      </trkpt>
      <trkpt lat="48.51552" lon="7.17246">
        <ele>840</ele>
        <time>2021-02-21T10:19:39.299Z</time>
      </trkpt>
      <trkpt lat="48.51551" lon="7.17248">
        <ele>840</ele>
        <time>2021-02-21T10:19:40.298Z</time>
      </trkpt>
      <trkpt lat="48.5155" lon="7.17249">
        <ele>840</ele>
        <time>2021-02-21T10:19:41.299Z</time>
      </trkpt>
      <trkpt lat="48.5155" lon="7.1725">
        <ele>839</ele>
        <time>2021-02-21T10:19:42.298Z</time>
      </trkpt>
      <trkpt lat="48.51549" lon="7.17251">
        <ele>838</ele>
        <time>2021-02-21T10:19:43.298Z</time>
      </trkpt>
      <trkpt lat="48.51548" lon="7.17252">
        <ele>838</ele>
        <time>2021-02-21T10:19:44.299Z</time>
      </trkpt>
      <trkpt lat="48.51546" lon="7.17254">
        <ele>837</ele>
        <time>2021-02-21T10:19:45.299Z</time>
      </trkpt>
      <trkpt lat="48.51545" lon="7.17256">
        <ele>837</ele>
        <time>2021-02-21T10:19:46.299Z</time>
      </trkpt>
      <trkpt lat="48.51543" lon="7.17258">
        <ele>837</ele>
        <time>2021-02-21T10:19:47.298Z</time>
      </trkpt>
      <trkpt lat="48.51542" lon="7.1726">
        <ele>838</ele>
        <time>2021-02-21T10:19:48.299Z</time>
      </trkpt>
      <trkpt lat="48.51541" lon="7.17262">
        <ele>838</ele>
        <time>2021-02-21T10:19:49.298Z</time>
      </trkpt>
      <trkpt lat="48.5154" lon="7.17264">
        <ele>838</ele>
        <time>2021-02-21T10:19:50.299Z</time>
      </trkpt>
      <trkpt lat="48.51539" lon="7.17266">
        <ele>838</ele>
        <time>2021-02-21T10:19:51.299Z</time>
      </trkpt>
      <trkpt lat="48.51538" lon="7.17268">
        <ele>838</ele>
        <time>2021-02-21T10:19:52.299Z</time>
      </trkpt>
      <trkpt lat="48.51537" lon="7.17269">
        <ele>838</ele>
        <time>2021-02-21T10:19:53.299Z</time>
      </trkpt>
      <trkpt lat="48.51536" lon="7.17271">
        <ele>838</ele>
        <time>2021-02-21T10:19:54.299Z</time>
      </trkpt>
      <trkpt lat="48.51534" lon="7.17273">
        <ele>838</ele>
        <time>2021-02-21T10:19:55.299Z</time>
      </trkpt>
      <trkpt lat="48.51534" lon="7.17275">
        <ele>838</ele>
        <time>2021-02-21T10:19:56.299Z</time>
      </trkpt>
      <trkpt lat="48.51533" lon="7.17276">
        <ele>838</ele>
        <time>2021-02-21T10:19:57.299Z</time>
      </trkpt>
      <trkpt lat="48.51532" lon="7.17277">
        <ele>838</ele>
        <time>2021-02-21T10:19:58.299Z</time>
      </trkpt>
      <trkpt lat="48.5153" lon="7.17278">
        <ele>838</ele>
        <time>2021-02-21T10:19:59.299Z</time>
      </trkpt>
      <trkpt lat="48.51529" lon="7.1728">
        <ele>839</ele>
        <time>2021-02-21T10:20:00.299Z</time>
      </trkpt>
      <trkpt lat="48.51528" lon="7.17281">
        <ele>839</ele>
        <time>2021-02-21T10:20:01.299Z</time>
      </trkpt>
      <trkpt lat="48.51527" lon="7.17282">
        <ele>840</ele>
        <time>2021-02-21T10:20:02.299Z</time>
      </trkpt>
      <trkpt lat="48.51526" lon="7.17284">
        <ele>840</ele>
        <time>2021-02-21T10:20:03.299Z</time>
      </trkpt>
      <trkpt lat="48.51525" lon="7.17285">
        <ele>840</ele>
        <time>2021-02-21T10:20:04.299Z</time>
      </trkpt>
      <trkpt lat="48.51524" lon="7.17286">
        <ele>840</ele>
        <time>2021-02-21T10:20:05.299Z</time>
      </trkpt>
      <trkpt lat="48.51522" lon="7.17288">
        <ele>840</ele>
        <time>2021-02-21T10:20:06.299Z</time>
      </trkpt>
      <trkpt lat="48.51521" lon="7.17289">
        <ele>840</ele>
        <time>2021-02-21T10:20:07.298Z</time>
      </trkpt>
      <trkpt lat="48.5152" lon="7.17291">
        <ele>839</ele>
        <time>2021-02-21T10:20:08.298Z</time>
      </trkpt>
      <trkpt lat="48.51519" lon="7.17292">
        <ele>838</ele>
        <time>2021-02-21T10:20:09.299Z</time>
      </trkpt>
      <trkpt lat="48.51518" lon="7.17293">
        <ele>837</ele>
        <time>2021-02-21T10:20:10.299Z</time>
      </trkpt>
      <trkpt lat="48.51517" lon="7.17295">
        <ele>836</ele>
        <time>2021-02-21T10:20:11.299Z</time>
      </trkpt>
      <trkpt lat="48.51515" lon="7.17296">
        <ele>836</ele>
        <time>2021-02-21T10:20:12.298Z</time>
      </trkpt>
      <trkpt lat="48.51514" lon="7.17297">
        <ele>836</ele>
        <time>2021-02-21T10:20:13.298Z</time>
      </trkpt>
      <trkpt lat="48.51513" lon="7.17299">
        <ele>836</ele>
        <time>2021-02-21T10:20:14.299Z</time>
      </trkpt>
      <trkpt lat="48.51512" lon="7.173">
        <ele>836</ele>
        <time>2021-02-21T10:20:15.299Z</time>
      </trkpt>
      <trkpt lat="48.51511" lon="7.17301">
        <ele>836</ele>
        <time>2021-02-21T10:20:16.299Z</time>
      </trkpt>
      <trkpt lat="48.51511" lon="7.17302">
        <ele>836</ele>
        <time>2021-02-21T10:20:17.299Z</time>
      </trkpt>
      <trkpt lat="48.51509" lon="7.17303">
        <ele>836</ele>
        <time>2021-02-21T10:20:18.299Z</time>
      </trkpt>
      <trkpt lat="48.51508" lon="7.17305">
        <ele>836</ele>
        <time>2021-02-21T10:20:19.299Z</time>
      </trkpt>
      <trkpt lat="48.51507" lon="7.17306">
        <ele>837</ele>
        <time>2021-02-21T10:20:20.299Z</time>
      </trkpt>
      <trkpt lat="48.51507" lon="7.17307">
        <ele>838</ele>
        <time>2021-02-21T10:20:21.299Z</time>
      </trkpt>
      <trkpt lat="48.51506" lon="7.17308">
        <ele>839</ele>
        <time>2021-02-21T10:20:22.299Z</time>
      </trkpt>
      <trkpt lat="48.51505" lon="7.17309">
        <ele>839</ele>
        <time>2021-02-21T10:20:23.298Z</time>
      </trkpt>
      <trkpt lat="48.51504" lon="7.1731">
        <ele>839</ele>
        <time>2021-02-21T10:20:24.299Z</time>
      </trkpt>
      <trkpt lat="48.51503" lon="7.17311">
        <ele>839</ele>
        <time>2021-02-21T10:20:25.299Z</time>
      </trkpt>
      <trkpt lat="48.51502" lon="7.17312">
        <ele>839</ele>
        <time>2021-02-21T10:20:26.299Z</time>
      </trkpt>
      <trkpt lat="48.515" lon="7.17314">
        <ele>839</ele>
        <time>2021-02-21T10:20:27.299Z</time>
      </trkpt>
      <trkpt lat="48.51499" lon="7.17316">
        <ele>839</ele>
        <time>2021-02-21T10:20:28.298Z</time>
      </trkpt>
      <trkpt lat="48.51498" lon="7.17319">
        <ele>839</ele>
        <time>2021-02-21T10:20:29.299Z</time>
      </trkpt>
      <trkpt lat="48.51497" lon="7.17322">
        <ele>839</ele>
        <time>2021-02-21T10:20:30.299Z</time>
      </trkpt>
      <trkpt lat="48.51496" lon="7.17323">
        <ele>840</ele>
        <time>2021-02-21T10:20:31.299Z</time>
      </trkpt>
      <trkpt lat="48.51495" lon="7.17324">
        <ele>840</ele>
        <time>2021-02-21T10:20:32.299Z</time>
      </trkpt>
      <trkpt lat="48.51494" lon="7.17325">
        <ele>840</ele>
        <time>2021-02-21T10:20:33.299Z</time>
      </trkpt>
      <trkpt lat="48.51494" lon="7.17327">
        <ele>840</ele>
        <time>2021-02-21T10:20:34.299Z</time>
      </trkpt>
      <trkpt lat="48.51493" lon="7.17328">
        <ele>840</ele>
        <time>2021-02-21T10:20:35.299Z</time>
      </trkpt>
      <trkpt lat="48.51492" lon="7.17329">
        <ele>840</ele>
        <time>2021-02-21T10:20:36.299Z</time>
      </trkpt>
      <trkpt lat="48.51491" lon="7.1733">
        <ele>840</ele>
        <time>2021-02-21T10:20:37.298Z</time>
      </trkpt>
      <trkpt lat="48.5149" lon="7.17331">
        <ele>840</ele>
        <time>2021-02-21T10:20:38.298Z</time>
      </trkpt>
      <trkpt lat="48.51489" lon="7.17332">
        <ele>840</ele>
        <time>2021-02-21T10:20:39.299Z</time>
      </trkpt>
      <trkpt lat="48.51488" lon="7.17333">
        <ele>840</ele>
        <time>2021-02-21T10:20:40.299Z</time>
      </trkpt>
      <trkpt lat="48.51487" lon="7.17334">
        <ele>840</ele>
        <time>2021-02-21T10:20:41.299Z</time>
      </trkpt>
      <trkpt lat="48.51486" lon="7.17335">
        <ele>840</ele>
        <time>2021-02-21T10:20:42.298Z</time>
      </trkpt>
      <trkpt lat="48.51484" lon="7.17336">
        <ele>840</ele>
        <time>2021-02-21T10:20:43.299Z</time>
      </trkpt>
      <trkpt lat="48.51483" lon="7.17337">
        <ele>839</ele>
        <time>2021-02-21T10:20:44.299Z</time>
      </trkpt>
      <trkpt lat="48.51482" lon="7.17338">
        <ele>839</ele>
        <time>2021-02-21T10:20:45.299Z</time>
      </trkpt>
      <trkpt lat="48.51481" lon="7.17339">
        <ele>838</ele>
        <time>2021-02-21T10:20:46.299Z</time>
      </trkpt>
      <trkpt lat="48.5148" lon="7.1734">
        <ele>837</ele>
        <time>2021-02-21T10:20:47.299Z</time>
      </trkpt>
      <trkpt lat="48.5148" lon="7.17341">
        <ele>837</ele>
        <time>2021-02-21T10:20:48.298Z</time>
      </trkpt>
      <trkpt lat="48.51479" lon="7.17342">
        <ele>836</ele>
        <time>2021-02-21T10:20:49.299Z</time>
      </trkpt>
      <trkpt lat="48.51478" lon="7.17343">
        <ele>836</ele>
        <time>2021-02-21T10:20:50.299Z</time>
      </trkpt>
      <trkpt lat="48.51477" lon="7.17345">
        <ele>835</ele>
        <time>2021-02-21T10:20:51.299Z</time>
      </trkpt>
      <trkpt lat="48.51476" lon="7.17346">
        <ele>835</ele>
        <time>2021-02-21T10:20:52.299Z</time>
      </trkpt>
      <trkpt lat="48.51474" lon="7.17349">
        <ele>834</ele>
        <time>2021-02-21T10:20:53.299Z</time>
      </trkpt>
      <trkpt lat="48.51473" lon="7.17351">
        <ele>834</ele>
        <time>2021-02-21T10:20:54.299Z</time>
      </trkpt>
      <trkpt lat="48.51471" lon="7.17351">
        <ele>835</ele>
        <time>2021-02-21T10:20:55.299Z</time>
      </trkpt>
      <trkpt lat="48.5147" lon="7.17352">
        <ele>835</ele>
        <time>2021-02-21T10:20:56.299Z</time>
      </trkpt>
      <trkpt lat="48.51468" lon="7.17353">
        <ele>834</ele>
        <time>2021-02-21T10:20:57.299Z</time>
      </trkpt>
      <trkpt lat="48.51467" lon="7.17355">
        <ele>834</ele>
        <time>2021-02-21T10:20:58.298Z</time>
      </trkpt>
      <trkpt lat="48.51465" lon="7.17357">
        <ele>834</ele>
        <time>2021-02-21T10:20:59.299Z</time>
      </trkpt>
      <trkpt lat="48.51464" lon="7.17358">
        <ele>834</ele>
        <time>2021-02-21T10:21:00.299Z</time>
      </trkpt>
      <trkpt lat="48.51463" lon="7.17359">
        <ele>835</ele>
        <time>2021-02-21T10:21:01.299Z</time>
      </trkpt>
      <trkpt lat="48.51461" lon="7.1736">
        <ele>834</ele>
        <time>2021-02-21T10:21:02.298Z</time>
      </trkpt>
      <trkpt lat="48.51459" lon="7.17361">
        <ele>834</ele>
        <time>2021-02-21T10:21:03.299Z</time>
      </trkpt>
      <trkpt lat="48.51458" lon="7.17362">
        <ele>833</ele>
        <time>2021-02-21T10:21:04.299Z</time>
      </trkpt>
      <trkpt lat="48.51456" lon="7.17363">
        <ele>832</ele>
        <time>2021-02-21T10:21:05.299Z</time>
      </trkpt>
      <trkpt lat="48.51455" lon="7.17364">
        <ele>831</ele>
        <time>2021-02-21T10:21:06.299Z</time>
      </trkpt>
      <trkpt lat="48.51454" lon="7.17365">
        <ele>831</ele>
        <time>2021-02-21T10:21:12.309Z</time>
      </trkpt>
      <trkpt lat="48.51453" lon="7.17366">
        <ele>831</ele>
        <time>2021-02-21T10:21:13.308Z</time>
      </trkpt>
      <trkpt lat="48.51452" lon="7.17367">
        <ele>830</ele>
        <time>2021-02-21T10:21:14.309Z</time>
      </trkpt>
      <trkpt lat="48.5145" lon="7.17368">
        <ele>830</ele>
        <time>2021-02-21T10:21:15.308Z</time>
      </trkpt>
      <trkpt lat="48.51449" lon="7.17369">
        <ele>830</ele>
        <time>2021-02-21T10:21:16.308Z</time>
      </trkpt>
      <trkpt lat="48.51448" lon="7.1737">
        <ele>831</ele>
        <time>2021-02-21T10:21:17.309Z</time>
      </trkpt>
      <trkpt lat="48.51447" lon="7.17371">
        <ele>831</ele>
        <time>2021-02-21T10:21:18.308Z</time>
      </trkpt>
      <trkpt lat="48.51446" lon="7.17372">
        <ele>831</ele>
        <time>2021-02-21T10:21:19.309Z</time>
      </trkpt>
      <trkpt lat="48.51444" lon="7.17373">
        <ele>831</ele>
        <time>2021-02-21T10:21:20.309Z</time>
      </trkpt>
      <trkpt lat="48.51443" lon="7.17374">
        <ele>831</ele>
        <time>2021-02-21T10:21:21.309Z</time>
      </trkpt>
      <trkpt lat="48.51442" lon="7.17376">
        <ele>832</ele>
        <time>2021-02-21T10:21:22.309Z</time>
      </trkpt>
      <trkpt lat="48.51442" lon="7.17377">
        <ele>832</ele>
        <time>2021-02-21T10:21:23.309Z</time>
      </trkpt>
      <trkpt lat="48.51441" lon="7.17378">
        <ele>832</ele>
        <time>2021-02-21T10:21:24.309Z</time>
      </trkpt>
      <trkpt lat="48.51439" lon="7.1738">
        <ele>831</ele>
        <time>2021-02-21T10:21:25.309Z</time>
      </trkpt>
      <trkpt lat="48.51438" lon="7.17381">
        <ele>831</ele>
        <time>2021-02-21T10:21:26.309Z</time>
      </trkpt>
      <trkpt lat="48.51437" lon="7.17382">
        <ele>831</ele>
        <time>2021-02-21T10:21:27.308Z</time>
      </trkpt>
      <trkpt lat="48.51436" lon="7.17383">
        <ele>832</ele>
        <time>2021-02-21T10:21:28.308Z</time>
      </trkpt>
      <trkpt lat="48.51435" lon="7.17384">
        <ele>832</ele>
        <time>2021-02-21T10:21:29.309Z</time>
      </trkpt>
      <trkpt lat="48.51434" lon="7.17385">
        <ele>832</ele>
        <time>2021-02-21T10:21:30.309Z</time>
      </trkpt>
      <trkpt lat="48.51433" lon="7.17387">
        <ele>831</ele>
        <time>2021-02-21T10:21:31.309Z</time>
      </trkpt>
      <trkpt lat="48.51432" lon="7.17388">
        <ele>831</ele>
        <time>2021-02-21T10:21:32.309Z</time>
      </trkpt>
      <trkpt lat="48.51431" lon="7.17389">
        <ele>831</ele>
        <time>2021-02-21T10:21:33.309Z</time>
      </trkpt>
      <trkpt lat="48.5143" lon="7.1739">
        <ele>830</ele>
        <time>2021-02-21T10:21:34.309Z</time>
      </trkpt>
      <trkpt lat="48.51429" lon="7.17391">
        <ele>830</ele>
        <time>2021-02-21T10:21:35.309Z</time>
      </trkpt>
      <trkpt lat="48.51428" lon="7.17392">
        <ele>830</ele>
        <time>2021-02-21T10:21:36.309Z</time>
      </trkpt>
      <trkpt lat="48.51427" lon="7.17393">
        <ele>829</ele>
        <time>2021-02-21T10:21:37.309Z</time>
      </trkpt>
      <trkpt lat="48.51425" lon="7.17394">
        <ele>829</ele>
        <time>2021-02-21T10:21:38.309Z</time>
      </trkpt>
      <trkpt lat="48.51424" lon="7.17395">
        <ele>829</ele>
        <time>2021-02-21T10:21:39.309Z</time>
      </trkpt>
      <trkpt lat="48.51423" lon="7.17396">
        <ele>829</ele>
        <time>2021-02-21T10:21:40.309Z</time>
      </trkpt>
      <trkpt lat="48.51422" lon="7.17398">
        <ele>828</ele>
        <time>2021-02-21T10:21:41.309Z</time>
      </trkpt>
      <trkpt lat="48.51421" lon="7.17399">
        <ele>827</ele>
        <time>2021-02-21T10:21:42.309Z</time>
      </trkpt>
      <trkpt lat="48.51419" lon="7.17401">
        <ele>827</ele>
        <time>2021-02-21T10:21:43.309Z</time>
      </trkpt>
      <trkpt lat="48.51418" lon="7.17402">
        <ele>827</ele>
        <time>2021-02-21T10:21:44.308Z</time>
      </trkpt>
      <trkpt lat="48.51417" lon="7.17404">
        <ele>826</ele>
        <time>2021-02-21T10:21:45.309Z</time>
      </trkpt>
      <trkpt lat="48.51416" lon="7.17405">
        <ele>825</ele>
        <time>2021-02-21T10:21:46.309Z</time>
      </trkpt>
      <trkpt lat="48.51415" lon="7.17407">
        <ele>825</ele>
        <time>2021-02-21T10:21:47.309Z</time>
      </trkpt>
      <trkpt lat="48.51414" lon="7.17408">
        <ele>825</ele>
        <time>2021-02-21T10:21:48.308Z</time>
      </trkpt>
      <trkpt lat="48.51413" lon="7.17409">
        <ele>825</ele>
        <time>2021-02-21T10:21:49.309Z</time>
      </trkpt>
      <trkpt lat="48.51411" lon="7.17411">
        <ele>826</ele>
        <time>2021-02-21T10:21:50.309Z</time>
      </trkpt>
      <trkpt lat="48.5141" lon="7.17413">
        <ele>826</ele>
        <time>2021-02-21T10:21:51.309Z</time>
      </trkpt>
      <trkpt lat="48.51409" lon="7.17415">
        <ele>826</ele>
        <time>2021-02-21T10:21:52.308Z</time>
      </trkpt>
      <trkpt lat="48.51408" lon="7.17416">
        <ele>826</ele>
        <time>2021-02-21T10:21:53.308Z</time>
      </trkpt>
      <trkpt lat="48.51407" lon="7.17418">
        <ele>826</ele>
        <time>2021-02-21T10:21:54.308Z</time>
      </trkpt>
      <trkpt lat="48.51406" lon="7.1742">
        <ele>826</ele>
        <time>2021-02-21T10:21:55.309Z</time>
      </trkpt>
      <trkpt lat="48.51405" lon="7.17421">
        <ele>826</ele>
        <time>2021-02-21T10:21:56.308Z</time>
      </trkpt>
      <trkpt lat="48.51404" lon="7.17423">
        <ele>826</ele>
        <time>2021-02-21T10:21:57.308Z</time>
      </trkpt>
      <trkpt lat="48.51403" lon="7.17424">
        <ele>826</ele>
        <time>2021-02-21T10:21:58.309Z</time>
      </trkpt>
      <trkpt lat="48.51402" lon="7.17426">
        <ele>826</ele>
        <time>2021-02-21T10:21:59.309Z</time>
      </trkpt>
      <trkpt lat="48.51401" lon="7.17428">
        <ele>826</ele>
        <time>2021-02-21T10:22:00.309Z</time>
      </trkpt>
      <trkpt lat="48.51399" lon="7.1743">
        <ele>826</ele>
        <time>2021-02-21T10:22:01.309Z</time>
      </trkpt>
      <trkpt lat="48.51398" lon="7.17432">
        <ele>827</ele>
        <time>2021-02-21T10:22:02.308Z</time>
      </trkpt>
      <trkpt lat="48.51397" lon="7.17433">
        <ele>827</ele>
        <time>2021-02-21T10:22:03.309Z</time>
      </trkpt>
      <trkpt lat="48.51396" lon="7.17435">
        <ele>826</ele>
        <time>2021-02-21T10:22:04.309Z</time>
      </trkpt>
      <trkpt lat="48.51395" lon="7.17437">
        <ele>827</ele>
        <time>2021-02-21T10:22:05.309Z</time>
      </trkpt>
      <trkpt lat="48.51395" lon="7.17438">
        <ele>827</ele>
        <time>2021-02-21T10:22:06.309Z</time>
      </trkpt>
      <trkpt lat="48.51394" lon="7.1744">
        <ele>828</ele>
        <time>2021-02-21T10:22:07.309Z</time>
      </trkpt>
      <trkpt lat="48.51393" lon="7.17442">
        <ele>828</ele>
        <time>2021-02-21T10:22:08.309Z</time>
      </trkpt>
      <trkpt lat="48.51392" lon="7.17443">
        <ele>829</ele>
        <time>2021-02-21T10:22:09.309Z</time>
      </trkpt>
      <trkpt lat="48.51391" lon="7.17445">
        <ele>829</ele>
        <time>2021-02-21T10:22:10.309Z</time>
      </trkpt>
      <trkpt lat="48.51391" lon="7.17446">
        <ele>830</ele>
        <time>2021-02-21T10:22:11.309Z</time>
      </trkpt>
      <trkpt lat="48.5139" lon="7.17448">
        <ele>830</ele>
        <time>2021-02-21T10:22:12.309Z</time>
      </trkpt>
      <trkpt lat="48.51389" lon="7.1745">
        <ele>830</ele>
        <time>2021-02-21T10:22:13.308Z</time>
      </trkpt>
      <trkpt lat="48.51388" lon="7.17452">
        <ele>830</ele>
        <time>2021-02-21T10:22:14.309Z</time>
      </trkpt>
      <trkpt lat="48.51388" lon="7.17453">
        <ele>831</ele>
        <time>2021-02-21T10:22:15.309Z</time>
      </trkpt>
      <trkpt lat="48.51387" lon="7.17455">
        <ele>832</ele>
        <time>2021-02-21T10:22:16.308Z</time>
      </trkpt>
      <trkpt lat="48.51386" lon="7.17457">
        <ele>832</ele>
        <time>2021-02-21T10:22:17.308Z</time>
      </trkpt>
      <trkpt lat="48.51385" lon="7.17458">
        <ele>832</ele>
        <time>2021-02-21T10:22:18.309Z</time>
      </trkpt>
      <trkpt lat="48.51384" lon="7.1746">
        <ele>832</ele>
        <time>2021-02-21T10:22:19.309Z</time>
      </trkpt>
      <trkpt lat="48.51384" lon="7.17461">
        <ele>831</ele>
        <time>2021-02-21T10:22:20.309Z</time>
      </trkpt>
      <trkpt lat="48.51383" lon="7.17463">
        <ele>830</ele>
        <time>2021-02-21T10:22:21.309Z</time>
      </trkpt>
      <trkpt lat="48.51383" lon="7.17465">
        <ele>830</ele>
        <time>2021-02-21T10:22:22.309Z</time>
      </trkpt>
      <trkpt lat="48.51382" lon="7.17466">
        <ele>829</ele>
        <time>2021-02-21T10:22:23.309Z</time>
      </trkpt>
      <trkpt lat="48.51382" lon="7.17468">
        <ele>829</ele>
        <time>2021-02-21T10:22:24.309Z</time>
      </trkpt>
      <trkpt lat="48.51382" lon="7.1747">
        <ele>829</ele>
        <time>2021-02-21T10:22:25.309Z</time>
      </trkpt>
      <trkpt lat="48.51382" lon="7.17472">
        <ele>829</ele>
        <time>2021-02-21T10:22:26.309Z</time>
      </trkpt>
      <trkpt lat="48.51381" lon="7.17474">
        <ele>829</ele>
        <time>2021-02-21T10:22:27.309Z</time>
      </trkpt>
      <trkpt lat="48.51381" lon="7.17476">
        <ele>829</ele>
        <time>2021-02-21T10:22:28.309Z</time>
      </trkpt>
      <trkpt lat="48.5138" lon="7.17477">
        <ele>828</ele>
        <time>2021-02-21T10:22:29.309Z</time>
      </trkpt>
      <trkpt lat="48.5138" lon="7.17479">
        <ele>828</ele>
        <time>2021-02-21T10:22:30.309Z</time>
      </trkpt>
      <trkpt lat="48.5138" lon="7.17481">
        <ele>828</ele>
        <time>2021-02-21T10:22:31.309Z</time>
      </trkpt>
      <trkpt lat="48.51379" lon="7.17483">
        <ele>829</ele>
        <time>2021-02-21T10:22:32.308Z</time>
      </trkpt>
      <trkpt lat="48.51379" lon="7.17486">
        <ele>829</ele>
        <time>2021-02-21T10:22:33.308Z</time>
      </trkpt>
      <trkpt lat="48.51378" lon="7.17488">
        <ele>829</ele>
        <time>2021-02-21T10:22:34.309Z</time>
      </trkpt>
      <trkpt lat="48.51378" lon="7.1749">
        <ele>829</ele>
        <time>2021-02-21T10:22:35.309Z</time>
      </trkpt>
      <trkpt lat="48.51377" lon="7.17492">
        <ele>828</ele>
        <time>2021-02-21T10:22:36.309Z</time>
      </trkpt>
      <trkpt lat="48.51377" lon="7.17494">
        <ele>828</ele>
        <time>2021-02-21T10:22:37.309Z</time>
      </trkpt>
      <trkpt lat="48.51377" lon="7.17496">
        <ele>828</ele>
        <time>2021-02-21T10:22:38.309Z</time>
      </trkpt>
      <trkpt lat="48.51377" lon="7.17498">
        <ele>828</ele>
        <time>2021-02-21T10:22:39.309Z</time>
      </trkpt>
      <trkpt lat="48.51376" lon="7.175">
        <ele>827</ele>
        <time>2021-02-21T10:22:40.309Z</time>
      </trkpt>
      <trkpt lat="48.51375" lon="7.17502">
        <ele>827</ele>
        <time>2021-02-21T10:22:41.309Z</time>
      </trkpt>
      <trkpt lat="48.51375" lon="7.17504">
        <ele>827</ele>
        <time>2021-02-21T10:22:42.309Z</time>
      </trkpt>
      <trkpt lat="48.51375" lon="7.17506">
        <ele>828</ele>
        <time>2021-02-21T10:22:43.309Z</time>
      </trkpt>
      <trkpt lat="48.51375" lon="7.17508">
        <ele>828</ele>
        <time>2021-02-21T10:22:44.309Z</time>
      </trkpt>
      <trkpt lat="48.51374" lon="7.17511">
        <ele>828</ele>
        <time>2021-02-21T10:22:45.309Z</time>
      </trkpt>
      <trkpt lat="48.51374" lon="7.17512">
        <ele>829</ele>
        <time>2021-02-21T10:22:46.309Z</time>
      </trkpt>
      <trkpt lat="48.51373" lon="7.17515">
        <ele>829</ele>
        <time>2021-02-21T10:22:47.309Z</time>
      </trkpt>
      <trkpt lat="48.51373" lon="7.17517">
        <ele>829</ele>
        <time>2021-02-21T10:22:48.309Z</time>
      </trkpt>
      <trkpt lat="48.51372" lon="7.17519">
        <ele>829</ele>
        <time>2021-02-21T10:22:49.309Z</time>
      </trkpt>
      <trkpt lat="48.51371" lon="7.17521">
        <ele>829</ele>
        <time>2021-02-21T10:22:50.309Z</time>
      </trkpt>
      <trkpt lat="48.5137" lon="7.17522">
        <ele>829</ele>
        <time>2021-02-21T10:22:51.309Z</time>
      </trkpt>
      <trkpt lat="48.5137" lon="7.17524">
        <ele>829</ele>
        <time>2021-02-21T10:22:52.309Z</time>
      </trkpt>
      <trkpt lat="48.51369" lon="7.17526">
        <ele>829</ele>
        <time>2021-02-21T10:22:53.309Z</time>
      </trkpt>
      <trkpt lat="48.51369" lon="7.17528">
        <ele>829</ele>
        <time>2021-02-21T10:22:54.309Z</time>
      </trkpt>
      <trkpt lat="48.51368" lon="7.1753">
        <ele>829</ele>
        <time>2021-02-21T10:22:55.309Z</time>
      </trkpt>
      <trkpt lat="48.51368" lon="7.17531">
        <ele>829</ele>
        <time>2021-02-21T10:22:56.309Z</time>
      </trkpt>
      <trkpt lat="48.51367" lon="7.17533">
        <ele>829</ele>
        <time>2021-02-21T10:22:57.309Z</time>
      </trkpt>
      <trkpt lat="48.51367" lon="7.17535">
        <ele>829</ele>
        <time>2021-02-21T10:22:58.308Z</time>
      </trkpt>
      <trkpt lat="48.51366" lon="7.17537">
        <ele>829</ele>
        <time>2021-02-21T10:22:59.309Z</time>
      </trkpt>
      <trkpt lat="48.51365" lon="7.1754">
        <ele>829</ele>
        <time>2021-02-21T10:23:00.308Z</time>
      </trkpt>
      <trkpt lat="48.51365" lon="7.17542">
        <ele>829</ele>
        <time>2021-02-21T10:23:01.308Z</time>
      </trkpt>
      <trkpt lat="48.51364" lon="7.17544">
        <ele>829</ele>
        <time>2021-02-21T10:23:02.309Z</time>
      </trkpt>
      <trkpt lat="48.51364" lon="7.17547">
        <ele>829</ele>
        <time>2021-02-21T10:23:03.308Z</time>
      </trkpt>
      <trkpt lat="48.51363" lon="7.17549">
        <ele>829</ele>
        <time>2021-02-21T10:23:04.308Z</time>
      </trkpt>
      <trkpt lat="48.51363" lon="7.17551">
        <ele>829</ele>
        <time>2021-02-21T10:23:05.309Z</time>
      </trkpt>
      <trkpt lat="48.51362" lon="7.17553">
        <ele>830</ele>
        <time>2021-02-21T10:23:06.309Z</time>
      </trkpt>
      <trkpt lat="48.51361" lon="7.17555">
        <ele>830</ele>
        <time>2021-02-21T10:23:07.309Z</time>
      </trkpt>
      <trkpt lat="48.51361" lon="7.17558">
        <ele>830</ele>
        <time>2021-02-21T10:23:08.309Z</time>
      </trkpt>
      <trkpt lat="48.5136" lon="7.1756">
        <ele>830</ele>
        <time>2021-02-21T10:23:09.309Z</time>
      </trkpt>
      <trkpt lat="48.51359" lon="7.17561">
        <ele>831</ele>
        <time>2021-02-21T10:23:10.309Z</time>
      </trkpt>
      <trkpt lat="48.51358" lon="7.17563">
        <ele>831</ele>
        <time>2021-02-21T10:23:11.309Z</time>
      </trkpt>
      <trkpt lat="48.51358" lon="7.17566">
        <ele>831</ele>
        <time>2021-02-21T10:23:12.308Z</time>
      </trkpt>
      <trkpt lat="48.51357" lon="7.17568">
        <ele>831</ele>
        <time>2021-02-21T10:23:13.309Z</time>
      </trkpt>
      <trkpt lat="48.51356" lon="7.1757">
        <ele>831</ele>
        <time>2021-02-21T10:23:14.309Z</time>
      </trkpt>
      <trkpt lat="48.51356" lon="7.17572">
        <ele>830</ele>
        <time>2021-02-21T10:23:15.309Z</time>
      </trkpt>
      <trkpt lat="48.51356" lon="7.17574">
        <ele>829</ele>
        <time>2021-02-21T10:23:16.309Z</time>
      </trkpt>
      <trkpt lat="48.51354" lon="7.17577">
        <ele>829</ele>
        <time>2021-02-21T10:23:17.309Z</time>
      </trkpt>
      <trkpt lat="48.51354" lon="7.17579">
        <ele>828</ele>
        <time>2021-02-21T10:23:18.309Z</time>
      </trkpt>
      <trkpt lat="48.51354" lon="7.17582">
        <ele>827</ele>
        <time>2021-02-21T10:23:19.309Z</time>
      </trkpt>
      <trkpt lat="48.51354" lon="7.17584">
        <ele>827</ele>
        <time>2021-02-21T10:23:20.309Z</time>
      </trkpt>
      <trkpt lat="48.51353" lon="7.17586">
        <ele>826</ele>
        <time>2021-02-21T10:23:21.309Z</time>
      </trkpt>
      <trkpt lat="48.51352" lon="7.17589">
        <ele>825</ele>
        <time>2021-02-21T10:23:22.309Z</time>
      </trkpt>
      <trkpt lat="48.51352" lon="7.17591">
        <ele>825</ele>
        <time>2021-02-21T10:23:23.309Z</time>
      </trkpt>
      <trkpt lat="48.51352" lon="7.17593">
        <ele>824</ele>
        <time>2021-02-21T10:23:24.309Z</time>
      </trkpt>
      <trkpt lat="48.51352" lon="7.17595">
        <ele>824</ele>
        <time>2021-02-21T10:23:25.309Z</time>
      </trkpt>
      <trkpt lat="48.51352" lon="7.17597">
        <ele>823</ele>
        <time>2021-02-21T10:23:26.309Z</time>
      </trkpt>
      <trkpt lat="48.51351" lon="7.17599">
        <ele>822</ele>
        <time>2021-02-21T10:23:27.309Z</time>
      </trkpt>
      <trkpt lat="48.51351" lon="7.17602">
        <ele>822</ele>
        <time>2021-02-21T10:23:28.308Z</time>
      </trkpt>
      <trkpt lat="48.5135" lon="7.17604">
        <ele>821</ele>
        <time>2021-02-21T10:23:29.309Z</time>
      </trkpt>
      <trkpt lat="48.5135" lon="7.17606">
        <ele>821</ele>
        <time>2021-02-21T10:23:30.309Z</time>
      </trkpt>
      <trkpt lat="48.5135" lon="7.17608">
        <ele>820</ele>
        <time>2021-02-21T10:23:31.308Z</time>
      </trkpt>
      <trkpt lat="48.5135" lon="7.1761">
        <ele>820</ele>
        <time>2021-02-21T10:23:32.309Z</time>
      </trkpt>
      <trkpt lat="48.51349" lon="7.17612">
        <ele>819</ele>
        <time>2021-02-21T10:23:33.309Z</time>
      </trkpt>
      <trkpt lat="48.51348" lon="7.17614">
        <ele>819</ele>
        <time>2021-02-21T10:23:34.309Z</time>
      </trkpt>
      <trkpt lat="48.51348" lon="7.17616">
        <ele>819</ele>
        <time>2021-02-21T10:23:35.309Z</time>
      </trkpt>
      <trkpt lat="48.51347" lon="7.17618">
        <ele>819</ele>
        <time>2021-02-21T10:23:36.309Z</time>
      </trkpt>
      <trkpt lat="48.51346" lon="7.17621">
        <ele>819</ele>
        <time>2021-02-21T10:23:37.309Z</time>
      </trkpt>
      <trkpt lat="48.51346" lon="7.17623">
        <ele>819</ele>
        <time>2021-02-21T10:23:38.308Z</time>
      </trkpt>
      <trkpt lat="48.51345" lon="7.17625">
        <ele>819</ele>
        <time>2021-02-21T10:23:39.309Z</time>
      </trkpt>
      <trkpt lat="48.51345" lon="7.17627">
        <ele>819</ele>
        <time>2021-02-21T10:23:40.309Z</time>
      </trkpt>
      <trkpt lat="48.51345" lon="7.17629">
        <ele>819</ele>
        <time>2021-02-21T10:23:41.309Z</time>
      </trkpt>
      <trkpt lat="48.51345" lon="7.17632">
        <ele>818</ele>
        <time>2021-02-21T10:23:42.308Z</time>
      </trkpt>
      <trkpt lat="48.51345" lon="7.17635">
        <ele>817</ele>
        <time>2021-02-21T10:23:43.309Z</time>
      </trkpt>
      <trkpt lat="48.51345" lon="7.17638">
        <ele>817</ele>
        <time>2021-02-21T10:23:44.309Z</time>
      </trkpt>
      <trkpt lat="48.51345" lon="7.1764">
        <ele>816</ele>
        <time>2021-02-21T10:23:45.309Z</time>
      </trkpt>
      <trkpt lat="48.51344" lon="7.17643">
        <ele>816</ele>
        <time>2021-02-21T10:23:46.309Z</time>
      </trkpt>
      <trkpt lat="48.51344" lon="7.17646">
        <ele>816</ele>
        <time>2021-02-21T10:23:47.309Z</time>
      </trkpt>
      <trkpt lat="48.51344" lon="7.17648">
        <ele>815</ele>
        <time>2021-02-21T10:23:48.308Z</time>
      </trkpt>
      <trkpt lat="48.51344" lon="7.1765">
        <ele>815</ele>
        <time>2021-02-21T10:23:49.309Z</time>
      </trkpt>
      <trkpt lat="48.51343" lon="7.17652">
        <ele>815</ele>
        <time>2021-02-21T10:23:50.309Z</time>
      </trkpt>
      <trkpt lat="48.51343" lon="7.17654">
        <ele>815</ele>
        <time>2021-02-21T10:23:51.309Z</time>
      </trkpt>
      <trkpt lat="48.51342" lon="7.17656">
        <ele>815</ele>
        <time>2021-02-21T10:23:52.309Z</time>
      </trkpt>
      <trkpt lat="48.51341" lon="7.17658">
        <ele>815</ele>
        <time>2021-02-21T10:23:53.309Z</time>
      </trkpt>
      <trkpt lat="48.51341" lon="7.1766">
        <ele>815</ele>
        <time>2021-02-21T10:23:54.309Z</time>
      </trkpt>
      <trkpt lat="48.51341" lon="7.17662">
        <ele>815</ele>
        <time>2021-02-21T10:23:55.309Z</time>
      </trkpt>
      <trkpt lat="48.51341" lon="7.17663">
        <ele>815</ele>
        <time>2021-02-21T10:23:56.309Z</time>
      </trkpt>
      <trkpt lat="48.51341" lon="7.17665">
        <ele>815</ele>
        <time>2021-02-21T10:23:57.309Z</time>
      </trkpt>
      <trkpt lat="48.51341" lon="7.17667">
        <ele>815</ele>
        <time>2021-02-21T10:23:58.308Z</time>
      </trkpt>
      <trkpt lat="48.51341" lon="7.17669">
        <ele>815</ele>
        <time>2021-02-21T10:23:59.309Z</time>
      </trkpt>
      <trkpt lat="48.5134" lon="7.17671">
        <ele>816</ele>
        <time>2021-02-21T10:24:00.308Z</time>
      </trkpt>
      <trkpt lat="48.5134" lon="7.17673">
        <ele>816</ele>
        <time>2021-02-21T10:24:01.308Z</time>
      </trkpt>
      <trkpt lat="48.5134" lon="7.17675">
        <ele>816</ele>
        <time>2021-02-21T10:24:02.309Z</time>
      </trkpt>
      <trkpt lat="48.5134" lon="7.17677">
        <ele>816</ele>
        <time>2021-02-21T10:24:03.308Z</time>
      </trkpt>
      <trkpt lat="48.51339" lon="7.17679">
        <ele>816</ele>
        <time>2021-02-21T10:24:04.309Z</time>
      </trkpt>
      <trkpt lat="48.51339" lon="7.1768">
        <ele>816</ele>
        <time>2021-02-21T10:24:05.309Z</time>
      </trkpt>
      <trkpt lat="48.51338" lon="7.17683">
        <ele>816</ele>
        <time>2021-02-21T10:24:06.309Z</time>
      </trkpt>
      <trkpt lat="48.51338" lon="7.17684">
        <ele>817</ele>
        <time>2021-02-21T10:24:07.308Z</time>
      </trkpt>
      <trkpt lat="48.51337" lon="7.17686">
        <ele>818</ele>
        <time>2021-02-21T10:24:08.308Z</time>
      </trkpt>
      <trkpt lat="48.51337" lon="7.17688">
        <ele>818</ele>
        <time>2021-02-21T10:24:09.309Z</time>
      </trkpt>
      <trkpt lat="48.51337" lon="7.1769">
        <ele>819</ele>
        <time>2021-02-21T10:24:10.309Z</time>
      </trkpt>
      <trkpt lat="48.51337" lon="7.17692">
        <ele>819</ele>
        <time>2021-02-21T10:24:11.309Z</time>
      </trkpt>
      <trkpt lat="48.51337" lon="7.17694">
        <ele>819</ele>
        <time>2021-02-21T10:24:12.309Z</time>
      </trkpt>
      <trkpt lat="48.51336" lon="7.17696">
        <ele>819</ele>
        <time>2021-02-21T10:24:13.308Z</time>
      </trkpt>
      <trkpt lat="48.51335" lon="7.17698">
        <ele>819</ele>
        <time>2021-02-21T10:24:14.309Z</time>
      </trkpt>
      <trkpt lat="48.51335" lon="7.177">
        <ele>820</ele>
        <time>2021-02-21T10:24:15.309Z</time>
      </trkpt>
      <trkpt lat="48.51334" lon="7.17703">
        <ele>820</ele>
        <time>2021-02-21T10:24:16.309Z</time>
      </trkpt>
      <trkpt lat="48.51334" lon="7.17707">
        <ele>820</ele>
        <time>2021-02-21T10:24:17.308Z</time>
      </trkpt>
      <trkpt lat="48.51334" lon="7.17709">
        <ele>821</ele>
        <time>2021-02-21T10:24:18.308Z</time>
      </trkpt>
      <trkpt lat="48.51334" lon="7.17711">
        <ele>821</ele>
        <time>2021-02-21T10:24:19.309Z</time>
      </trkpt>
      <trkpt lat="48.51334" lon="7.17713">
        <ele>821</ele>
        <time>2021-02-21T10:24:20.309Z</time>
      </trkpt>
      <trkpt lat="48.51334" lon="7.17714">
        <ele>821</ele>
        <time>2021-02-21T10:24:21.309Z</time>
      </trkpt>
      <trkpt lat="48.51334" lon="7.17716">
        <ele>821</ele>
        <time>2021-02-21T10:24:22.308Z</time>
      </trkpt>
      <trkpt lat="48.51334" lon="7.17719">
        <ele>822</ele>
        <time>2021-02-21T10:24:23.309Z</time>
      </trkpt>
      <trkpt lat="48.51334" lon="7.17721">
        <ele>822</ele>
        <time>2021-02-21T10:24:24.309Z</time>
      </trkpt>
      <trkpt lat="48.51334" lon="7.17723">
        <ele>822</ele>
        <time>2021-02-21T10:24:25.309Z</time>
      </trkpt>
      <trkpt lat="48.51334" lon="7.17725">
        <ele>822</ele>
        <time>2021-02-21T10:24:26.309Z</time>
      </trkpt>
      <trkpt lat="48.51333" lon="7.17727">
        <ele>822</ele>
        <time>2021-02-21T10:24:27.309Z</time>
      </trkpt>
      <trkpt lat="48.51333" lon="7.1773">
        <ele>822</ele>
        <time>2021-02-21T10:24:28.309Z</time>
      </trkpt>
      <trkpt lat="48.51332" lon="7.17732">
        <ele>822</ele>
        <time>2021-02-21T10:24:29.309Z</time>
      </trkpt>
      <trkpt lat="48.51332" lon="7.17734">
        <ele>822</ele>
        <time>2021-02-21T10:24:30.308Z</time>
      </trkpt>
      <trkpt lat="48.51332" lon="7.17737">
        <ele>823</ele>
        <time>2021-02-21T10:24:33.426Z</time>
      </trkpt>
      <trkpt lat="48.51332" lon="7.17739">
        <ele>823</ele>
        <time>2021-02-21T10:24:34.426Z</time>
      </trkpt>
      <trkpt lat="48.51332" lon="7.17741">
        <ele>823</ele>
        <time>2021-02-21T10:24:43.314Z</time>
      </trkpt>
      <trkpt lat="48.51332" lon="7.17743">
        <ele>823</ele>
        <time>2021-02-21T10:24:44.315Z</time>
      </trkpt>
      <trkpt lat="48.51332" lon="7.17745">
        <ele>823</ele>
        <time>2021-02-21T10:25:37.212Z</time>
      </trkpt>
      <trkpt lat="48.51331" lon="7.17748">
        <ele>823</ele>
        <time>2021-02-21T10:25:38.212Z</time>
      </trkpt>
      <trkpt lat="48.51332" lon="7.1775">
        <ele>823</ele>
        <time>2021-02-21T10:25:39.211Z</time>
      </trkpt>
      <trkpt lat="48.51331" lon="7.17751">
        <ele>822</ele>
        <time>2021-02-21T10:25:40.212Z</time>
      </trkpt>
      <trkpt lat="48.51332" lon="7.17754">
        <ele>822</ele>
        <time>2021-02-21T10:25:41.212Z</time>
      </trkpt>
      <trkpt lat="48.51332" lon="7.17756">
        <ele>821</ele>
        <time>2021-02-21T10:25:42.212Z</time>
      </trkpt>
      <trkpt lat="48.51332" lon="7.17759">
        <ele>821</ele>
        <time>2021-02-21T10:25:43.212Z</time>
      </trkpt>
      <trkpt lat="48.51332" lon="7.17763">
        <ele>820</ele>
        <time>2021-02-21T10:25:44.212Z</time>
      </trkpt>
      <trkpt lat="48.51332" lon="7.17766">
        <ele>820</ele>
        <time>2021-02-21T10:25:45.212Z</time>
      </trkpt>
      <trkpt lat="48.51333" lon="7.17769">
        <ele>820</ele>
        <time>2021-02-21T10:25:46.212Z</time>
      </trkpt>
      <trkpt lat="48.51332" lon="7.17772">
        <ele>819</ele>
        <time>2021-02-21T10:25:47.212Z</time>
      </trkpt>
      <trkpt lat="48.51332" lon="7.17774">
        <ele>819</ele>
        <time>2021-02-21T10:25:48.212Z</time>
      </trkpt>
      <trkpt lat="48.51332" lon="7.17776">
        <ele>818</ele>
        <time>2021-02-21T10:25:49.212Z</time>
      </trkpt>
      <trkpt lat="48.51332" lon="7.17778">
        <ele>817</ele>
        <time>2021-02-21T10:25:50.212Z</time>
      </trkpt>
      <trkpt lat="48.51332" lon="7.1778">
        <ele>817</ele>
        <time>2021-02-21T10:25:51.212Z</time>
      </trkpt>
      <trkpt lat="48.51332" lon="7.17783">
        <ele>817</ele>
        <time>2021-02-21T10:25:52.211Z</time>
      </trkpt>
      <trkpt lat="48.51332" lon="7.17786">
        <ele>817</ele>
        <time>2021-02-21T10:25:53.212Z</time>
      </trkpt>
      <trkpt lat="48.51332" lon="7.17789">
        <ele>817</ele>
        <time>2021-02-21T10:25:54.212Z</time>
      </trkpt>
      <trkpt lat="48.51333" lon="7.17793">
        <ele>817</ele>
        <time>2021-02-21T10:25:55.212Z</time>
      </trkpt>
      <trkpt lat="48.51333" lon="7.17796">
        <ele>817</ele>
        <time>2021-02-21T10:25:56.211Z</time>
      </trkpt>
      <trkpt lat="48.51333" lon="7.17798">
        <ele>817</ele>
        <time>2021-02-21T10:25:57.212Z</time>
      </trkpt>
      <trkpt lat="48.51333" lon="7.17799">
        <ele>817</ele>
        <time>2021-02-21T10:25:58.212Z</time>
      </trkpt>
      <trkpt lat="48.51334" lon="7.17802">
        <ele>818</ele>
        <time>2021-02-21T10:25:59.211Z</time>
      </trkpt>
      <trkpt lat="48.51334" lon="7.17804">
        <ele>818</ele>
        <time>2021-02-21T10:26:00.212Z</time>
      </trkpt>
      <trkpt lat="48.51334" lon="7.17806">
        <ele>818</ele>
        <time>2021-02-21T10:26:01.212Z</time>
      </trkpt>
      <trkpt lat="48.51335" lon="7.17808">
        <ele>818</ele>
        <time>2021-02-21T10:26:02.212Z</time>
      </trkpt>
      <trkpt lat="48.51335" lon="7.1781">
        <ele>818</ele>
        <time>2021-02-21T10:26:03.211Z</time>
      </trkpt>
      <trkpt lat="48.51335" lon="7.17812">
        <ele>819</ele>
        <time>2021-02-21T10:26:04.211Z</time>
      </trkpt>
      <trkpt lat="48.51336" lon="7.17814">
        <ele>819</ele>
        <time>2021-02-21T10:26:05.212Z</time>
      </trkpt>
      <trkpt lat="48.51336" lon="7.17816">
        <ele>820</ele>
        <time>2021-02-21T10:26:06.211Z</time>
      </trkpt>
      <trkpt lat="48.51336" lon="7.17818">
        <ele>820</ele>
        <time>2021-02-21T10:26:07.211Z</time>
      </trkpt>
      <trkpt lat="48.51337" lon="7.17819">
        <ele>820</ele>
        <time>2021-02-21T10:26:08.212Z</time>
      </trkpt>
      <trkpt lat="48.51337" lon="7.17821">
        <ele>821</ele>
        <time>2021-02-21T10:26:09.211Z</time>
      </trkpt>
      <trkpt lat="48.51338" lon="7.17823">
        <ele>821</ele>
        <time>2021-02-21T10:26:10.211Z</time>
      </trkpt>
      <trkpt lat="48.51338" lon="7.17825">
        <ele>822</ele>
        <time>2021-02-21T10:26:11.212Z</time>
      </trkpt>
      <trkpt lat="48.51339" lon="7.17827">
        <ele>822</ele>
        <time>2021-02-21T10:26:12.211Z</time>
      </trkpt>
      <trkpt lat="48.51339" lon="7.17829">
        <ele>823</ele>
        <time>2021-02-21T10:26:13.211Z</time>
      </trkpt>
      <trkpt lat="48.51339" lon="7.17831">
        <ele>823</ele>
        <time>2021-02-21T10:26:14.212Z</time>
      </trkpt>
      <trkpt lat="48.5134" lon="7.17834">
        <ele>824</ele>
        <time>2021-02-21T10:26:15.211Z</time>
      </trkpt>
      <trkpt lat="48.5134" lon="7.17836">
        <ele>824</ele>
        <time>2021-02-21T10:26:16.212Z</time>
      </trkpt>
      <trkpt lat="48.5134" lon="7.17838">
        <ele>824</ele>
        <time>2021-02-21T10:26:17.212Z</time>
      </trkpt>
      <trkpt lat="48.5134" lon="7.1784">
        <ele>824</ele>
        <time>2021-02-21T10:26:18.212Z</time>
      </trkpt>
      <trkpt lat="48.5134" lon="7.17842">
        <ele>823</ele>
        <time>2021-02-21T10:26:19.212Z</time>
      </trkpt>
      <trkpt lat="48.5134" lon="7.17845">
        <ele>823</ele>
        <time>2021-02-21T10:26:20.212Z</time>
      </trkpt>
      <trkpt lat="48.5134" lon="7.17847">
        <ele>823</ele>
        <time>2021-02-21T10:26:21.212Z</time>
      </trkpt>
      <trkpt lat="48.5134" lon="7.17849">
        <ele>822</ele>
        <time>2021-02-21T10:26:22.212Z</time>
      </trkpt>
      <trkpt lat="48.5134" lon="7.17852">
        <ele>822</ele>
        <time>2021-02-21T10:26:23.212Z</time>
      </trkpt>
      <trkpt lat="48.51341" lon="7.17854">
        <ele>822</ele>
        <time>2021-02-21T10:26:24.211Z</time>
      </trkpt>
      <trkpt lat="48.51341" lon="7.17856">
        <ele>821</ele>
        <time>2021-02-21T10:26:25.211Z</time>
      </trkpt>
      <trkpt lat="48.51341" lon="7.17858">
        <ele>821</ele>
        <time>2021-02-21T10:26:26.212Z</time>
      </trkpt>
      <trkpt lat="48.51341" lon="7.1786">
        <ele>821</ele>
        <time>2021-02-21T10:26:27.212Z</time>
      </trkpt>
      <trkpt lat="48.51341" lon="7.17862">
        <ele>821</ele>
        <time>2021-02-21T10:26:28.212Z</time>
      </trkpt>
      <trkpt lat="48.51342" lon="7.17864">
        <ele>821</ele>
        <time>2021-02-21T10:26:29.211Z</time>
      </trkpt>
      <trkpt lat="48.51342" lon="7.17866">
        <ele>821</ele>
        <time>2021-02-21T10:26:30.211Z</time>
      </trkpt>
      <trkpt lat="48.51343" lon="7.17868">
        <ele>821</ele>
        <time>2021-02-21T10:26:31.212Z</time>
      </trkpt>
      <trkpt lat="48.51343" lon="7.17871">
        <ele>821</ele>
        <time>2021-02-21T10:26:32.212Z</time>
      </trkpt>
      <trkpt lat="48.51343" lon="7.17873">
        <ele>820</ele>
        <time>2021-02-21T10:26:33.211Z</time>
      </trkpt>
      <trkpt lat="48.51344" lon="7.17876">
        <ele>820</ele>
        <time>2021-02-21T10:26:34.212Z</time>
      </trkpt>
      <trkpt lat="48.51344" lon="7.17878">
        <ele>819</ele>
        <time>2021-02-21T10:26:35.212Z</time>
      </trkpt>
      <trkpt lat="48.51344" lon="7.1788">
        <ele>819</ele>
        <time>2021-02-21T10:26:36.212Z</time>
      </trkpt>
      <trkpt lat="48.51345" lon="7.17882">
        <ele>819</ele>
        <time>2021-02-21T10:26:37.211Z</time>
      </trkpt>
      <trkpt lat="48.51345" lon="7.17884">
        <ele>819</ele>
        <time>2021-02-21T10:26:38.212Z</time>
      </trkpt>
      <trkpt lat="48.51345" lon="7.17887">
        <ele>818</ele>
        <time>2021-02-21T10:26:39.212Z</time>
      </trkpt>
      <trkpt lat="48.51346" lon="7.17889">
        <ele>818</ele>
        <time>2021-02-21T10:26:40.212Z</time>
      </trkpt>
      <trkpt lat="48.51346" lon="7.17891">
        <ele>818</ele>
        <time>2021-02-21T10:26:41.212Z</time>
      </trkpt>
      <trkpt lat="48.51346" lon="7.17893">
        <ele>817</ele>
        <time>2021-02-21T10:26:42.212Z</time>
      </trkpt>
      <trkpt lat="48.51346" lon="7.17895">
        <ele>817</ele>
        <time>2021-02-21T10:26:43.212Z</time>
      </trkpt>
      <trkpt lat="48.51346" lon="7.17897">
        <ele>816</ele>
        <time>2021-02-21T10:26:44.212Z</time>
      </trkpt>
      <trkpt lat="48.51346" lon="7.17899">
        <ele>816</ele>
        <time>2021-02-21T10:26:45.211Z</time>
      </trkpt>
      <trkpt lat="48.51346" lon="7.179">
        <ele>816</ele>
        <time>2021-02-21T10:26:46.212Z</time>
      </trkpt>
      <trkpt lat="48.51346" lon="7.17902">
        <ele>815</ele>
        <time>2021-02-21T10:26:47.212Z</time>
      </trkpt>
      <trkpt lat="48.51345" lon="7.17905">
        <ele>815</ele>
        <time>2021-02-21T10:26:48.212Z</time>
      </trkpt>
      <trkpt lat="48.51345" lon="7.17907">
        <ele>815</ele>
        <time>2021-02-21T10:26:49.212Z</time>
      </trkpt>
      <trkpt lat="48.51346" lon="7.17909">
        <ele>814</ele>
        <time>2021-02-21T10:26:50.212Z</time>
      </trkpt>
      <trkpt lat="48.51346" lon="7.17911">
        <ele>814</ele>
        <time>2021-02-21T10:26:51.212Z</time>
      </trkpt>
      <trkpt lat="48.51345" lon="7.17914">
        <ele>813</ele>
        <time>2021-02-21T10:26:52.212Z</time>
      </trkpt>
      <trkpt lat="48.51344" lon="7.17917">
        <ele>812</ele>
        <time>2021-02-21T10:26:53.212Z</time>
      </trkpt>
      <trkpt lat="48.51344" lon="7.17921">
        <ele>812</ele>
        <time>2021-02-21T10:26:54.211Z</time>
      </trkpt>
      <trkpt lat="48.51344" lon="7.17923">
        <ele>812</ele>
        <time>2021-02-21T10:26:55.212Z</time>
      </trkpt>
      <trkpt lat="48.51344" lon="7.17925">
        <ele>812</ele>
        <time>2021-02-21T10:26:56.212Z</time>
      </trkpt>
      <trkpt lat="48.51344" lon="7.17926">
        <ele>811</ele>
        <time>2021-02-21T10:26:57.212Z</time>
      </trkpt>
      <trkpt lat="48.51344" lon="7.17928">
        <ele>811</ele>
        <time>2021-02-21T10:26:58.212Z</time>
      </trkpt>
      <trkpt lat="48.51344" lon="7.1793">
        <ele>812</ele>
        <time>2021-02-21T10:26:59.211Z</time>
      </trkpt>
      <trkpt lat="48.51343" lon="7.17931">
        <ele>812</ele>
        <time>2021-02-21T10:27:00.211Z</time>
      </trkpt>
      <trkpt lat="48.51343" lon="7.17933">
        <ele>812</ele>
        <time>2021-02-21T10:27:01.212Z</time>
      </trkpt>
      <trkpt lat="48.51343" lon="7.17935">
        <ele>813</ele>
        <time>2021-02-21T10:27:02.212Z</time>
      </trkpt>
      <trkpt lat="48.51342" lon="7.17936">
        <ele>813</ele>
        <time>2021-02-21T10:27:03.212Z</time>
      </trkpt>
      <trkpt lat="48.51342" lon="7.17938">
        <ele>813</ele>
        <time>2021-02-21T10:27:04.212Z</time>
      </trkpt>
      <trkpt lat="48.51342" lon="7.17939">
        <ele>813</ele>
        <time>2021-02-21T10:27:05.212Z</time>
      </trkpt>
      <trkpt lat="48.51341" lon="7.1794">
        <ele>812</ele>
        <time>2021-02-21T10:27:06.211Z</time>
      </trkpt>
      <trkpt lat="48.5134" lon="7.17941">
        <ele>811</ele>
        <time>2021-02-21T10:27:07.211Z</time>
      </trkpt>
      <trkpt lat="48.5134" lon="7.17943">
        <ele>811</ele>
        <time>2021-02-21T10:27:08.212Z</time>
      </trkpt>
      <trkpt lat="48.5134" lon="7.17945">
        <ele>810</ele>
        <time>2021-02-21T10:27:09.212Z</time>
      </trkpt>
      <trkpt lat="48.5134" lon="7.17947">
        <ele>810</ele>
        <time>2021-02-21T10:27:10.212Z</time>
      </trkpt>
      <trkpt lat="48.5134" lon="7.17949">
        <ele>809</ele>
        <time>2021-02-21T10:27:11.212Z</time>
      </trkpt>
      <trkpt lat="48.51341" lon="7.17951">
        <ele>809</ele>
        <time>2021-02-21T10:27:12.212Z</time>
      </trkpt>
      <trkpt lat="48.51341" lon="7.17954">
        <ele>808</ele>
        <time>2021-02-21T10:27:13.212Z</time>
      </trkpt>
      <trkpt lat="48.5134" lon="7.17956">
        <ele>807</ele>
        <time>2021-02-21T10:27:14.212Z</time>
      </trkpt>
      <trkpt lat="48.51339" lon="7.17958">
        <ele>806</ele>
        <time>2021-02-21T10:27:15.212Z</time>
      </trkpt>
      <trkpt lat="48.51338" lon="7.17961">
        <ele>805</ele>
        <time>2021-02-21T10:27:16.212Z</time>
      </trkpt>
      <trkpt lat="48.51338" lon="7.17963">
        <ele>805</ele>
        <time>2021-02-21T10:27:17.212Z</time>
      </trkpt>
      <trkpt lat="48.51337" lon="7.17965">
        <ele>804</ele>
        <time>2021-02-21T10:27:18.212Z</time>
      </trkpt>
      <trkpt lat="48.51337" lon="7.17967">
        <ele>804</ele>
        <time>2021-02-21T10:27:19.211Z</time>
      </trkpt>
      <trkpt lat="48.51336" lon="7.17968">
        <ele>803</ele>
        <time>2021-02-21T10:27:20.211Z</time>
      </trkpt>
      <trkpt lat="48.51334" lon="7.1797">
        <ele>803</ele>
        <time>2021-02-21T10:27:21.212Z</time>
      </trkpt>
      <trkpt lat="48.51333" lon="7.17972">
        <ele>803</ele>
        <time>2021-02-21T10:27:22.212Z</time>
      </trkpt>
      <trkpt lat="48.51332" lon="7.17974">
        <ele>803</ele>
        <time>2021-02-21T10:27:23.212Z</time>
      </trkpt>
      <trkpt lat="48.51331" lon="7.17975">
        <ele>802</ele>
        <time>2021-02-21T10:27:24.212Z</time>
      </trkpt>
      <trkpt lat="48.5133" lon="7.17977">
        <ele>802</ele>
        <time>2021-02-21T10:27:25.212Z</time>
      </trkpt>
      <trkpt lat="48.51329" lon="7.17978">
        <ele>802</ele>
        <time>2021-02-21T10:27:26.211Z</time>
      </trkpt>
      <trkpt lat="48.51328" lon="7.1798">
        <ele>801</ele>
        <time>2021-02-21T10:27:27.212Z</time>
      </trkpt>
      <trkpt lat="48.51327" lon="7.17981">
        <ele>801</ele>
        <time>2021-02-21T10:27:28.212Z</time>
      </trkpt>
      <trkpt lat="48.51327" lon="7.17982">
        <ele>801</ele>
        <time>2021-02-21T10:27:29.211Z</time>
      </trkpt>
      <trkpt lat="48.51326" lon="7.17983">
        <ele>800</ele>
        <time>2021-02-21T10:27:30.212Z</time>
      </trkpt>
      <trkpt lat="48.51325" lon="7.17984">
        <ele>800</ele>
        <time>2021-02-21T10:27:31.212Z</time>
      </trkpt>
      <trkpt lat="48.51324" lon="7.17985">
        <ele>800</ele>
        <time>2021-02-21T10:27:32.212Z</time>
      </trkpt>
      <trkpt lat="48.51323" lon="7.17985">
        <ele>799</ele>
        <time>2021-02-21T10:27:33.212Z</time>
      </trkpt>
      <trkpt lat="48.51321" lon="7.17986">
        <ele>799</ele>
        <time>2021-02-21T10:27:34.211Z</time>
      </trkpt>
      <trkpt lat="48.51319" lon="7.17985">
        <ele>799</ele>
        <time>2021-02-21T10:27:35.212Z</time>
      </trkpt>
      <trkpt lat="48.51317" lon="7.17985">
        <ele>799</ele>
        <time>2021-02-21T10:27:36.212Z</time>
      </trkpt>
      <trkpt lat="48.51315" lon="7.17985">
        <ele>798</ele>
        <time>2021-02-21T10:27:37.212Z</time>
      </trkpt>
      <trkpt lat="48.51314" lon="7.17985">
        <ele>798</ele>
        <time>2021-02-21T10:27:38.212Z</time>
      </trkpt>
      <trkpt lat="48.51313" lon="7.17985">
        <ele>797</ele>
        <time>2021-02-21T10:27:39.212Z</time>
      </trkpt>
      <trkpt lat="48.51311" lon="7.17985">
        <ele>797</ele>
        <time>2021-02-21T10:27:40.212Z</time>
      </trkpt>
      <trkpt lat="48.5131" lon="7.17984">
        <ele>797</ele>
        <time>2021-02-21T10:27:41.212Z</time>
      </trkpt>
      <trkpt lat="48.51309" lon="7.17984">
        <ele>796</ele>
        <time>2021-02-21T10:27:42.212Z</time>
      </trkpt>
      <trkpt lat="48.51308" lon="7.17984">
        <ele>796</ele>
        <time>2021-02-21T10:27:43.212Z</time>
      </trkpt>
      <trkpt lat="48.51307" lon="7.17985">
        <ele>796</ele>
        <time>2021-02-21T10:27:44.211Z</time>
      </trkpt>
      <trkpt lat="48.51307" lon="7.17985">
        <ele>796</ele>
        <time>2021-02-21T10:27:45.212Z</time>
      </trkpt>
      <trkpt lat="48.51307" lon="7.17985">
        <ele>796</ele>
        <time>2021-02-21T10:27:46.212Z</time>
      </trkpt>
      <trkpt lat="48.51305" lon="7.17985">
        <ele>797</ele>
        <time>2021-02-21T10:27:47.212Z</time>
      </trkpt>
      <trkpt lat="48.51304" lon="7.17986">
        <ele>798</ele>
        <time>2021-02-21T10:27:48.212Z</time>
      </trkpt>
      <trkpt lat="48.51302" lon="7.17985">
        <ele>799</ele>
        <time>2021-02-21T10:27:49.212Z</time>
      </trkpt>
      <trkpt lat="48.51301" lon="7.17985">
        <ele>800</ele>
        <time>2021-02-21T10:27:50.211Z</time>
      </trkpt>
      <trkpt lat="48.513" lon="7.17985">
        <ele>800</ele>
        <time>2021-02-21T10:27:51.212Z</time>
      </trkpt>
      <trkpt lat="48.51299" lon="7.17985">
        <ele>800</ele>
        <time>2021-02-21T10:27:52.212Z</time>
      </trkpt>
      <trkpt lat="48.51298" lon="7.17986">
        <ele>800</ele>
        <time>2021-02-21T10:27:53.212Z</time>
      </trkpt>
      <trkpt lat="48.51298" lon="7.17986">
        <ele>799</ele>
        <time>2021-02-21T10:27:54.211Z</time>
      </trkpt>
      <trkpt lat="48.51297" lon="7.17987">
        <ele>799</ele>
        <time>2021-02-21T10:27:55.212Z</time>
      </trkpt>
      <trkpt lat="48.51296" lon="7.17987">
        <ele>798</ele>
        <time>2021-02-21T10:27:56.211Z</time>
      </trkpt>
      <trkpt lat="48.51295" lon="7.17987">
        <ele>797</ele>
        <time>2021-02-21T10:27:57.212Z</time>
      </trkpt>
      <trkpt lat="48.51295" lon="7.17987">
        <ele>797</ele>
        <time>2021-02-21T10:27:58.212Z</time>
      </trkpt>
      <trkpt lat="48.51294" lon="7.17988">
        <ele>797</ele>
        <time>2021-02-21T10:27:59.211Z</time>
      </trkpt>
      <trkpt lat="48.51292" lon="7.17988">
        <ele>797</ele>
        <time>2021-02-21T10:28:00.211Z</time>
      </trkpt>
      <trkpt lat="48.5129" lon="7.17988">
        <ele>797</ele>
        <time>2021-02-21T10:28:01.212Z</time>
      </trkpt>
      <trkpt lat="48.51289" lon="7.17988">
        <ele>796</ele>
        <time>2021-02-21T10:28:02.211Z</time>
      </trkpt>
      <trkpt lat="48.51287" lon="7.17988">
        <ele>796</ele>
        <time>2021-02-21T10:28:03.212Z</time>
      </trkpt>
      <trkpt lat="48.51286" lon="7.17988">
        <ele>796</ele>
        <time>2021-02-21T10:28:04.211Z</time>
      </trkpt>
      <trkpt lat="48.51284" lon="7.17988">
        <ele>796</ele>
        <time>2021-02-21T10:28:05.212Z</time>
      </trkpt>
      <trkpt lat="48.51282" lon="7.17987">
        <ele>796</ele>
        <time>2021-02-21T10:28:06.212Z</time>
      </trkpt>
      <trkpt lat="48.5128" lon="7.17986">
        <ele>796</ele>
        <time>2021-02-21T10:28:07.212Z</time>
      </trkpt>
      <trkpt lat="48.51278" lon="7.17986">
        <ele>796</ele>
        <time>2021-02-21T10:28:08.212Z</time>
      </trkpt>
      <trkpt lat="48.51277" lon="7.17988">
        <ele>797</ele>
        <time>2021-02-21T10:28:09.212Z</time>
      </trkpt>
      <trkpt lat="48.51275" lon="7.17987">
        <ele>797</ele>
        <time>2021-02-21T10:28:10.212Z</time>
      </trkpt>
      <trkpt lat="48.51272" lon="7.17988">
        <ele>798</ele>
        <time>2021-02-21T10:28:11.212Z</time>
      </trkpt>
      <trkpt lat="48.51271" lon="7.17987">
        <ele>798</ele>
        <time>2021-02-21T10:28:12.212Z</time>
      </trkpt>
      <trkpt lat="48.51269" lon="7.17987">
        <ele>798</ele>
        <time>2021-02-21T10:28:13.212Z</time>
      </trkpt>
      <trkpt lat="48.51268" lon="7.17987">
        <ele>798</ele>
        <time>2021-02-21T10:28:14.212Z</time>
      </trkpt>
      <trkpt lat="48.51266" lon="7.17988">
        <ele>799</ele>
        <time>2021-02-21T10:28:15.212Z</time>
      </trkpt>
      <trkpt lat="48.51265" lon="7.17988">
        <ele>799</ele>
        <time>2021-02-21T10:28:16.211Z</time>
      </trkpt>
      <trkpt lat="48.51263" lon="7.17989">
        <ele>799</ele>
        <time>2021-02-21T10:28:17.211Z</time>
      </trkpt>
      <trkpt lat="48.51262" lon="7.17989">
        <ele>799</ele>
        <time>2021-02-21T10:28:18.212Z</time>
      </trkpt>
      <trkpt lat="48.51262" lon="7.17989">
        <ele>800</ele>
        <time>2021-02-21T10:28:19.212Z</time>
      </trkpt>
      <trkpt lat="48.51261" lon="7.17989">
        <ele>801</ele>
        <time>2021-02-21T10:28:20.211Z</time>
      </trkpt>
      <trkpt lat="48.5126" lon="7.17989">
        <ele>801</ele>
        <time>2021-02-21T10:28:21.212Z</time>
      </trkpt>
      <trkpt lat="48.51259" lon="7.17989">
        <ele>801</ele>
        <time>2021-02-21T10:28:22.212Z</time>
      </trkpt>
      <trkpt lat="48.51258" lon="7.17989">
        <ele>802</ele>
        <time>2021-02-21T10:28:23.212Z</time>
      </trkpt>
      <trkpt lat="48.51257" lon="7.1799">
        <ele>802</ele>
        <time>2021-02-21T10:28:24.212Z</time>
      </trkpt>
      <trkpt lat="48.51256" lon="7.1799">
        <ele>802</ele>
        <time>2021-02-21T10:28:25.212Z</time>
      </trkpt>
      <trkpt lat="48.51254" lon="7.17991">
        <ele>803</ele>
        <time>2021-02-21T10:28:26.212Z</time>
      </trkpt>
      <trkpt lat="48.51253" lon="7.17991">
        <ele>802</ele>
        <time>2021-02-21T10:28:27.212Z</time>
      </trkpt>
      <trkpt lat="48.51252" lon="7.17991">
        <ele>802</ele>
        <time>2021-02-21T10:28:28.211Z</time>
      </trkpt>
      <trkpt lat="48.51251" lon="7.1799">
        <ele>803</ele>
        <time>2021-02-21T10:28:29.211Z</time>
      </trkpt>
      <trkpt lat="48.5125" lon="7.17991">
        <ele>803</ele>
        <time>2021-02-21T10:28:30.211Z</time>
      </trkpt>
      <trkpt lat="48.51249" lon="7.17991">
        <ele>803</ele>
        <time>2021-02-21T10:28:31.211Z</time>
      </trkpt>
      <trkpt lat="48.51247" lon="7.1799">
        <ele>803</ele>
        <time>2021-02-21T10:28:32.211Z</time>
      </trkpt>
      <trkpt lat="48.51246" lon="7.1799">
        <ele>803</ele>
        <time>2021-02-21T10:28:33.211Z</time>
      </trkpt>
      <trkpt lat="48.51244" lon="7.17991">
        <ele>803</ele>
        <time>2021-02-21T10:28:34.211Z</time>
      </trkpt>
      <trkpt lat="48.51242" lon="7.17991">
        <ele>803</ele>
        <time>2021-02-21T10:28:35.211Z</time>
      </trkpt>
      <trkpt lat="48.5124" lon="7.17991">
        <ele>803</ele>
        <time>2021-02-21T10:28:36.212Z</time>
      </trkpt>
      <trkpt lat="48.51238" lon="7.17991">
        <ele>804</ele>
        <time>2021-02-21T10:28:37.212Z</time>
      </trkpt>
      <trkpt lat="48.51237" lon="7.1799">
        <ele>804</ele>
        <time>2021-02-21T10:28:38.212Z</time>
      </trkpt>
      <trkpt lat="48.51236" lon="7.17989">
        <ele>805</ele>
        <time>2021-02-21T10:28:39.212Z</time>
      </trkpt>
      <trkpt lat="48.51236" lon="7.17989">
        <ele>805</ele>
        <time>2021-02-21T10:28:40.212Z</time>
      </trkpt>
      <trkpt lat="48.51234" lon="7.17988">
        <ele>805</ele>
        <time>2021-02-21T10:28:41.212Z</time>
      </trkpt>
      <trkpt lat="48.51233" lon="7.17988">
        <ele>805</ele>
        <time>2021-02-21T10:28:42.212Z</time>
      </trkpt>
      <trkpt lat="48.51232" lon="7.17988">
        <ele>805</ele>
        <time>2021-02-21T10:28:43.212Z</time>
      </trkpt>
      <trkpt lat="48.5123" lon="7.17988">
        <ele>805</ele>
        <time>2021-02-21T10:28:44.211Z</time>
      </trkpt>
      <trkpt lat="48.51228" lon="7.17988">
        <ele>805</ele>
        <time>2021-02-21T10:28:45.212Z</time>
      </trkpt>
      <trkpt lat="48.51227" lon="7.17988">
        <ele>806</ele>
        <time>2021-02-21T10:28:46.212Z</time>
      </trkpt>
      <trkpt lat="48.51226" lon="7.17988">
        <ele>806</ele>
        <time>2021-02-21T10:28:47.212Z</time>
      </trkpt>
      <trkpt lat="48.51225" lon="7.17988">
        <ele>806</ele>
        <time>2021-02-21T10:28:48.211Z</time>
      </trkpt>
      <trkpt lat="48.51224" lon="7.17988">
        <ele>806</ele>
        <time>2021-02-21T10:28:49.212Z</time>
      </trkpt>
      <trkpt lat="48.51222" lon="7.17989">
        <ele>806</ele>
        <time>2021-02-21T10:28:50.212Z</time>
      </trkpt>
      <trkpt lat="48.5122" lon="7.17989">
        <ele>805</ele>
        <time>2021-02-21T10:28:51.212Z</time>
      </trkpt>
      <trkpt lat="48.51219" lon="7.17988">
        <ele>805</ele>
        <time>2021-02-21T10:28:52.212Z</time>
      </trkpt>
      <trkpt lat="48.51218" lon="7.17989">
        <ele>804</ele>
        <time>2021-02-21T10:28:53.212Z</time>
      </trkpt>
      <trkpt lat="48.51216" lon="7.17989">
        <ele>804</ele>
        <time>2021-02-21T10:28:54.212Z</time>
      </trkpt>
      <trkpt lat="48.51215" lon="7.1799">
        <ele>804</ele>
        <time>2021-02-21T10:28:55.212Z</time>
      </trkpt>
      <trkpt lat="48.51214" lon="7.17989">
        <ele>804</ele>
        <time>2021-02-21T10:28:56.212Z</time>
      </trkpt>
      <trkpt lat="48.51213" lon="7.17989">
        <ele>803</ele>
        <time>2021-02-21T10:28:57.211Z</time>
      </trkpt>
      <trkpt lat="48.51212" lon="7.17989">
        <ele>803</ele>
        <time>2021-02-21T10:28:58.211Z</time>
      </trkpt>
      <trkpt lat="48.51212" lon="7.17989">
        <ele>803</ele>
        <time>2021-02-21T10:28:59.212Z</time>
      </trkpt>
      <trkpt lat="48.51211" lon="7.17989">
        <ele>802</ele>
        <time>2021-02-21T10:29:00.212Z</time>
      </trkpt>
      <trkpt lat="48.5121" lon="7.17989">
        <ele>802</ele>
        <time>2021-02-21T10:29:01.212Z</time>
      </trkpt>
      <trkpt lat="48.51208" lon="7.17989">
        <ele>801</ele>
        <time>2021-02-21T10:29:02.212Z</time>
      </trkpt>
      <trkpt lat="48.51207" lon="7.17989">
        <ele>801</ele>
        <time>2021-02-21T10:29:03.212Z</time>
      </trkpt>
      <trkpt lat="48.51205" lon="7.1799">
        <ele>801</ele>
        <time>2021-02-21T10:29:04.212Z</time>
      </trkpt>
      <trkpt lat="48.51204" lon="7.17991">
        <ele>802</ele>
        <time>2021-02-21T10:29:05.212Z</time>
      </trkpt>
      <trkpt lat="48.51202" lon="7.17992">
        <ele>802</ele>
        <time>2021-02-21T10:29:06.211Z</time>
      </trkpt>
      <trkpt lat="48.51201" lon="7.17993">
        <ele>803</ele>
        <time>2021-02-21T10:29:07.212Z</time>
      </trkpt>
      <trkpt lat="48.51199" lon="7.17992">
        <ele>803</ele>
        <time>2021-02-21T10:29:08.211Z</time>
      </trkpt>
      <trkpt lat="48.51198" lon="7.17992">
        <ele>803</ele>
        <time>2021-02-21T10:29:09.212Z</time>
      </trkpt>
      <trkpt lat="48.51197" lon="7.17991">
        <ele>804</ele>
        <time>2021-02-21T10:29:10.212Z</time>
      </trkpt>
      <trkpt lat="48.51195" lon="7.17991">
        <ele>804</ele>
        <time>2021-02-21T10:29:11.212Z</time>
      </trkpt>
      <trkpt lat="48.51194" lon="7.17991">
        <ele>804</ele>
        <time>2021-02-21T10:29:12.212Z</time>
      </trkpt>
      <trkpt lat="48.51193" lon="7.17991">
        <ele>804</ele>
        <time>2021-02-21T10:29:13.212Z</time>
      </trkpt>
      <trkpt lat="48.51191" lon="7.17991">
        <ele>804</ele>
        <time>2021-02-21T10:29:14.212Z</time>
      </trkpt>
      <trkpt lat="48.5119" lon="7.17991">
        <ele>804</ele>
        <time>2021-02-21T10:29:15.212Z</time>
      </trkpt>
      <trkpt lat="48.51188" lon="7.17992">
        <ele>804</ele>
        <time>2021-02-21T10:29:16.212Z</time>
      </trkpt>
      <trkpt lat="48.51187" lon="7.17993">
        <ele>804</ele>
        <time>2021-02-21T10:29:17.212Z</time>
      </trkpt>
      <trkpt lat="48.51186" lon="7.17994">
        <ele>803</ele>
        <time>2021-02-21T10:29:18.212Z</time>
      </trkpt>
      <trkpt lat="48.51184" lon="7.17995">
        <ele>803</ele>
        <time>2021-02-21T10:29:19.212Z</time>
      </trkpt>
      <trkpt lat="48.51182" lon="7.17996">
        <ele>803</ele>
        <time>2021-02-21T10:29:20.212Z</time>
      </trkpt>
      <trkpt lat="48.51181" lon="7.17997">
        <ele>802</ele>
        <time>2021-02-21T10:29:21.212Z</time>
      </trkpt>
      <trkpt lat="48.5118" lon="7.17997">
        <ele>802</ele>
        <time>2021-02-21T10:29:22.212Z</time>
      </trkpt>
      <trkpt lat="48.51178" lon="7.17997">
        <ele>802</ele>
        <time>2021-02-21T10:29:23.212Z</time>
      </trkpt>
      <trkpt lat="48.51177" lon="7.17997">
        <ele>801</ele>
        <time>2021-02-21T10:29:24.211Z</time>
      </trkpt>
      <trkpt lat="48.51176" lon="7.17997">
        <ele>801</ele>
        <time>2021-02-21T10:29:25.212Z</time>
      </trkpt>
      <trkpt lat="48.51175" lon="7.17997">
        <ele>802</ele>
        <time>2021-02-21T10:29:26.212Z</time>
      </trkpt>
      <trkpt lat="48.51174" lon="7.17997">
        <ele>802</ele>
        <time>2021-02-21T10:29:27.212Z</time>
      </trkpt>
      <trkpt lat="48.51174" lon="7.17998">
        <ele>803</ele>
        <time>2021-02-21T10:29:28.212Z</time>
      </trkpt>
      <trkpt lat="48.51173" lon="7.17998">
        <ele>803</ele>
        <time>2021-02-21T10:29:29.212Z</time>
      </trkpt>
      <trkpt lat="48.51172" lon="7.17997">
        <ele>804</ele>
        <time>2021-02-21T10:29:30.212Z</time>
      </trkpt>
      <trkpt lat="48.51171" lon="7.17998">
        <ele>804</ele>
        <time>2021-02-21T10:29:31.212Z</time>
      </trkpt>
      <trkpt lat="48.51169" lon="7.17998">
        <ele>804</ele>
        <time>2021-02-21T10:29:32.211Z</time>
      </trkpt>
      <trkpt lat="48.51168" lon="7.17998">
        <ele>805</ele>
        <time>2021-02-21T10:29:33.212Z</time>
      </trkpt>
      <trkpt lat="48.51167" lon="7.17998">
        <ele>804</ele>
        <time>2021-02-21T10:29:34.212Z</time>
      </trkpt>
      <trkpt lat="48.51166" lon="7.17998">
        <ele>804</ele>
        <time>2021-02-21T10:29:35.212Z</time>
      </trkpt>
      <trkpt lat="48.51165" lon="7.17997">
        <ele>804</ele>
        <time>2021-02-21T10:29:36.211Z</time>
      </trkpt>
      <trkpt lat="48.51164" lon="7.17997">
        <ele>804</ele>
        <time>2021-02-21T10:29:37.212Z</time>
      </trkpt>
      <trkpt lat="48.51163" lon="7.17997">
        <ele>803</ele>
        <time>2021-02-21T10:29:38.212Z</time>
      </trkpt>
      <trkpt lat="48.51161" lon="7.17997">
        <ele>803</ele>
        <time>2021-02-21T10:29:39.212Z</time>
      </trkpt>
      <trkpt lat="48.51159" lon="7.17996">
        <ele>803</ele>
        <time>2021-02-21T10:29:40.212Z</time>
      </trkpt>
      <trkpt lat="48.51157" lon="7.17996">
        <ele>803</ele>
        <time>2021-02-21T10:29:41.212Z</time>
      </trkpt>
      <trkpt lat="48.51155" lon="7.17995">
        <ele>803</ele>
        <time>2021-02-21T10:29:42.212Z</time>
      </trkpt>
      <trkpt lat="48.51153" lon="7.17995">
        <ele>803</ele>
        <time>2021-02-21T10:29:43.212Z</time>
      </trkpt>
      <trkpt lat="48.51152" lon="7.17995">
        <ele>802</ele>
        <time>2021-02-21T10:29:44.212Z</time>
      </trkpt>
      <trkpt lat="48.51151" lon="7.17995">
        <ele>802</ele>
        <time>2021-02-21T10:29:45.212Z</time>
      </trkpt>
      <trkpt lat="48.51149" lon="7.17996">
        <ele>802</ele>
        <time>2021-02-21T10:29:46.212Z</time>
      </trkpt>
      <trkpt lat="48.51147" lon="7.17997">
        <ele>801</ele>
        <time>2021-02-21T10:29:47.212Z</time>
      </trkpt>
      <trkpt lat="48.51146" lon="7.17998">
        <ele>801</ele>
        <time>2021-02-21T10:29:48.211Z</time>
      </trkpt>
      <trkpt lat="48.51144" lon="7.17998">
        <ele>801</ele>
        <time>2021-02-21T10:29:49.212Z</time>
      </trkpt>
      <trkpt lat="48.51143" lon="7.17998">
        <ele>801</ele>
        <time>2021-02-21T10:29:50.212Z</time>
      </trkpt>
      <trkpt lat="48.51142" lon="7.17998">
        <ele>801</ele>
        <time>2021-02-21T10:29:51.212Z</time>
      </trkpt>
      <trkpt lat="48.5114" lon="7.17998">
        <ele>801</ele>
        <time>2021-02-21T10:29:52.212Z</time>
      </trkpt>
      <trkpt lat="48.51139" lon="7.17997">
        <ele>801</ele>
        <time>2021-02-21T10:29:53.212Z</time>
      </trkpt>
      <trkpt lat="48.51138" lon="7.17998">
        <ele>801</ele>
        <time>2021-02-21T10:29:54.212Z</time>
      </trkpt>
      <trkpt lat="48.51137" lon="7.17998">
        <ele>800</ele>
        <time>2021-02-21T10:29:55.212Z</time>
      </trkpt>
      <trkpt lat="48.51136" lon="7.17998">
        <ele>800</ele>
        <time>2021-02-21T10:29:56.212Z</time>
      </trkpt>
      <trkpt lat="48.51134" lon="7.17999">
        <ele>800</ele>
        <time>2021-02-21T10:29:57.211Z</time>
      </trkpt>
      <trkpt lat="48.51133" lon="7.17999">
        <ele>800</ele>
        <time>2021-02-21T10:29:58.212Z</time>
      </trkpt>
      <trkpt lat="48.51132" lon="7.18">
        <ele>799</ele>
        <time>2021-02-21T10:29:59.212Z</time>
      </trkpt>
      <trkpt lat="48.5113" lon="7.18">
        <ele>799</ele>
        <time>2021-02-21T10:30:00.212Z</time>
      </trkpt>
      <trkpt lat="48.51129" lon="7.18">
        <ele>799</ele>
        <time>2021-02-21T10:30:01.212Z</time>
      </trkpt>
      <trkpt lat="48.51127" lon="7.18">
        <ele>798</ele>
        <time>2021-02-21T10:30:02.212Z</time>
      </trkpt>
      <trkpt lat="48.51125" lon="7.18001">
        <ele>798</ele>
        <time>2021-02-21T10:30:03.212Z</time>
      </trkpt>
      <trkpt lat="48.51123" lon="7.18">
        <ele>798</ele>
        <time>2021-02-21T10:30:04.212Z</time>
      </trkpt>
      <trkpt lat="48.51122" lon="7.18">
        <ele>798</ele>
        <time>2021-02-21T10:30:05.212Z</time>
      </trkpt>
      <trkpt lat="48.51121" lon="7.18">
        <ele>798</ele>
        <time>2021-02-21T10:30:06.212Z</time>
      </trkpt>
      <trkpt lat="48.5112" lon="7.18">
        <ele>797</ele>
        <time>2021-02-21T10:30:07.212Z</time>
      </trkpt>
      <trkpt lat="48.51119" lon="7.18">
        <ele>797</ele>
        <time>2021-02-21T10:30:08.211Z</time>
      </trkpt>
      <trkpt lat="48.51118" lon="7.18">
        <ele>797</ele>
        <time>2021-02-21T10:30:09.212Z</time>
      </trkpt>
      <trkpt lat="48.51117" lon="7.18">
        <ele>797</ele>
        <time>2021-02-21T10:30:10.212Z</time>
      </trkpt>
      <trkpt lat="48.51116" lon="7.18">
        <ele>797</ele>
        <time>2021-02-21T10:30:11.212Z</time>
      </trkpt>
      <trkpt lat="48.51116" lon="7.18">
        <ele>797</ele>
        <time>2021-02-21T10:30:12.212Z</time>
      </trkpt>
      <trkpt lat="48.51115" lon="7.17999">
        <ele>797</ele>
        <time>2021-02-21T10:30:13.212Z</time>
      </trkpt>
      <trkpt lat="48.51113" lon="7.17999">
        <ele>797</ele>
        <time>2021-02-21T10:30:14.212Z</time>
      </trkpt>
      <trkpt lat="48.51112" lon="7.17999">
        <ele>798</ele>
        <time>2021-02-21T10:30:15.212Z</time>
      </trkpt>
      <trkpt lat="48.5111" lon="7.17999">
        <ele>798</ele>
        <time>2021-02-21T10:30:16.212Z</time>
      </trkpt>
      <trkpt lat="48.51109" lon="7.18">
        <ele>797</ele>
        <time>2021-02-21T10:30:17.212Z</time>
      </trkpt>
      <trkpt lat="48.51107" lon="7.18">
        <ele>797</ele>
        <time>2021-02-21T10:30:18.212Z</time>
      </trkpt>
      <trkpt lat="48.51106" lon="7.18">
        <ele>797</ele>
        <time>2021-02-21T10:30:19.212Z</time>
      </trkpt>
      <trkpt lat="48.51104" lon="7.18">
        <ele>797</ele>
        <time>2021-02-21T10:30:20.212Z</time>
      </trkpt>
      <trkpt lat="48.51103" lon="7.18001">
        <ele>796</ele>
        <time>2021-02-21T10:30:21.212Z</time>
      </trkpt>
      <trkpt lat="48.51102" lon="7.18001">
        <ele>796</ele>
        <time>2021-02-21T10:30:22.212Z</time>
      </trkpt>
      <trkpt lat="48.51101" lon="7.18001">
        <ele>796</ele>
        <time>2021-02-21T10:30:23.212Z</time>
      </trkpt>
      <trkpt lat="48.51099" lon="7.18001">
        <ele>796</ele>
        <time>2021-02-21T10:30:24.212Z</time>
      </trkpt>
      <trkpt lat="48.51098" lon="7.18001">
        <ele>795</ele>
        <time>2021-02-21T10:30:25.212Z</time>
      </trkpt>
      <trkpt lat="48.51096" lon="7.18">
        <ele>796</ele>
        <time>2021-02-21T10:30:26.211Z</time>
      </trkpt>
      <trkpt lat="48.51094" lon="7.18001">
        <ele>796</ele>
        <time>2021-02-21T10:30:27.212Z</time>
      </trkpt>
      <trkpt lat="48.51092" lon="7.18002">
        <ele>795</ele>
        <time>2021-02-21T10:30:28.212Z</time>
      </trkpt>
      <trkpt lat="48.51091" lon="7.18002">
        <ele>795</ele>
        <time>2021-02-21T10:30:29.212Z</time>
      </trkpt>
      <trkpt lat="48.5109" lon="7.18002">
        <ele>795</ele>
        <time>2021-02-21T10:30:30.211Z</time>
      </trkpt>
      <trkpt lat="48.51089" lon="7.18003">
        <ele>795</ele>
        <time>2021-02-21T10:30:31.211Z</time>
      </trkpt>
      <trkpt lat="48.51088" lon="7.18003">
        <ele>795</ele>
        <time>2021-02-21T10:30:32.211Z</time>
      </trkpt>
      <trkpt lat="48.51087" lon="7.18003">
        <ele>794</ele>
        <time>2021-02-21T10:30:33.211Z</time>
      </trkpt>
      <trkpt lat="48.51086" lon="7.18004">
        <ele>794</ele>
        <time>2021-02-21T10:30:34.212Z</time>
      </trkpt>
      <trkpt lat="48.51085" lon="7.18004">
        <ele>794</ele>
        <time>2021-02-21T10:30:35.212Z</time>
      </trkpt>
      <trkpt lat="48.51085" lon="7.18004">
        <ele>794</ele>
        <time>2021-02-21T10:30:36.212Z</time>
      </trkpt>
      <trkpt lat="48.51084" lon="7.18003">
        <ele>793</ele>
        <time>2021-02-21T10:30:37.211Z</time>
      </trkpt>
      <trkpt lat="48.51083" lon="7.18003">
        <ele>793</ele>
        <time>2021-02-21T10:30:38.212Z</time>
      </trkpt>
      <trkpt lat="48.51082" lon="7.18003">
        <ele>792</ele>
        <time>2021-02-21T10:30:39.212Z</time>
      </trkpt>
      <trkpt lat="48.51081" lon="7.18003">
        <ele>792</ele>
        <time>2021-02-21T10:30:40.212Z</time>
      </trkpt>
      <trkpt lat="48.51079" lon="7.18004">
        <ele>791</ele>
        <time>2021-02-21T10:30:41.212Z</time>
      </trkpt>
      <trkpt lat="48.51077" lon="7.18004">
        <ele>791</ele>
        <time>2021-02-21T10:30:42.212Z</time>
      </trkpt>
      <trkpt lat="48.51075" lon="7.18005">
        <ele>791</ele>
        <time>2021-02-21T10:30:43.211Z</time>
      </trkpt>
      <trkpt lat="48.51072" lon="7.18006">
        <ele>791</ele>
        <time>2021-02-21T10:30:44.212Z</time>
      </trkpt>
      <trkpt lat="48.5107" lon="7.18006">
        <ele>792</ele>
        <time>2021-02-21T10:30:45.212Z</time>
      </trkpt>
      <trkpt lat="48.51069" lon="7.18006">
        <ele>792</ele>
        <time>2021-02-21T10:30:46.212Z</time>
      </trkpt>
      <trkpt lat="48.51068" lon="7.18006">
        <ele>792</ele>
        <time>2021-02-21T10:30:47.212Z</time>
      </trkpt>
      <trkpt lat="48.51066" lon="7.18006">
        <ele>792</ele>
        <time>2021-02-21T10:30:48.212Z</time>
      </trkpt>
      <trkpt lat="48.51065" lon="7.18007">
        <ele>792</ele>
        <time>2021-02-21T10:30:49.212Z</time>
      </trkpt>
      <trkpt lat="48.51064" lon="7.18007">
        <ele>792</ele>
        <time>2021-02-21T10:30:50.212Z</time>
      </trkpt>
      <trkpt lat="48.51062" lon="7.18007">
        <ele>792</ele>
        <time>2021-02-21T10:30:51.212Z</time>
      </trkpt>
      <trkpt lat="48.5106" lon="7.18007">
        <ele>792</ele>
        <time>2021-02-21T10:30:52.212Z</time>
      </trkpt>
      <trkpt lat="48.51059" lon="7.18007">
        <ele>792</ele>
        <time>2021-02-21T10:30:53.212Z</time>
      </trkpt>
      <trkpt lat="48.51058" lon="7.18007">
        <ele>792</ele>
        <time>2021-02-21T10:30:54.212Z</time>
      </trkpt>
      <trkpt lat="48.51056" lon="7.18007">
        <ele>791</ele>
        <time>2021-02-21T10:30:55.212Z</time>
      </trkpt>
      <trkpt lat="48.51055" lon="7.18007">
        <ele>791</ele>
        <time>2021-02-21T10:30:56.212Z</time>
      </trkpt>
      <trkpt lat="48.51054" lon="7.18008">
        <ele>790</ele>
        <time>2021-02-21T10:30:57.212Z</time>
      </trkpt>
      <trkpt lat="48.51053" lon="7.18008">
        <ele>790</ele>
        <time>2021-02-21T10:30:58.212Z</time>
      </trkpt>
      <trkpt lat="48.51051" lon="7.18008">
        <ele>791</ele>
        <time>2021-02-21T10:30:59.212Z</time>
      </trkpt>
      <trkpt lat="48.5105" lon="7.18008">
        <ele>791</ele>
        <time>2021-02-21T10:31:00.212Z</time>
      </trkpt>
      <trkpt lat="48.5105" lon="7.18008">
        <ele>791</ele>
        <time>2021-02-21T10:31:01.212Z</time>
      </trkpt>
      <trkpt lat="48.51048" lon="7.18009">
        <ele>790</ele>
        <time>2021-02-21T10:31:02.212Z</time>
      </trkpt>
      <trkpt lat="48.51047" lon="7.18009">
        <ele>790</ele>
        <time>2021-02-21T10:31:03.212Z</time>
      </trkpt>
      <trkpt lat="48.51046" lon="7.1801">
        <ele>789</ele>
        <time>2021-02-21T10:31:04.212Z</time>
      </trkpt>
      <trkpt lat="48.51044" lon="7.1801">
        <ele>789</ele>
        <time>2021-02-21T10:31:05.212Z</time>
      </trkpt>
      <trkpt lat="48.51043" lon="7.18011">
        <ele>790</ele>
        <time>2021-02-21T10:31:06.212Z</time>
      </trkpt>
      <trkpt lat="48.5104" lon="7.18013">
        <ele>791</ele>
        <time>2021-02-21T10:31:07.212Z</time>
      </trkpt>
      <trkpt lat="48.51038" lon="7.18014">
        <ele>792</ele>
        <time>2021-02-21T10:31:08.212Z</time>
      </trkpt>
      <trkpt lat="48.51036" lon="7.18016">
        <ele>794</ele>
        <time>2021-02-21T10:31:09.212Z</time>
      </trkpt>
      <trkpt lat="48.51035" lon="7.18017">
        <ele>795</ele>
        <time>2021-02-21T10:31:10.212Z</time>
      </trkpt>
      <trkpt lat="48.51033" lon="7.18017">
        <ele>795</ele>
        <time>2021-02-21T10:31:11.212Z</time>
      </trkpt>
      <trkpt lat="48.51031" lon="7.18017">
        <ele>796</ele>
        <time>2021-02-21T10:31:12.211Z</time>
      </trkpt>
      <trkpt lat="48.5103" lon="7.18018">
        <ele>797</ele>
        <time>2021-02-21T10:31:13.211Z</time>
      </trkpt>
      <trkpt lat="48.51028" lon="7.18017">
        <ele>797</ele>
        <time>2021-02-21T10:31:14.212Z</time>
      </trkpt>
      <trkpt lat="48.51027" lon="7.18018">
        <ele>797</ele>
        <time>2021-02-21T10:31:15.211Z</time>
      </trkpt>
      <trkpt lat="48.51026" lon="7.18018">
        <ele>797</ele>
        <time>2021-02-21T10:31:16.211Z</time>
      </trkpt>
      <trkpt lat="48.51025" lon="7.18019">
        <ele>797</ele>
        <time>2021-02-21T10:31:17.212Z</time>
      </trkpt>
      <trkpt lat="48.51024" lon="7.18019">
        <ele>797</ele>
        <time>2021-02-21T10:31:18.211Z</time>
      </trkpt>
      <trkpt lat="48.51022" lon="7.18018">
        <ele>797</ele>
        <time>2021-02-21T10:31:19.212Z</time>
      </trkpt>
      <trkpt lat="48.51019" lon="7.1802">
        <ele>797</ele>
        <time>2021-02-21T10:31:20.212Z</time>
      </trkpt>
      <trkpt lat="48.51018" lon="7.1802">
        <ele>797</ele>
        <time>2021-02-21T10:31:21.212Z</time>
      </trkpt>
      <trkpt lat="48.51017" lon="7.1802">
        <ele>797</ele>
        <time>2021-02-21T10:31:22.212Z</time>
      </trkpt>
      <trkpt lat="48.51016" lon="7.18021">
        <ele>797</ele>
        <time>2021-02-21T10:31:23.212Z</time>
      </trkpt>
      <trkpt lat="48.51015" lon="7.18021">
        <ele>797</ele>
        <time>2021-02-21T10:31:24.212Z</time>
      </trkpt>
      <trkpt lat="48.51014" lon="7.18021">
        <ele>797</ele>
        <time>2021-02-21T10:31:25.211Z</time>
      </trkpt>
      <trkpt lat="48.51013" lon="7.18021">
        <ele>797</ele>
        <time>2021-02-21T10:31:26.211Z</time>
      </trkpt>
      <trkpt lat="48.51012" lon="7.18021">
        <ele>797</ele>
        <time>2021-02-21T10:31:27.211Z</time>
      </trkpt>
      <trkpt lat="48.5101" lon="7.18021">
        <ele>797</ele>
        <time>2021-02-21T10:31:28.211Z</time>
      </trkpt>
      <trkpt lat="48.51009" lon="7.18021">
        <ele>796</ele>
        <time>2021-02-21T10:31:29.212Z</time>
      </trkpt>
      <trkpt lat="48.51008" lon="7.18022">
        <ele>796</ele>
        <time>2021-02-21T10:31:30.212Z</time>
      </trkpt>
      <trkpt lat="48.51006" lon="7.18022">
        <ele>795</ele>
        <time>2021-02-21T10:31:31.212Z</time>
      </trkpt>
      <trkpt lat="48.51004" lon="7.18022">
        <ele>795</ele>
        <time>2021-02-21T10:31:32.212Z</time>
      </trkpt>
      <trkpt lat="48.51003" lon="7.18022">
        <ele>794</ele>
        <time>2021-02-21T10:31:33.212Z</time>
      </trkpt>
      <trkpt lat="48.51002" lon="7.18022">
        <ele>794</ele>
        <time>2021-02-21T10:31:34.211Z</time>
      </trkpt>
      <trkpt lat="48.51001" lon="7.18022">
        <ele>794</ele>
        <time>2021-02-21T10:31:35.212Z</time>
      </trkpt>
      <trkpt lat="48.50999" lon="7.18022">
        <ele>794</ele>
        <time>2021-02-21T10:31:36.212Z</time>
      </trkpt>
      <trkpt lat="48.50998" lon="7.18022">
        <ele>794</ele>
        <time>2021-02-21T10:31:37.212Z</time>
      </trkpt>
      <trkpt lat="48.50997" lon="7.18022">
        <ele>794</ele>
        <time>2021-02-21T10:31:38.212Z</time>
      </trkpt>
      <trkpt lat="48.50996" lon="7.18023">
        <ele>794</ele>
        <time>2021-02-21T10:31:39.212Z</time>
      </trkpt>
      <trkpt lat="48.50995" lon="7.18023">
        <ele>794</ele>
        <time>2021-02-21T10:31:40.212Z</time>
      </trkpt>
      <trkpt lat="48.50993" lon="7.18023">
        <ele>793</ele>
        <time>2021-02-21T10:31:41.212Z</time>
      </trkpt>
      <trkpt lat="48.50992" lon="7.18023">
        <ele>793</ele>
        <time>2021-02-21T10:31:42.211Z</time>
      </trkpt>
      <trkpt lat="48.5099" lon="7.18023">
        <ele>793</ele>
        <time>2021-02-21T10:31:43.212Z</time>
      </trkpt>
      <trkpt lat="48.50989" lon="7.18023">
        <ele>793</ele>
        <time>2021-02-21T10:31:44.212Z</time>
      </trkpt>
      <trkpt lat="48.50987" lon="7.18023">
        <ele>793</ele>
        <time>2021-02-21T10:31:45.212Z</time>
      </trkpt>
      <trkpt lat="48.50986" lon="7.18024">
        <ele>793</ele>
        <time>2021-02-21T10:31:46.212Z</time>
      </trkpt>
      <trkpt lat="48.50983" lon="7.18024">
        <ele>792</ele>
        <time>2021-02-21T10:31:47.212Z</time>
      </trkpt>
      <trkpt lat="48.50981" lon="7.18023">
        <ele>792</ele>
        <time>2021-02-21T10:31:48.212Z</time>
      </trkpt>
      <trkpt lat="48.50979" lon="7.18023">
        <ele>791</ele>
        <time>2021-02-21T10:31:49.212Z</time>
      </trkpt>
      <trkpt lat="48.50978" lon="7.18023">
        <ele>791</ele>
        <time>2021-02-21T10:31:50.212Z</time>
      </trkpt>
      <trkpt lat="48.50976" lon="7.18022">
        <ele>790</ele>
        <time>2021-02-21T10:31:51.212Z</time>
      </trkpt>
      <trkpt lat="48.50975" lon="7.18023">
        <ele>790</ele>
        <time>2021-02-21T10:31:52.212Z</time>
      </trkpt>
      <trkpt lat="48.50973" lon="7.18023">
        <ele>789</ele>
        <time>2021-02-21T10:31:53.212Z</time>
      </trkpt>
      <trkpt lat="48.50972" lon="7.18024">
        <ele>789</ele>
        <time>2021-02-21T10:31:54.212Z</time>
      </trkpt>
      <trkpt lat="48.5097" lon="7.18024">
        <ele>789</ele>
        <time>2021-02-21T10:31:55.211Z</time>
      </trkpt>
      <trkpt lat="48.50969" lon="7.18025">
        <ele>789</ele>
        <time>2021-02-21T10:31:56.212Z</time>
      </trkpt>
      <trkpt lat="48.50968" lon="7.18025">
        <ele>789</ele>
        <time>2021-02-21T10:31:57.212Z</time>
      </trkpt>
      <trkpt lat="48.50966" lon="7.18025">
        <ele>789</ele>
        <time>2021-02-21T10:31:58.212Z</time>
      </trkpt>
      <trkpt lat="48.50964" lon="7.18025">
        <ele>789</ele>
        <time>2021-02-21T10:31:59.212Z</time>
      </trkpt>
      <trkpt lat="48.50962" lon="7.18025">
        <ele>789</ele>
        <time>2021-02-21T10:32:00.212Z</time>
      </trkpt>
      <trkpt lat="48.50961" lon="7.18025">
        <ele>789</ele>
        <time>2021-02-21T10:32:01.212Z</time>
      </trkpt>
      <trkpt lat="48.50959" lon="7.18024">
        <ele>789</ele>
        <time>2021-02-21T10:32:02.212Z</time>
      </trkpt>
      <trkpt lat="48.50957" lon="7.18025">
        <ele>789</ele>
        <time>2021-02-21T10:32:03.212Z</time>
      </trkpt>
      <trkpt lat="48.50956" lon="7.18024">
        <ele>789</ele>
        <time>2021-02-21T10:32:04.212Z</time>
      </trkpt>
      <trkpt lat="48.50954" lon="7.18024">
        <ele>789</ele>
        <time>2021-02-21T10:32:05.212Z</time>
      </trkpt>
      <trkpt lat="48.50952" lon="7.18024">
        <ele>789</ele>
        <time>2021-02-21T10:32:06.212Z</time>
      </trkpt>
      <trkpt lat="48.50951" lon="7.18023">
        <ele>788</ele>
        <time>2021-02-21T10:32:07.212Z</time>
      </trkpt>
      <trkpt lat="48.50949" lon="7.18023">
        <ele>788</ele>
        <time>2021-02-21T10:32:08.212Z</time>
      </trkpt>
      <trkpt lat="48.50948" lon="7.18024">
        <ele>788</ele>
        <time>2021-02-21T10:32:09.212Z</time>
      </trkpt>
      <trkpt lat="48.50947" lon="7.18025">
        <ele>788</ele>
        <time>2021-02-21T10:32:10.212Z</time>
      </trkpt>
      <trkpt lat="48.50945" lon="7.18025">
        <ele>788</ele>
        <time>2021-02-21T10:32:11.212Z</time>
      </trkpt>
      <trkpt lat="48.50944" lon="7.18026">
        <ele>788</ele>
        <time>2021-02-21T10:32:12.212Z</time>
      </trkpt>
      <trkpt lat="48.50943" lon="7.18026">
        <ele>788</ele>
        <time>2021-02-21T10:32:13.212Z</time>
      </trkpt>
      <trkpt lat="48.50942" lon="7.18026">
        <ele>788</ele>
        <time>2021-02-21T10:32:14.212Z</time>
      </trkpt>
      <trkpt lat="48.50941" lon="7.18027">
        <ele>788</ele>
        <time>2021-02-21T10:32:15.212Z</time>
      </trkpt>
      <trkpt lat="48.50939" lon="7.18027">
        <ele>788</ele>
        <time>2021-02-21T10:32:16.212Z</time>
      </trkpt>
      <trkpt lat="48.50938" lon="7.18028">
        <ele>787</ele>
        <time>2021-02-21T10:32:17.212Z</time>
      </trkpt>
      <trkpt lat="48.50937" lon="7.18028">
        <ele>787</ele>
        <time>2021-02-21T10:32:18.212Z</time>
      </trkpt>
      <trkpt lat="48.50936" lon="7.18029">
        <ele>786</ele>
        <time>2021-02-21T10:32:19.212Z</time>
      </trkpt>
      <trkpt lat="48.50935" lon="7.18029">
        <ele>786</ele>
        <time>2021-02-21T10:32:20.211Z</time>
      </trkpt>
      <trkpt lat="48.50934" lon="7.1803">
        <ele>785</ele>
        <time>2021-02-21T10:32:21.212Z</time>
      </trkpt>
      <trkpt lat="48.50933" lon="7.1803">
        <ele>785</ele>
        <time>2021-02-21T10:32:22.211Z</time>
      </trkpt>
      <trkpt lat="48.50931" lon="7.18031">
        <ele>784</ele>
        <time>2021-02-21T10:32:23.211Z</time>
      </trkpt>
      <trkpt lat="48.5093" lon="7.18032">
        <ele>784</ele>
        <time>2021-02-21T10:32:24.212Z</time>
      </trkpt>
      <trkpt lat="48.50928" lon="7.18032">
        <ele>784</ele>
        <time>2021-02-21T10:32:25.212Z</time>
      </trkpt>
      <trkpt lat="48.50927" lon="7.18032">
        <ele>783</ele>
        <time>2021-02-21T10:32:26.212Z</time>
      </trkpt>
      <trkpt lat="48.50926" lon="7.18032">
        <ele>783</ele>
        <time>2021-02-21T10:32:27.212Z</time>
      </trkpt>
      <trkpt lat="48.50924" lon="7.18033">
        <ele>783</ele>
        <time>2021-02-21T10:32:29.355Z</time>
      </trkpt>
      <trkpt lat="48.50923" lon="7.18033">
        <ele>783</ele>
        <time>2021-02-21T10:32:30.355Z</time>
      </trkpt>
      <trkpt lat="48.50922" lon="7.18034">
        <ele>783</ele>
        <time>2021-02-21T10:32:31.355Z</time>
      </trkpt>
      <trkpt lat="48.5092" lon="7.18034">
        <ele>783</ele>
        <time>2021-02-21T10:32:32.355Z</time>
      </trkpt>
      <trkpt lat="48.50919" lon="7.18034">
        <ele>783</ele>
        <time>2021-02-21T10:32:33.355Z</time>
      </trkpt>
      <trkpt lat="48.50918" lon="7.18035">
        <ele>783</ele>
        <time>2021-02-21T10:32:34.354Z</time>
      </trkpt>
      <trkpt lat="48.50916" lon="7.18035">
        <ele>783</ele>
        <time>2021-02-21T10:32:35.355Z</time>
      </trkpt>
      <trkpt lat="48.50915" lon="7.18036">
        <ele>782</ele>
        <time>2021-02-21T10:32:36.354Z</time>
      </trkpt>
      <trkpt lat="48.50913" lon="7.18036">
        <ele>782</ele>
        <time>2021-02-21T10:32:37.355Z</time>
      </trkpt>
      <trkpt lat="48.50912" lon="7.18036">
        <ele>782</ele>
        <time>2021-02-21T10:32:38.354Z</time>
      </trkpt>
      <trkpt lat="48.50911" lon="7.18037">
        <ele>782</ele>
        <time>2021-02-21T10:32:39.355Z</time>
      </trkpt>
      <trkpt lat="48.50909" lon="7.18038">
        <ele>782</ele>
        <time>2021-02-21T10:32:40.355Z</time>
      </trkpt>
      <trkpt lat="48.50908" lon="7.18038">
        <ele>781</ele>
        <time>2021-02-21T10:32:41.355Z</time>
      </trkpt>
      <trkpt lat="48.50906" lon="7.18039">
        <ele>781</ele>
        <time>2021-02-21T10:32:42.355Z</time>
      </trkpt>
      <trkpt lat="48.50905" lon="7.18039">
        <ele>780</ele>
        <time>2021-02-21T10:32:43.355Z</time>
      </trkpt>
      <trkpt lat="48.50903" lon="7.1804">
        <ele>780</ele>
        <time>2021-02-21T10:32:44.355Z</time>
      </trkpt>
      <trkpt lat="48.50902" lon="7.1804">
        <ele>779</ele>
        <time>2021-02-21T10:32:45.355Z</time>
      </trkpt>
      <trkpt lat="48.509" lon="7.18041">
        <ele>778</ele>
        <time>2021-02-21T10:32:46.355Z</time>
      </trkpt>
      <trkpt lat="48.50899" lon="7.18042">
        <ele>778</ele>
        <time>2021-02-21T10:32:47.355Z</time>
      </trkpt>
      <trkpt lat="48.50898" lon="7.18042">
        <ele>778</ele>
        <time>2021-02-21T10:32:48.355Z</time>
      </trkpt>
      <trkpt lat="48.50897" lon="7.18043">
        <ele>778</ele>
        <time>2021-02-21T10:32:49.354Z</time>
      </trkpt>
      <trkpt lat="48.50895" lon="7.18043">
        <ele>777</ele>
        <time>2021-02-21T10:32:50.355Z</time>
      </trkpt>
      <trkpt lat="48.50894" lon="7.18044">
        <ele>777</ele>
        <time>2021-02-21T10:32:51.355Z</time>
      </trkpt>
      <trkpt lat="48.50892" lon="7.18044">
        <ele>777</ele>
        <time>2021-02-21T10:32:52.355Z</time>
      </trkpt>
      <trkpt lat="48.50891" lon="7.18044">
        <ele>777</ele>
        <time>2021-02-21T10:32:53.355Z</time>
      </trkpt>
      <trkpt lat="48.50889" lon="7.18045">
        <ele>777</ele>
        <time>2021-02-21T10:32:54.355Z</time>
      </trkpt>
      <trkpt lat="48.50887" lon="7.18045">
        <ele>777</ele>
        <time>2021-02-21T10:32:55.354Z</time>
      </trkpt>
      <trkpt lat="48.50886" lon="7.18045">
        <ele>777</ele>
        <time>2021-02-21T10:32:56.354Z</time>
      </trkpt>
      <trkpt lat="48.50884" lon="7.18045">
        <ele>777</ele>
        <time>2021-02-21T10:32:57.355Z</time>
      </trkpt>
      <trkpt lat="48.50883" lon="7.18046">
        <ele>777</ele>
        <time>2021-02-21T10:32:58.354Z</time>
      </trkpt>
      <trkpt lat="48.50881" lon="7.18046">
        <ele>777</ele>
        <time>2021-02-21T10:32:59.355Z</time>
      </trkpt>
      <trkpt lat="48.50877" lon="7.18048">
        <ele>778</ele>
        <time>2021-02-21T10:33:00.355Z</time>
      </trkpt>
      <trkpt lat="48.50876" lon="7.18048">
        <ele>779</ele>
        <time>2021-02-21T10:33:01.355Z</time>
      </trkpt>
      <trkpt lat="48.50874" lon="7.18048">
        <ele>779</ele>
        <time>2021-02-21T10:33:02.355Z</time>
      </trkpt>
      <trkpt lat="48.50873" lon="7.18049">
        <ele>779</ele>
        <time>2021-02-21T10:33:03.355Z</time>
      </trkpt>
      <trkpt lat="48.50871" lon="7.18051">
        <ele>780</ele>
        <time>2021-02-21T10:33:04.355Z</time>
      </trkpt>
      <trkpt lat="48.50869" lon="7.18051">
        <ele>781</ele>
        <time>2021-02-21T10:33:05.355Z</time>
      </trkpt>
      <trkpt lat="48.50867" lon="7.18053">
        <ele>781</ele>
        <time>2021-02-21T10:33:06.355Z</time>
      </trkpt>
      <trkpt lat="48.50864" lon="7.18053">
        <ele>781</ele>
        <time>2021-02-21T10:33:07.354Z</time>
      </trkpt>
      <trkpt lat="48.50862" lon="7.18054">
        <ele>781</ele>
        <time>2021-02-21T10:33:08.354Z</time>
      </trkpt>
      <trkpt lat="48.50861" lon="7.18054">
        <ele>781</ele>
        <time>2021-02-21T10:33:09.355Z</time>
      </trkpt>
      <trkpt lat="48.50859" lon="7.18055">
        <ele>781</ele>
        <time>2021-02-21T10:33:10.355Z</time>
      </trkpt>
      <trkpt lat="48.50858" lon="7.18055">
        <ele>782</ele>
        <time>2021-02-21T10:33:11.355Z</time>
      </trkpt>
      <trkpt lat="48.50857" lon="7.18055">
        <ele>782</ele>
        <time>2021-02-21T10:33:12.355Z</time>
      </trkpt>
      <trkpt lat="48.50856" lon="7.18054">
        <ele>782</ele>
        <time>2021-02-21T10:33:13.355Z</time>
      </trkpt>
      <trkpt lat="48.50855" lon="7.18054">
        <ele>782</ele>
        <time>2021-02-21T10:33:17.449Z</time>
      </trkpt>
      <trkpt lat="48.50854" lon="7.18055">
        <ele>783</ele>
        <time>2021-02-21T10:33:18.449Z</time>
      </trkpt>
      <trkpt lat="48.50853" lon="7.18056">
        <ele>783</ele>
        <time>2021-02-21T10:33:19.449Z</time>
      </trkpt>
      <trkpt lat="48.50851" lon="7.18056">
        <ele>783</ele>
        <time>2021-02-21T10:33:20.449Z</time>
      </trkpt>
      <trkpt lat="48.5085" lon="7.18057">
        <ele>783</ele>
        <time>2021-02-21T10:33:21.448Z</time>
      </trkpt>
      <trkpt lat="48.50849" lon="7.18057">
        <ele>783</ele>
        <time>2021-02-21T10:33:22.448Z</time>
      </trkpt>
      <trkpt lat="48.50848" lon="7.18058">
        <ele>783</ele>
        <time>2021-02-21T10:33:23.449Z</time>
      </trkpt>
      <trkpt lat="48.50846" lon="7.18058">
        <ele>783</ele>
        <time>2021-02-21T10:33:24.449Z</time>
      </trkpt>
      <trkpt lat="48.50846" lon="7.18059">
        <ele>782</ele>
        <time>2021-02-21T10:33:25.449Z</time>
      </trkpt>
      <trkpt lat="48.50845" lon="7.18059">
        <ele>782</ele>
        <time>2021-02-21T10:33:26.449Z</time>
      </trkpt>
      <trkpt lat="48.50844" lon="7.18059">
        <ele>782</ele>
        <time>2021-02-21T10:33:27.449Z</time>
      </trkpt>
      <trkpt lat="48.50843" lon="7.18059">
        <ele>782</ele>
        <time>2021-02-21T10:33:28.449Z</time>
      </trkpt>
      <trkpt lat="48.50841" lon="7.1806">
        <ele>782</ele>
        <time>2021-02-21T10:33:29.449Z</time>
      </trkpt>
      <trkpt lat="48.5084" lon="7.18061">
        <ele>782</ele>
        <time>2021-02-21T10:33:30.449Z</time>
      </trkpt>
      <trkpt lat="48.50839" lon="7.18061">
        <ele>782</ele>
        <time>2021-02-21T10:33:31.448Z</time>
      </trkpt>
      <trkpt lat="48.50837" lon="7.18061">
        <ele>781</ele>
        <time>2021-02-21T10:33:32.449Z</time>
      </trkpt>
      <trkpt lat="48.50837" lon="7.18061">
        <ele>780</ele>
        <time>2021-02-21T10:33:33.449Z</time>
      </trkpt>
      <trkpt lat="48.50836" lon="7.18062">
        <ele>779</ele>
        <time>2021-02-21T10:33:34.449Z</time>
      </trkpt>
      <trkpt lat="48.50835" lon="7.18062">
        <ele>778</ele>
        <time>2021-02-21T10:33:35.449Z</time>
      </trkpt>
      <trkpt lat="48.50834" lon="7.18063">
        <ele>778</ele>
        <time>2021-02-21T10:33:36.449Z</time>
      </trkpt>
      <trkpt lat="48.50833" lon="7.18063">
        <ele>777</ele>
        <time>2021-02-21T10:33:37.449Z</time>
      </trkpt>
      <trkpt lat="48.50831" lon="7.18064">
        <ele>776</ele>
        <time>2021-02-21T10:33:38.448Z</time>
      </trkpt>
      <trkpt lat="48.5083" lon="7.18065">
        <ele>776</ele>
        <time>2021-02-21T10:33:39.449Z</time>
      </trkpt>
      <trkpt lat="48.50829" lon="7.18066">
        <ele>776</ele>
        <time>2021-02-21T10:33:40.449Z</time>
      </trkpt>
      <trkpt lat="48.50828" lon="7.18066">
        <ele>776</ele>
        <time>2021-02-21T10:33:41.448Z</time>
      </trkpt>
      <trkpt lat="48.50827" lon="7.18067">
        <ele>776</ele>
        <time>2021-02-21T10:33:42.449Z</time>
      </trkpt>
      <trkpt lat="48.50826" lon="7.18068">
        <ele>777</ele>
        <time>2021-02-21T10:33:43.449Z</time>
      </trkpt>
      <trkpt lat="48.50825" lon="7.18068">
        <ele>777</ele>
        <time>2021-02-21T10:33:44.449Z</time>
      </trkpt>
      <trkpt lat="48.50823" lon="7.18069">
        <ele>776</ele>
        <time>2021-02-21T10:33:45.449Z</time>
      </trkpt>
      <trkpt lat="48.50822" lon="7.1807">
        <ele>776</ele>
        <time>2021-02-21T10:33:46.449Z</time>
      </trkpt>
      <trkpt lat="48.50821" lon="7.1807">
        <ele>776</ele>
        <time>2021-02-21T10:33:47.449Z</time>
      </trkpt>
      <trkpt lat="48.5082" lon="7.18072">
        <ele>775</ele>
        <time>2021-02-21T10:33:48.449Z</time>
      </trkpt>
      <trkpt lat="48.50818" lon="7.18073">
        <ele>775</ele>
        <time>2021-02-21T10:33:49.449Z</time>
      </trkpt>
      <trkpt lat="48.50817" lon="7.18073">
        <ele>775</ele>
        <time>2021-02-21T10:33:50.449Z</time>
      </trkpt>
      <trkpt lat="48.50816" lon="7.18074">
        <ele>775</ele>
        <time>2021-02-21T10:33:51.448Z</time>
      </trkpt>
      <trkpt lat="48.50815" lon="7.18075">
        <ele>775</ele>
        <time>2021-02-21T10:33:52.449Z</time>
      </trkpt>
      <trkpt lat="48.50814" lon="7.18076">
        <ele>775</ele>
        <time>2021-02-21T10:33:53.449Z</time>
      </trkpt>
      <trkpt lat="48.50813" lon="7.18077">
        <ele>775</ele>
        <time>2021-02-21T10:33:54.449Z</time>
      </trkpt>
      <trkpt lat="48.50812" lon="7.18078">
        <ele>775</ele>
        <time>2021-02-21T10:33:55.449Z</time>
      </trkpt>
      <trkpt lat="48.50811" lon="7.18079">
        <ele>775</ele>
        <time>2021-02-21T10:33:56.449Z</time>
      </trkpt>
      <trkpt lat="48.5081" lon="7.18081">
        <ele>776</ele>
        <time>2021-02-21T10:33:57.449Z</time>
      </trkpt>
      <trkpt lat="48.50809" lon="7.18082">
        <ele>776</ele>
        <time>2021-02-21T10:34:02.448Z</time>
      </trkpt>
      <trkpt lat="48.50807" lon="7.18083">
        <ele>777</ele>
        <time>2021-02-21T10:34:03.448Z</time>
      </trkpt>
      <trkpt lat="48.50806" lon="7.18084">
        <ele>777</ele>
        <time>2021-02-21T10:34:04.448Z</time>
      </trkpt>
      <trkpt lat="48.50805" lon="7.18085">
        <ele>777</ele>
        <time>2021-02-21T10:34:09.322Z</time>
      </trkpt>
      <trkpt lat="48.50804" lon="7.18085">
        <ele>778</ele>
        <time>2021-02-21T10:34:10.322Z</time>
      </trkpt>
      <trkpt lat="48.50804" lon="7.18086">
        <ele>778</ele>
        <time>2021-02-21T10:34:11.322Z</time>
      </trkpt>
      <trkpt lat="48.50803" lon="7.18087">
        <ele>778</ele>
        <time>2021-02-21T10:34:12.321Z</time>
      </trkpt>
      <trkpt lat="48.50802" lon="7.18087">
        <ele>778</ele>
        <time>2021-02-21T10:34:13.322Z</time>
      </trkpt>
      <trkpt lat="48.50802" lon="7.18088">
        <ele>777</ele>
        <time>2021-02-21T10:34:14.322Z</time>
      </trkpt>
      <trkpt lat="48.50801" lon="7.18088">
        <ele>777</ele>
        <time>2021-02-21T10:34:15.321Z</time>
      </trkpt>
      <trkpt lat="48.508" lon="7.18089">
        <ele>776</ele>
        <time>2021-02-21T10:34:16.321Z</time>
      </trkpt>
      <trkpt lat="48.50799" lon="7.1809">
        <ele>776</ele>
        <time>2021-02-21T10:34:17.321Z</time>
      </trkpt>
      <trkpt lat="48.50798" lon="7.18091">
        <ele>777</ele>
        <time>2021-02-21T10:34:18.322Z</time>
      </trkpt>
      <trkpt lat="48.50797" lon="7.18092">
        <ele>777</ele>
        <time>2021-02-21T10:34:19.322Z</time>
      </trkpt>
      <trkpt lat="48.50796" lon="7.18093">
        <ele>777</ele>
        <time>2021-02-21T10:34:20.322Z</time>
      </trkpt>
      <trkpt lat="48.50795" lon="7.18094">
        <ele>777</ele>
        <time>2021-02-21T10:34:21.321Z</time>
      </trkpt>
      <trkpt lat="48.50793" lon="7.18094">
        <ele>776</ele>
        <time>2021-02-21T10:34:22.322Z</time>
      </trkpt>
      <trkpt lat="48.50792" lon="7.18095">
        <ele>775</ele>
        <time>2021-02-21T10:34:25.338Z</time>
      </trkpt>
      <trkpt lat="48.5079" lon="7.18097">
        <ele>774</ele>
        <time>2021-02-21T10:34:29.221Z</time>
      </trkpt>
      <trkpt lat="48.50789" lon="7.18098">
        <ele>774</ele>
        <time>2021-02-21T10:34:30.221Z</time>
      </trkpt>
      <trkpt lat="48.50787" lon="7.18099">
        <ele>773</ele>
        <time>2021-02-21T10:34:31.220Z</time>
      </trkpt>
      <trkpt lat="48.50786" lon="7.181">
        <ele>773</ele>
        <time>2021-02-21T10:34:32.221Z</time>
      </trkpt>
      <trkpt lat="48.50785" lon="7.18101">
        <ele>773</ele>
        <time>2021-02-21T10:34:33.221Z</time>
      </trkpt>
      <trkpt lat="48.50783" lon="7.18102">
        <ele>772</ele>
        <time>2021-02-21T10:34:34.221Z</time>
      </trkpt>
      <trkpt lat="48.50782" lon="7.18104">
        <ele>772</ele>
        <time>2021-02-21T10:34:35.220Z</time>
      </trkpt>
      <trkpt lat="48.5078" lon="7.18105">
        <ele>772</ele>
        <time>2021-02-21T10:34:36.221Z</time>
      </trkpt>
      <trkpt lat="48.50779" lon="7.18107">
        <ele>772</ele>
        <time>2021-02-21T10:34:37.221Z</time>
      </trkpt>
      <trkpt lat="48.50778" lon="7.18108">
        <ele>772</ele>
        <time>2021-02-21T10:34:38.221Z</time>
      </trkpt>
      <trkpt lat="48.50777" lon="7.1811">
        <ele>772</ele>
        <time>2021-02-21T10:34:39.221Z</time>
      </trkpt>
      <trkpt lat="48.50776" lon="7.18111">
        <ele>772</ele>
        <time>2021-02-21T10:34:40.221Z</time>
      </trkpt>
      <trkpt lat="48.50774" lon="7.18113">
        <ele>772</ele>
        <time>2021-02-21T10:34:41.221Z</time>
      </trkpt>
      <trkpt lat="48.50773" lon="7.18114">
        <ele>772</ele>
        <time>2021-02-21T10:34:42.220Z</time>
      </trkpt>
      <trkpt lat="48.50772" lon="7.18116">
        <ele>771</ele>
        <time>2021-02-21T10:34:43.221Z</time>
      </trkpt>
      <trkpt lat="48.50771" lon="7.18117">
        <ele>771</ele>
        <time>2021-02-21T10:34:44.221Z</time>
      </trkpt>
      <trkpt lat="48.50769" lon="7.18119">
        <ele>771</ele>
        <time>2021-02-21T10:34:45.221Z</time>
      </trkpt>
      <trkpt lat="48.50768" lon="7.18121">
        <ele>771</ele>
        <time>2021-02-21T10:34:46.221Z</time>
      </trkpt>
      <trkpt lat="48.50766" lon="7.18122">
        <ele>771</ele>
        <time>2021-02-21T10:34:47.221Z</time>
      </trkpt>
      <trkpt lat="48.50765" lon="7.18124">
        <ele>771</ele>
        <time>2021-02-21T10:34:48.220Z</time>
      </trkpt>
      <trkpt lat="48.50764" lon="7.18126">
        <ele>771</ele>
        <time>2021-02-21T10:34:49.220Z</time>
      </trkpt>
      <trkpt lat="48.50762" lon="7.18127">
        <ele>771</ele>
        <time>2021-02-21T10:34:50.221Z</time>
      </trkpt>
      <trkpt lat="48.50761" lon="7.18129">
        <ele>771</ele>
        <time>2021-02-21T10:34:51.221Z</time>
      </trkpt>
      <trkpt lat="48.5076" lon="7.18131">
        <ele>772</ele>
        <time>2021-02-21T10:34:52.221Z</time>
      </trkpt>
      <trkpt lat="48.50759" lon="7.18133">
        <ele>771</ele>
        <time>2021-02-21T10:34:53.221Z</time>
      </trkpt>
      <trkpt lat="48.50758" lon="7.18134">
        <ele>771</ele>
        <time>2021-02-21T10:34:54.221Z</time>
      </trkpt>
      <trkpt lat="48.50757" lon="7.18136">
        <ele>771</ele>
        <time>2021-02-21T10:34:55.220Z</time>
      </trkpt>
      <trkpt lat="48.50756" lon="7.18138">
        <ele>770</ele>
        <time>2021-02-21T10:34:56.221Z</time>
      </trkpt>
      <trkpt lat="48.50755" lon="7.1814">
        <ele>770</ele>
        <time>2021-02-21T10:34:57.221Z</time>
      </trkpt>
      <trkpt lat="48.50754" lon="7.18142">
        <ele>770</ele>
        <time>2021-02-21T10:34:58.221Z</time>
      </trkpt>
      <trkpt lat="48.50752" lon="7.18144">
        <ele>770</ele>
        <time>2021-02-21T10:34:59.220Z</time>
      </trkpt>
      <trkpt lat="48.50751" lon="7.18145">
        <ele>771</ele>
        <time>2021-02-21T10:35:36.346Z</time>
      </trkpt>
      <trkpt lat="48.5075" lon="7.18147">
        <ele>771</ele>
        <time>2021-02-21T10:36:10.221Z</time>
      </trkpt>
      <trkpt lat="48.50749" lon="7.18149">
        <ele>772</ele>
        <time>2021-02-21T10:36:11.221Z</time>
      </trkpt>
      <trkpt lat="48.50748" lon="7.18151">
        <ele>772</ele>
        <time>2021-02-21T10:36:12.221Z</time>
      </trkpt>
      <trkpt lat="48.50747" lon="7.18153">
        <ele>772</ele>
        <time>2021-02-21T10:36:13.221Z</time>
      </trkpt>
      <trkpt lat="48.50746" lon="7.18155">
        <ele>772</ele>
        <time>2021-02-21T10:36:14.221Z</time>
      </trkpt>
      <trkpt lat="48.50745" lon="7.18156">
        <ele>772</ele>
        <time>2021-02-21T10:36:15.221Z</time>
      </trkpt>
      <trkpt lat="48.50745" lon="7.18158">
        <ele>772</ele>
        <time>2021-02-21T10:36:16.221Z</time>
      </trkpt>
      <trkpt lat="48.50743" lon="7.1816">
        <ele>771</ele>
        <time>2021-02-21T10:36:17.221Z</time>
      </trkpt>
      <trkpt lat="48.50742" lon="7.18162">
        <ele>771</ele>
        <time>2021-02-21T10:36:18.221Z</time>
      </trkpt>
      <trkpt lat="48.50742" lon="7.18163">
        <ele>770</ele>
        <time>2021-02-21T10:36:19.220Z</time>
      </trkpt>
      <trkpt lat="48.50742" lon="7.18165">
        <ele>770</ele>
        <time>2021-02-21T10:36:20.221Z</time>
      </trkpt>
      <trkpt lat="48.50741" lon="7.18166">
        <ele>769</ele>
        <time>2021-02-21T10:36:21.221Z</time>
      </trkpt>
      <trkpt lat="48.5074" lon="7.18167">
        <ele>769</ele>
        <time>2021-02-21T10:36:22.221Z</time>
      </trkpt>
      <trkpt lat="48.5074" lon="7.18169">
        <ele>769</ele>
        <time>2021-02-21T10:36:23.221Z</time>
      </trkpt>
      <trkpt lat="48.50739" lon="7.18171">
        <ele>769</ele>
        <time>2021-02-21T10:36:24.221Z</time>
      </trkpt>
      <trkpt lat="48.50739" lon="7.18172">
        <ele>769</ele>
        <time>2021-02-21T10:36:25.221Z</time>
      </trkpt>
      <trkpt lat="48.50738" lon="7.18174">
        <ele>769</ele>
        <time>2021-02-21T10:36:26.220Z</time>
      </trkpt>
      <trkpt lat="48.50737" lon="7.18175">
        <ele>769</ele>
        <time>2021-02-21T10:36:27.221Z</time>
      </trkpt>
      <trkpt lat="48.50737" lon="7.18177">
        <ele>769</ele>
        <time>2021-02-21T10:36:28.220Z</time>
      </trkpt>
      <trkpt lat="48.50736" lon="7.18178">
        <ele>768</ele>
        <time>2021-02-21T10:36:29.221Z</time>
      </trkpt>
      <trkpt lat="48.50736" lon="7.1818">
        <ele>768</ele>
        <time>2021-02-21T10:36:30.221Z</time>
      </trkpt>
      <trkpt lat="48.50735" lon="7.18182">
        <ele>768</ele>
        <time>2021-02-21T10:36:31.221Z</time>
      </trkpt>
      <trkpt lat="48.50735" lon="7.18183">
        <ele>767</ele>
        <time>2021-02-21T10:36:32.221Z</time>
      </trkpt>
      <trkpt lat="48.50735" lon="7.18185">
        <ele>767</ele>
        <time>2021-02-21T10:36:33.220Z</time>
      </trkpt>
      <trkpt lat="48.50734" lon="7.18187">
        <ele>767</ele>
        <time>2021-02-21T10:36:34.221Z</time>
      </trkpt>
      <trkpt lat="48.50734" lon="7.18189">
        <ele>767</ele>
        <time>2021-02-21T10:36:35.221Z</time>
      </trkpt>
      <trkpt lat="48.50734" lon="7.18191">
        <ele>767</ele>
        <time>2021-02-21T10:36:36.221Z</time>
      </trkpt>
      <trkpt lat="48.50733" lon="7.18193">
        <ele>767</ele>
        <time>2021-02-21T10:36:37.221Z</time>
      </trkpt>
      <trkpt lat="48.50733" lon="7.18195">
        <ele>767</ele>
        <time>2021-02-21T10:36:38.221Z</time>
      </trkpt>
      <trkpt lat="48.50732" lon="7.18197">
        <ele>767</ele>
        <time>2021-02-21T10:36:39.220Z</time>
      </trkpt>
      <trkpt lat="48.50732" lon="7.18199">
        <ele>767</ele>
        <time>2021-02-21T10:36:40.220Z</time>
      </trkpt>
      <trkpt lat="48.50731" lon="7.182">
        <ele>767</ele>
        <time>2021-02-21T10:36:41.221Z</time>
      </trkpt>
      <trkpt lat="48.5073" lon="7.18202">
        <ele>767</ele>
        <time>2021-02-21T10:36:42.221Z</time>
      </trkpt>
      <trkpt lat="48.5073" lon="7.18204">
        <ele>767</ele>
        <time>2021-02-21T10:36:43.221Z</time>
      </trkpt>
      <trkpt lat="48.5073" lon="7.18206">
        <ele>767</ele>
        <time>2021-02-21T10:36:44.221Z</time>
      </trkpt>
      <trkpt lat="48.5073" lon="7.18207">
        <ele>766</ele>
        <time>2021-02-21T10:36:45.220Z</time>
      </trkpt>
      <trkpt lat="48.50729" lon="7.18209">
        <ele>766</ele>
        <time>2021-02-21T10:36:46.221Z</time>
      </trkpt>
      <trkpt lat="48.50728" lon="7.18211">
        <ele>767</ele>
        <time>2021-02-21T10:36:47.221Z</time>
      </trkpt>
      <trkpt lat="48.50728" lon="7.18213">
        <ele>767</ele>
        <time>2021-02-21T10:36:48.221Z</time>
      </trkpt>
      <trkpt lat="48.50727" lon="7.18216">
        <ele>767</ele>
        <time>2021-02-21T10:36:49.221Z</time>
      </trkpt>
      <trkpt lat="48.50727" lon="7.18218">
        <ele>767</ele>
        <time>2021-02-21T10:36:50.221Z</time>
      </trkpt>
      <trkpt lat="48.50726" lon="7.1822">
        <ele>767</ele>
        <time>2021-02-21T10:36:51.221Z</time>
      </trkpt>
      <trkpt lat="48.50726" lon="7.18223">
        <ele>767</ele>
        <time>2021-02-21T10:36:52.221Z</time>
      </trkpt>
      <trkpt lat="48.50725" lon="7.18225">
        <ele>767</ele>
        <time>2021-02-21T10:36:53.221Z</time>
      </trkpt>
      <trkpt lat="48.50725" lon="7.18226">
        <ele>767</ele>
        <time>2021-02-21T10:36:54.221Z</time>
      </trkpt>
      <trkpt lat="48.50724" lon="7.18228">
        <ele>767</ele>
        <time>2021-02-21T10:36:55.221Z</time>
      </trkpt>
      <trkpt lat="48.50723" lon="7.18229">
        <ele>767</ele>
        <time>2021-02-21T10:36:56.221Z</time>
      </trkpt>
      <trkpt lat="48.50723" lon="7.18231">
        <ele>767</ele>
        <time>2021-02-21T10:36:57.221Z</time>
      </trkpt>
      <trkpt lat="48.50722" lon="7.18232">
        <ele>767</ele>
        <time>2021-02-21T10:36:58.220Z</time>
      </trkpt>
      <trkpt lat="48.50721" lon="7.18235">
        <ele>767</ele>
        <time>2021-02-21T10:36:59.220Z</time>
      </trkpt>
      <trkpt lat="48.5072" lon="7.18237">
        <ele>767</ele>
        <time>2021-02-21T10:37:00.221Z</time>
      </trkpt>
      <trkpt lat="48.5072" lon="7.18238">
        <ele>767</ele>
        <time>2021-02-21T10:37:01.221Z</time>
      </trkpt>
      <trkpt lat="48.50719" lon="7.1824">
        <ele>767</ele>
        <time>2021-02-21T10:37:02.221Z</time>
      </trkpt>
      <trkpt lat="48.50719" lon="7.18242">
        <ele>767</ele>
        <time>2021-02-21T10:37:03.221Z</time>
      </trkpt>
      <trkpt lat="48.50718" lon="7.18244">
        <ele>768</ele>
        <time>2021-02-21T10:37:04.221Z</time>
      </trkpt>
      <trkpt lat="48.50717" lon="7.18245">
        <ele>768</ele>
        <time>2021-02-21T10:37:05.220Z</time>
      </trkpt>
      <trkpt lat="48.50717" lon="7.18247">
        <ele>768</ele>
        <time>2021-02-21T10:37:06.221Z</time>
      </trkpt>
      <trkpt lat="48.50716" lon="7.18249">
        <ele>768</ele>
        <time>2021-02-21T10:37:07.221Z</time>
      </trkpt>
      <trkpt lat="48.50715" lon="7.18251">
        <ele>768</ele>
        <time>2021-02-21T10:37:08.220Z</time>
      </trkpt>
      <trkpt lat="48.50715" lon="7.18252">
        <ele>768</ele>
        <time>2021-02-21T10:37:09.220Z</time>
      </trkpt>
      <trkpt lat="48.50714" lon="7.18254">
        <ele>768</ele>
        <time>2021-02-21T10:37:10.221Z</time>
      </trkpt>
      <trkpt lat="48.50713" lon="7.18256">
        <ele>767</ele>
        <time>2021-02-21T10:37:11.220Z</time>
      </trkpt>
      <trkpt lat="48.50713" lon="7.18258">
        <ele>767</ele>
        <time>2021-02-21T10:37:12.221Z</time>
      </trkpt>
      <trkpt lat="48.50712" lon="7.1826">
        <ele>767</ele>
        <time>2021-02-21T10:37:13.221Z</time>
      </trkpt>
      <trkpt lat="48.50712" lon="7.18262">
        <ele>767</ele>
        <time>2021-02-21T10:37:14.220Z</time>
      </trkpt>
      <trkpt lat="48.50712" lon="7.18264">
        <ele>768</ele>
        <time>2021-02-21T10:37:15.221Z</time>
      </trkpt>
      <trkpt lat="48.50711" lon="7.18266">
        <ele>768</ele>
        <time>2021-02-21T10:37:16.221Z</time>
      </trkpt>
      <trkpt lat="48.50711" lon="7.18268">
        <ele>768</ele>
        <time>2021-02-21T10:37:17.220Z</time>
      </trkpt>
      <trkpt lat="48.5071" lon="7.18269">
        <ele>769</ele>
        <time>2021-02-21T10:37:18.221Z</time>
      </trkpt>
      <trkpt lat="48.50709" lon="7.18272">
        <ele>769</ele>
        <time>2021-02-21T10:37:19.221Z</time>
      </trkpt>
      <trkpt lat="48.50708" lon="7.18274">
        <ele>769</ele>
        <time>2021-02-21T10:37:20.221Z</time>
      </trkpt>
      <trkpt lat="48.50707" lon="7.18277">
        <ele>769</ele>
        <time>2021-02-21T10:37:21.221Z</time>
      </trkpt>
      <trkpt lat="48.50707" lon="7.1828">
        <ele>769</ele>
        <time>2021-02-21T10:37:22.221Z</time>
      </trkpt>
      <trkpt lat="48.50707" lon="7.18282">
        <ele>769</ele>
        <time>2021-02-21T10:37:23.220Z</time>
      </trkpt>
      <trkpt lat="48.50706" lon="7.18285">
        <ele>769</ele>
        <time>2021-02-21T10:37:24.221Z</time>
      </trkpt>
      <trkpt lat="48.50706" lon="7.18287">
        <ele>769</ele>
        <time>2021-02-21T10:37:25.221Z</time>
      </trkpt>
      <trkpt lat="48.50706" lon="7.18288">
        <ele>768</ele>
        <time>2021-02-21T10:37:26.220Z</time>
      </trkpt>
      <trkpt lat="48.50706" lon="7.1829">
        <ele>768</ele>
        <time>2021-02-21T10:37:27.221Z</time>
      </trkpt>
      <trkpt lat="48.50705" lon="7.18291">
        <ele>767</ele>
        <time>2021-02-21T10:37:28.221Z</time>
      </trkpt>
      <trkpt lat="48.50705" lon="7.18293">
        <ele>767</ele>
        <time>2021-02-21T10:37:29.221Z</time>
      </trkpt>
      <trkpt lat="48.50705" lon="7.18295">
        <ele>767</ele>
        <time>2021-02-21T10:37:30.220Z</time>
      </trkpt>
      <trkpt lat="48.50705" lon="7.18296">
        <ele>767</ele>
        <time>2021-02-21T10:37:31.220Z</time>
      </trkpt>
      <trkpt lat="48.50705" lon="7.18298">
        <ele>767</ele>
        <time>2021-02-21T10:37:32.221Z</time>
      </trkpt>
      <trkpt lat="48.50704" lon="7.18299">
        <ele>767</ele>
        <time>2021-02-21T10:37:33.221Z</time>
      </trkpt>
      <trkpt lat="48.50704" lon="7.18301">
        <ele>767</ele>
        <time>2021-02-21T10:37:34.221Z</time>
      </trkpt>
      <trkpt lat="48.50704" lon="7.18303">
        <ele>767</ele>
        <time>2021-02-21T10:37:35.221Z</time>
      </trkpt>
      <trkpt lat="48.50703" lon="7.18305">
        <ele>767</ele>
        <time>2021-02-21T10:37:36.221Z</time>
      </trkpt>
      <trkpt lat="48.50703" lon="7.18307">
        <ele>767</ele>
        <time>2021-02-21T10:37:37.221Z</time>
      </trkpt>
      <trkpt lat="48.50703" lon="7.18309">
        <ele>767</ele>
        <time>2021-02-21T10:37:38.221Z</time>
      </trkpt>
      <trkpt lat="48.50703" lon="7.18311">
        <ele>767</ele>
        <time>2021-02-21T10:37:39.220Z</time>
      </trkpt>
      <trkpt lat="48.50703" lon="7.18312">
        <ele>767</ele>
        <time>2021-02-21T10:37:40.220Z</time>
      </trkpt>
      <trkpt lat="48.50702" lon="7.18314">
        <ele>767</ele>
        <time>2021-02-21T10:37:41.221Z</time>
      </trkpt>
      <trkpt lat="48.50702" lon="7.18316">
        <ele>767</ele>
        <time>2021-02-21T10:37:42.221Z</time>
      </trkpt>
      <trkpt lat="48.50701" lon="7.18318">
        <ele>767</ele>
        <time>2021-02-21T10:37:43.221Z</time>
      </trkpt>
      <trkpt lat="48.50701" lon="7.1832">
        <ele>767</ele>
        <time>2021-02-21T10:37:44.221Z</time>
      </trkpt>
      <trkpt lat="48.50701" lon="7.18322">
        <ele>767</ele>
        <time>2021-02-21T10:37:45.220Z</time>
      </trkpt>
      <trkpt lat="48.507" lon="7.18324">
        <ele>767</ele>
        <time>2021-02-21T10:37:46.221Z</time>
      </trkpt>
      <trkpt lat="48.507" lon="7.18326">
        <ele>767</ele>
        <time>2021-02-21T10:37:47.221Z</time>
      </trkpt>
      <trkpt lat="48.507" lon="7.18328">
        <ele>767</ele>
        <time>2021-02-21T10:37:48.220Z</time>
      </trkpt>
      <trkpt lat="48.50699" lon="7.1833">
        <ele>767</ele>
        <time>2021-02-21T10:37:49.220Z</time>
      </trkpt>
      <trkpt lat="48.50699" lon="7.18332">
        <ele>766</ele>
        <time>2021-02-21T10:37:50.221Z</time>
      </trkpt>
      <trkpt lat="48.50698" lon="7.18333">
        <ele>766</ele>
        <time>2021-02-21T10:37:51.221Z</time>
      </trkpt>
      <trkpt lat="48.50698" lon="7.18336">
        <ele>766</ele>
        <time>2021-02-21T10:37:52.221Z</time>
      </trkpt>
      <trkpt lat="48.50698" lon="7.18338">
        <ele>766</ele>
        <time>2021-02-21T10:37:53.220Z</time>
      </trkpt>
      <trkpt lat="48.50697" lon="7.1834">
        <ele>765</ele>
        <time>2021-02-21T10:37:54.221Z</time>
      </trkpt>
      <trkpt lat="48.50697" lon="7.18342">
        <ele>764</ele>
        <time>2021-02-21T10:37:55.220Z</time>
      </trkpt>
      <trkpt lat="48.50696" lon="7.18344">
        <ele>764</ele>
        <time>2021-02-21T10:37:56.221Z</time>
      </trkpt>
      <trkpt lat="48.50696" lon="7.18346">
        <ele>764</ele>
        <time>2021-02-21T10:37:57.221Z</time>
      </trkpt>
      <trkpt lat="48.50696" lon="7.18348">
        <ele>764</ele>
        <time>2021-02-21T10:37:58.221Z</time>
      </trkpt>
      <trkpt lat="48.50695" lon="7.1835">
        <ele>764</ele>
        <time>2021-02-21T10:37:59.220Z</time>
      </trkpt>
      <trkpt lat="48.50695" lon="7.18352">
        <ele>764</ele>
        <time>2021-02-21T10:38:00.220Z</time>
      </trkpt>
      <trkpt lat="48.50694" lon="7.18354">
        <ele>764</ele>
        <time>2021-02-21T10:38:01.221Z</time>
      </trkpt>
      <trkpt lat="48.50694" lon="7.18356">
        <ele>765</ele>
        <time>2021-02-21T10:38:02.221Z</time>
      </trkpt>
      <trkpt lat="48.50694" lon="7.18358">
        <ele>765</ele>
        <time>2021-02-21T10:38:03.220Z</time>
      </trkpt>
      <trkpt lat="48.50694" lon="7.1836">
        <ele>765</ele>
        <time>2021-02-21T10:38:04.221Z</time>
      </trkpt>
      <trkpt lat="48.50693" lon="7.18362">
        <ele>765</ele>
        <time>2021-02-21T10:38:05.220Z</time>
      </trkpt>
      <trkpt lat="48.50693" lon="7.18364">
        <ele>765</ele>
        <time>2021-02-21T10:38:06.221Z</time>
      </trkpt>
      <trkpt lat="48.50692" lon="7.18365">
        <ele>764</ele>
        <time>2021-02-21T10:38:07.221Z</time>
      </trkpt>
      <trkpt lat="48.50692" lon="7.18367">
        <ele>764</ele>
        <time>2021-02-21T10:38:08.221Z</time>
      </trkpt>
      <trkpt lat="48.50692" lon="7.1837">
        <ele>765</ele>
        <time>2021-02-21T10:38:09.220Z</time>
      </trkpt>
      <trkpt lat="48.50691" lon="7.18372">
        <ele>765</ele>
        <time>2021-02-21T10:38:10.221Z</time>
      </trkpt>
      <trkpt lat="48.5069" lon="7.18374">
        <ele>764</ele>
        <time>2021-02-21T10:38:11.221Z</time>
      </trkpt>
      <trkpt lat="48.5069" lon="7.18376">
        <ele>764</ele>
        <time>2021-02-21T10:38:12.221Z</time>
      </trkpt>
      <trkpt lat="48.50689" lon="7.18378">
        <ele>763</ele>
        <time>2021-02-21T10:38:13.221Z</time>
      </trkpt>
      <trkpt lat="48.50688" lon="7.1838">
        <ele>763</ele>
        <time>2021-02-21T10:38:14.220Z</time>
      </trkpt>
      <trkpt lat="48.50688" lon="7.18382">
        <ele>763</ele>
        <time>2021-02-21T10:38:15.221Z</time>
      </trkpt>
      <trkpt lat="48.50687" lon="7.18384">
        <ele>763</ele>
        <time>2021-02-21T10:38:16.220Z</time>
      </trkpt>
      <trkpt lat="48.50687" lon="7.18386">
        <ele>762</ele>
        <time>2021-02-21T10:38:17.221Z</time>
      </trkpt>
      <trkpt lat="48.50686" lon="7.18388">
        <ele>762</ele>
        <time>2021-02-21T10:38:18.220Z</time>
      </trkpt>
      <trkpt lat="48.50686" lon="7.1839">
        <ele>761</ele>
        <time>2021-02-21T10:38:19.221Z</time>
      </trkpt>
      <trkpt lat="48.50686" lon="7.18392">
        <ele>760</ele>
        <time>2021-02-21T10:38:20.221Z</time>
      </trkpt>
      <trkpt lat="48.50685" lon="7.18394">
        <ele>759</ele>
        <time>2021-02-21T10:38:21.221Z</time>
      </trkpt>
      <trkpt lat="48.50685" lon="7.18395">
        <ele>758</ele>
        <time>2021-02-21T10:38:22.221Z</time>
      </trkpt>
      <trkpt lat="48.50685" lon="7.18398">
        <ele>758</ele>
        <time>2021-02-21T10:38:23.220Z</time>
      </trkpt>
      <trkpt lat="48.50684" lon="7.184">
        <ele>757</ele>
        <time>2021-02-21T10:38:24.221Z</time>
      </trkpt>
      <trkpt lat="48.50684" lon="7.18402">
        <ele>757</ele>
        <time>2021-02-21T10:38:25.221Z</time>
      </trkpt>
      <trkpt lat="48.50684" lon="7.18403">
        <ele>756</ele>
        <time>2021-02-21T10:38:26.221Z</time>
      </trkpt>
      <trkpt lat="48.50684" lon="7.18405">
        <ele>755</ele>
        <time>2021-02-21T10:38:27.221Z</time>
      </trkpt>
      <trkpt lat="48.50683" lon="7.18407">
        <ele>755</ele>
        <time>2021-02-21T10:38:28.221Z</time>
      </trkpt>
      <trkpt lat="48.50682" lon="7.18408">
        <ele>754</ele>
        <time>2021-02-21T10:38:29.220Z</time>
      </trkpt>
      <trkpt lat="48.50682" lon="7.18411">
        <ele>754</ele>
        <time>2021-02-21T10:38:30.220Z</time>
      </trkpt>
      <trkpt lat="48.50681" lon="7.18413">
        <ele>754</ele>
        <time>2021-02-21T10:38:31.221Z</time>
      </trkpt>
      <trkpt lat="48.5068" lon="7.18415">
        <ele>754</ele>
        <time>2021-02-21T10:38:32.221Z</time>
      </trkpt>
      <trkpt lat="48.5068" lon="7.18417">
        <ele>754</ele>
        <time>2021-02-21T10:38:33.221Z</time>
      </trkpt>
      <trkpt lat="48.5068" lon="7.18419">
        <ele>754</ele>
        <time>2021-02-21T10:38:34.220Z</time>
      </trkpt>
      <trkpt lat="48.50679" lon="7.18421">
        <ele>754</ele>
        <time>2021-02-21T10:38:35.221Z</time>
      </trkpt>
      <trkpt lat="48.50679" lon="7.18423">
        <ele>754</ele>
        <time>2021-02-21T10:38:36.221Z</time>
      </trkpt>
      <trkpt lat="48.5068" lon="7.18425">
        <ele>754</ele>
        <time>2021-02-21T10:38:37.221Z</time>
      </trkpt>
      <trkpt lat="48.50679" lon="7.18428">
        <ele>755</ele>
        <time>2021-02-21T10:38:38.220Z</time>
      </trkpt>
      <trkpt lat="48.50679" lon="7.1843">
        <ele>755</ele>
        <time>2021-02-21T10:38:39.221Z</time>
      </trkpt>
      <trkpt lat="48.50679" lon="7.18432">
        <ele>755</ele>
        <time>2021-02-21T10:38:40.221Z</time>
      </trkpt>
      <trkpt lat="48.50679" lon="7.18435">
        <ele>755</ele>
        <time>2021-02-21T10:38:41.221Z</time>
      </trkpt>
      <trkpt lat="48.50679" lon="7.18437">
        <ele>755</ele>
        <time>2021-02-21T10:38:42.221Z</time>
      </trkpt>
      <trkpt lat="48.50679" lon="7.18439">
        <ele>755</ele>
        <time>2021-02-21T10:38:43.221Z</time>
      </trkpt>
      <trkpt lat="48.5068" lon="7.18442">
        <ele>754</ele>
        <time>2021-02-21T10:38:44.221Z</time>
      </trkpt>
      <trkpt lat="48.5068" lon="7.18446">
        <ele>754</ele>
        <time>2021-02-21T10:38:45.221Z</time>
      </trkpt>
      <trkpt lat="48.50679" lon="7.18448">
        <ele>754</ele>
        <time>2021-02-21T10:38:46.221Z</time>
      </trkpt>
      <trkpt lat="48.50678" lon="7.1845">
        <ele>753</ele>
        <time>2021-02-21T10:38:47.221Z</time>
      </trkpt>
      <trkpt lat="48.50677" lon="7.18453">
        <ele>753</ele>
        <time>2021-02-21T10:38:48.221Z</time>
      </trkpt>
      <trkpt lat="48.50676" lon="7.18455">
        <ele>753</ele>
        <time>2021-02-21T10:38:49.220Z</time>
      </trkpt>
      <trkpt lat="48.50676" lon="7.18457">
        <ele>753</ele>
        <time>2021-02-21T10:38:50.221Z</time>
      </trkpt>
      <trkpt lat="48.50676" lon="7.18459">
        <ele>753</ele>
        <time>2021-02-21T10:38:51.220Z</time>
      </trkpt>
      <trkpt lat="48.50676" lon="7.18461">
        <ele>753</ele>
        <time>2021-02-21T10:38:52.220Z</time>
      </trkpt>
      <trkpt lat="48.50675" lon="7.18464">
        <ele>753</ele>
        <time>2021-02-21T10:38:53.220Z</time>
      </trkpt>
      <trkpt lat="48.50675" lon="7.18466">
        <ele>753</ele>
        <time>2021-02-21T10:38:54.221Z</time>
      </trkpt>
      <trkpt lat="48.50674" lon="7.18468">
        <ele>753</ele>
        <time>2021-02-21T10:38:55.221Z</time>
      </trkpt>
      <trkpt lat="48.50674" lon="7.1847">
        <ele>752</ele>
        <time>2021-02-21T10:38:56.221Z</time>
      </trkpt>
      <trkpt lat="48.50673" lon="7.18473">
        <ele>752</ele>
        <time>2021-02-21T10:38:57.221Z</time>
      </trkpt>
      <trkpt lat="48.50672" lon="7.18476">
        <ele>753</ele>
        <time>2021-02-21T10:38:58.221Z</time>
      </trkpt>
      <trkpt lat="48.50672" lon="7.18479">
        <ele>753</ele>
        <time>2021-02-21T10:38:59.220Z</time>
      </trkpt>
      <trkpt lat="48.50672" lon="7.1848">
        <ele>753</ele>
        <time>2021-02-21T10:39:00.221Z</time>
      </trkpt>
      <trkpt lat="48.50671" lon="7.18482">
        <ele>752</ele>
        <time>2021-02-21T10:39:01.221Z</time>
      </trkpt>
      <trkpt lat="48.50671" lon="7.18484">
        <ele>752</ele>
        <time>2021-02-21T10:39:02.221Z</time>
      </trkpt>
      <trkpt lat="48.5067" lon="7.18486">
        <ele>751</ele>
        <time>2021-02-21T10:39:03.221Z</time>
      </trkpt>
      <trkpt lat="48.5067" lon="7.18488">
        <ele>750</ele>
        <time>2021-02-21T10:39:04.220Z</time>
      </trkpt>
      <trkpt lat="48.50669" lon="7.1849">
        <ele>750</ele>
        <time>2021-02-21T10:39:05.220Z</time>
      </trkpt>
      <trkpt lat="48.50668" lon="7.18492">
        <ele>750</ele>
        <time>2021-02-21T10:39:06.221Z</time>
      </trkpt>
      <trkpt lat="48.50668" lon="7.18493">
        <ele>750</ele>
        <time>2021-02-21T10:39:07.220Z</time>
      </trkpt>
      <trkpt lat="48.50668" lon="7.18494">
        <ele>749</ele>
        <time>2021-02-21T10:39:08.220Z</time>
      </trkpt>
      <trkpt lat="48.50667" lon="7.18496">
        <ele>749</ele>
        <time>2021-02-21T10:39:09.220Z</time>
      </trkpt>
      <trkpt lat="48.50667" lon="7.18498">
        <ele>749</ele>
        <time>2021-02-21T10:39:10.220Z</time>
      </trkpt>
      <trkpt lat="48.50666" lon="7.185">
        <ele>749</ele>
        <time>2021-02-21T10:39:11.221Z</time>
      </trkpt>
      <trkpt lat="48.50665" lon="7.18503">
        <ele>749</ele>
        <time>2021-02-21T10:39:12.221Z</time>
      </trkpt>
      <trkpt lat="48.50665" lon="7.18505">
        <ele>748</ele>
        <time>2021-02-21T10:39:13.220Z</time>
      </trkpt>
      <trkpt lat="48.50664" lon="7.18508">
        <ele>748</ele>
        <time>2021-02-21T10:39:14.220Z</time>
      </trkpt>
      <trkpt lat="48.50663" lon="7.1851">
        <ele>748</ele>
        <time>2021-02-21T10:39:15.221Z</time>
      </trkpt>
      <trkpt lat="48.50662" lon="7.18512">
        <ele>748</ele>
        <time>2021-02-21T10:39:16.221Z</time>
      </trkpt>
      <trkpt lat="48.50662" lon="7.18514">
        <ele>748</ele>
        <time>2021-02-21T10:39:17.221Z</time>
      </trkpt>
      <trkpt lat="48.50662" lon="7.18516">
        <ele>748</ele>
        <time>2021-02-21T10:39:18.221Z</time>
      </trkpt>
      <trkpt lat="48.50662" lon="7.18518">
        <ele>748</ele>
        <time>2021-02-21T10:39:19.221Z</time>
      </trkpt>
      <trkpt lat="48.50661" lon="7.1852">
        <ele>748</ele>
        <time>2021-02-21T10:39:20.220Z</time>
      </trkpt>
      <trkpt lat="48.50661" lon="7.18522">
        <ele>748</ele>
        <time>2021-02-21T10:39:21.221Z</time>
      </trkpt>
      <trkpt lat="48.5066" lon="7.18525">
        <ele>748</ele>
        <time>2021-02-21T10:39:22.221Z</time>
      </trkpt>
      <trkpt lat="48.5066" lon="7.18527">
        <ele>748</ele>
        <time>2021-02-21T10:39:23.221Z</time>
      </trkpt>
      <trkpt lat="48.5066" lon="7.18529">
        <ele>748</ele>
        <time>2021-02-21T10:39:24.221Z</time>
      </trkpt>
      <trkpt lat="48.50659" lon="7.1853">
        <ele>748</ele>
        <time>2021-02-21T10:39:25.220Z</time>
      </trkpt>
      <trkpt lat="48.50659" lon="7.18532">
        <ele>748</ele>
        <time>2021-02-21T10:39:26.221Z</time>
      </trkpt>
      <trkpt lat="48.50659" lon="7.18534">
        <ele>748</ele>
        <time>2021-02-21T10:39:27.221Z</time>
      </trkpt>
      <trkpt lat="48.50659" lon="7.18536">
        <ele>748</ele>
        <time>2021-02-21T10:39:28.220Z</time>
      </trkpt>
      <trkpt lat="48.50659" lon="7.18537">
        <ele>748</ele>
        <time>2021-02-21T10:39:29.221Z</time>
      </trkpt>
      <trkpt lat="48.50658" lon="7.18539">
        <ele>748</ele>
        <time>2021-02-21T10:39:30.220Z</time>
      </trkpt>
      <trkpt lat="48.50658" lon="7.18541">
        <ele>749</ele>
        <time>2021-02-21T10:39:31.220Z</time>
      </trkpt>
      <trkpt lat="48.50658" lon="7.18542">
        <ele>749</ele>
        <time>2021-02-21T10:39:32.221Z</time>
      </trkpt>
      <trkpt lat="48.50658" lon="7.18544">
        <ele>749</ele>
        <time>2021-02-21T10:39:33.221Z</time>
      </trkpt>
      <trkpt lat="48.50659" lon="7.18546">
        <ele>749</ele>
        <time>2021-02-21T10:39:34.220Z</time>
      </trkpt>
      <trkpt lat="48.50658" lon="7.18548">
        <ele>749</ele>
        <time>2021-02-21T10:39:35.221Z</time>
      </trkpt>
      <trkpt lat="48.50659" lon="7.1855">
        <ele>749</ele>
        <time>2021-02-21T10:39:36.221Z</time>
      </trkpt>
      <trkpt lat="48.50658" lon="7.18552">
        <ele>749</ele>
        <time>2021-02-21T10:39:37.221Z</time>
      </trkpt>
      <trkpt lat="48.50658" lon="7.18554">
        <ele>749</ele>
        <time>2021-02-21T10:39:38.221Z</time>
      </trkpt>
      <trkpt lat="48.50658" lon="7.18556">
        <ele>749</ele>
        <time>2021-02-21T10:39:39.221Z</time>
      </trkpt>
      <trkpt lat="48.50658" lon="7.18558">
        <ele>749</ele>
        <time>2021-02-21T10:39:40.220Z</time>
      </trkpt>
      <trkpt lat="48.50658" lon="7.1856">
        <ele>748</ele>
        <time>2021-02-21T10:39:41.221Z</time>
      </trkpt>
      <trkpt lat="48.50657" lon="7.18562">
        <ele>748</ele>
        <time>2021-02-21T10:39:42.221Z</time>
      </trkpt>
      <trkpt lat="48.50657" lon="7.18564">
        <ele>748</ele>
        <time>2021-02-21T10:39:43.220Z</time>
      </trkpt>
      <trkpt lat="48.50657" lon="7.18567">
        <ele>748</ele>
        <time>2021-02-21T10:39:44.220Z</time>
      </trkpt>
      <trkpt lat="48.50657" lon="7.1857">
        <ele>748</ele>
        <time>2021-02-21T10:39:45.220Z</time>
      </trkpt>
      <trkpt lat="48.50657" lon="7.18572">
        <ele>748</ele>
        <time>2021-02-21T10:39:46.221Z</time>
      </trkpt>
      <trkpt lat="48.50657" lon="7.18575">
        <ele>748</ele>
        <time>2021-02-21T10:39:47.221Z</time>
      </trkpt>
      <trkpt lat="48.50657" lon="7.18578">
        <ele>748</ele>
        <time>2021-02-21T10:39:48.221Z</time>
      </trkpt>
      <trkpt lat="48.50656" lon="7.18581">
        <ele>748</ele>
        <time>2021-02-21T10:39:49.221Z</time>
      </trkpt>
      <trkpt lat="48.50656" lon="7.18583">
        <ele>748</ele>
        <time>2021-02-21T10:39:50.221Z</time>
      </trkpt>
      <trkpt lat="48.50655" lon="7.18585">
        <ele>747</ele>
        <time>2021-02-21T10:39:51.221Z</time>
      </trkpt>
      <trkpt lat="48.50654" lon="7.18587">
        <ele>747</ele>
        <time>2021-02-21T10:39:52.221Z</time>
      </trkpt>
      <trkpt lat="48.50654" lon="7.1859">
        <ele>746</ele>
        <time>2021-02-21T10:39:53.221Z</time>
      </trkpt>
      <trkpt lat="48.50654" lon="7.18592">
        <ele>746</ele>
        <time>2021-02-21T10:39:54.221Z</time>
      </trkpt>
      <trkpt lat="48.50653" lon="7.18594">
        <ele>745</ele>
        <time>2021-02-21T10:39:55.220Z</time>
      </trkpt>
      <trkpt lat="48.50653" lon="7.18596">
        <ele>745</ele>
        <time>2021-02-21T10:39:56.221Z</time>
      </trkpt>
      <trkpt lat="48.50653" lon="7.18597">
        <ele>744</ele>
        <time>2021-02-21T10:39:57.221Z</time>
      </trkpt>
      <trkpt lat="48.50653" lon="7.18599">
        <ele>744</ele>
        <time>2021-02-21T10:39:58.220Z</time>
      </trkpt>
      <trkpt lat="48.50653" lon="7.18602">
        <ele>744</ele>
        <time>2021-02-21T10:39:59.221Z</time>
      </trkpt>
      <trkpt lat="48.50653" lon="7.18604">
        <ele>744</ele>
        <time>2021-02-21T10:40:00.220Z</time>
      </trkpt>
      <trkpt lat="48.50652" lon="7.18605">
        <ele>744</ele>
        <time>2021-02-21T10:40:01.221Z</time>
      </trkpt>
      <trkpt lat="48.50651" lon="7.18607">
        <ele>745</ele>
        <time>2021-02-21T10:40:02.221Z</time>
      </trkpt>
      <trkpt lat="48.50651" lon="7.18608">
        <ele>745</ele>
        <time>2021-02-21T10:40:03.221Z</time>
      </trkpt>
      <trkpt lat="48.50651" lon="7.1861">
        <ele>745</ele>
        <time>2021-02-21T10:40:04.221Z</time>
      </trkpt>
      <trkpt lat="48.5065" lon="7.18612">
        <ele>746</ele>
        <time>2021-02-21T10:40:05.220Z</time>
      </trkpt>
      <trkpt lat="48.5065" lon="7.18614">
        <ele>746</ele>
        <time>2021-02-21T10:40:06.221Z</time>
      </trkpt>
      <trkpt lat="48.50649" lon="7.18615">
        <ele>747</ele>
        <time>2021-02-21T10:40:07.221Z</time>
      </trkpt>
      <trkpt lat="48.50649" lon="7.18618">
        <ele>748</ele>
        <time>2021-02-21T10:40:08.221Z</time>
      </trkpt>
      <trkpt lat="48.50649" lon="7.18621">
        <ele>748</ele>
        <time>2021-02-21T10:40:09.221Z</time>
      </trkpt>
      <trkpt lat="48.50648" lon="7.18622">
        <ele>749</ele>
        <time>2021-02-21T10:40:10.220Z</time>
      </trkpt>
      <trkpt lat="48.50648" lon="7.18623">
        <ele>749</ele>
        <time>2021-02-21T10:40:11.221Z</time>
      </trkpt>
      <trkpt lat="48.50648" lon="7.18625">
        <ele>750</ele>
        <time>2021-02-21T10:40:12.221Z</time>
      </trkpt>
      <trkpt lat="48.50647" lon="7.18626">
        <ele>751</ele>
        <time>2021-02-21T10:40:13.221Z</time>
      </trkpt>
      <trkpt lat="48.50647" lon="7.18628">
        <ele>751</ele>
        <time>2021-02-21T10:40:14.220Z</time>
      </trkpt>
      <trkpt lat="48.50647" lon="7.1863">
        <ele>752</ele>
        <time>2021-02-21T10:40:15.221Z</time>
      </trkpt>
      <trkpt lat="48.50646" lon="7.18631">
        <ele>752</ele>
        <time>2021-02-21T10:40:16.221Z</time>
      </trkpt>
      <trkpt lat="48.50645" lon="7.18633">
        <ele>753</ele>
        <time>2021-02-21T10:40:17.221Z</time>
      </trkpt>
      <trkpt lat="48.50644" lon="7.18635">
        <ele>753</ele>
        <time>2021-02-21T10:40:18.220Z</time>
      </trkpt>
      <trkpt lat="48.50644" lon="7.18637">
        <ele>754</ele>
        <time>2021-02-21T10:40:19.220Z</time>
      </trkpt>
      <trkpt lat="48.50643" lon="7.18639">
        <ele>754</ele>
        <time>2021-02-21T10:40:20.220Z</time>
      </trkpt>
      <trkpt lat="48.50642" lon="7.1864">
        <ele>755</ele>
        <time>2021-02-21T10:40:21.221Z</time>
      </trkpt>
      <trkpt lat="48.50641" lon="7.18642">
        <ele>755</ele>
        <time>2021-02-21T10:40:22.221Z</time>
      </trkpt>
      <trkpt lat="48.50641" lon="7.18644">
        <ele>756</ele>
        <time>2021-02-21T10:40:23.221Z</time>
      </trkpt>
      <trkpt lat="48.5064" lon="7.18646">
        <ele>756</ele>
        <time>2021-02-21T10:40:24.221Z</time>
      </trkpt>
      <trkpt lat="48.50639" lon="7.18648">
        <ele>756</ele>
        <time>2021-02-21T10:40:25.220Z</time>
      </trkpt>
      <trkpt lat="48.50639" lon="7.18649">
        <ele>757</ele>
        <time>2021-02-21T10:40:26.221Z</time>
      </trkpt>
      <trkpt lat="48.50638" lon="7.18651">
        <ele>757</ele>
        <time>2021-02-21T10:40:27.221Z</time>
      </trkpt>
      <trkpt lat="48.50638" lon="7.18653">
        <ele>757</ele>
        <time>2021-02-21T10:40:28.220Z</time>
      </trkpt>
      <trkpt lat="48.50637" lon="7.18655">
        <ele>757</ele>
        <time>2021-02-21T10:40:29.221Z</time>
      </trkpt>
      <trkpt lat="48.50636" lon="7.18657">
        <ele>757</ele>
        <time>2021-02-21T10:40:30.221Z</time>
      </trkpt>
      <trkpt lat="48.50636" lon="7.18659">
        <ele>757</ele>
        <time>2021-02-21T10:40:31.221Z</time>
      </trkpt>
      <trkpt lat="48.50635" lon="7.1866">
        <ele>757</ele>
        <time>2021-02-21T10:40:32.221Z</time>
      </trkpt>
      <trkpt lat="48.50634" lon="7.18662">
        <ele>756</ele>
        <time>2021-02-21T10:40:33.221Z</time>
      </trkpt>
      <trkpt lat="48.50634" lon="7.18664">
        <ele>756</ele>
        <time>2021-02-21T10:40:34.220Z</time>
      </trkpt>
      <trkpt lat="48.50633" lon="7.18665">
        <ele>756</ele>
        <time>2021-02-21T10:40:35.221Z</time>
      </trkpt>
      <trkpt lat="48.50632" lon="7.18667">
        <ele>756</ele>
        <time>2021-02-21T10:40:36.221Z</time>
      </trkpt>
      <trkpt lat="48.50631" lon="7.18669">
        <ele>755</ele>
        <time>2021-02-21T10:40:37.221Z</time>
      </trkpt>
      <trkpt lat="48.50631" lon="7.18671">
        <ele>755</ele>
        <time>2021-02-21T10:40:38.221Z</time>
      </trkpt>
      <trkpt lat="48.5063" lon="7.18673">
        <ele>755</ele>
        <time>2021-02-21T10:40:39.221Z</time>
      </trkpt>
      <trkpt lat="48.50629" lon="7.18675">
        <ele>755</ele>
        <time>2021-02-21T10:40:40.220Z</time>
      </trkpt>
      <trkpt lat="48.50628" lon="7.18676">
        <ele>755</ele>
        <time>2021-02-21T10:40:41.221Z</time>
      </trkpt>
      <trkpt lat="48.50627" lon="7.18678">
        <ele>755</ele>
        <time>2021-02-21T10:40:42.221Z</time>
      </trkpt>
      <trkpt lat="48.50627" lon="7.1868">
        <ele>755</ele>
        <time>2021-02-21T10:40:43.220Z</time>
      </trkpt>
      <trkpt lat="48.50626" lon="7.18682">
        <ele>755</ele>
        <time>2021-02-21T10:40:44.221Z</time>
      </trkpt>
      <trkpt lat="48.50625" lon="7.18685">
        <ele>755</ele>
        <time>2021-02-21T10:40:45.221Z</time>
      </trkpt>
      <trkpt lat="48.50625" lon="7.18687">
        <ele>755</ele>
        <time>2021-02-21T10:40:46.221Z</time>
      </trkpt>
      <trkpt lat="48.50624" lon="7.18689">
        <ele>755</ele>
        <time>2021-02-21T10:40:47.221Z</time>
      </trkpt>
      <trkpt lat="48.50623" lon="7.18691">
        <ele>755</ele>
        <time>2021-02-21T10:40:48.221Z</time>
      </trkpt>
      <trkpt lat="48.50622" lon="7.18693">
        <ele>755</ele>
        <time>2021-02-21T10:40:49.221Z</time>
      </trkpt>
      <trkpt lat="48.50621" lon="7.18694">
        <ele>754</ele>
        <time>2021-02-21T10:40:50.221Z</time>
      </trkpt>
      <trkpt lat="48.5062" lon="7.18695">
        <ele>754</ele>
        <time>2021-02-21T10:40:51.221Z</time>
      </trkpt>
      <trkpt lat="48.50619" lon="7.18697">
        <ele>754</ele>
        <time>2021-02-21T10:40:52.221Z</time>
      </trkpt>
      <trkpt lat="48.50618" lon="7.18698">
        <ele>753</ele>
        <time>2021-02-21T10:40:53.221Z</time>
      </trkpt>
      <trkpt lat="48.50618" lon="7.18699">
        <ele>753</ele>
        <time>2021-02-21T10:40:54.221Z</time>
      </trkpt>
      <trkpt lat="48.50617" lon="7.187">
        <ele>752</ele>
        <time>2021-02-21T10:40:55.220Z</time>
      </trkpt>
      <trkpt lat="48.50615" lon="7.18701">
        <ele>751</ele>
        <time>2021-02-21T10:40:56.221Z</time>
      </trkpt>
      <trkpt lat="48.50614" lon="7.18703">
        <ele>751</ele>
        <time>2021-02-21T10:40:57.221Z</time>
      </trkpt>
      <trkpt lat="48.50613" lon="7.18704">
        <ele>750</ele>
        <time>2021-02-21T10:40:58.221Z</time>
      </trkpt>
      <trkpt lat="48.50612" lon="7.18706">
        <ele>750</ele>
        <time>2021-02-21T10:40:59.221Z</time>
      </trkpt>
      <trkpt lat="48.50611" lon="7.18707">
        <ele>749</ele>
        <time>2021-02-21T10:41:00.221Z</time>
      </trkpt>
      <trkpt lat="48.5061" lon="7.18709">
        <ele>748</ele>
        <time>2021-02-21T10:41:01.221Z</time>
      </trkpt>
      <trkpt lat="48.50609" lon="7.18711">
        <ele>747</ele>
        <time>2021-02-21T10:41:02.221Z</time>
      </trkpt>
      <trkpt lat="48.50608" lon="7.18718">
        <ele>746</ele>
        <time>2021-02-21T10:41:03.221Z</time>
      </trkpt>
      <trkpt lat="48.50607" lon="7.18723">
        <ele>745</ele>
        <time>2021-02-21T10:41:04.221Z</time>
      </trkpt>
      <trkpt lat="48.50606" lon="7.18725">
        <ele>745</ele>
        <time>2021-02-21T10:41:05.221Z</time>
      </trkpt>
      <trkpt lat="48.50604" lon="7.18725">
        <ele>744</ele>
        <time>2021-02-21T10:41:06.221Z</time>
      </trkpt>
      <trkpt lat="48.50603" lon="7.18725">
        <ele>744</ele>
        <time>2021-02-21T10:41:07.221Z</time>
      </trkpt>
      <trkpt lat="48.50601" lon="7.18727">
        <ele>743</ele>
        <time>2021-02-21T10:41:08.220Z</time>
      </trkpt>
      <trkpt lat="48.50599" lon="7.18729">
        <ele>743</ele>
        <time>2021-02-21T10:41:09.220Z</time>
      </trkpt>
      <trkpt lat="48.50598" lon="7.18731">
        <ele>742</ele>
        <time>2021-02-21T10:41:10.221Z</time>
      </trkpt>
      <trkpt lat="48.50597" lon="7.18732">
        <ele>742</ele>
        <time>2021-02-21T10:41:11.221Z</time>
      </trkpt>
      <trkpt lat="48.50596" lon="7.18733">
        <ele>741</ele>
        <time>2021-02-21T10:41:12.220Z</time>
      </trkpt>
      <trkpt lat="48.50596" lon="7.18733">
        <ele>740</ele>
        <time>2021-02-21T10:41:13.221Z</time>
      </trkpt>
      <trkpt lat="48.50595" lon="7.18735">
        <ele>740</ele>
        <time>2021-02-21T10:41:14.221Z</time>
      </trkpt>
      <trkpt lat="48.50594" lon="7.18736">
        <ele>739</ele>
        <time>2021-02-21T10:41:15.221Z</time>
      </trkpt>
      <trkpt lat="48.50593" lon="7.18737">
        <ele>739</ele>
        <time>2021-02-21T10:41:16.221Z</time>
      </trkpt>
      <trkpt lat="48.50592" lon="7.18738">
        <ele>739</ele>
        <time>2021-02-21T10:41:17.220Z</time>
      </trkpt>
      <trkpt lat="48.50591" lon="7.18738">
        <ele>738</ele>
        <time>2021-02-21T10:41:18.221Z</time>
      </trkpt>
      <trkpt lat="48.5059" lon="7.18739">
        <ele>738</ele>
        <time>2021-02-21T10:41:19.221Z</time>
      </trkpt>
      <trkpt lat="48.50589" lon="7.1874">
        <ele>737</ele>
        <time>2021-02-21T10:41:20.220Z</time>
      </trkpt>
      <trkpt lat="48.50589" lon="7.18741">
        <ele>737</ele>
        <time>2021-02-21T10:41:21.220Z</time>
      </trkpt>
      <trkpt lat="48.50588" lon="7.18742">
        <ele>736</ele>
        <time>2021-02-21T10:41:22.221Z</time>
      </trkpt>
      <trkpt lat="48.50587" lon="7.18743">
        <ele>736</ele>
        <time>2021-02-21T10:41:23.220Z</time>
      </trkpt>
      <trkpt lat="48.50586" lon="7.18744">
        <ele>735</ele>
        <time>2021-02-21T10:41:24.220Z</time>
      </trkpt>
      <trkpt lat="48.50585" lon="7.18745">
        <ele>734</ele>
        <time>2021-02-21T10:41:25.221Z</time>
      </trkpt>
      <trkpt lat="48.50585" lon="7.18745">
        <ele>734</ele>
        <time>2021-02-21T10:41:26.221Z</time>
      </trkpt>
      <trkpt lat="48.50585" lon="7.18747">
        <ele>734</ele>
        <time>2021-02-21T10:41:27.221Z</time>
      </trkpt>
      <trkpt lat="48.50584" lon="7.18749">
        <ele>733</ele>
        <time>2021-02-21T10:41:28.221Z</time>
      </trkpt>
      <trkpt lat="48.50583" lon="7.1875">
        <ele>733</ele>
        <time>2021-02-21T10:41:29.221Z</time>
      </trkpt>
      <trkpt lat="48.50582" lon="7.18751">
        <ele>733</ele>
        <time>2021-02-21T10:41:30.221Z</time>
      </trkpt>
      <trkpt lat="48.5058" lon="7.18753">
        <ele>733</ele>
        <time>2021-02-21T10:41:31.221Z</time>
      </trkpt>
      <trkpt lat="48.50578" lon="7.18754">
        <ele>733</ele>
        <time>2021-02-21T10:41:32.221Z</time>
      </trkpt>
      <trkpt lat="48.50576" lon="7.18755">
        <ele>733</ele>
        <time>2021-02-21T10:41:33.221Z</time>
      </trkpt>
      <trkpt lat="48.50575" lon="7.18756">
        <ele>733</ele>
        <time>2021-02-21T10:41:34.221Z</time>
      </trkpt>
      <trkpt lat="48.50574" lon="7.18757">
        <ele>733</ele>
        <time>2021-02-21T10:41:35.221Z</time>
      </trkpt>
      <trkpt lat="48.50573" lon="7.18759">
        <ele>733</ele>
        <time>2021-02-21T10:41:36.221Z</time>
      </trkpt>
      <trkpt lat="48.50572" lon="7.18761">
        <ele>734</ele>
        <time>2021-02-21T10:41:37.221Z</time>
      </trkpt>
      <trkpt lat="48.5057" lon="7.18762">
        <ele>734</ele>
        <time>2021-02-21T10:41:38.221Z</time>
      </trkpt>
      <trkpt lat="48.50569" lon="7.18763">
        <ele>735</ele>
        <time>2021-02-21T10:41:39.220Z</time>
      </trkpt>
      <trkpt lat="48.50568" lon="7.18765">
        <ele>735</ele>
        <time>2021-02-21T10:41:40.221Z</time>
      </trkpt>
      <trkpt lat="48.50566" lon="7.18768">
        <ele>736</ele>
        <time>2021-02-21T10:41:41.221Z</time>
      </trkpt>
      <trkpt lat="48.50565" lon="7.18769">
        <ele>737</ele>
        <time>2021-02-21T10:41:42.220Z</time>
      </trkpt>
      <trkpt lat="48.50563" lon="7.18769">
        <ele>738</ele>
        <time>2021-02-21T10:41:43.221Z</time>
      </trkpt>
      <trkpt lat="48.50562" lon="7.18769">
        <ele>738</ele>
        <time>2021-02-21T10:41:44.220Z</time>
      </trkpt>
      <trkpt lat="48.5056" lon="7.1877">
        <ele>739</ele>
        <time>2021-02-21T10:41:45.221Z</time>
      </trkpt>
      <trkpt lat="48.50559" lon="7.18772">
        <ele>739</ele>
        <time>2021-02-21T10:41:46.221Z</time>
      </trkpt>
      <trkpt lat="48.50559" lon="7.18773">
        <ele>739</ele>
        <time>2021-02-21T10:41:47.221Z</time>
      </trkpt>
      <trkpt lat="48.50557" lon="7.18774">
        <ele>739</ele>
        <time>2021-02-21T10:41:48.221Z</time>
      </trkpt>
      <trkpt lat="48.50556" lon="7.18776">
        <ele>739</ele>
        <time>2021-02-21T10:41:49.220Z</time>
      </trkpt>
      <trkpt lat="48.50555" lon="7.18777">
        <ele>739</ele>
        <time>2021-02-21T10:41:50.221Z</time>
      </trkpt>
      <trkpt lat="48.50555" lon="7.18777">
        <ele>738</ele>
        <time>2021-02-21T10:41:51.220Z</time>
      </trkpt>
      <trkpt lat="48.50553" lon="7.18778">
        <ele>738</ele>
        <time>2021-02-21T10:41:52.221Z</time>
      </trkpt>
      <trkpt lat="48.50552" lon="7.18779">
        <ele>737</ele>
        <time>2021-02-21T10:41:53.221Z</time>
      </trkpt>
      <trkpt lat="48.50551" lon="7.1878">
        <ele>736</ele>
        <time>2021-02-21T10:41:54.220Z</time>
      </trkpt>
      <trkpt lat="48.50549" lon="7.18781">
        <ele>736</ele>
        <time>2021-02-21T10:41:55.220Z</time>
      </trkpt>
      <trkpt lat="48.50548" lon="7.18782">
        <ele>736</ele>
        <time>2021-02-21T10:41:56.221Z</time>
      </trkpt>
      <trkpt lat="48.50547" lon="7.18783">
        <ele>736</ele>
        <time>2021-02-21T10:41:57.221Z</time>
      </trkpt>
      <trkpt lat="48.50546" lon="7.18784">
        <ele>736</ele>
        <time>2021-02-21T10:41:58.221Z</time>
      </trkpt>
      <trkpt lat="48.50545" lon="7.18785">
        <ele>736</ele>
        <time>2021-02-21T10:41:59.220Z</time>
      </trkpt>
      <trkpt lat="48.50543" lon="7.18786">
        <ele>736</ele>
        <time>2021-02-21T10:42:00.221Z</time>
      </trkpt>
      <trkpt lat="48.50542" lon="7.18787">
        <ele>736</ele>
        <time>2021-02-21T10:42:01.220Z</time>
      </trkpt>
      <trkpt lat="48.50541" lon="7.18788">
        <ele>736</ele>
        <time>2021-02-21T10:42:02.220Z</time>
      </trkpt>
      <trkpt lat="48.5054" lon="7.18789">
        <ele>736</ele>
        <time>2021-02-21T10:42:03.221Z</time>
      </trkpt>
      <trkpt lat="48.50539" lon="7.1879">
        <ele>735</ele>
        <time>2021-02-21T10:42:04.220Z</time>
      </trkpt>
      <trkpt lat="48.50538" lon="7.18791">
        <ele>735</ele>
        <time>2021-02-21T10:42:05.220Z</time>
      </trkpt>
      <trkpt lat="48.50537" lon="7.18793">
        <ele>734</ele>
        <time>2021-02-21T10:42:06.221Z</time>
      </trkpt>
      <trkpt lat="48.50536" lon="7.18794">
        <ele>734</ele>
        <time>2021-02-21T10:42:07.221Z</time>
      </trkpt>
      <trkpt lat="48.50535" lon="7.18794">
        <ele>734</ele>
        <time>2021-02-21T10:42:08.220Z</time>
      </trkpt>
      <trkpt lat="48.50535" lon="7.18795">
        <ele>734</ele>
        <time>2021-02-21T10:42:09.221Z</time>
      </trkpt>
      <trkpt lat="48.50534" lon="7.18797">
        <ele>734</ele>
        <time>2021-02-21T10:42:10.221Z</time>
      </trkpt>
      <trkpt lat="48.50532" lon="7.18798">
        <ele>734</ele>
        <time>2021-02-21T10:42:11.221Z</time>
      </trkpt>
      <trkpt lat="48.50532" lon="7.18798">
        <ele>735</ele>
        <time>2021-02-21T10:42:12.221Z</time>
      </trkpt>
      <trkpt lat="48.50531" lon="7.18799">
        <ele>735</ele>
        <time>2021-02-21T10:42:13.221Z</time>
      </trkpt>
      <trkpt lat="48.5053" lon="7.18801">
        <ele>735</ele>
        <time>2021-02-21T10:42:14.221Z</time>
      </trkpt>
      <trkpt lat="48.50529" lon="7.18802">
        <ele>735</ele>
        <time>2021-02-21T10:42:15.221Z</time>
      </trkpt>
      <trkpt lat="48.50528" lon="7.18803">
        <ele>735</ele>
        <time>2021-02-21T10:42:16.221Z</time>
      </trkpt>
      <trkpt lat="48.50526" lon="7.18804">
        <ele>734</ele>
        <time>2021-02-21T10:42:17.221Z</time>
      </trkpt>
      <trkpt lat="48.50525" lon="7.18805">
        <ele>734</ele>
        <time>2021-02-21T10:42:18.220Z</time>
      </trkpt>
      <trkpt lat="48.50524" lon="7.18806">
        <ele>733</ele>
        <time>2021-02-21T10:42:19.220Z</time>
      </trkpt>
      <trkpt lat="48.50523" lon="7.18807">
        <ele>733</ele>
        <time>2021-02-21T10:42:20.220Z</time>
      </trkpt>
      <trkpt lat="48.50522" lon="7.18808">
        <ele>732</ele>
        <time>2021-02-21T10:42:21.221Z</time>
      </trkpt>
      <trkpt lat="48.50521" lon="7.18809">
        <ele>732</ele>
        <time>2021-02-21T10:42:22.221Z</time>
      </trkpt>
      <trkpt lat="48.5052" lon="7.1881">
        <ele>731</ele>
        <time>2021-02-21T10:42:23.221Z</time>
      </trkpt>
      <trkpt lat="48.50519" lon="7.18811">
        <ele>730</ele>
        <time>2021-02-21T10:42:24.221Z</time>
      </trkpt>
      <trkpt lat="48.50518" lon="7.18813">
        <ele>729</ele>
        <time>2021-02-21T10:42:25.221Z</time>
      </trkpt>
      <trkpt lat="48.50517" lon="7.18815">
        <ele>728</ele>
        <time>2021-02-21T10:42:26.221Z</time>
      </trkpt>
      <trkpt lat="48.50516" lon="7.18816">
        <ele>728</ele>
        <time>2021-02-21T10:42:27.221Z</time>
      </trkpt>
      <trkpt lat="48.50515" lon="7.18817">
        <ele>728</ele>
        <time>2021-02-21T10:42:28.220Z</time>
      </trkpt>
      <trkpt lat="48.50514" lon="7.18818">
        <ele>728</ele>
        <time>2021-02-21T10:42:29.221Z</time>
      </trkpt>
      <trkpt lat="48.50513" lon="7.1882">
        <ele>727</ele>
        <time>2021-02-21T10:42:30.220Z</time>
      </trkpt>
      <trkpt lat="48.50512" lon="7.18821">
        <ele>727</ele>
        <time>2021-02-21T10:42:31.221Z</time>
      </trkpt>
      <trkpt lat="48.50511" lon="7.18822">
        <ele>727</ele>
        <time>2021-02-21T10:42:32.221Z</time>
      </trkpt>
      <trkpt lat="48.5051" lon="7.18824">
        <ele>727</ele>
        <time>2021-02-21T10:42:33.221Z</time>
      </trkpt>
      <trkpt lat="48.50509" lon="7.18826">
        <ele>726</ele>
        <time>2021-02-21T10:42:34.220Z</time>
      </trkpt>
      <trkpt lat="48.50508" lon="7.18826">
        <ele>727</ele>
        <time>2021-02-21T10:42:35.220Z</time>
      </trkpt>
      <trkpt lat="48.50507" lon="7.18828">
        <ele>727</ele>
        <time>2021-02-21T10:42:36.221Z</time>
      </trkpt>
      <trkpt lat="48.50506" lon="7.18829">
        <ele>727</ele>
        <time>2021-02-21T10:42:37.221Z</time>
      </trkpt>
      <trkpt lat="48.50505" lon="7.1883">
        <ele>728</ele>
        <time>2021-02-21T10:42:38.221Z</time>
      </trkpt>
      <trkpt lat="48.50503" lon="7.18831">
        <ele>728</ele>
        <time>2021-02-21T10:42:39.221Z</time>
      </trkpt>
      <trkpt lat="48.50502" lon="7.18833">
        <ele>728</ele>
        <time>2021-02-21T10:42:40.220Z</time>
      </trkpt>
      <trkpt lat="48.50501" lon="7.18835">
        <ele>728</ele>
        <time>2021-02-21T10:42:41.221Z</time>
      </trkpt>
      <trkpt lat="48.505" lon="7.18836">
        <ele>728</ele>
        <time>2021-02-21T10:42:42.221Z</time>
      </trkpt>
      <trkpt lat="48.50499" lon="7.18837">
        <ele>728</ele>
        <time>2021-02-21T10:42:43.220Z</time>
      </trkpt>
      <trkpt lat="48.50498" lon="7.18838">
        <ele>727</ele>
        <time>2021-02-21T10:42:44.220Z</time>
      </trkpt>
      <trkpt lat="48.50497" lon="7.1884">
        <ele>727</ele>
        <time>2021-02-21T10:42:45.221Z</time>
      </trkpt>
      <trkpt lat="48.50496" lon="7.18842">
        <ele>727</ele>
        <time>2021-02-21T10:42:46.221Z</time>
      </trkpt>
      <trkpt lat="48.50495" lon="7.18843">
        <ele>727</ele>
        <time>2021-02-21T10:42:47.221Z</time>
      </trkpt>
      <trkpt lat="48.50494" lon="7.18844">
        <ele>727</ele>
        <time>2021-02-21T10:42:48.221Z</time>
      </trkpt>
      <trkpt lat="48.50494" lon="7.18845">
        <ele>727</ele>
        <time>2021-02-21T10:42:49.221Z</time>
      </trkpt>
      <trkpt lat="48.50493" lon="7.18846">
        <ele>726</ele>
        <time>2021-02-21T10:42:50.221Z</time>
      </trkpt>
      <trkpt lat="48.50492" lon="7.18847">
        <ele>726</ele>
        <time>2021-02-21T10:42:51.221Z</time>
      </trkpt>
      <trkpt lat="48.50491" lon="7.18848">
        <ele>725</ele>
        <time>2021-02-21T10:42:52.220Z</time>
      </trkpt>
      <trkpt lat="48.5049" lon="7.18849">
        <ele>724</ele>
        <time>2021-02-21T10:42:53.221Z</time>
      </trkpt>
      <trkpt lat="48.50489" lon="7.1885">
        <ele>724</ele>
        <time>2021-02-21T10:42:54.221Z</time>
      </trkpt>
      <trkpt lat="48.50488" lon="7.18851">
        <ele>724</ele>
        <time>2021-02-21T10:42:55.221Z</time>
      </trkpt>
      <trkpt lat="48.50487" lon="7.18853">
        <ele>724</ele>
        <time>2021-02-21T10:42:56.221Z</time>
      </trkpt>
      <trkpt lat="48.50486" lon="7.18854">
        <ele>724</ele>
        <time>2021-02-21T10:42:57.221Z</time>
      </trkpt>
      <trkpt lat="48.50485" lon="7.18856">
        <ele>724</ele>
        <time>2021-02-21T10:42:58.220Z</time>
      </trkpt>
      <trkpt lat="48.50484" lon="7.18857">
        <ele>724</ele>
        <time>2021-02-21T10:42:59.221Z</time>
      </trkpt>
      <trkpt lat="48.50483" lon="7.18859">
        <ele>724</ele>
        <time>2021-02-21T10:43:00.221Z</time>
      </trkpt>
      <trkpt lat="48.50482" lon="7.1886">
        <ele>724</ele>
        <time>2021-02-21T10:43:01.221Z</time>
      </trkpt>
      <trkpt lat="48.50481" lon="7.18861">
        <ele>724</ele>
        <time>2021-02-21T10:43:02.221Z</time>
      </trkpt>
      <trkpt lat="48.50479" lon="7.18862">
        <ele>723</ele>
        <time>2021-02-21T10:43:03.221Z</time>
      </trkpt>
      <trkpt lat="48.50478" lon="7.18864">
        <ele>723</ele>
        <time>2021-02-21T10:43:04.220Z</time>
      </trkpt>
      <trkpt lat="48.50477" lon="7.18865">
        <ele>722</ele>
        <time>2021-02-21T10:43:05.221Z</time>
      </trkpt>
      <trkpt lat="48.50475" lon="7.18867">
        <ele>721</ele>
        <time>2021-02-21T10:43:06.221Z</time>
      </trkpt>
      <trkpt lat="48.50474" lon="7.18868">
        <ele>721</ele>
        <time>2021-02-21T10:43:07.220Z</time>
      </trkpt>
      <trkpt lat="48.50472" lon="7.1887">
        <ele>720</ele>
        <time>2021-02-21T10:43:08.221Z</time>
      </trkpt>
      <trkpt lat="48.50472" lon="7.18871">
        <ele>719</ele>
        <time>2021-02-21T10:43:09.220Z</time>
      </trkpt>
      <trkpt lat="48.5047" lon="7.18872">
        <ele>719</ele>
        <time>2021-02-21T10:43:10.221Z</time>
      </trkpt>
      <trkpt lat="48.50469" lon="7.18873">
        <ele>719</ele>
        <time>2021-02-21T10:43:11.220Z</time>
      </trkpt>
      <trkpt lat="48.50468" lon="7.18875">
        <ele>719</ele>
        <time>2021-02-21T10:43:12.221Z</time>
      </trkpt>
      <trkpt lat="48.50467" lon="7.18877">
        <ele>720</ele>
        <time>2021-02-21T10:43:13.221Z</time>
      </trkpt>
      <trkpt lat="48.50466" lon="7.18878">
        <ele>720</ele>
        <time>2021-02-21T10:43:14.221Z</time>
      </trkpt>
      <trkpt lat="48.50466" lon="7.18879">
        <ele>720</ele>
        <time>2021-02-21T10:43:15.221Z</time>
      </trkpt>
      <trkpt lat="48.50465" lon="7.1888">
        <ele>720</ele>
        <time>2021-02-21T10:43:16.221Z</time>
      </trkpt>
      <trkpt lat="48.50464" lon="7.18881">
        <ele>721</ele>
        <time>2021-02-21T10:43:17.220Z</time>
      </trkpt>
      <trkpt lat="48.50463" lon="7.18883">
        <ele>722</ele>
        <time>2021-02-21T10:43:18.221Z</time>
      </trkpt>
      <trkpt lat="48.50462" lon="7.18885">
        <ele>722</ele>
        <time>2021-02-21T10:43:19.221Z</time>
      </trkpt>
      <trkpt lat="48.50461" lon="7.18886">
        <ele>723</ele>
        <time>2021-02-21T10:43:20.221Z</time>
      </trkpt>
      <trkpt lat="48.5046" lon="7.18888">
        <ele>723</ele>
        <time>2021-02-21T10:43:21.221Z</time>
      </trkpt>
      <trkpt lat="48.50458" lon="7.1889">
        <ele>723</ele>
        <time>2021-02-21T10:43:22.221Z</time>
      </trkpt>
      <trkpt lat="48.50457" lon="7.18891">
        <ele>723</ele>
        <time>2021-02-21T10:43:23.221Z</time>
      </trkpt>
      <trkpt lat="48.50456" lon="7.18893">
        <ele>723</ele>
        <time>2021-02-21T10:43:24.221Z</time>
      </trkpt>
      <trkpt lat="48.50455" lon="7.18895">
        <ele>722</ele>
        <time>2021-02-21T10:43:25.220Z</time>
      </trkpt>
      <trkpt lat="48.50454" lon="7.18897">
        <ele>722</ele>
        <time>2021-02-21T10:43:26.221Z</time>
      </trkpt>
      <trkpt lat="48.50453" lon="7.18898">
        <ele>721</ele>
        <time>2021-02-21T10:43:27.220Z</time>
      </trkpt>
      <trkpt lat="48.50453" lon="7.189">
        <ele>721</ele>
        <time>2021-02-21T10:43:28.221Z</time>
      </trkpt>
      <trkpt lat="48.50452" lon="7.18901">
        <ele>721</ele>
        <time>2021-02-21T10:43:29.220Z</time>
      </trkpt>
      <trkpt lat="48.50451" lon="7.18903">
        <ele>721</ele>
        <time>2021-02-21T10:43:30.220Z</time>
      </trkpt>
      <trkpt lat="48.5045" lon="7.18905">
        <ele>721</ele>
        <time>2021-02-21T10:43:31.221Z</time>
      </trkpt>
      <trkpt lat="48.50449" lon="7.18907">
        <ele>721</ele>
        <time>2021-02-21T10:43:32.221Z</time>
      </trkpt>
      <trkpt lat="48.50449" lon="7.18908">
        <ele>720</ele>
        <time>2021-02-21T10:43:33.220Z</time>
      </trkpt>
      <trkpt lat="48.50448" lon="7.1891">
        <ele>720</ele>
        <time>2021-02-21T10:43:34.221Z</time>
      </trkpt>
      <trkpt lat="48.50447" lon="7.18911">
        <ele>720</ele>
        <time>2021-02-21T10:43:35.220Z</time>
      </trkpt>
      <trkpt lat="48.50446" lon="7.18913">
        <ele>720</ele>
        <time>2021-02-21T10:43:36.220Z</time>
      </trkpt>
      <trkpt lat="48.50446" lon="7.18914">
        <ele>719</ele>
        <time>2021-02-21T10:43:37.221Z</time>
      </trkpt>
      <trkpt lat="48.50445" lon="7.18915">
        <ele>720</ele>
        <time>2021-02-21T10:43:38.221Z</time>
      </trkpt>
      <trkpt lat="48.50445" lon="7.18917">
        <ele>720</ele>
        <time>2021-02-21T10:43:39.221Z</time>
      </trkpt>
      <trkpt lat="48.50444" lon="7.18918">
        <ele>720</ele>
        <time>2021-02-21T10:43:40.221Z</time>
      </trkpt>
      <trkpt lat="48.50443" lon="7.1892">
        <ele>721</ele>
        <time>2021-02-21T10:43:41.221Z</time>
      </trkpt>
      <trkpt lat="48.50443" lon="7.18922">
        <ele>721</ele>
        <time>2021-02-21T10:43:42.220Z</time>
      </trkpt>
      <trkpt lat="48.50442" lon="7.18923">
        <ele>721</ele>
        <time>2021-02-21T10:43:43.221Z</time>
      </trkpt>
      <trkpt lat="48.50441" lon="7.18925">
        <ele>720</ele>
        <time>2021-02-21T10:43:44.221Z</time>
      </trkpt>
      <trkpt lat="48.50441" lon="7.18927">
        <ele>720</ele>
        <time>2021-02-21T10:43:45.221Z</time>
      </trkpt>
      <trkpt lat="48.5044" lon="7.18928">
        <ele>719</ele>
        <time>2021-02-21T10:43:46.221Z</time>
      </trkpt>
      <trkpt lat="48.50439" lon="7.1893">
        <ele>718</ele>
        <time>2021-02-21T10:43:47.221Z</time>
      </trkpt>
      <trkpt lat="48.50438" lon="7.18932">
        <ele>717</ele>
        <time>2021-02-21T10:43:48.221Z</time>
      </trkpt>
      <trkpt lat="48.50438" lon="7.18933">
        <ele>717</ele>
        <time>2021-02-21T10:43:49.221Z</time>
      </trkpt>
      <trkpt lat="48.50437" lon="7.18935">
        <ele>716</ele>
        <time>2021-02-21T10:43:50.221Z</time>
      </trkpt>
      <trkpt lat="48.50436" lon="7.18936">
        <ele>716</ele>
        <time>2021-02-21T10:43:51.221Z</time>
      </trkpt>
      <trkpt lat="48.50435" lon="7.18938">
        <ele>716</ele>
        <time>2021-02-21T10:43:52.221Z</time>
      </trkpt>
      <trkpt lat="48.50434" lon="7.18939">
        <ele>716</ele>
        <time>2021-02-21T10:43:53.221Z</time>
      </trkpt>
      <trkpt lat="48.50433" lon="7.18941">
        <ele>716</ele>
        <time>2021-02-21T10:43:54.220Z</time>
      </trkpt>
      <trkpt lat="48.50432" lon="7.18943">
        <ele>716</ele>
        <time>2021-02-21T10:43:55.220Z</time>
      </trkpt>
      <trkpt lat="48.50431" lon="7.18945">
        <ele>716</ele>
        <time>2021-02-21T10:43:56.221Z</time>
      </trkpt>
      <trkpt lat="48.50431" lon="7.18947">
        <ele>716</ele>
        <time>2021-02-21T10:43:57.221Z</time>
      </trkpt>
      <trkpt lat="48.5043" lon="7.18948">
        <ele>716</ele>
        <time>2021-02-21T10:43:58.221Z</time>
      </trkpt>
      <trkpt lat="48.50429" lon="7.1895">
        <ele>717</ele>
        <time>2021-02-21T10:43:59.220Z</time>
      </trkpt>
      <trkpt lat="48.50428" lon="7.18952">
        <ele>717</ele>
        <time>2021-02-21T10:44:00.221Z</time>
      </trkpt>
      <trkpt lat="48.50427" lon="7.18955">
        <ele>717</ele>
        <time>2021-02-21T10:44:01.221Z</time>
      </trkpt>
      <trkpt lat="48.50425" lon="7.18957">
        <ele>717</ele>
        <time>2021-02-21T10:44:02.221Z</time>
      </trkpt>
      <trkpt lat="48.50423" lon="7.1896">
        <ele>717</ele>
        <time>2021-02-21T10:44:03.221Z</time>
      </trkpt>
      <trkpt lat="48.50423" lon="7.18962">
        <ele>717</ele>
        <time>2021-02-21T10:44:04.220Z</time>
      </trkpt>
      <trkpt lat="48.50422" lon="7.18964">
        <ele>717</ele>
        <time>2021-02-21T10:44:05.220Z</time>
      </trkpt>
      <trkpt lat="48.50421" lon="7.18967">
        <ele>717</ele>
        <time>2021-02-21T10:44:06.221Z</time>
      </trkpt>
      <trkpt lat="48.5042" lon="7.18969">
        <ele>717</ele>
        <time>2021-02-21T10:44:07.221Z</time>
      </trkpt>
      <trkpt lat="48.50419" lon="7.18971">
        <ele>717</ele>
        <time>2021-02-21T10:44:08.221Z</time>
      </trkpt>
      <trkpt lat="48.50418" lon="7.18972">
        <ele>717</ele>
        <time>2021-02-21T10:44:09.220Z</time>
      </trkpt>
      <trkpt lat="48.50417" lon="7.18974">
        <ele>716</ele>
        <time>2021-02-21T10:44:10.221Z</time>
      </trkpt>
      <trkpt lat="48.50416" lon="7.18976">
        <ele>716</ele>
        <time>2021-02-21T10:44:11.220Z</time>
      </trkpt>
      <trkpt lat="48.50415" lon="7.18978">
        <ele>716</ele>
        <time>2021-02-21T10:44:12.221Z</time>
      </trkpt>
      <trkpt lat="48.50415" lon="7.1898">
        <ele>715</ele>
        <time>2021-02-21T10:44:13.220Z</time>
      </trkpt>
      <trkpt lat="48.50414" lon="7.18982">
        <ele>715</ele>
        <time>2021-02-21T10:44:14.221Z</time>
      </trkpt>
      <trkpt lat="48.50413" lon="7.18984">
        <ele>714</ele>
        <time>2021-02-21T10:44:15.221Z</time>
      </trkpt>
      <trkpt lat="48.50411" lon="7.18986">
        <ele>713</ele>
        <time>2021-02-21T10:44:16.221Z</time>
      </trkpt>
      <trkpt lat="48.5041" lon="7.18988">
        <ele>713</ele>
        <time>2021-02-21T10:44:17.221Z</time>
      </trkpt>
      <trkpt lat="48.5041" lon="7.18989">
        <ele>712</ele>
        <time>2021-02-21T10:44:18.221Z</time>
      </trkpt>
      <trkpt lat="48.50409" lon="7.18991">
        <ele>712</ele>
        <time>2021-02-21T10:44:19.221Z</time>
      </trkpt>
      <trkpt lat="48.50408" lon="7.18993">
        <ele>711</ele>
        <time>2021-02-21T10:44:20.221Z</time>
      </trkpt>
      <trkpt lat="48.50407" lon="7.18994">
        <ele>711</ele>
        <time>2021-02-21T10:44:21.221Z</time>
      </trkpt>
      <trkpt lat="48.50406" lon="7.18996">
        <ele>710</ele>
        <time>2021-02-21T10:44:22.221Z</time>
      </trkpt>
      <trkpt lat="48.50405" lon="7.18998">
        <ele>710</ele>
        <time>2021-02-21T10:44:23.221Z</time>
      </trkpt>
      <trkpt lat="48.50405" lon="7.18999">
        <ele>709</ele>
        <time>2021-02-21T10:44:24.221Z</time>
      </trkpt>
      <trkpt lat="48.50403" lon="7.19002">
        <ele>709</ele>
        <time>2021-02-21T10:44:25.221Z</time>
      </trkpt>
      <trkpt lat="48.50403" lon="7.19003">
        <ele>709</ele>
        <time>2021-02-21T10:44:26.220Z</time>
      </trkpt>
      <trkpt lat="48.50402" lon="7.19005">
        <ele>708</ele>
        <time>2021-02-21T10:44:27.221Z</time>
      </trkpt>
      <trkpt lat="48.50401" lon="7.19007">
        <ele>708</ele>
        <time>2021-02-21T10:44:28.221Z</time>
      </trkpt>
      <trkpt lat="48.504" lon="7.19008">
        <ele>708</ele>
        <time>2021-02-21T10:44:29.221Z</time>
      </trkpt>
      <trkpt lat="48.504" lon="7.1901">
        <ele>708</ele>
        <time>2021-02-21T10:44:30.221Z</time>
      </trkpt>
      <trkpt lat="48.50399" lon="7.19012">
        <ele>708</ele>
        <time>2021-02-21T10:44:31.221Z</time>
      </trkpt>
      <trkpt lat="48.50398" lon="7.19014">
        <ele>708</ele>
        <time>2021-02-21T10:44:32.221Z</time>
      </trkpt>
      <trkpt lat="48.50397" lon="7.19016">
        <ele>708</ele>
        <time>2021-02-21T10:44:33.220Z</time>
      </trkpt>
      <trkpt lat="48.50397" lon="7.19017">
        <ele>708</ele>
        <time>2021-02-21T10:44:34.221Z</time>
      </trkpt>
      <trkpt lat="48.50397" lon="7.19019">
        <ele>708</ele>
        <time>2021-02-21T10:44:37.217Z</time>
      </trkpt>
      <trkpt lat="48.50396" lon="7.19021">
        <ele>708</ele>
        <time>2021-02-21T10:44:38.216Z</time>
      </trkpt>
      <trkpt lat="48.50395" lon="7.19022">
        <ele>708</ele>
        <time>2021-02-21T10:44:39.216Z</time>
      </trkpt>
      <trkpt lat="48.50395" lon="7.19024">
        <ele>708</ele>
        <time>2021-02-21T10:44:40.217Z</time>
      </trkpt>
      <trkpt lat="48.50394" lon="7.19026">
        <ele>707</ele>
        <time>2021-02-21T10:44:41.217Z</time>
      </trkpt>
      <trkpt lat="48.50394" lon="7.19027">
        <ele>707</ele>
        <time>2021-02-21T10:44:42.217Z</time>
      </trkpt>
      <trkpt lat="48.50393" lon="7.19029">
        <ele>707</ele>
        <time>2021-02-21T10:44:43.217Z</time>
      </trkpt>
      <trkpt lat="48.50393" lon="7.19031">
        <ele>707</ele>
        <time>2021-02-21T10:44:44.217Z</time>
      </trkpt>
      <trkpt lat="48.50392" lon="7.19033">
        <ele>707</ele>
        <time>2021-02-21T10:44:45.217Z</time>
      </trkpt>
      <trkpt lat="48.50392" lon="7.19034">
        <ele>707</ele>
        <time>2021-02-21T10:44:46.216Z</time>
      </trkpt>
      <trkpt lat="48.50391" lon="7.19036">
        <ele>706</ele>
        <time>2021-02-21T10:44:47.216Z</time>
      </trkpt>
      <trkpt lat="48.5039" lon="7.19038">
        <ele>706</ele>
        <time>2021-02-21T10:44:48.217Z</time>
      </trkpt>
      <trkpt lat="48.5039" lon="7.1904">
        <ele>705</ele>
        <time>2021-02-21T10:44:49.217Z</time>
      </trkpt>
      <trkpt lat="48.50389" lon="7.19042">
        <ele>705</ele>
        <time>2021-02-21T10:44:50.217Z</time>
      </trkpt>
      <trkpt lat="48.50389" lon="7.19043">
        <ele>704</ele>
        <time>2021-02-21T10:44:51.217Z</time>
      </trkpt>
      <trkpt lat="48.50388" lon="7.19044">
        <ele>704</ele>
        <time>2021-02-21T10:44:52.217Z</time>
      </trkpt>
      <trkpt lat="48.50387" lon="7.19046">
        <ele>703</ele>
        <time>2021-02-21T10:44:53.217Z</time>
      </trkpt>
      <trkpt lat="48.50387" lon="7.19048">
        <ele>703</ele>
        <time>2021-02-21T10:44:54.217Z</time>
      </trkpt>
      <trkpt lat="48.50386" lon="7.1905">
        <ele>703</ele>
        <time>2021-02-21T10:44:55.217Z</time>
      </trkpt>
      <trkpt lat="48.50386" lon="7.19052">
        <ele>703</ele>
        <time>2021-02-21T10:44:56.217Z</time>
      </trkpt>
      <trkpt lat="48.50385" lon="7.19053">
        <ele>703</ele>
        <time>2021-02-21T10:44:57.217Z</time>
      </trkpt>
      <trkpt lat="48.50384" lon="7.19054">
        <ele>702</ele>
        <time>2021-02-21T10:44:58.217Z</time>
      </trkpt>
      <trkpt lat="48.50383" lon="7.19057">
        <ele>702</ele>
        <time>2021-02-21T10:44:59.217Z</time>
      </trkpt>
      <trkpt lat="48.50383" lon="7.19058">
        <ele>702</ele>
        <time>2021-02-21T10:45:05.356Z</time>
      </trkpt>
      <trkpt lat="48.50382" lon="7.1906">
        <ele>701</ele>
        <time>2021-02-21T10:45:06.355Z</time>
      </trkpt>
      <trkpt lat="48.50382" lon="7.19062">
        <ele>701</ele>
        <time>2021-02-21T10:45:49.232Z</time>
      </trkpt>
      <trkpt lat="48.50381" lon="7.19064">
        <ele>701</ele>
        <time>2021-02-21T10:45:50.232Z</time>
      </trkpt>
      <trkpt lat="48.50381" lon="7.19066">
        <ele>701</ele>
        <time>2021-02-21T10:45:51.232Z</time>
      </trkpt>
      <trkpt lat="48.5038" lon="7.19068">
        <ele>700</ele>
        <time>2021-02-21T10:45:52.231Z</time>
      </trkpt>
      <trkpt lat="48.50379" lon="7.1907">
        <ele>700</ele>
        <time>2021-02-21T10:45:53.232Z</time>
      </trkpt>
      <trkpt lat="48.50379" lon="7.19072">
        <ele>700</ele>
        <time>2021-02-21T10:45:54.231Z</time>
      </trkpt>
      <trkpt lat="48.50378" lon="7.19074">
        <ele>700</ele>
        <time>2021-02-21T10:45:55.231Z</time>
      </trkpt>
      <trkpt lat="48.50378" lon="7.19076">
        <ele>701</ele>
        <time>2021-02-21T10:45:56.231Z</time>
      </trkpt>
      <trkpt lat="48.50377" lon="7.19078">
        <ele>701</ele>
        <time>2021-02-21T10:45:57.231Z</time>
      </trkpt>
      <trkpt lat="48.50377" lon="7.1908">
        <ele>701</ele>
        <time>2021-02-21T10:45:58.232Z</time>
      </trkpt>
      <trkpt lat="48.50376" lon="7.19082">
        <ele>701</ele>
        <time>2021-02-21T10:45:59.232Z</time>
      </trkpt>
      <trkpt lat="48.50375" lon="7.19084">
        <ele>702</ele>
        <time>2021-02-21T10:46:00.232Z</time>
      </trkpt>
      <trkpt lat="48.50375" lon="7.19086">
        <ele>703</ele>
        <time>2021-02-21T10:46:01.232Z</time>
      </trkpt>
      <trkpt lat="48.50373" lon="7.19088">
        <ele>704</ele>
        <time>2021-02-21T10:46:02.231Z</time>
      </trkpt>
      <trkpt lat="48.50373" lon="7.1909">
        <ele>705</ele>
        <time>2021-02-21T10:46:03.231Z</time>
      </trkpt>
      <trkpt lat="48.50372" lon="7.19091">
        <ele>705</ele>
        <time>2021-02-21T10:46:04.232Z</time>
      </trkpt>
      <trkpt lat="48.50372" lon="7.19093">
        <ele>705</ele>
        <time>2021-02-21T10:46:05.231Z</time>
      </trkpt>
      <trkpt lat="48.50371" lon="7.19095">
        <ele>706</ele>
        <time>2021-02-21T10:46:06.232Z</time>
      </trkpt>
      <trkpt lat="48.5037" lon="7.19097">
        <ele>706</ele>
        <time>2021-02-21T10:46:07.232Z</time>
      </trkpt>
      <trkpt lat="48.50369" lon="7.19099">
        <ele>706</ele>
        <time>2021-02-21T10:46:08.232Z</time>
      </trkpt>
      <trkpt lat="48.50368" lon="7.19101">
        <ele>705</ele>
        <time>2021-02-21T10:46:09.231Z</time>
      </trkpt>
      <trkpt lat="48.50367" lon="7.19102">
        <ele>705</ele>
        <time>2021-02-21T10:46:10.231Z</time>
      </trkpt>
      <trkpt lat="48.50367" lon="7.19105">
        <ele>705</ele>
        <time>2021-02-21T10:46:11.231Z</time>
      </trkpt>
      <trkpt lat="48.50366" lon="7.19107">
        <ele>705</ele>
        <time>2021-02-21T10:46:12.231Z</time>
      </trkpt>
      <trkpt lat="48.50365" lon="7.19109">
        <ele>705</ele>
        <time>2021-02-21T10:46:13.232Z</time>
      </trkpt>
      <trkpt lat="48.50365" lon="7.19111">
        <ele>705</ele>
        <time>2021-02-21T10:46:14.232Z</time>
      </trkpt>
      <trkpt lat="48.50364" lon="7.19112">
        <ele>705</ele>
        <time>2021-02-21T10:46:15.231Z</time>
      </trkpt>
      <trkpt lat="48.50364" lon="7.19114">
        <ele>704</ele>
        <time>2021-02-21T10:46:16.232Z</time>
      </trkpt>
      <trkpt lat="48.50364" lon="7.19116">
        <ele>704</ele>
        <time>2021-02-21T10:46:17.231Z</time>
      </trkpt>
      <trkpt lat="48.50363" lon="7.19118">
        <ele>703</ele>
        <time>2021-02-21T10:46:18.231Z</time>
      </trkpt>
      <trkpt lat="48.50363" lon="7.19121">
        <ele>703</ele>
        <time>2021-02-21T10:46:19.232Z</time>
      </trkpt>
      <trkpt lat="48.50362" lon="7.19123">
        <ele>702</ele>
        <time>2021-02-21T10:46:20.232Z</time>
      </trkpt>
      <trkpt lat="48.50362" lon="7.19125">
        <ele>702</ele>
        <time>2021-02-21T10:46:21.232Z</time>
      </trkpt>
      <trkpt lat="48.50361" lon="7.19127">
        <ele>702</ele>
        <time>2021-02-21T10:46:22.232Z</time>
      </trkpt>
      <trkpt lat="48.50361" lon="7.1913">
        <ele>702</ele>
        <time>2021-02-21T10:46:23.232Z</time>
      </trkpt>
      <trkpt lat="48.50361" lon="7.19132">
        <ele>703</ele>
        <time>2021-02-21T10:46:24.232Z</time>
      </trkpt>
      <trkpt lat="48.50361" lon="7.19134">
        <ele>703</ele>
        <time>2021-02-21T10:46:25.232Z</time>
      </trkpt>
      <trkpt lat="48.5036" lon="7.19136">
        <ele>703</ele>
        <time>2021-02-21T10:46:26.232Z</time>
      </trkpt>
      <trkpt lat="48.5036" lon="7.19138">
        <ele>703</ele>
        <time>2021-02-21T10:46:27.232Z</time>
      </trkpt>
      <trkpt lat="48.50359" lon="7.1914">
        <ele>704</ele>
        <time>2021-02-21T10:46:28.232Z</time>
      </trkpt>
      <trkpt lat="48.50359" lon="7.19142">
        <ele>704</ele>
        <time>2021-02-21T10:46:29.232Z</time>
      </trkpt>
      <trkpt lat="48.50359" lon="7.19144">
        <ele>704</ele>
        <time>2021-02-21T10:46:30.232Z</time>
      </trkpt>
      <trkpt lat="48.50359" lon="7.19146">
        <ele>704</ele>
        <time>2021-02-21T10:46:31.232Z</time>
      </trkpt>
      <trkpt lat="48.50358" lon="7.19148">
        <ele>703</ele>
        <time>2021-02-21T10:46:32.232Z</time>
      </trkpt>
      <trkpt lat="48.50358" lon="7.1915">
        <ele>703</ele>
        <time>2021-02-21T10:46:33.232Z</time>
      </trkpt>
      <trkpt lat="48.50358" lon="7.19153">
        <ele>703</ele>
        <time>2021-02-21T10:46:34.232Z</time>
      </trkpt>
      <trkpt lat="48.50358" lon="7.19155">
        <ele>703</ele>
        <time>2021-02-21T10:46:39.340Z</time>
      </trkpt>
      <trkpt lat="48.50358" lon="7.19156">
        <ele>703</ele>
        <time>2021-02-21T10:46:40.341Z</time>
      </trkpt>
      <trkpt lat="48.50357" lon="7.19158">
        <ele>703</ele>
        <time>2021-02-21T10:47:55.490Z</time>
      </trkpt>
      <trkpt lat="48.50357" lon="7.1916">
        <ele>703</ele>
        <time>2021-02-21T10:47:56.490Z</time>
      </trkpt>
      <trkpt lat="48.50357" lon="7.19161">
        <ele>703</ele>
        <time>2021-02-21T10:47:57.489Z</time>
      </trkpt>
      <trkpt lat="48.50357" lon="7.19163">
        <ele>703</ele>
        <time>2021-02-21T10:47:58.489Z</time>
      </trkpt>
      <trkpt lat="48.50357" lon="7.19165">
        <ele>704</ele>
        <time>2021-02-21T10:47:59.489Z</time>
      </trkpt>
      <trkpt lat="48.50356" lon="7.19168">
        <ele>704</ele>
        <time>2021-02-21T10:48:00.490Z</time>
      </trkpt>
      <trkpt lat="48.50356" lon="7.1917">
        <ele>703</ele>
        <time>2021-02-21T10:48:01.489Z</time>
      </trkpt>
      <trkpt lat="48.50355" lon="7.19172">
        <ele>703</ele>
        <time>2021-02-21T10:48:02.490Z</time>
      </trkpt>
      <trkpt lat="48.50355" lon="7.19174">
        <ele>703</ele>
        <time>2021-02-21T10:48:03.489Z</time>
      </trkpt>
      <trkpt lat="48.50355" lon="7.19175">
        <ele>703</ele>
        <time>2021-02-21T10:48:04.489Z</time>
      </trkpt>
      <trkpt lat="48.50355" lon="7.19178">
        <ele>702</ele>
        <time>2021-02-21T10:48:05.490Z</time>
      </trkpt>
      <trkpt lat="48.50355" lon="7.1918">
        <ele>702</ele>
        <time>2021-02-21T10:48:06.490Z</time>
      </trkpt>
      <trkpt lat="48.50355" lon="7.19182">
        <ele>702</ele>
        <time>2021-02-21T10:48:07.490Z</time>
      </trkpt>
      <trkpt lat="48.50355" lon="7.19184">
        <ele>702</ele>
        <time>2021-02-21T10:48:08.490Z</time>
      </trkpt>
      <trkpt lat="48.50355" lon="7.19187">
        <ele>701</ele>
        <time>2021-02-21T10:48:09.490Z</time>
      </trkpt>
      <trkpt lat="48.50354" lon="7.1919">
        <ele>701</ele>
        <time>2021-02-21T10:48:10.490Z</time>
      </trkpt>
      <trkpt lat="48.50353" lon="7.19192">
        <ele>701</ele>
        <time>2021-02-21T10:48:11.490Z</time>
      </trkpt>
      <trkpt lat="48.50353" lon="7.19194">
        <ele>701</ele>
        <time>2021-02-21T10:48:12.490Z</time>
      </trkpt>
      <trkpt lat="48.50353" lon="7.19195">
        <ele>700</ele>
        <time>2021-02-21T10:48:13.490Z</time>
      </trkpt>
      <trkpt lat="48.50352" lon="7.19197">
        <ele>700</ele>
        <time>2021-02-21T10:48:14.489Z</time>
      </trkpt>
      <trkpt lat="48.50352" lon="7.19199">
        <ele>700</ele>
        <time>2021-02-21T10:48:15.490Z</time>
      </trkpt>
      <trkpt lat="48.50352" lon="7.19201">
        <ele>699</ele>
        <time>2021-02-21T10:48:16.489Z</time>
      </trkpt>
      <trkpt lat="48.50351" lon="7.19203">
        <ele>699</ele>
        <time>2021-02-21T10:48:17.490Z</time>
      </trkpt>
      <trkpt lat="48.50351" lon="7.19205">
        <ele>699</ele>
        <time>2021-02-21T10:48:18.490Z</time>
      </trkpt>
      <trkpt lat="48.5035" lon="7.19207">
        <ele>699</ele>
        <time>2021-02-21T10:48:19.490Z</time>
      </trkpt>
      <trkpt lat="48.5035" lon="7.19209">
        <ele>699</ele>
        <time>2021-02-21T10:48:20.489Z</time>
      </trkpt>
      <trkpt lat="48.5035" lon="7.19211">
        <ele>699</ele>
        <time>2021-02-21T10:48:21.490Z</time>
      </trkpt>
      <trkpt lat="48.5035" lon="7.19212">
        <ele>699</ele>
        <time>2021-02-21T10:48:22.490Z</time>
      </trkpt>
      <trkpt lat="48.50349" lon="7.19214">
        <ele>699</ele>
        <time>2021-02-21T10:48:23.490Z</time>
      </trkpt>
      <trkpt lat="48.50349" lon="7.19216">
        <ele>699</ele>
        <time>2021-02-21T10:48:24.490Z</time>
      </trkpt>
      <trkpt lat="48.50348" lon="7.19217">
        <ele>698</ele>
        <time>2021-02-21T10:48:25.490Z</time>
      </trkpt>
      <trkpt lat="48.50348" lon="7.1922">
        <ele>698</ele>
        <time>2021-02-21T10:48:26.490Z</time>
      </trkpt>
      <trkpt lat="48.50348" lon="7.19221">
        <ele>698</ele>
        <time>2021-02-21T10:48:27.490Z</time>
      </trkpt>
      <trkpt lat="48.50347" lon="7.19223">
        <ele>698</ele>
        <time>2021-02-21T10:48:28.490Z</time>
      </trkpt>
      <trkpt lat="48.50347" lon="7.19225">
        <ele>698</ele>
        <time>2021-02-21T10:48:29.490Z</time>
      </trkpt>
      <trkpt lat="48.50347" lon="7.19227">
        <ele>698</ele>
        <time>2021-02-21T10:48:30.490Z</time>
      </trkpt>
      <trkpt lat="48.50346" lon="7.19229">
        <ele>698</ele>
        <time>2021-02-21T10:48:31.490Z</time>
      </trkpt>
      <trkpt lat="48.50346" lon="7.19232">
        <ele>698</ele>
        <time>2021-02-21T10:48:32.490Z</time>
      </trkpt>
      <trkpt lat="48.50346" lon="7.19234">
        <ele>697</ele>
        <time>2021-02-21T10:48:33.490Z</time>
      </trkpt>
      <trkpt lat="48.50346" lon="7.19236">
        <ele>697</ele>
        <time>2021-02-21T10:48:38.595Z</time>
      </trkpt>
      <trkpt lat="48.50345" lon="7.19237">
        <ele>697</ele>
        <time>2021-02-21T10:48:44.469Z</time>
      </trkpt>
      <trkpt lat="48.50345" lon="7.19239">
        <ele>697</ele>
        <time>2021-02-21T10:48:45.469Z</time>
      </trkpt>
      <trkpt lat="48.50344" lon="7.19241">
        <ele>696</ele>
        <time>2021-02-21T10:48:46.469Z</time>
      </trkpt>
      <trkpt lat="48.50344" lon="7.19244">
        <ele>696</ele>
        <time>2021-02-21T10:48:47.469Z</time>
      </trkpt>
      <trkpt lat="48.50344" lon="7.19246">
        <ele>696</ele>
        <time>2021-02-21T10:48:48.469Z</time>
      </trkpt>
      <trkpt lat="48.50343" lon="7.19248">
        <ele>696</ele>
        <time>2021-02-21T10:48:49.470Z</time>
      </trkpt>
      <trkpt lat="48.50342" lon="7.1925">
        <ele>696</ele>
        <time>2021-02-21T10:48:50.469Z</time>
      </trkpt>
      <trkpt lat="48.50342" lon="7.19252">
        <ele>695</ele>
        <time>2021-02-21T10:48:51.470Z</time>
      </trkpt>
      <trkpt lat="48.50342" lon="7.19254">
        <ele>695</ele>
        <time>2021-02-21T10:48:52.470Z</time>
      </trkpt>
      <trkpt lat="48.50342" lon="7.19256">
        <ele>696</ele>
        <time>2021-02-21T10:48:53.469Z</time>
      </trkpt>
      <trkpt lat="48.50342" lon="7.19258">
        <ele>696</ele>
        <time>2021-02-21T10:48:54.469Z</time>
      </trkpt>
      <trkpt lat="48.50341" lon="7.1926">
        <ele>696</ele>
        <time>2021-02-21T10:48:55.470Z</time>
      </trkpt>
      <trkpt lat="48.50341" lon="7.19263">
        <ele>696</ele>
        <time>2021-02-21T10:48:56.469Z</time>
      </trkpt>
      <trkpt lat="48.50341" lon="7.19265">
        <ele>697</ele>
        <time>2021-02-21T10:48:57.469Z</time>
      </trkpt>
      <trkpt lat="48.50341" lon="7.19267">
        <ele>697</ele>
        <time>2021-02-21T10:48:58.470Z</time>
      </trkpt>
      <trkpt lat="48.5034" lon="7.19268">
        <ele>697</ele>
        <time>2021-02-21T10:48:59.469Z</time>
      </trkpt>
      <trkpt lat="48.5034" lon="7.19271">
        <ele>697</ele>
        <time>2021-02-21T10:49:00.470Z</time>
      </trkpt>
      <trkpt lat="48.5034" lon="7.19273">
        <ele>698</ele>
        <time>2021-02-21T10:49:01.470Z</time>
      </trkpt>
      <trkpt lat="48.5034" lon="7.19274">
        <ele>698</ele>
        <time>2021-02-21T10:49:02.470Z</time>
      </trkpt>
      <trkpt lat="48.5034" lon="7.19276">
        <ele>698</ele>
        <time>2021-02-21T10:49:03.469Z</time>
      </trkpt>
      <trkpt lat="48.50339" lon="7.19278">
        <ele>698</ele>
        <time>2021-02-21T10:49:04.469Z</time>
      </trkpt>
      <trkpt lat="48.50339" lon="7.1928">
        <ele>697</ele>
        <time>2021-02-21T10:49:05.470Z</time>
      </trkpt>
      <trkpt lat="48.50339" lon="7.19282">
        <ele>697</ele>
        <time>2021-02-21T10:49:06.469Z</time>
      </trkpt>
      <trkpt lat="48.50338" lon="7.19284">
        <ele>697</ele>
        <time>2021-02-21T10:49:07.470Z</time>
      </trkpt>
      <trkpt lat="48.50338" lon="7.19286">
        <ele>696</ele>
        <time>2021-02-21T10:49:08.470Z</time>
      </trkpt>
      <trkpt lat="48.50338" lon="7.19289">
        <ele>696</ele>
        <time>2021-02-21T10:49:09.470Z</time>
      </trkpt>
      <trkpt lat="48.50337" lon="7.19291">
        <ele>695</ele>
        <time>2021-02-21T10:49:10.469Z</time>
      </trkpt>
      <trkpt lat="48.50337" lon="7.19293">
        <ele>695</ele>
        <time>2021-02-21T10:49:11.469Z</time>
      </trkpt>
      <trkpt lat="48.50335" lon="7.19296">
        <ele>694</ele>
        <time>2021-02-21T10:49:12.470Z</time>
      </trkpt>
      <trkpt lat="48.50334" lon="7.19298">
        <ele>694</ele>
        <time>2021-02-21T10:49:13.469Z</time>
      </trkpt>
      <trkpt lat="48.50334" lon="7.19299">
        <ele>693</ele>
        <time>2021-02-21T10:49:14.469Z</time>
      </trkpt>
      <trkpt lat="48.50334" lon="7.19302">
        <ele>693</ele>
        <time>2021-02-21T10:49:15.469Z</time>
      </trkpt>
      <trkpt lat="48.50333" lon="7.19303">
        <ele>692</ele>
        <time>2021-02-21T10:49:16.469Z</time>
      </trkpt>
      <trkpt lat="48.50333" lon="7.19306">
        <ele>692</ele>
        <time>2021-02-21T10:49:17.469Z</time>
      </trkpt>
      <trkpt lat="48.50333" lon="7.19307">
        <ele>691</ele>
        <time>2021-02-21T10:49:18.470Z</time>
      </trkpt>
      <trkpt lat="48.50332" lon="7.1931">
        <ele>691</ele>
        <time>2021-02-21T10:49:19.470Z</time>
      </trkpt>
      <trkpt lat="48.50332" lon="7.19313">
        <ele>691</ele>
        <time>2021-02-21T10:49:20.470Z</time>
      </trkpt>
      <trkpt lat="48.50332" lon="7.19315">
        <ele>690</ele>
        <time>2021-02-21T10:49:21.470Z</time>
      </trkpt>
      <trkpt lat="48.50331" lon="7.19317">
        <ele>690</ele>
        <time>2021-02-21T10:49:22.470Z</time>
      </trkpt>
      <trkpt lat="48.50331" lon="7.19319">
        <ele>690</ele>
        <time>2021-02-21T10:49:23.469Z</time>
      </trkpt>
      <trkpt lat="48.50331" lon="7.19321">
        <ele>690</ele>
        <time>2021-02-21T10:49:24.470Z</time>
      </trkpt>
      <trkpt lat="48.5033" lon="7.19323">
        <ele>690</ele>
        <time>2021-02-21T10:49:25.469Z</time>
      </trkpt>
      <trkpt lat="48.5033" lon="7.19325">
        <ele>690</ele>
        <time>2021-02-21T10:49:26.470Z</time>
      </trkpt>
      <trkpt lat="48.5033" lon="7.19328">
        <ele>689</ele>
        <time>2021-02-21T10:49:27.470Z</time>
      </trkpt>
      <trkpt lat="48.5033" lon="7.1933">
        <ele>689</ele>
        <time>2021-02-21T10:49:28.470Z</time>
      </trkpt>
      <trkpt lat="48.5033" lon="7.19332">
        <ele>689</ele>
        <time>2021-02-21T10:49:29.470Z</time>
      </trkpt>
      <trkpt lat="48.5033" lon="7.19334">
        <ele>689</ele>
        <time>2021-02-21T10:49:30.470Z</time>
      </trkpt>
      <trkpt lat="48.5033" lon="7.19336">
        <ele>689</ele>
        <time>2021-02-21T10:49:31.469Z</time>
      </trkpt>
      <trkpt lat="48.5033" lon="7.19339">
        <ele>690</ele>
        <time>2021-02-21T10:49:32.470Z</time>
      </trkpt>
      <trkpt lat="48.5033" lon="7.19341">
        <ele>690</ele>
        <time>2021-02-21T10:49:33.469Z</time>
      </trkpt>
      <trkpt lat="48.5033" lon="7.19343">
        <ele>690</ele>
        <time>2021-02-21T10:49:34.470Z</time>
      </trkpt>
      <trkpt lat="48.50329" lon="7.19345">
        <ele>689</ele>
        <time>2021-02-21T10:49:35.469Z</time>
      </trkpt>
      <trkpt lat="48.50329" lon="7.19347">
        <ele>690</ele>
        <time>2021-02-21T10:49:36.470Z</time>
      </trkpt>
      <trkpt lat="48.50329" lon="7.19349">
        <ele>690</ele>
        <time>2021-02-21T10:49:37.470Z</time>
      </trkpt>
      <trkpt lat="48.50329" lon="7.19351">
        <ele>690</ele>
        <time>2021-02-21T10:49:38.470Z</time>
      </trkpt>
      <trkpt lat="48.5033" lon="7.19352">
        <ele>690</ele>
        <time>2021-02-21T10:49:39.469Z</time>
      </trkpt>
      <trkpt lat="48.5033" lon="7.19353">
        <ele>690</ele>
        <time>2021-02-21T10:49:40.469Z</time>
      </trkpt>
      <trkpt lat="48.5033" lon="7.19356">
        <ele>690</ele>
        <time>2021-02-21T10:49:41.470Z</time>
      </trkpt>
      <trkpt lat="48.5033" lon="7.19357">
        <ele>690</ele>
        <time>2021-02-21T10:49:42.470Z</time>
      </trkpt>
      <trkpt lat="48.5033" lon="7.1936">
        <ele>690</ele>
        <time>2021-02-21T10:49:43.470Z</time>
      </trkpt>
      <trkpt lat="48.50331" lon="7.19362">
        <ele>690</ele>
        <time>2021-02-21T10:49:44.470Z</time>
      </trkpt>
      <trkpt lat="48.50331" lon="7.19364">
        <ele>690</ele>
        <time>2021-02-21T10:49:45.470Z</time>
      </trkpt>
      <trkpt lat="48.50331" lon="7.19366">
        <ele>690</ele>
        <time>2021-02-21T10:49:46.470Z</time>
      </trkpt>
      <trkpt lat="48.50331" lon="7.19368">
        <ele>690</ele>
        <time>2021-02-21T10:49:47.470Z</time>
      </trkpt>
      <trkpt lat="48.50331" lon="7.1937">
        <ele>690</ele>
        <time>2021-02-21T10:49:48.470Z</time>
      </trkpt>
      <trkpt lat="48.50331" lon="7.19371">
        <ele>690</ele>
        <time>2021-02-21T10:49:49.469Z</time>
      </trkpt>
      <trkpt lat="48.50331" lon="7.19373">
        <ele>690</ele>
        <time>2021-02-21T10:49:50.469Z</time>
      </trkpt>
      <trkpt lat="48.50332" lon="7.19376">
        <ele>690</ele>
        <time>2021-02-21T10:49:51.470Z</time>
      </trkpt>
      <trkpt lat="48.50332" lon="7.19378">
        <ele>690</ele>
        <time>2021-02-21T10:49:52.469Z</time>
      </trkpt>
      <trkpt lat="48.50332" lon="7.1938">
        <ele>690</ele>
        <time>2021-02-21T10:49:53.470Z</time>
      </trkpt>
      <trkpt lat="48.50332" lon="7.19381">
        <ele>690</ele>
        <time>2021-02-21T10:49:54.470Z</time>
      </trkpt>
      <trkpt lat="48.50332" lon="7.19383">
        <ele>690</ele>
        <time>2021-02-21T10:49:55.470Z</time>
      </trkpt>
      <trkpt lat="48.50332" lon="7.19384">
        <ele>690</ele>
        <time>2021-02-21T10:49:56.470Z</time>
      </trkpt>
      <trkpt lat="48.50332" lon="7.19386">
        <ele>691</ele>
        <time>2021-02-21T10:49:57.470Z</time>
      </trkpt>
      <trkpt lat="48.50333" lon="7.19388">
        <ele>691</ele>
        <time>2021-02-21T10:49:58.469Z</time>
      </trkpt>
      <trkpt lat="48.50333" lon="7.1939">
        <ele>690</ele>
        <time>2021-02-21T10:49:59.470Z</time>
      </trkpt>
      <trkpt lat="48.50333" lon="7.19392">
        <ele>690</ele>
        <time>2021-02-21T10:50:00.469Z</time>
      </trkpt>
      <trkpt lat="48.50333" lon="7.19394">
        <ele>690</ele>
        <time>2021-02-21T10:50:01.469Z</time>
      </trkpt>
      <trkpt lat="48.50333" lon="7.19396">
        <ele>690</ele>
        <time>2021-02-21T10:50:02.469Z</time>
      </trkpt>
      <trkpt lat="48.50333" lon="7.19398">
        <ele>690</ele>
        <time>2021-02-21T10:50:03.469Z</time>
      </trkpt>
      <trkpt lat="48.50333" lon="7.194">
        <ele>690</ele>
        <time>2021-02-21T10:50:04.470Z</time>
      </trkpt>
      <trkpt lat="48.50333" lon="7.19403">
        <ele>691</ele>
        <time>2021-02-21T10:50:05.469Z</time>
      </trkpt>
      <trkpt lat="48.50333" lon="7.19405">
        <ele>691</ele>
        <time>2021-02-21T10:50:06.470Z</time>
      </trkpt>
      <trkpt lat="48.50333" lon="7.19407">
        <ele>690</ele>
        <time>2021-02-21T10:50:07.469Z</time>
      </trkpt>
      <trkpt lat="48.50333" lon="7.19409">
        <ele>690</ele>
        <time>2021-02-21T10:50:08.469Z</time>
      </trkpt>
      <trkpt lat="48.50333" lon="7.19412">
        <ele>689</ele>
        <time>2021-02-21T10:50:09.469Z</time>
      </trkpt>
      <trkpt lat="48.50333" lon="7.19414">
        <ele>689</ele>
        <time>2021-02-21T10:50:10.470Z</time>
      </trkpt>
      <trkpt lat="48.50333" lon="7.19416">
        <ele>688</ele>
        <time>2021-02-21T10:50:11.469Z</time>
      </trkpt>
      <trkpt lat="48.50333" lon="7.19418">
        <ele>688</ele>
        <time>2021-02-21T10:50:12.469Z</time>
      </trkpt>
      <trkpt lat="48.50333" lon="7.1942">
        <ele>688</ele>
        <time>2021-02-21T10:50:13.470Z</time>
      </trkpt>
      <trkpt lat="48.50332" lon="7.19422">
        <ele>688</ele>
        <time>2021-02-21T10:50:14.469Z</time>
      </trkpt>
      <trkpt lat="48.50332" lon="7.19423">
        <ele>689</ele>
        <time>2021-02-21T10:50:15.470Z</time>
      </trkpt>
      <trkpt lat="48.50332" lon="7.19425">
        <ele>689</ele>
        <time>2021-02-21T10:50:16.470Z</time>
      </trkpt>
      <trkpt lat="48.50332" lon="7.19427">
        <ele>690</ele>
        <time>2021-02-21T10:50:17.470Z</time>
      </trkpt>
      <trkpt lat="48.50332" lon="7.19429">
        <ele>691</ele>
        <time>2021-02-21T10:50:18.469Z</time>
      </trkpt>
      <trkpt lat="48.50332" lon="7.19431">
        <ele>691</ele>
        <time>2021-02-21T10:50:19.470Z</time>
      </trkpt>
      <trkpt lat="48.50332" lon="7.19433">
        <ele>692</ele>
        <time>2021-02-21T10:50:20.470Z</time>
      </trkpt>
      <trkpt lat="48.50332" lon="7.19435">
        <ele>693</ele>
        <time>2021-02-21T10:50:21.469Z</time>
      </trkpt>
      <trkpt lat="48.50332" lon="7.19437">
        <ele>694</ele>
        <time>2021-02-21T10:50:22.470Z</time>
      </trkpt>
      <trkpt lat="48.50331" lon="7.19439">
        <ele>694</ele>
        <time>2021-02-21T10:50:23.470Z</time>
      </trkpt>
      <trkpt lat="48.50331" lon="7.1944">
        <ele>695</ele>
        <time>2021-02-21T10:50:24.470Z</time>
      </trkpt>
      <trkpt lat="48.5033" lon="7.19442">
        <ele>695</ele>
        <time>2021-02-21T10:50:25.469Z</time>
      </trkpt>
      <trkpt lat="48.5033" lon="7.19442">
        <ele>695</ele>
        <time>2021-02-21T10:50:26.469Z</time>
      </trkpt>
      <trkpt lat="48.50331" lon="7.19442">
        <ele>696</ele>
        <time>2021-02-21T10:50:27.469Z</time>
      </trkpt>
      <trkpt lat="48.50331" lon="7.19443">
        <ele>696</ele>
        <time>2021-02-21T10:50:28.470Z</time>
      </trkpt>
      <trkpt lat="48.5033" lon="7.19444">
        <ele>696</ele>
        <time>2021-02-21T10:50:29.470Z</time>
      </trkpt>
      <trkpt lat="48.5033" lon="7.19445">
        <ele>696</ele>
        <time>2021-02-21T10:50:30.470Z</time>
      </trkpt>
      <trkpt lat="48.5033" lon="7.19445">
        <ele>696</ele>
        <time>2021-02-21T10:50:31.470Z</time>
      </trkpt>
      <trkpt lat="48.5033" lon="7.19445">
        <ele>696</ele>
        <time>2021-02-21T10:50:32.470Z</time>
      </trkpt>
      <trkpt lat="48.5033" lon="7.19445">
        <ele>696</ele>
        <time>2021-02-21T10:50:33.469Z</time>
      </trkpt>
      <trkpt lat="48.50329" lon="7.19451">
        <ele>695</ele>
        <time>2021-02-21T10:50:34.469Z</time>
      </trkpt>
      <trkpt lat="48.50328" lon="7.19454">
        <ele>694</ele>
        <time>2021-02-21T10:50:35.469Z</time>
      </trkpt>
      <trkpt lat="48.50327" lon="7.19456">
        <ele>694</ele>
        <time>2021-02-21T10:50:36.470Z</time>
      </trkpt>
      <trkpt lat="48.50326" lon="7.19459">
        <ele>694</ele>
        <time>2021-02-21T10:50:37.469Z</time>
      </trkpt>
      <trkpt lat="48.50325" lon="7.19461">
        <ele>694</ele>
        <time>2021-02-21T10:50:38.470Z</time>
      </trkpt>
      <trkpt lat="48.50324" lon="7.19464">
        <ele>694</ele>
        <time>2021-02-21T10:50:39.469Z</time>
      </trkpt>
      <trkpt lat="48.50324" lon="7.19467">
        <ele>694</ele>
        <time>2021-02-21T10:50:40.469Z</time>
      </trkpt>
      <trkpt lat="48.50323" lon="7.1947">
        <ele>694</ele>
        <time>2021-02-21T10:50:41.469Z</time>
      </trkpt>
      <trkpt lat="48.50323" lon="7.19472">
        <ele>694</ele>
        <time>2021-02-21T10:50:42.469Z</time>
      </trkpt>
      <trkpt lat="48.50323" lon="7.19473">
        <ele>694</ele>
        <time>2021-02-21T10:50:43.470Z</time>
      </trkpt>
      <trkpt lat="48.50322" lon="7.19475">
        <ele>694</ele>
        <time>2021-02-21T10:50:44.469Z</time>
      </trkpt>
      <trkpt lat="48.50322" lon="7.19477">
        <ele>693</ele>
        <time>2021-02-21T10:50:45.470Z</time>
      </trkpt>
      <trkpt lat="48.50322" lon="7.19479">
        <ele>693</ele>
        <time>2021-02-21T10:50:46.470Z</time>
      </trkpt>
      <trkpt lat="48.50322" lon="7.19481">
        <ele>692</ele>
        <time>2021-02-21T10:50:47.470Z</time>
      </trkpt>
      <trkpt lat="48.50322" lon="7.19484">
        <ele>691</ele>
        <time>2021-02-21T10:50:48.470Z</time>
      </trkpt>
      <trkpt lat="48.50322" lon="7.19486">
        <ele>691</ele>
        <time>2021-02-21T10:50:49.470Z</time>
      </trkpt>
      <trkpt lat="48.50322" lon="7.19488">
        <ele>691</ele>
        <time>2021-02-21T10:50:50.470Z</time>
      </trkpt>
      <trkpt lat="48.50322" lon="7.1949">
        <ele>690</ele>
        <time>2021-02-21T10:50:51.469Z</time>
      </trkpt>
      <trkpt lat="48.50322" lon="7.19492">
        <ele>690</ele>
        <time>2021-02-21T10:50:52.469Z</time>
      </trkpt>
      <trkpt lat="48.50321" lon="7.19494">
        <ele>689</ele>
        <time>2021-02-21T10:50:53.469Z</time>
      </trkpt>
      <trkpt lat="48.50321" lon="7.19496">
        <ele>689</ele>
        <time>2021-02-21T10:50:54.470Z</time>
      </trkpt>
      <trkpt lat="48.50322" lon="7.19498">
        <ele>689</ele>
        <time>2021-02-21T10:50:55.470Z</time>
      </trkpt>
      <trkpt lat="48.50322" lon="7.195">
        <ele>688</ele>
        <time>2021-02-21T10:50:56.470Z</time>
      </trkpt>
      <trkpt lat="48.50322" lon="7.19502">
        <ele>687</ele>
        <time>2021-02-21T10:50:57.470Z</time>
      </trkpt>
      <trkpt lat="48.50322" lon="7.19504">
        <ele>687</ele>
        <time>2021-02-21T10:50:58.469Z</time>
      </trkpt>
      <trkpt lat="48.50322" lon="7.19506">
        <ele>687</ele>
        <time>2021-02-21T10:50:59.469Z</time>
      </trkpt>
      <trkpt lat="48.50322" lon="7.19508">
        <ele>686</ele>
        <time>2021-02-21T10:51:00.469Z</time>
      </trkpt>
      <trkpt lat="48.50322" lon="7.1951">
        <ele>686</ele>
        <time>2021-02-21T10:51:01.470Z</time>
      </trkpt>
      <trkpt lat="48.50322" lon="7.19513">
        <ele>686</ele>
        <time>2021-02-21T10:51:02.470Z</time>
      </trkpt>
      <trkpt lat="48.50322" lon="7.19515">
        <ele>686</ele>
        <time>2021-02-21T10:51:03.470Z</time>
      </trkpt>
      <trkpt lat="48.50323" lon="7.19517">
        <ele>686</ele>
        <time>2021-02-21T10:51:04.470Z</time>
      </trkpt>
      <trkpt lat="48.50323" lon="7.19519">
        <ele>686</ele>
        <time>2021-02-21T10:51:05.470Z</time>
      </trkpt>
      <trkpt lat="48.50323" lon="7.19521">
        <ele>686</ele>
        <time>2021-02-21T10:51:06.470Z</time>
      </trkpt>
      <trkpt lat="48.50323" lon="7.19524">
        <ele>686</ele>
        <time>2021-02-21T10:51:07.470Z</time>
      </trkpt>
      <trkpt lat="48.50323" lon="7.19526">
        <ele>687</ele>
        <time>2021-02-21T10:51:08.470Z</time>
      </trkpt>
      <trkpt lat="48.50323" lon="7.19527">
        <ele>688</ele>
        <time>2021-02-21T10:51:09.469Z</time>
      </trkpt>
      <trkpt lat="48.50323" lon="7.19529">
        <ele>689</ele>
        <time>2021-02-21T10:51:10.470Z</time>
      </trkpt>
      <trkpt lat="48.50323" lon="7.19531">
        <ele>689</ele>
        <time>2021-02-21T10:51:11.470Z</time>
      </trkpt>
      <trkpt lat="48.50323" lon="7.19533">
        <ele>690</ele>
        <time>2021-02-21T10:51:12.470Z</time>
      </trkpt>
      <trkpt lat="48.50323" lon="7.19535">
        <ele>690</ele>
        <time>2021-02-21T10:51:13.470Z</time>
      </trkpt>
      <trkpt lat="48.50323" lon="7.19537">
        <ele>690</ele>
        <time>2021-02-21T10:51:14.470Z</time>
      </trkpt>
      <trkpt lat="48.50323" lon="7.19539">
        <ele>690</ele>
        <time>2021-02-21T10:51:15.469Z</time>
      </trkpt>
      <trkpt lat="48.50323" lon="7.19541">
        <ele>690</ele>
        <time>2021-02-21T10:51:16.470Z</time>
      </trkpt>
      <trkpt lat="48.50323" lon="7.19542">
        <ele>690</ele>
        <time>2021-02-21T10:51:17.469Z</time>
      </trkpt>
      <trkpt lat="48.50323" lon="7.19544">
        <ele>689</ele>
        <time>2021-02-21T10:51:18.470Z</time>
      </trkpt>
      <trkpt lat="48.50323" lon="7.19545">
        <ele>689</ele>
        <time>2021-02-21T10:51:19.469Z</time>
      </trkpt>
      <trkpt lat="48.50322" lon="7.19547">
        <ele>689</ele>
        <time>2021-02-21T10:51:20.470Z</time>
      </trkpt>
      <trkpt lat="48.50322" lon="7.1955">
        <ele>689</ele>
        <time>2021-02-21T10:51:21.469Z</time>
      </trkpt>
      <trkpt lat="48.50322" lon="7.19552">
        <ele>689</ele>
        <time>2021-02-21T10:51:22.470Z</time>
      </trkpt>
      <trkpt lat="48.50322" lon="7.19554">
        <ele>689</ele>
        <time>2021-02-21T10:51:23.470Z</time>
      </trkpt>
      <trkpt lat="48.50321" lon="7.19556">
        <ele>689</ele>
        <time>2021-02-21T10:51:24.469Z</time>
      </trkpt>
      <trkpt lat="48.50321" lon="7.19557">
        <ele>689</ele>
        <time>2021-02-21T10:51:25.469Z</time>
      </trkpt>
      <trkpt lat="48.5032" lon="7.19559">
        <ele>688</ele>
        <time>2021-02-21T10:51:26.470Z</time>
      </trkpt>
      <trkpt lat="48.5032" lon="7.19561">
        <ele>688</ele>
        <time>2021-02-21T10:51:27.470Z</time>
      </trkpt>
      <trkpt lat="48.5032" lon="7.19563">
        <ele>688</ele>
        <time>2021-02-21T10:51:28.469Z</time>
      </trkpt>
      <trkpt lat="48.50319" lon="7.19565">
        <ele>688</ele>
        <time>2021-02-21T10:51:29.470Z</time>
      </trkpt>
      <trkpt lat="48.50319" lon="7.19567">
        <ele>687</ele>
        <time>2021-02-21T10:51:30.470Z</time>
      </trkpt>
      <trkpt lat="48.50319" lon="7.19569">
        <ele>687</ele>
        <time>2021-02-21T10:51:31.469Z</time>
      </trkpt>
      <trkpt lat="48.50318" lon="7.19571">
        <ele>687</ele>
        <time>2021-02-21T10:51:32.470Z</time>
      </trkpt>
      <trkpt lat="48.50318" lon="7.19573">
        <ele>687</ele>
        <time>2021-02-21T10:51:33.470Z</time>
      </trkpt>
      <trkpt lat="48.50318" lon="7.19575">
        <ele>686</ele>
        <time>2021-02-21T10:51:34.470Z</time>
      </trkpt>
      <trkpt lat="48.50317" lon="7.19577">
        <ele>686</ele>
        <time>2021-02-21T10:51:35.470Z</time>
      </trkpt>
      <trkpt lat="48.50317" lon="7.19579">
        <ele>686</ele>
        <time>2021-02-21T10:51:36.470Z</time>
      </trkpt>
      <trkpt lat="48.50316" lon="7.19582">
        <ele>686</ele>
        <time>2021-02-21T10:51:37.470Z</time>
      </trkpt>
      <trkpt lat="48.50316" lon="7.19584">
        <ele>686</ele>
        <time>2021-02-21T10:51:38.470Z</time>
      </trkpt>
      <trkpt lat="48.50316" lon="7.19586">
        <ele>686</ele>
        <time>2021-02-21T10:51:39.470Z</time>
      </trkpt>
      <trkpt lat="48.50316" lon="7.19588">
        <ele>685</ele>
        <time>2021-02-21T10:51:40.470Z</time>
      </trkpt>
      <trkpt lat="48.50316" lon="7.1959">
        <ele>686</ele>
        <time>2021-02-21T10:51:41.470Z</time>
      </trkpt>
      <trkpt lat="48.50317" lon="7.19595">
        <ele>686</ele>
        <time>2021-02-21T10:51:42.469Z</time>
      </trkpt>
      <trkpt lat="48.50316" lon="7.19597">
        <ele>686</ele>
        <time>2021-02-21T10:51:43.469Z</time>
      </trkpt>
      <trkpt lat="48.50315" lon="7.196">
        <ele>686</ele>
        <time>2021-02-21T10:51:44.469Z</time>
      </trkpt>
      <trkpt lat="48.50315" lon="7.19603">
        <ele>686</ele>
        <time>2021-02-21T10:51:45.470Z</time>
      </trkpt>
      <trkpt lat="48.50315" lon="7.19606">
        <ele>686</ele>
        <time>2021-02-21T10:51:46.469Z</time>
      </trkpt>
      <trkpt lat="48.50315" lon="7.19607">
        <ele>686</ele>
        <time>2021-02-21T10:51:47.469Z</time>
      </trkpt>
      <trkpt lat="48.50315" lon="7.19608">
        <ele>686</ele>
        <time>2021-02-21T10:51:48.469Z</time>
      </trkpt>
      <trkpt lat="48.50315" lon="7.19609">
        <ele>686</ele>
        <time>2021-02-21T10:51:49.469Z</time>
      </trkpt>
      <trkpt lat="48.50315" lon="7.1961">
        <ele>685</ele>
        <time>2021-02-21T10:51:50.470Z</time>
      </trkpt>
      <trkpt lat="48.50314" lon="7.19613">
        <ele>685</ele>
        <time>2021-02-21T10:51:51.469Z</time>
      </trkpt>
      <trkpt lat="48.50313" lon="7.19615">
        <ele>685</ele>
        <time>2021-02-21T10:51:52.470Z</time>
      </trkpt>
      <trkpt lat="48.50313" lon="7.19617">
        <ele>685</ele>
        <time>2021-02-21T10:51:53.470Z</time>
      </trkpt>
      <trkpt lat="48.50313" lon="7.1962">
        <ele>685</ele>
        <time>2021-02-21T10:51:54.470Z</time>
      </trkpt>
      <trkpt lat="48.50312" lon="7.19622">
        <ele>685</ele>
        <time>2021-02-21T10:51:55.470Z</time>
      </trkpt>
      <trkpt lat="48.50312" lon="7.19625">
        <ele>685</ele>
        <time>2021-02-21T10:51:56.469Z</time>
      </trkpt>
      <trkpt lat="48.50311" lon="7.19629">
        <ele>685</ele>
        <time>2021-02-21T10:51:57.469Z</time>
      </trkpt>
      <trkpt lat="48.50311" lon="7.19632">
        <ele>685</ele>
        <time>2021-02-21T10:51:58.470Z</time>
      </trkpt>
      <trkpt lat="48.5031" lon="7.19634">
        <ele>686</ele>
        <time>2021-02-21T10:51:59.470Z</time>
      </trkpt>
      <trkpt lat="48.5031" lon="7.19636">
        <ele>686</ele>
        <time>2021-02-21T10:52:00.469Z</time>
      </trkpt>
      <trkpt lat="48.5031" lon="7.19638">
        <ele>687</ele>
        <time>2021-02-21T10:52:01.470Z</time>
      </trkpt>
      <trkpt lat="48.5031" lon="7.1964">
        <ele>687</ele>
        <time>2021-02-21T10:52:02.469Z</time>
      </trkpt>
      <trkpt lat="48.5031" lon="7.19643">
        <ele>687</ele>
        <time>2021-02-21T10:52:03.469Z</time>
      </trkpt>
      <trkpt lat="48.5031" lon="7.19644">
        <ele>687</ele>
        <time>2021-02-21T10:52:04.470Z</time>
      </trkpt>
      <trkpt lat="48.50309" lon="7.19647">
        <ele>687</ele>
        <time>2021-02-21T10:52:05.470Z</time>
      </trkpt>
      <trkpt lat="48.5031" lon="7.19649">
        <ele>687</ele>
        <time>2021-02-21T10:52:06.470Z</time>
      </trkpt>
      <trkpt lat="48.5031" lon="7.19652">
        <ele>687</ele>
        <time>2021-02-21T10:52:07.469Z</time>
      </trkpt>
      <trkpt lat="48.5031" lon="7.19654">
        <ele>687</ele>
        <time>2021-02-21T10:52:08.469Z</time>
      </trkpt>
      <trkpt lat="48.5031" lon="7.19657">
        <ele>687</ele>
        <time>2021-02-21T10:52:09.470Z</time>
      </trkpt>
      <trkpt lat="48.5031" lon="7.1966">
        <ele>687</ele>
        <time>2021-02-21T10:52:10.469Z</time>
      </trkpt>
      <trkpt lat="48.5031" lon="7.19662">
        <ele>687</ele>
        <time>2021-02-21T10:52:11.469Z</time>
      </trkpt>
      <trkpt lat="48.5031" lon="7.19664">
        <ele>687</ele>
        <time>2021-02-21T10:52:12.470Z</time>
      </trkpt>
      <trkpt lat="48.50311" lon="7.19667">
        <ele>687</ele>
        <time>2021-02-21T10:52:13.470Z</time>
      </trkpt>
      <trkpt lat="48.50311" lon="7.19669">
        <ele>687</ele>
        <time>2021-02-21T10:52:14.469Z</time>
      </trkpt>
      <trkpt lat="48.50311" lon="7.19672">
        <ele>687</ele>
        <time>2021-02-21T10:52:15.470Z</time>
      </trkpt>
      <trkpt lat="48.50312" lon="7.19675">
        <ele>687</ele>
        <time>2021-02-21T10:52:16.470Z</time>
      </trkpt>
      <trkpt lat="48.50312" lon="7.19677">
        <ele>686</ele>
        <time>2021-02-21T10:52:17.470Z</time>
      </trkpt>
      <trkpt lat="48.50313" lon="7.19678">
        <ele>686</ele>
        <time>2021-02-21T10:52:18.470Z</time>
      </trkpt>
      <trkpt lat="48.50312" lon="7.1968">
        <ele>685</ele>
        <time>2021-02-21T10:52:19.469Z</time>
      </trkpt>
      <trkpt lat="48.50312" lon="7.19682">
        <ele>685</ele>
        <time>2021-02-21T10:52:20.470Z</time>
      </trkpt>
      <trkpt lat="48.50313" lon="7.19684">
        <ele>684</ele>
        <time>2021-02-21T10:52:21.469Z</time>
      </trkpt>
      <trkpt lat="48.50313" lon="7.19686">
        <ele>683</ele>
        <time>2021-02-21T10:52:22.470Z</time>
      </trkpt>
      <trkpt lat="48.50313" lon="7.19688">
        <ele>683</ele>
        <time>2021-02-21T10:52:23.469Z</time>
      </trkpt>
      <trkpt lat="48.50313" lon="7.19689">
        <ele>682</ele>
        <time>2021-02-21T10:52:24.470Z</time>
      </trkpt>
      <trkpt lat="48.50313" lon="7.19692">
        <ele>682</ele>
        <time>2021-02-21T10:52:25.470Z</time>
      </trkpt>
      <trkpt lat="48.50313" lon="7.19694">
        <ele>681</ele>
        <time>2021-02-21T10:52:26.470Z</time>
      </trkpt>
      <trkpt lat="48.50313" lon="7.19695">
        <ele>681</ele>
        <time>2021-02-21T10:52:34.496Z</time>
      </trkpt>
      <trkpt lat="48.50313" lon="7.19697">
        <ele>680</ele>
        <time>2021-02-21T10:52:35.495Z</time>
      </trkpt>
      <trkpt lat="48.50313" lon="7.19699">
        <ele>680</ele>
        <time>2021-02-21T10:52:36.495Z</time>
      </trkpt>
      <trkpt lat="48.50313" lon="7.19702">
        <ele>680</ele>
        <time>2021-02-21T10:53:38.368Z</time>
      </trkpt>
      <trkpt lat="48.50313" lon="7.19704">
        <ele>680</ele>
        <time>2021-02-21T10:53:39.368Z</time>
      </trkpt>
      <trkpt lat="48.50313" lon="7.19706">
        <ele>680</ele>
        <time>2021-02-21T10:53:40.369Z</time>
      </trkpt>
      <trkpt lat="48.50313" lon="7.19708">
        <ele>680</ele>
        <time>2021-02-21T10:53:41.369Z</time>
      </trkpt>
      <trkpt lat="48.50313" lon="7.1971">
        <ele>680</ele>
        <time>2021-02-21T10:53:42.369Z</time>
      </trkpt>
      <trkpt lat="48.50312" lon="7.19712">
        <ele>680</ele>
        <time>2021-02-21T10:53:43.369Z</time>
      </trkpt>
      <trkpt lat="48.50312" lon="7.19714">
        <ele>679</ele>
        <time>2021-02-21T10:53:44.368Z</time>
      </trkpt>
      <trkpt lat="48.50311" lon="7.19715">
        <ele>678</ele>
        <time>2021-02-21T10:53:45.368Z</time>
      </trkpt>
      <trkpt lat="48.50311" lon="7.19716">
        <ele>678</ele>
        <time>2021-02-21T10:53:46.368Z</time>
      </trkpt>
      <trkpt lat="48.5031" lon="7.19717">
        <ele>677</ele>
        <time>2021-02-21T10:53:47.369Z</time>
      </trkpt>
      <trkpt lat="48.5031" lon="7.1972">
        <ele>676</ele>
        <time>2021-02-21T10:53:48.369Z</time>
      </trkpt>
      <trkpt lat="48.5031" lon="7.19723">
        <ele>676</ele>
        <time>2021-02-21T10:53:49.369Z</time>
      </trkpt>
      <trkpt lat="48.50309" lon="7.19724">
        <ele>676</ele>
        <time>2021-02-21T10:53:50.368Z</time>
      </trkpt>
      <trkpt lat="48.50309" lon="7.19726">
        <ele>676</ele>
        <time>2021-02-21T10:53:51.369Z</time>
      </trkpt>
      <trkpt lat="48.50308" lon="7.19727">
        <ele>676</ele>
        <time>2021-02-21T10:53:52.368Z</time>
      </trkpt>
      <trkpt lat="48.50308" lon="7.1973">
        <ele>677</ele>
        <time>2021-02-21T10:53:53.369Z</time>
      </trkpt>
      <trkpt lat="48.50307" lon="7.19732">
        <ele>677</ele>
        <time>2021-02-21T10:53:54.368Z</time>
      </trkpt>
      <trkpt lat="48.50307" lon="7.19733">
        <ele>677</ele>
        <time>2021-02-21T10:53:55.369Z</time>
      </trkpt>
      <trkpt lat="48.50307" lon="7.19735">
        <ele>676</ele>
        <time>2021-02-21T10:53:56.369Z</time>
      </trkpt>
      <trkpt lat="48.50306" lon="7.19736">
        <ele>676</ele>
        <time>2021-02-21T10:53:57.369Z</time>
      </trkpt>
      <trkpt lat="48.50306" lon="7.19738">
        <ele>676</ele>
        <time>2021-02-21T10:53:58.369Z</time>
      </trkpt>
      <trkpt lat="48.50305" lon="7.19739">
        <ele>676</ele>
        <time>2021-02-21T10:53:59.368Z</time>
      </trkpt>
      <trkpt lat="48.50305" lon="7.19741">
        <ele>675</ele>
        <time>2021-02-21T10:54:00.368Z</time>
      </trkpt>
      <trkpt lat="48.50304" lon="7.19742">
        <ele>676</ele>
        <time>2021-02-21T10:54:01.368Z</time>
      </trkpt>
      <trkpt lat="48.50304" lon="7.19744">
        <ele>676</ele>
        <time>2021-02-21T10:54:02.369Z</time>
      </trkpt>
      <trkpt lat="48.50303" lon="7.19746">
        <ele>676</ele>
        <time>2021-02-21T10:54:03.369Z</time>
      </trkpt>
      <trkpt lat="48.50303" lon="7.19747">
        <ele>676</ele>
        <time>2021-02-21T10:54:04.368Z</time>
      </trkpt>
      <trkpt lat="48.50303" lon="7.19748">
        <ele>677</ele>
        <time>2021-02-21T10:54:05.369Z</time>
      </trkpt>
      <trkpt lat="48.50303" lon="7.19749">
        <ele>677</ele>
        <time>2021-02-21T10:54:06.369Z</time>
      </trkpt>
      <trkpt lat="48.50303" lon="7.1975">
        <ele>678</ele>
        <time>2021-02-21T10:54:07.369Z</time>
      </trkpt>
      <trkpt lat="48.50302" lon="7.19751">
        <ele>678</ele>
        <time>2021-02-21T10:57:06.373Z</time>
      </trkpt>
      <trkpt lat="48.50301" lon="7.19753">
        <ele>678</ele>
        <time>2021-02-21T10:57:07.372Z</time>
      </trkpt>
      <trkpt lat="48.50301" lon="7.19755">
        <ele>678</ele>
        <time>2021-02-21T10:57:08.373Z</time>
      </trkpt>
      <trkpt lat="48.503" lon="7.19756">
        <ele>678</ele>
        <time>2021-02-21T10:57:09.373Z</time>
      </trkpt>
      <trkpt lat="48.50298" lon="7.19758">
        <ele>679</ele>
        <time>2021-02-21T10:57:10.373Z</time>
      </trkpt>
      <trkpt lat="48.50298" lon="7.1976">
        <ele>679</ele>
        <time>2021-02-21T10:57:11.373Z</time>
      </trkpt>
      <trkpt lat="48.50297" lon="7.19764">
        <ele>679</ele>
        <time>2021-02-21T10:57:13.360Z</time>
      </trkpt>
      <trkpt lat="48.50296" lon="7.19766">
        <ele>679</ele>
        <time>2021-02-21T10:57:14.360Z</time>
      </trkpt>
      <trkpt lat="48.50296" lon="7.19767">
        <ele>679</ele>
        <time>2021-02-21T10:57:15.360Z</time>
      </trkpt>
      <trkpt lat="48.50295" lon="7.19769">
        <ele>680</ele>
        <time>2021-02-21T10:57:16.360Z</time>
      </trkpt>
      <trkpt lat="48.50294" lon="7.1977">
        <ele>680</ele>
        <time>2021-02-21T10:57:17.360Z</time>
      </trkpt>
      <trkpt lat="48.50293" lon="7.19772">
        <ele>681</ele>
        <time>2021-02-21T10:57:18.360Z</time>
      </trkpt>
      <trkpt lat="48.50293" lon="7.19773">
        <ele>681</ele>
        <time>2021-02-21T10:57:19.360Z</time>
      </trkpt>
      <trkpt lat="48.50292" lon="7.19774">
        <ele>682</ele>
        <time>2021-02-21T10:57:20.360Z</time>
      </trkpt>
      <trkpt lat="48.50291" lon="7.19775">
        <ele>682</ele>
        <time>2021-02-21T10:57:21.359Z</time>
      </trkpt>
      <trkpt lat="48.50291" lon="7.19777">
        <ele>683</ele>
        <time>2021-02-21T10:57:22.360Z</time>
      </trkpt>
      <trkpt lat="48.5029" lon="7.19778">
        <ele>683</ele>
        <time>2021-02-21T10:57:23.359Z</time>
      </trkpt>
      <trkpt lat="48.50289" lon="7.19779">
        <ele>684</ele>
        <time>2021-02-21T10:57:24.360Z</time>
      </trkpt>
      <trkpt lat="48.50289" lon="7.19781">
        <ele>684</ele>
        <time>2021-02-21T10:57:25.360Z</time>
      </trkpt>
      <trkpt lat="48.50289" lon="7.19782">
        <ele>685</ele>
        <time>2021-02-21T10:57:26.360Z</time>
      </trkpt>
      <trkpt lat="48.50288" lon="7.19784">
        <ele>685</ele>
        <time>2021-02-21T10:57:27.359Z</time>
      </trkpt>
      <trkpt lat="48.50288" lon="7.19785">
        <ele>685</ele>
        <time>2021-02-21T10:57:28.360Z</time>
      </trkpt>
      <trkpt lat="48.50287" lon="7.19787">
        <ele>685</ele>
        <time>2021-02-21T10:57:29.359Z</time>
      </trkpt>
      <trkpt lat="48.50286" lon="7.19788">
        <ele>685</ele>
        <time>2021-02-21T10:57:30.360Z</time>
      </trkpt>
      <trkpt lat="48.50286" lon="7.19789">
        <ele>685</ele>
        <time>2021-02-21T10:57:31.359Z</time>
      </trkpt>
      <trkpt lat="48.50284" lon="7.19792">
        <ele>685</ele>
        <time>2021-02-21T10:57:32.360Z</time>
      </trkpt>
      <trkpt lat="48.50283" lon="7.19795">
        <ele>686</ele>
        <time>2021-02-21T10:57:33.360Z</time>
      </trkpt>
      <trkpt lat="48.50282" lon="7.19797">
        <ele>686</ele>
        <time>2021-02-21T10:57:34.360Z</time>
      </trkpt>
      <trkpt lat="48.50281" lon="7.198">
        <ele>686</ele>
        <time>2021-02-21T10:57:35.360Z</time>
      </trkpt>
      <trkpt lat="48.50279" lon="7.19802">
        <ele>686</ele>
        <time>2021-02-21T10:57:36.360Z</time>
      </trkpt>
      <trkpt lat="48.50278" lon="7.19804">
        <ele>686</ele>
        <time>2021-02-21T10:57:37.359Z</time>
      </trkpt>
      <trkpt lat="48.50278" lon="7.19806">
        <ele>686</ele>
        <time>2021-02-21T10:57:38.360Z</time>
      </trkpt>
      <trkpt lat="48.50277" lon="7.19807">
        <ele>686</ele>
        <time>2021-02-21T10:57:39.360Z</time>
      </trkpt>
      <trkpt lat="48.50277" lon="7.19808">
        <ele>685</ele>
        <time>2021-02-21T10:57:40.360Z</time>
      </trkpt>
      <trkpt lat="48.50276" lon="7.1981">
        <ele>685</ele>
        <time>2021-02-21T10:57:41.360Z</time>
      </trkpt>
      <trkpt lat="48.50275" lon="7.19811">
        <ele>684</ele>
        <time>2021-02-21T10:57:42.359Z</time>
      </trkpt>
      <trkpt lat="48.50273" lon="7.19814">
        <ele>684</ele>
        <time>2021-02-21T10:57:43.360Z</time>
      </trkpt>
      <trkpt lat="48.50272" lon="7.19816">
        <ele>683</ele>
        <time>2021-02-21T10:57:44.360Z</time>
      </trkpt>
      <trkpt lat="48.5027" lon="7.19817">
        <ele>683</ele>
        <time>2021-02-21T10:57:45.360Z</time>
      </trkpt>
      <trkpt lat="48.50269" lon="7.19819">
        <ele>682</ele>
        <time>2021-02-21T10:57:46.360Z</time>
      </trkpt>
      <trkpt lat="48.50268" lon="7.19821">
        <ele>682</ele>
        <time>2021-02-21T10:57:47.360Z</time>
      </trkpt>
      <trkpt lat="48.50267" lon="7.19822">
        <ele>681</ele>
        <time>2021-02-21T10:57:48.360Z</time>
      </trkpt>
      <trkpt lat="48.50267" lon="7.19823">
        <ele>681</ele>
        <time>2021-02-21T10:57:49.360Z</time>
      </trkpt>
      <trkpt lat="48.50266" lon="7.19824">
        <ele>681</ele>
        <time>2021-02-21T10:57:50.360Z</time>
      </trkpt>
      <trkpt lat="48.50265" lon="7.19826">
        <ele>681</ele>
        <time>2021-02-21T10:57:51.359Z</time>
      </trkpt>
      <trkpt lat="48.50264" lon="7.19827">
        <ele>680</ele>
        <time>2021-02-21T10:57:52.360Z</time>
      </trkpt>
      <trkpt lat="48.50263" lon="7.19829">
        <ele>680</ele>
        <time>2021-02-21T10:57:53.359Z</time>
      </trkpt>
      <trkpt lat="48.50262" lon="7.1983">
        <ele>679</ele>
        <time>2021-02-21T10:57:54.360Z</time>
      </trkpt>
      <trkpt lat="48.50261" lon="7.19831">
        <ele>678</ele>
        <time>2021-02-21T10:57:56.492Z</time>
      </trkpt>
      <trkpt lat="48.50261" lon="7.19833">
        <ele>678</ele>
        <time>2021-02-21T10:57:57.492Z</time>
      </trkpt>
      <trkpt lat="48.50259" lon="7.19834">
        <ele>677</ele>
        <time>2021-02-21T10:57:58.492Z</time>
      </trkpt>
      <trkpt lat="48.50259" lon="7.19835">
        <ele>677</ele>
        <time>2021-02-21T10:57:59.492Z</time>
      </trkpt>
      <trkpt lat="48.50259" lon="7.19837">
        <ele>677</ele>
        <time>2021-02-21T10:58:00.492Z</time>
      </trkpt>
      <trkpt lat="48.50258" lon="7.19839">
        <ele>677</ele>
        <time>2021-02-21T10:58:01.492Z</time>
      </trkpt>
      <trkpt lat="48.50258" lon="7.1984">
        <ele>677</ele>
        <time>2021-02-21T10:58:02.492Z</time>
      </trkpt>
      <trkpt lat="48.50257" lon="7.19842">
        <ele>676</ele>
        <time>2021-02-21T10:58:03.492Z</time>
      </trkpt>
      <trkpt lat="48.50257" lon="7.19844">
        <ele>676</ele>
        <time>2021-02-21T10:58:04.492Z</time>
      </trkpt>
      <trkpt lat="48.50256" lon="7.19846">
        <ele>675</ele>
        <time>2021-02-21T10:58:05.491Z</time>
      </trkpt>
      <trkpt lat="48.50256" lon="7.19847">
        <ele>675</ele>
        <time>2021-02-21T10:58:06.492Z</time>
      </trkpt>
      <trkpt lat="48.50255" lon="7.19849">
        <ele>675</ele>
        <time>2021-02-21T10:58:07.492Z</time>
      </trkpt>
      <trkpt lat="48.50254" lon="7.1985">
        <ele>674</ele>
        <time>2021-02-21T10:58:08.492Z</time>
      </trkpt>
      <trkpt lat="48.50254" lon="7.19851">
        <ele>674</ele>
        <time>2021-02-21T10:58:09.492Z</time>
      </trkpt>
      <trkpt lat="48.50253" lon="7.19852">
        <ele>673</ele>
        <time>2021-02-21T10:58:10.492Z</time>
      </trkpt>
      <trkpt lat="48.50252" lon="7.19853">
        <ele>673</ele>
        <time>2021-02-21T10:58:11.492Z</time>
      </trkpt>
      <trkpt lat="48.50251" lon="7.19854">
        <ele>673</ele>
        <time>2021-02-21T10:58:12.492Z</time>
      </trkpt>
      <trkpt lat="48.5025" lon="7.19853">
        <ele>673</ele>
        <time>2021-02-21T10:58:13.491Z</time>
      </trkpt>
      <trkpt lat="48.5025" lon="7.19853">
        <ele>673</ele>
        <time>2021-02-21T10:58:14.492Z</time>
      </trkpt>
      <trkpt lat="48.50249" lon="7.19853">
        <ele>674</ele>
        <time>2021-02-21T10:58:15.492Z</time>
      </trkpt>
      <trkpt lat="48.50247" lon="7.19851">
        <ele>675</ele>
        <time>2021-02-21T10:58:16.492Z</time>
      </trkpt>
      <trkpt lat="48.50247" lon="7.19853">
        <ele>676</ele>
        <time>2021-02-21T10:58:17.492Z</time>
      </trkpt>
      <trkpt lat="48.50246" lon="7.19855">
        <ele>676</ele>
        <time>2021-02-21T10:58:18.492Z</time>
      </trkpt>
      <trkpt lat="48.50245" lon="7.19857">
        <ele>676</ele>
        <time>2021-02-21T10:58:19.492Z</time>
      </trkpt>
      <trkpt lat="48.50244" lon="7.19858">
        <ele>676</ele>
        <time>2021-02-21T10:58:20.492Z</time>
      </trkpt>
      <trkpt lat="48.50243" lon="7.19859">
        <ele>677</ele>
        <time>2021-02-21T10:58:21.492Z</time>
      </trkpt>
      <trkpt lat="48.50242" lon="7.19859">
        <ele>677</ele>
        <time>2021-02-21T10:58:22.493Z</time>
      </trkpt>
      <trkpt lat="48.50241" lon="7.1986">
        <ele>677</ele>
        <time>2021-02-21T10:58:23.493Z</time>
      </trkpt>
      <trkpt lat="48.5024" lon="7.1986">
        <ele>677</ele>
        <time>2021-02-21T10:58:24.492Z</time>
      </trkpt>
      <trkpt lat="48.50239" lon="7.19861">
        <ele>676</ele>
        <time>2021-02-21T10:58:25.493Z</time>
      </trkpt>
      <trkpt lat="48.50237" lon="7.19862">
        <ele>676</ele>
        <time>2021-02-21T10:58:26.492Z</time>
      </trkpt>
      <trkpt lat="48.50236" lon="7.19862">
        <ele>675</ele>
        <time>2021-02-21T10:58:27.492Z</time>
      </trkpt>
      <trkpt lat="48.50234" lon="7.19862">
        <ele>675</ele>
        <time>2021-02-21T10:58:28.492Z</time>
      </trkpt>
      <trkpt lat="48.50233" lon="7.19863">
        <ele>674</ele>
        <time>2021-02-21T10:58:29.493Z</time>
      </trkpt>
      <trkpt lat="48.50232" lon="7.19864">
        <ele>674</ele>
        <time>2021-02-21T10:58:30.492Z</time>
      </trkpt>
      <trkpt lat="48.50231" lon="7.19865">
        <ele>674</ele>
        <time>2021-02-21T10:58:31.492Z</time>
      </trkpt>
      <trkpt lat="48.50229" lon="7.19866">
        <ele>673</ele>
        <time>2021-02-21T10:58:32.492Z</time>
      </trkpt>
      <trkpt lat="48.50228" lon="7.19868">
        <ele>673</ele>
        <time>2021-02-21T10:58:33.492Z</time>
      </trkpt>
      <trkpt lat="48.50227" lon="7.19871">
        <ele>673</ele>
        <time>2021-02-21T10:58:34.492Z</time>
      </trkpt>
      <trkpt lat="48.50225" lon="7.19874">
        <ele>673</ele>
        <time>2021-02-21T10:58:35.492Z</time>
      </trkpt>
      <trkpt lat="48.50223" lon="7.19876">
        <ele>673</ele>
        <time>2021-02-21T10:58:36.492Z</time>
      </trkpt>
      <trkpt lat="48.50222" lon="7.19878">
        <ele>673</ele>
        <time>2021-02-21T10:58:37.492Z</time>
      </trkpt>
      <trkpt lat="48.50221" lon="7.19879">
        <ele>673</ele>
        <time>2021-02-21T10:58:38.492Z</time>
      </trkpt>
      <trkpt lat="48.5022" lon="7.19881">
        <ele>673</ele>
        <time>2021-02-21T10:58:39.492Z</time>
      </trkpt>
      <trkpt lat="48.50219" lon="7.19883">
        <ele>673</ele>
        <time>2021-02-21T10:58:40.492Z</time>
      </trkpt>
      <trkpt lat="48.50217" lon="7.19884">
        <ele>673</ele>
        <time>2021-02-21T10:58:41.492Z</time>
      </trkpt>
      <trkpt lat="48.50216" lon="7.19886">
        <ele>673</ele>
        <time>2021-02-21T10:58:42.492Z</time>
      </trkpt>
      <trkpt lat="48.50216" lon="7.19887">
        <ele>673</ele>
        <time>2021-02-21T10:58:43.492Z</time>
      </trkpt>
      <trkpt lat="48.50214" lon="7.19888">
        <ele>674</ele>
        <time>2021-02-21T10:58:44.492Z</time>
      </trkpt>
      <trkpt lat="48.50213" lon="7.19889">
        <ele>674</ele>
        <time>2021-02-21T10:58:45.492Z</time>
      </trkpt>
      <trkpt lat="48.50212" lon="7.19889">
        <ele>674</ele>
        <time>2021-02-21T10:58:46.493Z</time>
      </trkpt>
      <trkpt lat="48.50211" lon="7.19889">
        <ele>673</ele>
        <time>2021-02-21T10:58:47.493Z</time>
      </trkpt>
      <trkpt lat="48.5021" lon="7.1989">
        <ele>672</ele>
        <time>2021-02-21T10:58:48.492Z</time>
      </trkpt>
      <trkpt lat="48.50209" lon="7.1989">
        <ele>671</ele>
        <time>2021-02-21T10:58:49.492Z</time>
      </trkpt>
      <trkpt lat="48.50208" lon="7.19891">
        <ele>671</ele>
        <time>2021-02-21T10:58:50.492Z</time>
      </trkpt>
      <trkpt lat="48.50207" lon="7.19892">
        <ele>670</ele>
        <time>2021-02-21T10:58:51.492Z</time>
      </trkpt>
      <trkpt lat="48.50206" lon="7.19893">
        <ele>669</ele>
        <time>2021-02-21T10:58:52.492Z</time>
      </trkpt>
      <trkpt lat="48.50205" lon="7.19893">
        <ele>668</ele>
        <time>2021-02-21T10:58:53.492Z</time>
      </trkpt>
      <trkpt lat="48.50204" lon="7.19894">
        <ele>668</ele>
        <time>2021-02-21T10:58:54.492Z</time>
      </trkpt>
      <trkpt lat="48.50203" lon="7.19895">
        <ele>667</ele>
        <time>2021-02-21T10:58:55.493Z</time>
      </trkpt>
      <trkpt lat="48.50201" lon="7.19895">
        <ele>666</ele>
        <time>2021-02-21T10:58:56.492Z</time>
      </trkpt>
      <trkpt lat="48.50199" lon="7.19896">
        <ele>666</ele>
        <time>2021-02-21T10:58:57.492Z</time>
      </trkpt>
      <trkpt lat="48.50198" lon="7.19897">
        <ele>666</ele>
        <time>2021-02-21T10:58:58.492Z</time>
      </trkpt>
      <trkpt lat="48.50196" lon="7.19899">
        <ele>666</ele>
        <time>2021-02-21T10:58:59.493Z</time>
      </trkpt>
      <trkpt lat="48.50195" lon="7.199">
        <ele>666</ele>
        <time>2021-02-21T10:59:00.492Z</time>
      </trkpt>
      <trkpt lat="48.50194" lon="7.19901">
        <ele>666</ele>
        <time>2021-02-21T10:59:01.492Z</time>
      </trkpt>
      <trkpt lat="48.50193" lon="7.19902">
        <ele>667</ele>
        <time>2021-02-21T10:59:02.492Z</time>
      </trkpt>
      <trkpt lat="48.50192" lon="7.19903">
        <ele>666</ele>
        <time>2021-02-21T10:59:03.492Z</time>
      </trkpt>
      <trkpt lat="48.50191" lon="7.19903">
        <ele>667</ele>
        <time>2021-02-21T10:59:04.493Z</time>
      </trkpt>
      <trkpt lat="48.50189" lon="7.19903">
        <ele>666</ele>
        <time>2021-02-21T10:59:05.493Z</time>
      </trkpt>
      <trkpt lat="48.50189" lon="7.19904">
        <ele>666</ele>
        <time>2021-02-21T10:59:06.492Z</time>
      </trkpt>
      <trkpt lat="48.50188" lon="7.19905">
        <ele>665</ele>
        <time>2021-02-21T10:59:07.493Z</time>
      </trkpt>
      <trkpt lat="48.50188" lon="7.19905">
        <ele>665</ele>
        <time>2021-02-21T10:59:08.492Z</time>
      </trkpt>
      <trkpt lat="48.50187" lon="7.19905">
        <ele>665</ele>
        <time>2021-02-21T10:59:09.492Z</time>
      </trkpt>
      <trkpt lat="48.50186" lon="7.19906">
        <ele>665</ele>
        <time>2021-02-21T10:59:10.492Z</time>
      </trkpt>
      <trkpt lat="48.50186" lon="7.19908">
        <ele>665</ele>
        <time>2021-02-21T10:59:11.492Z</time>
      </trkpt>
      <trkpt lat="48.50186" lon="7.19909">
        <ele>665</ele>
        <time>2021-02-21T10:59:12.492Z</time>
      </trkpt>
      <trkpt lat="48.50186" lon="7.19912">
        <ele>665</ele>
        <time>2021-02-21T10:59:13.492Z</time>
      </trkpt>
      <trkpt lat="48.50186" lon="7.19915">
        <ele>665</ele>
        <time>2021-02-21T10:59:14.492Z</time>
      </trkpt>
      <trkpt lat="48.50187" lon="7.19918">
        <ele>664</ele>
        <time>2021-02-21T10:59:15.492Z</time>
      </trkpt>
      <trkpt lat="48.50186" lon="7.19919">
        <ele>664</ele>
        <time>2021-02-21T10:59:16.492Z</time>
      </trkpt>
      <trkpt lat="48.50186" lon="7.19921">
        <ele>664</ele>
        <time>2021-02-21T10:59:17.492Z</time>
      </trkpt>
      <trkpt lat="48.50185" lon="7.19923">
        <ele>664</ele>
        <time>2021-02-21T10:59:18.492Z</time>
      </trkpt>
      <trkpt lat="48.50185" lon="7.19924">
        <ele>664</ele>
        <time>2021-02-21T10:59:19.492Z</time>
      </trkpt>
      <trkpt lat="48.50184" lon="7.19926">
        <ele>663</ele>
        <time>2021-02-21T10:59:20.492Z</time>
      </trkpt>
      <trkpt lat="48.50184" lon="7.19928">
        <ele>663</ele>
        <time>2021-02-21T10:59:21.492Z</time>
      </trkpt>
      <trkpt lat="48.50183" lon="7.1993">
        <ele>662</ele>
        <time>2021-02-21T10:59:22.492Z</time>
      </trkpt>
      <trkpt lat="48.50182" lon="7.19933">
        <ele>662</ele>
        <time>2021-02-21T10:59:23.492Z</time>
      </trkpt>
      <trkpt lat="48.50182" lon="7.19934">
        <ele>662</ele>
        <time>2021-02-21T10:59:24.492Z</time>
      </trkpt>
      <trkpt lat="48.50181" lon="7.19935">
        <ele>662</ele>
        <time>2021-02-21T10:59:25.492Z</time>
      </trkpt>
      <trkpt lat="48.5018" lon="7.19937">
        <ele>661</ele>
        <time>2021-02-21T10:59:26.492Z</time>
      </trkpt>
      <trkpt lat="48.50179" lon="7.19939">
        <ele>661</ele>
        <time>2021-02-21T10:59:27.492Z</time>
      </trkpt>
      <trkpt lat="48.50178" lon="7.19941">
        <ele>661</ele>
        <time>2021-02-21T10:59:28.493Z</time>
      </trkpt>
      <trkpt lat="48.50178" lon="7.19943">
        <ele>661</ele>
        <time>2021-02-21T10:59:29.492Z</time>
      </trkpt>
      <trkpt lat="48.50177" lon="7.19944">
        <ele>662</ele>
        <time>2021-02-21T10:59:30.492Z</time>
      </trkpt>
      <trkpt lat="48.50176" lon="7.19946">
        <ele>662</ele>
        <time>2021-02-21T10:59:31.492Z</time>
      </trkpt>
      <trkpt lat="48.50175" lon="7.19948">
        <ele>662</ele>
        <time>2021-02-21T10:59:32.492Z</time>
      </trkpt>
      <trkpt lat="48.50174" lon="7.19949">
        <ele>663</ele>
        <time>2021-02-21T10:59:33.492Z</time>
      </trkpt>
      <trkpt lat="48.50172" lon="7.19951">
        <ele>663</ele>
        <time>2021-02-21T10:59:34.492Z</time>
      </trkpt>
      <trkpt lat="48.50171" lon="7.19952">
        <ele>663</ele>
        <time>2021-02-21T10:59:35.493Z</time>
      </trkpt>
      <trkpt lat="48.5017" lon="7.19954">
        <ele>663</ele>
        <time>2021-02-21T10:59:36.492Z</time>
      </trkpt>
      <trkpt lat="48.50169" lon="7.19956">
        <ele>663</ele>
        <time>2021-02-21T10:59:37.493Z</time>
      </trkpt>
      <trkpt lat="48.50167" lon="7.19958">
        <ele>663</ele>
        <time>2021-02-21T10:59:38.492Z</time>
      </trkpt>
      <trkpt lat="48.50166" lon="7.19961">
        <ele>663</ele>
        <time>2021-02-21T10:59:39.492Z</time>
      </trkpt>
      <trkpt lat="48.50166" lon="7.19961">
        <ele>663</ele>
        <time>2021-02-21T10:59:40.492Z</time>
      </trkpt>
      <trkpt lat="48.50165" lon="7.19962">
        <ele>663</ele>
        <time>2021-02-21T10:59:41.493Z</time>
      </trkpt>
      <trkpt lat="48.50164" lon="7.19963">
        <ele>663</ele>
        <time>2021-02-21T10:59:42.492Z</time>
      </trkpt>
      <trkpt lat="48.50163" lon="7.19963">
        <ele>662</ele>
        <time>2021-02-21T10:59:43.492Z</time>
      </trkpt>
      <trkpt lat="48.50162" lon="7.19964">
        <ele>661</ele>
        <time>2021-02-21T10:59:44.492Z</time>
      </trkpt>
      <trkpt lat="48.50162" lon="7.19965">
        <ele>660</ele>
        <time>2021-02-21T10:59:45.492Z</time>
      </trkpt>
      <trkpt lat="48.50161" lon="7.19966">
        <ele>659</ele>
        <time>2021-02-21T10:59:46.492Z</time>
      </trkpt>
      <trkpt lat="48.50161" lon="7.19968">
        <ele>658</ele>
        <time>2021-02-21T10:59:47.492Z</time>
      </trkpt>
      <trkpt lat="48.5016" lon="7.19969">
        <ele>658</ele>
        <time>2021-02-21T10:59:48.492Z</time>
      </trkpt>
      <trkpt lat="48.50159" lon="7.19969">
        <ele>657</ele>
        <time>2021-02-21T10:59:49.493Z</time>
      </trkpt>
      <trkpt lat="48.50158" lon="7.1997">
        <ele>656</ele>
        <time>2021-02-21T10:59:50.492Z</time>
      </trkpt>
      <trkpt lat="48.50157" lon="7.19971">
        <ele>655</ele>
        <time>2021-02-21T10:59:51.493Z</time>
      </trkpt>
      <trkpt lat="48.50156" lon="7.19972">
        <ele>654</ele>
        <time>2021-02-21T10:59:52.492Z</time>
      </trkpt>
      <trkpt lat="48.50155" lon="7.19973">
        <ele>654</ele>
        <time>2021-02-21T10:59:53.492Z</time>
      </trkpt>
      <trkpt lat="48.50155" lon="7.19975">
        <ele>653</ele>
        <time>2021-02-21T10:59:54.493Z</time>
      </trkpt>
      <trkpt lat="48.50154" lon="7.19976">
        <ele>653</ele>
        <time>2021-02-21T10:59:55.492Z</time>
      </trkpt>
      <trkpt lat="48.50154" lon="7.19978">
        <ele>653</ele>
        <time>2021-02-21T10:59:56.492Z</time>
      </trkpt>
      <trkpt lat="48.50154" lon="7.19979">
        <ele>653</ele>
        <time>2021-02-21T10:59:57.492Z</time>
      </trkpt>
      <trkpt lat="48.50154" lon="7.19981">
        <ele>652</ele>
        <time>2021-02-21T10:59:58.493Z</time>
      </trkpt>
      <trkpt lat="48.50153" lon="7.19983">
        <ele>652</ele>
        <time>2021-02-21T10:59:59.493Z</time>
      </trkpt>
      <trkpt lat="48.50152" lon="7.19984">
        <ele>652</ele>
        <time>2021-02-21T11:00:00.492Z</time>
      </trkpt>
      <trkpt lat="48.50152" lon="7.19986">
        <ele>652</ele>
        <time>2021-02-21T11:00:01.492Z</time>
      </trkpt>
      <trkpt lat="48.50152" lon="7.19987">
        <ele>651</ele>
        <time>2021-02-21T11:00:02.492Z</time>
      </trkpt>
      <trkpt lat="48.50152" lon="7.19989">
        <ele>651</ele>
        <time>2021-02-21T11:00:03.493Z</time>
      </trkpt>
      <trkpt lat="48.50152" lon="7.19992">
        <ele>651</ele>
        <time>2021-02-21T11:00:04.492Z</time>
      </trkpt>
      <trkpt lat="48.50152" lon="7.19994">
        <ele>650</ele>
        <time>2021-02-21T11:00:05.492Z</time>
      </trkpt>
      <trkpt lat="48.50152" lon="7.19996">
        <ele>650</ele>
        <time>2021-02-21T11:00:06.492Z</time>
      </trkpt>
      <trkpt lat="48.50153" lon="7.19998">
        <ele>650</ele>
        <time>2021-02-21T11:00:07.492Z</time>
      </trkpt>
      <trkpt lat="48.50152" lon="7.2">
        <ele>650</ele>
        <time>2021-02-21T11:00:08.492Z</time>
      </trkpt>
      <trkpt lat="48.50152" lon="7.20001">
        <ele>650</ele>
        <time>2021-02-21T11:00:09.492Z</time>
      </trkpt>
      <trkpt lat="48.50153" lon="7.20003">
        <ele>650</ele>
        <time>2021-02-21T11:00:10.492Z</time>
      </trkpt>
      <trkpt lat="48.50153" lon="7.20004">
        <ele>650</ele>
        <time>2021-02-21T11:00:11.492Z</time>
      </trkpt>
      <trkpt lat="48.50153" lon="7.20005">
        <ele>649</ele>
        <time>2021-02-21T11:00:12.493Z</time>
      </trkpt>
      <trkpt lat="48.50154" lon="7.20006">
        <ele>649</ele>
        <time>2021-02-21T11:00:13.492Z</time>
      </trkpt>
      <trkpt lat="48.50155" lon="7.20007">
        <ele>648</ele>
        <time>2021-02-21T11:00:14.493Z</time>
      </trkpt>
      <trkpt lat="48.50156" lon="7.20008">
        <ele>647</ele>
        <time>2021-02-21T11:00:15.492Z</time>
      </trkpt>
      <trkpt lat="48.50157" lon="7.20012">
        <ele>647</ele>
        <time>2021-02-21T11:00:16.492Z</time>
      </trkpt>
      <trkpt lat="48.50158" lon="7.20014">
        <ele>647</ele>
        <time>2021-02-21T11:00:17.492Z</time>
      </trkpt>
      <trkpt lat="48.50159" lon="7.20016">
        <ele>647</ele>
        <time>2021-02-21T11:00:18.493Z</time>
      </trkpt>
      <trkpt lat="48.50158" lon="7.20019">
        <ele>647</ele>
        <time>2021-02-21T11:00:19.492Z</time>
      </trkpt>
      <trkpt lat="48.50158" lon="7.20021">
        <ele>646</ele>
        <time>2021-02-21T11:00:20.492Z</time>
      </trkpt>
      <trkpt lat="48.50157" lon="7.20023">
        <ele>646</ele>
        <time>2021-02-21T11:00:21.493Z</time>
      </trkpt>
      <trkpt lat="48.50157" lon="7.20025">
        <ele>646</ele>
        <time>2021-02-21T11:00:22.492Z</time>
      </trkpt>
      <trkpt lat="48.50156" lon="7.20027">
        <ele>646</ele>
        <time>2021-02-21T11:00:23.492Z</time>
      </trkpt>
      <trkpt lat="48.50156" lon="7.20029">
        <ele>646</ele>
        <time>2021-02-21T11:00:24.492Z</time>
      </trkpt>
      <trkpt lat="48.50156" lon="7.20032">
        <ele>646</ele>
        <time>2021-02-21T11:00:25.492Z</time>
      </trkpt>
      <trkpt lat="48.50156" lon="7.20034">
        <ele>646</ele>
        <time>2021-02-21T11:00:26.492Z</time>
      </trkpt>
      <trkpt lat="48.50156" lon="7.20036">
        <ele>646</ele>
        <time>2021-02-21T11:00:27.493Z</time>
      </trkpt>
      <trkpt lat="48.50156" lon="7.20038">
        <ele>647</ele>
        <time>2021-02-21T11:00:28.493Z</time>
      </trkpt>
      <trkpt lat="48.50156" lon="7.20039">
        <ele>647</ele>
        <time>2021-02-21T11:00:29.492Z</time>
      </trkpt>
      <trkpt lat="48.50156" lon="7.20041">
        <ele>647</ele>
        <time>2021-02-21T11:00:30.492Z</time>
      </trkpt>
      <trkpt lat="48.50157" lon="7.20043">
        <ele>647</ele>
        <time>2021-02-21T11:00:31.492Z</time>
      </trkpt>
      <trkpt lat="48.50158" lon="7.20044">
        <ele>647</ele>
        <time>2021-02-21T11:00:32.492Z</time>
      </trkpt>
      <trkpt lat="48.50158" lon="7.20045">
        <ele>647</ele>
        <time>2021-02-21T11:00:33.492Z</time>
      </trkpt>
      <trkpt lat="48.50159" lon="7.20047">
        <ele>646</ele>
        <time>2021-02-21T11:00:34.492Z</time>
      </trkpt>
      <trkpt lat="48.5016" lon="7.20049">
        <ele>645</ele>
        <time>2021-02-21T11:00:35.492Z</time>
      </trkpt>
      <trkpt lat="48.5016" lon="7.20051">
        <ele>645</ele>
        <time>2021-02-21T11:00:36.492Z</time>
      </trkpt>
      <trkpt lat="48.5016" lon="7.20053">
        <ele>644</ele>
        <time>2021-02-21T11:00:37.492Z</time>
      </trkpt>
      <trkpt lat="48.5016" lon="7.20054">
        <ele>644</ele>
        <time>2021-02-21T11:00:38.493Z</time>
      </trkpt>
      <trkpt lat="48.5016" lon="7.20054">
        <ele>643</ele>
        <time>2021-02-21T11:00:39.492Z</time>
      </trkpt>
      <trkpt lat="48.50159" lon="7.20054">
        <ele>642</ele>
        <time>2021-02-21T11:00:40.492Z</time>
      </trkpt>
      <trkpt lat="48.50158" lon="7.20053">
        <ele>641</ele>
        <time>2021-02-21T11:00:41.492Z</time>
      </trkpt>
      <trkpt lat="48.50159" lon="7.20057">
        <ele>636</ele>
        <time>2021-02-21T11:00:42.493Z</time>
      </trkpt>
      <trkpt lat="48.5016" lon="7.20059">
        <ele>636</ele>
        <time>2021-02-21T11:00:43.492Z</time>
      </trkpt>
      <trkpt lat="48.5016" lon="7.20061">
        <ele>635</ele>
        <time>2021-02-21T11:00:44.493Z</time>
      </trkpt>
      <trkpt lat="48.5016" lon="7.20063">
        <ele>634</ele>
        <time>2021-02-21T11:00:45.492Z</time>
      </trkpt>
      <trkpt lat="48.5016" lon="7.20066">
        <ele>635</ele>
        <time>2021-02-21T11:00:46.493Z</time>
      </trkpt>
      <trkpt lat="48.5016" lon="7.20068">
        <ele>635</ele>
        <time>2021-02-21T11:00:47.492Z</time>
      </trkpt>
      <trkpt lat="48.5016" lon="7.2007">
        <ele>635</ele>
        <time>2021-02-21T11:00:48.493Z</time>
      </trkpt>
      <trkpt lat="48.5016" lon="7.20072">
        <ele>635</ele>
        <time>2021-02-21T11:00:49.492Z</time>
      </trkpt>
      <trkpt lat="48.50159" lon="7.20074">
        <ele>635</ele>
        <time>2021-02-21T11:00:50.492Z</time>
      </trkpt>
      <trkpt lat="48.50158" lon="7.20077">
        <ele>634</ele>
        <time>2021-02-21T11:00:51.493Z</time>
      </trkpt>
      <trkpt lat="48.50158" lon="7.20079">
        <ele>634</ele>
        <time>2021-02-21T11:00:52.493Z</time>
      </trkpt>
      <trkpt lat="48.50157" lon="7.20081">
        <ele>633</ele>
        <time>2021-02-21T11:00:53.493Z</time>
      </trkpt>
      <trkpt lat="48.50156" lon="7.20083">
        <ele>632</ele>
        <time>2021-02-21T11:00:54.492Z</time>
      </trkpt>
      <trkpt lat="48.50155" lon="7.20084">
        <ele>631</ele>
        <time>2021-02-21T11:00:55.493Z</time>
      </trkpt>
      <trkpt lat="48.50153" lon="7.20086">
        <ele>630</ele>
        <time>2021-02-21T11:00:56.493Z</time>
      </trkpt>
      <trkpt lat="48.50152" lon="7.20088">
        <ele>629</ele>
        <time>2021-02-21T11:00:57.492Z</time>
      </trkpt>
      <trkpt lat="48.50151" lon="7.20089">
        <ele>628</ele>
        <time>2021-02-21T11:00:58.492Z</time>
      </trkpt>
      <trkpt lat="48.5015" lon="7.2009">
        <ele>626</ele>
        <time>2021-02-21T11:00:59.492Z</time>
      </trkpt>
      <trkpt lat="48.50149" lon="7.20092">
        <ele>625</ele>
        <time>2021-02-21T11:01:00.492Z</time>
      </trkpt>
      <trkpt lat="48.50148" lon="7.20093">
        <ele>625</ele>
        <time>2021-02-21T11:01:01.493Z</time>
      </trkpt>
      <trkpt lat="48.50147" lon="7.20095">
        <ele>624</ele>
        <time>2021-02-21T11:01:02.493Z</time>
      </trkpt>
      <trkpt lat="48.50146" lon="7.20096">
        <ele>623</ele>
        <time>2021-02-21T11:01:03.493Z</time>
      </trkpt>
      <trkpt lat="48.50145" lon="7.20098">
        <ele>622</ele>
        <time>2021-02-21T11:01:04.493Z</time>
      </trkpt>
      <trkpt lat="48.50144" lon="7.201">
        <ele>622</ele>
        <time>2021-02-21T11:01:05.493Z</time>
      </trkpt>
      <trkpt lat="48.50143" lon="7.20101">
        <ele>621</ele>
        <time>2021-02-21T11:01:06.492Z</time>
      </trkpt>
      <trkpt lat="48.50141" lon="7.20103">
        <ele>620</ele>
        <time>2021-02-21T11:01:07.493Z</time>
      </trkpt>
      <trkpt lat="48.50141" lon="7.20104">
        <ele>620</ele>
        <time>2021-02-21T11:01:08.493Z</time>
      </trkpt>
      <trkpt lat="48.50139" lon="7.20105">
        <ele>620</ele>
        <time>2021-02-21T11:01:09.492Z</time>
      </trkpt>
      <trkpt lat="48.50138" lon="7.20107">
        <ele>619</ele>
        <time>2021-02-21T11:01:10.492Z</time>
      </trkpt>
      <trkpt lat="48.50137" lon="7.20108">
        <ele>619</ele>
        <time>2021-02-21T11:01:11.493Z</time>
      </trkpt>
      <trkpt lat="48.50136" lon="7.2011">
        <ele>619</ele>
        <time>2021-02-21T11:01:12.493Z</time>
      </trkpt>
      <trkpt lat="48.50134" lon="7.20111">
        <ele>619</ele>
        <time>2021-02-21T11:01:13.493Z</time>
      </trkpt>
      <trkpt lat="48.50133" lon="7.20112">
        <ele>619</ele>
        <time>2021-02-21T11:01:14.492Z</time>
      </trkpt>
      <trkpt lat="48.50131" lon="7.20114">
        <ele>619</ele>
        <time>2021-02-21T11:01:15.493Z</time>
      </trkpt>
      <trkpt lat="48.5013" lon="7.20115">
        <ele>619</ele>
        <time>2021-02-21T11:01:16.492Z</time>
      </trkpt>
      <trkpt lat="48.50128" lon="7.20117">
        <ele>619</ele>
        <time>2021-02-21T11:01:17.492Z</time>
      </trkpt>
      <trkpt lat="48.50127" lon="7.20118">
        <ele>619</ele>
        <time>2021-02-21T11:01:18.492Z</time>
      </trkpt>
      <trkpt lat="48.50126" lon="7.20119">
        <ele>618</ele>
        <time>2021-02-21T11:01:19.492Z</time>
      </trkpt>
      <trkpt lat="48.50125" lon="7.2012">
        <ele>619</ele>
        <time>2021-02-21T11:01:20.492Z</time>
      </trkpt>
      <trkpt lat="48.50123" lon="7.20121">
        <ele>619</ele>
        <time>2021-02-21T11:01:21.492Z</time>
      </trkpt>
      <trkpt lat="48.50122" lon="7.20122">
        <ele>618</ele>
        <time>2021-02-21T11:01:22.493Z</time>
      </trkpt>
      <trkpt lat="48.50121" lon="7.20123">
        <ele>618</ele>
        <time>2021-02-21T11:01:23.493Z</time>
      </trkpt>
      <trkpt lat="48.5012" lon="7.20124">
        <ele>618</ele>
        <time>2021-02-21T11:01:24.493Z</time>
      </trkpt>
      <trkpt lat="48.50119" lon="7.20125">
        <ele>618</ele>
        <time>2021-02-21T11:01:25.492Z</time>
      </trkpt>
      <trkpt lat="48.50117" lon="7.20125">
        <ele>618</ele>
        <time>2021-02-21T11:01:26.492Z</time>
      </trkpt>
      <trkpt lat="48.50116" lon="7.20126">
        <ele>618</ele>
        <time>2021-02-21T11:01:27.492Z</time>
      </trkpt>
      <trkpt lat="48.50115" lon="7.20126">
        <ele>618</ele>
        <time>2021-02-21T11:01:28.492Z</time>
      </trkpt>
      <trkpt lat="48.50113" lon="7.20127">
        <ele>617</ele>
        <time>2021-02-21T11:01:29.492Z</time>
      </trkpt>
      <trkpt lat="48.50112" lon="7.20127">
        <ele>617</ele>
        <time>2021-02-21T11:01:30.492Z</time>
      </trkpt>
      <trkpt lat="48.50111" lon="7.20128">
        <ele>616</ele>
        <time>2021-02-21T11:01:31.492Z</time>
      </trkpt>
      <trkpt lat="48.50109" lon="7.2013">
        <ele>616</ele>
        <time>2021-02-21T11:01:32.493Z</time>
      </trkpt>
      <trkpt lat="48.50108" lon="7.2013">
        <ele>617</ele>
        <time>2021-02-21T11:01:33.492Z</time>
      </trkpt>
      <trkpt lat="48.50106" lon="7.20131">
        <ele>617</ele>
        <time>2021-02-21T11:01:34.493Z</time>
      </trkpt>
      <trkpt lat="48.50105" lon="7.20131">
        <ele>618</ele>
        <time>2021-02-21T11:01:35.493Z</time>
      </trkpt>
      <trkpt lat="48.50103" lon="7.20132">
        <ele>618</ele>
        <time>2021-02-21T11:01:36.492Z</time>
      </trkpt>
      <trkpt lat="48.50101" lon="7.20132">
        <ele>619</ele>
        <time>2021-02-21T11:01:37.493Z</time>
      </trkpt>
      <trkpt lat="48.501" lon="7.20133">
        <ele>619</ele>
        <time>2021-02-21T11:01:38.492Z</time>
      </trkpt>
      <trkpt lat="48.50098" lon="7.20134">
        <ele>620</ele>
        <time>2021-02-21T11:01:39.493Z</time>
      </trkpt>
      <trkpt lat="48.50096" lon="7.20134">
        <ele>620</ele>
        <time>2021-02-21T11:01:40.493Z</time>
      </trkpt>
      <trkpt lat="48.50095" lon="7.20134">
        <ele>621</ele>
        <time>2021-02-21T11:01:41.493Z</time>
      </trkpt>
      <trkpt lat="48.50094" lon="7.20135">
        <ele>621</ele>
        <time>2021-02-21T11:01:42.493Z</time>
      </trkpt>
      <trkpt lat="48.50093" lon="7.20135">
        <ele>621</ele>
        <time>2021-02-21T11:01:43.493Z</time>
      </trkpt>
      <trkpt lat="48.50091" lon="7.20135">
        <ele>621</ele>
        <time>2021-02-21T11:01:44.493Z</time>
      </trkpt>
      <trkpt lat="48.5009" lon="7.20135">
        <ele>622</ele>
        <time>2021-02-21T11:01:45.492Z</time>
      </trkpt>
      <trkpt lat="48.50089" lon="7.20135">
        <ele>622</ele>
        <time>2021-02-21T11:01:46.493Z</time>
      </trkpt>
      <trkpt lat="48.50087" lon="7.20136">
        <ele>622</ele>
        <time>2021-02-21T11:01:47.492Z</time>
      </trkpt>
      <trkpt lat="48.50086" lon="7.20136">
        <ele>622</ele>
        <time>2021-02-21T11:01:48.492Z</time>
      </trkpt>
      <trkpt lat="48.50085" lon="7.20137">
        <ele>622</ele>
        <time>2021-02-21T11:01:49.493Z</time>
      </trkpt>
      <trkpt lat="48.50083" lon="7.20136">
        <ele>622</ele>
        <time>2021-02-21T11:01:50.493Z</time>
      </trkpt>
      <trkpt lat="48.50082" lon="7.20136">
        <ele>622</ele>
        <time>2021-02-21T11:01:51.492Z</time>
      </trkpt>
      <trkpt lat="48.5008" lon="7.20137">
        <ele>621</ele>
        <time>2021-02-21T11:01:52.493Z</time>
      </trkpt>
      <trkpt lat="48.50079" lon="7.20137">
        <ele>621</ele>
        <time>2021-02-21T11:01:53.493Z</time>
      </trkpt>
      <trkpt lat="48.50077" lon="7.20138">
        <ele>621</ele>
        <time>2021-02-21T11:01:54.492Z</time>
      </trkpt>
      <trkpt lat="48.50076" lon="7.20138">
        <ele>621</ele>
        <time>2021-02-21T11:01:55.493Z</time>
      </trkpt>
      <trkpt lat="48.50074" lon="7.20139">
        <ele>620</ele>
        <time>2021-02-21T11:01:56.493Z</time>
      </trkpt>
      <trkpt lat="48.50073" lon="7.20139">
        <ele>620</ele>
        <time>2021-02-21T11:01:57.493Z</time>
      </trkpt>
      <trkpt lat="48.50071" lon="7.20139">
        <ele>620</ele>
        <time>2021-02-21T11:01:58.492Z</time>
      </trkpt>
      <trkpt lat="48.50069" lon="7.20139">
        <ele>620</ele>
        <time>2021-02-21T11:01:59.493Z</time>
      </trkpt>
      <trkpt lat="48.50068" lon="7.2014">
        <ele>620</ele>
        <time>2021-02-21T11:02:00.493Z</time>
      </trkpt>
      <trkpt lat="48.50067" lon="7.2014">
        <ele>619</ele>
        <time>2021-02-21T11:02:01.493Z</time>
      </trkpt>
      <trkpt lat="48.50066" lon="7.20139">
        <ele>619</ele>
        <time>2021-02-21T11:02:02.493Z</time>
      </trkpt>
      <trkpt lat="48.50064" lon="7.2014">
        <ele>620</ele>
        <time>2021-02-21T11:02:03.493Z</time>
      </trkpt>
      <trkpt lat="48.50063" lon="7.2014">
        <ele>620</ele>
        <time>2021-02-21T11:02:04.493Z</time>
      </trkpt>
      <trkpt lat="48.50062" lon="7.2014">
        <ele>620</ele>
        <time>2021-02-21T11:02:05.493Z</time>
      </trkpt>
      <trkpt lat="48.5006" lon="7.2014">
        <ele>620</ele>
        <time>2021-02-21T11:02:06.493Z</time>
      </trkpt>
      <trkpt lat="48.50059" lon="7.2014">
        <ele>620</ele>
        <time>2021-02-21T11:02:07.493Z</time>
      </trkpt>
      <trkpt lat="48.50057" lon="7.20139">
        <ele>620</ele>
        <time>2021-02-21T11:02:09.618Z</time>
      </trkpt>
      <trkpt lat="48.50055" lon="7.20138">
        <ele>620</ele>
        <time>2021-02-21T11:02:10.618Z</time>
      </trkpt>
      <trkpt lat="48.50054" lon="7.20138">
        <ele>620</ele>
        <time>2021-02-21T11:02:11.618Z</time>
      </trkpt>
      <trkpt lat="48.50053" lon="7.20137">
        <ele>620</ele>
        <time>2021-02-21T11:02:12.617Z</time>
      </trkpt>
      <trkpt lat="48.50052" lon="7.20137">
        <ele>620</ele>
        <time>2021-02-21T11:02:16.751Z</time>
      </trkpt>
      <trkpt lat="48.50051" lon="7.20137">
        <ele>620</ele>
        <time>2021-02-21T11:02:17.752Z</time>
      </trkpt>
      <trkpt lat="48.50049" lon="7.20138">
        <ele>620</ele>
        <time>2021-02-21T11:02:18.752Z</time>
      </trkpt>
      <trkpt lat="48.50048" lon="7.20138">
        <ele>620</ele>
        <time>2021-02-21T11:02:19.752Z</time>
      </trkpt>
      <trkpt lat="48.50046" lon="7.20139">
        <ele>621</ele>
        <time>2021-02-21T11:02:20.752Z</time>
      </trkpt>
      <trkpt lat="48.50045" lon="7.20139">
        <ele>621</ele>
        <time>2021-02-21T11:02:21.752Z</time>
      </trkpt>
      <trkpt lat="48.50044" lon="7.2014">
        <ele>621</ele>
        <time>2021-02-21T11:02:22.752Z</time>
      </trkpt>
      <trkpt lat="48.50042" lon="7.20141">
        <ele>620</ele>
        <time>2021-02-21T11:02:23.752Z</time>
      </trkpt>
      <trkpt lat="48.50041" lon="7.20142">
        <ele>620</ele>
        <time>2021-02-21T11:02:24.752Z</time>
      </trkpt>
      <trkpt lat="48.5004" lon="7.20142">
        <ele>620</ele>
        <time>2021-02-21T11:02:25.751Z</time>
      </trkpt>
      <trkpt lat="48.50039" lon="7.20143">
        <ele>619</ele>
        <time>2021-02-21T11:02:26.752Z</time>
      </trkpt>
      <trkpt lat="48.50037" lon="7.20143">
        <ele>619</ele>
        <time>2021-02-21T11:02:27.752Z</time>
      </trkpt>
      <trkpt lat="48.50036" lon="7.20143">
        <ele>618</ele>
        <time>2021-02-21T11:02:31.856Z</time>
      </trkpt>
      <trkpt lat="48.50034" lon="7.20144">
        <ele>618</ele>
        <time>2021-02-21T11:03:24.772Z</time>
      </trkpt>
      <trkpt lat="48.50033" lon="7.20144">
        <ele>618</ele>
        <time>2021-02-21T11:03:25.773Z</time>
      </trkpt>
      <trkpt lat="48.50032" lon="7.20144">
        <ele>617</ele>
        <time>2021-02-21T11:03:52.637Z</time>
      </trkpt>
      <trkpt lat="48.5003" lon="7.20144">
        <ele>617</ele>
        <time>2021-02-21T11:03:53.636Z</time>
      </trkpt>
      <trkpt lat="48.50029" lon="7.20145">
        <ele>617</ele>
        <time>2021-02-21T11:03:54.637Z</time>
      </trkpt>
      <trkpt lat="48.50027" lon="7.20145">
        <ele>616</ele>
        <time>2021-02-21T11:03:55.637Z</time>
      </trkpt>
      <trkpt lat="48.50026" lon="7.20146">
        <ele>616</ele>
        <time>2021-02-21T11:03:56.637Z</time>
      </trkpt>
      <trkpt lat="48.50024" lon="7.20147">
        <ele>616</ele>
        <time>2021-02-21T11:03:57.636Z</time>
      </trkpt>
      <trkpt lat="48.50023" lon="7.20147">
        <ele>615</ele>
        <time>2021-02-21T11:03:58.637Z</time>
      </trkpt>
      <trkpt lat="48.50021" lon="7.20148">
        <ele>615</ele>
        <time>2021-02-21T11:03:59.637Z</time>
      </trkpt>
      <trkpt lat="48.5002" lon="7.20148">
        <ele>615</ele>
        <time>2021-02-21T11:04:00.636Z</time>
      </trkpt>
      <trkpt lat="48.50019" lon="7.20148">
        <ele>615</ele>
        <time>2021-02-21T11:04:01.637Z</time>
      </trkpt>
      <trkpt lat="48.50018" lon="7.20148">
        <ele>614</ele>
        <time>2021-02-21T11:04:02.637Z</time>
      </trkpt>
      <trkpt lat="48.50016" lon="7.20148">
        <ele>614</ele>
        <time>2021-02-21T11:04:03.637Z</time>
      </trkpt>
      <trkpt lat="48.50014" lon="7.20149">
        <ele>614</ele>
        <time>2021-02-21T11:04:04.637Z</time>
      </trkpt>
      <trkpt lat="48.50013" lon="7.20149">
        <ele>614</ele>
        <time>2021-02-21T11:04:05.637Z</time>
      </trkpt>
      <trkpt lat="48.50011" lon="7.20149">
        <ele>614</ele>
        <time>2021-02-21T11:04:06.637Z</time>
      </trkpt>
      <trkpt lat="48.5001" lon="7.20148">
        <ele>615</ele>
        <time>2021-02-21T11:04:16.627Z</time>
      </trkpt>
      <trkpt lat="48.50009" lon="7.20148">
        <ele>615</ele>
        <time>2021-02-21T11:04:17.627Z</time>
      </trkpt>
      <trkpt lat="48.50008" lon="7.20148">
        <ele>615</ele>
        <time>2021-02-21T11:04:18.627Z</time>
      </trkpt>
      <trkpt lat="48.50006" lon="7.20149">
        <ele>615</ele>
        <time>2021-02-21T11:04:19.626Z</time>
      </trkpt>
      <trkpt lat="48.50004" lon="7.2015">
        <ele>615</ele>
        <time>2021-02-21T11:04:20.626Z</time>
      </trkpt>
      <trkpt lat="48.50002" lon="7.2015">
        <ele>614</ele>
        <time>2021-02-21T11:04:21.627Z</time>
      </trkpt>
      <trkpt lat="48.5" lon="7.2015">
        <ele>614</ele>
        <time>2021-02-21T11:04:22.626Z</time>
      </trkpt>
      <trkpt lat="48.49999" lon="7.2015">
        <ele>613</ele>
        <time>2021-02-21T11:04:23.627Z</time>
      </trkpt>
      <trkpt lat="48.49998" lon="7.2015">
        <ele>613</ele>
        <time>2021-02-21T11:04:24.627Z</time>
      </trkpt>
      <trkpt lat="48.49996" lon="7.2015">
        <ele>612</ele>
        <time>2021-02-21T11:04:25.626Z</time>
      </trkpt>
      <trkpt lat="48.49994" lon="7.2015">
        <ele>612</ele>
        <time>2021-02-21T11:04:26.627Z</time>
      </trkpt>
      <trkpt lat="48.49992" lon="7.2015">
        <ele>611</ele>
        <time>2021-02-21T11:04:27.627Z</time>
      </trkpt>
      <trkpt lat="48.4999" lon="7.20151">
        <ele>611</ele>
        <time>2021-02-21T11:04:28.627Z</time>
      </trkpt>
      <trkpt lat="48.49989" lon="7.20151">
        <ele>611</ele>
        <time>2021-02-21T11:05:40.758Z</time>
      </trkpt>
      <trkpt lat="48.49988" lon="7.20151">
        <ele>610</ele>
        <time>2021-02-21T11:05:41.758Z</time>
      </trkpt>
      <trkpt lat="48.49986" lon="7.20151">
        <ele>610</ele>
        <time>2021-02-21T11:05:42.757Z</time>
      </trkpt>
      <trkpt lat="48.49984" lon="7.20151">
        <ele>608</ele>
        <time>2021-02-21T11:05:43.757Z</time>
      </trkpt>
      <trkpt lat="48.49983" lon="7.20151">
        <ele>607</ele>
        <time>2021-02-21T11:06:02.767Z</time>
      </trkpt>
      <trkpt lat="48.49982" lon="7.20151">
        <ele>606</ele>
        <time>2021-02-21T11:06:03.767Z</time>
      </trkpt>
      <trkpt lat="48.4998" lon="7.20152">
        <ele>605</ele>
        <time>2021-02-21T11:06:08.669Z</time>
      </trkpt>
      <trkpt lat="48.49979" lon="7.20152">
        <ele>605</ele>
        <time>2021-02-21T11:06:31.503Z</time>
      </trkpt>
      <trkpt lat="48.49977" lon="7.20153">
        <ele>604</ele>
        <time>2021-02-21T11:06:32.502Z</time>
      </trkpt>
      <trkpt lat="48.49976" lon="7.20153">
        <ele>603</ele>
        <time>2021-02-21T11:06:33.503Z</time>
      </trkpt>
      <trkpt lat="48.49975" lon="7.20154">
        <ele>602</ele>
        <time>2021-02-21T11:07:05.625Z</time>
      </trkpt>
      <trkpt lat="48.49974" lon="7.20155">
        <ele>602</ele>
        <time>2021-02-21T11:07:06.625Z</time>
      </trkpt>
      <trkpt lat="48.49973" lon="7.20156">
        <ele>602</ele>
        <time>2021-02-21T11:07:07.626Z</time>
      </trkpt>
      <trkpt lat="48.49971" lon="7.20158">
        <ele>602</ele>
        <time>2021-02-21T11:07:08.626Z</time>
      </trkpt>
      <trkpt lat="48.4997" lon="7.20159">
        <ele>601</ele>
        <time>2021-02-21T11:07:09.625Z</time>
      </trkpt>
      <trkpt lat="48.49969" lon="7.20161">
        <ele>601</ele>
        <time>2021-02-21T11:07:10.625Z</time>
      </trkpt>
      <trkpt lat="48.49968" lon="7.20162">
        <ele>600</ele>
        <time>2021-02-21T11:07:11.625Z</time>
      </trkpt>
      <trkpt lat="48.49967" lon="7.20164">
        <ele>600</ele>
        <time>2021-02-21T11:08:13.614Z</time>
      </trkpt>
      <trkpt lat="48.49966" lon="7.20166">
        <ele>599</ele>
        <time>2021-02-21T11:08:15.466Z</time>
      </trkpt>
      <trkpt lat="48.49965" lon="7.20168">
        <ele>599</ele>
        <time>2021-02-21T11:08:16.465Z</time>
      </trkpt>
      <trkpt lat="48.49965" lon="7.20169">
        <ele>598</ele>
        <time>2021-02-21T11:08:18.352Z</time>
      </trkpt>
      <trkpt lat="48.49964" lon="7.20171">
        <ele>598</ele>
        <time>2021-02-21T11:08:19.352Z</time>
      </trkpt>
      <trkpt lat="48.49964" lon="7.20173">
        <ele>598</ele>
        <time>2021-02-21T11:09:33.480Z</time>
      </trkpt>
      <trkpt lat="48.49963" lon="7.20175">
        <ele>597</ele>
        <time>2021-02-21T11:09:34.479Z</time>
      </trkpt>
      <trkpt lat="48.49963" lon="7.20177">
        <ele>598</ele>
        <time>2021-02-21T11:09:35.479Z</time>
      </trkpt>
      <trkpt lat="48.49962" lon="7.20178">
        <ele>598</ele>
        <time>2021-02-21T11:11:26.380Z</time>
      </trkpt>
      <trkpt lat="48.49962" lon="7.2018">
        <ele>598</ele>
        <time>2021-02-21T11:11:27.380Z</time>
      </trkpt>
      <trkpt lat="48.49962" lon="7.20182">
        <ele>598</ele>
        <time>2021-02-21T11:11:28.381Z</time>
      </trkpt>
      <trkpt lat="48.49962" lon="7.20184">
        <ele>598</ele>
        <time>2021-02-21T11:11:29.381Z</time>
      </trkpt>
      <trkpt lat="48.49961" lon="7.20186">
        <ele>598</ele>
        <time>2021-02-21T11:11:30.380Z</time>
      </trkpt>
      <trkpt lat="48.49961" lon="7.20187">
        <ele>598</ele>
        <time>2021-02-21T11:11:31.380Z</time>
      </trkpt>
      <trkpt lat="48.49961" lon="7.20189">
        <ele>598</ele>
        <time>2021-02-21T11:11:32.381Z</time>
      </trkpt>
      <trkpt lat="48.49961" lon="7.20191">
        <ele>597</ele>
        <time>2021-02-21T11:11:33.381Z</time>
      </trkpt>
      <trkpt lat="48.4996" lon="7.20193">
        <ele>597</ele>
        <time>2021-02-21T11:11:34.380Z</time>
      </trkpt>
      <trkpt lat="48.4996" lon="7.20195">
        <ele>597</ele>
        <time>2021-02-21T11:11:35.380Z</time>
      </trkpt>
      <trkpt lat="48.4996" lon="7.20197">
        <ele>598</ele>
        <time>2021-02-21T11:11:36.380Z</time>
      </trkpt>
      <trkpt lat="48.4996" lon="7.20199">
        <ele>598</ele>
        <time>2021-02-21T11:11:37.380Z</time>
      </trkpt>
      <trkpt lat="48.4996" lon="7.20201">
        <ele>597</ele>
        <time>2021-02-21T11:11:38.380Z</time>
      </trkpt>
      <trkpt lat="48.49961" lon="7.20203">
        <ele>597</ele>
        <time>2021-02-21T11:11:39.380Z</time>
      </trkpt>
      <trkpt lat="48.49961" lon="7.20205">
        <ele>596</ele>
        <time>2021-02-21T11:11:40.380Z</time>
      </trkpt>
      <trkpt lat="48.49961" lon="7.20207">
        <ele>596</ele>
        <time>2021-02-21T11:11:41.380Z</time>
      </trkpt>
      <trkpt lat="48.49962" lon="7.20209">
        <ele>596</ele>
        <time>2021-02-21T11:11:53.501Z</time>
      </trkpt>
      <trkpt lat="48.49962" lon="7.20212">
        <ele>596</ele>
        <time>2021-02-21T11:11:54.501Z</time>
      </trkpt>
      <trkpt lat="48.49963" lon="7.20214">
        <ele>596</ele>
        <time>2021-02-21T11:11:55.501Z</time>
      </trkpt>
      <trkpt lat="48.49963" lon="7.20216">
        <ele>596</ele>
        <time>2021-02-21T11:11:56.502Z</time>
      </trkpt>
      <trkpt lat="48.49963" lon="7.20218">
        <ele>596</ele>
        <time>2021-02-21T11:11:57.502Z</time>
      </trkpt>
      <trkpt lat="48.49963" lon="7.2022">
        <ele>596</ele>
        <time>2021-02-21T11:11:58.502Z</time>
      </trkpt>
      <trkpt lat="48.49963" lon="7.20222">
        <ele>596</ele>
        <time>2021-02-21T11:11:59.502Z</time>
      </trkpt>
      <trkpt lat="48.49962" lon="7.20224">
        <ele>596</ele>
        <time>2021-02-21T11:12:00.501Z</time>
      </trkpt>
      <trkpt lat="48.49962" lon="7.20225">
        <ele>596</ele>
        <time>2021-02-21T11:12:01.501Z</time>
      </trkpt>
      <trkpt lat="48.49962" lon="7.20227">
        <ele>597</ele>
        <time>2021-02-21T11:12:02.501Z</time>
      </trkpt>
      <trkpt lat="48.49961" lon="7.20229">
        <ele>596</ele>
        <time>2021-02-21T11:12:03.502Z</time>
      </trkpt>
      <trkpt lat="48.4996" lon="7.2023">
        <ele>596</ele>
        <time>2021-02-21T11:12:04.501Z</time>
      </trkpt>
      <trkpt lat="48.4996" lon="7.20232">
        <ele>596</ele>
        <time>2021-02-21T11:12:05.501Z</time>
      </trkpt>
      <trkpt lat="48.49959" lon="7.20233">
        <ele>596</ele>
        <time>2021-02-21T11:12:06.501Z</time>
      </trkpt>
      <trkpt lat="48.49959" lon="7.20234">
        <ele>596</ele>
        <time>2021-02-21T11:12:07.502Z</time>
      </trkpt>
      <trkpt lat="48.49958" lon="7.20237">
        <ele>597</ele>
        <time>2021-02-21T11:12:08.502Z</time>
      </trkpt>
      <trkpt lat="48.49957" lon="7.20238">
        <ele>597</ele>
        <time>2021-02-21T11:12:09.502Z</time>
      </trkpt>
      <trkpt lat="48.49956" lon="7.2024">
        <ele>597</ele>
        <time>2021-02-21T11:12:10.501Z</time>
      </trkpt>
      <trkpt lat="48.49956" lon="7.20241">
        <ele>597</ele>
        <time>2021-02-21T11:12:11.502Z</time>
      </trkpt>
      <trkpt lat="48.49956" lon="7.20241">
        <ele>597</ele>
        <time>2021-02-21T11:12:12.502Z</time>
      </trkpt>
      <trkpt lat="48.49956" lon="7.20242">
        <ele>596</ele>
        <time>2021-02-21T11:12:13.502Z</time>
      </trkpt>
      <trkpt lat="48.49957" lon="7.20241">
        <ele>596</ele>
        <time>2021-02-21T11:12:14.502Z</time>
      </trkpt>
      <trkpt lat="48.49958" lon="7.2024">
        <ele>596</ele>
        <time>2021-02-21T11:12:15.502Z</time>
      </trkpt>
      <trkpt lat="48.49959" lon="7.2024">
        <ele>596</ele>
        <time>2021-02-21T11:12:16.502Z</time>
      </trkpt>
      <trkpt lat="48.4996" lon="7.20239">
        <ele>597</ele>
        <time>2021-02-21T11:12:17.501Z</time>
      </trkpt>
      <trkpt lat="48.49961" lon="7.20238">
        <ele>597</ele>
        <time>2021-02-21T11:12:18.501Z</time>
      </trkpt>
      <trkpt lat="48.49961" lon="7.20236">
        <ele>597</ele>
        <time>2021-02-21T11:12:19.502Z</time>
      </trkpt>
      <trkpt lat="48.49962" lon="7.20235">
        <ele>597</ele>
        <time>2021-02-21T11:12:20.502Z</time>
      </trkpt>
      <trkpt lat="48.49963" lon="7.20233">
        <ele>597</ele>
        <time>2021-02-21T11:12:21.502Z</time>
      </trkpt>
      <trkpt lat="48.49964" lon="7.20232">
        <ele>597</ele>
        <time>2021-02-21T11:12:22.501Z</time>
      </trkpt>
      <trkpt lat="48.49965" lon="7.20232">
        <ele>598</ele>
        <time>2021-02-21T11:12:23.502Z</time>
      </trkpt>
      <trkpt lat="48.49965" lon="7.20232">
        <ele>598</ele>
        <time>2021-02-21T11:12:24.502Z</time>
      </trkpt>
      <trkpt lat="48.49966" lon="7.20233">
        <ele>598</ele>
        <time>2021-02-21T11:12:25.502Z</time>
      </trkpt>
      <trkpt lat="48.49966" lon="7.20233">
        <ele>598</ele>
        <time>2021-02-21T11:12:26.502Z</time>
      </trkpt>
      <trkpt lat="48.49966" lon="7.20233">
        <ele>598</ele>
        <time>2021-02-21T11:12:27.502Z</time>
      </trkpt>
      <trkpt lat="48.49966" lon="7.20233">
        <ele>598</ele>
        <time>2021-02-21T11:12:28.502Z</time>
      </trkpt>
      <trkpt lat="48.49965" lon="7.20232">
        <ele>595</ele>
        <time>2021-02-21T11:12:29.503Z</time>
      </trkpt>
      <trkpt lat="48.49966" lon="7.20231">
        <ele>595</ele>
        <time>2021-02-21T11:12:30.503Z</time>
      </trkpt>
      <trkpt lat="48.49967" lon="7.20229">
        <ele>595</ele>
        <time>2021-02-21T11:12:31.503Z</time>
      </trkpt>
      <trkpt lat="48.49969" lon="7.20228">
        <ele>595</ele>
        <time>2021-02-21T11:12:32.504Z</time>
      </trkpt>
      <trkpt lat="48.49969" lon="7.20227">
        <ele>596</ele>
        <time>2021-02-21T11:12:33.503Z</time>
      </trkpt>
      <trkpt lat="48.4997" lon="7.20227">
        <ele>596</ele>
        <time>2021-02-21T11:12:34.504Z</time>
      </trkpt>
      <trkpt lat="48.49969" lon="7.20226">
        <ele>596</ele>
        <time>2021-02-21T11:12:35.503Z</time>
      </trkpt>
      <trkpt lat="48.49969" lon="7.20226">
        <ele>597</ele>
        <time>2021-02-21T11:12:38.603Z</time>
      </trkpt>
      <trkpt lat="48.49969" lon="7.20225">
        <ele>597</ele>
        <time>2021-02-21T11:12:39.602Z</time>
      </trkpt>
      <trkpt lat="48.49968" lon="7.20226">
        <ele>597</ele>
        <time>2021-02-21T11:12:40.602Z</time>
      </trkpt>
      <trkpt lat="48.49968" lon="7.20227">
        <ele>597</ele>
        <time>2021-02-21T11:12:41.603Z</time>
      </trkpt>
      <trkpt lat="48.49967" lon="7.20228">
        <ele>597</ele>
        <time>2021-02-21T11:12:42.602Z</time>
      </trkpt>
      <trkpt lat="48.49967" lon="7.20229">
        <ele>597</ele>
        <time>2021-02-21T11:13:53.763Z</time>
      </trkpt>
      <trkpt lat="48.49966" lon="7.2023">
        <ele>597</ele>
        <time>2021-02-21T11:13:54.763Z</time>
      </trkpt>
      <trkpt lat="48.49965" lon="7.2023">
        <ele>596</ele>
        <time>2021-02-21T11:13:55.762Z</time>
      </trkpt>
      <trkpt lat="48.49965" lon="7.20231">
        <ele>596</ele>
        <time>2021-02-21T11:13:56.763Z</time>
      </trkpt>
      <trkpt lat="48.49964" lon="7.2023">
        <ele>596</ele>
        <time>2021-02-21T11:13:57.762Z</time>
      </trkpt>
      <trkpt lat="48.49963" lon="7.2023">
        <ele>595</ele>
        <time>2021-02-21T11:13:58.762Z</time>
      </trkpt>
      <trkpt lat="48.49961" lon="7.20233">
        <ele>594</ele>
        <time>2021-02-21T11:13:59.764Z</time>
      </trkpt>
      <trkpt lat="48.4996" lon="7.20234">
        <ele>594</ele>
        <time>2021-02-21T11:14:00.764Z</time>
      </trkpt>
      <trkpt lat="48.49959" lon="7.20235">
        <ele>594</ele>
        <time>2021-02-21T11:14:01.764Z</time>
      </trkpt>
      <trkpt lat="48.49958" lon="7.20236">
        <ele>594</ele>
        <time>2021-02-21T11:14:02.764Z</time>
      </trkpt>
      <trkpt lat="48.49957" lon="7.20237">
        <ele>594</ele>
        <time>2021-02-21T11:14:03.764Z</time>
      </trkpt>
      <trkpt lat="48.49957" lon="7.20237">
        <ele>594</ele>
        <time>2021-02-21T11:14:04.764Z</time>
      </trkpt>
      <trkpt lat="48.49957" lon="7.20238">
        <ele>594</ele>
        <time>2021-02-21T11:14:05.764Z</time>
      </trkpt>
      <trkpt lat="48.49957" lon="7.20239">
        <ele>595</ele>
        <time>2021-02-21T11:14:06.763Z</time>
      </trkpt>
      <trkpt lat="48.49961" lon="7.20235">
        <ele>593</ele>
        <time>2021-02-21T11:14:07.764Z</time>
      </trkpt>
      <trkpt lat="48.49961" lon="7.20235">
        <ele>593</ele>
        <time>2021-02-21T11:14:08.764Z</time>
      </trkpt>
      <trkpt lat="48.49962" lon="7.20236">
        <ele>593</ele>
        <time>2021-02-21T11:14:09.763Z</time>
      </trkpt>
      <trkpt lat="48.49962" lon="7.20236">
        <ele>593</ele>
        <time>2021-02-21T11:14:10.763Z</time>
      </trkpt>
      <trkpt lat="48.49964" lon="7.20235">
        <ele>595</ele>
        <time>2021-02-21T11:14:11.764Z</time>
      </trkpt>
      <trkpt lat="48.49963" lon="7.20234">
        <ele>596</ele>
        <time>2021-02-21T11:14:12.765Z</time>
      </trkpt>
      <trkpt lat="48.49963" lon="7.20233">
        <ele>596</ele>
        <time>2021-02-21T11:14:13.765Z</time>
      </trkpt>
      <trkpt lat="48.49963" lon="7.20232">
        <ele>596</ele>
        <time>2021-02-21T11:14:14.765Z</time>
      </trkpt>
      <trkpt lat="48.49963" lon="7.20232">
        <ele>597</ele>
        <time>2021-02-21T11:14:15.765Z</time>
      </trkpt>
      <trkpt lat="48.49964" lon="7.20232">
        <ele>597</ele>
        <time>2021-02-21T11:14:16.765Z</time>
      </trkpt>
      <trkpt lat="48.49963" lon="7.20232">
        <ele>596</ele>
        <time>2021-02-21T11:14:35.872Z</time>
      </trkpt>
      <trkpt lat="48.49962" lon="7.20232">
        <ele>593</ele>
        <time>2021-02-21T11:14:36.871Z</time>
      </trkpt>
      <trkpt lat="48.49962" lon="7.20231">
        <ele>594</ele>
        <time>2021-02-21T11:14:44.767Z</time>
      </trkpt>
      <trkpt lat="48.49961" lon="7.20231">
        <ele>594</ele>
        <time>2021-02-21T11:14:45.767Z</time>
      </trkpt>
      <trkpt lat="48.49958" lon="7.20238">
        <ele>592</ele>
        <time>2021-02-21T11:14:46.768Z</time>
      </trkpt>
      <trkpt lat="48.49957" lon="7.20238">
        <ele>592</ele>
        <time>2021-02-21T11:14:47.768Z</time>
      </trkpt>
      <trkpt lat="48.49957" lon="7.20238">
        <ele>592</ele>
        <time>2021-02-21T11:14:48.768Z</time>
      </trkpt>
      <trkpt lat="48.49957" lon="7.20238">
        <ele>593</ele>
        <time>2021-02-21T11:15:36.869Z</time>
      </trkpt>
      <trkpt lat="48.49957" lon="7.20238">
        <ele>593</ele>
        <time>2021-02-21T11:15:37.869Z</time>
      </trkpt>
      <trkpt lat="48.49957" lon="7.20238">
        <ele>594</ele>
        <time>2021-02-21T11:15:38.869Z</time>
      </trkpt>
      <trkpt lat="48.49959" lon="7.20237">
        <ele>598</ele>
        <time>2021-02-21T11:15:39.871Z</time>
      </trkpt>
      <trkpt lat="48.49959" lon="7.20236">
        <ele>598</ele>
        <time>2021-02-21T11:15:40.870Z</time>
      </trkpt>
      <trkpt lat="48.4996" lon="7.20236">
        <ele>598</ele>
        <time>2021-02-21T11:15:41.870Z</time>
      </trkpt>
      <trkpt lat="48.49961" lon="7.20234">
        <ele>598</ele>
        <time>2021-02-21T11:15:42.871Z</time>
      </trkpt>
      <trkpt lat="48.49961" lon="7.20233">
        <ele>597</ele>
        <time>2021-02-21T11:15:43.871Z</time>
      </trkpt>
      <trkpt lat="48.49956" lon="7.20232">
        <ele>597</ele>
        <time>2021-02-21T11:15:44.870Z</time>
      </trkpt>
      <trkpt lat="48.49956" lon="7.20231">
        <ele>597</ele>
        <time>2021-02-21T11:15:45.871Z</time>
      </trkpt>
      <trkpt lat="48.49955" lon="7.2023">
        <ele>597</ele>
        <time>2021-02-21T11:15:46.871Z</time>
      </trkpt>
      <trkpt lat="48.49955" lon="7.20229">
        <ele>597</ele>
        <time>2021-02-21T11:15:47.871Z</time>
      </trkpt>
      <trkpt lat="48.49955" lon="7.20225">
        <ele>597</ele>
        <time>2021-02-21T11:15:48.871Z</time>
      </trkpt>
      <trkpt lat="48.49955" lon="7.20225">
        <ele>597</ele>
        <time>2021-02-21T11:15:49.871Z</time>
      </trkpt>
      <trkpt lat="48.49955" lon="7.20234">
        <ele>601</ele>
        <time>2021-02-21T11:15:50.872Z</time>
      </trkpt>
      <trkpt lat="48.49955" lon="7.20237">
        <ele>601</ele>
        <time>2021-02-21T11:15:51.871Z</time>
      </trkpt>
      <trkpt lat="48.49955" lon="7.20238">
        <ele>601</ele>
        <time>2021-02-21T11:15:52.872Z</time>
      </trkpt>
      <trkpt lat="48.49955" lon="7.20239">
        <ele>600</ele>
        <time>2021-02-21T11:15:53.872Z</time>
      </trkpt>
      <trkpt lat="48.49956" lon="7.20239">
        <ele>600</ele>
        <time>2021-02-21T11:15:54.872Z</time>
      </trkpt>
      <trkpt lat="48.49958" lon="7.20241">
        <ele>596</ele>
        <time>2021-02-21T11:15:55.873Z</time>
      </trkpt>
      <trkpt lat="48.49956" lon="7.20242">
        <ele>596</ele>
        <time>2021-02-21T11:15:56.872Z</time>
      </trkpt>
      <trkpt lat="48.49955" lon="7.20242">
        <ele>597</ele>
        <time>2021-02-21T11:15:57.872Z</time>
      </trkpt>
      <trkpt lat="48.49954" lon="7.20241">
        <ele>597</ele>
        <time>2021-02-21T11:15:58.873Z</time>
      </trkpt>
      <trkpt lat="48.49954" lon="7.20242">
        <ele>597</ele>
        <time>2021-02-21T11:15:59.873Z</time>
      </trkpt>
      <trkpt lat="48.49954" lon="7.20242">
        <ele>597</ele>
        <time>2021-02-21T11:16:00.873Z</time>
      </trkpt>
      <trkpt lat="48.49954" lon="7.20242">
        <ele>597</ele>
        <time>2021-02-21T11:16:01.873Z</time>
      </trkpt>
      <trkpt lat="48.49954" lon="7.20242">
        <ele>597</ele>
        <time>2021-02-21T11:16:03.889Z</time>
      </trkpt>
      <trkpt lat="48.49955" lon="7.20241">
        <ele>597</ele>
        <time>2021-02-21T11:16:04.888Z</time>
      </trkpt>
      <trkpt lat="48.49957" lon="7.20236">
        <ele>600</ele>
        <time>2021-02-21T11:16:05.890Z</time>
      </trkpt>
      <trkpt lat="48.49957" lon="7.20236">
        <ele>600</ele>
        <time>2021-02-21T11:16:06.890Z</time>
      </trkpt>
      <trkpt lat="48.49957" lon="7.20235">
        <ele>600</ele>
        <time>2021-02-21T11:16:07.889Z</time>
      </trkpt>
      <trkpt lat="48.49957" lon="7.20234">
        <ele>600</ele>
        <time>2021-02-21T11:16:08.889Z</time>
      </trkpt>
      <trkpt lat="48.49958" lon="7.20234">
        <ele>600</ele>
        <time>2021-02-21T11:16:09.890Z</time>
      </trkpt>
      <trkpt lat="48.49958" lon="7.20234">
        <ele>601</ele>
        <time>2021-02-21T11:16:10.890Z</time>
      </trkpt>
      <trkpt lat="48.49959" lon="7.20234">
        <ele>601</ele>
        <time>2021-02-21T11:16:11.890Z</time>
      </trkpt>
      <trkpt lat="48.49959" lon="7.20234">
        <ele>601</ele>
        <time>2021-02-21T11:16:12.890Z</time>
      </trkpt>
      <trkpt lat="48.49959" lon="7.20235">
        <ele>601</ele>
        <time>2021-02-21T11:16:13.890Z</time>
      </trkpt>
      <trkpt lat="48.49959" lon="7.20235">
        <ele>601</ele>
        <time>2021-02-21T11:16:14.890Z</time>
      </trkpt>
      <trkpt lat="48.49956" lon="7.20242">
        <ele>599</ele>
        <time>2021-02-21T11:16:15.891Z</time>
      </trkpt>
      <trkpt lat="48.49956" lon="7.20242">
        <ele>599</ele>
        <time>2021-02-21T11:16:16.890Z</time>
      </trkpt>
      <trkpt lat="48.49955" lon="7.20242">
        <ele>599</ele>
        <time>2021-02-21T11:16:17.890Z</time>
      </trkpt>
      <trkpt lat="48.49954" lon="7.20242">
        <ele>601</ele>
        <time>2021-02-21T11:16:18.893Z</time>
      </trkpt>
      <trkpt lat="48.49957" lon="7.20239">
        <ele>601</ele>
        <time>2021-02-21T11:16:19.892Z</time>
      </trkpt>
      <trkpt lat="48.49956" lon="7.2024">
        <ele>601</ele>
        <time>2021-02-21T11:16:20.893Z</time>
      </trkpt>
      <trkpt lat="48.49956" lon="7.2024">
        <ele>601</ele>
        <time>2021-02-21T11:16:21.893Z</time>
      </trkpt>
      <trkpt lat="48.49955" lon="7.2024">
        <ele>600</ele>
        <time>2021-02-21T11:16:22.893Z</time>
      </trkpt>
      <trkpt lat="48.49958" lon="7.20237">
        <ele>600</ele>
        <time>2021-02-21T11:16:23.892Z</time>
      </trkpt>
      <trkpt lat="48.49958" lon="7.20237">
        <ele>602</ele>
        <time>2021-02-21T11:16:24.893Z</time>
      </trkpt>
      <trkpt lat="48.49958" lon="7.20237">
        <ele>602</ele>
        <time>2021-02-21T11:16:25.893Z</time>
      </trkpt>
      <trkpt lat="48.49956" lon="7.20247">
        <ele>607</ele>
        <time>2021-02-21T11:16:26.894Z</time>
      </trkpt>
      <trkpt lat="48.49956" lon="7.20248">
        <ele>607</ele>
        <time>2021-02-21T11:16:27.894Z</time>
      </trkpt>
      <trkpt lat="48.49956" lon="7.20249">
        <ele>606</ele>
        <time>2021-02-21T11:16:28.894Z</time>
      </trkpt>
      <trkpt lat="48.49956" lon="7.20251">
        <ele>606</ele>
        <time>2021-02-21T11:16:29.893Z</time>
      </trkpt>
      <trkpt lat="48.49956" lon="7.20253">
        <ele>605</ele>
        <time>2021-02-21T11:16:30.894Z</time>
      </trkpt>
      <trkpt lat="48.49956" lon="7.20255">
        <ele>604</ele>
        <time>2021-02-21T11:16:31.894Z</time>
      </trkpt>
      <trkpt lat="48.49955" lon="7.20257">
        <ele>603</ele>
        <time>2021-02-21T11:16:32.894Z</time>
      </trkpt>
      <trkpt lat="48.49955" lon="7.20259">
        <ele>603</ele>
        <time>2021-02-21T11:16:33.894Z</time>
      </trkpt>
      <trkpt lat="48.49955" lon="7.2026">
        <ele>603</ele>
        <time>2021-02-21T11:16:34.894Z</time>
      </trkpt>
      <trkpt lat="48.49956" lon="7.20261">
        <ele>603</ele>
        <time>2021-02-21T11:16:35.894Z</time>
      </trkpt>
      <trkpt lat="48.49956" lon="7.20262">
        <ele>603</ele>
        <time>2021-02-21T11:16:36.894Z</time>
      </trkpt>
      <trkpt lat="48.49956" lon="7.20263">
        <ele>603</ele>
        <time>2021-02-21T11:16:37.894Z</time>
      </trkpt>
      <trkpt lat="48.49956" lon="7.20264">
        <ele>603</ele>
        <time>2021-02-21T11:16:38.894Z</time>
      </trkpt>
      <trkpt lat="48.49956" lon="7.20266">
        <ele>602</ele>
        <time>2021-02-21T11:16:39.894Z</time>
      </trkpt>
      <trkpt lat="48.49956" lon="7.20267">
        <ele>602</ele>
        <time>2021-02-21T11:16:40.893Z</time>
      </trkpt>
      <trkpt lat="48.49957" lon="7.20268">
        <ele>603</ele>
        <time>2021-02-21T11:16:41.894Z</time>
      </trkpt>
      <trkpt lat="48.49957" lon="7.20268">
        <ele>603</ele>
        <time>2021-02-21T11:16:42.894Z</time>
      </trkpt>
      <trkpt lat="48.49958" lon="7.2027">
        <ele>604</ele>
        <time>2021-02-21T11:16:43.893Z</time>
      </trkpt>
      <trkpt lat="48.49959" lon="7.2027">
        <ele>605</ele>
        <time>2021-02-21T11:16:44.894Z</time>
      </trkpt>
      <trkpt lat="48.4996" lon="7.20272">
        <ele>605</ele>
        <time>2021-02-21T11:16:45.893Z</time>
      </trkpt>
      <trkpt lat="48.49962" lon="7.20273">
        <ele>606</ele>
        <time>2021-02-21T11:16:46.894Z</time>
      </trkpt>
      <trkpt lat="48.49963" lon="7.20274">
        <ele>607</ele>
        <time>2021-02-21T11:16:47.894Z</time>
      </trkpt>
      <trkpt lat="48.49964" lon="7.20275">
        <ele>607</ele>
        <time>2021-02-21T11:16:48.894Z</time>
      </trkpt>
      <trkpt lat="48.49965" lon="7.20275">
        <ele>608</ele>
        <time>2021-02-21T11:16:49.894Z</time>
      </trkpt>
      <trkpt lat="48.49966" lon="7.20275">
        <ele>608</ele>
        <time>2021-02-21T11:16:50.894Z</time>
      </trkpt>
      <trkpt lat="48.49967" lon="7.20274">
        <ele>608</ele>
        <time>2021-02-21T11:16:51.894Z</time>
      </trkpt>
      <trkpt lat="48.49967" lon="7.20273">
        <ele>608</ele>
        <time>2021-02-21T11:16:52.894Z</time>
      </trkpt>
      <trkpt lat="48.49968" lon="7.20272">
        <ele>608</ele>
        <time>2021-02-21T11:16:53.894Z</time>
      </trkpt>
      <trkpt lat="48.49969" lon="7.20271">
        <ele>608</ele>
        <time>2021-02-21T11:16:54.893Z</time>
      </trkpt>
      <trkpt lat="48.49969" lon="7.2027">
        <ele>608</ele>
        <time>2021-02-21T11:16:55.893Z</time>
      </trkpt>
      <trkpt lat="48.4997" lon="7.2027">
        <ele>608</ele>
        <time>2021-02-21T11:16:56.894Z</time>
      </trkpt>
      <trkpt lat="48.49971" lon="7.20269">
        <ele>608</ele>
        <time>2021-02-21T11:16:57.894Z</time>
      </trkpt>
      <trkpt lat="48.49972" lon="7.20269">
        <ele>608</ele>
        <time>2021-02-21T11:16:58.893Z</time>
      </trkpt>
      <trkpt lat="48.49973" lon="7.20268">
        <ele>608</ele>
        <time>2021-02-21T11:16:59.893Z</time>
      </trkpt>
      <trkpt lat="48.49974" lon="7.20267">
        <ele>608</ele>
        <time>2021-02-21T11:17:00.893Z</time>
      </trkpt>
      <trkpt lat="48.49975" lon="7.20266">
        <ele>608</ele>
        <time>2021-02-21T11:17:01.894Z</time>
      </trkpt>
      <trkpt lat="48.49976" lon="7.20264">
        <ele>608</ele>
        <time>2021-02-21T11:17:03.988Z</time>
      </trkpt>
      <trkpt lat="48.49977" lon="7.20264">
        <ele>608</ele>
        <time>2021-02-21T11:17:04.988Z</time>
      </trkpt>
      <trkpt lat="48.49978" lon="7.20263">
        <ele>608</ele>
        <time>2021-02-21T11:17:05.988Z</time>
      </trkpt>
      <trkpt lat="48.49979" lon="7.20262">
        <ele>608</ele>
        <time>2021-02-21T11:17:06.988Z</time>
      </trkpt>
      <trkpt lat="48.4998" lon="7.20261">
        <ele>608</ele>
        <time>2021-02-21T11:17:07.988Z</time>
      </trkpt>
      <trkpt lat="48.49981" lon="7.2026">
        <ele>608</ele>
        <time>2021-02-21T11:17:08.988Z</time>
      </trkpt>
      <trkpt lat="48.49982" lon="7.2026">
        <ele>608</ele>
        <time>2021-02-21T11:17:09.988Z</time>
      </trkpt>
      <trkpt lat="48.49983" lon="7.20259">
        <ele>608</ele>
        <time>2021-02-21T11:17:10.987Z</time>
      </trkpt>
      <trkpt lat="48.49984" lon="7.20258">
        <ele>607</ele>
        <time>2021-02-21T11:17:11.988Z</time>
      </trkpt>
      <trkpt lat="48.49986" lon="7.20257">
        <ele>607</ele>
        <time>2021-02-21T11:17:12.988Z</time>
      </trkpt>
      <trkpt lat="48.49987" lon="7.20256">
        <ele>608</ele>
        <time>2021-02-21T11:17:13.988Z</time>
      </trkpt>
      <trkpt lat="48.49987" lon="7.20255">
        <ele>608</ele>
        <time>2021-02-21T11:17:14.987Z</time>
      </trkpt>
      <trkpt lat="48.49988" lon="7.20253">
        <ele>608</ele>
        <time>2021-02-21T11:17:15.987Z</time>
      </trkpt>
      <trkpt lat="48.49989" lon="7.20253">
        <ele>608</ele>
        <time>2021-02-21T11:17:16.988Z</time>
      </trkpt>
      <trkpt lat="48.49991" lon="7.20252">
        <ele>608</ele>
        <time>2021-02-21T11:17:17.988Z</time>
      </trkpt>
      <trkpt lat="48.49992" lon="7.20251">
        <ele>609</ele>
        <time>2021-02-21T11:17:18.988Z</time>
      </trkpt>
      <trkpt lat="48.49993" lon="7.20251">
        <ele>609</ele>
        <time>2021-02-21T11:17:19.988Z</time>
      </trkpt>
      <trkpt lat="48.49994" lon="7.2025">
        <ele>610</ele>
        <time>2021-02-21T11:17:20.988Z</time>
      </trkpt>
      <trkpt lat="48.49994" lon="7.20249">
        <ele>610</ele>
        <time>2021-02-21T11:17:21.988Z</time>
      </trkpt>
      <trkpt lat="48.49995" lon="7.20248">
        <ele>610</ele>
        <time>2021-02-21T11:17:22.987Z</time>
      </trkpt>
      <trkpt lat="48.49996" lon="7.20248">
        <ele>610</ele>
        <time>2021-02-21T11:17:23.987Z</time>
      </trkpt>
      <trkpt lat="48.49997" lon="7.20248">
        <ele>610</ele>
        <time>2021-02-21T11:17:24.988Z</time>
      </trkpt>
      <trkpt lat="48.49998" lon="7.20247">
        <ele>610</ele>
        <time>2021-02-21T11:17:25.987Z</time>
      </trkpt>
      <trkpt lat="48.49999" lon="7.20246">
        <ele>610</ele>
        <time>2021-02-21T11:17:26.988Z</time>
      </trkpt>
      <trkpt lat="48.5" lon="7.20245">
        <ele>610</ele>
        <time>2021-02-21T11:17:27.988Z</time>
      </trkpt>
      <trkpt lat="48.50001" lon="7.20244">
        <ele>610</ele>
        <time>2021-02-21T11:17:28.988Z</time>
      </trkpt>
      <trkpt lat="48.50002" lon="7.20243">
        <ele>610</ele>
        <time>2021-02-21T11:17:29.988Z</time>
      </trkpt>
      <trkpt lat="48.50004" lon="7.20243">
        <ele>610</ele>
        <time>2021-02-21T11:17:30.987Z</time>
      </trkpt>
      <trkpt lat="48.50004" lon="7.20242">
        <ele>611</ele>
        <time>2021-02-21T11:17:31.988Z</time>
      </trkpt>
      <trkpt lat="48.50005" lon="7.20241">
        <ele>611</ele>
        <time>2021-02-21T11:17:32.988Z</time>
      </trkpt>
      <trkpt lat="48.50006" lon="7.2024">
        <ele>611</ele>
        <time>2021-02-21T11:17:33.987Z</time>
      </trkpt>
      <trkpt lat="48.50007" lon="7.20239">
        <ele>612</ele>
        <time>2021-02-21T11:17:34.988Z</time>
      </trkpt>
      <trkpt lat="48.50008" lon="7.20238">
        <ele>612</ele>
        <time>2021-02-21T11:17:35.988Z</time>
      </trkpt>
      <trkpt lat="48.50009" lon="7.20237">
        <ele>612</ele>
        <time>2021-02-21T11:17:36.987Z</time>
      </trkpt>
      <trkpt lat="48.5001" lon="7.20235">
        <ele>612</ele>
        <time>2021-02-21T11:17:37.988Z</time>
      </trkpt>
      <trkpt lat="48.50012" lon="7.20234">
        <ele>613</ele>
        <time>2021-02-21T11:17:38.987Z</time>
      </trkpt>
      <trkpt lat="48.50012" lon="7.20233">
        <ele>613</ele>
        <time>2021-02-21T11:17:39.987Z</time>
      </trkpt>
      <trkpt lat="48.50013" lon="7.20234">
        <ele>613</ele>
        <time>2021-02-21T11:17:40.988Z</time>
      </trkpt>
      <trkpt lat="48.50013" lon="7.20235">
        <ele>613</ele>
        <time>2021-02-21T11:17:41.988Z</time>
      </trkpt>
      <trkpt lat="48.50014" lon="7.20234">
        <ele>612</ele>
        <time>2021-02-21T11:17:42.987Z</time>
      </trkpt>
      <trkpt lat="48.50014" lon="7.20233">
        <ele>612</ele>
        <time>2021-02-21T11:17:43.987Z</time>
      </trkpt>
      <trkpt lat="48.50015" lon="7.20232">
        <ele>612</ele>
        <time>2021-02-21T11:17:44.988Z</time>
      </trkpt>
      <trkpt lat="48.50016" lon="7.20232">
        <ele>612</ele>
        <time>2021-02-21T11:17:45.988Z</time>
      </trkpt>
      <trkpt lat="48.50016" lon="7.20229">
        <ele>612</ele>
        <time>2021-02-21T11:17:46.987Z</time>
      </trkpt>
      <trkpt lat="48.50017" lon="7.20228">
        <ele>613</ele>
        <time>2021-02-21T11:17:47.988Z</time>
      </trkpt>
      <trkpt lat="48.50018" lon="7.20226">
        <ele>613</ele>
        <time>2021-02-21T11:17:48.987Z</time>
      </trkpt>
      <trkpt lat="48.50018" lon="7.20226">
        <ele>613</ele>
        <time>2021-02-21T11:17:49.987Z</time>
      </trkpt>
      <trkpt lat="48.50017" lon="7.20228">
        <ele>613</ele>
        <time>2021-02-21T11:17:50.987Z</time>
      </trkpt>
      <trkpt lat="48.50016" lon="7.20229">
        <ele>613</ele>
        <time>2021-02-21T11:17:51.988Z</time>
      </trkpt>
      <trkpt lat="48.50016" lon="7.2023">
        <ele>615</ele>
        <time>2021-02-21T11:17:52.987Z</time>
      </trkpt>
      <trkpt lat="48.50017" lon="7.20229">
        <ele>615</ele>
        <time>2021-02-21T11:17:53.988Z</time>
      </trkpt>
      <trkpt lat="48.50017" lon="7.20228">
        <ele>616</ele>
        <time>2021-02-21T11:17:54.988Z</time>
      </trkpt>
      <trkpt lat="48.50018" lon="7.20228">
        <ele>616</ele>
        <time>2021-02-21T11:17:55.987Z</time>
      </trkpt>
      <trkpt lat="48.50019" lon="7.20228">
        <ele>617</ele>
        <time>2021-02-21T11:17:56.988Z</time>
      </trkpt>
      <trkpt lat="48.5002" lon="7.20228">
        <ele>617</ele>
        <time>2021-02-21T11:17:57.988Z</time>
      </trkpt>
      <trkpt lat="48.5002" lon="7.20227">
        <ele>617</ele>
        <time>2021-02-21T11:17:58.987Z</time>
      </trkpt>
      <trkpt lat="48.50021" lon="7.20227">
        <ele>617</ele>
        <time>2021-02-21T11:17:59.988Z</time>
      </trkpt>
      <trkpt lat="48.50023" lon="7.20226">
        <ele>617</ele>
        <time>2021-02-21T11:18:00.988Z</time>
      </trkpt>
      <trkpt lat="48.50024" lon="7.20225">
        <ele>617</ele>
        <time>2021-02-21T11:18:01.988Z</time>
      </trkpt>
      <trkpt lat="48.50025" lon="7.20225">
        <ele>617</ele>
        <time>2021-02-21T11:18:02.987Z</time>
      </trkpt>
      <trkpt lat="48.50026" lon="7.20224">
        <ele>617</ele>
        <time>2021-02-21T11:18:03.988Z</time>
      </trkpt>
      <trkpt lat="48.50027" lon="7.20224">
        <ele>617</ele>
        <time>2021-02-21T11:18:04.987Z</time>
      </trkpt>
      <trkpt lat="48.50029" lon="7.20223">
        <ele>618</ele>
        <time>2021-02-21T11:18:05.987Z</time>
      </trkpt>
      <trkpt lat="48.5003" lon="7.20222">
        <ele>618</ele>
        <time>2021-02-21T11:18:06.988Z</time>
      </trkpt>
      <trkpt lat="48.50031" lon="7.20222">
        <ele>618</ele>
        <time>2021-02-21T11:18:07.987Z</time>
      </trkpt>
      <trkpt lat="48.50032" lon="7.20221">
        <ele>619</ele>
        <time>2021-02-21T11:18:08.988Z</time>
      </trkpt>
      <trkpt lat="48.50033" lon="7.2022">
        <ele>619</ele>
        <time>2021-02-21T11:18:09.988Z</time>
      </trkpt>
      <trkpt lat="48.50034" lon="7.20219">
        <ele>620</ele>
        <time>2021-02-21T11:18:10.988Z</time>
      </trkpt>
      <trkpt lat="48.50035" lon="7.20218">
        <ele>620</ele>
        <time>2021-02-21T11:18:11.988Z</time>
      </trkpt>
      <trkpt lat="48.50036" lon="7.20217">
        <ele>620</ele>
        <time>2021-02-21T11:18:12.987Z</time>
      </trkpt>
      <trkpt lat="48.50038" lon="7.20215">
        <ele>621</ele>
        <time>2021-02-21T11:18:13.988Z</time>
      </trkpt>
      <trkpt lat="48.5004" lon="7.20213">
        <ele>621</ele>
        <time>2021-02-21T11:18:14.987Z</time>
      </trkpt>
      <trkpt lat="48.50042" lon="7.20211">
        <ele>621</ele>
        <time>2021-02-21T11:18:15.988Z</time>
      </trkpt>
      <trkpt lat="48.50044" lon="7.20209">
        <ele>622</ele>
        <time>2021-02-21T11:18:16.988Z</time>
      </trkpt>
      <trkpt lat="48.50045" lon="7.20208">
        <ele>622</ele>
        <time>2021-02-21T11:18:17.987Z</time>
      </trkpt>
      <trkpt lat="48.50047" lon="7.20207">
        <ele>622</ele>
        <time>2021-02-21T11:18:18.987Z</time>
      </trkpt>
      <trkpt lat="48.50048" lon="7.20206">
        <ele>623</ele>
        <time>2021-02-21T11:18:19.988Z</time>
      </trkpt>
      <trkpt lat="48.5005" lon="7.20205">
        <ele>623</ele>
        <time>2021-02-21T11:18:20.988Z</time>
      </trkpt>
      <trkpt lat="48.50051" lon="7.20204">
        <ele>623</ele>
        <time>2021-02-21T11:18:21.988Z</time>
      </trkpt>
      <trkpt lat="48.50052" lon="7.20203">
        <ele>623</ele>
        <time>2021-02-21T11:18:22.987Z</time>
      </trkpt>
      <trkpt lat="48.50053" lon="7.20202">
        <ele>624</ele>
        <time>2021-02-21T11:18:23.987Z</time>
      </trkpt>
      <trkpt lat="48.50054" lon="7.202">
        <ele>624</ele>
        <time>2021-02-21T11:18:24.988Z</time>
      </trkpt>
      <trkpt lat="48.50055" lon="7.20198">
        <ele>625</ele>
        <time>2021-02-21T11:18:25.987Z</time>
      </trkpt>
      <trkpt lat="48.50056" lon="7.20197">
        <ele>625</ele>
        <time>2021-02-21T11:18:26.988Z</time>
      </trkpt>
      <trkpt lat="48.50056" lon="7.20196">
        <ele>625</ele>
        <time>2021-02-21T11:18:27.988Z</time>
      </trkpt>
      <trkpt lat="48.50057" lon="7.20195">
        <ele>626</ele>
        <time>2021-02-21T11:18:28.988Z</time>
      </trkpt>
      <trkpt lat="48.50059" lon="7.20194">
        <ele>626</ele>
        <time>2021-02-21T11:18:29.987Z</time>
      </trkpt>
      <trkpt lat="48.5006" lon="7.20193">
        <ele>626</ele>
        <time>2021-02-21T11:18:30.988Z</time>
      </trkpt>
      <trkpt lat="48.50061" lon="7.20193">
        <ele>626</ele>
        <time>2021-02-21T11:18:31.987Z</time>
      </trkpt>
      <trkpt lat="48.50062" lon="7.20194">
        <ele>626</ele>
        <time>2021-02-21T11:18:32.987Z</time>
      </trkpt>
      <trkpt lat="48.50063" lon="7.20194">
        <ele>626</ele>
        <time>2021-02-21T11:18:33.988Z</time>
      </trkpt>
      <trkpt lat="48.50063" lon="7.20193">
        <ele>625</ele>
        <time>2021-02-21T11:18:34.988Z</time>
      </trkpt>
      <trkpt lat="48.50064" lon="7.20192">
        <ele>625</ele>
        <time>2021-02-21T11:18:35.987Z</time>
      </trkpt>
      <trkpt lat="48.50066" lon="7.20191">
        <ele>625</ele>
        <time>2021-02-21T11:18:36.987Z</time>
      </trkpt>
      <trkpt lat="48.50067" lon="7.2019">
        <ele>626</ele>
        <time>2021-02-21T11:18:37.987Z</time>
      </trkpt>
      <trkpt lat="48.50068" lon="7.2019">
        <ele>626</ele>
        <time>2021-02-21T11:18:38.988Z</time>
      </trkpt>
      <trkpt lat="48.50068" lon="7.20189">
        <ele>626</ele>
        <time>2021-02-21T11:18:39.988Z</time>
      </trkpt>
      <trkpt lat="48.5007" lon="7.20188">
        <ele>626</ele>
        <time>2021-02-21T11:18:40.987Z</time>
      </trkpt>
      <trkpt lat="48.5007" lon="7.20188">
        <ele>626</ele>
        <time>2021-02-21T11:18:41.988Z</time>
      </trkpt>
      <trkpt lat="48.50071" lon="7.20187">
        <ele>626</ele>
        <time>2021-02-21T11:18:42.987Z</time>
      </trkpt>
      <trkpt lat="48.50072" lon="7.20186">
        <ele>626</ele>
        <time>2021-02-21T11:18:43.987Z</time>
      </trkpt>
      <trkpt lat="48.50073" lon="7.20185">
        <ele>626</ele>
        <time>2021-02-21T11:18:44.987Z</time>
      </trkpt>
      <trkpt lat="48.50074" lon="7.20184">
        <ele>626</ele>
        <time>2021-02-21T11:18:45.987Z</time>
      </trkpt>
      <trkpt lat="48.50075" lon="7.20184">
        <ele>626</ele>
        <time>2021-02-21T11:18:46.988Z</time>
      </trkpt>
      <trkpt lat="48.50075" lon="7.20182">
        <ele>627</ele>
        <time>2021-02-21T11:18:47.988Z</time>
      </trkpt>
      <trkpt lat="48.50076" lon="7.20181">
        <ele>627</ele>
        <time>2021-02-21T11:18:48.987Z</time>
      </trkpt>
      <trkpt lat="48.50077" lon="7.2018">
        <ele>627</ele>
        <time>2021-02-21T11:18:49.988Z</time>
      </trkpt>
      <trkpt lat="48.50078" lon="7.20179">
        <ele>626</ele>
        <time>2021-02-21T11:18:50.987Z</time>
      </trkpt>
      <trkpt lat="48.50078" lon="7.20178">
        <ele>626</ele>
        <time>2021-02-21T11:18:51.987Z</time>
      </trkpt>
      <trkpt lat="48.50079" lon="7.20178">
        <ele>626</ele>
        <time>2021-02-21T11:18:52.988Z</time>
      </trkpt>
      <trkpt lat="48.50081" lon="7.20177">
        <ele>625</ele>
        <time>2021-02-21T11:18:53.987Z</time>
      </trkpt>
      <trkpt lat="48.50082" lon="7.20176">
        <ele>625</ele>
        <time>2021-02-21T11:18:54.988Z</time>
      </trkpt>
      <trkpt lat="48.50083" lon="7.20175">
        <ele>625</ele>
        <time>2021-02-21T11:18:55.988Z</time>
      </trkpt>
      <trkpt lat="48.50084" lon="7.20174">
        <ele>625</ele>
        <time>2021-02-21T11:18:56.988Z</time>
      </trkpt>
      <trkpt lat="48.50085" lon="7.20174">
        <ele>625</ele>
        <time>2021-02-21T11:18:57.987Z</time>
      </trkpt>
      <trkpt lat="48.50086" lon="7.20172">
        <ele>625</ele>
        <time>2021-02-21T11:18:58.988Z</time>
      </trkpt>
      <trkpt lat="48.50087" lon="7.20171">
        <ele>625</ele>
        <time>2021-02-21T11:18:59.988Z</time>
      </trkpt>
      <trkpt lat="48.50088" lon="7.2017">
        <ele>625</ele>
        <time>2021-02-21T11:19:00.987Z</time>
      </trkpt>
      <trkpt lat="48.5009" lon="7.20169">
        <ele>626</ele>
        <time>2021-02-21T11:19:01.988Z</time>
      </trkpt>
      <trkpt lat="48.50091" lon="7.20168">
        <ele>626</ele>
        <time>2021-02-21T11:19:02.988Z</time>
      </trkpt>
      <trkpt lat="48.50093" lon="7.20167">
        <ele>627</ele>
        <time>2021-02-21T11:19:03.988Z</time>
      </trkpt>
      <trkpt lat="48.50093" lon="7.20165">
        <ele>628</ele>
        <time>2021-02-21T11:19:04.987Z</time>
      </trkpt>
      <trkpt lat="48.50094" lon="7.20164">
        <ele>628</ele>
        <time>2021-02-21T11:19:05.987Z</time>
      </trkpt>
      <trkpt lat="48.50095" lon="7.20163">
        <ele>628</ele>
        <time>2021-02-21T11:19:06.988Z</time>
      </trkpt>
      <trkpt lat="48.50096" lon="7.20163">
        <ele>628</ele>
        <time>2021-02-21T11:19:07.987Z</time>
      </trkpt>
      <trkpt lat="48.50097" lon="7.20163">
        <ele>628</ele>
        <time>2021-02-21T11:19:08.988Z</time>
      </trkpt>
      <trkpt lat="48.50098" lon="7.20163">
        <ele>628</ele>
        <time>2021-02-21T11:19:09.987Z</time>
      </trkpt>
      <trkpt lat="48.501" lon="7.20162">
        <ele>628</ele>
        <time>2021-02-21T11:19:10.988Z</time>
      </trkpt>
      <trkpt lat="48.50101" lon="7.20162">
        <ele>627</ele>
        <time>2021-02-21T11:19:11.988Z</time>
      </trkpt>
      <trkpt lat="48.50103" lon="7.20161">
        <ele>627</ele>
        <time>2021-02-21T11:19:12.987Z</time>
      </trkpt>
      <trkpt lat="48.50104" lon="7.20161">
        <ele>627</ele>
        <time>2021-02-21T11:19:13.988Z</time>
      </trkpt>
      <trkpt lat="48.50105" lon="7.2016">
        <ele>627</ele>
        <time>2021-02-21T11:19:14.988Z</time>
      </trkpt>
      <trkpt lat="48.50106" lon="7.20159">
        <ele>627</ele>
        <time>2021-02-21T11:19:15.988Z</time>
      </trkpt>
      <trkpt lat="48.50107" lon="7.20159">
        <ele>627</ele>
        <time>2021-02-21T11:19:16.988Z</time>
      </trkpt>
      <trkpt lat="48.50108" lon="7.20158">
        <ele>627</ele>
        <time>2021-02-21T11:19:17.988Z</time>
      </trkpt>
      <trkpt lat="48.50109" lon="7.20157">
        <ele>627</ele>
        <time>2021-02-21T11:19:18.987Z</time>
      </trkpt>
      <trkpt lat="48.5011" lon="7.20156">
        <ele>627</ele>
        <time>2021-02-21T11:19:19.987Z</time>
      </trkpt>
      <trkpt lat="48.50112" lon="7.20155">
        <ele>627</ele>
        <time>2021-02-21T11:19:20.987Z</time>
      </trkpt>
      <trkpt lat="48.50113" lon="7.20153">
        <ele>627</ele>
        <time>2021-02-21T11:19:21.988Z</time>
      </trkpt>
      <trkpt lat="48.50114" lon="7.20152">
        <ele>627</ele>
        <time>2021-02-21T11:19:22.988Z</time>
      </trkpt>
      <trkpt lat="48.50115" lon="7.20151">
        <ele>627</ele>
        <time>2021-02-21T11:19:23.988Z</time>
      </trkpt>
      <trkpt lat="48.50116" lon="7.20151">
        <ele>627</ele>
        <time>2021-02-21T11:19:24.987Z</time>
      </trkpt>
      <trkpt lat="48.50117" lon="7.2015">
        <ele>627</ele>
        <time>2021-02-21T11:19:25.988Z</time>
      </trkpt>
      <trkpt lat="48.50118" lon="7.20149">
        <ele>627</ele>
        <time>2021-02-21T11:19:26.987Z</time>
      </trkpt>
      <trkpt lat="48.50119" lon="7.20148">
        <ele>628</ele>
        <time>2021-02-21T11:19:27.988Z</time>
      </trkpt>
      <trkpt lat="48.5012" lon="7.20147">
        <ele>628</ele>
        <time>2021-02-21T11:19:28.988Z</time>
      </trkpt>
      <trkpt lat="48.50121" lon="7.20146">
        <ele>628</ele>
        <time>2021-02-21T11:19:29.987Z</time>
      </trkpt>
      <trkpt lat="48.50122" lon="7.20145">
        <ele>628</ele>
        <time>2021-02-21T11:19:30.988Z</time>
      </trkpt>
      <trkpt lat="48.50123" lon="7.20144">
        <ele>629</ele>
        <time>2021-02-21T11:19:31.988Z</time>
      </trkpt>
      <trkpt lat="48.50125" lon="7.20144">
        <ele>629</ele>
        <time>2021-02-21T11:19:32.988Z</time>
      </trkpt>
      <trkpt lat="48.50126" lon="7.20142">
        <ele>630</ele>
        <time>2021-02-21T11:19:33.988Z</time>
      </trkpt>
      <trkpt lat="48.50127" lon="7.20141">
        <ele>630</ele>
        <time>2021-02-21T11:19:34.987Z</time>
      </trkpt>
      <trkpt lat="48.50128" lon="7.2014">
        <ele>631</ele>
        <time>2021-02-21T11:19:35.988Z</time>
      </trkpt>
      <trkpt lat="48.5013" lon="7.20139">
        <ele>631</ele>
        <time>2021-02-21T11:19:36.987Z</time>
      </trkpt>
      <trkpt lat="48.50131" lon="7.20138">
        <ele>631</ele>
        <time>2021-02-21T11:19:37.988Z</time>
      </trkpt>
      <trkpt lat="48.50132" lon="7.20138">
        <ele>631</ele>
        <time>2021-02-21T11:19:38.987Z</time>
      </trkpt>
      <trkpt lat="48.50132" lon="7.20137">
        <ele>631</ele>
        <time>2021-02-21T11:19:39.988Z</time>
      </trkpt>
      <trkpt lat="48.50133" lon="7.20137">
        <ele>631</ele>
        <time>2021-02-21T11:19:40.988Z</time>
      </trkpt>
      <trkpt lat="48.50135" lon="7.20135">
        <ele>631</ele>
        <time>2021-02-21T11:19:41.987Z</time>
      </trkpt>
      <trkpt lat="48.50136" lon="7.20134">
        <ele>630</ele>
        <time>2021-02-21T11:19:42.988Z</time>
      </trkpt>
      <trkpt lat="48.50137" lon="7.20133">
        <ele>630</ele>
        <time>2021-02-21T11:19:43.988Z</time>
      </trkpt>
      <trkpt lat="48.50137" lon="7.20132">
        <ele>630</ele>
        <time>2021-02-21T11:19:44.988Z</time>
      </trkpt>
      <trkpt lat="48.50138" lon="7.20131">
        <ele>630</ele>
        <time>2021-02-21T11:19:45.988Z</time>
      </trkpt>
      <trkpt lat="48.5014" lon="7.2013">
        <ele>630</ele>
        <time>2021-02-21T11:19:46.987Z</time>
      </trkpt>
      <trkpt lat="48.50141" lon="7.20129">
        <ele>631</ele>
        <time>2021-02-21T11:19:47.988Z</time>
      </trkpt>
      <trkpt lat="48.50143" lon="7.20128">
        <ele>631</ele>
        <time>2021-02-21T11:19:48.988Z</time>
      </trkpt>
      <trkpt lat="48.50143" lon="7.20126">
        <ele>631</ele>
        <time>2021-02-21T11:19:49.988Z</time>
      </trkpt>
      <trkpt lat="48.50144" lon="7.20125">
        <ele>631</ele>
        <time>2021-02-21T11:19:50.988Z</time>
      </trkpt>
      <trkpt lat="48.50145" lon="7.20124">
        <ele>631</ele>
        <time>2021-02-21T11:19:51.988Z</time>
      </trkpt>
      <trkpt lat="48.50146" lon="7.20124">
        <ele>631</ele>
        <time>2021-02-21T11:19:52.988Z</time>
      </trkpt>
      <trkpt lat="48.50147" lon="7.20123">
        <ele>631</ele>
        <time>2021-02-21T11:19:53.987Z</time>
      </trkpt>
      <trkpt lat="48.50147" lon="7.20122">
        <ele>630</ele>
        <time>2021-02-21T11:19:54.987Z</time>
      </trkpt>
      <trkpt lat="48.50149" lon="7.20121">
        <ele>630</ele>
        <time>2021-02-21T11:19:55.987Z</time>
      </trkpt>
      <trkpt lat="48.5015" lon="7.2012">
        <ele>630</ele>
        <time>2021-02-21T11:19:56.987Z</time>
      </trkpt>
      <trkpt lat="48.5015" lon="7.2012">
        <ele>629</ele>
        <time>2021-02-21T11:19:57.988Z</time>
      </trkpt>
      <trkpt lat="48.50152" lon="7.20119">
        <ele>629</ele>
        <time>2021-02-21T11:19:58.988Z</time>
      </trkpt>
      <trkpt lat="48.50153" lon="7.20118">
        <ele>628</ele>
        <time>2021-02-21T11:19:59.987Z</time>
      </trkpt>
      <trkpt lat="48.50154" lon="7.20118">
        <ele>627</ele>
        <time>2021-02-21T11:20:00.988Z</time>
      </trkpt>
      <trkpt lat="48.50155" lon="7.20117">
        <ele>627</ele>
        <time>2021-02-21T11:20:01.988Z</time>
      </trkpt>
      <trkpt lat="48.50155" lon="7.20117">
        <ele>626</ele>
        <time>2021-02-21T11:20:02.987Z</time>
      </trkpt>
      <trkpt lat="48.50156" lon="7.20116">
        <ele>626</ele>
        <time>2021-02-21T11:20:03.987Z</time>
      </trkpt>
      <trkpt lat="48.50157" lon="7.20116">
        <ele>626</ele>
        <time>2021-02-21T11:20:04.987Z</time>
      </trkpt>
      <trkpt lat="48.50158" lon="7.20115">
        <ele>626</ele>
        <time>2021-02-21T11:20:05.988Z</time>
      </trkpt>
      <trkpt lat="48.50159" lon="7.20115">
        <ele>625</ele>
        <time>2021-02-21T11:20:06.988Z</time>
      </trkpt>
      <trkpt lat="48.5016" lon="7.20114">
        <ele>625</ele>
        <time>2021-02-21T11:20:07.987Z</time>
      </trkpt>
      <trkpt lat="48.50161" lon="7.20114">
        <ele>625</ele>
        <time>2021-02-21T11:20:08.988Z</time>
      </trkpt>
      <trkpt lat="48.50161" lon="7.20113">
        <ele>625</ele>
        <time>2021-02-21T11:20:09.987Z</time>
      </trkpt>
      <trkpt lat="48.50162" lon="7.20113">
        <ele>625</ele>
        <time>2021-02-21T11:20:10.988Z</time>
      </trkpt>
      <trkpt lat="48.50163" lon="7.20112">
        <ele>625</ele>
        <time>2021-02-21T11:20:11.987Z</time>
      </trkpt>
      <trkpt lat="48.50164" lon="7.20111">
        <ele>625</ele>
        <time>2021-02-21T11:20:12.987Z</time>
      </trkpt>
      <trkpt lat="48.50164" lon="7.2011">
        <ele>625</ele>
        <time>2021-02-21T11:20:13.987Z</time>
      </trkpt>
      <trkpt lat="48.50165" lon="7.2011">
        <ele>625</ele>
        <time>2021-02-21T11:20:14.988Z</time>
      </trkpt>
      <trkpt lat="48.50166" lon="7.20108">
        <ele>626</ele>
        <time>2021-02-21T11:20:15.987Z</time>
      </trkpt>
      <trkpt lat="48.50167" lon="7.20107">
        <ele>626</ele>
        <time>2021-02-21T11:20:16.988Z</time>
      </trkpt>
      <trkpt lat="48.50167" lon="7.20106">
        <ele>627</ele>
        <time>2021-02-21T11:20:17.987Z</time>
      </trkpt>
      <trkpt lat="48.50168" lon="7.20105">
        <ele>627</ele>
        <time>2021-02-21T11:20:18.987Z</time>
      </trkpt>
      <trkpt lat="48.50169" lon="7.20104">
        <ele>627</ele>
        <time>2021-02-21T11:20:19.987Z</time>
      </trkpt>
      <trkpt lat="48.50169" lon="7.20103">
        <ele>628</ele>
        <time>2021-02-21T11:20:20.988Z</time>
      </trkpt>
      <trkpt lat="48.5017" lon="7.20104">
        <ele>628</ele>
        <time>2021-02-21T11:20:21.988Z</time>
      </trkpt>
      <trkpt lat="48.50171" lon="7.20103">
        <ele>628</ele>
        <time>2021-02-21T11:20:22.988Z</time>
      </trkpt>
      <trkpt lat="48.50172" lon="7.20103">
        <ele>628</ele>
        <time>2021-02-21T11:20:23.987Z</time>
      </trkpt>
      <trkpt lat="48.50174" lon="7.20102">
        <ele>627</ele>
        <time>2021-02-21T11:20:24.988Z</time>
      </trkpt>
      <trkpt lat="48.50175" lon="7.201">
        <ele>627</ele>
        <time>2021-02-21T11:20:25.987Z</time>
      </trkpt>
      <trkpt lat="48.50176" lon="7.20099">
        <ele>627</ele>
        <time>2021-02-21T11:20:26.988Z</time>
      </trkpt>
      <trkpt lat="48.50177" lon="7.20097">
        <ele>627</ele>
        <time>2021-02-21T11:20:27.987Z</time>
      </trkpt>
      <trkpt lat="48.50178" lon="7.20096">
        <ele>627</ele>
        <time>2021-02-21T11:20:28.987Z</time>
      </trkpt>
      <trkpt lat="48.50179" lon="7.20095">
        <ele>627</ele>
        <time>2021-02-21T11:20:29.987Z</time>
      </trkpt>
      <trkpt lat="48.5018" lon="7.20094">
        <ele>628</ele>
        <time>2021-02-21T11:20:30.988Z</time>
      </trkpt>
      <trkpt lat="48.50181" lon="7.20093">
        <ele>629</ele>
        <time>2021-02-21T11:20:31.988Z</time>
      </trkpt>
      <trkpt lat="48.50182" lon="7.20092">
        <ele>630</ele>
        <time>2021-02-21T11:20:32.987Z</time>
      </trkpt>
      <trkpt lat="48.50183" lon="7.20091">
        <ele>631</ele>
        <time>2021-02-21T11:20:33.987Z</time>
      </trkpt>
      <trkpt lat="48.50184" lon="7.2009">
        <ele>631</ele>
        <time>2021-02-21T11:20:34.987Z</time>
      </trkpt>
      <trkpt lat="48.50185" lon="7.20089">
        <ele>632</ele>
        <time>2021-02-21T11:20:35.988Z</time>
      </trkpt>
      <trkpt lat="48.50186" lon="7.20088">
        <ele>633</ele>
        <time>2021-02-21T11:20:36.987Z</time>
      </trkpt>
      <trkpt lat="48.50186" lon="7.20087">
        <ele>633</ele>
        <time>2021-02-21T11:20:37.987Z</time>
      </trkpt>
      <trkpt lat="48.50186" lon="7.20085">
        <ele>634</ele>
        <time>2021-02-21T11:20:38.987Z</time>
      </trkpt>
      <trkpt lat="48.50186" lon="7.20083">
        <ele>634</ele>
        <time>2021-02-21T11:20:39.988Z</time>
      </trkpt>
      <trkpt lat="48.50187" lon="7.20082">
        <ele>635</ele>
        <time>2021-02-21T11:20:40.988Z</time>
      </trkpt>
      <trkpt lat="48.50188" lon="7.20081">
        <ele>635</ele>
        <time>2021-02-21T11:20:41.987Z</time>
      </trkpt>
      <trkpt lat="48.50189" lon="7.2008">
        <ele>635</ele>
        <time>2021-02-21T11:20:42.987Z</time>
      </trkpt>
      <trkpt lat="48.5019" lon="7.20079">
        <ele>636</ele>
        <time>2021-02-21T11:20:43.987Z</time>
      </trkpt>
      <trkpt lat="48.50191" lon="7.20078">
        <ele>636</ele>
        <time>2021-02-21T11:20:44.987Z</time>
      </trkpt>
      <trkpt lat="48.50192" lon="7.20076">
        <ele>636</ele>
        <time>2021-02-21T11:20:45.988Z</time>
      </trkpt>
      <trkpt lat="48.50193" lon="7.20075">
        <ele>637</ele>
        <time>2021-02-21T11:20:46.987Z</time>
      </trkpt>
      <trkpt lat="48.50194" lon="7.20073">
        <ele>637</ele>
        <time>2021-02-21T11:20:47.987Z</time>
      </trkpt>
      <trkpt lat="48.50196" lon="7.20073">
        <ele>637</ele>
        <time>2021-02-21T11:20:48.987Z</time>
      </trkpt>
      <trkpt lat="48.50197" lon="7.20072">
        <ele>637</ele>
        <time>2021-02-21T11:20:49.988Z</time>
      </trkpt>
      <trkpt lat="48.50199" lon="7.20071">
        <ele>637</ele>
        <time>2021-02-21T11:20:50.988Z</time>
      </trkpt>
      <trkpt lat="48.50201" lon="7.20071">
        <ele>637</ele>
        <time>2021-02-21T11:20:51.988Z</time>
      </trkpt>
      <trkpt lat="48.50201" lon="7.2007">
        <ele>637</ele>
        <time>2021-02-21T11:20:52.987Z</time>
      </trkpt>
      <trkpt lat="48.50202" lon="7.20069">
        <ele>637</ele>
        <time>2021-02-21T11:20:53.987Z</time>
      </trkpt>
      <trkpt lat="48.50202" lon="7.20067">
        <ele>637</ele>
        <time>2021-02-21T11:20:54.987Z</time>
      </trkpt>
      <trkpt lat="48.50203" lon="7.20066">
        <ele>637</ele>
        <time>2021-02-21T11:20:55.987Z</time>
      </trkpt>
      <trkpt lat="48.50203" lon="7.20064">
        <ele>637</ele>
        <time>2021-02-21T11:20:56.987Z</time>
      </trkpt>
      <trkpt lat="48.50204" lon="7.20063">
        <ele>637</ele>
        <time>2021-02-21T11:20:57.987Z</time>
      </trkpt>
      <trkpt lat="48.50204" lon="7.20063">
        <ele>638</ele>
        <time>2021-02-21T11:20:58.988Z</time>
      </trkpt>
      <trkpt lat="48.50205" lon="7.20062">
        <ele>638</ele>
        <time>2021-02-21T11:20:59.987Z</time>
      </trkpt>
      <trkpt lat="48.50206" lon="7.20061">
        <ele>638</ele>
        <time>2021-02-21T11:21:00.987Z</time>
      </trkpt>
      <trkpt lat="48.50206" lon="7.20059">
        <ele>638</ele>
        <time>2021-02-21T11:21:01.988Z</time>
      </trkpt>
      <trkpt lat="48.50207" lon="7.20057">
        <ele>639</ele>
        <time>2021-02-21T11:21:02.987Z</time>
      </trkpt>
      <trkpt lat="48.50208" lon="7.20056">
        <ele>639</ele>
        <time>2021-02-21T11:21:03.987Z</time>
      </trkpt>
      <trkpt lat="48.50208" lon="7.20055">
        <ele>639</ele>
        <time>2021-02-21T11:21:04.987Z</time>
      </trkpt>
      <trkpt lat="48.50209" lon="7.20053">
        <ele>639</ele>
        <time>2021-02-21T11:21:05.987Z</time>
      </trkpt>
      <trkpt lat="48.5021" lon="7.20052">
        <ele>640</ele>
        <time>2021-02-21T11:21:06.987Z</time>
      </trkpt>
      <trkpt lat="48.50212" lon="7.2005">
        <ele>640</ele>
        <time>2021-02-21T11:21:07.988Z</time>
      </trkpt>
      <trkpt lat="48.50214" lon="7.20049">
        <ele>640</ele>
        <time>2021-02-21T11:21:08.987Z</time>
      </trkpt>
      <trkpt lat="48.50215" lon="7.20048">
        <ele>640</ele>
        <time>2021-02-21T11:21:09.987Z</time>
      </trkpt>
      <trkpt lat="48.50217" lon="7.20047">
        <ele>641</ele>
        <time>2021-02-21T11:21:10.988Z</time>
      </trkpt>
      <trkpt lat="48.50218" lon="7.20046">
        <ele>641</ele>
        <time>2021-02-21T11:21:11.987Z</time>
      </trkpt>
      <trkpt lat="48.50218" lon="7.20046">
        <ele>642</ele>
        <time>2021-02-21T11:21:12.987Z</time>
      </trkpt>
      <trkpt lat="48.50219" lon="7.20045">
        <ele>642</ele>
        <time>2021-02-21T11:21:13.988Z</time>
      </trkpt>
      <trkpt lat="48.5022" lon="7.20044">
        <ele>642</ele>
        <time>2021-02-21T11:21:14.987Z</time>
      </trkpt>
      <trkpt lat="48.50221" lon="7.20043">
        <ele>642</ele>
        <time>2021-02-21T11:21:15.988Z</time>
      </trkpt>
      <trkpt lat="48.50222" lon="7.20042">
        <ele>642</ele>
        <time>2021-02-21T11:21:16.987Z</time>
      </trkpt>
      <trkpt lat="48.50223" lon="7.20041">
        <ele>642</ele>
        <time>2021-02-21T11:21:17.987Z</time>
      </trkpt>
      <trkpt lat="48.50224" lon="7.20041">
        <ele>643</ele>
        <time>2021-02-21T11:21:18.987Z</time>
      </trkpt>
      <trkpt lat="48.50224" lon="7.2004">
        <ele>643</ele>
        <time>2021-02-21T11:21:19.987Z</time>
      </trkpt>
      <trkpt lat="48.50226" lon="7.20039">
        <ele>644</ele>
        <time>2021-02-21T11:21:20.987Z</time>
      </trkpt>
      <trkpt lat="48.50227" lon="7.20038">
        <ele>644</ele>
        <time>2021-02-21T11:21:21.987Z</time>
      </trkpt>
      <trkpt lat="48.50228" lon="7.20037">
        <ele>644</ele>
        <time>2021-02-21T11:21:22.987Z</time>
      </trkpt>
      <trkpt lat="48.50228" lon="7.20036">
        <ele>645</ele>
        <time>2021-02-21T11:21:23.988Z</time>
      </trkpt>
      <trkpt lat="48.50229" lon="7.20034">
        <ele>645</ele>
        <time>2021-02-21T11:21:24.988Z</time>
      </trkpt>
      <trkpt lat="48.50231" lon="7.20033">
        <ele>645</ele>
        <time>2021-02-21T11:21:25.987Z</time>
      </trkpt>
      <trkpt lat="48.50231" lon="7.20032">
        <ele>645</ele>
        <time>2021-02-21T11:21:26.987Z</time>
      </trkpt>
      <trkpt lat="48.50233" lon="7.20031">
        <ele>645</ele>
        <time>2021-02-21T11:21:27.987Z</time>
      </trkpt>
      <trkpt lat="48.50234" lon="7.2003">
        <ele>646</ele>
        <time>2021-02-21T11:21:28.987Z</time>
      </trkpt>
      <trkpt lat="48.50235" lon="7.20029">
        <ele>646</ele>
        <time>2021-02-21T11:21:29.988Z</time>
      </trkpt>
      <trkpt lat="48.50236" lon="7.20029">
        <ele>646</ele>
        <time>2021-02-21T11:21:30.988Z</time>
      </trkpt>
      <trkpt lat="48.50237" lon="7.20029">
        <ele>646</ele>
        <time>2021-02-21T11:21:31.987Z</time>
      </trkpt>
      <trkpt lat="48.50238" lon="7.20029">
        <ele>645</ele>
        <time>2021-02-21T11:21:32.988Z</time>
      </trkpt>
      <trkpt lat="48.50239" lon="7.20027">
        <ele>645</ele>
        <time>2021-02-21T11:21:33.988Z</time>
      </trkpt>
      <trkpt lat="48.5024" lon="7.20026">
        <ele>644</ele>
        <time>2021-02-21T11:21:34.988Z</time>
      </trkpt>
      <trkpt lat="48.50241" lon="7.20025">
        <ele>644</ele>
        <time>2021-02-21T11:21:35.988Z</time>
      </trkpt>
      <trkpt lat="48.50241" lon="7.20025">
        <ele>644</ele>
        <time>2021-02-21T11:21:36.988Z</time>
      </trkpt>
      <trkpt lat="48.50242" lon="7.20026">
        <ele>644</ele>
        <time>2021-02-21T11:21:37.988Z</time>
      </trkpt>
      <trkpt lat="48.50244" lon="7.20024">
        <ele>645</ele>
        <time>2021-02-21T11:21:38.990Z</time>
      </trkpt>
      <trkpt lat="48.50246" lon="7.20022">
        <ele>645</ele>
        <time>2021-02-21T11:21:39.990Z</time>
      </trkpt>
      <trkpt lat="48.50248" lon="7.20022">
        <ele>646</ele>
        <time>2021-02-21T11:21:40.989Z</time>
      </trkpt>
      <trkpt lat="48.50249" lon="7.20021">
        <ele>646</ele>
        <time>2021-02-21T11:21:41.990Z</time>
      </trkpt>
      <trkpt lat="48.5025" lon="7.20019">
        <ele>646</ele>
        <time>2021-02-21T11:21:42.989Z</time>
      </trkpt>
      <trkpt lat="48.50251" lon="7.20019">
        <ele>647</ele>
        <time>2021-02-21T11:21:43.990Z</time>
      </trkpt>
      <trkpt lat="48.50253" lon="7.20018">
        <ele>647</ele>
        <time>2021-02-21T11:21:44.990Z</time>
      </trkpt>
      <trkpt lat="48.50254" lon="7.20018">
        <ele>648</ele>
        <time>2021-02-21T11:21:45.990Z</time>
      </trkpt>
      <trkpt lat="48.50255" lon="7.20017">
        <ele>648</ele>
        <time>2021-02-21T11:21:46.990Z</time>
      </trkpt>
      <trkpt lat="48.50256" lon="7.20016">
        <ele>649</ele>
        <time>2021-02-21T11:21:47.989Z</time>
      </trkpt>
      <trkpt lat="48.50257" lon="7.20015">
        <ele>650</ele>
        <time>2021-02-21T11:21:48.989Z</time>
      </trkpt>
      <trkpt lat="48.50257" lon="7.20014">
        <ele>650</ele>
        <time>2021-02-21T11:21:49.990Z</time>
      </trkpt>
      <trkpt lat="48.50258" lon="7.20013">
        <ele>650</ele>
        <time>2021-02-21T11:21:50.990Z</time>
      </trkpt>
      <trkpt lat="48.50259" lon="7.20013">
        <ele>650</ele>
        <time>2021-02-21T11:21:51.990Z</time>
      </trkpt>
      <trkpt lat="48.5026" lon="7.20012">
        <ele>650</ele>
        <time>2021-02-21T11:21:52.989Z</time>
      </trkpt>
      <trkpt lat="48.50261" lon="7.20012">
        <ele>649</ele>
        <time>2021-02-21T11:21:53.990Z</time>
      </trkpt>
      <trkpt lat="48.50262" lon="7.20011">
        <ele>649</ele>
        <time>2021-02-21T11:21:54.990Z</time>
      </trkpt>
      <trkpt lat="48.50263" lon="7.20011">
        <ele>649</ele>
        <time>2021-02-21T11:21:55.990Z</time>
      </trkpt>
      <trkpt lat="48.50265" lon="7.20011">
        <ele>649</ele>
        <time>2021-02-21T11:21:56.990Z</time>
      </trkpt>
      <trkpt lat="48.50266" lon="7.20011">
        <ele>649</ele>
        <time>2021-02-21T11:21:57.989Z</time>
      </trkpt>
      <trkpt lat="48.50267" lon="7.2001">
        <ele>649</ele>
        <time>2021-02-21T11:21:58.990Z</time>
      </trkpt>
      <trkpt lat="48.50268" lon="7.20009">
        <ele>650</ele>
        <time>2021-02-21T11:21:59.990Z</time>
      </trkpt>
      <trkpt lat="48.50269" lon="7.20008">
        <ele>650</ele>
        <time>2021-02-21T11:22:00.990Z</time>
      </trkpt>
      <trkpt lat="48.50271" lon="7.20007">
        <ele>651</ele>
        <time>2021-02-21T11:22:01.989Z</time>
      </trkpt>
      <trkpt lat="48.50272" lon="7.20007">
        <ele>651</ele>
        <time>2021-02-21T11:22:02.989Z</time>
      </trkpt>
      <trkpt lat="48.50273" lon="7.20005">
        <ele>651</ele>
        <time>2021-02-21T11:22:03.989Z</time>
      </trkpt>
      <trkpt lat="48.50275" lon="7.20004">
        <ele>651</ele>
        <time>2021-02-21T11:22:04.989Z</time>
      </trkpt>
      <trkpt lat="48.50276" lon="7.20003">
        <ele>652</ele>
        <time>2021-02-21T11:22:05.989Z</time>
      </trkpt>
      <trkpt lat="48.50277" lon="7.20003">
        <ele>652</ele>
        <time>2021-02-21T11:22:06.989Z</time>
      </trkpt>
      <trkpt lat="48.50278" lon="7.20002">
        <ele>653</ele>
        <time>2021-02-21T11:22:07.989Z</time>
      </trkpt>
      <trkpt lat="48.50279" lon="7.20002">
        <ele>653</ele>
        <time>2021-02-21T11:22:08.989Z</time>
      </trkpt>
      <trkpt lat="48.50281" lon="7.20001">
        <ele>654</ele>
        <time>2021-02-21T11:22:09.990Z</time>
      </trkpt>
      <trkpt lat="48.50282" lon="7.2">
        <ele>654</ele>
        <time>2021-02-21T11:22:10.990Z</time>
      </trkpt>
      <trkpt lat="48.50283" lon="7.19999">
        <ele>655</ele>
        <time>2021-02-21T11:22:11.990Z</time>
      </trkpt>
      <trkpt lat="48.50284" lon="7.19998">
        <ele>656</ele>
        <time>2021-02-21T11:22:13.993Z</time>
      </trkpt>
      <trkpt lat="48.50285" lon="7.19997">
        <ele>656</ele>
        <time>2021-02-21T11:22:14.992Z</time>
      </trkpt>
      <trkpt lat="48.50286" lon="7.19997">
        <ele>656</ele>
        <time>2021-02-21T11:22:15.993Z</time>
      </trkpt>
      <trkpt lat="48.50287" lon="7.19996">
        <ele>656</ele>
        <time>2021-02-21T11:22:16.993Z</time>
      </trkpt>
      <trkpt lat="48.50288" lon="7.19995">
        <ele>656</ele>
        <time>2021-02-21T11:22:17.993Z</time>
      </trkpt>
      <trkpt lat="48.50289" lon="7.19994">
        <ele>656</ele>
        <time>2021-02-21T11:22:18.993Z</time>
      </trkpt>
      <trkpt lat="48.5029" lon="7.19991">
        <ele>656</ele>
        <time>2021-02-21T11:22:19.993Z</time>
      </trkpt>
      <trkpt lat="48.50292" lon="7.19989">
        <ele>656</ele>
        <time>2021-02-21T11:22:20.993Z</time>
      </trkpt>
      <trkpt lat="48.50293" lon="7.19988">
        <ele>656</ele>
        <time>2021-02-21T11:22:21.993Z</time>
      </trkpt>
      <trkpt lat="48.50296" lon="7.19987">
        <ele>656</ele>
        <time>2021-02-21T11:22:22.993Z</time>
      </trkpt>
      <trkpt lat="48.50297" lon="7.19986">
        <ele>656</ele>
        <time>2021-02-21T11:22:23.993Z</time>
      </trkpt>
      <trkpt lat="48.50299" lon="7.19986">
        <ele>656</ele>
        <time>2021-02-21T11:22:24.992Z</time>
      </trkpt>
      <trkpt lat="48.503" lon="7.19986">
        <ele>655</ele>
        <time>2021-02-21T11:22:25.993Z</time>
      </trkpt>
      <trkpt lat="48.50301" lon="7.19986">
        <ele>655</ele>
        <time>2021-02-21T11:22:26.992Z</time>
      </trkpt>
      <trkpt lat="48.50303" lon="7.19985">
        <ele>654</ele>
        <time>2021-02-21T11:22:27.993Z</time>
      </trkpt>
      <trkpt lat="48.50303" lon="7.19986">
        <ele>653</ele>
        <time>2021-02-21T11:22:28.992Z</time>
      </trkpt>
      <trkpt lat="48.50304" lon="7.19986">
        <ele>652</ele>
        <time>2021-02-21T11:22:29.993Z</time>
      </trkpt>
      <trkpt lat="48.50306" lon="7.19986">
        <ele>651</ele>
        <time>2021-02-21T11:22:30.992Z</time>
      </trkpt>
      <trkpt lat="48.50307" lon="7.19986">
        <ele>650</ele>
        <time>2021-02-21T11:22:31.992Z</time>
      </trkpt>
      <trkpt lat="48.50308" lon="7.19987">
        <ele>650</ele>
        <time>2021-02-21T11:22:32.992Z</time>
      </trkpt>
      <trkpt lat="48.5031" lon="7.19988">
        <ele>649</ele>
        <time>2021-02-21T11:22:33.993Z</time>
      </trkpt>
      <trkpt lat="48.50312" lon="7.19987">
        <ele>649</ele>
        <time>2021-02-21T11:22:34.993Z</time>
      </trkpt>
      <trkpt lat="48.50313" lon="7.19987">
        <ele>649</ele>
        <time>2021-02-21T11:22:35.993Z</time>
      </trkpt>
      <trkpt lat="48.50313" lon="7.19986">
        <ele>648</ele>
        <time>2021-02-21T11:22:36.993Z</time>
      </trkpt>
      <trkpt lat="48.50314" lon="7.19986">
        <ele>648</ele>
        <time>2021-02-21T11:22:37.993Z</time>
      </trkpt>
      <trkpt lat="48.50316" lon="7.19985">
        <ele>647</ele>
        <time>2021-02-21T11:22:38.992Z</time>
      </trkpt>
      <trkpt lat="48.50318" lon="7.19984">
        <ele>647</ele>
        <time>2021-02-21T11:22:39.992Z</time>
      </trkpt>
      <trkpt lat="48.5032" lon="7.19984">
        <ele>647</ele>
        <time>2021-02-21T11:22:40.993Z</time>
      </trkpt>
      <trkpt lat="48.50321" lon="7.19983">
        <ele>648</ele>
        <time>2021-02-21T11:22:41.993Z</time>
      </trkpt>
      <trkpt lat="48.50322" lon="7.19983">
        <ele>649</ele>
        <time>2021-02-21T11:22:42.993Z</time>
      </trkpt>
      <trkpt lat="48.50323" lon="7.19983">
        <ele>650</ele>
        <time>2021-02-21T11:22:43.992Z</time>
      </trkpt>
      <trkpt lat="48.50325" lon="7.19983">
        <ele>651</ele>
        <time>2021-02-21T11:22:44.993Z</time>
      </trkpt>
      <trkpt lat="48.50327" lon="7.19983">
        <ele>651</ele>
        <time>2021-02-21T11:22:45.993Z</time>
      </trkpt>
      <trkpt lat="48.50329" lon="7.19983">
        <ele>652</ele>
        <time>2021-02-21T11:22:46.993Z</time>
      </trkpt>
      <trkpt lat="48.5033" lon="7.19984">
        <ele>652</ele>
        <time>2021-02-21T11:22:47.993Z</time>
      </trkpt>
      <trkpt lat="48.50331" lon="7.19984">
        <ele>652</ele>
        <time>2021-02-21T11:22:48.993Z</time>
      </trkpt>
      <trkpt lat="48.50333" lon="7.19984">
        <ele>653</ele>
        <time>2021-02-21T11:22:49.992Z</time>
      </trkpt>
      <trkpt lat="48.50334" lon="7.19984">
        <ele>653</ele>
        <time>2021-02-21T11:22:50.992Z</time>
      </trkpt>
      <trkpt lat="48.50336" lon="7.19984">
        <ele>653</ele>
        <time>2021-02-21T11:22:51.993Z</time>
      </trkpt>
      <trkpt lat="48.50337" lon="7.19984">
        <ele>653</ele>
        <time>2021-02-21T11:22:52.992Z</time>
      </trkpt>
      <trkpt lat="48.50339" lon="7.19984">
        <ele>654</ele>
        <time>2021-02-21T11:22:53.992Z</time>
      </trkpt>
      <trkpt lat="48.5034" lon="7.19985">
        <ele>654</ele>
        <time>2021-02-21T11:22:54.993Z</time>
      </trkpt>
      <trkpt lat="48.50342" lon="7.19985">
        <ele>655</ele>
        <time>2021-02-21T11:22:55.993Z</time>
      </trkpt>
      <trkpt lat="48.50344" lon="7.19986">
        <ele>655</ele>
        <time>2021-02-21T11:22:56.992Z</time>
      </trkpt>
      <trkpt lat="48.50345" lon="7.19986">
        <ele>654</ele>
        <time>2021-02-21T11:22:57.993Z</time>
      </trkpt>
      <trkpt lat="48.50346" lon="7.19987">
        <ele>654</ele>
        <time>2021-02-21T11:22:58.993Z</time>
      </trkpt>
      <trkpt lat="48.50348" lon="7.19988">
        <ele>653</ele>
        <time>2021-02-21T11:22:59.993Z</time>
      </trkpt>
      <trkpt lat="48.5035" lon="7.19988">
        <ele>653</ele>
        <time>2021-02-21T11:23:00.992Z</time>
      </trkpt>
      <trkpt lat="48.50351" lon="7.19989">
        <ele>653</ele>
        <time>2021-02-21T11:23:01.992Z</time>
      </trkpt>
      <trkpt lat="48.50352" lon="7.1999">
        <ele>653</ele>
        <time>2021-02-21T11:23:02.993Z</time>
      </trkpt>
      <trkpt lat="48.50354" lon="7.19991">
        <ele>653</ele>
        <time>2021-02-21T11:23:03.993Z</time>
      </trkpt>
      <trkpt lat="48.50355" lon="7.19992">
        <ele>652</ele>
        <time>2021-02-21T11:23:04.992Z</time>
      </trkpt>
      <trkpt lat="48.50356" lon="7.19993">
        <ele>652</ele>
        <time>2021-02-21T11:23:05.992Z</time>
      </trkpt>
      <trkpt lat="48.50358" lon="7.19993">
        <ele>652</ele>
        <time>2021-02-21T11:23:06.992Z</time>
      </trkpt>
      <trkpt lat="48.50359" lon="7.19994">
        <ele>652</ele>
        <time>2021-02-21T11:23:07.993Z</time>
      </trkpt>
      <trkpt lat="48.5036" lon="7.19994">
        <ele>651</ele>
        <time>2021-02-21T11:23:08.993Z</time>
      </trkpt>
      <trkpt lat="48.50361" lon="7.19995">
        <ele>651</ele>
        <time>2021-02-21T11:23:09.993Z</time>
      </trkpt>
      <trkpt lat="48.50363" lon="7.19996">
        <ele>651</ele>
        <time>2021-02-21T11:23:10.993Z</time>
      </trkpt>
      <trkpt lat="48.50364" lon="7.19997">
        <ele>651</ele>
        <time>2021-02-21T11:23:11.993Z</time>
      </trkpt>
      <trkpt lat="48.50366" lon="7.19997">
        <ele>651</ele>
        <time>2021-02-21T11:23:12.992Z</time>
      </trkpt>
      <trkpt lat="48.50367" lon="7.19998">
        <ele>651</ele>
        <time>2021-02-21T11:23:13.993Z</time>
      </trkpt>
      <trkpt lat="48.50368" lon="7.19999">
        <ele>651</ele>
        <time>2021-02-21T11:23:14.992Z</time>
      </trkpt>
      <trkpt lat="48.50369" lon="7.19999">
        <ele>651</ele>
        <time>2021-02-21T11:23:15.992Z</time>
      </trkpt>
      <trkpt lat="48.5037" lon="7.2">
        <ele>651</ele>
        <time>2021-02-21T11:23:16.993Z</time>
      </trkpt>
      <trkpt lat="48.50372" lon="7.20001">
        <ele>651</ele>
        <time>2021-02-21T11:23:17.992Z</time>
      </trkpt>
      <trkpt lat="48.50373" lon="7.20001">
        <ele>651</ele>
        <time>2021-02-21T11:23:18.992Z</time>
      </trkpt>
      <trkpt lat="48.50374" lon="7.20002">
        <ele>650</ele>
        <time>2021-02-21T11:23:19.993Z</time>
      </trkpt>
      <trkpt lat="48.50375" lon="7.20002">
        <ele>650</ele>
        <time>2021-02-21T11:23:20.992Z</time>
      </trkpt>
      <trkpt lat="48.50377" lon="7.20003">
        <ele>651</ele>
        <time>2021-02-21T11:23:21.992Z</time>
      </trkpt>
      <trkpt lat="48.50378" lon="7.20004">
        <ele>651</ele>
        <time>2021-02-21T11:23:22.993Z</time>
      </trkpt>
      <trkpt lat="48.50379" lon="7.20004">
        <ele>650</ele>
        <time>2021-02-21T11:23:23.993Z</time>
      </trkpt>
      <trkpt lat="48.50381" lon="7.20004">
        <ele>650</ele>
        <time>2021-02-21T11:23:24.993Z</time>
      </trkpt>
      <trkpt lat="48.50382" lon="7.20005">
        <ele>650</ele>
        <time>2021-02-21T11:23:25.993Z</time>
      </trkpt>
      <trkpt lat="48.50383" lon="7.20006">
        <ele>650</ele>
        <time>2021-02-21T11:23:26.992Z</time>
      </trkpt>
      <trkpt lat="48.50385" lon="7.20007">
        <ele>650</ele>
        <time>2021-02-21T11:23:27.993Z</time>
      </trkpt>
      <trkpt lat="48.50386" lon="7.20008">
        <ele>650</ele>
        <time>2021-02-21T11:23:28.993Z</time>
      </trkpt>
      <trkpt lat="48.50387" lon="7.20009">
        <ele>650</ele>
        <time>2021-02-21T11:23:29.993Z</time>
      </trkpt>
      <trkpt lat="48.50388" lon="7.2001">
        <ele>651</ele>
        <time>2021-02-21T11:23:30.992Z</time>
      </trkpt>
      <trkpt lat="48.50389" lon="7.20011">
        <ele>651</ele>
        <time>2021-02-21T11:23:31.992Z</time>
      </trkpt>
      <trkpt lat="48.5039" lon="7.20011">
        <ele>651</ele>
        <time>2021-02-21T11:23:32.993Z</time>
      </trkpt>
      <trkpt lat="48.50391" lon="7.20012">
        <ele>651</ele>
        <time>2021-02-21T11:23:33.993Z</time>
      </trkpt>
      <trkpt lat="48.50393" lon="7.20013">
        <ele>651</ele>
        <time>2021-02-21T11:23:34.992Z</time>
      </trkpt>
      <trkpt lat="48.50394" lon="7.20014">
        <ele>651</ele>
        <time>2021-02-21T11:23:35.993Z</time>
      </trkpt>
      <trkpt lat="48.50395" lon="7.20015">
        <ele>652</ele>
        <time>2021-02-21T11:23:36.992Z</time>
      </trkpt>
      <trkpt lat="48.50397" lon="7.20016">
        <ele>652</ele>
        <time>2021-02-21T11:23:37.992Z</time>
      </trkpt>
      <trkpt lat="48.50398" lon="7.20017">
        <ele>653</ele>
        <time>2021-02-21T11:23:38.993Z</time>
      </trkpt>
      <trkpt lat="48.50399" lon="7.20017">
        <ele>654</ele>
        <time>2021-02-21T11:23:39.993Z</time>
      </trkpt>
      <trkpt lat="48.504" lon="7.20018">
        <ele>654</ele>
        <time>2021-02-21T11:23:40.992Z</time>
      </trkpt>
      <trkpt lat="48.50401" lon="7.20019">
        <ele>655</ele>
        <time>2021-02-21T11:23:41.993Z</time>
      </trkpt>
      <trkpt lat="48.50403" lon="7.20019">
        <ele>656</ele>
        <time>2021-02-21T11:23:42.993Z</time>
      </trkpt>
      <trkpt lat="48.50404" lon="7.2002">
        <ele>657</ele>
        <time>2021-02-21T11:23:43.993Z</time>
      </trkpt>
      <trkpt lat="48.50405" lon="7.20021">
        <ele>657</ele>
        <time>2021-02-21T11:23:44.993Z</time>
      </trkpt>
      <trkpt lat="48.50405" lon="7.20021">
        <ele>658</ele>
        <time>2021-02-21T11:23:45.992Z</time>
      </trkpt>
      <trkpt lat="48.50406" lon="7.20022">
        <ele>658</ele>
        <time>2021-02-21T11:23:46.992Z</time>
      </trkpt>
      <trkpt lat="48.50407" lon="7.20023">
        <ele>658</ele>
        <time>2021-02-21T11:23:47.992Z</time>
      </trkpt>
      <trkpt lat="48.50409" lon="7.20023">
        <ele>658</ele>
        <time>2021-02-21T11:23:48.992Z</time>
      </trkpt>
      <trkpt lat="48.5041" lon="7.20024">
        <ele>658</ele>
        <time>2021-02-21T11:23:49.993Z</time>
      </trkpt>
      <trkpt lat="48.50411" lon="7.20024">
        <ele>658</ele>
        <time>2021-02-21T11:23:50.993Z</time>
      </trkpt>
      <trkpt lat="48.50412" lon="7.20025">
        <ele>659</ele>
        <time>2021-02-21T11:23:51.993Z</time>
      </trkpt>
      <trkpt lat="48.50414" lon="7.20025">
        <ele>659</ele>
        <time>2021-02-21T11:23:52.992Z</time>
      </trkpt>
      <trkpt lat="48.50415" lon="7.20026">
        <ele>659</ele>
        <time>2021-02-21T11:23:53.992Z</time>
      </trkpt>
      <trkpt lat="48.50416" lon="7.20027">
        <ele>659</ele>
        <time>2021-02-21T11:23:54.993Z</time>
      </trkpt>
      <trkpt lat="48.50417" lon="7.20027">
        <ele>658</ele>
        <time>2021-02-21T11:23:55.992Z</time>
      </trkpt>
      <trkpt lat="48.50418" lon="7.20028">
        <ele>659</ele>
        <time>2021-02-21T11:23:56.992Z</time>
      </trkpt>
      <trkpt lat="48.50419" lon="7.20029">
        <ele>659</ele>
        <time>2021-02-21T11:23:57.992Z</time>
      </trkpt>
      <trkpt lat="48.5042" lon="7.20029">
        <ele>659</ele>
        <time>2021-02-21T11:23:58.993Z</time>
      </trkpt>
      <trkpt lat="48.5042" lon="7.20029">
        <ele>660</ele>
        <time>2021-02-21T11:23:59.993Z</time>
      </trkpt>
      <trkpt lat="48.50422" lon="7.20029">
        <ele>660</ele>
        <time>2021-02-21T11:24:00.992Z</time>
      </trkpt>
      <trkpt lat="48.50423" lon="7.20029">
        <ele>661</ele>
        <time>2021-02-21T11:24:01.993Z</time>
      </trkpt>
      <trkpt lat="48.50424" lon="7.2003">
        <ele>662</ele>
        <time>2021-02-21T11:24:02.993Z</time>
      </trkpt>
      <trkpt lat="48.50425" lon="7.20029">
        <ele>663</ele>
        <time>2021-02-21T11:24:03.993Z</time>
      </trkpt>
      <trkpt lat="48.50426" lon="7.2003">
        <ele>663</ele>
        <time>2021-02-21T11:24:04.993Z</time>
      </trkpt>
      <trkpt lat="48.50427" lon="7.2003">
        <ele>663</ele>
        <time>2021-02-21T11:24:05.992Z</time>
      </trkpt>
      <trkpt lat="48.50428" lon="7.20029">
        <ele>664</ele>
        <time>2021-02-21T11:24:06.992Z</time>
      </trkpt>
      <trkpt lat="48.50429" lon="7.20031">
        <ele>664</ele>
        <time>2021-02-21T11:24:07.992Z</time>
      </trkpt>
      <trkpt lat="48.5043" lon="7.20032">
        <ele>664</ele>
        <time>2021-02-21T11:24:29.030Z</time>
      </trkpt>
      <trkpt lat="48.50431" lon="7.20034">
        <ele>664</ele>
        <time>2021-02-21T11:24:30.030Z</time>
      </trkpt>
      <trkpt lat="48.50432" lon="7.20035">
        <ele>664</ele>
        <time>2021-02-21T11:24:31.029Z</time>
      </trkpt>
      <trkpt lat="48.50433" lon="7.20036">
        <ele>664</ele>
        <time>2021-02-21T11:24:32.029Z</time>
      </trkpt>
      <trkpt lat="48.50434" lon="7.20036">
        <ele>664</ele>
        <time>2021-02-21T11:24:33.029Z</time>
      </trkpt>
      <trkpt lat="48.50435" lon="7.20036">
        <ele>664</ele>
        <time>2021-02-21T11:24:34.029Z</time>
      </trkpt>
      <trkpt lat="48.50435" lon="7.20034">
        <ele>665</ele>
        <time>2021-02-21T11:24:35.030Z</time>
      </trkpt>
      <trkpt lat="48.50435" lon="7.20033">
        <ele>665</ele>
        <time>2021-02-21T11:24:36.029Z</time>
      </trkpt>
      <trkpt lat="48.50436" lon="7.20033">
        <ele>666</ele>
        <time>2021-02-21T11:24:37.029Z</time>
      </trkpt>
      <trkpt lat="48.50436" lon="7.20032">
        <ele>667</ele>
        <time>2021-02-21T11:24:38.029Z</time>
      </trkpt>
      <trkpt lat="48.50437" lon="7.20032">
        <ele>669</ele>
        <time>2021-02-21T11:24:39.029Z</time>
      </trkpt>
      <trkpt lat="48.50438" lon="7.20032">
        <ele>670</ele>
        <time>2021-02-21T11:24:40.029Z</time>
      </trkpt>
      <trkpt lat="48.50439" lon="7.20031">
        <ele>671</ele>
        <time>2021-02-21T11:24:41.029Z</time>
      </trkpt>
      <trkpt lat="48.5044" lon="7.20032">
        <ele>671</ele>
        <time>2021-02-21T11:24:42.030Z</time>
      </trkpt>
      <trkpt lat="48.50441" lon="7.20032">
        <ele>671</ele>
        <time>2021-02-21T11:24:43.029Z</time>
      </trkpt>
      <trkpt lat="48.50441" lon="7.20031">
        <ele>671</ele>
        <time>2021-02-21T11:24:44.030Z</time>
      </trkpt>
      <trkpt lat="48.50441" lon="7.20031">
        <ele>671</ele>
        <time>2021-02-21T11:24:45.030Z</time>
      </trkpt>
      <trkpt lat="48.50441" lon="7.20031">
        <ele>671</ele>
        <time>2021-02-21T11:24:46.030Z</time>
      </trkpt>
      <trkpt lat="48.50441" lon="7.20032">
        <ele>670</ele>
        <time>2021-02-21T11:24:47.030Z</time>
      </trkpt>
      <trkpt lat="48.50442" lon="7.20033">
        <ele>670</ele>
        <time>2021-02-21T11:24:48.030Z</time>
      </trkpt>
      <trkpt lat="48.50443" lon="7.20033">
        <ele>669</ele>
        <time>2021-02-21T11:24:49.030Z</time>
      </trkpt>
      <trkpt lat="48.50444" lon="7.20033">
        <ele>669</ele>
        <time>2021-02-21T11:24:50.030Z</time>
      </trkpt>
      <trkpt lat="48.50445" lon="7.20033">
        <ele>669</ele>
        <time>2021-02-21T11:24:51.030Z</time>
      </trkpt>
      <trkpt lat="48.50447" lon="7.20034">
        <ele>669</ele>
        <time>2021-02-21T11:24:52.030Z</time>
      </trkpt>
      <trkpt lat="48.50447" lon="7.20035">
        <ele>668</ele>
        <time>2021-02-21T11:24:53.030Z</time>
      </trkpt>
      <trkpt lat="48.50448" lon="7.20037">
        <ele>668</ele>
        <time>2021-02-21T11:24:54.029Z</time>
      </trkpt>
      <trkpt lat="48.50448" lon="7.20038">
        <ele>667</ele>
        <time>2021-02-21T11:24:55.030Z</time>
      </trkpt>
      <trkpt lat="48.50448" lon="7.20038">
        <ele>667</ele>
        <time>2021-02-21T11:24:56.029Z</time>
      </trkpt>
      <trkpt lat="48.50448" lon="7.20039">
        <ele>666</ele>
        <time>2021-02-21T11:24:57.030Z</time>
      </trkpt>
      <trkpt lat="48.50449" lon="7.20039">
        <ele>665</ele>
        <time>2021-02-21T11:24:58.030Z</time>
      </trkpt>
      <trkpt lat="48.50449" lon="7.2004">
        <ele>665</ele>
        <time>2021-02-21T11:24:59.030Z</time>
      </trkpt>
      <trkpt lat="48.5045" lon="7.2004">
        <ele>665</ele>
        <time>2021-02-21T11:25:00.029Z</time>
      </trkpt>
      <trkpt lat="48.50452" lon="7.2004">
        <ele>665</ele>
        <time>2021-02-21T11:25:01.030Z</time>
      </trkpt>
      <trkpt lat="48.50453" lon="7.2004">
        <ele>665</ele>
        <time>2021-02-21T11:25:02.030Z</time>
      </trkpt>
      <trkpt lat="48.50454" lon="7.2004">
        <ele>665</ele>
        <time>2021-02-21T11:25:03.029Z</time>
      </trkpt>
      <trkpt lat="48.50455" lon="7.20042">
        <ele>664</ele>
        <time>2021-02-21T11:25:04.030Z</time>
      </trkpt>
      <trkpt lat="48.50456" lon="7.20043">
        <ele>664</ele>
        <time>2021-02-21T11:25:05.029Z</time>
      </trkpt>
      <trkpt lat="48.50456" lon="7.20044">
        <ele>664</ele>
        <time>2021-02-21T11:25:06.029Z</time>
      </trkpt>
      <trkpt lat="48.50457" lon="7.20045">
        <ele>663</ele>
        <time>2021-02-21T11:25:07.030Z</time>
      </trkpt>
      <trkpt lat="48.50458" lon="7.20046">
        <ele>662</ele>
        <time>2021-02-21T11:25:08.029Z</time>
      </trkpt>
      <trkpt lat="48.50458" lon="7.20047">
        <ele>662</ele>
        <time>2021-02-21T11:25:09.030Z</time>
      </trkpt>
      <trkpt lat="48.50459" lon="7.20048">
        <ele>661</ele>
        <time>2021-02-21T11:25:10.030Z</time>
      </trkpt>
      <trkpt lat="48.5046" lon="7.2005">
        <ele>661</ele>
        <time>2021-02-21T11:25:11.029Z</time>
      </trkpt>
      <trkpt lat="48.5046" lon="7.20051">
        <ele>661</ele>
        <time>2021-02-21T11:25:12.029Z</time>
      </trkpt>
      <trkpt lat="48.50461" lon="7.20053">
        <ele>661</ele>
        <time>2021-02-21T11:25:13.029Z</time>
      </trkpt>
      <trkpt lat="48.50462" lon="7.20055">
        <ele>661</ele>
        <time>2021-02-21T11:25:14.029Z</time>
      </trkpt>
      <trkpt lat="48.50463" lon="7.20056">
        <ele>661</ele>
        <time>2021-02-21T11:25:15.029Z</time>
      </trkpt>
      <trkpt lat="48.50464" lon="7.20058">
        <ele>661</ele>
        <time>2021-02-21T11:25:16.029Z</time>
      </trkpt>
      <trkpt lat="48.50465" lon="7.2006">
        <ele>661</ele>
        <time>2021-02-21T11:25:17.030Z</time>
      </trkpt>
      <trkpt lat="48.50466" lon="7.20062">
        <ele>661</ele>
        <time>2021-02-21T11:25:18.029Z</time>
      </trkpt>
      <trkpt lat="48.50467" lon="7.20065">
        <ele>661</ele>
        <time>2021-02-21T11:25:19.030Z</time>
      </trkpt>
      <trkpt lat="48.50468" lon="7.20068">
        <ele>661</ele>
        <time>2021-02-21T11:25:20.030Z</time>
      </trkpt>
      <trkpt lat="48.50469" lon="7.2007">
        <ele>661</ele>
        <time>2021-02-21T11:25:21.030Z</time>
      </trkpt>
      <trkpt lat="48.5047" lon="7.20071">
        <ele>661</ele>
        <time>2021-02-21T11:25:22.030Z</time>
      </trkpt>
      <trkpt lat="48.50471" lon="7.20072">
        <ele>661</ele>
        <time>2021-02-21T11:25:23.029Z</time>
      </trkpt>
      <trkpt lat="48.50472" lon="7.20074">
        <ele>661</ele>
        <time>2021-02-21T11:25:24.029Z</time>
      </trkpt>
      <trkpt lat="48.50473" lon="7.20075">
        <ele>661</ele>
        <time>2021-02-21T11:25:25.030Z</time>
      </trkpt>
      <trkpt lat="48.50474" lon="7.20075">
        <ele>661</ele>
        <time>2021-02-21T11:25:26.030Z</time>
      </trkpt>
      <trkpt lat="48.50475" lon="7.20076">
        <ele>660</ele>
        <time>2021-02-21T11:25:27.030Z</time>
      </trkpt>
      <trkpt lat="48.50475" lon="7.20078">
        <ele>660</ele>
        <time>2021-02-21T11:25:28.030Z</time>
      </trkpt>
      <trkpt lat="48.50476" lon="7.20079">
        <ele>659</ele>
        <time>2021-02-21T11:25:29.030Z</time>
      </trkpt>
      <trkpt lat="48.50478" lon="7.2008">
        <ele>659</ele>
        <time>2021-02-21T11:25:30.030Z</time>
      </trkpt>
      <trkpt lat="48.50479" lon="7.20081">
        <ele>660</ele>
        <time>2021-02-21T11:25:31.030Z</time>
      </trkpt>
      <trkpt lat="48.50482" lon="7.20083">
        <ele>660</ele>
        <time>2021-02-21T11:25:32.030Z</time>
      </trkpt>
      <trkpt lat="48.50483" lon="7.20085">
        <ele>660</ele>
        <time>2021-02-21T11:25:33.030Z</time>
      </trkpt>
      <trkpt lat="48.50485" lon="7.20086">
        <ele>660</ele>
        <time>2021-02-21T11:25:34.029Z</time>
      </trkpt>
      <trkpt lat="48.50485" lon="7.20087">
        <ele>660</ele>
        <time>2021-02-21T11:25:35.030Z</time>
      </trkpt>
      <trkpt lat="48.50486" lon="7.20088">
        <ele>660</ele>
        <time>2021-02-21T11:25:36.029Z</time>
      </trkpt>
      <trkpt lat="48.50488" lon="7.2009">
        <ele>660</ele>
        <time>2021-02-21T11:25:37.030Z</time>
      </trkpt>
      <trkpt lat="48.50488" lon="7.20091">
        <ele>659</ele>
        <time>2021-02-21T11:25:38.029Z</time>
      </trkpt>
      <trkpt lat="48.50489" lon="7.20093">
        <ele>659</ele>
        <time>2021-02-21T11:25:39.030Z</time>
      </trkpt>
      <trkpt lat="48.50491" lon="7.20094">
        <ele>658</ele>
        <time>2021-02-21T11:25:40.030Z</time>
      </trkpt>
      <trkpt lat="48.50491" lon="7.20096">
        <ele>658</ele>
        <time>2021-02-21T11:25:41.030Z</time>
      </trkpt>
      <trkpt lat="48.50492" lon="7.20097">
        <ele>657</ele>
        <time>2021-02-21T11:25:42.030Z</time>
      </trkpt>
      <trkpt lat="48.50493" lon="7.20099">
        <ele>657</ele>
        <time>2021-02-21T11:25:43.030Z</time>
      </trkpt>
      <trkpt lat="48.50494" lon="7.201">
        <ele>657</ele>
        <time>2021-02-21T11:25:44.029Z</time>
      </trkpt>
      <trkpt lat="48.50495" lon="7.20101">
        <ele>657</ele>
        <time>2021-02-21T11:25:45.030Z</time>
      </trkpt>
      <trkpt lat="48.50496" lon="7.20102">
        <ele>657</ele>
        <time>2021-02-21T11:25:46.029Z</time>
      </trkpt>
      <trkpt lat="48.50497" lon="7.20103">
        <ele>657</ele>
        <time>2021-02-21T11:25:47.030Z</time>
      </trkpt>
      <trkpt lat="48.50498" lon="7.20104">
        <ele>657</ele>
        <time>2021-02-21T11:25:48.030Z</time>
      </trkpt>
      <trkpt lat="48.50499" lon="7.20106">
        <ele>657</ele>
        <time>2021-02-21T11:25:50.119Z</time>
      </trkpt>
      <trkpt lat="48.50502" lon="7.20107">
        <ele>657</ele>
        <time>2021-02-21T11:25:51.119Z</time>
      </trkpt>
      <trkpt lat="48.50504" lon="7.20108">
        <ele>658</ele>
        <time>2021-02-21T11:25:52.118Z</time>
      </trkpt>
      <trkpt lat="48.50505" lon="7.2011">
        <ele>658</ele>
        <time>2021-02-21T11:25:53.119Z</time>
      </trkpt>
      <trkpt lat="48.50506" lon="7.20112">
        <ele>658</ele>
        <time>2021-02-21T11:25:54.118Z</time>
      </trkpt>
      <trkpt lat="48.50507" lon="7.20114">
        <ele>658</ele>
        <time>2021-02-21T11:25:55.119Z</time>
      </trkpt>
      <trkpt lat="48.50507" lon="7.20115">
        <ele>659</ele>
        <time>2021-02-21T11:25:56.119Z</time>
      </trkpt>
      <trkpt lat="48.50508" lon="7.20117">
        <ele>659</ele>
        <time>2021-02-21T11:25:57.119Z</time>
      </trkpt>
      <trkpt lat="48.50508" lon="7.20118">
        <ele>658</ele>
        <time>2021-02-21T11:25:58.119Z</time>
      </trkpt>
      <trkpt lat="48.50509" lon="7.20119">
        <ele>658</ele>
        <time>2021-02-21T11:25:59.119Z</time>
      </trkpt>
      <trkpt lat="48.5051" lon="7.20121">
        <ele>658</ele>
        <time>2021-02-21T11:26:00.119Z</time>
      </trkpt>
      <trkpt lat="48.50511" lon="7.20122">
        <ele>658</ele>
        <time>2021-02-21T11:26:01.119Z</time>
      </trkpt>
      <trkpt lat="48.50512" lon="7.20124">
        <ele>657</ele>
        <time>2021-02-21T11:26:02.118Z</time>
      </trkpt>
      <trkpt lat="48.50512" lon="7.20125">
        <ele>657</ele>
        <time>2021-02-21T11:26:03.118Z</time>
      </trkpt>
      <trkpt lat="48.50513" lon="7.20127">
        <ele>656</ele>
        <time>2021-02-21T11:26:04.118Z</time>
      </trkpt>
      <trkpt lat="48.50514" lon="7.20128">
        <ele>656</ele>
        <time>2021-02-21T11:26:05.119Z</time>
      </trkpt>
      <trkpt lat="48.50515" lon="7.2013">
        <ele>655</ele>
        <time>2021-02-21T11:26:06.119Z</time>
      </trkpt>
      <trkpt lat="48.50516" lon="7.20131">
        <ele>655</ele>
        <time>2021-02-21T11:26:07.119Z</time>
      </trkpt>
      <trkpt lat="48.50517" lon="7.20133">
        <ele>655</ele>
        <time>2021-02-21T11:26:08.119Z</time>
      </trkpt>
      <trkpt lat="48.50517" lon="7.20134">
        <ele>655</ele>
        <time>2021-02-21T11:26:09.118Z</time>
      </trkpt>
      <trkpt lat="48.50518" lon="7.20136">
        <ele>655</ele>
        <time>2021-02-21T11:26:10.119Z</time>
      </trkpt>
      <trkpt lat="48.50519" lon="7.20137">
        <ele>655</ele>
        <time>2021-02-21T11:26:11.119Z</time>
      </trkpt>
      <trkpt lat="48.5052" lon="7.20138">
        <ele>654</ele>
        <time>2021-02-21T11:26:12.118Z</time>
      </trkpt>
      <trkpt lat="48.5052" lon="7.20139">
        <ele>654</ele>
        <time>2021-02-21T11:26:13.118Z</time>
      </trkpt>
      <trkpt lat="48.50521" lon="7.2014">
        <ele>653</ele>
        <time>2021-02-21T11:26:14.119Z</time>
      </trkpt>
      <trkpt lat="48.50522" lon="7.20142">
        <ele>653</ele>
        <time>2021-02-21T11:26:15.118Z</time>
      </trkpt>
      <trkpt lat="48.50522" lon="7.20143">
        <ele>652</ele>
        <time>2021-02-21T11:26:16.119Z</time>
      </trkpt>
      <trkpt lat="48.50523" lon="7.20144">
        <ele>652</ele>
        <time>2021-02-21T11:26:17.118Z</time>
      </trkpt>
      <trkpt lat="48.50524" lon="7.20145">
        <ele>651</ele>
        <time>2021-02-21T11:26:26.153Z</time>
      </trkpt>
      <trkpt lat="48.50524" lon="7.20146">
        <ele>651</ele>
        <time>2021-02-21T11:26:27.154Z</time>
      </trkpt>
      <trkpt lat="48.50525" lon="7.20148">
        <ele>651</ele>
        <time>2021-02-21T11:26:28.154Z</time>
      </trkpt>
      <trkpt lat="48.50526" lon="7.20149">
        <ele>652</ele>
        <time>2021-02-21T11:26:32.258Z</time>
      </trkpt>
      <trkpt lat="48.50527" lon="7.2015">
        <ele>652</ele>
        <time>2021-02-21T11:26:33.258Z</time>
      </trkpt>
      <trkpt lat="48.50528" lon="7.20152">
        <ele>652</ele>
        <time>2021-02-21T11:26:34.258Z</time>
      </trkpt>
      <trkpt lat="48.50528" lon="7.20153">
        <ele>652</ele>
        <time>2021-02-21T11:26:35.258Z</time>
      </trkpt>
      <trkpt lat="48.50529" lon="7.20154">
        <ele>652</ele>
        <time>2021-02-21T11:26:36.258Z</time>
      </trkpt>
      <trkpt lat="48.5053" lon="7.20155">
        <ele>653</ele>
        <time>2021-02-21T11:26:37.258Z</time>
      </trkpt>
      <trkpt lat="48.50531" lon="7.20156">
        <ele>653</ele>
        <time>2021-02-21T11:27:40.402Z</time>
      </trkpt>
      <trkpt lat="48.50531" lon="7.20157">
        <ele>652</ele>
        <time>2021-02-21T11:27:41.402Z</time>
      </trkpt>
      <trkpt lat="48.50532" lon="7.20158">
        <ele>652</ele>
        <time>2021-02-21T11:27:42.402Z</time>
      </trkpt>
      <trkpt lat="48.50533" lon="7.20159">
        <ele>652</ele>
        <time>2021-02-21T11:27:43.402Z</time>
      </trkpt>
      <trkpt lat="48.50534" lon="7.2016">
        <ele>651</ele>
        <time>2021-02-21T11:27:44.403Z</time>
      </trkpt>
      <trkpt lat="48.50534" lon="7.20161">
        <ele>651</ele>
        <time>2021-02-21T11:27:45.403Z</time>
      </trkpt>
      <trkpt lat="48.50535" lon="7.20161">
        <ele>651</ele>
        <time>2021-02-21T11:27:46.403Z</time>
      </trkpt>
      <trkpt lat="48.50536" lon="7.20162">
        <ele>651</ele>
        <time>2021-02-21T11:27:47.403Z</time>
      </trkpt>
      <trkpt lat="48.50536" lon="7.20162">
        <ele>651</ele>
        <time>2021-02-21T11:27:48.403Z</time>
      </trkpt>
      <trkpt lat="48.50537" lon="7.20163">
        <ele>651</ele>
        <time>2021-02-21T11:27:49.403Z</time>
      </trkpt>
      <trkpt lat="48.50538" lon="7.20164">
        <ele>651</ele>
        <time>2021-02-21T11:27:50.402Z</time>
      </trkpt>
      <trkpt lat="48.50538" lon="7.20164">
        <ele>651</ele>
        <time>2021-02-21T11:27:51.402Z</time>
      </trkpt>
      <trkpt lat="48.50538" lon="7.20165">
        <ele>651</ele>
        <time>2021-02-21T11:27:52.402Z</time>
      </trkpt>
      <trkpt lat="48.50539" lon="7.20165">
        <ele>650</ele>
        <time>2021-02-21T11:27:53.403Z</time>
      </trkpt>
      <trkpt lat="48.50539" lon="7.20165">
        <ele>649</ele>
        <time>2021-02-21T11:27:54.403Z</time>
      </trkpt>
      <trkpt lat="48.50539" lon="7.20166">
        <ele>649</ele>
        <time>2021-02-21T11:27:55.403Z</time>
      </trkpt>
      <trkpt lat="48.5054" lon="7.20166">
        <ele>649</ele>
        <time>2021-02-21T11:27:56.403Z</time>
      </trkpt>
      <trkpt lat="48.5054" lon="7.20167">
        <ele>650</ele>
        <time>2021-02-21T11:27:57.402Z</time>
      </trkpt>
      <trkpt lat="48.5054" lon="7.20168">
        <ele>650</ele>
        <time>2021-02-21T11:27:58.403Z</time>
      </trkpt>
      <trkpt lat="48.5054" lon="7.20168">
        <ele>649</ele>
        <time>2021-02-21T11:27:59.403Z</time>
      </trkpt>
      <trkpt lat="48.50541" lon="7.20169">
        <ele>649</ele>
        <time>2021-02-21T11:28:00.402Z</time>
      </trkpt>
      <trkpt lat="48.50542" lon="7.20169">
        <ele>649</ele>
        <time>2021-02-21T11:28:01.403Z</time>
      </trkpt>
      <trkpt lat="48.50542" lon="7.2017">
        <ele>649</ele>
        <time>2021-02-21T11:28:02.402Z</time>
      </trkpt>
      <trkpt lat="48.50543" lon="7.2017">
        <ele>649</ele>
        <time>2021-02-21T11:28:03.403Z</time>
      </trkpt>
      <trkpt lat="48.50544" lon="7.20171">
        <ele>649</ele>
        <time>2021-02-21T11:28:04.403Z</time>
      </trkpt>
      <trkpt lat="48.50544" lon="7.20171">
        <ele>649</ele>
        <time>2021-02-21T11:28:05.403Z</time>
      </trkpt>
      <trkpt lat="48.50545" lon="7.20171">
        <ele>649</ele>
        <time>2021-02-21T11:28:06.403Z</time>
      </trkpt>
      <trkpt lat="48.50545" lon="7.20173">
        <ele>649</ele>
        <time>2021-02-21T11:28:07.402Z</time>
      </trkpt>
      <trkpt lat="48.50546" lon="7.20174">
        <ele>649</ele>
        <time>2021-02-21T11:28:08.403Z</time>
      </trkpt>
      <trkpt lat="48.50547" lon="7.20174">
        <ele>649</ele>
        <time>2021-02-21T11:28:09.403Z</time>
      </trkpt>
      <trkpt lat="48.50548" lon="7.20175">
        <ele>650</ele>
        <time>2021-02-21T11:28:10.402Z</time>
      </trkpt>
      <trkpt lat="48.50548" lon="7.20177">
        <ele>650</ele>
        <time>2021-02-21T11:28:11.402Z</time>
      </trkpt>
      <trkpt lat="48.50549" lon="7.20178">
        <ele>651</ele>
        <time>2021-02-21T11:28:12.402Z</time>
      </trkpt>
      <trkpt lat="48.5055" lon="7.20178">
        <ele>652</ele>
        <time>2021-02-21T11:28:13.403Z</time>
      </trkpt>
      <trkpt lat="48.50551" lon="7.20178">
        <ele>652</ele>
        <time>2021-02-21T11:28:14.403Z</time>
      </trkpt>
      <trkpt lat="48.50552" lon="7.20179">
        <ele>653</ele>
        <time>2021-02-21T11:28:15.402Z</time>
      </trkpt>
      <trkpt lat="48.50553" lon="7.2018">
        <ele>653</ele>
        <time>2021-02-21T11:28:16.402Z</time>
      </trkpt>
      <trkpt lat="48.50553" lon="7.20181">
        <ele>653</ele>
        <time>2021-02-21T11:28:17.402Z</time>
      </trkpt>
      <trkpt lat="48.50554" lon="7.20181">
        <ele>653</ele>
        <time>2021-02-21T11:28:18.403Z</time>
      </trkpt>
      <trkpt lat="48.50556" lon="7.20182">
        <ele>653</ele>
        <time>2021-02-21T11:28:19.402Z</time>
      </trkpt>
      <trkpt lat="48.50558" lon="7.20182">
        <ele>654</ele>
        <time>2021-02-21T11:28:20.402Z</time>
      </trkpt>
      <trkpt lat="48.5056" lon="7.20183">
        <ele>654</ele>
        <time>2021-02-21T11:28:21.402Z</time>
      </trkpt>
      <trkpt lat="48.50561" lon="7.20183">
        <ele>654</ele>
        <time>2021-02-21T11:28:22.402Z</time>
      </trkpt>
      <trkpt lat="48.50562" lon="7.20184">
        <ele>654</ele>
        <time>2021-02-21T11:28:23.402Z</time>
      </trkpt>
      <trkpt lat="48.50563" lon="7.20185">
        <ele>654</ele>
        <time>2021-02-21T11:28:24.403Z</time>
      </trkpt>
      <trkpt lat="48.50564" lon="7.20186">
        <ele>654</ele>
        <time>2021-02-21T11:28:25.403Z</time>
      </trkpt>
      <trkpt lat="48.50565" lon="7.20187">
        <ele>654</ele>
        <time>2021-02-21T11:28:26.402Z</time>
      </trkpt>
      <trkpt lat="48.50566" lon="7.20187">
        <ele>654</ele>
        <time>2021-02-21T11:28:27.402Z</time>
      </trkpt>
      <trkpt lat="48.50567" lon="7.20188">
        <ele>654</ele>
        <time>2021-02-21T11:28:28.402Z</time>
      </trkpt>
      <trkpt lat="48.50568" lon="7.20189">
        <ele>653</ele>
        <time>2021-02-21T11:28:29.403Z</time>
      </trkpt>
      <trkpt lat="48.50569" lon="7.2019">
        <ele>653</ele>
        <time>2021-02-21T11:28:30.402Z</time>
      </trkpt>
      <trkpt lat="48.5057" lon="7.2019">
        <ele>653</ele>
        <time>2021-02-21T11:28:31.402Z</time>
      </trkpt>
      <trkpt lat="48.50571" lon="7.20191">
        <ele>652</ele>
        <time>2021-02-21T11:28:32.402Z</time>
      </trkpt>
      <trkpt lat="48.50572" lon="7.2019">
        <ele>652</ele>
        <time>2021-02-21T11:28:33.403Z</time>
      </trkpt>
      <trkpt lat="48.50574" lon="7.2019">
        <ele>652</ele>
        <time>2021-02-21T11:28:34.402Z</time>
      </trkpt>
      <trkpt lat="48.50576" lon="7.2019">
        <ele>651</ele>
        <time>2021-02-21T11:28:35.402Z</time>
      </trkpt>
      <trkpt lat="48.50577" lon="7.2019">
        <ele>650</ele>
        <time>2021-02-21T11:28:36.402Z</time>
      </trkpt>
      <trkpt lat="48.50578" lon="7.2019">
        <ele>650</ele>
        <time>2021-02-21T11:28:37.402Z</time>
      </trkpt>
      <trkpt lat="48.50579" lon="7.2019">
        <ele>649</ele>
        <time>2021-02-21T11:28:38.402Z</time>
      </trkpt>
      <trkpt lat="48.5058" lon="7.20191">
        <ele>649</ele>
        <time>2021-02-21T11:28:39.403Z</time>
      </trkpt>
      <trkpt lat="48.50581" lon="7.20192">
        <ele>649</ele>
        <time>2021-02-21T11:28:40.402Z</time>
      </trkpt>
      <trkpt lat="48.50583" lon="7.20192">
        <ele>649</ele>
        <time>2021-02-21T11:28:41.402Z</time>
      </trkpt>
      <trkpt lat="48.50584" lon="7.20191">
        <ele>649</ele>
        <time>2021-02-21T11:28:42.402Z</time>
      </trkpt>
      <trkpt lat="48.50585" lon="7.20191">
        <ele>650</ele>
        <time>2021-02-21T11:28:43.403Z</time>
      </trkpt>
      <trkpt lat="48.50586" lon="7.20191">
        <ele>650</ele>
        <time>2021-02-21T11:28:44.403Z</time>
      </trkpt>
      <trkpt lat="48.50587" lon="7.20192">
        <ele>650</ele>
        <time>2021-02-21T11:28:45.402Z</time>
      </trkpt>
      <trkpt lat="48.50588" lon="7.20192">
        <ele>650</ele>
        <time>2021-02-21T11:28:46.402Z</time>
      </trkpt>
      <trkpt lat="48.50589" lon="7.20193">
        <ele>650</ele>
        <time>2021-02-21T11:28:47.402Z</time>
      </trkpt>
      <trkpt lat="48.5059" lon="7.20193">
        <ele>650</ele>
        <time>2021-02-21T11:28:48.402Z</time>
      </trkpt>
      <trkpt lat="48.50591" lon="7.20193">
        <ele>650</ele>
        <time>2021-02-21T11:28:49.402Z</time>
      </trkpt>
      <trkpt lat="48.50592" lon="7.20193">
        <ele>651</ele>
        <time>2021-02-21T11:28:50.402Z</time>
      </trkpt>
      <trkpt lat="48.50593" lon="7.20193">
        <ele>651</ele>
        <time>2021-02-21T11:28:51.403Z</time>
      </trkpt>
      <trkpt lat="48.50594" lon="7.20193">
        <ele>652</ele>
        <time>2021-02-21T11:28:52.402Z</time>
      </trkpt>
      <trkpt lat="48.50596" lon="7.20193">
        <ele>652</ele>
        <time>2021-02-21T11:28:53.402Z</time>
      </trkpt>
      <trkpt lat="48.50597" lon="7.20192">
        <ele>653</ele>
        <time>2021-02-21T11:28:54.403Z</time>
      </trkpt>
      <trkpt lat="48.50598" lon="7.20192">
        <ele>654</ele>
        <time>2021-02-21T11:28:55.403Z</time>
      </trkpt>
      <trkpt lat="48.506" lon="7.20193">
        <ele>655</ele>
        <time>2021-02-21T11:28:56.402Z</time>
      </trkpt>
      <trkpt lat="48.50601" lon="7.20193">
        <ele>655</ele>
        <time>2021-02-21T11:28:57.402Z</time>
      </trkpt>
      <trkpt lat="48.50602" lon="7.20194">
        <ele>656</ele>
        <time>2021-02-21T11:28:59.512Z</time>
      </trkpt>
      <trkpt lat="48.50603" lon="7.20194">
        <ele>656</ele>
        <time>2021-02-21T11:29:00.512Z</time>
      </trkpt>
      <trkpt lat="48.50603" lon="7.20194">
        <ele>656</ele>
        <time>2021-02-21T11:29:01.511Z</time>
      </trkpt>
      <trkpt lat="48.50604" lon="7.20194">
        <ele>657</ele>
        <time>2021-02-21T11:29:02.511Z</time>
      </trkpt>
      <trkpt lat="48.50606" lon="7.20195">
        <ele>657</ele>
        <time>2021-02-21T11:29:03.511Z</time>
      </trkpt>
      <trkpt lat="48.50607" lon="7.20195">
        <ele>657</ele>
        <time>2021-02-21T11:29:04.511Z</time>
      </trkpt>
      <trkpt lat="48.50609" lon="7.20196">
        <ele>657</ele>
        <time>2021-02-21T11:29:05.511Z</time>
      </trkpt>
      <trkpt lat="48.5061" lon="7.20197">
        <ele>657</ele>
        <time>2021-02-21T11:29:06.511Z</time>
      </trkpt>
      <trkpt lat="48.5061" lon="7.20198">
        <ele>657</ele>
        <time>2021-02-21T11:29:07.511Z</time>
      </trkpt>
      <trkpt lat="48.50611" lon="7.20198">
        <ele>657</ele>
        <time>2021-02-21T11:29:08.511Z</time>
      </trkpt>
      <trkpt lat="48.50613" lon="7.20199">
        <ele>657</ele>
        <time>2021-02-21T11:29:09.511Z</time>
      </trkpt>
      <trkpt lat="48.50614" lon="7.20198">
        <ele>657</ele>
        <time>2021-02-21T11:29:10.511Z</time>
      </trkpt>
      <trkpt lat="48.50616" lon="7.20198">
        <ele>658</ele>
        <time>2021-02-21T11:29:11.511Z</time>
      </trkpt>
      <trkpt lat="48.50618" lon="7.20199">
        <ele>658</ele>
        <time>2021-02-21T11:29:12.512Z</time>
      </trkpt>
      <trkpt lat="48.5062" lon="7.20199">
        <ele>658</ele>
        <time>2021-02-21T11:29:13.512Z</time>
      </trkpt>
      <trkpt lat="48.50621" lon="7.20198">
        <ele>658</ele>
        <time>2021-02-21T11:29:14.512Z</time>
      </trkpt>
      <trkpt lat="48.50623" lon="7.20198">
        <ele>658</ele>
        <time>2021-02-21T11:29:15.511Z</time>
      </trkpt>
      <trkpt lat="48.50624" lon="7.20198">
        <ele>658</ele>
        <time>2021-02-21T11:29:16.512Z</time>
      </trkpt>
      <trkpt lat="48.50624" lon="7.20199">
        <ele>658</ele>
        <time>2021-02-21T11:29:17.512Z</time>
      </trkpt>
      <trkpt lat="48.50624" lon="7.202">
        <ele>658</ele>
        <time>2021-02-21T11:29:18.512Z</time>
      </trkpt>
      <trkpt lat="48.50625" lon="7.20201">
        <ele>658</ele>
        <time>2021-02-21T11:29:19.511Z</time>
      </trkpt>
      <trkpt lat="48.50625" lon="7.20201">
        <ele>657</ele>
        <time>2021-02-21T11:29:20.512Z</time>
      </trkpt>
      <trkpt lat="48.50625" lon="7.20202">
        <ele>657</ele>
        <time>2021-02-21T11:29:21.512Z</time>
      </trkpt>
      <trkpt lat="48.50627" lon="7.20202">
        <ele>657</ele>
        <time>2021-02-21T11:29:22.511Z</time>
      </trkpt>
      <trkpt lat="48.50628" lon="7.20202">
        <ele>657</ele>
        <time>2021-02-21T11:29:23.512Z</time>
      </trkpt>
      <trkpt lat="48.50629" lon="7.20201">
        <ele>657</ele>
        <time>2021-02-21T11:29:24.511Z</time>
      </trkpt>
      <trkpt lat="48.50629" lon="7.20201">
        <ele>657</ele>
        <time>2021-02-21T11:29:25.512Z</time>
      </trkpt>
      <trkpt lat="48.5063" lon="7.20201">
        <ele>657</ele>
        <time>2021-02-21T11:29:26.512Z</time>
      </trkpt>
      <trkpt lat="48.50631" lon="7.20201">
        <ele>657</ele>
        <time>2021-02-21T11:29:27.512Z</time>
      </trkpt>
      <trkpt lat="48.50632" lon="7.20202">
        <ele>657</ele>
        <time>2021-02-21T11:29:28.512Z</time>
      </trkpt>
      <trkpt lat="48.50633" lon="7.20202">
        <ele>657</ele>
        <time>2021-02-21T11:29:29.512Z</time>
      </trkpt>
      <trkpt lat="48.50634" lon="7.20203">
        <ele>656</ele>
        <time>2021-02-21T11:29:30.511Z</time>
      </trkpt>
      <trkpt lat="48.50635" lon="7.20203">
        <ele>656</ele>
        <time>2021-02-21T11:29:31.512Z</time>
      </trkpt>
      <trkpt lat="48.50635" lon="7.20203">
        <ele>656</ele>
        <time>2021-02-21T11:29:32.512Z</time>
      </trkpt>
      <trkpt lat="48.50637" lon="7.20203">
        <ele>656</ele>
        <time>2021-02-21T11:29:33.512Z</time>
      </trkpt>
      <trkpt lat="48.50638" lon="7.20204">
        <ele>656</ele>
        <time>2021-02-21T11:29:34.512Z</time>
      </trkpt>
      <trkpt lat="48.5064" lon="7.20204">
        <ele>656</ele>
        <time>2021-02-21T11:29:35.511Z</time>
      </trkpt>
      <trkpt lat="48.50641" lon="7.20204">
        <ele>657</ele>
        <time>2021-02-21T11:29:36.512Z</time>
      </trkpt>
      <trkpt lat="48.50643" lon="7.20204">
        <ele>657</ele>
        <time>2021-02-21T11:29:37.512Z</time>
      </trkpt>
      <trkpt lat="48.50644" lon="7.20204">
        <ele>658</ele>
        <time>2021-02-21T11:29:38.512Z</time>
      </trkpt>
      <trkpt lat="48.50646" lon="7.20205">
        <ele>658</ele>
        <time>2021-02-21T11:29:39.512Z</time>
      </trkpt>
      <trkpt lat="48.50647" lon="7.20206">
        <ele>659</ele>
        <time>2021-02-21T11:29:40.511Z</time>
      </trkpt>
      <trkpt lat="48.50649" lon="7.20207">
        <ele>659</ele>
        <time>2021-02-21T11:29:41.512Z</time>
      </trkpt>
      <trkpt lat="48.50652" lon="7.20207">
        <ele>659</ele>
        <time>2021-02-21T11:29:42.512Z</time>
      </trkpt>
      <trkpt lat="48.50654" lon="7.20207">
        <ele>660</ele>
        <time>2021-02-21T11:29:43.512Z</time>
      </trkpt>
      <trkpt lat="48.50655" lon="7.20207">
        <ele>660</ele>
        <time>2021-02-21T11:29:44.512Z</time>
      </trkpt>
      <trkpt lat="48.50657" lon="7.20208">
        <ele>661</ele>
        <time>2021-02-21T11:29:45.512Z</time>
      </trkpt>
      <trkpt lat="48.50658" lon="7.20209">
        <ele>662</ele>
        <time>2021-02-21T11:29:46.512Z</time>
      </trkpt>
      <trkpt lat="48.5066" lon="7.2021">
        <ele>662</ele>
        <time>2021-02-21T11:29:47.512Z</time>
      </trkpt>
      <trkpt lat="48.50661" lon="7.20211">
        <ele>663</ele>
        <time>2021-02-21T11:29:48.511Z</time>
      </trkpt>
      <trkpt lat="48.50661" lon="7.20211">
        <ele>663</ele>
        <time>2021-02-21T11:29:49.512Z</time>
      </trkpt>
      <trkpt lat="48.50663" lon="7.2021">
        <ele>663</ele>
        <time>2021-02-21T11:29:50.512Z</time>
      </trkpt>
      <trkpt lat="48.50664" lon="7.2021">
        <ele>663</ele>
        <time>2021-02-21T11:29:51.512Z</time>
      </trkpt>
      <trkpt lat="48.50665" lon="7.20211">
        <ele>663</ele>
        <time>2021-02-21T11:29:52.512Z</time>
      </trkpt>
      <trkpt lat="48.50667" lon="7.20212">
        <ele>663</ele>
        <time>2021-02-21T11:29:53.512Z</time>
      </trkpt>
      <trkpt lat="48.50669" lon="7.20213">
        <ele>663</ele>
        <time>2021-02-21T11:29:54.512Z</time>
      </trkpt>
      <trkpt lat="48.50672" lon="7.20213">
        <ele>662</ele>
        <time>2021-02-21T11:29:55.512Z</time>
      </trkpt>
      <trkpt lat="48.50674" lon="7.20214">
        <ele>662</ele>
        <time>2021-02-21T11:29:56.512Z</time>
      </trkpt>
      <trkpt lat="48.50675" lon="7.20214">
        <ele>662</ele>
        <time>2021-02-21T11:29:57.511Z</time>
      </trkpt>
      <trkpt lat="48.50676" lon="7.20215">
        <ele>661</ele>
        <time>2021-02-21T11:29:58.512Z</time>
      </trkpt>
      <trkpt lat="48.50677" lon="7.20216">
        <ele>661</ele>
        <time>2021-02-21T11:29:59.511Z</time>
      </trkpt>
      <trkpt lat="48.50678" lon="7.20215">
        <ele>660</ele>
        <time>2021-02-21T11:30:00.511Z</time>
      </trkpt>
      <trkpt lat="48.50678" lon="7.20215">
        <ele>659</ele>
        <time>2021-02-21T11:30:01.512Z</time>
      </trkpt>
      <trkpt lat="48.50679" lon="7.20216">
        <ele>658</ele>
        <time>2021-02-21T11:30:02.512Z</time>
      </trkpt>
      <trkpt lat="48.5068" lon="7.20216">
        <ele>657</ele>
        <time>2021-02-21T11:30:03.512Z</time>
      </trkpt>
      <trkpt lat="48.5068" lon="7.20217">
        <ele>657</ele>
        <time>2021-02-21T11:30:04.511Z</time>
      </trkpt>
      <trkpt lat="48.50681" lon="7.20217">
        <ele>656</ele>
        <time>2021-02-21T11:30:05.511Z</time>
      </trkpt>
      <trkpt lat="48.50682" lon="7.20217">
        <ele>656</ele>
        <time>2021-02-21T11:30:06.512Z</time>
      </trkpt>
      <trkpt lat="48.50682" lon="7.20218">
        <ele>656</ele>
        <time>2021-02-21T11:30:07.511Z</time>
      </trkpt>
      <trkpt lat="48.50683" lon="7.20218">
        <ele>656</ele>
        <time>2021-02-21T11:30:08.512Z</time>
      </trkpt>
      <trkpt lat="48.50684" lon="7.20219">
        <ele>656</ele>
        <time>2021-02-21T11:30:09.511Z</time>
      </trkpt>
      <trkpt lat="48.50685" lon="7.2022">
        <ele>657</ele>
        <time>2021-02-21T11:30:10.511Z</time>
      </trkpt>
      <trkpt lat="48.50686" lon="7.2022">
        <ele>657</ele>
        <time>2021-02-21T11:30:11.512Z</time>
      </trkpt>
      <trkpt lat="48.50687" lon="7.20222">
        <ele>657</ele>
        <time>2021-02-21T11:30:12.512Z</time>
      </trkpt>
      <trkpt lat="48.50689" lon="7.20223">
        <ele>657</ele>
        <time>2021-02-21T11:30:13.512Z</time>
      </trkpt>
      <trkpt lat="48.50691" lon="7.20222">
        <ele>657</ele>
        <time>2021-02-21T11:30:14.511Z</time>
      </trkpt>
      <trkpt lat="48.50693" lon="7.20222">
        <ele>657</ele>
        <time>2021-02-21T11:30:15.512Z</time>
      </trkpt>
      <trkpt lat="48.50695" lon="7.20223">
        <ele>657</ele>
        <time>2021-02-21T11:30:16.512Z</time>
      </trkpt>
      <trkpt lat="48.50696" lon="7.20224">
        <ele>657</ele>
        <time>2021-02-21T11:30:17.511Z</time>
      </trkpt>
      <trkpt lat="48.50698" lon="7.20225">
        <ele>657</ele>
        <time>2021-02-21T11:30:18.511Z</time>
      </trkpt>
      <trkpt lat="48.50699" lon="7.20226">
        <ele>657</ele>
        <time>2021-02-21T11:30:19.511Z</time>
      </trkpt>
      <trkpt lat="48.507" lon="7.20227">
        <ele>657</ele>
        <time>2021-02-21T11:30:20.512Z</time>
      </trkpt>
      <trkpt lat="48.507" lon="7.20228">
        <ele>657</ele>
        <time>2021-02-21T11:30:21.511Z</time>
      </trkpt>
      <trkpt lat="48.50701" lon="7.20228">
        <ele>656</ele>
        <time>2021-02-21T11:30:22.512Z</time>
      </trkpt>
      <trkpt lat="48.50703" lon="7.20229">
        <ele>656</ele>
        <time>2021-02-21T11:30:23.512Z</time>
      </trkpt>
      <trkpt lat="48.50705" lon="7.2023">
        <ele>656</ele>
        <time>2021-02-21T11:30:24.512Z</time>
      </trkpt>
      <trkpt lat="48.50707" lon="7.2023">
        <ele>655</ele>
        <time>2021-02-21T11:30:25.512Z</time>
      </trkpt>
      <trkpt lat="48.50708" lon="7.20229">
        <ele>654</ele>
        <time>2021-02-21T11:30:26.512Z</time>
      </trkpt>
      <trkpt lat="48.50709" lon="7.20229">
        <ele>653</ele>
        <time>2021-02-21T11:30:27.511Z</time>
      </trkpt>
      <trkpt lat="48.5071" lon="7.20229">
        <ele>653</ele>
        <time>2021-02-21T11:30:28.511Z</time>
      </trkpt>
      <trkpt lat="48.5071" lon="7.2023">
        <ele>652</ele>
        <time>2021-02-21T11:30:29.511Z</time>
      </trkpt>
      <trkpt lat="48.50711" lon="7.2023">
        <ele>652</ele>
        <time>2021-02-21T11:30:30.512Z</time>
      </trkpt>
      <trkpt lat="48.50712" lon="7.2023">
        <ele>651</ele>
        <time>2021-02-21T11:30:31.512Z</time>
      </trkpt>
      <trkpt lat="48.50713" lon="7.2023">
        <ele>651</ele>
        <time>2021-02-21T11:30:32.511Z</time>
      </trkpt>
      <trkpt lat="48.50714" lon="7.20231">
        <ele>651</ele>
        <time>2021-02-21T11:30:33.512Z</time>
      </trkpt>
      <trkpt lat="48.50714" lon="7.20231">
        <ele>651</ele>
        <time>2021-02-21T11:30:34.512Z</time>
      </trkpt>
      <trkpt lat="48.50716" lon="7.20231">
        <ele>651</ele>
        <time>2021-02-21T11:30:35.512Z</time>
      </trkpt>
      <trkpt lat="48.50718" lon="7.20232">
        <ele>651</ele>
        <time>2021-02-21T11:30:36.511Z</time>
      </trkpt>
      <trkpt lat="48.50719" lon="7.20232">
        <ele>650</ele>
        <time>2021-02-21T11:30:37.512Z</time>
      </trkpt>
      <trkpt lat="48.5072" lon="7.20232">
        <ele>650</ele>
        <time>2021-02-21T11:30:38.511Z</time>
      </trkpt>
      <trkpt lat="48.50722" lon="7.20233">
        <ele>649</ele>
        <time>2021-02-21T11:30:39.512Z</time>
      </trkpt>
      <trkpt lat="48.50722" lon="7.20233">
        <ele>649</ele>
        <time>2021-02-21T11:30:40.512Z</time>
      </trkpt>
      <trkpt lat="48.50723" lon="7.20232">
        <ele>649</ele>
        <time>2021-02-21T11:30:41.512Z</time>
      </trkpt>
      <trkpt lat="48.50724" lon="7.20232">
        <ele>649</ele>
        <time>2021-02-21T11:30:42.512Z</time>
      </trkpt>
      <trkpt lat="48.50724" lon="7.20232">
        <ele>649</ele>
        <time>2021-02-21T11:30:43.512Z</time>
      </trkpt>
      <trkpt lat="48.50725" lon="7.20232">
        <ele>648</ele>
        <time>2021-02-21T11:30:44.512Z</time>
      </trkpt>
      <trkpt lat="48.50726" lon="7.20232">
        <ele>648</ele>
        <time>2021-02-21T11:30:45.512Z</time>
      </trkpt>
      <trkpt lat="48.50728" lon="7.20231">
        <ele>648</ele>
        <time>2021-02-21T11:30:46.512Z</time>
      </trkpt>
      <trkpt lat="48.50729" lon="7.20231">
        <ele>648</ele>
        <time>2021-02-21T11:30:47.512Z</time>
      </trkpt>
      <trkpt lat="48.50733" lon="7.20232">
        <ele>648</ele>
        <time>2021-02-21T11:30:48.512Z</time>
      </trkpt>
      <trkpt lat="48.50735" lon="7.20232">
        <ele>648</ele>
        <time>2021-02-21T11:30:49.511Z</time>
      </trkpt>
      <trkpt lat="48.50736" lon="7.20232">
        <ele>648</ele>
        <time>2021-02-21T11:30:50.511Z</time>
      </trkpt>
      <trkpt lat="48.50737" lon="7.20231">
        <ele>648</ele>
        <time>2021-02-21T11:30:51.512Z</time>
      </trkpt>
      <trkpt lat="48.50738" lon="7.20231">
        <ele>647</ele>
        <time>2021-02-21T11:30:52.512Z</time>
      </trkpt>
      <trkpt lat="48.50738" lon="7.2023">
        <ele>648</ele>
        <time>2021-02-21T11:30:53.512Z</time>
      </trkpt>
      <trkpt lat="48.50739" lon="7.2023">
        <ele>648</ele>
        <time>2021-02-21T11:30:54.512Z</time>
      </trkpt>
      <trkpt lat="48.5074" lon="7.20229">
        <ele>648</ele>
        <time>2021-02-21T11:30:55.511Z</time>
      </trkpt>
      <trkpt lat="48.50741" lon="7.20229">
        <ele>648</ele>
        <time>2021-02-21T11:30:56.512Z</time>
      </trkpt>
      <trkpt lat="48.50742" lon="7.20228">
        <ele>648</ele>
        <time>2021-02-21T11:30:57.512Z</time>
      </trkpt>
      <trkpt lat="48.50743" lon="7.20227">
        <ele>648</ele>
        <time>2021-02-21T11:30:58.512Z</time>
      </trkpt>
      <trkpt lat="48.50744" lon="7.20226">
        <ele>648</ele>
        <time>2021-02-21T11:30:59.511Z</time>
      </trkpt>
      <trkpt lat="48.50744" lon="7.20225">
        <ele>648</ele>
        <time>2021-02-21T11:31:00.512Z</time>
      </trkpt>
      <trkpt lat="48.50745" lon="7.20224">
        <ele>648</ele>
        <time>2021-02-21T11:31:01.512Z</time>
      </trkpt>
      <trkpt lat="48.50746" lon="7.20223">
        <ele>647</ele>
        <time>2021-02-21T11:31:02.512Z</time>
      </trkpt>
      <trkpt lat="48.50746" lon="7.20222">
        <ele>647</ele>
        <time>2021-02-21T11:31:03.512Z</time>
      </trkpt>
      <trkpt lat="48.50747" lon="7.2022">
        <ele>646</ele>
        <time>2021-02-21T11:31:04.511Z</time>
      </trkpt>
      <trkpt lat="48.50748" lon="7.20219">
        <ele>647</ele>
        <time>2021-02-21T11:31:21.528Z</time>
      </trkpt>
      <trkpt lat="48.50749" lon="7.20217">
        <ele>647</ele>
        <time>2021-02-21T11:31:22.529Z</time>
      </trkpt>
      <trkpt lat="48.5075" lon="7.20215">
        <ele>648</ele>
        <time>2021-02-21T11:31:23.529Z</time>
      </trkpt>
      <trkpt lat="48.50751" lon="7.20213">
        <ele>649</ele>
        <time>2021-02-21T11:31:26.508Z</time>
      </trkpt>
      <trkpt lat="48.50753" lon="7.20211">
        <ele>649</ele>
        <time>2021-02-21T11:31:27.507Z</time>
      </trkpt>
      <trkpt lat="48.50754" lon="7.20209">
        <ele>650</ele>
        <time>2021-02-21T11:31:28.508Z</time>
      </trkpt>
      <trkpt lat="48.50755" lon="7.20208">
        <ele>650</ele>
        <time>2021-02-21T11:31:29.508Z</time>
      </trkpt>
      <trkpt lat="48.50756" lon="7.20206">
        <ele>651</ele>
        <time>2021-02-21T11:31:30.507Z</time>
      </trkpt>
      <trkpt lat="48.50757" lon="7.20204">
        <ele>651</ele>
        <time>2021-02-21T11:31:31.507Z</time>
      </trkpt>
      <trkpt lat="48.50758" lon="7.20203">
        <ele>651</ele>
        <time>2021-02-21T11:31:32.507Z</time>
      </trkpt>
      <trkpt lat="48.50759" lon="7.20201">
        <ele>651</ele>
        <time>2021-02-21T11:31:33.508Z</time>
      </trkpt>
      <trkpt lat="48.50759" lon="7.202">
        <ele>651</ele>
        <time>2021-02-21T11:31:34.507Z</time>
      </trkpt>
      <trkpt lat="48.50759" lon="7.20199">
        <ele>651</ele>
        <time>2021-02-21T11:31:35.507Z</time>
      </trkpt>
      <trkpt lat="48.5076" lon="7.20198">
        <ele>652</ele>
        <time>2021-02-21T11:31:36.507Z</time>
      </trkpt>
      <trkpt lat="48.5076" lon="7.20197">
        <ele>652</ele>
        <time>2021-02-21T11:31:37.508Z</time>
      </trkpt>
      <trkpt lat="48.50762" lon="7.20196">
        <ele>651</ele>
        <time>2021-02-21T11:31:38.508Z</time>
      </trkpt>
      <trkpt lat="48.50763" lon="7.20194">
        <ele>651</ele>
        <time>2021-02-21T11:31:39.508Z</time>
      </trkpt>
      <trkpt lat="48.50764" lon="7.20192">
        <ele>650</ele>
        <time>2021-02-21T11:31:40.508Z</time>
      </trkpt>
      <trkpt lat="48.50764" lon="7.20191">
        <ele>649</ele>
        <time>2021-02-21T11:31:41.508Z</time>
      </trkpt>
      <trkpt lat="48.50765" lon="7.2019">
        <ele>649</ele>
        <time>2021-02-21T11:31:42.508Z</time>
      </trkpt>
      <trkpt lat="48.50766" lon="7.20189">
        <ele>648</ele>
        <time>2021-02-21T11:31:43.507Z</time>
      </trkpt>
      <trkpt lat="48.50766" lon="7.20188">
        <ele>648</ele>
        <time>2021-02-21T11:31:44.507Z</time>
      </trkpt>
      <trkpt lat="48.50767" lon="7.20186">
        <ele>647</ele>
        <time>2021-02-21T11:31:45.508Z</time>
      </trkpt>
      <trkpt lat="48.50768" lon="7.20185">
        <ele>647</ele>
        <time>2021-02-21T11:31:46.508Z</time>
      </trkpt>
      <trkpt lat="48.50769" lon="7.20183">
        <ele>646</ele>
        <time>2021-02-21T11:31:47.507Z</time>
      </trkpt>
      <trkpt lat="48.5077" lon="7.20182">
        <ele>646</ele>
        <time>2021-02-21T11:31:48.508Z</time>
      </trkpt>
      <trkpt lat="48.50771" lon="7.2018">
        <ele>645</ele>
        <time>2021-02-21T11:31:49.508Z</time>
      </trkpt>
      <trkpt lat="48.50771" lon="7.20179">
        <ele>645</ele>
        <time>2021-02-21T11:31:50.508Z</time>
      </trkpt>
      <trkpt lat="48.50772" lon="7.20177">
        <ele>645</ele>
        <time>2021-02-21T11:31:51.508Z</time>
      </trkpt>
      <trkpt lat="48.50773" lon="7.20176">
        <ele>644</ele>
        <time>2021-02-21T11:31:52.508Z</time>
      </trkpt>
      <trkpt lat="48.50775" lon="7.20173">
        <ele>644</ele>
        <time>2021-02-21T11:31:53.508Z</time>
      </trkpt>
      <trkpt lat="48.50776" lon="7.20172">
        <ele>644</ele>
        <time>2021-02-21T11:31:54.508Z</time>
      </trkpt>
      <trkpt lat="48.50776" lon="7.2017">
        <ele>644</ele>
        <time>2021-02-21T11:31:55.508Z</time>
      </trkpt>
      <trkpt lat="48.50777" lon="7.20169">
        <ele>643</ele>
        <time>2021-02-21T11:31:56.508Z</time>
      </trkpt>
      <trkpt lat="48.50777" lon="7.20167">
        <ele>643</ele>
        <time>2021-02-21T11:31:57.508Z</time>
      </trkpt>
      <trkpt lat="48.50777" lon="7.20165">
        <ele>643</ele>
        <time>2021-02-21T11:31:58.508Z</time>
      </trkpt>
      <trkpt lat="48.50777" lon="7.20164">
        <ele>643</ele>
        <time>2021-02-21T11:31:59.508Z</time>
      </trkpt>
      <trkpt lat="48.50778" lon="7.20162">
        <ele>644</ele>
        <time>2021-02-21T11:32:00.508Z</time>
      </trkpt>
      <trkpt lat="48.50779" lon="7.20161">
        <ele>644</ele>
        <time>2021-02-21T11:32:01.508Z</time>
      </trkpt>
      <trkpt lat="48.50779" lon="7.2016">
        <ele>644</ele>
        <time>2021-02-21T11:32:02.508Z</time>
      </trkpt>
      <trkpt lat="48.5078" lon="7.20158">
        <ele>645</ele>
        <time>2021-02-21T11:32:03.508Z</time>
      </trkpt>
      <trkpt lat="48.50782" lon="7.20155">
        <ele>645</ele>
        <time>2021-02-21T11:32:04.508Z</time>
      </trkpt>
      <trkpt lat="48.50783" lon="7.20154">
        <ele>646</ele>
        <time>2021-02-21T11:32:05.508Z</time>
      </trkpt>
      <trkpt lat="48.50784" lon="7.20152">
        <ele>646</ele>
        <time>2021-02-21T11:32:06.508Z</time>
      </trkpt>
      <trkpt lat="48.50785" lon="7.20152">
        <ele>646</ele>
        <time>2021-02-21T11:32:07.508Z</time>
      </trkpt>
      <trkpt lat="48.50785" lon="7.20151">
        <ele>646</ele>
        <time>2021-02-21T11:32:08.508Z</time>
      </trkpt>
      <trkpt lat="48.50786" lon="7.20149">
        <ele>646</ele>
        <time>2021-02-21T11:32:09.507Z</time>
      </trkpt>
      <trkpt lat="48.50786" lon="7.20148">
        <ele>646</ele>
        <time>2021-02-21T11:32:10.508Z</time>
      </trkpt>
      <trkpt lat="48.50787" lon="7.20146">
        <ele>646</ele>
        <time>2021-02-21T11:32:11.508Z</time>
      </trkpt>
      <trkpt lat="48.50787" lon="7.20144">
        <ele>646</ele>
        <time>2021-02-21T11:32:12.508Z</time>
      </trkpt>
      <trkpt lat="48.50788" lon="7.20143">
        <ele>646</ele>
        <time>2021-02-21T11:32:13.508Z</time>
      </trkpt>
      <trkpt lat="48.50789" lon="7.20142">
        <ele>646</ele>
        <time>2021-02-21T11:32:14.508Z</time>
      </trkpt>
      <trkpt lat="48.50789" lon="7.2014">
        <ele>647</ele>
        <time>2021-02-21T11:32:15.508Z</time>
      </trkpt>
      <trkpt lat="48.5079" lon="7.20139">
        <ele>647</ele>
        <time>2021-02-21T11:32:16.508Z</time>
      </trkpt>
      <trkpt lat="48.5079" lon="7.20138">
        <ele>648</ele>
        <time>2021-02-21T11:32:17.508Z</time>
      </trkpt>
      <trkpt lat="48.50791" lon="7.20136">
        <ele>648</ele>
        <time>2021-02-21T11:32:18.507Z</time>
      </trkpt>
      <trkpt lat="48.50792" lon="7.20134">
        <ele>648</ele>
        <time>2021-02-21T11:32:19.508Z</time>
      </trkpt>
      <trkpt lat="48.50792" lon="7.20132">
        <ele>648</ele>
        <time>2021-02-21T11:32:20.508Z</time>
      </trkpt>
      <trkpt lat="48.50793" lon="7.2013">
        <ele>649</ele>
        <time>2021-02-21T11:32:21.508Z</time>
      </trkpt>
      <trkpt lat="48.50795" lon="7.20127">
        <ele>649</ele>
        <time>2021-02-21T11:32:22.508Z</time>
      </trkpt>
      <trkpt lat="48.50796" lon="7.20125">
        <ele>649</ele>
        <time>2021-02-21T11:32:23.508Z</time>
      </trkpt>
      <trkpt lat="48.50796" lon="7.20124">
        <ele>649</ele>
        <time>2021-02-21T11:32:24.508Z</time>
      </trkpt>
      <trkpt lat="48.50797" lon="7.20123">
        <ele>649</ele>
        <time>2021-02-21T11:32:25.508Z</time>
      </trkpt>
      <trkpt lat="48.50797" lon="7.20122">
        <ele>648</ele>
        <time>2021-02-21T11:32:26.508Z</time>
      </trkpt>
      <trkpt lat="48.50797" lon="7.2012">
        <ele>648</ele>
        <time>2021-02-21T11:32:27.507Z</time>
      </trkpt>
      <trkpt lat="48.50798" lon="7.20118">
        <ele>648</ele>
        <time>2021-02-21T11:32:28.508Z</time>
      </trkpt>
      <trkpt lat="48.50798" lon="7.20117">
        <ele>648</ele>
        <time>2021-02-21T11:32:29.508Z</time>
      </trkpt>
      <trkpt lat="48.50799" lon="7.20116">
        <ele>648</ele>
        <time>2021-02-21T11:32:30.508Z</time>
      </trkpt>
      <trkpt lat="48.50801" lon="7.20114">
        <ele>648</ele>
        <time>2021-02-21T11:32:31.508Z</time>
      </trkpt>
      <trkpt lat="48.50801" lon="7.20113">
        <ele>648</ele>
        <time>2021-02-21T11:32:32.508Z</time>
      </trkpt>
      <trkpt lat="48.50802" lon="7.20111">
        <ele>648</ele>
        <time>2021-02-21T11:32:33.508Z</time>
      </trkpt>
      <trkpt lat="48.50802" lon="7.20109">
        <ele>649</ele>
        <time>2021-02-21T11:32:34.508Z</time>
      </trkpt>
      <trkpt lat="48.50803" lon="7.20108">
        <ele>649</ele>
        <time>2021-02-21T11:32:35.508Z</time>
      </trkpt>
      <trkpt lat="48.50803" lon="7.20107">
        <ele>649</ele>
        <time>2021-02-21T11:32:36.507Z</time>
      </trkpt>
      <trkpt lat="48.50804" lon="7.20105">
        <ele>650</ele>
        <time>2021-02-21T11:32:37.508Z</time>
      </trkpt>
      <trkpt lat="48.50805" lon="7.20104">
        <ele>649</ele>
        <time>2021-02-21T11:32:38.507Z</time>
      </trkpt>
      <trkpt lat="48.50806" lon="7.20103">
        <ele>649</ele>
        <time>2021-02-21T11:32:39.508Z</time>
      </trkpt>
      <trkpt lat="48.50806" lon="7.20102">
        <ele>648</ele>
        <time>2021-02-21T11:32:40.508Z</time>
      </trkpt>
      <trkpt lat="48.50807" lon="7.201">
        <ele>648</ele>
        <time>2021-02-21T11:32:41.508Z</time>
      </trkpt>
      <trkpt lat="48.50809" lon="7.20098">
        <ele>648</ele>
        <time>2021-02-21T11:32:42.508Z</time>
      </trkpt>
      <trkpt lat="48.5081" lon="7.20096">
        <ele>647</ele>
        <time>2021-02-21T11:32:43.508Z</time>
      </trkpt>
      <trkpt lat="48.50812" lon="7.20094">
        <ele>648</ele>
        <time>2021-02-21T11:32:44.508Z</time>
      </trkpt>
      <trkpt lat="48.50812" lon="7.20092">
        <ele>648</ele>
        <time>2021-02-21T11:32:45.508Z</time>
      </trkpt>
      <trkpt lat="48.50813" lon="7.20091">
        <ele>648</ele>
        <time>2021-02-21T11:32:46.507Z</time>
      </trkpt>
      <trkpt lat="48.50814" lon="7.2009">
        <ele>648</ele>
        <time>2021-02-21T11:32:47.508Z</time>
      </trkpt>
      <trkpt lat="48.50815" lon="7.20088">
        <ele>648</ele>
        <time>2021-02-21T11:32:48.508Z</time>
      </trkpt>
      <trkpt lat="48.50817" lon="7.20087">
        <ele>648</ele>
        <time>2021-02-21T11:32:49.508Z</time>
      </trkpt>
      <trkpt lat="48.50817" lon="7.20085">
        <ele>648</ele>
        <time>2021-02-21T11:32:50.508Z</time>
      </trkpt>
      <trkpt lat="48.50818" lon="7.20084">
        <ele>648</ele>
        <time>2021-02-21T11:32:51.508Z</time>
      </trkpt>
      <trkpt lat="48.50819" lon="7.20083">
        <ele>648</ele>
        <time>2021-02-21T11:32:52.508Z</time>
      </trkpt>
      <trkpt lat="48.5082" lon="7.20082">
        <ele>647</ele>
        <time>2021-02-21T11:32:53.508Z</time>
      </trkpt>
      <trkpt lat="48.50821" lon="7.20081">
        <ele>647</ele>
        <time>2021-02-21T11:32:54.508Z</time>
      </trkpt>
      <trkpt lat="48.50822" lon="7.2008">
        <ele>647</ele>
        <time>2021-02-21T11:32:55.508Z</time>
      </trkpt>
      <trkpt lat="48.50823" lon="7.20079">
        <ele>647</ele>
        <time>2021-02-21T11:32:56.508Z</time>
      </trkpt>
      <trkpt lat="48.50824" lon="7.20078">
        <ele>647</ele>
        <time>2021-02-21T11:32:57.507Z</time>
      </trkpt>
      <trkpt lat="48.50826" lon="7.20077">
        <ele>647</ele>
        <time>2021-02-21T11:32:58.507Z</time>
      </trkpt>
      <trkpt lat="48.50827" lon="7.20077">
        <ele>647</ele>
        <time>2021-02-21T11:32:59.508Z</time>
      </trkpt>
      <trkpt lat="48.50827" lon="7.20076">
        <ele>647</ele>
        <time>2021-02-21T11:33:00.508Z</time>
      </trkpt>
      <trkpt lat="48.50828" lon="7.20075">
        <ele>647</ele>
        <time>2021-02-21T11:33:01.508Z</time>
      </trkpt>
      <trkpt lat="48.50829" lon="7.20074">
        <ele>646</ele>
        <time>2021-02-21T11:33:02.508Z</time>
      </trkpt>
      <trkpt lat="48.50831" lon="7.20073">
        <ele>646</ele>
        <time>2021-02-21T11:33:03.507Z</time>
      </trkpt>
      <trkpt lat="48.50832" lon="7.20072">
        <ele>646</ele>
        <time>2021-02-21T11:33:04.508Z</time>
      </trkpt>
      <trkpt lat="48.50833" lon="7.2007">
        <ele>646</ele>
        <time>2021-02-21T11:33:05.508Z</time>
      </trkpt>
      <trkpt lat="48.50834" lon="7.20069">
        <ele>646</ele>
        <time>2021-02-21T11:33:06.508Z</time>
      </trkpt>
      <trkpt lat="48.50835" lon="7.20067">
        <ele>646</ele>
        <time>2021-02-21T11:33:07.508Z</time>
      </trkpt>
      <trkpt lat="48.50836" lon="7.20065">
        <ele>647</ele>
        <time>2021-02-21T11:33:08.508Z</time>
      </trkpt>
      <trkpt lat="48.50838" lon="7.20064">
        <ele>647</ele>
        <time>2021-02-21T11:33:09.507Z</time>
      </trkpt>
      <trkpt lat="48.5084" lon="7.20062">
        <ele>648</ele>
        <time>2021-02-21T11:33:10.508Z</time>
      </trkpt>
      <trkpt lat="48.5084" lon="7.2006">
        <ele>648</ele>
        <time>2021-02-21T11:33:11.508Z</time>
      </trkpt>
      <trkpt lat="48.50841" lon="7.20058">
        <ele>648</ele>
        <time>2021-02-21T11:33:12.507Z</time>
      </trkpt>
      <trkpt lat="48.50841" lon="7.20056">
        <ele>648</ele>
        <time>2021-02-21T11:33:13.508Z</time>
      </trkpt>
      <trkpt lat="48.50841" lon="7.20055">
        <ele>648</ele>
        <time>2021-02-21T11:33:14.507Z</time>
      </trkpt>
      <trkpt lat="48.50842" lon="7.20054">
        <ele>648</ele>
        <time>2021-02-21T11:33:15.507Z</time>
      </trkpt>
      <trkpt lat="48.50844" lon="7.20053">
        <ele>648</ele>
        <time>2021-02-21T11:33:16.507Z</time>
      </trkpt>
      <trkpt lat="48.50844" lon="7.20052">
        <ele>648</ele>
        <time>2021-02-21T11:33:17.507Z</time>
      </trkpt>
      <trkpt lat="48.50845" lon="7.2005">
        <ele>649</ele>
        <time>2021-02-21T11:33:18.507Z</time>
      </trkpt>
      <trkpt lat="48.50846" lon="7.20049">
        <ele>649</ele>
        <time>2021-02-21T11:33:19.508Z</time>
      </trkpt>
      <trkpt lat="48.50846" lon="7.20047">
        <ele>649</ele>
        <time>2021-02-21T11:33:20.508Z</time>
      </trkpt>
      <trkpt lat="48.50847" lon="7.20046">
        <ele>649</ele>
        <time>2021-02-21T11:33:21.508Z</time>
      </trkpt>
      <trkpt lat="48.50848" lon="7.20045">
        <ele>649</ele>
        <time>2021-02-21T11:33:22.507Z</time>
      </trkpt>
      <trkpt lat="48.50848" lon="7.20043">
        <ele>649</ele>
        <time>2021-02-21T11:33:23.508Z</time>
      </trkpt>
      <trkpt lat="48.50849" lon="7.20042">
        <ele>648</ele>
        <time>2021-02-21T11:33:24.508Z</time>
      </trkpt>
      <trkpt lat="48.5085" lon="7.20041">
        <ele>648</ele>
        <time>2021-02-21T11:33:25.508Z</time>
      </trkpt>
      <trkpt lat="48.50851" lon="7.20041">
        <ele>648</ele>
        <time>2021-02-21T11:33:26.508Z</time>
      </trkpt>
      <trkpt lat="48.50852" lon="7.2004">
        <ele>648</ele>
        <time>2021-02-21T11:33:27.508Z</time>
      </trkpt>
      <trkpt lat="48.50853" lon="7.20039">
        <ele>648</ele>
        <time>2021-02-21T11:33:28.508Z</time>
      </trkpt>
      <trkpt lat="48.50854" lon="7.20038">
        <ele>648</ele>
        <time>2021-02-21T11:33:29.508Z</time>
      </trkpt>
      <trkpt lat="48.50855" lon="7.20037">
        <ele>648</ele>
        <time>2021-02-21T11:33:30.507Z</time>
      </trkpt>
      <trkpt lat="48.50855" lon="7.20035">
        <ele>647</ele>
        <time>2021-02-21T11:33:31.508Z</time>
      </trkpt>
      <trkpt lat="48.50856" lon="7.20034">
        <ele>647</ele>
        <time>2021-02-21T11:33:32.507Z</time>
      </trkpt>
      <trkpt lat="48.50856" lon="7.20032">
        <ele>647</ele>
        <time>2021-02-21T11:33:33.508Z</time>
      </trkpt>
      <trkpt lat="48.50857" lon="7.2003">
        <ele>647</ele>
        <time>2021-02-21T11:33:34.508Z</time>
      </trkpt>
      <trkpt lat="48.50859" lon="7.20029">
        <ele>647</ele>
        <time>2021-02-21T11:33:35.507Z</time>
      </trkpt>
      <trkpt lat="48.5086" lon="7.20027">
        <ele>648</ele>
        <time>2021-02-21T11:33:36.508Z</time>
      </trkpt>
      <trkpt lat="48.50861" lon="7.20025">
        <ele>648</ele>
        <time>2021-02-21T11:33:37.508Z</time>
      </trkpt>
      <trkpt lat="48.50862" lon="7.20023">
        <ele>648</ele>
        <time>2021-02-21T11:33:38.508Z</time>
      </trkpt>
      <trkpt lat="48.50863" lon="7.20021">
        <ele>649</ele>
        <time>2021-02-21T11:33:39.508Z</time>
      </trkpt>
      <trkpt lat="48.50864" lon="7.20019">
        <ele>649</ele>
        <time>2021-02-21T11:33:40.508Z</time>
      </trkpt>
      <trkpt lat="48.50865" lon="7.20017">
        <ele>650</ele>
        <time>2021-02-21T11:33:41.508Z</time>
      </trkpt>
      <trkpt lat="48.50865" lon="7.20016">
        <ele>650</ele>
        <time>2021-02-21T11:33:42.507Z</time>
      </trkpt>
      <trkpt lat="48.50866" lon="7.20015">
        <ele>651</ele>
        <time>2021-02-21T11:33:43.507Z</time>
      </trkpt>
      <trkpt lat="48.50866" lon="7.20013">
        <ele>651</ele>
        <time>2021-02-21T11:33:44.507Z</time>
      </trkpt>
      <trkpt lat="48.50866" lon="7.20011">
        <ele>652</ele>
        <time>2021-02-21T11:33:45.508Z</time>
      </trkpt>
      <trkpt lat="48.50867" lon="7.2001">
        <ele>652</ele>
        <time>2021-02-21T11:33:46.508Z</time>
      </trkpt>
      <trkpt lat="48.50867" lon="7.20008">
        <ele>652</ele>
        <time>2021-02-21T11:33:47.508Z</time>
      </trkpt>
      <trkpt lat="48.50868" lon="7.20006">
        <ele>653</ele>
        <time>2021-02-21T11:33:48.508Z</time>
      </trkpt>
      <trkpt lat="48.50869" lon="7.20004">
        <ele>653</ele>
        <time>2021-02-21T11:33:49.507Z</time>
      </trkpt>
      <trkpt lat="48.5087" lon="7.20002">
        <ele>653</ele>
        <time>2021-02-21T11:33:50.508Z</time>
      </trkpt>
      <trkpt lat="48.5087" lon="7.20001">
        <ele>653</ele>
        <time>2021-02-21T11:33:51.507Z</time>
      </trkpt>
      <trkpt lat="48.50871" lon="7.19999">
        <ele>653</ele>
        <time>2021-02-21T11:33:52.507Z</time>
      </trkpt>
      <trkpt lat="48.50871" lon="7.19998">
        <ele>653</ele>
        <time>2021-02-21T11:33:53.508Z</time>
      </trkpt>
      <trkpt lat="48.50871" lon="7.19997">
        <ele>653</ele>
        <time>2021-02-21T11:33:54.507Z</time>
      </trkpt>
      <trkpt lat="48.50872" lon="7.19996">
        <ele>653</ele>
        <time>2021-02-21T11:33:55.508Z</time>
      </trkpt>
      <trkpt lat="48.50872" lon="7.19994">
        <ele>652</ele>
        <time>2021-02-21T11:33:56.507Z</time>
      </trkpt>
      <trkpt lat="48.50873" lon="7.19993">
        <ele>652</ele>
        <time>2021-02-21T11:33:57.507Z</time>
      </trkpt>
      <trkpt lat="48.50873" lon="7.19992">
        <ele>652</ele>
        <time>2021-02-21T11:33:58.507Z</time>
      </trkpt>
      <trkpt lat="48.50873" lon="7.1999">
        <ele>652</ele>
        <time>2021-02-21T11:33:59.508Z</time>
      </trkpt>
      <trkpt lat="48.50873" lon="7.19989">
        <ele>652</ele>
        <time>2021-02-21T11:34:00.508Z</time>
      </trkpt>
      <trkpt lat="48.50874" lon="7.19987">
        <ele>652</ele>
        <time>2021-02-21T11:34:01.508Z</time>
      </trkpt>
      <trkpt lat="48.50875" lon="7.19985">
        <ele>652</ele>
        <time>2021-02-21T11:34:02.508Z</time>
      </trkpt>
      <trkpt lat="48.50875" lon="7.19983">
        <ele>651</ele>
        <time>2021-02-21T11:34:03.508Z</time>
      </trkpt>
      <trkpt lat="48.50876" lon="7.19981">
        <ele>651</ele>
        <time>2021-02-21T11:34:13.555Z</time>
      </trkpt>
      <trkpt lat="48.50876" lon="7.19979">
        <ele>651</ele>
        <time>2021-02-21T11:34:14.555Z</time>
      </trkpt>
      <trkpt lat="48.50877" lon="7.19978">
        <ele>651</ele>
        <time>2021-02-21T11:34:15.555Z</time>
      </trkpt>
      <trkpt lat="48.50878" lon="7.19977">
        <ele>651</ele>
        <time>2021-02-21T11:34:51.434Z</time>
      </trkpt>
      <trkpt lat="48.50879" lon="7.19975">
        <ele>651</ele>
        <time>2021-02-21T11:34:52.435Z</time>
      </trkpt>
      <trkpt lat="48.50879" lon="7.19973">
        <ele>651</ele>
        <time>2021-02-21T11:34:53.435Z</time>
      </trkpt>
      <trkpt lat="48.5088" lon="7.19972">
        <ele>650</ele>
        <time>2021-02-21T11:34:54.435Z</time>
      </trkpt>
      <trkpt lat="48.50881" lon="7.19971">
        <ele>650</ele>
        <time>2021-02-21T11:34:55.435Z</time>
      </trkpt>
      <trkpt lat="48.50881" lon="7.1997">
        <ele>650</ele>
        <time>2021-02-21T11:34:56.435Z</time>
      </trkpt>
      <trkpt lat="48.50881" lon="7.19969">
        <ele>649</ele>
        <time>2021-02-21T11:34:57.434Z</time>
      </trkpt>
      <trkpt lat="48.50882" lon="7.19968">
        <ele>649</ele>
        <time>2021-02-21T11:34:58.435Z</time>
      </trkpt>
      <trkpt lat="48.50883" lon="7.19966">
        <ele>649</ele>
        <time>2021-02-21T11:34:59.435Z</time>
      </trkpt>
      <trkpt lat="48.50883" lon="7.19963">
        <ele>649</ele>
        <time>2021-02-21T11:35:00.435Z</time>
      </trkpt>
      <trkpt lat="48.50884" lon="7.19962">
        <ele>649</ele>
        <time>2021-02-21T11:35:01.434Z</time>
      </trkpt>
      <trkpt lat="48.50885" lon="7.1996">
        <ele>649</ele>
        <time>2021-02-21T11:35:02.434Z</time>
      </trkpt>
      <trkpt lat="48.50886" lon="7.19957">
        <ele>649</ele>
        <time>2021-02-21T11:35:03.435Z</time>
      </trkpt>
      <trkpt lat="48.50886" lon="7.19955">
        <ele>649</ele>
        <time>2021-02-21T11:35:04.435Z</time>
      </trkpt>
      <trkpt lat="48.50887" lon="7.19953">
        <ele>649</ele>
        <time>2021-02-21T11:35:05.435Z</time>
      </trkpt>
      <trkpt lat="48.50888" lon="7.19952">
        <ele>649</ele>
        <time>2021-02-21T11:35:06.435Z</time>
      </trkpt>
      <trkpt lat="48.50888" lon="7.1995">
        <ele>649</ele>
        <time>2021-02-21T11:35:07.435Z</time>
      </trkpt>
      <trkpt lat="48.50889" lon="7.19949">
        <ele>649</ele>
        <time>2021-02-21T11:35:08.435Z</time>
      </trkpt>
      <trkpt lat="48.50889" lon="7.19947">
        <ele>649</ele>
        <time>2021-02-21T11:35:09.435Z</time>
      </trkpt>
      <trkpt lat="48.50891" lon="7.19945">
        <ele>649</ele>
        <time>2021-02-21T11:35:10.435Z</time>
      </trkpt>
      <trkpt lat="48.50891" lon="7.19943">
        <ele>650</ele>
        <time>2021-02-21T11:35:11.435Z</time>
      </trkpt>
      <trkpt lat="48.50891" lon="7.19941">
        <ele>650</ele>
        <time>2021-02-21T11:35:12.435Z</time>
      </trkpt>
      <trkpt lat="48.5089" lon="7.19939">
        <ele>650</ele>
        <time>2021-02-21T11:35:13.435Z</time>
      </trkpt>
      <trkpt lat="48.5089" lon="7.19936">
        <ele>650</ele>
        <time>2021-02-21T11:35:14.435Z</time>
      </trkpt>
      <trkpt lat="48.50889" lon="7.19933">
        <ele>651</ele>
        <time>2021-02-21T11:35:15.435Z</time>
      </trkpt>
      <trkpt lat="48.5089" lon="7.19932">
        <ele>651</ele>
        <time>2021-02-21T11:35:16.435Z</time>
      </trkpt>
      <trkpt lat="48.5089" lon="7.1993">
        <ele>652</ele>
        <time>2021-02-21T11:35:17.435Z</time>
      </trkpt>
      <trkpt lat="48.50891" lon="7.19929">
        <ele>652</ele>
        <time>2021-02-21T11:35:18.435Z</time>
      </trkpt>
      <trkpt lat="48.50891" lon="7.19928">
        <ele>652</ele>
        <time>2021-02-21T11:35:19.435Z</time>
      </trkpt>
      <trkpt lat="48.50891" lon="7.19926">
        <ele>652</ele>
        <time>2021-02-21T11:35:20.435Z</time>
      </trkpt>
      <trkpt lat="48.50892" lon="7.19925">
        <ele>652</ele>
        <time>2021-02-21T11:35:21.435Z</time>
      </trkpt>
      <trkpt lat="48.50893" lon="7.19924">
        <ele>652</ele>
        <time>2021-02-21T11:35:22.435Z</time>
      </trkpt>
      <trkpt lat="48.50894" lon="7.19922">
        <ele>653</ele>
        <time>2021-02-21T11:35:23.435Z</time>
      </trkpt>
      <trkpt lat="48.50894" lon="7.19921">
        <ele>653</ele>
        <time>2021-02-21T11:35:24.434Z</time>
      </trkpt>
      <trkpt lat="48.50895" lon="7.19919">
        <ele>653</ele>
        <time>2021-02-21T11:35:25.435Z</time>
      </trkpt>
      <trkpt lat="48.50895" lon="7.19917">
        <ele>653</ele>
        <time>2021-02-21T11:35:26.435Z</time>
      </trkpt>
      <trkpt lat="48.50895" lon="7.19915">
        <ele>654</ele>
        <time>2021-02-21T11:35:27.435Z</time>
      </trkpt>
      <trkpt lat="48.50895" lon="7.19914">
        <ele>654</ele>
        <time>2021-02-21T11:35:28.435Z</time>
      </trkpt>
      <trkpt lat="48.50896" lon="7.19912">
        <ele>654</ele>
        <time>2021-02-21T11:35:29.435Z</time>
      </trkpt>
      <trkpt lat="48.50896" lon="7.1991">
        <ele>655</ele>
        <time>2021-02-21T11:35:30.435Z</time>
      </trkpt>
      <trkpt lat="48.50897" lon="7.19909">
        <ele>655</ele>
        <time>2021-02-21T11:35:31.435Z</time>
      </trkpt>
      <trkpt lat="48.50897" lon="7.19907">
        <ele>654</ele>
        <time>2021-02-21T11:35:32.435Z</time>
      </trkpt>
      <trkpt lat="48.50897" lon="7.19904">
        <ele>654</ele>
        <time>2021-02-21T11:35:33.435Z</time>
      </trkpt>
      <trkpt lat="48.50897" lon="7.19901">
        <ele>654</ele>
        <time>2021-02-21T11:35:34.435Z</time>
      </trkpt>
      <trkpt lat="48.50897" lon="7.19899">
        <ele>654</ele>
        <time>2021-02-21T11:35:35.434Z</time>
      </trkpt>
      <trkpt lat="48.50897" lon="7.19897">
        <ele>654</ele>
        <time>2021-02-21T11:35:36.434Z</time>
      </trkpt>
      <trkpt lat="48.50898" lon="7.19895">
        <ele>655</ele>
        <time>2021-02-21T11:35:37.435Z</time>
      </trkpt>
      <trkpt lat="48.50898" lon="7.19893">
        <ele>655</ele>
        <time>2021-02-21T11:35:38.435Z</time>
      </trkpt>
      <trkpt lat="48.50899" lon="7.19889">
        <ele>656</ele>
        <time>2021-02-21T11:35:39.434Z</time>
      </trkpt>
      <trkpt lat="48.50899" lon="7.19888">
        <ele>657</ele>
        <time>2021-02-21T11:35:40.435Z</time>
      </trkpt>
      <trkpt lat="48.50898" lon="7.19887">
        <ele>657</ele>
        <time>2021-02-21T11:35:41.434Z</time>
      </trkpt>
      <trkpt lat="48.50899" lon="7.19886">
        <ele>657</ele>
        <time>2021-02-21T11:35:42.434Z</time>
      </trkpt>
      <trkpt lat="48.50899" lon="7.19884">
        <ele>658</ele>
        <time>2021-02-21T11:35:43.435Z</time>
      </trkpt>
      <trkpt lat="48.509" lon="7.19883">
        <ele>658</ele>
        <time>2021-02-21T11:35:44.435Z</time>
      </trkpt>
      <trkpt lat="48.50901" lon="7.1988">
        <ele>658</ele>
        <time>2021-02-21T11:35:45.435Z</time>
      </trkpt>
      <trkpt lat="48.50901" lon="7.19878">
        <ele>658</ele>
        <time>2021-02-21T11:35:46.435Z</time>
      </trkpt>
      <trkpt lat="48.50901" lon="7.19876">
        <ele>658</ele>
        <time>2021-02-21T11:35:47.434Z</time>
      </trkpt>
      <trkpt lat="48.50901" lon="7.19875">
        <ele>658</ele>
        <time>2021-02-21T11:35:48.435Z</time>
      </trkpt>
      <trkpt lat="48.50901" lon="7.19873">
        <ele>658</ele>
        <time>2021-02-21T11:35:49.434Z</time>
      </trkpt>
      <trkpt lat="48.50901" lon="7.19871">
        <ele>658</ele>
        <time>2021-02-21T11:35:50.435Z</time>
      </trkpt>
      <trkpt lat="48.50901" lon="7.1987">
        <ele>657</ele>
        <time>2021-02-21T11:35:51.434Z</time>
      </trkpt>
      <trkpt lat="48.50902" lon="7.19869">
        <ele>657</ele>
        <time>2021-02-21T11:35:52.434Z</time>
      </trkpt>
      <trkpt lat="48.50903" lon="7.19867">
        <ele>657</ele>
        <time>2021-02-21T11:35:53.435Z</time>
      </trkpt>
      <trkpt lat="48.50903" lon="7.19866">
        <ele>656</ele>
        <time>2021-02-21T11:35:54.435Z</time>
      </trkpt>
      <trkpt lat="48.50904" lon="7.19864">
        <ele>656</ele>
        <time>2021-02-21T11:35:55.435Z</time>
      </trkpt>
      <trkpt lat="48.50904" lon="7.19863">
        <ele>656</ele>
        <time>2021-02-21T11:35:56.434Z</time>
      </trkpt>
      <trkpt lat="48.50904" lon="7.19862">
        <ele>656</ele>
        <time>2021-02-21T11:35:57.434Z</time>
      </trkpt>
      <trkpt lat="48.50905" lon="7.1986">
        <ele>656</ele>
        <time>2021-02-21T11:35:58.435Z</time>
      </trkpt>
      <trkpt lat="48.50906" lon="7.19859">
        <ele>656</ele>
        <time>2021-02-21T11:35:59.434Z</time>
      </trkpt>
      <trkpt lat="48.50906" lon="7.19858">
        <ele>657</ele>
        <time>2021-02-21T11:36:00.435Z</time>
      </trkpt>
      <trkpt lat="48.50907" lon="7.19856">
        <ele>657</ele>
        <time>2021-02-21T11:36:01.435Z</time>
      </trkpt>
      <trkpt lat="48.50907" lon="7.19855">
        <ele>657</ele>
        <time>2021-02-21T11:36:02.434Z</time>
      </trkpt>
      <trkpt lat="48.50907" lon="7.19854">
        <ele>656</ele>
        <time>2021-02-21T11:36:03.435Z</time>
      </trkpt>
      <trkpt lat="48.50908" lon="7.19852">
        <ele>656</ele>
        <time>2021-02-21T11:36:04.435Z</time>
      </trkpt>
      <trkpt lat="48.50908" lon="7.19851">
        <ele>655</ele>
        <time>2021-02-21T11:36:05.434Z</time>
      </trkpt>
      <trkpt lat="48.50909" lon="7.1985">
        <ele>655</ele>
        <time>2021-02-21T11:36:06.435Z</time>
      </trkpt>
      <trkpt lat="48.50909" lon="7.19848">
        <ele>655</ele>
        <time>2021-02-21T11:36:07.434Z</time>
      </trkpt>
      <trkpt lat="48.5091" lon="7.19847">
        <ele>656</ele>
        <time>2021-02-21T11:36:08.435Z</time>
      </trkpt>
      <trkpt lat="48.50911" lon="7.19845">
        <ele>656</ele>
        <time>2021-02-21T11:36:09.434Z</time>
      </trkpt>
      <trkpt lat="48.50912" lon="7.19844">
        <ele>656</ele>
        <time>2021-02-21T11:36:10.434Z</time>
      </trkpt>
      <trkpt lat="48.50912" lon="7.19842">
        <ele>657</ele>
        <time>2021-02-21T11:36:11.434Z</time>
      </trkpt>
      <trkpt lat="48.50913" lon="7.19841">
        <ele>657</ele>
        <time>2021-02-21T11:36:12.434Z</time>
      </trkpt>
      <trkpt lat="48.50914" lon="7.1984">
        <ele>657</ele>
        <time>2021-02-21T11:36:13.434Z</time>
      </trkpt>
      <trkpt lat="48.50916" lon="7.19838">
        <ele>657</ele>
        <time>2021-02-21T11:36:14.435Z</time>
      </trkpt>
      <trkpt lat="48.50916" lon="7.19836">
        <ele>656</ele>
        <time>2021-02-21T11:36:15.435Z</time>
      </trkpt>
      <trkpt lat="48.50916" lon="7.19834">
        <ele>656</ele>
        <time>2021-02-21T11:36:16.435Z</time>
      </trkpt>
      <trkpt lat="48.50917" lon="7.19832">
        <ele>655</ele>
        <time>2021-02-21T11:36:17.434Z</time>
      </trkpt>
      <trkpt lat="48.50917" lon="7.1983">
        <ele>655</ele>
        <time>2021-02-21T11:36:18.435Z</time>
      </trkpt>
      <trkpt lat="48.50917" lon="7.19829">
        <ele>654</ele>
        <time>2021-02-21T11:36:19.435Z</time>
      </trkpt>
      <trkpt lat="48.50918" lon="7.19827">
        <ele>654</ele>
        <time>2021-02-21T11:36:20.435Z</time>
      </trkpt>
      <trkpt lat="48.50918" lon="7.19825">
        <ele>654</ele>
        <time>2021-02-21T11:36:21.435Z</time>
      </trkpt>
      <trkpt lat="48.50919" lon="7.19822">
        <ele>653</ele>
        <time>2021-02-21T11:36:22.435Z</time>
      </trkpt>
      <trkpt lat="48.50919" lon="7.19821">
        <ele>653</ele>
        <time>2021-02-21T11:36:23.435Z</time>
      </trkpt>
      <trkpt lat="48.5092" lon="7.19819">
        <ele>653</ele>
        <time>2021-02-21T11:36:24.435Z</time>
      </trkpt>
      <trkpt lat="48.5092" lon="7.19818">
        <ele>654</ele>
        <time>2021-02-21T11:36:25.435Z</time>
      </trkpt>
      <trkpt lat="48.50921" lon="7.19816">
        <ele>654</ele>
        <time>2021-02-21T11:36:26.435Z</time>
      </trkpt>
      <trkpt lat="48.50921" lon="7.19815">
        <ele>655</ele>
        <time>2021-02-21T11:36:27.435Z</time>
      </trkpt>
      <trkpt lat="48.50922" lon="7.19814">
        <ele>655</ele>
        <time>2021-02-21T11:36:28.435Z</time>
      </trkpt>
      <trkpt lat="48.50922" lon="7.19812">
        <ele>655</ele>
        <time>2021-02-21T11:36:29.435Z</time>
      </trkpt>
      <trkpt lat="48.50923" lon="7.19811">
        <ele>655</ele>
        <time>2021-02-21T11:36:30.435Z</time>
      </trkpt>
      <trkpt lat="48.50923" lon="7.19809">
        <ele>654</ele>
        <time>2021-02-21T11:36:31.435Z</time>
      </trkpt>
      <trkpt lat="48.50924" lon="7.19807">
        <ele>654</ele>
        <time>2021-02-21T11:36:32.435Z</time>
      </trkpt>
      <trkpt lat="48.50925" lon="7.19806">
        <ele>654</ele>
        <time>2021-02-21T11:36:33.435Z</time>
      </trkpt>
      <trkpt lat="48.50926" lon="7.19804">
        <ele>653</ele>
        <time>2021-02-21T11:36:34.435Z</time>
      </trkpt>
      <trkpt lat="48.50927" lon="7.19802">
        <ele>653</ele>
        <time>2021-02-21T11:36:35.435Z</time>
      </trkpt>
      <trkpt lat="48.50927" lon="7.198">
        <ele>652</ele>
        <time>2021-02-21T11:36:36.435Z</time>
      </trkpt>
      <trkpt lat="48.50928" lon="7.19798">
        <ele>652</ele>
        <time>2021-02-21T11:36:37.434Z</time>
      </trkpt>
      <trkpt lat="48.50929" lon="7.19796">
        <ele>652</ele>
        <time>2021-02-21T11:36:38.435Z</time>
      </trkpt>
      <trkpt lat="48.5093" lon="7.19794">
        <ele>652</ele>
        <time>2021-02-21T11:36:39.434Z</time>
      </trkpt>
      <trkpt lat="48.5093" lon="7.19792">
        <ele>652</ele>
        <time>2021-02-21T11:36:40.434Z</time>
      </trkpt>
      <trkpt lat="48.50931" lon="7.19791">
        <ele>653</ele>
        <time>2021-02-21T11:36:41.434Z</time>
      </trkpt>
      <trkpt lat="48.50932" lon="7.19788">
        <ele>653</ele>
        <time>2021-02-21T11:36:42.435Z</time>
      </trkpt>
      <trkpt lat="48.50932" lon="7.19786">
        <ele>654</ele>
        <time>2021-02-21T11:36:43.435Z</time>
      </trkpt>
      <trkpt lat="48.50932" lon="7.19784">
        <ele>654</ele>
        <time>2021-02-21T11:36:44.434Z</time>
      </trkpt>
      <trkpt lat="48.50933" lon="7.19782">
        <ele>655</ele>
        <time>2021-02-21T11:36:45.434Z</time>
      </trkpt>
      <trkpt lat="48.50933" lon="7.1978">
        <ele>655</ele>
        <time>2021-02-21T11:36:46.435Z</time>
      </trkpt>
      <trkpt lat="48.50934" lon="7.19778">
        <ele>655</ele>
        <time>2021-02-21T11:36:47.434Z</time>
      </trkpt>
      <trkpt lat="48.50935" lon="7.19776">
        <ele>654</ele>
        <time>2021-02-21T11:36:48.435Z</time>
      </trkpt>
      <trkpt lat="48.50935" lon="7.19774">
        <ele>654</ele>
        <time>2021-02-21T11:36:49.435Z</time>
      </trkpt>
      <trkpt lat="48.50936" lon="7.19772">
        <ele>655</ele>
        <time>2021-02-21T11:36:50.435Z</time>
      </trkpt>
      <trkpt lat="48.50937" lon="7.1977">
        <ele>655</ele>
        <time>2021-02-21T11:36:51.435Z</time>
      </trkpt>
      <trkpt lat="48.50937" lon="7.19768">
        <ele>656</ele>
        <time>2021-02-21T11:36:52.435Z</time>
      </trkpt>
      <trkpt lat="48.50937" lon="7.19766">
        <ele>656</ele>
        <time>2021-02-21T11:36:53.435Z</time>
      </trkpt>
      <trkpt lat="48.50938" lon="7.19764">
        <ele>656</ele>
        <time>2021-02-21T11:36:54.435Z</time>
      </trkpt>
      <trkpt lat="48.50939" lon="7.19763">
        <ele>656</ele>
        <time>2021-02-21T11:36:55.434Z</time>
      </trkpt>
      <trkpt lat="48.5094" lon="7.19761">
        <ele>656</ele>
        <time>2021-02-21T11:36:56.434Z</time>
      </trkpt>
      <trkpt lat="48.5094" lon="7.19759">
        <ele>657</ele>
        <time>2021-02-21T11:36:57.435Z</time>
      </trkpt>
      <trkpt lat="48.50941" lon="7.19756">
        <ele>657</ele>
        <time>2021-02-21T11:36:58.435Z</time>
      </trkpt>
      <trkpt lat="48.50942" lon="7.19754">
        <ele>657</ele>
        <time>2021-02-21T11:36:59.435Z</time>
      </trkpt>
      <trkpt lat="48.50942" lon="7.19753">
        <ele>657</ele>
        <time>2021-02-21T11:37:00.435Z</time>
      </trkpt>
      <trkpt lat="48.50943" lon="7.19751">
        <ele>658</ele>
        <time>2021-02-21T11:37:01.435Z</time>
      </trkpt>
      <trkpt lat="48.50943" lon="7.19749">
        <ele>659</ele>
        <time>2021-02-21T11:37:02.435Z</time>
      </trkpt>
      <trkpt lat="48.50943" lon="7.19748">
        <ele>659</ele>
        <time>2021-02-21T11:37:03.435Z</time>
      </trkpt>
      <trkpt lat="48.50944" lon="7.19746">
        <ele>660</ele>
        <time>2021-02-21T11:37:04.435Z</time>
      </trkpt>
      <trkpt lat="48.50944" lon="7.19744">
        <ele>660</ele>
        <time>2021-02-21T11:37:05.434Z</time>
      </trkpt>
      <trkpt lat="48.50945" lon="7.19743">
        <ele>659</ele>
        <time>2021-02-21T11:37:06.435Z</time>
      </trkpt>
      <trkpt lat="48.50945" lon="7.19741">
        <ele>659</ele>
        <time>2021-02-21T11:37:07.435Z</time>
      </trkpt>
      <trkpt lat="48.50945" lon="7.19739">
        <ele>659</ele>
        <time>2021-02-21T11:37:08.435Z</time>
      </trkpt>
      <trkpt lat="48.50946" lon="7.19737">
        <ele>659</ele>
        <time>2021-02-21T11:37:09.434Z</time>
      </trkpt>
      <trkpt lat="48.50947" lon="7.19735">
        <ele>659</ele>
        <time>2021-02-21T11:37:10.435Z</time>
      </trkpt>
      <trkpt lat="48.50947" lon="7.19733">
        <ele>658</ele>
        <time>2021-02-21T11:37:11.435Z</time>
      </trkpt>
      <trkpt lat="48.50948" lon="7.19731">
        <ele>658</ele>
        <time>2021-02-21T11:37:12.434Z</time>
      </trkpt>
      <trkpt lat="48.50949" lon="7.1973">
        <ele>658</ele>
        <time>2021-02-21T11:37:13.435Z</time>
      </trkpt>
      <trkpt lat="48.50951" lon="7.19728">
        <ele>657</ele>
        <time>2021-02-21T11:37:14.435Z</time>
      </trkpt>
      <trkpt lat="48.50952" lon="7.19726">
        <ele>657</ele>
        <time>2021-02-21T11:37:15.435Z</time>
      </trkpt>
      <trkpt lat="48.50952" lon="7.19724">
        <ele>657</ele>
        <time>2021-02-21T11:37:16.434Z</time>
      </trkpt>
      <trkpt lat="48.50952" lon="7.19722">
        <ele>657</ele>
        <time>2021-02-21T11:37:17.435Z</time>
      </trkpt>
      <trkpt lat="48.50953" lon="7.1972">
        <ele>656</ele>
        <time>2021-02-21T11:37:18.434Z</time>
      </trkpt>
      <trkpt lat="48.50954" lon="7.19719">
        <ele>657</ele>
        <time>2021-02-21T11:37:19.434Z</time>
      </trkpt>
      <trkpt lat="48.50954" lon="7.19717">
        <ele>657</ele>
        <time>2021-02-21T11:37:20.435Z</time>
      </trkpt>
      <trkpt lat="48.50955" lon="7.19715">
        <ele>656</ele>
        <time>2021-02-21T11:37:21.434Z</time>
      </trkpt>
      <trkpt lat="48.50955" lon="7.19714">
        <ele>656</ele>
        <time>2021-02-21T11:37:22.435Z</time>
      </trkpt>
      <trkpt lat="48.50956" lon="7.19712">
        <ele>656</ele>
        <time>2021-02-21T11:37:23.434Z</time>
      </trkpt>
      <trkpt lat="48.50957" lon="7.1971">
        <ele>656</ele>
        <time>2021-02-21T11:37:24.434Z</time>
      </trkpt>
      <trkpt lat="48.50957" lon="7.19708">
        <ele>656</ele>
        <time>2021-02-21T11:37:25.435Z</time>
      </trkpt>
      <trkpt lat="48.50958" lon="7.19706">
        <ele>657</ele>
        <time>2021-02-21T11:37:26.434Z</time>
      </trkpt>
      <trkpt lat="48.50958" lon="7.19704">
        <ele>657</ele>
        <time>2021-02-21T11:37:27.435Z</time>
      </trkpt>
      <trkpt lat="48.50959" lon="7.19702">
        <ele>657</ele>
        <time>2021-02-21T11:37:28.434Z</time>
      </trkpt>
      <trkpt lat="48.50959" lon="7.197">
        <ele>657</ele>
        <time>2021-02-21T11:37:29.435Z</time>
      </trkpt>
      <trkpt lat="48.5096" lon="7.19698">
        <ele>658</ele>
        <time>2021-02-21T11:37:30.435Z</time>
      </trkpt>
      <trkpt lat="48.5096" lon="7.19697">
        <ele>657</ele>
        <time>2021-02-21T11:37:31.435Z</time>
      </trkpt>
      <trkpt lat="48.50961" lon="7.19695">
        <ele>657</ele>
        <time>2021-02-21T11:37:32.434Z</time>
      </trkpt>
      <trkpt lat="48.50962" lon="7.19693">
        <ele>657</ele>
        <time>2021-02-21T11:37:33.435Z</time>
      </trkpt>
      <trkpt lat="48.50962" lon="7.19691">
        <ele>658</ele>
        <time>2021-02-21T11:37:34.435Z</time>
      </trkpt>
      <trkpt lat="48.50962" lon="7.1969">
        <ele>658</ele>
        <time>2021-02-21T11:37:35.435Z</time>
      </trkpt>
      <trkpt lat="48.50963" lon="7.19688">
        <ele>658</ele>
        <time>2021-02-21T11:37:36.435Z</time>
      </trkpt>
      <trkpt lat="48.50963" lon="7.19686">
        <ele>659</ele>
        <time>2021-02-21T11:37:37.434Z</time>
      </trkpt>
      <trkpt lat="48.50964" lon="7.19684">
        <ele>659</ele>
        <time>2021-02-21T11:37:38.435Z</time>
      </trkpt>
      <trkpt lat="48.50964" lon="7.19683">
        <ele>659</ele>
        <time>2021-02-21T11:37:39.434Z</time>
      </trkpt>
      <trkpt lat="48.50965" lon="7.19681">
        <ele>660</ele>
        <time>2021-02-21T11:37:40.435Z</time>
      </trkpt>
      <trkpt lat="48.50965" lon="7.19679">
        <ele>660</ele>
        <time>2021-02-21T11:37:41.435Z</time>
      </trkpt>
      <trkpt lat="48.50966" lon="7.19678">
        <ele>660</ele>
        <time>2021-02-21T11:37:42.434Z</time>
      </trkpt>
      <trkpt lat="48.50966" lon="7.19676">
        <ele>660</ele>
        <time>2021-02-21T11:37:43.434Z</time>
      </trkpt>
      <trkpt lat="48.50967" lon="7.19674">
        <ele>659</ele>
        <time>2021-02-21T11:37:44.434Z</time>
      </trkpt>
      <trkpt lat="48.50967" lon="7.19672">
        <ele>659</ele>
        <time>2021-02-21T11:37:45.435Z</time>
      </trkpt>
      <trkpt lat="48.50968" lon="7.1967">
        <ele>659</ele>
        <time>2021-02-21T11:37:46.435Z</time>
      </trkpt>
      <trkpt lat="48.50968" lon="7.19668">
        <ele>660</ele>
        <time>2021-02-21T11:37:47.435Z</time>
      </trkpt>
      <trkpt lat="48.50969" lon="7.19666">
        <ele>660</ele>
        <time>2021-02-21T11:37:48.434Z</time>
      </trkpt>
      <trkpt lat="48.5097" lon="7.19664">
        <ele>660</ele>
        <time>2021-02-21T11:37:49.434Z</time>
      </trkpt>
      <trkpt lat="48.5097" lon="7.19662">
        <ele>660</ele>
        <time>2021-02-21T11:37:50.435Z</time>
      </trkpt>
      <trkpt lat="48.50971" lon="7.1966">
        <ele>660</ele>
        <time>2021-02-21T11:37:51.435Z</time>
      </trkpt>
      <trkpt lat="48.50971" lon="7.19658">
        <ele>660</ele>
        <time>2021-02-21T11:37:52.435Z</time>
      </trkpt>
      <trkpt lat="48.50972" lon="7.19655">
        <ele>660</ele>
        <time>2021-02-21T11:37:53.434Z</time>
      </trkpt>
      <trkpt lat="48.50972" lon="7.19654">
        <ele>660</ele>
        <time>2021-02-21T11:37:54.435Z</time>
      </trkpt>
      <trkpt lat="48.50973" lon="7.19652">
        <ele>660</ele>
        <time>2021-02-21T11:37:55.435Z</time>
      </trkpt>
      <trkpt lat="48.50973" lon="7.1965">
        <ele>659</ele>
        <time>2021-02-21T11:37:56.435Z</time>
      </trkpt>
      <trkpt lat="48.50974" lon="7.19648">
        <ele>659</ele>
        <time>2021-02-21T11:37:57.435Z</time>
      </trkpt>
      <trkpt lat="48.50974" lon="7.19646">
        <ele>658</ele>
        <time>2021-02-21T11:37:58.435Z</time>
      </trkpt>
      <trkpt lat="48.50975" lon="7.19644">
        <ele>658</ele>
        <time>2021-02-21T11:37:59.435Z</time>
      </trkpt>
      <trkpt lat="48.50975" lon="7.19642">
        <ele>657</ele>
        <time>2021-02-21T11:38:00.435Z</time>
      </trkpt>
      <trkpt lat="48.50976" lon="7.1964">
        <ele>657</ele>
        <time>2021-02-21T11:38:01.435Z</time>
      </trkpt>
      <trkpt lat="48.50977" lon="7.19639">
        <ele>657</ele>
        <time>2021-02-21T11:38:02.435Z</time>
      </trkpt>
      <trkpt lat="48.50977" lon="7.19637">
        <ele>658</ele>
        <time>2021-02-21T11:38:03.434Z</time>
      </trkpt>
      <trkpt lat="48.50978" lon="7.19635">
        <ele>658</ele>
        <time>2021-02-21T11:38:04.434Z</time>
      </trkpt>
      <trkpt lat="48.50978" lon="7.19633">
        <ele>658</ele>
        <time>2021-02-21T11:38:05.435Z</time>
      </trkpt>
      <trkpt lat="48.50979" lon="7.19632">
        <ele>659</ele>
        <time>2021-02-21T11:38:06.435Z</time>
      </trkpt>
      <trkpt lat="48.50979" lon="7.1963">
        <ele>659</ele>
        <time>2021-02-21T11:38:07.435Z</time>
      </trkpt>
      <trkpt lat="48.50979" lon="7.19628">
        <ele>659</ele>
        <time>2021-02-21T11:38:08.435Z</time>
      </trkpt>
      <trkpt lat="48.5098" lon="7.19626">
        <ele>659</ele>
        <time>2021-02-21T11:38:09.435Z</time>
      </trkpt>
      <trkpt lat="48.50981" lon="7.19624">
        <ele>659</ele>
        <time>2021-02-21T11:38:10.434Z</time>
      </trkpt>
      <trkpt lat="48.50982" lon="7.19623">
        <ele>659</ele>
        <time>2021-02-21T11:38:11.434Z</time>
      </trkpt>
      <trkpt lat="48.50983" lon="7.19621">
        <ele>659</ele>
        <time>2021-02-21T11:38:12.434Z</time>
      </trkpt>
      <trkpt lat="48.50983" lon="7.19619">
        <ele>659</ele>
        <time>2021-02-21T11:38:13.435Z</time>
      </trkpt>
      <trkpt lat="48.50984" lon="7.19618">
        <ele>659</ele>
        <time>2021-02-21T11:38:14.435Z</time>
      </trkpt>
      <trkpt lat="48.50984" lon="7.19616">
        <ele>660</ele>
        <time>2021-02-21T11:38:15.434Z</time>
      </trkpt>
      <trkpt lat="48.50984" lon="7.19613">
        <ele>660</ele>
        <time>2021-02-21T11:38:16.434Z</time>
      </trkpt>
      <trkpt lat="48.50985" lon="7.19611">
        <ele>660</ele>
        <time>2021-02-21T11:38:17.434Z</time>
      </trkpt>
      <trkpt lat="48.50985" lon="7.19609">
        <ele>661</ele>
        <time>2021-02-21T11:38:18.434Z</time>
      </trkpt>
      <trkpt lat="48.50986" lon="7.19607">
        <ele>662</ele>
        <time>2021-02-21T11:38:19.434Z</time>
      </trkpt>
      <trkpt lat="48.50986" lon="7.19605">
        <ele>662</ele>
        <time>2021-02-21T11:38:20.435Z</time>
      </trkpt>
      <trkpt lat="48.50986" lon="7.19603">
        <ele>663</ele>
        <time>2021-02-21T11:38:21.435Z</time>
      </trkpt>
      <trkpt lat="48.50985" lon="7.196">
        <ele>663</ele>
        <time>2021-02-21T11:38:22.435Z</time>
      </trkpt>
      <trkpt lat="48.50986" lon="7.19598">
        <ele>663</ele>
        <time>2021-02-21T11:38:23.435Z</time>
      </trkpt>
      <trkpt lat="48.50988" lon="7.19597">
        <ele>663</ele>
        <time>2021-02-21T11:38:24.435Z</time>
      </trkpt>
      <trkpt lat="48.50988" lon="7.19594">
        <ele>663</ele>
        <time>2021-02-21T11:38:25.434Z</time>
      </trkpt>
      <trkpt lat="48.50989" lon="7.19592">
        <ele>663</ele>
        <time>2021-02-21T11:38:26.434Z</time>
      </trkpt>
      <trkpt lat="48.50989" lon="7.1959">
        <ele>664</ele>
        <time>2021-02-21T11:38:27.434Z</time>
      </trkpt>
      <trkpt lat="48.5099" lon="7.19589">
        <ele>664</ele>
        <time>2021-02-21T11:38:58.542Z</time>
      </trkpt>
      <trkpt lat="48.5099" lon="7.19586">
        <ele>664</ele>
        <time>2021-02-21T11:38:59.543Z</time>
      </trkpt>
      <trkpt lat="48.50991" lon="7.19584">
        <ele>664</ele>
        <time>2021-02-21T11:39:00.542Z</time>
      </trkpt>
      <trkpt lat="48.50991" lon="7.19583">
        <ele>664</ele>
        <time>2021-02-21T11:39:01.543Z</time>
      </trkpt>
      <trkpt lat="48.50991" lon="7.19582">
        <ele>664</ele>
        <time>2021-02-21T11:39:02.543Z</time>
      </trkpt>
      <trkpt lat="48.50992" lon="7.19581">
        <ele>664</ele>
        <time>2021-02-21T11:39:03.543Z</time>
      </trkpt>
      <trkpt lat="48.50992" lon="7.1958">
        <ele>663</ele>
        <time>2021-02-21T11:39:04.543Z</time>
      </trkpt>
      <trkpt lat="48.50992" lon="7.19578">
        <ele>663</ele>
        <time>2021-02-21T11:39:05.543Z</time>
      </trkpt>
      <trkpt lat="48.50992" lon="7.19576">
        <ele>663</ele>
        <time>2021-02-21T11:39:06.543Z</time>
      </trkpt>
      <trkpt lat="48.50993" lon="7.19575">
        <ele>662</ele>
        <time>2021-02-21T11:39:07.543Z</time>
      </trkpt>
      <trkpt lat="48.50993" lon="7.19573">
        <ele>662</ele>
        <time>2021-02-21T11:39:08.543Z</time>
      </trkpt>
      <trkpt lat="48.50993" lon="7.19571">
        <ele>661</ele>
        <time>2021-02-21T11:39:09.543Z</time>
      </trkpt>
      <trkpt lat="48.50994" lon="7.1957">
        <ele>661</ele>
        <time>2021-02-21T11:39:10.542Z</time>
      </trkpt>
      <trkpt lat="48.50994" lon="7.19568">
        <ele>661</ele>
        <time>2021-02-21T11:39:11.542Z</time>
      </trkpt>
      <trkpt lat="48.50995" lon="7.19566">
        <ele>661</ele>
        <time>2021-02-21T11:39:12.542Z</time>
      </trkpt>
      <trkpt lat="48.50995" lon="7.19564">
        <ele>661</ele>
        <time>2021-02-21T11:39:13.543Z</time>
      </trkpt>
      <trkpt lat="48.50996" lon="7.19562">
        <ele>661</ele>
        <time>2021-02-21T11:39:14.542Z</time>
      </trkpt>
      <trkpt lat="48.50996" lon="7.1956">
        <ele>660</ele>
        <time>2021-02-21T11:39:15.542Z</time>
      </trkpt>
      <trkpt lat="48.50996" lon="7.19558">
        <ele>660</ele>
        <time>2021-02-21T11:39:16.543Z</time>
      </trkpt>
      <trkpt lat="48.50997" lon="7.19556">
        <ele>660</ele>
        <time>2021-02-21T11:39:17.543Z</time>
      </trkpt>
      <trkpt lat="48.50997" lon="7.19554">
        <ele>659</ele>
        <time>2021-02-21T11:39:18.543Z</time>
      </trkpt>
      <trkpt lat="48.50998" lon="7.19552">
        <ele>659</ele>
        <time>2021-02-21T11:39:19.543Z</time>
      </trkpt>
      <trkpt lat="48.50998" lon="7.1955">
        <ele>659</ele>
        <time>2021-02-21T11:39:20.543Z</time>
      </trkpt>
      <trkpt lat="48.50999" lon="7.19548">
        <ele>659</ele>
        <time>2021-02-21T11:39:21.542Z</time>
      </trkpt>
      <trkpt lat="48.50999" lon="7.19546">
        <ele>659</ele>
        <time>2021-02-21T11:39:22.543Z</time>
      </trkpt>
      <trkpt lat="48.51" lon="7.19544">
        <ele>659</ele>
        <time>2021-02-21T11:39:23.542Z</time>
      </trkpt>
      <trkpt lat="48.51" lon="7.19542">
        <ele>659</ele>
        <time>2021-02-21T11:39:24.543Z</time>
      </trkpt>
      <trkpt lat="48.51001" lon="7.19541">
        <ele>659</ele>
        <time>2021-02-21T11:39:25.543Z</time>
      </trkpt>
      <trkpt lat="48.51002" lon="7.19539">
        <ele>660</ele>
        <time>2021-02-21T11:39:26.543Z</time>
      </trkpt>
      <trkpt lat="48.51002" lon="7.19536">
        <ele>660</ele>
        <time>2021-02-21T11:39:32.670Z</time>
      </trkpt>
      <trkpt lat="48.51002" lon="7.19534">
        <ele>660</ele>
        <time>2021-02-21T11:39:33.670Z</time>
      </trkpt>
      <trkpt lat="48.51003" lon="7.19532">
        <ele>661</ele>
        <time>2021-02-21T11:39:34.670Z</time>
      </trkpt>
      <trkpt lat="48.51003" lon="7.1953">
        <ele>661</ele>
        <time>2021-02-21T11:39:35.670Z</time>
      </trkpt>
      <trkpt lat="48.51004" lon="7.19528">
        <ele>661</ele>
        <time>2021-02-21T11:40:22.791Z</time>
      </trkpt>
      <trkpt lat="48.51005" lon="7.19526">
        <ele>661</ele>
        <time>2021-02-21T11:40:23.790Z</time>
      </trkpt>
      <trkpt lat="48.51006" lon="7.19524">
        <ele>660</ele>
        <time>2021-02-21T11:40:24.790Z</time>
      </trkpt>
      <trkpt lat="48.51006" lon="7.19522">
        <ele>660</ele>
        <time>2021-02-21T11:40:25.790Z</time>
      </trkpt>
      <trkpt lat="48.51007" lon="7.1952">
        <ele>660</ele>
        <time>2021-02-21T11:40:26.791Z</time>
      </trkpt>
      <trkpt lat="48.51007" lon="7.19518">
        <ele>661</ele>
        <time>2021-02-21T11:40:27.791Z</time>
      </trkpt>
      <trkpt lat="48.51008" lon="7.19517">
        <ele>661</ele>
        <time>2021-02-21T11:40:28.790Z</time>
      </trkpt>
      <trkpt lat="48.51008" lon="7.19515">
        <ele>660</ele>
        <time>2021-02-21T11:40:29.790Z</time>
      </trkpt>
      <trkpt lat="48.51009" lon="7.19513">
        <ele>661</ele>
        <time>2021-02-21T11:40:30.790Z</time>
      </trkpt>
      <trkpt lat="48.51009" lon="7.19511">
        <ele>662</ele>
        <time>2021-02-21T11:40:31.791Z</time>
      </trkpt>
      <trkpt lat="48.5101" lon="7.19509">
        <ele>663</ele>
        <time>2021-02-21T11:40:32.790Z</time>
      </trkpt>
      <trkpt lat="48.5101" lon="7.19507">
        <ele>664</ele>
        <time>2021-02-21T11:40:33.791Z</time>
      </trkpt>
      <trkpt lat="48.5101" lon="7.19505">
        <ele>665</ele>
        <time>2021-02-21T11:40:34.791Z</time>
      </trkpt>
      <trkpt lat="48.5101" lon="7.19503">
        <ele>665</ele>
        <time>2021-02-21T11:40:35.791Z</time>
      </trkpt>
      <trkpt lat="48.51011" lon="7.19502">
        <ele>666</ele>
        <time>2021-02-21T11:40:36.791Z</time>
      </trkpt>
      <trkpt lat="48.51011" lon="7.195">
        <ele>667</ele>
        <time>2021-02-21T11:40:37.790Z</time>
      </trkpt>
      <trkpt lat="48.51012" lon="7.19498">
        <ele>667</ele>
        <time>2021-02-21T11:40:38.790Z</time>
      </trkpt>
      <trkpt lat="48.51012" lon="7.19496">
        <ele>668</ele>
        <time>2021-02-21T11:40:39.791Z</time>
      </trkpt>
      <trkpt lat="48.51013" lon="7.19494">
        <ele>668</ele>
        <time>2021-02-21T11:40:40.790Z</time>
      </trkpt>
      <trkpt lat="48.51014" lon="7.19491">
        <ele>669</ele>
        <time>2021-02-21T11:40:41.790Z</time>
      </trkpt>
      <trkpt lat="48.51014" lon="7.19489">
        <ele>669</ele>
        <time>2021-02-21T11:40:42.791Z</time>
      </trkpt>
      <trkpt lat="48.51015" lon="7.19487">
        <ele>669</ele>
        <time>2021-02-21T11:40:43.791Z</time>
      </trkpt>
      <trkpt lat="48.51015" lon="7.19485">
        <ele>669</ele>
        <time>2021-02-21T11:40:44.791Z</time>
      </trkpt>
      <trkpt lat="48.51015" lon="7.19483">
        <ele>669</ele>
        <time>2021-02-21T11:40:45.791Z</time>
      </trkpt>
      <trkpt lat="48.51016" lon="7.19481">
        <ele>668</ele>
        <time>2021-02-21T11:40:46.791Z</time>
      </trkpt>
      <trkpt lat="48.51016" lon="7.19479">
        <ele>668</ele>
        <time>2021-02-21T11:40:47.790Z</time>
      </trkpt>
      <trkpt lat="48.51017" lon="7.19477">
        <ele>668</ele>
        <time>2021-02-21T11:40:48.790Z</time>
      </trkpt>
      <trkpt lat="48.51018" lon="7.19475">
        <ele>668</ele>
        <time>2021-02-21T11:40:49.791Z</time>
      </trkpt>
      <trkpt lat="48.51018" lon="7.19473">
        <ele>668</ele>
        <time>2021-02-21T11:40:58.893Z</time>
      </trkpt>
      <trkpt lat="48.51019" lon="7.19471">
        <ele>667</ele>
        <time>2021-02-21T11:40:59.893Z</time>
      </trkpt>
      <trkpt lat="48.51019" lon="7.1947">
        <ele>667</ele>
        <time>2021-02-21T11:41:00.894Z</time>
      </trkpt>
      <trkpt lat="48.51019" lon="7.19468">
        <ele>667</ele>
        <time>2021-02-21T11:41:01.894Z</time>
      </trkpt>
      <trkpt lat="48.5102" lon="7.19466">
        <ele>666</ele>
        <time>2021-02-21T11:41:02.893Z</time>
      </trkpt>
      <trkpt lat="48.51021" lon="7.19464">
        <ele>666</ele>
        <time>2021-02-21T11:41:03.894Z</time>
      </trkpt>
      <trkpt lat="48.51022" lon="7.19463">
        <ele>666</ele>
        <time>2021-02-21T11:46:50.038Z</time>
      </trkpt>
      <trkpt lat="48.51022" lon="7.19461">
        <ele>666</ele>
        <time>2021-02-21T11:46:51.038Z</time>
      </trkpt>
      <trkpt lat="48.51023" lon="7.19459">
        <ele>666</ele>
        <time>2021-02-21T11:46:52.038Z</time>
      </trkpt>
      <trkpt lat="48.51024" lon="7.19457">
        <ele>666</ele>
        <time>2021-02-21T11:48:09.166Z</time>
      </trkpt>
      <trkpt lat="48.51025" lon="7.19455">
        <ele>666</ele>
        <time>2021-02-21T11:48:10.165Z</time>
      </trkpt>
      <trkpt lat="48.51026" lon="7.19453">
        <ele>667</ele>
        <time>2021-02-21T11:48:11.166Z</time>
      </trkpt>
      <trkpt lat="48.51027" lon="7.19452">
        <ele>667</ele>
        <time>2021-02-21T11:48:12.166Z</time>
      </trkpt>
      <trkpt lat="48.51027" lon="7.1945">
        <ele>667</ele>
        <time>2021-02-21T11:48:13.166Z</time>
      </trkpt>
      <trkpt lat="48.51028" lon="7.19449">
        <ele>667</ele>
        <time>2021-02-21T11:48:14.165Z</time>
      </trkpt>
      <trkpt lat="48.51028" lon="7.19447">
        <ele>666</ele>
        <time>2021-02-21T11:48:15.166Z</time>
      </trkpt>
      <trkpt lat="48.51029" lon="7.19446">
        <ele>666</ele>
        <time>2021-02-21T11:48:16.165Z</time>
      </trkpt>
      <trkpt lat="48.51029" lon="7.19444">
        <ele>666</ele>
        <time>2021-02-21T11:48:17.166Z</time>
      </trkpt>
      <trkpt lat="48.5103" lon="7.19443">
        <ele>666</ele>
        <time>2021-02-21T11:48:18.166Z</time>
      </trkpt>
      <trkpt lat="48.5103" lon="7.19441">
        <ele>665</ele>
        <time>2021-02-21T11:48:19.166Z</time>
      </trkpt>
      <trkpt lat="48.5103" lon="7.1944">
        <ele>665</ele>
        <time>2021-02-21T11:48:20.166Z</time>
      </trkpt>
      <trkpt lat="48.51031" lon="7.19439">
        <ele>666</ele>
        <time>2021-02-21T11:48:21.166Z</time>
      </trkpt>
      <trkpt lat="48.51032" lon="7.19437">
        <ele>665</ele>
        <time>2021-02-21T11:48:22.166Z</time>
      </trkpt>
      <trkpt lat="48.51033" lon="7.19436">
        <ele>665</ele>
        <time>2021-02-21T11:48:23.166Z</time>
      </trkpt>
      <trkpt lat="48.51033" lon="7.19435">
        <ele>665</ele>
        <time>2021-02-21T11:48:24.165Z</time>
      </trkpt>
      <trkpt lat="48.51033" lon="7.19433">
        <ele>665</ele>
        <time>2021-02-21T11:48:25.166Z</time>
      </trkpt>
      <trkpt lat="48.51034" lon="7.19432">
        <ele>665</ele>
        <time>2021-02-21T11:48:26.166Z</time>
      </trkpt>
      <trkpt lat="48.51035" lon="7.19432">
        <ele>665</ele>
        <time>2021-02-21T11:48:27.166Z</time>
      </trkpt>
      <trkpt lat="48.51035" lon="7.19431">
        <ele>666</ele>
        <time>2021-02-21T11:48:28.166Z</time>
      </trkpt>
      <trkpt lat="48.51037" lon="7.1943">
        <ele>666</ele>
        <time>2021-02-21T11:48:29.165Z</time>
      </trkpt>
      <trkpt lat="48.51035" lon="7.19428">
        <ele>667</ele>
        <time>2021-02-21T11:48:30.166Z</time>
      </trkpt>
      <trkpt lat="48.51035" lon="7.19427">
        <ele>667</ele>
        <time>2021-02-21T11:48:31.166Z</time>
      </trkpt>
      <trkpt lat="48.51035" lon="7.19426">
        <ele>667</ele>
        <time>2021-02-21T11:48:32.166Z</time>
      </trkpt>
      <trkpt lat="48.51035" lon="7.19425">
        <ele>668</ele>
        <time>2021-02-21T11:48:33.166Z</time>
      </trkpt>
      <trkpt lat="48.51035" lon="7.19423">
        <ele>668</ele>
        <time>2021-02-21T11:48:34.165Z</time>
      </trkpt>
      <trkpt lat="48.51036" lon="7.19422">
        <ele>669</ele>
        <time>2021-02-21T11:48:35.166Z</time>
      </trkpt>
      <trkpt lat="48.51036" lon="7.1942">
        <ele>669</ele>
        <time>2021-02-21T11:48:36.166Z</time>
      </trkpt>
      <trkpt lat="48.51037" lon="7.19419">
        <ele>669</ele>
        <time>2021-02-21T11:48:37.165Z</time>
      </trkpt>
      <trkpt lat="48.51037" lon="7.19418">
        <ele>670</ele>
        <time>2021-02-21T11:48:38.165Z</time>
      </trkpt>
      <trkpt lat="48.51038" lon="7.19417">
        <ele>670</ele>
        <time>2021-02-21T11:48:39.166Z</time>
      </trkpt>
      <trkpt lat="48.51038" lon="7.19416">
        <ele>671</ele>
        <time>2021-02-21T11:48:40.166Z</time>
      </trkpt>
      <trkpt lat="48.51039" lon="7.19415">
        <ele>671</ele>
        <time>2021-02-21T11:48:41.166Z</time>
      </trkpt>
      <trkpt lat="48.51039" lon="7.19413">
        <ele>671</ele>
        <time>2021-02-21T11:48:42.166Z</time>
      </trkpt>
      <trkpt lat="48.51039" lon="7.19412">
        <ele>670</ele>
        <time>2021-02-21T11:48:43.166Z</time>
      </trkpt>
      <trkpt lat="48.5104" lon="7.1941">
        <ele>669</ele>
        <time>2021-02-21T11:48:44.166Z</time>
      </trkpt>
      <trkpt lat="48.5104" lon="7.19409">
        <ele>669</ele>
        <time>2021-02-21T11:48:45.165Z</time>
      </trkpt>
      <trkpt lat="48.51041" lon="7.19407">
        <ele>668</ele>
        <time>2021-02-21T11:48:46.166Z</time>
      </trkpt>
      <trkpt lat="48.51041" lon="7.19405">
        <ele>667</ele>
        <time>2021-02-21T11:48:47.166Z</time>
      </trkpt>
      <trkpt lat="48.51041" lon="7.19404">
        <ele>667</ele>
        <time>2021-02-21T11:48:48.166Z</time>
      </trkpt>
      <trkpt lat="48.51042" lon="7.19402">
        <ele>666</ele>
        <time>2021-02-21T11:48:49.166Z</time>
      </trkpt>
      <trkpt lat="48.51042" lon="7.19401">
        <ele>666</ele>
        <time>2021-02-21T11:48:50.166Z</time>
      </trkpt>
      <trkpt lat="48.51042" lon="7.19399">
        <ele>666</ele>
        <time>2021-02-21T11:48:51.166Z</time>
      </trkpt>
      <trkpt lat="48.51043" lon="7.19398">
        <ele>666</ele>
        <time>2021-02-21T11:48:52.165Z</time>
      </trkpt>
      <trkpt lat="48.51043" lon="7.19396">
        <ele>666</ele>
        <time>2021-02-21T11:48:53.166Z</time>
      </trkpt>
      <trkpt lat="48.51044" lon="7.19394">
        <ele>666</ele>
        <time>2021-02-21T11:48:54.166Z</time>
      </trkpt>
      <trkpt lat="48.51045" lon="7.19393">
        <ele>666</ele>
        <time>2021-02-21T11:48:55.166Z</time>
      </trkpt>
      <trkpt lat="48.51045" lon="7.19391">
        <ele>666</ele>
        <time>2021-02-21T11:48:56.166Z</time>
      </trkpt>
      <trkpt lat="48.51046" lon="7.1939">
        <ele>666</ele>
        <time>2021-02-21T11:48:57.165Z</time>
      </trkpt>
      <trkpt lat="48.51047" lon="7.19388">
        <ele>667</ele>
        <time>2021-02-21T11:48:58.166Z</time>
      </trkpt>
      <trkpt lat="48.51047" lon="7.19386">
        <ele>667</ele>
        <time>2021-02-21T11:48:59.165Z</time>
      </trkpt>
      <trkpt lat="48.51048" lon="7.19384">
        <ele>668</ele>
        <time>2021-02-21T11:49:00.166Z</time>
      </trkpt>
      <trkpt lat="48.51048" lon="7.19382">
        <ele>668</ele>
        <time>2021-02-21T11:49:01.166Z</time>
      </trkpt>
      <trkpt lat="48.51049" lon="7.19381">
        <ele>668</ele>
        <time>2021-02-21T11:49:02.166Z</time>
      </trkpt>
      <trkpt lat="48.51049" lon="7.19379">
        <ele>668</ele>
        <time>2021-02-21T11:49:03.166Z</time>
      </trkpt>
      <trkpt lat="48.5105" lon="7.19378">
        <ele>668</ele>
        <time>2021-02-21T11:49:04.166Z</time>
      </trkpt>
      <trkpt lat="48.5105" lon="7.19376">
        <ele>668</ele>
        <time>2021-02-21T11:49:05.166Z</time>
      </trkpt>
      <trkpt lat="48.51051" lon="7.19375">
        <ele>668</ele>
        <time>2021-02-21T11:49:06.166Z</time>
      </trkpt>
      <trkpt lat="48.51051" lon="7.19373">
        <ele>668</ele>
        <time>2021-02-21T11:49:07.166Z</time>
      </trkpt>
      <trkpt lat="48.51052" lon="7.19371">
        <ele>669</ele>
        <time>2021-02-21T11:49:08.166Z</time>
      </trkpt>
      <trkpt lat="48.51052" lon="7.19369">
        <ele>669</ele>
        <time>2021-02-21T11:49:09.166Z</time>
      </trkpt>
      <trkpt lat="48.51053" lon="7.19368">
        <ele>669</ele>
        <time>2021-02-21T11:49:10.166Z</time>
      </trkpt>
      <trkpt lat="48.51053" lon="7.19366">
        <ele>669</ele>
        <time>2021-02-21T11:49:11.166Z</time>
      </trkpt>
      <trkpt lat="48.51054" lon="7.19364">
        <ele>669</ele>
        <time>2021-02-21T11:49:12.166Z</time>
      </trkpt>
      <trkpt lat="48.51055" lon="7.19363">
        <ele>669</ele>
        <time>2021-02-21T11:49:13.166Z</time>
      </trkpt>
      <trkpt lat="48.51055" lon="7.19361">
        <ele>670</ele>
        <time>2021-02-21T11:49:14.166Z</time>
      </trkpt>
      <trkpt lat="48.51056" lon="7.19359">
        <ele>670</ele>
        <time>2021-02-21T11:49:15.166Z</time>
      </trkpt>
      <trkpt lat="48.51056" lon="7.19357">
        <ele>670</ele>
        <time>2021-02-21T11:49:16.166Z</time>
      </trkpt>
      <trkpt lat="48.51056" lon="7.19356">
        <ele>670</ele>
        <time>2021-02-21T11:49:17.165Z</time>
      </trkpt>
      <trkpt lat="48.51056" lon="7.19354">
        <ele>669</ele>
        <time>2021-02-21T11:49:18.166Z</time>
      </trkpt>
      <trkpt lat="48.51057" lon="7.19352">
        <ele>669</ele>
        <time>2021-02-21T11:49:19.165Z</time>
      </trkpt>
      <trkpt lat="48.51057" lon="7.1935">
        <ele>669</ele>
        <time>2021-02-21T11:49:20.166Z</time>
      </trkpt>
      <trkpt lat="48.51057" lon="7.19348">
        <ele>669</ele>
        <time>2021-02-21T11:49:21.166Z</time>
      </trkpt>
      <trkpt lat="48.51057" lon="7.19346">
        <ele>670</ele>
        <time>2021-02-21T11:49:22.166Z</time>
      </trkpt>
      <trkpt lat="48.51058" lon="7.19344">
        <ele>670</ele>
        <time>2021-02-21T11:49:23.165Z</time>
      </trkpt>
      <trkpt lat="48.51058" lon="7.19343">
        <ele>670</ele>
        <time>2021-02-21T11:49:24.166Z</time>
      </trkpt>
      <trkpt lat="48.51059" lon="7.19342">
        <ele>670</ele>
        <time>2021-02-21T11:49:25.165Z</time>
      </trkpt>
      <trkpt lat="48.5106" lon="7.1934">
        <ele>671</ele>
        <time>2021-02-21T11:49:26.166Z</time>
      </trkpt>
      <trkpt lat="48.5106" lon="7.19337">
        <ele>671</ele>
        <time>2021-02-21T11:49:27.166Z</time>
      </trkpt>
      <trkpt lat="48.51061" lon="7.19335">
        <ele>672</ele>
        <time>2021-02-21T11:49:28.165Z</time>
      </trkpt>
      <trkpt lat="48.51061" lon="7.19333">
        <ele>673</ele>
        <time>2021-02-21T11:49:29.166Z</time>
      </trkpt>
      <trkpt lat="48.51061" lon="7.19331">
        <ele>673</ele>
        <time>2021-02-21T11:49:30.166Z</time>
      </trkpt>
      <trkpt lat="48.51062" lon="7.19329">
        <ele>673</ele>
        <time>2021-02-21T11:49:31.166Z</time>
      </trkpt>
      <trkpt lat="48.51063" lon="7.19326">
        <ele>673</ele>
        <time>2021-02-21T11:49:32.165Z</time>
      </trkpt>
      <trkpt lat="48.51064" lon="7.19324">
        <ele>673</ele>
        <time>2021-02-21T11:49:33.166Z</time>
      </trkpt>
      <trkpt lat="48.51065" lon="7.19322">
        <ele>674</ele>
        <time>2021-02-21T11:49:34.165Z</time>
      </trkpt>
      <trkpt lat="48.51065" lon="7.19321">
        <ele>674</ele>
        <time>2021-02-21T11:49:35.166Z</time>
      </trkpt>
      <trkpt lat="48.51065" lon="7.19319">
        <ele>674</ele>
        <time>2021-02-21T11:49:36.166Z</time>
      </trkpt>
      <trkpt lat="48.51066" lon="7.19317">
        <ele>673</ele>
        <time>2021-02-21T11:49:37.166Z</time>
      </trkpt>
      <trkpt lat="48.51066" lon="7.19315">
        <ele>673</ele>
        <time>2021-02-21T11:49:38.165Z</time>
      </trkpt>
      <trkpt lat="48.51067" lon="7.19313">
        <ele>673</ele>
        <time>2021-02-21T11:49:39.166Z</time>
      </trkpt>
      <trkpt lat="48.51067" lon="7.19312">
        <ele>672</ele>
        <time>2021-02-21T11:49:40.166Z</time>
      </trkpt>
      <trkpt lat="48.51068" lon="7.1931">
        <ele>672</ele>
        <time>2021-02-21T11:49:41.165Z</time>
      </trkpt>
      <trkpt lat="48.51069" lon="7.19308">
        <ele>672</ele>
        <time>2021-02-21T11:49:42.166Z</time>
      </trkpt>
      <trkpt lat="48.5107" lon="7.19306">
        <ele>672</ele>
        <time>2021-02-21T11:49:43.165Z</time>
      </trkpt>
      <trkpt lat="48.51071" lon="7.19305">
        <ele>672</ele>
        <time>2021-02-21T11:49:44.166Z</time>
      </trkpt>
      <trkpt lat="48.51071" lon="7.19303">
        <ele>673</ele>
        <time>2021-02-21T11:49:45.166Z</time>
      </trkpt>
      <trkpt lat="48.51072" lon="7.19301">
        <ele>673</ele>
        <time>2021-02-21T11:49:46.166Z</time>
      </trkpt>
      <trkpt lat="48.51073" lon="7.193">
        <ele>673</ele>
        <time>2021-02-21T11:49:47.165Z</time>
      </trkpt>
      <trkpt lat="48.51073" lon="7.19298">
        <ele>673</ele>
        <time>2021-02-21T11:49:48.166Z</time>
      </trkpt>
      <trkpt lat="48.51074" lon="7.19296">
        <ele>673</ele>
        <time>2021-02-21T11:49:49.166Z</time>
      </trkpt>
      <trkpt lat="48.51074" lon="7.19294">
        <ele>673</ele>
        <time>2021-02-21T11:49:50.166Z</time>
      </trkpt>
      <trkpt lat="48.51075" lon="7.19293">
        <ele>673</ele>
        <time>2021-02-21T11:49:51.165Z</time>
      </trkpt>
      <trkpt lat="48.51075" lon="7.19291">
        <ele>673</ele>
        <time>2021-02-21T11:49:52.166Z</time>
      </trkpt>
      <trkpt lat="48.51076" lon="7.1929">
        <ele>672</ele>
        <time>2021-02-21T11:49:53.166Z</time>
      </trkpt>
      <trkpt lat="48.51077" lon="7.19288">
        <ele>673</ele>
        <time>2021-02-21T11:49:54.166Z</time>
      </trkpt>
      <trkpt lat="48.51077" lon="7.19286">
        <ele>673</ele>
        <time>2021-02-21T11:49:55.166Z</time>
      </trkpt>
      <trkpt lat="48.51078" lon="7.19285">
        <ele>674</ele>
        <time>2021-02-21T11:49:56.166Z</time>
      </trkpt>
      <trkpt lat="48.51078" lon="7.19283">
        <ele>674</ele>
        <time>2021-02-21T11:49:57.166Z</time>
      </trkpt>
      <trkpt lat="48.51079" lon="7.19282">
        <ele>674</ele>
        <time>2021-02-21T11:49:58.166Z</time>
      </trkpt>
      <trkpt lat="48.5108" lon="7.1928">
        <ele>674</ele>
        <time>2021-02-21T11:49:59.165Z</time>
      </trkpt>
      <trkpt lat="48.5108" lon="7.19278">
        <ele>674</ele>
        <time>2021-02-21T11:50:00.165Z</time>
      </trkpt>
      <trkpt lat="48.51081" lon="7.19277">
        <ele>673</ele>
        <time>2021-02-21T11:50:01.166Z</time>
      </trkpt>
      <trkpt lat="48.51081" lon="7.19275">
        <ele>674</ele>
        <time>2021-02-21T11:50:02.166Z</time>
      </trkpt>
      <trkpt lat="48.51082" lon="7.19273">
        <ele>674</ele>
        <time>2021-02-21T11:50:03.166Z</time>
      </trkpt>
      <trkpt lat="48.51082" lon="7.19271">
        <ele>674</ele>
        <time>2021-02-21T11:50:04.165Z</time>
      </trkpt>
      <trkpt lat="48.51083" lon="7.1927">
        <ele>674</ele>
        <time>2021-02-21T11:50:05.166Z</time>
      </trkpt>
      <trkpt lat="48.51084" lon="7.19268">
        <ele>674</ele>
        <time>2021-02-21T11:50:06.165Z</time>
      </trkpt>
      <trkpt lat="48.51085" lon="7.19267">
        <ele>674</ele>
        <time>2021-02-21T11:50:07.166Z</time>
      </trkpt>
      <trkpt lat="48.51085" lon="7.19266">
        <ele>674</ele>
        <time>2021-02-21T11:50:08.165Z</time>
      </trkpt>
      <trkpt lat="48.51085" lon="7.19264">
        <ele>674</ele>
        <time>2021-02-21T11:50:09.165Z</time>
      </trkpt>
      <trkpt lat="48.51086" lon="7.19262">
        <ele>674</ele>
        <time>2021-02-21T11:50:10.166Z</time>
      </trkpt>
      <trkpt lat="48.51086" lon="7.1926">
        <ele>674</ele>
        <time>2021-02-21T11:50:11.166Z</time>
      </trkpt>
      <trkpt lat="48.51086" lon="7.19259">
        <ele>674</ele>
        <time>2021-02-21T11:50:12.165Z</time>
      </trkpt>
      <trkpt lat="48.51087" lon="7.19257">
        <ele>675</ele>
        <time>2021-02-21T11:50:13.166Z</time>
      </trkpt>
      <trkpt lat="48.51088" lon="7.19255">
        <ele>674</ele>
        <time>2021-02-21T11:50:14.166Z</time>
      </trkpt>
      <trkpt lat="48.51088" lon="7.19253">
        <ele>674</ele>
        <time>2021-02-21T11:50:15.165Z</time>
      </trkpt>
      <trkpt lat="48.51089" lon="7.19252">
        <ele>674</ele>
        <time>2021-02-21T11:50:16.166Z</time>
      </trkpt>
      <trkpt lat="48.51089" lon="7.1925">
        <ele>674</ele>
        <time>2021-02-21T11:50:17.166Z</time>
      </trkpt>
      <trkpt lat="48.5109" lon="7.19248">
        <ele>673</ele>
        <time>2021-02-21T11:50:18.166Z</time>
      </trkpt>
      <trkpt lat="48.51091" lon="7.19247">
        <ele>673</ele>
        <time>2021-02-21T11:50:19.166Z</time>
      </trkpt>
      <trkpt lat="48.51091" lon="7.19246">
        <ele>673</ele>
        <time>2021-02-21T11:50:20.166Z</time>
      </trkpt>
      <trkpt lat="48.51091" lon="7.19244">
        <ele>673</ele>
        <time>2021-02-21T11:50:21.166Z</time>
      </trkpt>
      <trkpt lat="48.51092" lon="7.19242">
        <ele>673</ele>
        <time>2021-02-21T11:50:22.166Z</time>
      </trkpt>
      <trkpt lat="48.51092" lon="7.1924">
        <ele>674</ele>
        <time>2021-02-21T11:50:23.165Z</time>
      </trkpt>
      <trkpt lat="48.51093" lon="7.19239">
        <ele>674</ele>
        <time>2021-02-21T11:50:24.166Z</time>
      </trkpt>
      <trkpt lat="48.51094" lon="7.19237">
        <ele>675</ele>
        <time>2021-02-21T11:50:25.165Z</time>
      </trkpt>
      <trkpt lat="48.51094" lon="7.19235">
        <ele>675</ele>
        <time>2021-02-21T11:50:26.166Z</time>
      </trkpt>
      <trkpt lat="48.51095" lon="7.19233">
        <ele>676</ele>
        <time>2021-02-21T11:50:27.165Z</time>
      </trkpt>
      <trkpt lat="48.51095" lon="7.19231">
        <ele>677</ele>
        <time>2021-02-21T11:50:28.166Z</time>
      </trkpt>
      <trkpt lat="48.51096" lon="7.1923">
        <ele>677</ele>
        <time>2021-02-21T11:50:29.165Z</time>
      </trkpt>
      <trkpt lat="48.51097" lon="7.19228">
        <ele>678</ele>
        <time>2021-02-21T11:50:30.166Z</time>
      </trkpt>
      <trkpt lat="48.51098" lon="7.19226">
        <ele>678</ele>
        <time>2021-02-21T11:50:31.166Z</time>
      </trkpt>
      <trkpt lat="48.51099" lon="7.19225">
        <ele>679</ele>
        <time>2021-02-21T11:50:32.165Z</time>
      </trkpt>
      <trkpt lat="48.511" lon="7.19224">
        <ele>679</ele>
        <time>2021-02-21T11:50:33.166Z</time>
      </trkpt>
      <trkpt lat="48.51101" lon="7.19222">
        <ele>679</ele>
        <time>2021-02-21T11:50:34.166Z</time>
      </trkpt>
      <trkpt lat="48.51102" lon="7.19221">
        <ele>679</ele>
        <time>2021-02-21T11:50:35.166Z</time>
      </trkpt>
      <trkpt lat="48.51103" lon="7.1922">
        <ele>680</ele>
        <time>2021-02-21T11:50:36.165Z</time>
      </trkpt>
      <trkpt lat="48.51105" lon="7.19219">
        <ele>680</ele>
        <time>2021-02-21T11:50:37.166Z</time>
      </trkpt>
      <trkpt lat="48.51106" lon="7.19218">
        <ele>681</ele>
        <time>2021-02-21T11:50:38.166Z</time>
      </trkpt>
      <trkpt lat="48.51107" lon="7.19217">
        <ele>682</ele>
        <time>2021-02-21T11:50:39.165Z</time>
      </trkpt>
      <trkpt lat="48.51108" lon="7.19216">
        <ele>682</ele>
        <time>2021-02-21T11:50:40.166Z</time>
      </trkpt>
      <trkpt lat="48.51108" lon="7.19215">
        <ele>682</ele>
        <time>2021-02-21T11:50:41.166Z</time>
      </trkpt>
      <trkpt lat="48.51109" lon="7.19214">
        <ele>683</ele>
        <time>2021-02-21T11:50:42.166Z</time>
      </trkpt>
      <trkpt lat="48.51111" lon="7.19213">
        <ele>683</ele>
        <time>2021-02-21T11:50:43.166Z</time>
      </trkpt>
      <trkpt lat="48.51112" lon="7.19213">
        <ele>684</ele>
        <time>2021-02-21T11:50:44.166Z</time>
      </trkpt>
      <trkpt lat="48.51113" lon="7.19212">
        <ele>684</ele>
        <time>2021-02-21T11:50:45.166Z</time>
      </trkpt>
      <trkpt lat="48.51114" lon="7.19211">
        <ele>684</ele>
        <time>2021-02-21T11:50:46.165Z</time>
      </trkpt>
      <trkpt lat="48.51115" lon="7.1921">
        <ele>685</ele>
        <time>2021-02-21T11:50:47.166Z</time>
      </trkpt>
      <trkpt lat="48.51117" lon="7.19209">
        <ele>685</ele>
        <time>2021-02-21T11:50:48.166Z</time>
      </trkpt>
      <trkpt lat="48.51118" lon="7.19209">
        <ele>685</ele>
        <time>2021-02-21T11:50:49.166Z</time>
      </trkpt>
      <trkpt lat="48.51119" lon="7.19209">
        <ele>686</ele>
        <time>2021-02-21T11:50:50.165Z</time>
      </trkpt>
      <trkpt lat="48.51121" lon="7.19209">
        <ele>686</ele>
        <time>2021-02-21T11:50:51.166Z</time>
      </trkpt>
      <trkpt lat="48.51122" lon="7.19208">
        <ele>686</ele>
        <time>2021-02-21T11:50:52.166Z</time>
      </trkpt>
      <trkpt lat="48.51123" lon="7.19208">
        <ele>686</ele>
        <time>2021-02-21T11:50:53.166Z</time>
      </trkpt>
      <trkpt lat="48.51124" lon="7.19207">
        <ele>686</ele>
        <time>2021-02-21T11:50:54.166Z</time>
      </trkpt>
      <trkpt lat="48.51125" lon="7.19205">
        <ele>686</ele>
        <time>2021-02-21T11:50:55.165Z</time>
      </trkpt>
      <trkpt lat="48.51126" lon="7.19204">
        <ele>687</ele>
        <time>2021-02-21T11:50:56.165Z</time>
      </trkpt>
      <trkpt lat="48.51127" lon="7.19204">
        <ele>687</ele>
        <time>2021-02-21T11:50:57.165Z</time>
      </trkpt>
      <trkpt lat="48.51128" lon="7.19204">
        <ele>687</ele>
        <time>2021-02-21T11:50:58.166Z</time>
      </trkpt>
      <trkpt lat="48.51129" lon="7.19204">
        <ele>687</ele>
        <time>2021-02-21T11:50:59.165Z</time>
      </trkpt>
      <trkpt lat="48.5113" lon="7.19205">
        <ele>688</ele>
        <time>2021-02-21T11:51:00.165Z</time>
      </trkpt>
      <trkpt lat="48.51131" lon="7.19206">
        <ele>688</ele>
        <time>2021-02-21T11:51:01.166Z</time>
      </trkpt>
      <trkpt lat="48.51131" lon="7.19207">
        <ele>689</ele>
        <time>2021-02-21T11:51:02.166Z</time>
      </trkpt>
      <trkpt lat="48.51132" lon="7.19207">
        <ele>689</ele>
        <time>2021-02-21T11:51:03.166Z</time>
      </trkpt>
      <trkpt lat="48.51134" lon="7.19208">
        <ele>689</ele>
        <time>2021-02-21T11:51:04.166Z</time>
      </trkpt>
      <trkpt lat="48.51135" lon="7.19208">
        <ele>689</ele>
        <time>2021-02-21T11:51:05.166Z</time>
      </trkpt>
      <trkpt lat="48.51138" lon="7.1921">
        <ele>690</ele>
        <time>2021-02-21T11:51:06.168Z</time>
      </trkpt>
      <trkpt lat="48.51139" lon="7.1921">
        <ele>691</ele>
        <time>2021-02-21T11:51:07.167Z</time>
      </trkpt>
      <trkpt lat="48.5114" lon="7.19211">
        <ele>691</ele>
        <time>2021-02-21T11:51:08.167Z</time>
      </trkpt>
      <trkpt lat="48.51141" lon="7.19212">
        <ele>692</ele>
        <time>2021-02-21T11:51:09.167Z</time>
      </trkpt>
      <trkpt lat="48.51142" lon="7.19212">
        <ele>692</ele>
        <time>2021-02-21T11:51:10.167Z</time>
      </trkpt>
      <trkpt lat="48.51142" lon="7.19213">
        <ele>693</ele>
        <time>2021-02-21T11:51:11.167Z</time>
      </trkpt>
      <trkpt lat="48.51143" lon="7.19213">
        <ele>694</ele>
        <time>2021-02-21T11:51:12.167Z</time>
      </trkpt>
      <trkpt lat="48.51144" lon="7.19214">
        <ele>694</ele>
        <time>2021-02-21T11:51:13.167Z</time>
      </trkpt>
      <trkpt lat="48.51145" lon="7.19215">
        <ele>695</ele>
        <time>2021-02-21T11:51:14.167Z</time>
      </trkpt>
      <trkpt lat="48.51146" lon="7.19216">
        <ele>695</ele>
        <time>2021-02-21T11:51:15.167Z</time>
      </trkpt>
      <trkpt lat="48.51147" lon="7.19217">
        <ele>696</ele>
        <time>2021-02-21T11:51:16.167Z</time>
      </trkpt>
      <trkpt lat="48.51148" lon="7.19218">
        <ele>696</ele>
        <time>2021-02-21T11:51:17.167Z</time>
      </trkpt>
      <trkpt lat="48.51149" lon="7.19219">
        <ele>697</ele>
        <time>2021-02-21T11:51:18.168Z</time>
      </trkpt>
      <trkpt lat="48.51151" lon="7.19219">
        <ele>697</ele>
        <time>2021-02-21T11:51:19.168Z</time>
      </trkpt>
      <trkpt lat="48.51151" lon="7.19219">
        <ele>697</ele>
        <time>2021-02-21T11:51:20.168Z</time>
      </trkpt>
      <trkpt lat="48.51152" lon="7.1922">
        <ele>697</ele>
        <time>2021-02-21T11:51:21.167Z</time>
      </trkpt>
      <trkpt lat="48.51153" lon="7.19221">
        <ele>697</ele>
        <time>2021-02-21T11:51:22.168Z</time>
      </trkpt>
      <trkpt lat="48.51154" lon="7.19222">
        <ele>697</ele>
        <time>2021-02-21T11:51:23.167Z</time>
      </trkpt>
      <trkpt lat="48.51155" lon="7.19222">
        <ele>696</ele>
        <time>2021-02-21T11:51:24.167Z</time>
      </trkpt>
      <trkpt lat="48.51155" lon="7.19223">
        <ele>696</ele>
        <time>2021-02-21T11:51:25.167Z</time>
      </trkpt>
      <trkpt lat="48.51156" lon="7.19224">
        <ele>695</ele>
        <time>2021-02-21T11:51:26.167Z</time>
      </trkpt>
      <trkpt lat="48.51158" lon="7.19225">
        <ele>695</ele>
        <time>2021-02-21T11:51:27.167Z</time>
      </trkpt>
      <trkpt lat="48.51159" lon="7.19226">
        <ele>695</ele>
        <time>2021-02-21T11:51:28.167Z</time>
      </trkpt>
      <trkpt lat="48.51161" lon="7.19228">
        <ele>695</ele>
        <time>2021-02-21T11:51:29.167Z</time>
      </trkpt>
      <trkpt lat="48.51163" lon="7.19229">
        <ele>695</ele>
        <time>2021-02-21T11:51:30.167Z</time>
      </trkpt>
      <trkpt lat="48.51165" lon="7.1923">
        <ele>696</ele>
        <time>2021-02-21T11:51:31.167Z</time>
      </trkpt>
      <trkpt lat="48.51165" lon="7.19231">
        <ele>696</ele>
        <time>2021-02-21T11:51:32.167Z</time>
      </trkpt>
      <trkpt lat="48.51166" lon="7.19233">
        <ele>696</ele>
        <time>2021-02-21T11:51:33.167Z</time>
      </trkpt>
      <trkpt lat="48.51167" lon="7.19234">
        <ele>696</ele>
        <time>2021-02-21T11:51:34.167Z</time>
      </trkpt>
      <trkpt lat="48.51168" lon="7.19235">
        <ele>696</ele>
        <time>2021-02-21T11:51:35.167Z</time>
      </trkpt>
      <trkpt lat="48.5117" lon="7.19236">
        <ele>696</ele>
        <time>2021-02-21T11:51:36.168Z</time>
      </trkpt>
      <trkpt lat="48.51171" lon="7.19237">
        <ele>696</ele>
        <time>2021-02-21T11:51:37.167Z</time>
      </trkpt>
      <trkpt lat="48.51172" lon="7.19238">
        <ele>697</ele>
        <time>2021-02-21T11:51:38.168Z</time>
      </trkpt>
      <trkpt lat="48.51174" lon="7.19239">
        <ele>698</ele>
        <time>2021-02-21T11:51:39.167Z</time>
      </trkpt>
      <trkpt lat="48.51174" lon="7.1924">
        <ele>699</ele>
        <time>2021-02-21T11:51:40.167Z</time>
      </trkpt>
      <trkpt lat="48.51175" lon="7.19241">
        <ele>700</ele>
        <time>2021-02-21T11:51:41.167Z</time>
      </trkpt>
      <trkpt lat="48.51176" lon="7.19243">
        <ele>700</ele>
        <time>2021-02-21T11:51:42.167Z</time>
      </trkpt>
      <trkpt lat="48.51177" lon="7.19244">
        <ele>701</ele>
        <time>2021-02-21T11:51:43.167Z</time>
      </trkpt>
      <trkpt lat="48.51178" lon="7.19245">
        <ele>701</ele>
        <time>2021-02-21T11:51:44.167Z</time>
      </trkpt>
      <trkpt lat="48.51179" lon="7.19245">
        <ele>701</ele>
        <time>2021-02-21T11:51:45.168Z</time>
      </trkpt>
      <trkpt lat="48.5118" lon="7.19246">
        <ele>701</ele>
        <time>2021-02-21T11:51:46.168Z</time>
      </trkpt>
      <trkpt lat="48.51181" lon="7.19247">
        <ele>702</ele>
        <time>2021-02-21T11:51:47.167Z</time>
      </trkpt>
      <trkpt lat="48.51183" lon="7.19246">
        <ele>702</ele>
        <time>2021-02-21T11:51:48.168Z</time>
      </trkpt>
      <trkpt lat="48.51184" lon="7.19246">
        <ele>702</ele>
        <time>2021-02-21T11:51:49.167Z</time>
      </trkpt>
      <trkpt lat="48.51185" lon="7.19245">
        <ele>701</ele>
        <time>2021-02-21T11:51:50.167Z</time>
      </trkpt>
      <trkpt lat="48.51187" lon="7.19245">
        <ele>701</ele>
        <time>2021-02-21T11:51:51.167Z</time>
      </trkpt>
      <trkpt lat="48.51188" lon="7.19246">
        <ele>701</ele>
        <time>2021-02-21T11:51:52.167Z</time>
      </trkpt>
      <trkpt lat="48.51189" lon="7.19248">
        <ele>700</ele>
        <time>2021-02-21T11:51:53.167Z</time>
      </trkpt>
      <trkpt lat="48.5119" lon="7.19249">
        <ele>700</ele>
        <time>2021-02-21T11:51:54.167Z</time>
      </trkpt>
      <trkpt lat="48.51191" lon="7.19251">
        <ele>700</ele>
        <time>2021-02-21T11:51:55.167Z</time>
      </trkpt>
      <trkpt lat="48.51192" lon="7.19252">
        <ele>699</ele>
        <time>2021-02-21T11:51:56.167Z</time>
      </trkpt>
      <trkpt lat="48.51194" lon="7.19252">
        <ele>699</ele>
        <time>2021-02-21T11:51:57.167Z</time>
      </trkpt>
      <trkpt lat="48.51195" lon="7.19253">
        <ele>699</ele>
        <time>2021-02-21T11:51:58.168Z</time>
      </trkpt>
      <trkpt lat="48.51195" lon="7.19253">
        <ele>699</ele>
        <time>2021-02-21T11:51:59.167Z</time>
      </trkpt>
      <trkpt lat="48.51196" lon="7.19253">
        <ele>700</ele>
        <time>2021-02-21T11:52:00.168Z</time>
      </trkpt>
      <trkpt lat="48.51197" lon="7.19253">
        <ele>700</ele>
        <time>2021-02-21T11:52:01.168Z</time>
      </trkpt>
      <trkpt lat="48.51199" lon="7.19254">
        <ele>700</ele>
        <time>2021-02-21T11:52:02.167Z</time>
      </trkpt>
      <trkpt lat="48.512" lon="7.19255">
        <ele>700</ele>
        <time>2021-02-21T11:52:03.167Z</time>
      </trkpt>
      <trkpt lat="48.51201" lon="7.19255">
        <ele>701</ele>
        <time>2021-02-21T11:52:04.167Z</time>
      </trkpt>
      <trkpt lat="48.51203" lon="7.19256">
        <ele>701</ele>
        <time>2021-02-21T11:52:05.167Z</time>
      </trkpt>
      <trkpt lat="48.51204" lon="7.19256">
        <ele>701</ele>
        <time>2021-02-21T11:52:06.167Z</time>
      </trkpt>
      <trkpt lat="48.51205" lon="7.19256">
        <ele>702</ele>
        <time>2021-02-21T11:52:07.168Z</time>
      </trkpt>
      <trkpt lat="48.51206" lon="7.19256">
        <ele>702</ele>
        <time>2021-02-21T11:52:08.168Z</time>
      </trkpt>
      <trkpt lat="48.51207" lon="7.19256">
        <ele>702</ele>
        <time>2021-02-21T11:52:09.167Z</time>
      </trkpt>
      <trkpt lat="48.51208" lon="7.19257">
        <ele>701</ele>
        <time>2021-02-21T11:52:10.168Z</time>
      </trkpt>
      <trkpt lat="48.51208" lon="7.19258">
        <ele>701</ele>
        <time>2021-02-21T11:52:11.167Z</time>
      </trkpt>
      <trkpt lat="48.5121" lon="7.19259">
        <ele>701</ele>
        <time>2021-02-21T11:52:12.167Z</time>
      </trkpt>
      <trkpt lat="48.51211" lon="7.19259">
        <ele>701</ele>
        <time>2021-02-21T11:52:13.167Z</time>
      </trkpt>
      <trkpt lat="48.51212" lon="7.1926">
        <ele>701</ele>
        <time>2021-02-21T11:52:14.168Z</time>
      </trkpt>
      <trkpt lat="48.51213" lon="7.19261">
        <ele>701</ele>
        <time>2021-02-21T11:52:15.168Z</time>
      </trkpt>
      <trkpt lat="48.51215" lon="7.19262">
        <ele>701</ele>
        <time>2021-02-21T11:52:16.168Z</time>
      </trkpt>
      <trkpt lat="48.51216" lon="7.19263">
        <ele>701</ele>
        <time>2021-02-21T11:52:17.167Z</time>
      </trkpt>
      <trkpt lat="48.51217" lon="7.19264">
        <ele>701</ele>
        <time>2021-02-21T11:52:18.167Z</time>
      </trkpt>
      <trkpt lat="48.51217" lon="7.19264">
        <ele>701</ele>
        <time>2021-02-21T11:52:19.168Z</time>
      </trkpt>
      <trkpt lat="48.51218" lon="7.19265">
        <ele>701</ele>
        <time>2021-02-21T11:52:20.167Z</time>
      </trkpt>
      <trkpt lat="48.51219" lon="7.19266">
        <ele>701</ele>
        <time>2021-02-21T11:52:21.167Z</time>
      </trkpt>
      <trkpt lat="48.5122" lon="7.19267">
        <ele>700</ele>
        <time>2021-02-21T11:52:22.167Z</time>
      </trkpt>
      <trkpt lat="48.51221" lon="7.19268">
        <ele>700</ele>
        <time>2021-02-21T11:52:23.167Z</time>
      </trkpt>
      <trkpt lat="48.51222" lon="7.1927">
        <ele>700</ele>
        <time>2021-02-21T11:52:24.167Z</time>
      </trkpt>
      <trkpt lat="48.51224" lon="7.19271">
        <ele>700</ele>
        <time>2021-02-21T11:52:25.167Z</time>
      </trkpt>
      <trkpt lat="48.51225" lon="7.19271">
        <ele>700</ele>
        <time>2021-02-21T11:52:26.168Z</time>
      </trkpt>
      <trkpt lat="48.51227" lon="7.19271">
        <ele>700</ele>
        <time>2021-02-21T11:52:27.168Z</time>
      </trkpt>
      <trkpt lat="48.51228" lon="7.19272">
        <ele>700</ele>
        <time>2021-02-21T11:52:28.168Z</time>
      </trkpt>
      <trkpt lat="48.51229" lon="7.19274">
        <ele>700</ele>
        <time>2021-02-21T11:52:29.167Z</time>
      </trkpt>
      <trkpt lat="48.5123" lon="7.19274">
        <ele>700</ele>
        <time>2021-02-21T11:52:30.167Z</time>
      </trkpt>
      <trkpt lat="48.51232" lon="7.19274">
        <ele>700</ele>
        <time>2021-02-21T11:52:31.168Z</time>
      </trkpt>
      <trkpt lat="48.51234" lon="7.19274">
        <ele>699</ele>
        <time>2021-02-21T11:52:32.168Z</time>
      </trkpt>
      <trkpt lat="48.51235" lon="7.19275">
        <ele>699</ele>
        <time>2021-02-21T11:52:33.168Z</time>
      </trkpt>
      <trkpt lat="48.51236" lon="7.19277">
        <ele>699</ele>
        <time>2021-02-21T11:52:34.167Z</time>
      </trkpt>
      <trkpt lat="48.51237" lon="7.19278">
        <ele>699</ele>
        <time>2021-02-21T11:52:35.167Z</time>
      </trkpt>
      <trkpt lat="48.51238" lon="7.1928">
        <ele>700</ele>
        <time>2021-02-21T11:52:36.167Z</time>
      </trkpt>
      <trkpt lat="48.5124" lon="7.19281">
        <ele>700</ele>
        <time>2021-02-21T11:52:37.167Z</time>
      </trkpt>
      <trkpt lat="48.51241" lon="7.19282">
        <ele>700</ele>
        <time>2021-02-21T11:52:38.167Z</time>
      </trkpt>
      <trkpt lat="48.51242" lon="7.19283">
        <ele>700</ele>
        <time>2021-02-21T11:52:39.168Z</time>
      </trkpt>
      <trkpt lat="48.51243" lon="7.19283">
        <ele>700</ele>
        <time>2021-02-21T11:52:40.167Z</time>
      </trkpt>
      <trkpt lat="48.51244" lon="7.19283">
        <ele>700</ele>
        <time>2021-02-21T11:52:41.168Z</time>
      </trkpt>
      <trkpt lat="48.51244" lon="7.19284">
        <ele>700</ele>
        <time>2021-02-21T11:52:42.167Z</time>
      </trkpt>
      <trkpt lat="48.51246" lon="7.19285">
        <ele>700</ele>
        <time>2021-02-21T11:52:43.167Z</time>
      </trkpt>
      <trkpt lat="48.51246" lon="7.19285">
        <ele>700</ele>
        <time>2021-02-21T11:52:44.168Z</time>
      </trkpt>
      <trkpt lat="48.51247" lon="7.19285">
        <ele>700</ele>
        <time>2021-02-21T11:52:45.168Z</time>
      </trkpt>
      <trkpt lat="48.51248" lon="7.19286">
        <ele>699</ele>
        <time>2021-02-21T11:52:46.168Z</time>
      </trkpt>
      <trkpt lat="48.51248" lon="7.19287">
        <ele>699</ele>
        <time>2021-02-21T11:52:47.167Z</time>
      </trkpt>
      <trkpt lat="48.51249" lon="7.19287">
        <ele>699</ele>
        <time>2021-02-21T11:52:48.167Z</time>
      </trkpt>
      <trkpt lat="48.5125" lon="7.19288">
        <ele>699</ele>
        <time>2021-02-21T11:52:49.168Z</time>
      </trkpt>
      <trkpt lat="48.51251" lon="7.19289">
        <ele>700</ele>
        <time>2021-02-21T11:52:50.167Z</time>
      </trkpt>
      <trkpt lat="48.51252" lon="7.1929">
        <ele>700</ele>
        <time>2021-02-21T11:52:51.167Z</time>
      </trkpt>
      <trkpt lat="48.51253" lon="7.19292">
        <ele>700</ele>
        <time>2021-02-21T11:52:52.167Z</time>
      </trkpt>
      <trkpt lat="48.51254" lon="7.19293">
        <ele>700</ele>
        <time>2021-02-21T11:52:53.167Z</time>
      </trkpt>
      <trkpt lat="48.51255" lon="7.19294">
        <ele>699</ele>
        <time>2021-02-21T11:52:54.167Z</time>
      </trkpt>
      <trkpt lat="48.51256" lon="7.19295">
        <ele>699</ele>
        <time>2021-02-21T11:52:55.167Z</time>
      </trkpt>
      <trkpt lat="48.51257" lon="7.19295">
        <ele>699</ele>
        <time>2021-02-21T11:52:56.168Z</time>
      </trkpt>
      <trkpt lat="48.51258" lon="7.19296">
        <ele>699</ele>
        <time>2021-02-21T11:52:57.167Z</time>
      </trkpt>
      <trkpt lat="48.51259" lon="7.19296">
        <ele>700</ele>
        <time>2021-02-21T11:52:58.167Z</time>
      </trkpt>
      <trkpt lat="48.51261" lon="7.19298">
        <ele>700</ele>
        <time>2021-02-21T11:52:59.167Z</time>
      </trkpt>
      <trkpt lat="48.51262" lon="7.19299">
        <ele>700</ele>
        <time>2021-02-21T11:53:00.167Z</time>
      </trkpt>
      <trkpt lat="48.51263" lon="7.193">
        <ele>700</ele>
        <time>2021-02-21T11:53:01.167Z</time>
      </trkpt>
      <trkpt lat="48.51264" lon="7.19301">
        <ele>699</ele>
        <time>2021-02-21T11:53:02.168Z</time>
      </trkpt>
      <trkpt lat="48.51265" lon="7.19301">
        <ele>699</ele>
        <time>2021-02-21T11:53:03.167Z</time>
      </trkpt>
      <trkpt lat="48.51266" lon="7.19301">
        <ele>699</ele>
        <time>2021-02-21T11:53:04.168Z</time>
      </trkpt>
      <trkpt lat="48.51268" lon="7.19302">
        <ele>699</ele>
        <time>2021-02-21T11:53:05.168Z</time>
      </trkpt>
      <trkpt lat="48.51268" lon="7.19303">
        <ele>699</ele>
        <time>2021-02-21T11:53:06.168Z</time>
      </trkpt>
      <trkpt lat="48.5127" lon="7.19303">
        <ele>699</ele>
        <time>2021-02-21T11:53:07.168Z</time>
      </trkpt>
      <trkpt lat="48.51271" lon="7.19304">
        <ele>699</ele>
        <time>2021-02-21T11:53:08.167Z</time>
      </trkpt>
      <trkpt lat="48.51273" lon="7.19305">
        <ele>700</ele>
        <time>2021-02-21T11:53:09.168Z</time>
      </trkpt>
      <trkpt lat="48.51274" lon="7.19307">
        <ele>700</ele>
        <time>2021-02-21T11:53:10.167Z</time>
      </trkpt>
      <trkpt lat="48.51275" lon="7.19309">
        <ele>701</ele>
        <time>2021-02-21T11:53:11.167Z</time>
      </trkpt>
      <trkpt lat="48.51278" lon="7.19311">
        <ele>701</ele>
        <time>2021-02-21T11:53:12.167Z</time>
      </trkpt>
      <trkpt lat="48.5128" lon="7.19313">
        <ele>701</ele>
        <time>2021-02-21T11:53:13.168Z</time>
      </trkpt>
      <trkpt lat="48.51281" lon="7.19315">
        <ele>701</ele>
        <time>2021-02-21T11:53:14.167Z</time>
      </trkpt>
      <trkpt lat="48.51282" lon="7.19316">
        <ele>701</ele>
        <time>2021-02-21T11:53:15.168Z</time>
      </trkpt>
      <trkpt lat="48.51283" lon="7.19317">
        <ele>701</ele>
        <time>2021-02-21T11:53:16.167Z</time>
      </trkpt>
      <trkpt lat="48.51284" lon="7.19317">
        <ele>701</ele>
        <time>2021-02-21T11:53:17.168Z</time>
      </trkpt>
      <trkpt lat="48.51285" lon="7.19317">
        <ele>701</ele>
        <time>2021-02-21T11:53:18.167Z</time>
      </trkpt>
      <trkpt lat="48.51286" lon="7.19318">
        <ele>700</ele>
        <time>2021-02-21T11:53:19.167Z</time>
      </trkpt>
      <trkpt lat="48.51287" lon="7.1932">
        <ele>700</ele>
        <time>2021-02-21T11:53:20.167Z</time>
      </trkpt>
      <trkpt lat="48.51288" lon="7.19321">
        <ele>700</ele>
        <time>2021-02-21T11:53:21.167Z</time>
      </trkpt>
      <trkpt lat="48.51288" lon="7.19322">
        <ele>700</ele>
        <time>2021-02-21T11:53:22.167Z</time>
      </trkpt>
      <trkpt lat="48.5129" lon="7.19323">
        <ele>700</ele>
        <time>2021-02-21T11:53:23.167Z</time>
      </trkpt>
      <trkpt lat="48.51291" lon="7.19324">
        <ele>701</ele>
        <time>2021-02-21T11:53:24.167Z</time>
      </trkpt>
      <trkpt lat="48.51293" lon="7.19324">
        <ele>701</ele>
        <time>2021-02-21T11:53:25.167Z</time>
      </trkpt>
      <trkpt lat="48.51294" lon="7.19325">
        <ele>702</ele>
        <time>2021-02-21T11:53:26.168Z</time>
      </trkpt>
      <trkpt lat="48.51295" lon="7.19326">
        <ele>702</ele>
        <time>2021-02-21T11:53:27.167Z</time>
      </trkpt>
      <trkpt lat="48.51296" lon="7.19327">
        <ele>703</ele>
        <time>2021-02-21T11:53:28.167Z</time>
      </trkpt>
      <trkpt lat="48.51297" lon="7.19328">
        <ele>704</ele>
        <time>2021-02-21T11:53:29.167Z</time>
      </trkpt>
      <trkpt lat="48.51299" lon="7.19329">
        <ele>704</ele>
        <time>2021-02-21T11:53:30.167Z</time>
      </trkpt>
      <trkpt lat="48.51301" lon="7.19329">
        <ele>705</ele>
        <time>2021-02-21T11:53:31.168Z</time>
      </trkpt>
      <trkpt lat="48.51302" lon="7.19329">
        <ele>705</ele>
        <time>2021-02-21T11:53:32.168Z</time>
      </trkpt>
      <trkpt lat="48.51302" lon="7.19329">
        <ele>705</ele>
        <time>2021-02-21T11:53:33.167Z</time>
      </trkpt>
      <trkpt lat="48.51303" lon="7.19329">
        <ele>704</ele>
        <time>2021-02-21T11:53:34.168Z</time>
      </trkpt>
      <trkpt lat="48.51305" lon="7.19331">
        <ele>704</ele>
        <time>2021-02-21T11:53:35.167Z</time>
      </trkpt>
      <trkpt lat="48.51306" lon="7.19333">
        <ele>704</ele>
        <time>2021-02-21T11:53:36.167Z</time>
      </trkpt>
      <trkpt lat="48.51307" lon="7.19334">
        <ele>704</ele>
        <time>2021-02-21T11:53:37.167Z</time>
      </trkpt>
      <trkpt lat="48.51308" lon="7.19335">
        <ele>704</ele>
        <time>2021-02-21T11:53:38.167Z</time>
      </trkpt>
      <trkpt lat="48.51309" lon="7.19336">
        <ele>704</ele>
        <time>2021-02-21T11:53:39.167Z</time>
      </trkpt>
      <trkpt lat="48.5131" lon="7.19337">
        <ele>704</ele>
        <time>2021-02-21T11:53:40.168Z</time>
      </trkpt>
      <trkpt lat="48.51311" lon="7.19337">
        <ele>704</ele>
        <time>2021-02-21T11:53:41.167Z</time>
      </trkpt>
      <trkpt lat="48.51313" lon="7.19339">
        <ele>704</ele>
        <time>2021-02-21T11:53:42.167Z</time>
      </trkpt>
      <trkpt lat="48.51314" lon="7.1934">
        <ele>704</ele>
        <time>2021-02-21T11:53:43.167Z</time>
      </trkpt>
      <trkpt lat="48.51315" lon="7.1934">
        <ele>704</ele>
        <time>2021-02-21T11:53:44.168Z</time>
      </trkpt>
      <trkpt lat="48.51316" lon="7.19342">
        <ele>704</ele>
        <time>2021-02-21T11:53:45.167Z</time>
      </trkpt>
      <trkpt lat="48.51317" lon="7.19343">
        <ele>704</ele>
        <time>2021-02-21T11:53:46.167Z</time>
      </trkpt>
      <trkpt lat="48.51318" lon="7.19344">
        <ele>704</ele>
        <time>2021-02-21T11:53:47.168Z</time>
      </trkpt>
      <trkpt lat="48.51319" lon="7.19345">
        <ele>705</ele>
        <time>2021-02-21T11:53:48.167Z</time>
      </trkpt>
      <trkpt lat="48.5132" lon="7.19346">
        <ele>705</ele>
        <time>2021-02-21T11:53:49.167Z</time>
      </trkpt>
      <trkpt lat="48.51321" lon="7.19346">
        <ele>705</ele>
        <time>2021-02-21T11:53:50.168Z</time>
      </trkpt>
      <trkpt lat="48.51323" lon="7.19347">
        <ele>705</ele>
        <time>2021-02-21T11:53:51.167Z</time>
      </trkpt>
      <trkpt lat="48.51324" lon="7.19347">
        <ele>704</ele>
        <time>2021-02-21T11:53:52.167Z</time>
      </trkpt>
      <trkpt lat="48.51326" lon="7.19348">
        <ele>704</ele>
        <time>2021-02-21T11:53:53.168Z</time>
      </trkpt>
      <trkpt lat="48.51327" lon="7.1935">
        <ele>704</ele>
        <time>2021-02-21T11:53:54.167Z</time>
      </trkpt>
      <trkpt lat="48.51329" lon="7.19351">
        <ele>704</ele>
        <time>2021-02-21T11:53:55.167Z</time>
      </trkpt>
      <trkpt lat="48.51331" lon="7.19353">
        <ele>704</ele>
        <time>2021-02-21T11:53:56.167Z</time>
      </trkpt>
      <trkpt lat="48.51332" lon="7.19354">
        <ele>704</ele>
        <time>2021-02-21T11:53:57.167Z</time>
      </trkpt>
      <trkpt lat="48.51334" lon="7.19355">
        <ele>704</ele>
        <time>2021-02-21T11:53:58.167Z</time>
      </trkpt>
      <trkpt lat="48.51335" lon="7.19356">
        <ele>704</ele>
        <time>2021-02-21T11:53:59.167Z</time>
      </trkpt>
      <trkpt lat="48.51335" lon="7.19358">
        <ele>704</ele>
        <time>2021-02-21T11:54:00.168Z</time>
      </trkpt>
      <trkpt lat="48.51336" lon="7.1936">
        <ele>703</ele>
        <time>2021-02-21T11:54:01.167Z</time>
      </trkpt>
      <trkpt lat="48.51338" lon="7.19361">
        <ele>704</ele>
        <time>2021-02-21T11:54:02.168Z</time>
      </trkpt>
      <trkpt lat="48.51339" lon="7.19362">
        <ele>704</ele>
        <time>2021-02-21T11:54:03.168Z</time>
      </trkpt>
      <trkpt lat="48.5134" lon="7.19363">
        <ele>704</ele>
        <time>2021-02-21T11:54:04.167Z</time>
      </trkpt>
      <trkpt lat="48.51341" lon="7.19365">
        <ele>704</ele>
        <time>2021-02-21T11:54:05.168Z</time>
      </trkpt>
      <trkpt lat="48.51342" lon="7.19366">
        <ele>704</ele>
        <time>2021-02-21T11:54:06.167Z</time>
      </trkpt>
      <trkpt lat="48.51343" lon="7.19368">
        <ele>704</ele>
        <time>2021-02-21T11:54:07.168Z</time>
      </trkpt>
      <trkpt lat="48.51344" lon="7.19369">
        <ele>704</ele>
        <time>2021-02-21T11:54:08.167Z</time>
      </trkpt>
      <trkpt lat="48.51346" lon="7.19371">
        <ele>704</ele>
        <time>2021-02-21T11:54:09.168Z</time>
      </trkpt>
      <trkpt lat="48.51346" lon="7.19373">
        <ele>704</ele>
        <time>2021-02-21T11:54:10.167Z</time>
      </trkpt>
      <trkpt lat="48.51347" lon="7.19375">
        <ele>704</ele>
        <time>2021-02-21T11:54:11.168Z</time>
      </trkpt>
      <trkpt lat="48.51347" lon="7.19376">
        <ele>704</ele>
        <time>2021-02-21T11:54:12.168Z</time>
      </trkpt>
      <trkpt lat="48.51347" lon="7.19377">
        <ele>704</ele>
        <time>2021-02-21T11:54:13.167Z</time>
      </trkpt>
      <trkpt lat="48.51348" lon="7.19379">
        <ele>703</ele>
        <time>2021-02-21T11:54:14.167Z</time>
      </trkpt>
      <trkpt lat="48.51349" lon="7.1938">
        <ele>703</ele>
        <time>2021-02-21T11:54:15.167Z</time>
      </trkpt>
      <trkpt lat="48.51349" lon="7.19381">
        <ele>703</ele>
        <time>2021-02-21T11:54:16.167Z</time>
      </trkpt>
      <trkpt lat="48.5135" lon="7.19382">
        <ele>703</ele>
        <time>2021-02-21T11:54:17.167Z</time>
      </trkpt>
      <trkpt lat="48.51352" lon="7.19384">
        <ele>703</ele>
        <time>2021-02-21T11:54:18.168Z</time>
      </trkpt>
      <trkpt lat="48.51353" lon="7.19384">
        <ele>704</ele>
        <time>2021-02-21T11:54:19.167Z</time>
      </trkpt>
      <trkpt lat="48.51353" lon="7.19384">
        <ele>704</ele>
        <time>2021-02-21T11:54:20.168Z</time>
      </trkpt>
      <trkpt lat="48.51354" lon="7.19387">
        <ele>704</ele>
        <time>2021-02-21T11:54:21.167Z</time>
      </trkpt>
      <trkpt lat="48.51355" lon="7.19389">
        <ele>705</ele>
        <time>2021-02-21T11:54:22.167Z</time>
      </trkpt>
      <trkpt lat="48.51356" lon="7.19391">
        <ele>705</ele>
        <time>2021-02-21T11:54:23.167Z</time>
      </trkpt>
      <trkpt lat="48.51356" lon="7.19393">
        <ele>705</ele>
        <time>2021-02-21T11:54:24.167Z</time>
      </trkpt>
      <trkpt lat="48.51357" lon="7.19394">
        <ele>706</ele>
        <time>2021-02-21T11:54:25.168Z</time>
      </trkpt>
      <trkpt lat="48.51358" lon="7.19395">
        <ele>706</ele>
        <time>2021-02-21T11:54:26.167Z</time>
      </trkpt>
      <trkpt lat="48.5136" lon="7.19395">
        <ele>707</ele>
        <time>2021-02-21T11:54:27.168Z</time>
      </trkpt>
      <trkpt lat="48.51361" lon="7.19397">
        <ele>707</ele>
        <time>2021-02-21T11:54:28.167Z</time>
      </trkpt>
      <trkpt lat="48.51362" lon="7.19398">
        <ele>707</ele>
        <time>2021-02-21T11:54:29.167Z</time>
      </trkpt>
      <trkpt lat="48.51363" lon="7.19399">
        <ele>708</ele>
        <time>2021-02-21T11:54:30.167Z</time>
      </trkpt>
      <trkpt lat="48.51364" lon="7.19399">
        <ele>708</ele>
        <time>2021-02-21T11:54:31.167Z</time>
      </trkpt>
      <trkpt lat="48.51365" lon="7.194">
        <ele>709</ele>
        <time>2021-02-21T11:54:32.168Z</time>
      </trkpt>
      <trkpt lat="48.51366" lon="7.194">
        <ele>709</ele>
        <time>2021-02-21T11:54:33.167Z</time>
      </trkpt>
      <trkpt lat="48.51367" lon="7.19401">
        <ele>710</ele>
        <time>2021-02-21T11:54:34.167Z</time>
      </trkpt>
      <trkpt lat="48.51367" lon="7.19403">
        <ele>710</ele>
        <time>2021-02-21T11:54:35.168Z</time>
      </trkpt>
      <trkpt lat="48.51368" lon="7.19404">
        <ele>710</ele>
        <time>2021-02-21T11:54:36.167Z</time>
      </trkpt>
      <trkpt lat="48.51369" lon="7.19405">
        <ele>709</ele>
        <time>2021-02-21T11:54:37.168Z</time>
      </trkpt>
      <trkpt lat="48.5137" lon="7.19406">
        <ele>709</ele>
        <time>2021-02-21T11:54:38.167Z</time>
      </trkpt>
      <trkpt lat="48.51371" lon="7.19407">
        <ele>709</ele>
        <time>2021-02-21T11:54:39.167Z</time>
      </trkpt>
      <trkpt lat="48.51372" lon="7.19407">
        <ele>709</ele>
        <time>2021-02-21T11:54:40.167Z</time>
      </trkpt>
      <trkpt lat="48.51374" lon="7.19409">
        <ele>709</ele>
        <time>2021-02-21T11:54:41.168Z</time>
      </trkpt>
      <trkpt lat="48.51374" lon="7.19409">
        <ele>710</ele>
        <time>2021-02-21T11:54:42.168Z</time>
      </trkpt>
      <trkpt lat="48.51376" lon="7.1941">
        <ele>710</ele>
        <time>2021-02-21T11:54:43.167Z</time>
      </trkpt>
      <trkpt lat="48.51377" lon="7.19411">
        <ele>710</ele>
        <time>2021-02-21T11:54:44.167Z</time>
      </trkpt>
      <trkpt lat="48.51377" lon="7.19412">
        <ele>710</ele>
        <time>2021-02-21T11:54:45.168Z</time>
      </trkpt>
      <trkpt lat="48.51379" lon="7.19412">
        <ele>710</ele>
        <time>2021-02-21T11:54:46.167Z</time>
      </trkpt>
      <trkpt lat="48.5138" lon="7.19412">
        <ele>710</ele>
        <time>2021-02-21T11:54:47.167Z</time>
      </trkpt>
      <trkpt lat="48.51381" lon="7.19413">
        <ele>710</ele>
        <time>2021-02-21T11:54:48.168Z</time>
      </trkpt>
      <trkpt lat="48.51383" lon="7.19415">
        <ele>710</ele>
        <time>2021-02-21T11:54:49.167Z</time>
      </trkpt>
      <trkpt lat="48.51385" lon="7.19416">
        <ele>710</ele>
        <time>2021-02-21T11:54:50.167Z</time>
      </trkpt>
      <trkpt lat="48.51385" lon="7.19418">
        <ele>710</ele>
        <time>2021-02-21T11:54:51.167Z</time>
      </trkpt>
      <trkpt lat="48.51386" lon="7.19419">
        <ele>710</ele>
        <time>2021-02-21T11:54:52.167Z</time>
      </trkpt>
      <trkpt lat="48.51387" lon="7.1942">
        <ele>710</ele>
        <time>2021-02-21T11:54:53.167Z</time>
      </trkpt>
      <trkpt lat="48.51388" lon="7.1942">
        <ele>710</ele>
        <time>2021-02-21T11:54:54.168Z</time>
      </trkpt>
      <trkpt lat="48.51389" lon="7.19421">
        <ele>710</ele>
        <time>2021-02-21T11:54:55.167Z</time>
      </trkpt>
      <trkpt lat="48.5139" lon="7.19422">
        <ele>710</ele>
        <time>2021-02-21T11:54:56.168Z</time>
      </trkpt>
      <trkpt lat="48.51391" lon="7.19423">
        <ele>710</ele>
        <time>2021-02-21T11:54:57.167Z</time>
      </trkpt>
      <trkpt lat="48.51392" lon="7.19425">
        <ele>710</ele>
        <time>2021-02-21T11:54:58.167Z</time>
      </trkpt>
      <trkpt lat="48.51393" lon="7.19426">
        <ele>710</ele>
        <time>2021-02-21T11:54:59.167Z</time>
      </trkpt>
      <trkpt lat="48.51394" lon="7.19428">
        <ele>710</ele>
        <time>2021-02-21T11:55:00.168Z</time>
      </trkpt>
      <trkpt lat="48.51395" lon="7.1943">
        <ele>710</ele>
        <time>2021-02-21T11:55:01.167Z</time>
      </trkpt>
      <trkpt lat="48.51395" lon="7.19431">
        <ele>710</ele>
        <time>2021-02-21T11:55:02.167Z</time>
      </trkpt>
      <trkpt lat="48.51396" lon="7.19432">
        <ele>710</ele>
        <time>2021-02-21T11:55:03.167Z</time>
      </trkpt>
      <trkpt lat="48.51397" lon="7.19433">
        <ele>710</ele>
        <time>2021-02-21T11:55:04.168Z</time>
      </trkpt>
      <trkpt lat="48.51398" lon="7.19435">
        <ele>709</ele>
        <time>2021-02-21T11:55:05.167Z</time>
      </trkpt>
      <trkpt lat="48.51398" lon="7.19436">
        <ele>709</ele>
        <time>2021-02-21T11:55:06.167Z</time>
      </trkpt>
      <trkpt lat="48.51399" lon="7.19438">
        <ele>709</ele>
        <time>2021-02-21T11:55:07.167Z</time>
      </trkpt>
      <trkpt lat="48.51399" lon="7.19438">
        <ele>709</ele>
        <time>2021-02-21T11:55:08.168Z</time>
      </trkpt>
      <trkpt lat="48.51401" lon="7.1944">
        <ele>709</ele>
        <time>2021-02-21T11:55:09.167Z</time>
      </trkpt>
      <trkpt lat="48.51403" lon="7.19441">
        <ele>708</ele>
        <time>2021-02-21T11:55:10.167Z</time>
      </trkpt>
      <trkpt lat="48.51403" lon="7.19441">
        <ele>708</ele>
        <time>2021-02-21T11:55:11.167Z</time>
      </trkpt>
      <trkpt lat="48.51404" lon="7.19443">
        <ele>708</ele>
        <time>2021-02-21T11:55:12.168Z</time>
      </trkpt>
      <trkpt lat="48.51405" lon="7.19444">
        <ele>708</ele>
        <time>2021-02-21T11:55:13.167Z</time>
      </trkpt>
      <trkpt lat="48.51406" lon="7.19445">
        <ele>708</ele>
        <time>2021-02-21T11:55:14.167Z</time>
      </trkpt>
      <trkpt lat="48.51406" lon="7.19447">
        <ele>707</ele>
        <time>2021-02-21T11:55:15.167Z</time>
      </trkpt>
      <trkpt lat="48.51407" lon="7.19448">
        <ele>707</ele>
        <time>2021-02-21T11:55:16.167Z</time>
      </trkpt>
      <trkpt lat="48.51408" lon="7.1945">
        <ele>707</ele>
        <time>2021-02-21T11:55:17.167Z</time>
      </trkpt>
      <trkpt lat="48.51409" lon="7.19451">
        <ele>707</ele>
        <time>2021-02-21T11:55:18.167Z</time>
      </trkpt>
      <trkpt lat="48.51409" lon="7.19451">
        <ele>707</ele>
        <time>2021-02-21T11:55:19.168Z</time>
      </trkpt>
      <trkpt lat="48.51412" lon="7.19453">
        <ele>707</ele>
        <time>2021-02-21T11:55:20.167Z</time>
      </trkpt>
      <trkpt lat="48.51413" lon="7.19453">
        <ele>707</ele>
        <time>2021-02-21T11:55:21.168Z</time>
      </trkpt>
      <trkpt lat="48.51414" lon="7.19454">
        <ele>707</ele>
        <time>2021-02-21T11:55:22.167Z</time>
      </trkpt>
      <trkpt lat="48.51415" lon="7.19454">
        <ele>708</ele>
        <time>2021-02-21T11:55:23.168Z</time>
      </trkpt>
      <trkpt lat="48.51416" lon="7.19455">
        <ele>708</ele>
        <time>2021-02-21T11:55:24.167Z</time>
      </trkpt>
      <trkpt lat="48.51417" lon="7.19455">
        <ele>708</ele>
        <time>2021-02-21T11:55:25.168Z</time>
      </trkpt>
      <trkpt lat="48.51418" lon="7.19455">
        <ele>709</ele>
        <time>2021-02-21T11:55:26.168Z</time>
      </trkpt>
      <trkpt lat="48.51418" lon="7.19455">
        <ele>709</ele>
        <time>2021-02-21T11:55:27.167Z</time>
      </trkpt>
      <trkpt lat="48.51419" lon="7.19456">
        <ele>709</ele>
        <time>2021-02-21T11:55:28.167Z</time>
      </trkpt>
      <trkpt lat="48.5142" lon="7.19457">
        <ele>710</ele>
        <time>2021-02-21T11:55:29.168Z</time>
      </trkpt>
      <trkpt lat="48.51421" lon="7.19459">
        <ele>710</ele>
        <time>2021-02-21T11:55:30.167Z</time>
      </trkpt>
      <trkpt lat="48.51422" lon="7.19461">
        <ele>711</ele>
        <time>2021-02-21T11:55:31.168Z</time>
      </trkpt>
      <trkpt lat="48.51423" lon="7.19462">
        <ele>711</ele>
        <time>2021-02-21T11:55:32.167Z</time>
      </trkpt>
      <trkpt lat="48.51424" lon="7.19463">
        <ele>711</ele>
        <time>2021-02-21T11:55:33.167Z</time>
      </trkpt>
      <trkpt lat="48.51424" lon="7.19464">
        <ele>711</ele>
        <time>2021-02-21T11:55:34.167Z</time>
      </trkpt>
      <trkpt lat="48.51425" lon="7.19465">
        <ele>711</ele>
        <time>2021-02-21T11:55:35.167Z</time>
      </trkpt>
      <trkpt lat="48.51426" lon="7.19466">
        <ele>712</ele>
        <time>2021-02-21T11:55:36.167Z</time>
      </trkpt>
      <trkpt lat="48.51427" lon="7.19468">
        <ele>712</ele>
        <time>2021-02-21T11:55:37.167Z</time>
      </trkpt>
      <trkpt lat="48.51427" lon="7.19469">
        <ele>712</ele>
        <time>2021-02-21T11:55:38.167Z</time>
      </trkpt>
      <trkpt lat="48.51428" lon="7.1947">
        <ele>712</ele>
        <time>2021-02-21T11:55:39.168Z</time>
      </trkpt>
      <trkpt lat="48.51429" lon="7.1947">
        <ele>712</ele>
        <time>2021-02-21T11:55:40.167Z</time>
      </trkpt>
      <trkpt lat="48.5143" lon="7.1947">
        <ele>712</ele>
        <time>2021-02-21T11:55:41.167Z</time>
      </trkpt>
      <trkpt lat="48.51432" lon="7.1947">
        <ele>713</ele>
        <time>2021-02-21T11:55:42.168Z</time>
      </trkpt>
      <trkpt lat="48.51433" lon="7.19471">
        <ele>713</ele>
        <time>2021-02-21T11:55:43.168Z</time>
      </trkpt>
      <trkpt lat="48.51434" lon="7.19473">
        <ele>713</ele>
        <time>2021-02-21T11:55:44.167Z</time>
      </trkpt>
      <trkpt lat="48.51434" lon="7.19474">
        <ele>713</ele>
        <time>2021-02-21T11:55:45.168Z</time>
      </trkpt>
      <trkpt lat="48.51435" lon="7.19475">
        <ele>714</ele>
        <time>2021-02-21T11:55:46.168Z</time>
      </trkpt>
      <trkpt lat="48.51436" lon="7.19477">
        <ele>714</ele>
        <time>2021-02-21T11:55:47.167Z</time>
      </trkpt>
      <trkpt lat="48.51437" lon="7.19479">
        <ele>714</ele>
        <time>2021-02-21T11:55:48.167Z</time>
      </trkpt>
      <trkpt lat="48.51438" lon="7.19481">
        <ele>714</ele>
        <time>2021-02-21T11:55:49.167Z</time>
      </trkpt>
      <trkpt lat="48.51439" lon="7.19482">
        <ele>714</ele>
        <time>2021-02-21T11:55:50.167Z</time>
      </trkpt>
      <trkpt lat="48.51439" lon="7.19485">
        <ele>714</ele>
        <time>2021-02-21T11:55:51.167Z</time>
      </trkpt>
      <trkpt lat="48.51439" lon="7.19487">
        <ele>714</ele>
        <time>2021-02-21T11:55:52.167Z</time>
      </trkpt>
      <trkpt lat="48.51441" lon="7.19488">
        <ele>714</ele>
        <time>2021-02-21T11:55:53.167Z</time>
      </trkpt>
      <trkpt lat="48.51441" lon="7.19489">
        <ele>714</ele>
        <time>2021-02-21T11:55:54.167Z</time>
      </trkpt>
      <trkpt lat="48.51442" lon="7.19489">
        <ele>715</ele>
        <time>2021-02-21T11:55:55.168Z</time>
      </trkpt>
      <trkpt lat="48.51444" lon="7.19489">
        <ele>715</ele>
        <time>2021-02-21T11:55:56.168Z</time>
      </trkpt>
      <trkpt lat="48.51445" lon="7.19489">
        <ele>715</ele>
        <time>2021-02-21T11:55:57.167Z</time>
      </trkpt>
      <trkpt lat="48.51446" lon="7.1949">
        <ele>716</ele>
        <time>2021-02-21T11:55:58.167Z</time>
      </trkpt>
      <trkpt lat="48.51447" lon="7.19492">
        <ele>716</ele>
        <time>2021-02-21T11:55:59.167Z</time>
      </trkpt>
      <trkpt lat="48.51447" lon="7.19493">
        <ele>716</ele>
        <time>2021-02-21T11:56:00.168Z</time>
      </trkpt>
      <trkpt lat="48.51448" lon="7.19495">
        <ele>717</ele>
        <time>2021-02-21T11:56:01.167Z</time>
      </trkpt>
      <trkpt lat="48.5145" lon="7.19496">
        <ele>717</ele>
        <time>2021-02-21T11:56:02.167Z</time>
      </trkpt>
      <trkpt lat="48.51451" lon="7.19498">
        <ele>718</ele>
        <time>2021-02-21T11:56:03.167Z</time>
      </trkpt>
      <trkpt lat="48.51451" lon="7.19498">
        <ele>718</ele>
        <time>2021-02-21T11:56:04.167Z</time>
      </trkpt>
      <trkpt lat="48.51452" lon="7.195">
        <ele>718</ele>
        <time>2021-02-21T11:56:05.167Z</time>
      </trkpt>
      <trkpt lat="48.51453" lon="7.195">
        <ele>718</ele>
        <time>2021-02-21T11:56:06.167Z</time>
      </trkpt>
      <trkpt lat="48.51454" lon="7.195">
        <ele>718</ele>
        <time>2021-02-21T11:56:07.168Z</time>
      </trkpt>
      <trkpt lat="48.51455" lon="7.195">
        <ele>719</ele>
        <time>2021-02-21T11:56:08.168Z</time>
      </trkpt>
      <trkpt lat="48.51456" lon="7.19501">
        <ele>719</ele>
        <time>2021-02-21T11:56:09.167Z</time>
      </trkpt>
      <trkpt lat="48.51457" lon="7.19501">
        <ele>719</ele>
        <time>2021-02-21T11:56:10.168Z</time>
      </trkpt>
      <trkpt lat="48.51458" lon="7.19501">
        <ele>719</ele>
        <time>2021-02-21T11:56:11.167Z</time>
      </trkpt>
      <trkpt lat="48.51458" lon="7.195">
        <ele>719</ele>
        <time>2021-02-21T11:56:12.168Z</time>
      </trkpt>
      <trkpt lat="48.51458" lon="7.19499">
        <ele>718</ele>
        <time>2021-02-21T11:56:13.167Z</time>
      </trkpt>
      <trkpt lat="48.51459" lon="7.195">
        <ele>718</ele>
        <time>2021-02-21T11:56:14.170Z</time>
      </trkpt>
      <trkpt lat="48.51459" lon="7.195">
        <ele>718</ele>
        <time>2021-02-21T11:56:15.170Z</time>
      </trkpt>
      <trkpt lat="48.51459" lon="7.19499">
        <ele>718</ele>
        <time>2021-02-21T11:56:16.169Z</time>
      </trkpt>
      <trkpt lat="48.51461" lon="7.19496">
        <ele>721</ele>
        <time>2021-02-21T11:56:17.171Z</time>
      </trkpt>
      <trkpt lat="48.51461" lon="7.19496">
        <ele>721</ele>
        <time>2021-02-21T11:56:18.170Z</time>
      </trkpt>
      <trkpt lat="48.51461" lon="7.19496">
        <ele>721</ele>
        <time>2021-02-21T11:56:19.171Z</time>
      </trkpt>
      <trkpt lat="48.5146" lon="7.19496">
        <ele>722</ele>
        <time>2021-02-21T11:56:20.171Z</time>
      </trkpt>
      <trkpt lat="48.5146" lon="7.19496">
        <ele>723</ele>
        <time>2021-02-21T11:56:21.172Z</time>
      </trkpt>
      <trkpt lat="48.5146" lon="7.19496">
        <ele>723</ele>
        <time>2021-02-21T11:56:22.171Z</time>
      </trkpt>
      <trkpt lat="48.51459" lon="7.19496">
        <ele>724</ele>
        <time>2021-02-21T11:56:23.172Z</time>
      </trkpt>
      <trkpt lat="48.51459" lon="7.19496">
        <ele>724</ele>
        <time>2021-02-21T11:56:24.172Z</time>
      </trkpt>
      <trkpt lat="48.51459" lon="7.19495">
        <ele>725</ele>
        <time>2021-02-21T11:56:25.172Z</time>
      </trkpt>
      <trkpt lat="48.51458" lon="7.19495">
        <ele>725</ele>
        <time>2021-02-21T11:56:26.172Z</time>
      </trkpt>
      <trkpt lat="48.51458" lon="7.19494">
        <ele>725</ele>
        <time>2021-02-21T11:56:27.172Z</time>
      </trkpt>
      <trkpt lat="48.51458" lon="7.19494">
        <ele>725</ele>
        <time>2021-02-21T11:56:28.172Z</time>
      </trkpt>
      <trkpt lat="48.51458" lon="7.19493">
        <ele>726</ele>
        <time>2021-02-21T11:56:29.172Z</time>
      </trkpt>
      <trkpt lat="48.51458" lon="7.19493">
        <ele>726</ele>
        <time>2021-02-21T11:56:30.171Z</time>
      </trkpt>
      <trkpt lat="48.51459" lon="7.19495">
        <ele>726</ele>
        <time>2021-02-21T11:56:31.172Z</time>
      </trkpt>
      <trkpt lat="48.51459" lon="7.19496">
        <ele>726</ele>
        <time>2021-02-21T11:56:32.172Z</time>
      </trkpt>
      <trkpt lat="48.51458" lon="7.19497">
        <ele>726</ele>
        <time>2021-02-21T11:56:33.172Z</time>
      </trkpt>
      <trkpt lat="48.51457" lon="7.19501">
        <ele>725</ele>
        <time>2021-02-21T11:56:34.173Z</time>
      </trkpt>
      <trkpt lat="48.51458" lon="7.19502">
        <ele>724</ele>
        <time>2021-02-21T11:56:35.172Z</time>
      </trkpt>
      <trkpt lat="48.51459" lon="7.19502">
        <ele>723</ele>
        <time>2021-02-21T11:56:36.172Z</time>
      </trkpt>
      <trkpt lat="48.5146" lon="7.19502">
        <ele>722</ele>
        <time>2021-02-21T11:56:37.173Z</time>
      </trkpt>
      <trkpt lat="48.5146" lon="7.19503">
        <ele>722</ele>
        <time>2021-02-21T11:56:38.173Z</time>
      </trkpt>
      <trkpt lat="48.51461" lon="7.19502">
        <ele>721</ele>
        <time>2021-02-21T11:56:39.173Z</time>
      </trkpt>
      <trkpt lat="48.51461" lon="7.19504">
        <ele>721</ele>
        <time>2021-02-21T11:56:40.173Z</time>
      </trkpt>
      <trkpt lat="48.51462" lon="7.19505">
        <ele>720</ele>
        <time>2021-02-21T11:56:41.173Z</time>
      </trkpt>
      <trkpt lat="48.51462" lon="7.19506">
        <ele>720</ele>
        <time>2021-02-21T11:56:42.173Z</time>
      </trkpt>
      <trkpt lat="48.51462" lon="7.19505">
        <ele>720</ele>
        <time>2021-02-21T11:56:43.173Z</time>
      </trkpt>
      <trkpt lat="48.51461" lon="7.19503">
        <ele>719</ele>
        <time>2021-02-21T11:56:44.173Z</time>
      </trkpt>
      <trkpt lat="48.51461" lon="7.19502">
        <ele>718</ele>
        <time>2021-02-21T11:56:45.173Z</time>
      </trkpt>
      <trkpt lat="48.51459" lon="7.19499">
        <ele>718</ele>
        <time>2021-02-21T11:56:46.173Z</time>
      </trkpt>
      <trkpt lat="48.51458" lon="7.19499">
        <ele>717</ele>
        <time>2021-02-21T11:56:47.173Z</time>
      </trkpt>
      <trkpt lat="48.51458" lon="7.19499">
        <ele>717</ele>
        <time>2021-02-21T11:56:48.172Z</time>
      </trkpt>
      <trkpt lat="48.51457" lon="7.19499">
        <ele>718</ele>
        <time>2021-02-21T11:56:49.172Z</time>
      </trkpt>
      <trkpt lat="48.51457" lon="7.19499">
        <ele>718</ele>
        <time>2021-02-21T11:56:50.173Z</time>
      </trkpt>
      <trkpt lat="48.51457" lon="7.19499">
        <ele>718</ele>
        <time>2021-02-21T11:56:51.173Z</time>
      </trkpt>
      <trkpt lat="48.51456" lon="7.19499">
        <ele>718</ele>
        <time>2021-02-21T11:56:52.172Z</time>
      </trkpt>
      <trkpt lat="48.51457" lon="7.19499">
        <ele>718</ele>
        <time>2021-02-21T11:56:53.173Z</time>
      </trkpt>
      <trkpt lat="48.51457" lon="7.195">
        <ele>718</ele>
        <time>2021-02-21T11:56:54.174Z</time>
      </trkpt>
      <trkpt lat="48.51458" lon="7.19501">
        <ele>719</ele>
        <time>2021-02-21T11:56:55.173Z</time>
      </trkpt>
      <trkpt lat="48.51459" lon="7.19502">
        <ele>719</ele>
        <time>2021-02-21T11:56:56.173Z</time>
      </trkpt>
      <trkpt lat="48.51459" lon="7.19503">
        <ele>719</ele>
        <time>2021-02-21T11:56:57.173Z</time>
      </trkpt>
      <trkpt lat="48.5146" lon="7.19502">
        <ele>719</ele>
        <time>2021-02-21T11:56:58.174Z</time>
      </trkpt>
      <trkpt lat="48.51461" lon="7.19502">
        <ele>719</ele>
        <time>2021-02-21T11:56:59.174Z</time>
      </trkpt>
      <trkpt lat="48.51461" lon="7.19502">
        <ele>719</ele>
        <time>2021-02-21T11:57:00.173Z</time>
      </trkpt>
      <trkpt lat="48.51461" lon="7.19504">
        <ele>719</ele>
        <time>2021-02-21T11:57:01.173Z</time>
      </trkpt>
      <trkpt lat="48.51461" lon="7.19505">
        <ele>718</ele>
        <time>2021-02-21T11:57:02.174Z</time>
      </trkpt>
      <trkpt lat="48.51462" lon="7.19506">
        <ele>718</ele>
        <time>2021-02-21T11:57:03.173Z</time>
      </trkpt>
      <trkpt lat="48.51462" lon="7.19507">
        <ele>718</ele>
        <time>2021-02-21T11:57:04.173Z</time>
      </trkpt>
      <trkpt lat="48.51462" lon="7.19508">
        <ele>719</ele>
        <time>2021-02-21T11:57:05.173Z</time>
      </trkpt>
      <trkpt lat="48.51463" lon="7.19507">
        <ele>719</ele>
        <time>2021-02-21T11:57:06.174Z</time>
      </trkpt>
      <trkpt lat="48.51463" lon="7.19508">
        <ele>719</ele>
        <time>2021-02-21T11:57:07.173Z</time>
      </trkpt>
      <trkpt lat="48.51463" lon="7.19508">
        <ele>719</ele>
        <time>2021-02-21T11:57:08.173Z</time>
      </trkpt>
      <trkpt lat="48.51462" lon="7.19507">
        <ele>719</ele>
        <time>2021-02-21T11:57:09.173Z</time>
      </trkpt>
      <trkpt lat="48.51461" lon="7.19506">
        <ele>719</ele>
        <time>2021-02-21T11:57:10.174Z</time>
      </trkpt>
      <trkpt lat="48.51466" lon="7.19514">
        <ele>720</ele>
        <time>2021-02-21T11:57:11.176Z</time>
      </trkpt>
      <trkpt lat="48.51467" lon="7.19516">
        <ele>720</ele>
        <time>2021-02-21T11:57:12.176Z</time>
      </trkpt>
      <trkpt lat="48.51468" lon="7.19518">
        <ele>720</ele>
        <time>2021-02-21T11:57:13.176Z</time>
      </trkpt>
      <trkpt lat="48.51469" lon="7.1952">
        <ele>719</ele>
        <time>2021-02-21T11:57:14.176Z</time>
      </trkpt>
      <trkpt lat="48.5147" lon="7.19522">
        <ele>719</ele>
        <time>2021-02-21T11:57:15.175Z</time>
      </trkpt>
      <trkpt lat="48.51471" lon="7.19523">
        <ele>718</ele>
        <time>2021-02-21T11:57:16.176Z</time>
      </trkpt>
      <trkpt lat="48.51472" lon="7.19525">
        <ele>717</ele>
        <time>2021-02-21T11:57:17.176Z</time>
      </trkpt>
      <trkpt lat="48.51473" lon="7.19527">
        <ele>716</ele>
        <time>2021-02-21T11:57:18.176Z</time>
      </trkpt>
      <trkpt lat="48.51474" lon="7.19528">
        <ele>715</ele>
        <time>2021-02-21T11:57:19.175Z</time>
      </trkpt>
      <trkpt lat="48.51475" lon="7.19528">
        <ele>714</ele>
        <time>2021-02-21T11:57:20.176Z</time>
      </trkpt>
      <trkpt lat="48.51476" lon="7.19529">
        <ele>713</ele>
        <time>2021-02-21T11:57:21.175Z</time>
      </trkpt>
      <trkpt lat="48.51476" lon="7.19531">
        <ele>712</ele>
        <time>2021-02-21T11:57:22.176Z</time>
      </trkpt>
      <trkpt lat="48.51477" lon="7.19531">
        <ele>711</ele>
        <time>2021-02-21T11:57:23.176Z</time>
      </trkpt>
      <trkpt lat="48.51478" lon="7.19532">
        <ele>711</ele>
        <time>2021-02-21T11:57:24.176Z</time>
      </trkpt>
      <trkpt lat="48.51479" lon="7.19533">
        <ele>711</ele>
        <time>2021-02-21T11:57:25.176Z</time>
      </trkpt>
      <trkpt lat="48.5148" lon="7.19534">
        <ele>711</ele>
        <time>2021-02-21T11:57:26.176Z</time>
      </trkpt>
      <trkpt lat="48.51481" lon="7.19535">
        <ele>711</ele>
        <time>2021-02-21T11:57:27.176Z</time>
      </trkpt>
      <trkpt lat="48.51482" lon="7.19537">
        <ele>711</ele>
        <time>2021-02-21T11:57:28.176Z</time>
      </trkpt>
      <trkpt lat="48.51482" lon="7.19538">
        <ele>711</ele>
        <time>2021-02-21T11:57:29.176Z</time>
      </trkpt>
      <trkpt lat="48.51483" lon="7.19539">
        <ele>712</ele>
        <time>2021-02-21T11:57:31.281Z</time>
      </trkpt>
      <trkpt lat="48.51485" lon="7.1954">
        <ele>712</ele>
        <time>2021-02-21T11:57:32.281Z</time>
      </trkpt>
      <trkpt lat="48.51486" lon="7.19541">
        <ele>712</ele>
        <time>2021-02-21T11:57:33.281Z</time>
      </trkpt>
      <trkpt lat="48.51488" lon="7.19542">
        <ele>712</ele>
        <time>2021-02-21T11:57:34.280Z</time>
      </trkpt>
      <trkpt lat="48.51489" lon="7.19543">
        <ele>712</ele>
        <time>2021-02-21T11:57:35.281Z</time>
      </trkpt>
      <trkpt lat="48.5149" lon="7.19543">
        <ele>712</ele>
        <time>2021-02-21T11:57:36.281Z</time>
      </trkpt>
      <trkpt lat="48.51491" lon="7.19544">
        <ele>712</ele>
        <time>2021-02-21T11:57:37.281Z</time>
      </trkpt>
      <trkpt lat="48.51492" lon="7.19546">
        <ele>712</ele>
        <time>2021-02-21T11:57:38.281Z</time>
      </trkpt>
      <trkpt lat="48.51492" lon="7.19546">
        <ele>712</ele>
        <time>2021-02-21T11:57:39.281Z</time>
      </trkpt>
      <trkpt lat="48.51494" lon="7.19547">
        <ele>712</ele>
        <time>2021-02-21T11:57:40.281Z</time>
      </trkpt>
      <trkpt lat="48.51495" lon="7.19549">
        <ele>712</ele>
        <time>2021-02-21T11:57:41.281Z</time>
      </trkpt>
      <trkpt lat="48.51495" lon="7.1955">
        <ele>712</ele>
        <time>2021-02-21T11:57:42.280Z</time>
      </trkpt>
      <trkpt lat="48.51496" lon="7.1955">
        <ele>713</ele>
        <time>2021-02-21T11:57:43.280Z</time>
      </trkpt>
      <trkpt lat="48.51497" lon="7.19551">
        <ele>713</ele>
        <time>2021-02-21T11:57:45.321Z</time>
      </trkpt>
      <trkpt lat="48.51498" lon="7.19552">
        <ele>713</ele>
        <time>2021-02-21T11:57:46.321Z</time>
      </trkpt>
      <trkpt lat="48.51498" lon="7.19553">
        <ele>713</ele>
        <time>2021-02-21T11:57:47.320Z</time>
      </trkpt>
      <trkpt lat="48.51499" lon="7.19554">
        <ele>713</ele>
        <time>2021-02-21T11:57:48.320Z</time>
      </trkpt>
      <trkpt lat="48.51501" lon="7.19558">
        <ele>713</ele>
        <time>2021-02-21T11:57:49.321Z</time>
      </trkpt>
      <trkpt lat="48.51502" lon="7.1956">
        <ele>714</ele>
        <time>2021-02-21T11:57:50.321Z</time>
      </trkpt>
      <trkpt lat="48.51504" lon="7.1956">
        <ele>714</ele>
        <time>2021-02-21T11:57:51.321Z</time>
      </trkpt>
      <trkpt lat="48.51505" lon="7.19562">
        <ele>714</ele>
        <time>2021-02-21T11:57:52.321Z</time>
      </trkpt>
      <trkpt lat="48.51506" lon="7.19563">
        <ele>714</ele>
        <time>2021-02-21T11:57:53.321Z</time>
      </trkpt>
      <trkpt lat="48.51508" lon="7.19564">
        <ele>714</ele>
        <time>2021-02-21T11:57:54.321Z</time>
      </trkpt>
      <trkpt lat="48.51508" lon="7.19566">
        <ele>714</ele>
        <time>2021-02-21T11:57:55.321Z</time>
      </trkpt>
      <trkpt lat="48.51509" lon="7.19568">
        <ele>714</ele>
        <time>2021-02-21T11:57:56.321Z</time>
      </trkpt>
      <trkpt lat="48.5151" lon="7.19569">
        <ele>714</ele>
        <time>2021-02-21T11:57:57.320Z</time>
      </trkpt>
      <trkpt lat="48.51511" lon="7.19569">
        <ele>714</ele>
        <time>2021-02-21T11:57:58.321Z</time>
      </trkpt>
      <trkpt lat="48.51511" lon="7.1957">
        <ele>714</ele>
        <time>2021-02-21T11:57:59.321Z</time>
      </trkpt>
      <trkpt lat="48.51512" lon="7.1957">
        <ele>714</ele>
        <time>2021-02-21T11:58:00.320Z</time>
      </trkpt>
      <trkpt lat="48.51513" lon="7.19571">
        <ele>714</ele>
        <time>2021-02-21T11:58:01.320Z</time>
      </trkpt>
      <trkpt lat="48.51514" lon="7.19572">
        <ele>714</ele>
        <time>2021-02-21T11:58:02.321Z</time>
      </trkpt>
      <trkpt lat="48.51515" lon="7.19572">
        <ele>714</ele>
        <time>2021-02-21T11:58:03.321Z</time>
      </trkpt>
      <trkpt lat="48.51516" lon="7.19573">
        <ele>714</ele>
        <time>2021-02-21T11:58:04.320Z</time>
      </trkpt>
      <trkpt lat="48.51516" lon="7.19573">
        <ele>714</ele>
        <time>2021-02-21T11:58:05.321Z</time>
      </trkpt>
      <trkpt lat="48.51517" lon="7.19573">
        <ele>714</ele>
        <time>2021-02-21T11:58:06.321Z</time>
      </trkpt>
      <trkpt lat="48.51518" lon="7.19574">
        <ele>714</ele>
        <time>2021-02-21T11:58:07.321Z</time>
      </trkpt>
      <trkpt lat="48.51518" lon="7.19574">
        <ele>714</ele>
        <time>2021-02-21T11:58:08.321Z</time>
      </trkpt>
      <trkpt lat="48.51521" lon="7.19568">
        <ele>716</ele>
        <time>2021-02-21T11:58:09.323Z</time>
      </trkpt>
      <trkpt lat="48.51521" lon="7.19569">
        <ele>717</ele>
        <time>2021-02-21T11:58:10.323Z</time>
      </trkpt>
      <trkpt lat="48.51522" lon="7.1957">
        <ele>717</ele>
        <time>2021-02-21T11:58:11.323Z</time>
      </trkpt>
      <trkpt lat="48.51522" lon="7.19571">
        <ele>718</ele>
        <time>2021-02-21T11:58:12.322Z</time>
      </trkpt>
      <trkpt lat="48.51523" lon="7.19572">
        <ele>718</ele>
        <time>2021-02-21T11:58:13.323Z</time>
      </trkpt>
      <trkpt lat="48.51527" lon="7.19574">
        <ele>716</ele>
        <time>2021-02-21T11:58:14.323Z</time>
      </trkpt>
      <trkpt lat="48.51529" lon="7.19574">
        <ele>716</ele>
        <time>2021-02-21T11:58:15.322Z</time>
      </trkpt>
      <trkpt lat="48.5153" lon="7.19574">
        <ele>716</ele>
        <time>2021-02-21T11:58:16.322Z</time>
      </trkpt>
      <trkpt lat="48.51531" lon="7.19575">
        <ele>716</ele>
        <time>2021-02-21T11:58:17.323Z</time>
      </trkpt>
      <trkpt lat="48.51533" lon="7.19576">
        <ele>717</ele>
        <time>2021-02-21T11:58:18.323Z</time>
      </trkpt>
      <trkpt lat="48.51536" lon="7.19576">
        <ele>717</ele>
        <time>2021-02-21T11:58:19.323Z</time>
      </trkpt>
      <trkpt lat="48.51538" lon="7.19576">
        <ele>717</ele>
        <time>2021-02-21T11:58:20.323Z</time>
      </trkpt>
      <trkpt lat="48.5154" lon="7.19577">
        <ele>717</ele>
        <time>2021-02-21T11:58:21.323Z</time>
      </trkpt>
      <trkpt lat="48.51541" lon="7.19578">
        <ele>717</ele>
        <time>2021-02-21T11:58:22.322Z</time>
      </trkpt>
      <trkpt lat="48.51542" lon="7.19578">
        <ele>717</ele>
        <time>2021-02-21T11:58:23.323Z</time>
      </trkpt>
      <trkpt lat="48.51542" lon="7.19578">
        <ele>717</ele>
        <time>2021-02-21T11:58:24.323Z</time>
      </trkpt>
      <trkpt lat="48.51543" lon="7.19579">
        <ele>717</ele>
        <time>2021-02-21T11:58:25.322Z</time>
      </trkpt>
      <trkpt lat="48.51544" lon="7.19579">
        <ele>716</ele>
        <time>2021-02-21T11:58:26.323Z</time>
      </trkpt>
      <trkpt lat="48.51545" lon="7.1958">
        <ele>716</ele>
        <time>2021-02-21T11:58:27.323Z</time>
      </trkpt>
      <trkpt lat="48.51546" lon="7.1958">
        <ele>716</ele>
        <time>2021-02-21T11:58:28.323Z</time>
      </trkpt>
      <trkpt lat="48.51547" lon="7.19581">
        <ele>715</ele>
        <time>2021-02-21T11:58:29.322Z</time>
      </trkpt>
      <trkpt lat="48.51548" lon="7.19581">
        <ele>715</ele>
        <time>2021-02-21T11:58:30.323Z</time>
      </trkpt>
      <trkpt lat="48.51549" lon="7.19581">
        <ele>714</ele>
        <time>2021-02-21T11:58:31.323Z</time>
      </trkpt>
      <trkpt lat="48.5155" lon="7.19582">
        <ele>714</ele>
        <time>2021-02-21T11:58:32.322Z</time>
      </trkpt>
      <trkpt lat="48.51551" lon="7.19582">
        <ele>713</ele>
        <time>2021-02-21T11:58:33.323Z</time>
      </trkpt>
      <trkpt lat="48.51552" lon="7.19581">
        <ele>713</ele>
        <time>2021-02-21T11:58:34.323Z</time>
      </trkpt>
      <trkpt lat="48.51553" lon="7.19582">
        <ele>712</ele>
        <time>2021-02-21T11:58:35.323Z</time>
      </trkpt>
      <trkpt lat="48.51555" lon="7.19582">
        <ele>712</ele>
        <time>2021-02-21T11:58:36.322Z</time>
      </trkpt>
      <trkpt lat="48.51555" lon="7.19583">
        <ele>712</ele>
        <time>2021-02-21T11:58:37.323Z</time>
      </trkpt>
      <trkpt lat="48.51555" lon="7.19584">
        <ele>713</ele>
        <time>2021-02-21T11:58:38.323Z</time>
      </trkpt>
      <trkpt lat="48.51557" lon="7.19583">
        <ele>714</ele>
        <time>2021-02-21T11:58:39.323Z</time>
      </trkpt>
      <trkpt lat="48.51558" lon="7.19582">
        <ele>714</ele>
        <time>2021-02-21T11:58:40.324Z</time>
      </trkpt>
      <trkpt lat="48.51558" lon="7.19582">
        <ele>714</ele>
        <time>2021-02-21T11:58:41.323Z</time>
      </trkpt>
      <trkpt lat="48.5156" lon="7.19583">
        <ele>714</ele>
        <time>2021-02-21T11:58:42.325Z</time>
      </trkpt>
      <trkpt lat="48.51561" lon="7.19582">
        <ele>714</ele>
        <time>2021-02-21T11:58:43.324Z</time>
      </trkpt>
      <trkpt lat="48.51562" lon="7.19582">
        <ele>714</ele>
        <time>2021-02-21T11:58:44.324Z</time>
      </trkpt>
      <trkpt lat="48.51562" lon="7.19582">
        <ele>714</ele>
        <time>2021-02-21T11:58:45.324Z</time>
      </trkpt>
      <trkpt lat="48.51563" lon="7.19582">
        <ele>714</ele>
        <time>2021-02-21T11:58:46.324Z</time>
      </trkpt>
      <trkpt lat="48.51564" lon="7.19582">
        <ele>714</ele>
        <time>2021-02-21T11:58:47.324Z</time>
      </trkpt>
      <trkpt lat="48.51565" lon="7.19582">
        <ele>714</ele>
        <time>2021-02-21T11:58:48.324Z</time>
      </trkpt>
      <trkpt lat="48.51566" lon="7.19582">
        <ele>715</ele>
        <time>2021-02-21T11:58:49.325Z</time>
      </trkpt>
      <trkpt lat="48.51567" lon="7.19581">
        <ele>715</ele>
        <time>2021-02-21T11:58:50.324Z</time>
      </trkpt>
      <trkpt lat="48.51567" lon="7.19581">
        <ele>715</ele>
        <time>2021-02-21T11:58:51.324Z</time>
      </trkpt>
      <trkpt lat="48.51568" lon="7.1958">
        <ele>715</ele>
        <time>2021-02-21T11:58:52.324Z</time>
      </trkpt>
      <trkpt lat="48.51569" lon="7.1958">
        <ele>715</ele>
        <time>2021-02-21T11:58:53.325Z</time>
      </trkpt>
      <trkpt lat="48.5157" lon="7.1958">
        <ele>716</ele>
        <time>2021-02-21T11:58:54.324Z</time>
      </trkpt>
      <trkpt lat="48.51571" lon="7.19579">
        <ele>716</ele>
        <time>2021-02-21T11:58:55.324Z</time>
      </trkpt>
      <trkpt lat="48.51572" lon="7.19579">
        <ele>716</ele>
        <time>2021-02-21T11:58:56.324Z</time>
      </trkpt>
      <trkpt lat="48.51573" lon="7.19579">
        <ele>717</ele>
        <time>2021-02-21T11:58:57.324Z</time>
      </trkpt>
      <trkpt lat="48.51574" lon="7.19578">
        <ele>717</ele>
        <time>2021-02-21T11:58:58.324Z</time>
      </trkpt>
      <trkpt lat="48.51575" lon="7.19578">
        <ele>717</ele>
        <time>2021-02-21T11:58:59.324Z</time>
      </trkpt>
      <trkpt lat="48.51575" lon="7.19577">
        <ele>716</ele>
        <time>2021-02-21T11:59:00.324Z</time>
      </trkpt>
      <trkpt lat="48.51576" lon="7.19577">
        <ele>716</ele>
        <time>2021-02-21T11:59:01.324Z</time>
      </trkpt>
      <trkpt lat="48.51577" lon="7.19577">
        <ele>716</ele>
        <time>2021-02-21T11:59:02.325Z</time>
      </trkpt>
      <trkpt lat="48.51578" lon="7.19577">
        <ele>716</ele>
        <time>2021-02-21T11:59:03.324Z</time>
      </trkpt>
      <trkpt lat="48.51578" lon="7.19576">
        <ele>716</ele>
        <time>2021-02-21T11:59:04.325Z</time>
      </trkpt>
      <trkpt lat="48.51579" lon="7.19576">
        <ele>716</ele>
        <time>2021-02-21T11:59:05.324Z</time>
      </trkpt>
      <trkpt lat="48.5158" lon="7.19576">
        <ele>716</ele>
        <time>2021-02-21T11:59:06.325Z</time>
      </trkpt>
      <trkpt lat="48.51581" lon="7.19576">
        <ele>716</ele>
        <time>2021-02-21T11:59:07.324Z</time>
      </trkpt>
      <trkpt lat="48.51582" lon="7.19575">
        <ele>716</ele>
        <time>2021-02-21T11:59:08.325Z</time>
      </trkpt>
      <trkpt lat="48.51583" lon="7.19575">
        <ele>716</ele>
        <time>2021-02-21T11:59:09.325Z</time>
      </trkpt>
      <trkpt lat="48.51584" lon="7.19575">
        <ele>716</ele>
        <time>2021-02-21T11:59:10.324Z</time>
      </trkpt>
      <trkpt lat="48.51585" lon="7.19575">
        <ele>716</ele>
        <time>2021-02-21T11:59:11.324Z</time>
      </trkpt>
      <trkpt lat="48.51587" lon="7.19575">
        <ele>716</ele>
        <time>2021-02-21T11:59:12.324Z</time>
      </trkpt>
      <trkpt lat="48.51588" lon="7.19575">
        <ele>716</ele>
        <time>2021-02-21T11:59:13.324Z</time>
      </trkpt>
      <trkpt lat="48.51589" lon="7.19575">
        <ele>716</ele>
        <time>2021-02-21T11:59:14.324Z</time>
      </trkpt>
      <trkpt lat="48.51591" lon="7.19575">
        <ele>715</ele>
        <time>2021-02-21T11:59:15.324Z</time>
      </trkpt>
      <trkpt lat="48.51592" lon="7.19575">
        <ele>715</ele>
        <time>2021-02-21T11:59:16.325Z</time>
      </trkpt>
      <trkpt lat="48.51593" lon="7.19574">
        <ele>715</ele>
        <time>2021-02-21T11:59:17.324Z</time>
      </trkpt>
      <trkpt lat="48.51595" lon="7.19574">
        <ele>715</ele>
        <time>2021-02-21T11:59:18.324Z</time>
      </trkpt>
      <trkpt lat="48.51596" lon="7.19574">
        <ele>715</ele>
        <time>2021-02-21T11:59:19.324Z</time>
      </trkpt>
      <trkpt lat="48.51597" lon="7.19573">
        <ele>716</ele>
        <time>2021-02-21T11:59:20.324Z</time>
      </trkpt>
      <trkpt lat="48.51598" lon="7.19573">
        <ele>717</ele>
        <time>2021-02-21T11:59:21.324Z</time>
      </trkpt>
      <trkpt lat="48.516" lon="7.19572">
        <ele>717</ele>
        <time>2021-02-21T11:59:22.324Z</time>
      </trkpt>
      <trkpt lat="48.51602" lon="7.19571">
        <ele>717</ele>
        <time>2021-02-21T11:59:23.324Z</time>
      </trkpt>
      <trkpt lat="48.51603" lon="7.19571">
        <ele>718</ele>
        <time>2021-02-21T11:59:24.324Z</time>
      </trkpt>
      <trkpt lat="48.51604" lon="7.1957">
        <ele>718</ele>
        <time>2021-02-21T11:59:25.324Z</time>
      </trkpt>
      <trkpt lat="48.51604" lon="7.19569">
        <ele>718</ele>
        <time>2021-02-21T11:59:26.324Z</time>
      </trkpt>
      <trkpt lat="48.51606" lon="7.19568">
        <ele>718</ele>
        <time>2021-02-21T11:59:27.324Z</time>
      </trkpt>
      <trkpt lat="48.51607" lon="7.19568">
        <ele>718</ele>
        <time>2021-02-21T11:59:28.324Z</time>
      </trkpt>
      <trkpt lat="48.51607" lon="7.19567">
        <ele>719</ele>
        <time>2021-02-21T11:59:29.324Z</time>
      </trkpt>
      <trkpt lat="48.51609" lon="7.19566">
        <ele>719</ele>
        <time>2021-02-21T11:59:30.324Z</time>
      </trkpt>
      <trkpt lat="48.5161" lon="7.19565">
        <ele>719</ele>
        <time>2021-02-21T11:59:31.324Z</time>
      </trkpt>
      <trkpt lat="48.51611" lon="7.19564">
        <ele>719</ele>
        <time>2021-02-21T11:59:32.324Z</time>
      </trkpt>
      <trkpt lat="48.51612" lon="7.19563">
        <ele>719</ele>
        <time>2021-02-21T11:59:33.324Z</time>
      </trkpt>
      <trkpt lat="48.51613" lon="7.19561">
        <ele>720</ele>
        <time>2021-02-21T11:59:34.325Z</time>
      </trkpt>
      <trkpt lat="48.51614" lon="7.19561">
        <ele>720</ele>
        <time>2021-02-21T11:59:35.324Z</time>
      </trkpt>
      <trkpt lat="48.51615" lon="7.19559">
        <ele>720</ele>
        <time>2021-02-21T11:59:36.325Z</time>
      </trkpt>
      <trkpt lat="48.51616" lon="7.19558">
        <ele>720</ele>
        <time>2021-02-21T11:59:37.324Z</time>
      </trkpt>
      <trkpt lat="48.51617" lon="7.19558">
        <ele>721</ele>
        <time>2021-02-21T11:59:38.324Z</time>
      </trkpt>
      <trkpt lat="48.51618" lon="7.19557">
        <ele>721</ele>
        <time>2021-02-21T11:59:39.325Z</time>
      </trkpt>
      <trkpt lat="48.51619" lon="7.19556">
        <ele>721</ele>
        <time>2021-02-21T11:59:40.325Z</time>
      </trkpt>
      <trkpt lat="48.5162" lon="7.19554">
        <ele>722</ele>
        <time>2021-02-21T11:59:41.324Z</time>
      </trkpt>
      <trkpt lat="48.5162" lon="7.19553">
        <ele>722</ele>
        <time>2021-02-21T11:59:42.324Z</time>
      </trkpt>
      <trkpt lat="48.51621" lon="7.19552">
        <ele>723</ele>
        <time>2021-02-21T11:59:43.324Z</time>
      </trkpt>
      <trkpt lat="48.51622" lon="7.19551">
        <ele>723</ele>
        <time>2021-02-21T11:59:44.324Z</time>
      </trkpt>
      <trkpt lat="48.51622" lon="7.19549">
        <ele>723</ele>
        <time>2021-02-21T11:59:45.324Z</time>
      </trkpt>
      <trkpt lat="48.51623" lon="7.19548">
        <ele>723</ele>
        <time>2021-02-21T11:59:46.324Z</time>
      </trkpt>
      <trkpt lat="48.51624" lon="7.19546">
        <ele>724</ele>
        <time>2021-02-21T11:59:47.324Z</time>
      </trkpt>
      <trkpt lat="48.51625" lon="7.19543">
        <ele>724</ele>
        <time>2021-02-21T11:59:48.325Z</time>
      </trkpt>
      <trkpt lat="48.51627" lon="7.19541">
        <ele>725</ele>
        <time>2021-02-21T11:59:49.325Z</time>
      </trkpt>
      <trkpt lat="48.51627" lon="7.19538">
        <ele>725</ele>
        <time>2021-02-21T11:59:50.325Z</time>
      </trkpt>
      <trkpt lat="48.51627" lon="7.19536">
        <ele>725</ele>
        <time>2021-02-21T11:59:51.324Z</time>
      </trkpt>
      <trkpt lat="48.51627" lon="7.19534">
        <ele>725</ele>
        <time>2021-02-21T11:59:52.324Z</time>
      </trkpt>
      <trkpt lat="48.51627" lon="7.19532">
        <ele>725</ele>
        <time>2021-02-21T11:59:53.324Z</time>
      </trkpt>
      <trkpt lat="48.51628" lon="7.19531">
        <ele>725</ele>
        <time>2021-02-21T11:59:54.324Z</time>
      </trkpt>
      <trkpt lat="48.5163" lon="7.19531">
        <ele>725</ele>
        <time>2021-02-21T11:59:55.325Z</time>
      </trkpt>
      <trkpt lat="48.5163" lon="7.1953">
        <ele>725</ele>
        <time>2021-02-21T11:59:56.324Z</time>
      </trkpt>
      <trkpt lat="48.51631" lon="7.1953">
        <ele>724</ele>
        <time>2021-02-21T11:59:57.325Z</time>
      </trkpt>
      <trkpt lat="48.51631" lon="7.1953">
        <ele>724</ele>
        <time>2021-02-21T11:59:58.325Z</time>
      </trkpt>
      <trkpt lat="48.51631" lon="7.1953">
        <ele>724</ele>
        <time>2021-02-21T11:59:59.325Z</time>
      </trkpt>
      <trkpt lat="48.51632" lon="7.1953">
        <ele>724</ele>
        <time>2021-02-21T12:00:00.325Z</time>
      </trkpt>
      <trkpt lat="48.51632" lon="7.19529">
        <ele>724</ele>
        <time>2021-02-21T12:00:01.324Z</time>
      </trkpt>
      <trkpt lat="48.51632" lon="7.19529">
        <ele>724</ele>
        <time>2021-02-21T12:00:02.324Z</time>
      </trkpt>
      <trkpt lat="48.51635" lon="7.19519">
        <ele>725</ele>
        <time>2021-02-21T12:00:03.325Z</time>
      </trkpt>
      <trkpt lat="48.51635" lon="7.19517">
        <ele>724</ele>
        <time>2021-02-21T12:00:04.324Z</time>
      </trkpt>
      <trkpt lat="48.51635" lon="7.19515">
        <ele>724</ele>
        <time>2021-02-21T12:00:05.325Z</time>
      </trkpt>
      <trkpt lat="48.51636" lon="7.19513">
        <ele>724</ele>
        <time>2021-02-21T12:00:06.325Z</time>
      </trkpt>
      <trkpt lat="48.51636" lon="7.19512">
        <ele>725</ele>
        <time>2021-02-21T12:00:07.325Z</time>
      </trkpt>
      <trkpt lat="48.51637" lon="7.1951">
        <ele>725</ele>
        <time>2021-02-21T12:00:08.325Z</time>
      </trkpt>
      <trkpt lat="48.51637" lon="7.19507">
        <ele>726</ele>
        <time>2021-02-21T12:00:09.325Z</time>
      </trkpt>
      <trkpt lat="48.51638" lon="7.19505">
        <ele>727</ele>
        <time>2021-02-21T12:00:10.325Z</time>
      </trkpt>
      <trkpt lat="48.51638" lon="7.19503">
        <ele>727</ele>
        <time>2021-02-21T12:00:11.325Z</time>
      </trkpt>
      <trkpt lat="48.51639" lon="7.19501">
        <ele>728</ele>
        <time>2021-02-21T12:00:12.325Z</time>
      </trkpt>
      <trkpt lat="48.5164" lon="7.19499">
        <ele>729</ele>
        <time>2021-02-21T12:00:13.324Z</time>
      </trkpt>
      <trkpt lat="48.5164" lon="7.19498">
        <ele>729</ele>
        <time>2021-02-21T12:00:14.325Z</time>
      </trkpt>
      <trkpt lat="48.51641" lon="7.19496">
        <ele>730</ele>
        <time>2021-02-21T12:00:15.325Z</time>
      </trkpt>
      <trkpt lat="48.51641" lon="7.19494">
        <ele>731</ele>
        <time>2021-02-21T12:00:16.325Z</time>
      </trkpt>
      <trkpt lat="48.5164" lon="7.19492">
        <ele>731</ele>
        <time>2021-02-21T12:00:17.325Z</time>
      </trkpt>
      <trkpt lat="48.51641" lon="7.1949">
        <ele>732</ele>
        <time>2021-02-21T12:00:18.325Z</time>
      </trkpt>
      <trkpt lat="48.51641" lon="7.19488">
        <ele>732</ele>
        <time>2021-02-21T12:00:19.325Z</time>
      </trkpt>
      <trkpt lat="48.51642" lon="7.19486">
        <ele>732</ele>
        <time>2021-02-21T12:00:20.325Z</time>
      </trkpt>
      <trkpt lat="48.51642" lon="7.19484">
        <ele>733</ele>
        <time>2021-02-21T12:00:21.325Z</time>
      </trkpt>
      <trkpt lat="48.51644" lon="7.19482">
        <ele>733</ele>
        <time>2021-02-21T12:00:22.325Z</time>
      </trkpt>
      <trkpt lat="48.51644" lon="7.1948">
        <ele>733</ele>
        <time>2021-02-21T12:00:23.325Z</time>
      </trkpt>
      <trkpt lat="48.51645" lon="7.19478">
        <ele>733</ele>
        <time>2021-02-21T12:00:24.325Z</time>
      </trkpt>
      <trkpt lat="48.51645" lon="7.19476">
        <ele>733</ele>
        <time>2021-02-21T12:00:25.325Z</time>
      </trkpt>
      <trkpt lat="48.51645" lon="7.19475">
        <ele>733</ele>
        <time>2021-02-21T12:00:26.324Z</time>
      </trkpt>
      <trkpt lat="48.51645" lon="7.19473">
        <ele>734</ele>
        <time>2021-02-21T12:00:27.324Z</time>
      </trkpt>
      <trkpt lat="48.51645" lon="7.19472">
        <ele>734</ele>
        <time>2021-02-21T12:00:28.325Z</time>
      </trkpt>
      <trkpt lat="48.51646" lon="7.19471">
        <ele>735</ele>
        <time>2021-02-21T12:00:29.325Z</time>
      </trkpt>
      <trkpt lat="48.51646" lon="7.19469">
        <ele>736</ele>
        <time>2021-02-21T12:00:30.324Z</time>
      </trkpt>
      <trkpt lat="48.51646" lon="7.19468">
        <ele>736</ele>
        <time>2021-02-21T12:00:31.325Z</time>
      </trkpt>
      <trkpt lat="48.51647" lon="7.19466">
        <ele>736</ele>
        <time>2021-02-21T12:00:32.325Z</time>
      </trkpt>
      <trkpt lat="48.51647" lon="7.19465">
        <ele>735</ele>
        <time>2021-02-21T12:00:33.325Z</time>
      </trkpt>
      <trkpt lat="48.51647" lon="7.19463">
        <ele>734</ele>
        <time>2021-02-21T12:00:34.324Z</time>
      </trkpt>
      <trkpt lat="48.51648" lon="7.19462">
        <ele>734</ele>
        <time>2021-02-21T12:00:35.324Z</time>
      </trkpt>
      <trkpt lat="48.51648" lon="7.1946">
        <ele>734</ele>
        <time>2021-02-21T12:00:36.324Z</time>
      </trkpt>
      <trkpt lat="48.51649" lon="7.19458">
        <ele>733</ele>
        <time>2021-02-21T12:00:37.325Z</time>
      </trkpt>
      <trkpt lat="48.5165" lon="7.19456">
        <ele>733</ele>
        <time>2021-02-21T12:00:38.325Z</time>
      </trkpt>
      <trkpt lat="48.5165" lon="7.19453">
        <ele>733</ele>
        <time>2021-02-21T12:00:39.324Z</time>
      </trkpt>
      <trkpt lat="48.5165" lon="7.19451">
        <ele>734</ele>
        <time>2021-02-21T12:00:40.324Z</time>
      </trkpt>
      <trkpt lat="48.51651" lon="7.1945">
        <ele>734</ele>
        <time>2021-02-21T12:00:41.324Z</time>
      </trkpt>
      <trkpt lat="48.51652" lon="7.19448">
        <ele>734</ele>
        <time>2021-02-21T12:00:42.325Z</time>
      </trkpt>
      <trkpt lat="48.51651" lon="7.19446">
        <ele>734</ele>
        <time>2021-02-21T12:00:43.325Z</time>
      </trkpt>
      <trkpt lat="48.5165" lon="7.19444">
        <ele>735</ele>
        <time>2021-02-21T12:00:44.325Z</time>
      </trkpt>
      <trkpt lat="48.5165" lon="7.19442">
        <ele>735</ele>
        <time>2021-02-21T12:00:45.325Z</time>
      </trkpt>
      <trkpt lat="48.51649" lon="7.1944">
        <ele>734</ele>
        <time>2021-02-21T12:00:46.325Z</time>
      </trkpt>
      <trkpt lat="48.5165" lon="7.19439">
        <ele>734</ele>
        <time>2021-02-21T12:00:47.325Z</time>
      </trkpt>
      <trkpt lat="48.5165" lon="7.19437">
        <ele>734</ele>
        <time>2021-02-21T12:00:48.325Z</time>
      </trkpt>
      <trkpt lat="48.51651" lon="7.19436">
        <ele>734</ele>
        <time>2021-02-21T12:00:49.324Z</time>
      </trkpt>
      <trkpt lat="48.51652" lon="7.19434">
        <ele>735</ele>
        <time>2021-02-21T12:00:50.324Z</time>
      </trkpt>
      <trkpt lat="48.51652" lon="7.19432">
        <ele>735</ele>
        <time>2021-02-21T12:00:51.325Z</time>
      </trkpt>
      <trkpt lat="48.51652" lon="7.1943">
        <ele>735</ele>
        <time>2021-02-21T12:00:52.325Z</time>
      </trkpt>
      <trkpt lat="48.51652" lon="7.19428">
        <ele>735</ele>
        <time>2021-02-21T12:00:53.325Z</time>
      </trkpt>
      <trkpt lat="48.51653" lon="7.19426">
        <ele>735</ele>
        <time>2021-02-21T12:00:54.325Z</time>
      </trkpt>
      <trkpt lat="48.51653" lon="7.19424">
        <ele>735</ele>
        <time>2021-02-21T12:00:55.325Z</time>
      </trkpt>
      <trkpt lat="48.51654" lon="7.19422">
        <ele>735</ele>
        <time>2021-02-21T12:00:56.325Z</time>
      </trkpt>
      <trkpt lat="48.51654" lon="7.19421">
        <ele>735</ele>
        <time>2021-02-21T12:00:57.324Z</time>
      </trkpt>
      <trkpt lat="48.51655" lon="7.1942">
        <ele>735</ele>
        <time>2021-02-21T12:00:58.325Z</time>
      </trkpt>
      <trkpt lat="48.51655" lon="7.1942">
        <ele>734</ele>
        <time>2021-02-21T12:00:59.325Z</time>
      </trkpt>
      <trkpt lat="48.51655" lon="7.19419">
        <ele>734</ele>
        <time>2021-02-21T12:01:00.325Z</time>
      </trkpt>
      <trkpt lat="48.51655" lon="7.19418">
        <ele>733</ele>
        <time>2021-02-21T12:01:01.324Z</time>
      </trkpt>
      <trkpt lat="48.51655" lon="7.19416">
        <ele>733</ele>
        <time>2021-02-21T12:01:02.325Z</time>
      </trkpt>
      <trkpt lat="48.51655" lon="7.19415">
        <ele>733</ele>
        <time>2021-02-21T12:01:03.324Z</time>
      </trkpt>
      <trkpt lat="48.51656" lon="7.19414">
        <ele>733</ele>
        <time>2021-02-21T12:01:04.325Z</time>
      </trkpt>
      <trkpt lat="48.51656" lon="7.19412">
        <ele>733</ele>
        <time>2021-02-21T12:01:05.325Z</time>
      </trkpt>
      <trkpt lat="48.51657" lon="7.19411">
        <ele>733</ele>
        <time>2021-02-21T12:01:06.325Z</time>
      </trkpt>
      <trkpt lat="48.51657" lon="7.19409">
        <ele>732</ele>
        <time>2021-02-21T12:01:07.325Z</time>
      </trkpt>
      <trkpt lat="48.51657" lon="7.19407">
        <ele>732</ele>
        <time>2021-02-21T12:01:08.325Z</time>
      </trkpt>
      <trkpt lat="48.51658" lon="7.19405">
        <ele>732</ele>
        <time>2021-02-21T12:01:09.325Z</time>
      </trkpt>
      <trkpt lat="48.51658" lon="7.19404">
        <ele>731</ele>
        <time>2021-02-21T12:01:10.325Z</time>
      </trkpt>
      <trkpt lat="48.51659" lon="7.19402">
        <ele>731</ele>
        <time>2021-02-21T12:01:11.325Z</time>
      </trkpt>
      <trkpt lat="48.51659" lon="7.194">
        <ele>731</ele>
        <time>2021-02-21T12:01:12.325Z</time>
      </trkpt>
      <trkpt lat="48.51659" lon="7.19398">
        <ele>730</ele>
        <time>2021-02-21T12:01:13.325Z</time>
      </trkpt>
      <trkpt lat="48.51659" lon="7.19397">
        <ele>730</ele>
        <time>2021-02-21T12:01:14.325Z</time>
      </trkpt>
      <trkpt lat="48.5166" lon="7.19395">
        <ele>730</ele>
        <time>2021-02-21T12:01:15.325Z</time>
      </trkpt>
      <trkpt lat="48.5166" lon="7.19394">
        <ele>731</ele>
        <time>2021-02-21T12:01:16.325Z</time>
      </trkpt>
      <trkpt lat="48.5166" lon="7.19392">
        <ele>731</ele>
        <time>2021-02-21T12:01:17.325Z</time>
      </trkpt>
      <trkpt lat="48.5166" lon="7.1939">
        <ele>731</ele>
        <time>2021-02-21T12:01:18.325Z</time>
      </trkpt>
      <trkpt lat="48.5166" lon="7.19389">
        <ele>731</ele>
        <time>2021-02-21T12:01:19.325Z</time>
      </trkpt>
      <trkpt lat="48.5166" lon="7.19387">
        <ele>731</ele>
        <time>2021-02-21T12:01:20.325Z</time>
      </trkpt>
      <trkpt lat="48.5166" lon="7.19385">
        <ele>731</ele>
        <time>2021-02-21T12:01:21.325Z</time>
      </trkpt>
      <trkpt lat="48.5166" lon="7.19384">
        <ele>731</ele>
        <time>2021-02-21T12:01:22.324Z</time>
      </trkpt>
      <trkpt lat="48.5166" lon="7.19382">
        <ele>730</ele>
        <time>2021-02-21T12:01:23.325Z</time>
      </trkpt>
      <trkpt lat="48.51659" lon="7.19379">
        <ele>729</ele>
        <time>2021-02-21T12:01:24.325Z</time>
      </trkpt>
      <trkpt lat="48.51659" lon="7.19377">
        <ele>729</ele>
        <time>2021-02-21T12:01:25.325Z</time>
      </trkpt>
      <trkpt lat="48.51659" lon="7.19375">
        <ele>728</ele>
        <time>2021-02-21T12:01:26.325Z</time>
      </trkpt>
      <trkpt lat="48.51659" lon="7.19372">
        <ele>728</ele>
        <time>2021-02-21T12:01:27.325Z</time>
      </trkpt>
      <trkpt lat="48.51659" lon="7.1937">
        <ele>729</ele>
        <time>2021-02-21T12:01:28.325Z</time>
      </trkpt>
      <trkpt lat="48.5166" lon="7.19368">
        <ele>729</ele>
        <time>2021-02-21T12:01:29.325Z</time>
      </trkpt>
      <trkpt lat="48.51661" lon="7.19365">
        <ele>729</ele>
        <time>2021-02-21T12:01:30.324Z</time>
      </trkpt>
      <trkpt lat="48.51662" lon="7.19364">
        <ele>730</ele>
        <time>2021-02-21T12:01:31.325Z</time>
      </trkpt>
      <trkpt lat="48.51662" lon="7.19362">
        <ele>731</ele>
        <time>2021-02-21T12:01:32.325Z</time>
      </trkpt>
      <trkpt lat="48.51663" lon="7.19359">
        <ele>731</ele>
        <time>2021-02-21T12:01:33.325Z</time>
      </trkpt>
      <trkpt lat="48.51663" lon="7.19357">
        <ele>732</ele>
        <time>2021-02-21T12:01:34.324Z</time>
      </trkpt>
      <trkpt lat="48.51663" lon="7.19356">
        <ele>732</ele>
        <time>2021-02-21T12:01:35.325Z</time>
      </trkpt>
      <trkpt lat="48.51663" lon="7.19354">
        <ele>732</ele>
        <time>2021-02-21T12:01:36.325Z</time>
      </trkpt>
      <trkpt lat="48.51663" lon="7.19352">
        <ele>732</ele>
        <time>2021-02-21T12:01:37.325Z</time>
      </trkpt>
      <trkpt lat="48.51664" lon="7.1935">
        <ele>732</ele>
        <time>2021-02-21T12:01:38.325Z</time>
      </trkpt>
      <trkpt lat="48.51664" lon="7.19348">
        <ele>732</ele>
        <time>2021-02-21T12:01:39.325Z</time>
      </trkpt>
      <trkpt lat="48.51665" lon="7.19346">
        <ele>733</ele>
        <time>2021-02-21T12:01:40.325Z</time>
      </trkpt>
      <trkpt lat="48.51665" lon="7.19344">
        <ele>733</ele>
        <time>2021-02-21T12:01:41.325Z</time>
      </trkpt>
      <trkpt lat="48.51665" lon="7.19341">
        <ele>733</ele>
        <time>2021-02-21T12:01:42.325Z</time>
      </trkpt>
      <trkpt lat="48.51665" lon="7.19339">
        <ele>733</ele>
        <time>2021-02-21T12:01:43.325Z</time>
      </trkpt>
      <trkpt lat="48.51665" lon="7.19338">
        <ele>733</ele>
        <time>2021-02-21T12:01:44.325Z</time>
      </trkpt>
      <trkpt lat="48.51665" lon="7.19336">
        <ele>733</ele>
        <time>2021-02-21T12:01:45.325Z</time>
      </trkpt>
      <trkpt lat="48.51665" lon="7.19334">
        <ele>733</ele>
        <time>2021-02-21T12:01:46.325Z</time>
      </trkpt>
      <trkpt lat="48.51665" lon="7.19332">
        <ele>733</ele>
        <time>2021-02-21T12:01:47.325Z</time>
      </trkpt>
      <trkpt lat="48.51664" lon="7.1933">
        <ele>733</ele>
        <time>2021-02-21T12:01:48.325Z</time>
      </trkpt>
      <trkpt lat="48.51664" lon="7.19328">
        <ele>733</ele>
        <time>2021-02-21T12:01:49.325Z</time>
      </trkpt>
      <trkpt lat="48.51664" lon="7.19326">
        <ele>733</ele>
        <time>2021-02-21T12:01:50.324Z</time>
      </trkpt>
      <trkpt lat="48.51664" lon="7.19325">
        <ele>734</ele>
        <time>2021-02-21T12:01:51.324Z</time>
      </trkpt>
      <trkpt lat="48.51664" lon="7.19323">
        <ele>734</ele>
        <time>2021-02-21T12:01:52.325Z</time>
      </trkpt>
      <trkpt lat="48.51664" lon="7.19321">
        <ele>735</ele>
        <time>2021-02-21T12:01:53.325Z</time>
      </trkpt>
      <trkpt lat="48.51664" lon="7.19319">
        <ele>735</ele>
        <time>2021-02-21T12:01:54.324Z</time>
      </trkpt>
      <trkpt lat="48.51664" lon="7.19317">
        <ele>736</ele>
        <time>2021-02-21T12:01:55.325Z</time>
      </trkpt>
      <trkpt lat="48.51664" lon="7.19315">
        <ele>736</ele>
        <time>2021-02-21T12:01:56.325Z</time>
      </trkpt>
      <trkpt lat="48.51664" lon="7.19313">
        <ele>736</ele>
        <time>2021-02-21T12:01:57.325Z</time>
      </trkpt>
      <trkpt lat="48.51664" lon="7.19312">
        <ele>737</ele>
        <time>2021-02-21T12:01:58.325Z</time>
      </trkpt>
      <trkpt lat="48.51663" lon="7.1931">
        <ele>737</ele>
        <time>2021-02-21T12:01:59.325Z</time>
      </trkpt>
      <trkpt lat="48.51662" lon="7.19308">
        <ele>737</ele>
        <time>2021-02-21T12:02:00.325Z</time>
      </trkpt>
      <trkpt lat="48.51662" lon="7.19306">
        <ele>737</ele>
        <time>2021-02-21T12:02:01.325Z</time>
      </trkpt>
      <trkpt lat="48.51662" lon="7.19305">
        <ele>737</ele>
        <time>2021-02-21T12:02:02.325Z</time>
      </trkpt>
      <trkpt lat="48.51662" lon="7.19303">
        <ele>737</ele>
        <time>2021-02-21T12:02:03.325Z</time>
      </trkpt>
      <trkpt lat="48.51661" lon="7.19301">
        <ele>737</ele>
        <time>2021-02-21T12:02:04.325Z</time>
      </trkpt>
      <trkpt lat="48.51661" lon="7.193">
        <ele>737</ele>
        <time>2021-02-21T12:02:05.325Z</time>
      </trkpt>
      <trkpt lat="48.51659" lon="7.19297">
        <ele>737</ele>
        <time>2021-02-21T12:02:06.324Z</time>
      </trkpt>
      <trkpt lat="48.51659" lon="7.19297">
        <ele>737</ele>
        <time>2021-02-21T12:02:07.325Z</time>
      </trkpt>
      <trkpt lat="48.51659" lon="7.19297">
        <ele>737</ele>
        <time>2021-02-21T12:02:08.325Z</time>
      </trkpt>
      <trkpt lat="48.51658" lon="7.19297">
        <ele>737</ele>
        <time>2021-02-21T12:02:09.325Z</time>
      </trkpt>
      <trkpt lat="48.51657" lon="7.19296">
        <ele>737</ele>
        <time>2021-02-21T12:02:10.325Z</time>
      </trkpt>
      <trkpt lat="48.51656" lon="7.19295">
        <ele>737</ele>
        <time>2021-02-21T12:02:11.324Z</time>
      </trkpt>
      <trkpt lat="48.51656" lon="7.19293">
        <ele>736</ele>
        <time>2021-02-21T12:02:12.325Z</time>
      </trkpt>
      <trkpt lat="48.51656" lon="7.19292">
        <ele>736</ele>
        <time>2021-02-21T12:02:13.324Z</time>
      </trkpt>
      <trkpt lat="48.51655" lon="7.1929">
        <ele>735</ele>
        <time>2021-02-21T12:02:14.325Z</time>
      </trkpt>
      <trkpt lat="48.51655" lon="7.19289">
        <ele>735</ele>
        <time>2021-02-21T12:02:15.325Z</time>
      </trkpt>
      <trkpt lat="48.51654" lon="7.19287">
        <ele>735</ele>
        <time>2021-02-21T12:02:16.325Z</time>
      </trkpt>
      <trkpt lat="48.51654" lon="7.19286">
        <ele>734</ele>
        <time>2021-02-21T12:02:17.324Z</time>
      </trkpt>
      <trkpt lat="48.51654" lon="7.19284">
        <ele>735</ele>
        <time>2021-02-21T12:02:18.324Z</time>
      </trkpt>
      <trkpt lat="48.51653" lon="7.19283">
        <ele>735</ele>
        <time>2021-02-21T12:02:19.325Z</time>
      </trkpt>
      <trkpt lat="48.51652" lon="7.19281">
        <ele>735</ele>
        <time>2021-02-21T12:02:20.325Z</time>
      </trkpt>
      <trkpt lat="48.51652" lon="7.19279">
        <ele>736</ele>
        <time>2021-02-21T12:02:21.325Z</time>
      </trkpt>
      <trkpt lat="48.51652" lon="7.19277">
        <ele>736</ele>
        <time>2021-02-21T12:02:22.325Z</time>
      </trkpt>
      <trkpt lat="48.51652" lon="7.19276">
        <ele>736</ele>
        <time>2021-02-21T12:02:23.324Z</time>
      </trkpt>
      <trkpt lat="48.51652" lon="7.19275">
        <ele>735</ele>
        <time>2021-02-21T12:02:24.325Z</time>
      </trkpt>
      <trkpt lat="48.51652" lon="7.19274">
        <ele>736</ele>
        <time>2021-02-21T12:02:25.325Z</time>
      </trkpt>
      <trkpt lat="48.51652" lon="7.19272">
        <ele>736</ele>
        <time>2021-02-21T12:02:26.325Z</time>
      </trkpt>
      <trkpt lat="48.51651" lon="7.19271">
        <ele>736</ele>
        <time>2021-02-21T12:02:27.325Z</time>
      </trkpt>
      <trkpt lat="48.51651" lon="7.19269">
        <ele>736</ele>
        <time>2021-02-21T12:02:28.325Z</time>
      </trkpt>
      <trkpt lat="48.51651" lon="7.19268">
        <ele>736</ele>
        <time>2021-02-21T12:02:29.324Z</time>
      </trkpt>
      <trkpt lat="48.51649" lon="7.19265">
        <ele>735</ele>
        <time>2021-02-21T12:02:30.324Z</time>
      </trkpt>
      <trkpt lat="48.51649" lon="7.19263">
        <ele>735</ele>
        <time>2021-02-21T12:02:31.324Z</time>
      </trkpt>
      <trkpt lat="48.51649" lon="7.19261">
        <ele>735</ele>
        <time>2021-02-21T12:02:32.324Z</time>
      </trkpt>
      <trkpt lat="48.51649" lon="7.1926">
        <ele>735</ele>
        <time>2021-02-21T12:02:33.324Z</time>
      </trkpt>
      <trkpt lat="48.51649" lon="7.19259">
        <ele>735</ele>
        <time>2021-02-21T12:02:34.324Z</time>
      </trkpt>
      <trkpt lat="48.51649" lon="7.19258">
        <ele>734</ele>
        <time>2021-02-21T12:02:35.324Z</time>
      </trkpt>
      <trkpt lat="48.51649" lon="7.19258">
        <ele>733</ele>
        <time>2021-02-21T12:02:36.325Z</time>
      </trkpt>
      <trkpt lat="48.51646" lon="7.19257">
        <ele>731</ele>
        <time>2021-02-21T12:02:37.326Z</time>
      </trkpt>
      <trkpt lat="48.51646" lon="7.19256">
        <ele>730</ele>
        <time>2021-02-21T12:02:38.326Z</time>
      </trkpt>
      <trkpt lat="48.51646" lon="7.19255">
        <ele>729</ele>
        <time>2021-02-21T12:02:39.325Z</time>
      </trkpt>
      <trkpt lat="48.51646" lon="7.19254">
        <ele>729</ele>
        <time>2021-02-21T12:02:40.326Z</time>
      </trkpt>
      <trkpt lat="48.51646" lon="7.19252">
        <ele>729</ele>
        <time>2021-02-21T12:02:41.326Z</time>
      </trkpt>
      <trkpt lat="48.51646" lon="7.19251">
        <ele>729</ele>
        <time>2021-02-21T12:02:42.326Z</time>
      </trkpt>
      <trkpt lat="48.51646" lon="7.1925">
        <ele>729</ele>
        <time>2021-02-21T12:02:43.326Z</time>
      </trkpt>
      <trkpt lat="48.51646" lon="7.19249">
        <ele>729</ele>
        <time>2021-02-21T12:02:44.326Z</time>
      </trkpt>
      <trkpt lat="48.51646" lon="7.19248">
        <ele>729</ele>
        <time>2021-02-21T12:02:45.326Z</time>
      </trkpt>
      <trkpt lat="48.51646" lon="7.19247">
        <ele>729</ele>
        <time>2021-02-21T12:02:46.326Z</time>
      </trkpt>
      <trkpt lat="48.51646" lon="7.19246">
        <ele>729</ele>
        <time>2021-02-21T12:02:47.326Z</time>
      </trkpt>
      <trkpt lat="48.51645" lon="7.19245">
        <ele>730</ele>
        <time>2021-02-21T12:02:48.326Z</time>
      </trkpt>
      <trkpt lat="48.51645" lon="7.19244">
        <ele>730</ele>
        <time>2021-02-21T12:02:49.325Z</time>
      </trkpt>
      <trkpt lat="48.51645" lon="7.19244">
        <ele>731</ele>
        <time>2021-02-21T12:02:50.326Z</time>
      </trkpt>
      <trkpt lat="48.51644" lon="7.19243">
        <ele>731</ele>
        <time>2021-02-21T12:02:51.325Z</time>
      </trkpt>
      <trkpt lat="48.51642" lon="7.19241">
        <ele>732</ele>
        <time>2021-02-21T12:02:52.325Z</time>
      </trkpt>
      <trkpt lat="48.51642" lon="7.1924">
        <ele>732</ele>
        <time>2021-02-21T12:02:53.326Z</time>
      </trkpt>
      <trkpt lat="48.51643" lon="7.19239">
        <ele>733</ele>
        <time>2021-02-21T12:02:54.326Z</time>
      </trkpt>
      <trkpt lat="48.51644" lon="7.19238">
        <ele>733</ele>
        <time>2021-02-21T12:02:55.325Z</time>
      </trkpt>
      <trkpt lat="48.51644" lon="7.19237">
        <ele>734</ele>
        <time>2021-02-21T12:02:56.326Z</time>
      </trkpt>
      <trkpt lat="48.51644" lon="7.19237">
        <ele>734</ele>
        <time>2021-02-21T12:02:57.326Z</time>
      </trkpt>
      <trkpt lat="48.51644" lon="7.19236">
        <ele>735</ele>
        <time>2021-02-21T12:02:58.326Z</time>
      </trkpt>
      <trkpt lat="48.51642" lon="7.19235">
        <ele>735</ele>
        <time>2021-02-21T12:02:59.326Z</time>
      </trkpt>
      <trkpt lat="48.51642" lon="7.19234">
        <ele>735</ele>
        <time>2021-02-21T12:03:00.326Z</time>
      </trkpt>
      <trkpt lat="48.51642" lon="7.19233">
        <ele>736</ele>
        <time>2021-02-21T12:03:01.326Z</time>
      </trkpt>
      <trkpt lat="48.51642" lon="7.19233">
        <ele>736</ele>
        <time>2021-02-21T12:03:02.326Z</time>
      </trkpt>
      <trkpt lat="48.51642" lon="7.19232">
        <ele>736</ele>
        <time>2021-02-21T12:03:03.326Z</time>
      </trkpt>
      <trkpt lat="48.51643" lon="7.19231">
        <ele>736</ele>
        <time>2021-02-21T12:03:04.325Z</time>
      </trkpt>
      <trkpt lat="48.51644" lon="7.19231">
        <ele>736</ele>
        <time>2021-02-21T12:03:05.326Z</time>
      </trkpt>
      <trkpt lat="48.51644" lon="7.1923">
        <ele>735</ele>
        <time>2021-02-21T12:03:06.327Z</time>
      </trkpt>
      <trkpt lat="48.51644" lon="7.19229">
        <ele>735</ele>
        <time>2021-02-21T12:03:07.327Z</time>
      </trkpt>
      <trkpt lat="48.51646" lon="7.19227">
        <ele>738</ele>
        <time>2021-02-21T12:03:08.327Z</time>
      </trkpt>
      <trkpt lat="48.51646" lon="7.19227">
        <ele>739</ele>
        <time>2021-02-21T12:03:09.328Z</time>
      </trkpt>
      <trkpt lat="48.51645" lon="7.19228">
        <ele>740</ele>
        <time>2021-02-21T12:03:10.328Z</time>
      </trkpt>
      <trkpt lat="48.5165" lon="7.19227">
        <ele>751</ele>
        <time>2021-02-21T12:03:11.328Z</time>
      </trkpt>
      <trkpt lat="48.5165" lon="7.19225">
        <ele>751</ele>
        <time>2021-02-21T12:03:12.329Z</time>
      </trkpt>
      <trkpt lat="48.51649" lon="7.19223">
        <ele>751</ele>
        <time>2021-02-21T12:03:13.328Z</time>
      </trkpt>
      <trkpt lat="48.51648" lon="7.1922">
        <ele>751</ele>
        <time>2021-02-21T12:03:14.328Z</time>
      </trkpt>
      <trkpt lat="48.51647" lon="7.19218">
        <ele>751</ele>
        <time>2021-02-21T12:03:15.329Z</time>
      </trkpt>
      <trkpt lat="48.51646" lon="7.19216">
        <ele>750</ele>
        <time>2021-02-21T12:03:16.328Z</time>
      </trkpt>
      <trkpt lat="48.51646" lon="7.19214">
        <ele>750</ele>
        <time>2021-02-21T12:03:17.329Z</time>
      </trkpt>
      <trkpt lat="48.51645" lon="7.19211">
        <ele>750</ele>
        <time>2021-02-21T12:03:18.329Z</time>
      </trkpt>
      <trkpt lat="48.51645" lon="7.19209">
        <ele>750</ele>
        <time>2021-02-21T12:03:19.329Z</time>
      </trkpt>
      <trkpt lat="48.51644" lon="7.19206">
        <ele>750</ele>
        <time>2021-02-21T12:03:20.329Z</time>
      </trkpt>
      <trkpt lat="48.51643" lon="7.19204">
        <ele>750</ele>
        <time>2021-02-21T12:03:21.329Z</time>
      </trkpt>
      <trkpt lat="48.51643" lon="7.19201">
        <ele>749</ele>
        <time>2021-02-21T12:03:22.328Z</time>
      </trkpt>
      <trkpt lat="48.51643" lon="7.19199">
        <ele>749</ele>
        <time>2021-02-21T12:03:23.329Z</time>
      </trkpt>
      <trkpt lat="48.51642" lon="7.19197">
        <ele>750</ele>
        <time>2021-02-21T12:03:24.329Z</time>
      </trkpt>
      <trkpt lat="48.51642" lon="7.19195">
        <ele>750</ele>
        <time>2021-02-21T12:03:25.329Z</time>
      </trkpt>
      <trkpt lat="48.51642" lon="7.19192">
        <ele>750</ele>
        <time>2021-02-21T12:03:26.328Z</time>
      </trkpt>
      <trkpt lat="48.51642" lon="7.1919">
        <ele>749</ele>
        <time>2021-02-21T12:03:27.329Z</time>
      </trkpt>
      <trkpt lat="48.51641" lon="7.19188">
        <ele>749</ele>
        <time>2021-02-21T12:03:28.328Z</time>
      </trkpt>
      <trkpt lat="48.5164" lon="7.19186">
        <ele>749</ele>
        <time>2021-02-21T12:03:29.329Z</time>
      </trkpt>
      <trkpt lat="48.51639" lon="7.19184">
        <ele>748</ele>
        <time>2021-02-21T12:03:30.328Z</time>
      </trkpt>
      <trkpt lat="48.51638" lon="7.19182">
        <ele>748</ele>
        <time>2021-02-21T12:03:31.328Z</time>
      </trkpt>
      <trkpt lat="48.51638" lon="7.19181">
        <ele>748</ele>
        <time>2021-02-21T12:03:32.329Z</time>
      </trkpt>
      <trkpt lat="48.51637" lon="7.19179">
        <ele>748</ele>
        <time>2021-02-21T12:03:33.329Z</time>
      </trkpt>
      <trkpt lat="48.51637" lon="7.19178">
        <ele>747</ele>
        <time>2021-02-21T12:03:34.329Z</time>
      </trkpt>
      <trkpt lat="48.51637" lon="7.19177">
        <ele>747</ele>
        <time>2021-02-21T12:03:35.329Z</time>
      </trkpt>
      <trkpt lat="48.51636" lon="7.19175">
        <ele>747</ele>
        <time>2021-02-21T12:03:36.328Z</time>
      </trkpt>
      <trkpt lat="48.51636" lon="7.19174">
        <ele>747</ele>
        <time>2021-02-21T12:03:37.328Z</time>
      </trkpt>
      <trkpt lat="48.51636" lon="7.19172">
        <ele>747</ele>
        <time>2021-02-21T12:03:38.329Z</time>
      </trkpt>
      <trkpt lat="48.51635" lon="7.1917">
        <ele>747</ele>
        <time>2021-02-21T12:03:39.329Z</time>
      </trkpt>
      <trkpt lat="48.51635" lon="7.19168">
        <ele>747</ele>
        <time>2021-02-21T12:03:40.329Z</time>
      </trkpt>
      <trkpt lat="48.51634" lon="7.19167">
        <ele>747</ele>
        <time>2021-02-21T12:03:41.329Z</time>
      </trkpt>
      <trkpt lat="48.51634" lon="7.19165">
        <ele>748</ele>
        <time>2021-02-21T12:03:42.329Z</time>
      </trkpt>
      <trkpt lat="48.51634" lon="7.19162">
        <ele>748</ele>
        <time>2021-02-21T12:03:43.328Z</time>
      </trkpt>
      <trkpt lat="48.51634" lon="7.1916">
        <ele>748</ele>
        <time>2021-02-21T12:03:44.329Z</time>
      </trkpt>
      <trkpt lat="48.51633" lon="7.19157">
        <ele>749</ele>
        <time>2021-02-21T12:03:45.329Z</time>
      </trkpt>
      <trkpt lat="48.51632" lon="7.19154">
        <ele>749</ele>
        <time>2021-02-21T12:03:46.329Z</time>
      </trkpt>
      <trkpt lat="48.51632" lon="7.19152">
        <ele>749</ele>
        <time>2021-02-21T12:03:47.329Z</time>
      </trkpt>
      <trkpt lat="48.51631" lon="7.1915">
        <ele>748</ele>
        <time>2021-02-21T12:03:48.329Z</time>
      </trkpt>
      <trkpt lat="48.51631" lon="7.19148">
        <ele>748</ele>
        <time>2021-02-21T12:03:49.328Z</time>
      </trkpt>
      <trkpt lat="48.51631" lon="7.19147">
        <ele>747</ele>
        <time>2021-02-21T12:03:50.328Z</time>
      </trkpt>
      <trkpt lat="48.51632" lon="7.19145">
        <ele>747</ele>
        <time>2021-02-21T12:03:51.329Z</time>
      </trkpt>
      <trkpt lat="48.51632" lon="7.19143">
        <ele>747</ele>
        <time>2021-02-21T12:03:52.328Z</time>
      </trkpt>
      <trkpt lat="48.51632" lon="7.19141">
        <ele>747</ele>
        <time>2021-02-21T12:03:53.329Z</time>
      </trkpt>
      <trkpt lat="48.51631" lon="7.19139">
        <ele>747</ele>
        <time>2021-02-21T12:03:54.328Z</time>
      </trkpt>
      <trkpt lat="48.51631" lon="7.19137">
        <ele>747</ele>
        <time>2021-02-21T12:03:55.328Z</time>
      </trkpt>
      <trkpt lat="48.51631" lon="7.19135">
        <ele>747</ele>
        <time>2021-02-21T12:03:56.329Z</time>
      </trkpt>
      <trkpt lat="48.51631" lon="7.19132">
        <ele>747</ele>
        <time>2021-02-21T12:03:57.329Z</time>
      </trkpt>
      <trkpt lat="48.51631" lon="7.1913">
        <ele>747</ele>
        <time>2021-02-21T12:03:58.328Z</time>
      </trkpt>
      <trkpt lat="48.51631" lon="7.19128">
        <ele>747</ele>
        <time>2021-02-21T12:03:59.328Z</time>
      </trkpt>
      <trkpt lat="48.51631" lon="7.19126">
        <ele>747</ele>
        <time>2021-02-21T12:04:00.329Z</time>
      </trkpt>
      <trkpt lat="48.51631" lon="7.19123">
        <ele>747</ele>
        <time>2021-02-21T12:04:01.329Z</time>
      </trkpt>
      <trkpt lat="48.5163" lon="7.19121">
        <ele>748</ele>
        <time>2021-02-21T12:04:02.329Z</time>
      </trkpt>
      <trkpt lat="48.51629" lon="7.19119">
        <ele>748</ele>
        <time>2021-02-21T12:04:03.329Z</time>
      </trkpt>
      <trkpt lat="48.51628" lon="7.19117">
        <ele>748</ele>
        <time>2021-02-21T12:04:04.329Z</time>
      </trkpt>
      <trkpt lat="48.51628" lon="7.19116">
        <ele>748</ele>
        <time>2021-02-21T12:04:05.329Z</time>
      </trkpt>
      <trkpt lat="48.51626" lon="7.19114">
        <ele>748</ele>
        <time>2021-02-21T12:04:06.328Z</time>
      </trkpt>
      <trkpt lat="48.51625" lon="7.19113">
        <ele>748</ele>
        <time>2021-02-21T12:04:07.329Z</time>
      </trkpt>
      <trkpt lat="48.51624" lon="7.19111">
        <ele>749</ele>
        <time>2021-02-21T12:04:08.329Z</time>
      </trkpt>
      <trkpt lat="48.51623" lon="7.1911">
        <ele>749</ele>
        <time>2021-02-21T12:04:09.328Z</time>
      </trkpt>
      <trkpt lat="48.51622" lon="7.19108">
        <ele>749</ele>
        <time>2021-02-21T12:04:10.328Z</time>
      </trkpt>
      <trkpt lat="48.51622" lon="7.19107">
        <ele>749</ele>
        <time>2021-02-21T12:04:11.328Z</time>
      </trkpt>
      <trkpt lat="48.51622" lon="7.19105">
        <ele>749</ele>
        <time>2021-02-21T12:04:12.329Z</time>
      </trkpt>
      <trkpt lat="48.51622" lon="7.19104">
        <ele>749</ele>
        <time>2021-02-21T12:04:13.329Z</time>
      </trkpt>
      <trkpt lat="48.51622" lon="7.19102">
        <ele>750</ele>
        <time>2021-02-21T12:04:14.329Z</time>
      </trkpt>
      <trkpt lat="48.51621" lon="7.19099">
        <ele>750</ele>
        <time>2021-02-21T12:04:15.329Z</time>
      </trkpt>
      <trkpt lat="48.51621" lon="7.19098">
        <ele>749</ele>
        <time>2021-02-21T12:04:16.329Z</time>
      </trkpt>
      <trkpt lat="48.51621" lon="7.19096">
        <ele>749</ele>
        <time>2021-02-21T12:04:17.329Z</time>
      </trkpt>
      <trkpt lat="48.5162" lon="7.19095">
        <ele>749</ele>
        <time>2021-02-21T12:04:18.329Z</time>
      </trkpt>
      <trkpt lat="48.5162" lon="7.19093">
        <ele>750</ele>
        <time>2021-02-21T12:04:19.329Z</time>
      </trkpt>
      <trkpt lat="48.5162" lon="7.19091">
        <ele>750</ele>
        <time>2021-02-21T12:04:20.328Z</time>
      </trkpt>
      <trkpt lat="48.51619" lon="7.19089">
        <ele>751</ele>
        <time>2021-02-21T12:04:21.328Z</time>
      </trkpt>
      <trkpt lat="48.51618" lon="7.19087">
        <ele>751</ele>
        <time>2021-02-21T12:04:22.328Z</time>
      </trkpt>
      <trkpt lat="48.51618" lon="7.19086">
        <ele>751</ele>
        <time>2021-02-21T12:04:23.328Z</time>
      </trkpt>
      <trkpt lat="48.51618" lon="7.19084">
        <ele>751</ele>
        <time>2021-02-21T12:04:24.329Z</time>
      </trkpt>
      <trkpt lat="48.51618" lon="7.19082">
        <ele>751</ele>
        <time>2021-02-21T12:04:25.329Z</time>
      </trkpt>
      <trkpt lat="48.51618" lon="7.1908">
        <ele>751</ele>
        <time>2021-02-21T12:04:26.329Z</time>
      </trkpt>
      <trkpt lat="48.51618" lon="7.19078">
        <ele>751</ele>
        <time>2021-02-21T12:04:27.329Z</time>
      </trkpt>
      <trkpt lat="48.51617" lon="7.19076">
        <ele>752</ele>
        <time>2021-02-21T12:04:28.329Z</time>
      </trkpt>
      <trkpt lat="48.51617" lon="7.19074">
        <ele>752</ele>
        <time>2021-02-21T12:04:29.329Z</time>
      </trkpt>
      <trkpt lat="48.51617" lon="7.19073">
        <ele>752</ele>
        <time>2021-02-21T12:04:30.328Z</time>
      </trkpt>
      <trkpt lat="48.51617" lon="7.19072">
        <ele>753</ele>
        <time>2021-02-21T12:04:31.328Z</time>
      </trkpt>
      <trkpt lat="48.51617" lon="7.1907">
        <ele>753</ele>
        <time>2021-02-21T12:04:32.329Z</time>
      </trkpt>
      <trkpt lat="48.51617" lon="7.19068">
        <ele>754</ele>
        <time>2021-02-21T12:04:33.329Z</time>
      </trkpt>
      <trkpt lat="48.51616" lon="7.19066">
        <ele>754</ele>
        <time>2021-02-21T12:04:34.329Z</time>
      </trkpt>
      <trkpt lat="48.51616" lon="7.19064">
        <ele>754</ele>
        <time>2021-02-21T12:04:35.328Z</time>
      </trkpt>
      <trkpt lat="48.51616" lon="7.19062">
        <ele>753</ele>
        <time>2021-02-21T12:04:36.329Z</time>
      </trkpt>
      <trkpt lat="48.51616" lon="7.1906">
        <ele>753</ele>
        <time>2021-02-21T12:04:37.328Z</time>
      </trkpt>
      <trkpt lat="48.51616" lon="7.19058">
        <ele>752</ele>
        <time>2021-02-21T12:04:38.328Z</time>
      </trkpt>
      <trkpt lat="48.51616" lon="7.19057">
        <ele>752</ele>
        <time>2021-02-21T12:04:39.328Z</time>
      </trkpt>
      <trkpt lat="48.51616" lon="7.19055">
        <ele>751</ele>
        <time>2021-02-21T12:04:40.328Z</time>
      </trkpt>
      <trkpt lat="48.51615" lon="7.19053">
        <ele>751</ele>
        <time>2021-02-21T12:04:41.329Z</time>
      </trkpt>
      <trkpt lat="48.51615" lon="7.19052">
        <ele>750</ele>
        <time>2021-02-21T12:04:42.328Z</time>
      </trkpt>
      <trkpt lat="48.51615" lon="7.1905">
        <ele>750</ele>
        <time>2021-02-21T12:04:43.329Z</time>
      </trkpt>
      <trkpt lat="48.51614" lon="7.19048">
        <ele>750</ele>
        <time>2021-02-21T12:04:44.329Z</time>
      </trkpt>
      <trkpt lat="48.51614" lon="7.19046">
        <ele>750</ele>
        <time>2021-02-21T12:04:45.329Z</time>
      </trkpt>
      <trkpt lat="48.51613" lon="7.19044">
        <ele>750</ele>
        <time>2021-02-21T12:04:46.329Z</time>
      </trkpt>
      <trkpt lat="48.51613" lon="7.19042">
        <ele>750</ele>
        <time>2021-02-21T12:04:47.329Z</time>
      </trkpt>
      <trkpt lat="48.51613" lon="7.1904">
        <ele>750</ele>
        <time>2021-02-21T12:04:48.329Z</time>
      </trkpt>
      <trkpt lat="48.51614" lon="7.19038">
        <ele>750</ele>
        <time>2021-02-21T12:04:49.329Z</time>
      </trkpt>
      <trkpt lat="48.51614" lon="7.19036">
        <ele>750</ele>
        <time>2021-02-21T12:04:50.329Z</time>
      </trkpt>
      <trkpt lat="48.51613" lon="7.19035">
        <ele>750</ele>
        <time>2021-02-21T12:04:51.329Z</time>
      </trkpt>
      <trkpt lat="48.51613" lon="7.19033">
        <ele>750</ele>
        <time>2021-02-21T12:04:52.329Z</time>
      </trkpt>
      <trkpt lat="48.51613" lon="7.19031">
        <ele>750</ele>
        <time>2021-02-21T12:04:53.329Z</time>
      </trkpt>
      <trkpt lat="48.51612" lon="7.19029">
        <ele>750</ele>
        <time>2021-02-21T12:04:54.329Z</time>
      </trkpt>
      <trkpt lat="48.51612" lon="7.19028">
        <ele>750</ele>
        <time>2021-02-21T12:04:55.329Z</time>
      </trkpt>
      <trkpt lat="48.51612" lon="7.19026">
        <ele>750</ele>
        <time>2021-02-21T12:04:56.329Z</time>
      </trkpt>
      <trkpt lat="48.51611" lon="7.19024">
        <ele>750</ele>
        <time>2021-02-21T12:04:57.329Z</time>
      </trkpt>
      <trkpt lat="48.5161" lon="7.19022">
        <ele>750</ele>
        <time>2021-02-21T12:04:58.329Z</time>
      </trkpt>
      <trkpt lat="48.51609" lon="7.1902">
        <ele>750</ele>
        <time>2021-02-21T12:04:59.329Z</time>
      </trkpt>
      <trkpt lat="48.51608" lon="7.19018">
        <ele>750</ele>
        <time>2021-02-21T12:05:00.329Z</time>
      </trkpt>
      <trkpt lat="48.51608" lon="7.19016">
        <ele>750</ele>
        <time>2021-02-21T12:05:01.328Z</time>
      </trkpt>
      <trkpt lat="48.51607" lon="7.19014">
        <ele>750</ele>
        <time>2021-02-21T12:05:02.329Z</time>
      </trkpt>
      <trkpt lat="48.51607" lon="7.19013">
        <ele>751</ele>
        <time>2021-02-21T12:05:03.329Z</time>
      </trkpt>
      <trkpt lat="48.51607" lon="7.19011">
        <ele>751</ele>
        <time>2021-02-21T12:05:04.329Z</time>
      </trkpt>
      <trkpt lat="48.51606" lon="7.19009">
        <ele>752</ele>
        <time>2021-02-21T12:05:05.329Z</time>
      </trkpt>
      <trkpt lat="48.51605" lon="7.19007">
        <ele>752</ele>
        <time>2021-02-21T12:05:06.329Z</time>
      </trkpt>
      <trkpt lat="48.51605" lon="7.19004">
        <ele>752</ele>
        <time>2021-02-21T12:05:07.328Z</time>
      </trkpt>
      <trkpt lat="48.51605" lon="7.19002">
        <ele>752</ele>
        <time>2021-02-21T12:05:08.329Z</time>
      </trkpt>
      <trkpt lat="48.51605" lon="7.19">
        <ele>751</ele>
        <time>2021-02-21T12:05:09.328Z</time>
      </trkpt>
      <trkpt lat="48.51604" lon="7.18998">
        <ele>751</ele>
        <time>2021-02-21T12:05:10.329Z</time>
      </trkpt>
      <trkpt lat="48.51603" lon="7.18995">
        <ele>751</ele>
        <time>2021-02-21T12:05:11.329Z</time>
      </trkpt>
      <trkpt lat="48.51603" lon="7.18993">
        <ele>750</ele>
        <time>2021-02-21T12:05:12.328Z</time>
      </trkpt>
      <trkpt lat="48.51603" lon="7.18991">
        <ele>750</ele>
        <time>2021-02-21T12:05:13.328Z</time>
      </trkpt>
      <trkpt lat="48.51603" lon="7.1899">
        <ele>751</ele>
        <time>2021-02-21T12:05:14.329Z</time>
      </trkpt>
      <trkpt lat="48.51603" lon="7.18987">
        <ele>751</ele>
        <time>2021-02-21T12:05:15.329Z</time>
      </trkpt>
      <trkpt lat="48.51603" lon="7.18986">
        <ele>751</ele>
        <time>2021-02-21T12:05:16.329Z</time>
      </trkpt>
      <trkpt lat="48.51602" lon="7.18984">
        <ele>751</ele>
        <time>2021-02-21T12:05:17.329Z</time>
      </trkpt>
      <trkpt lat="48.51602" lon="7.18982">
        <ele>751</ele>
        <time>2021-02-21T12:05:18.329Z</time>
      </trkpt>
      <trkpt lat="48.51601" lon="7.1898">
        <ele>752</ele>
        <time>2021-02-21T12:05:19.329Z</time>
      </trkpt>
      <trkpt lat="48.516" lon="7.18979">
        <ele>752</ele>
        <time>2021-02-21T12:05:20.329Z</time>
      </trkpt>
      <trkpt lat="48.51599" lon="7.18978">
        <ele>752</ele>
        <time>2021-02-21T12:05:21.329Z</time>
      </trkpt>
      <trkpt lat="48.51598" lon="7.18976">
        <ele>753</ele>
        <time>2021-02-21T12:05:22.328Z</time>
      </trkpt>
      <trkpt lat="48.51597" lon="7.18975">
        <ele>753</ele>
        <time>2021-02-21T12:05:23.329Z</time>
      </trkpt>
      <trkpt lat="48.51597" lon="7.18974">
        <ele>754</ele>
        <time>2021-02-21T12:05:24.329Z</time>
      </trkpt>
      <trkpt lat="48.51596" lon="7.18972">
        <ele>754</ele>
        <time>2021-02-21T12:05:25.329Z</time>
      </trkpt>
      <trkpt lat="48.51596" lon="7.18971">
        <ele>755</ele>
        <time>2021-02-21T12:05:26.329Z</time>
      </trkpt>
      <trkpt lat="48.51595" lon="7.18969">
        <ele>756</ele>
        <time>2021-02-21T12:05:27.328Z</time>
      </trkpt>
      <trkpt lat="48.51595" lon="7.18967">
        <ele>757</ele>
        <time>2021-02-21T12:05:28.329Z</time>
      </trkpt>
      <trkpt lat="48.51594" lon="7.18965">
        <ele>757</ele>
        <time>2021-02-21T12:05:29.329Z</time>
      </trkpt>
      <trkpt lat="48.51593" lon="7.18964">
        <ele>758</ele>
        <time>2021-02-21T12:05:30.329Z</time>
      </trkpt>
      <trkpt lat="48.51592" lon="7.18961">
        <ele>759</ele>
        <time>2021-02-21T12:05:31.329Z</time>
      </trkpt>
      <trkpt lat="48.51592" lon="7.18959">
        <ele>759</ele>
        <time>2021-02-21T12:05:32.329Z</time>
      </trkpt>
      <trkpt lat="48.51592" lon="7.18958">
        <ele>759</ele>
        <time>2021-02-21T12:05:33.329Z</time>
      </trkpt>
      <trkpt lat="48.51591" lon="7.18957">
        <ele>759</ele>
        <time>2021-02-21T12:05:34.329Z</time>
      </trkpt>
      <trkpt lat="48.5159" lon="7.18955">
        <ele>759</ele>
        <time>2021-02-21T12:05:35.329Z</time>
      </trkpt>
      <trkpt lat="48.5159" lon="7.18954">
        <ele>759</ele>
        <time>2021-02-21T12:05:36.329Z</time>
      </trkpt>
      <trkpt lat="48.5159" lon="7.18952">
        <ele>758</ele>
        <time>2021-02-21T12:05:37.329Z</time>
      </trkpt>
      <trkpt lat="48.5159" lon="7.18951">
        <ele>758</ele>
        <time>2021-02-21T12:05:38.329Z</time>
      </trkpt>
      <trkpt lat="48.5159" lon="7.18949">
        <ele>758</ele>
        <time>2021-02-21T12:05:39.329Z</time>
      </trkpt>
      <trkpt lat="48.5159" lon="7.18947">
        <ele>758</ele>
        <time>2021-02-21T12:05:40.329Z</time>
      </trkpt>
      <trkpt lat="48.5159" lon="7.18945">
        <ele>758</ele>
        <time>2021-02-21T12:05:41.329Z</time>
      </trkpt>
      <trkpt lat="48.5159" lon="7.18943">
        <ele>758</ele>
        <time>2021-02-21T12:05:42.329Z</time>
      </trkpt>
      <trkpt lat="48.51589" lon="7.18941">
        <ele>758</ele>
        <time>2021-02-21T12:05:43.329Z</time>
      </trkpt>
      <trkpt lat="48.51589" lon="7.1894">
        <ele>758</ele>
        <time>2021-02-21T12:05:44.329Z</time>
      </trkpt>
      <trkpt lat="48.51588" lon="7.18938">
        <ele>758</ele>
        <time>2021-02-21T12:05:45.329Z</time>
      </trkpt>
      <trkpt lat="48.51588" lon="7.18936">
        <ele>758</ele>
        <time>2021-02-21T12:05:46.329Z</time>
      </trkpt>
      <trkpt lat="48.51588" lon="7.18934">
        <ele>758</ele>
        <time>2021-02-21T12:05:47.328Z</time>
      </trkpt>
      <trkpt lat="48.51587" lon="7.18933">
        <ele>758</ele>
        <time>2021-02-21T12:05:48.329Z</time>
      </trkpt>
      <trkpt lat="48.51587" lon="7.18932">
        <ele>758</ele>
        <time>2021-02-21T12:05:49.329Z</time>
      </trkpt>
      <trkpt lat="48.51586" lon="7.1893">
        <ele>758</ele>
        <time>2021-02-21T12:05:50.329Z</time>
      </trkpt>
      <trkpt lat="48.51585" lon="7.18928">
        <ele>758</ele>
        <time>2021-02-21T12:05:51.328Z</time>
      </trkpt>
      <trkpt lat="48.51584" lon="7.18925">
        <ele>758</ele>
        <time>2021-02-21T12:05:52.329Z</time>
      </trkpt>
      <trkpt lat="48.51584" lon="7.18923">
        <ele>758</ele>
        <time>2021-02-21T12:05:53.329Z</time>
      </trkpt>
      <trkpt lat="48.51584" lon="7.18921">
        <ele>758</ele>
        <time>2021-02-21T12:05:54.328Z</time>
      </trkpt>
      <trkpt lat="48.51583" lon="7.1892">
        <ele>758</ele>
        <time>2021-02-21T12:05:55.328Z</time>
      </trkpt>
      <trkpt lat="48.51583" lon="7.18918">
        <ele>758</ele>
        <time>2021-02-21T12:05:56.329Z</time>
      </trkpt>
      <trkpt lat="48.51583" lon="7.18916">
        <ele>757</ele>
        <time>2021-02-21T12:05:57.329Z</time>
      </trkpt>
      <trkpt lat="48.51583" lon="7.18914">
        <ele>757</ele>
        <time>2021-02-21T12:05:58.329Z</time>
      </trkpt>
      <trkpt lat="48.51583" lon="7.18913">
        <ele>757</ele>
        <time>2021-02-21T12:05:59.329Z</time>
      </trkpt>
      <trkpt lat="48.51583" lon="7.18912">
        <ele>757</ele>
        <time>2021-02-21T12:06:00.329Z</time>
      </trkpt>
      <trkpt lat="48.51583" lon="7.1891">
        <ele>757</ele>
        <time>2021-02-21T12:06:01.329Z</time>
      </trkpt>
      <trkpt lat="48.51583" lon="7.18909">
        <ele>757</ele>
        <time>2021-02-21T12:06:02.329Z</time>
      </trkpt>
      <trkpt lat="48.51582" lon="7.18907">
        <ele>757</ele>
        <time>2021-02-21T12:06:03.329Z</time>
      </trkpt>
      <trkpt lat="48.51581" lon="7.18906">
        <ele>757</ele>
        <time>2021-02-21T12:06:04.329Z</time>
      </trkpt>
      <trkpt lat="48.5158" lon="7.18904">
        <ele>758</ele>
        <time>2021-02-21T12:06:05.328Z</time>
      </trkpt>
      <trkpt lat="48.5158" lon="7.18902">
        <ele>758</ele>
        <time>2021-02-21T12:06:06.328Z</time>
      </trkpt>
      <trkpt lat="48.51579" lon="7.18899">
        <ele>758</ele>
        <time>2021-02-21T12:06:07.328Z</time>
      </trkpt>
      <trkpt lat="48.51579" lon="7.18898">
        <ele>758</ele>
        <time>2021-02-21T12:06:08.329Z</time>
      </trkpt>
      <trkpt lat="48.5158" lon="7.18895">
        <ele>758</ele>
        <time>2021-02-21T12:06:09.328Z</time>
      </trkpt>
      <trkpt lat="48.5158" lon="7.18893">
        <ele>759</ele>
        <time>2021-02-21T12:06:10.329Z</time>
      </trkpt>
      <trkpt lat="48.5158" lon="7.18891">
        <ele>759</ele>
        <time>2021-02-21T12:06:11.329Z</time>
      </trkpt>
      <trkpt lat="48.51579" lon="7.18889">
        <ele>759</ele>
        <time>2021-02-21T12:06:12.329Z</time>
      </trkpt>
      <trkpt lat="48.51579" lon="7.18887">
        <ele>759</ele>
        <time>2021-02-21T12:06:13.329Z</time>
      </trkpt>
      <trkpt lat="48.51578" lon="7.18886">
        <ele>759</ele>
        <time>2021-02-21T12:06:14.329Z</time>
      </trkpt>
      <trkpt lat="48.51577" lon="7.18883">
        <ele>759</ele>
        <time>2021-02-21T12:06:15.329Z</time>
      </trkpt>
      <trkpt lat="48.51577" lon="7.18882">
        <ele>759</ele>
        <time>2021-02-21T12:06:16.328Z</time>
      </trkpt>
      <trkpt lat="48.51577" lon="7.18881">
        <ele>759</ele>
        <time>2021-02-21T12:06:17.328Z</time>
      </trkpt>
      <trkpt lat="48.51578" lon="7.18881">
        <ele>759</ele>
        <time>2021-02-21T12:06:18.329Z</time>
      </trkpt>
      <trkpt lat="48.51578" lon="7.18881">
        <ele>759</ele>
        <time>2021-02-21T12:06:19.329Z</time>
      </trkpt>
      <trkpt lat="48.5158" lon="7.18879">
        <ele>759</ele>
        <time>2021-02-21T12:06:20.329Z</time>
      </trkpt>
      <trkpt lat="48.5158" lon="7.18878">
        <ele>760</ele>
        <time>2021-02-21T12:06:21.329Z</time>
      </trkpt>
      <trkpt lat="48.5158" lon="7.18877">
        <ele>760</ele>
        <time>2021-02-21T12:06:22.328Z</time>
      </trkpt>
      <trkpt lat="48.51579" lon="7.18876">
        <ele>760</ele>
        <time>2021-02-21T12:06:23.329Z</time>
      </trkpt>
      <trkpt lat="48.51578" lon="7.18875">
        <ele>760</ele>
        <time>2021-02-21T12:06:24.329Z</time>
      </trkpt>
      <trkpt lat="48.51578" lon="7.18873">
        <ele>759</ele>
        <time>2021-02-21T12:06:25.329Z</time>
      </trkpt>
      <trkpt lat="48.51577" lon="7.18872">
        <ele>759</ele>
        <time>2021-02-21T12:06:26.329Z</time>
      </trkpt>
      <trkpt lat="48.51577" lon="7.1887">
        <ele>759</ele>
        <time>2021-02-21T12:06:27.329Z</time>
      </trkpt>
      <trkpt lat="48.51576" lon="7.18869">
        <ele>759</ele>
        <time>2021-02-21T12:06:28.329Z</time>
      </trkpt>
      <trkpt lat="48.51576" lon="7.18867">
        <ele>759</ele>
        <time>2021-02-21T12:06:29.329Z</time>
      </trkpt>
      <trkpt lat="48.51576" lon="7.18865">
        <ele>758</ele>
        <time>2021-02-21T12:06:30.329Z</time>
      </trkpt>
      <trkpt lat="48.51575" lon="7.18864">
        <ele>758</ele>
        <time>2021-02-21T12:06:31.329Z</time>
      </trkpt>
      <trkpt lat="48.51574" lon="7.18862">
        <ele>758</ele>
        <time>2021-02-21T12:06:32.329Z</time>
      </trkpt>
      <trkpt lat="48.51574" lon="7.18861">
        <ele>759</ele>
        <time>2021-02-21T12:06:33.328Z</time>
      </trkpt>
      <trkpt lat="48.51573" lon="7.18859">
        <ele>759</ele>
        <time>2021-02-21T12:06:34.329Z</time>
      </trkpt>
      <trkpt lat="48.51573" lon="7.18857">
        <ele>759</ele>
        <time>2021-02-21T12:06:35.329Z</time>
      </trkpt>
      <trkpt lat="48.51572" lon="7.18856">
        <ele>759</ele>
        <time>2021-02-21T12:06:36.328Z</time>
      </trkpt>
      <trkpt lat="48.51571" lon="7.18854">
        <ele>759</ele>
        <time>2021-02-21T12:06:37.329Z</time>
      </trkpt>
      <trkpt lat="48.51571" lon="7.18853">
        <ele>759</ele>
        <time>2021-02-21T12:06:38.329Z</time>
      </trkpt>
      <trkpt lat="48.5157" lon="7.18851">
        <ele>759</ele>
        <time>2021-02-21T12:06:39.328Z</time>
      </trkpt>
      <trkpt lat="48.51569" lon="7.18849">
        <ele>759</ele>
        <time>2021-02-21T12:06:40.329Z</time>
      </trkpt>
      <trkpt lat="48.51569" lon="7.18847">
        <ele>759</ele>
        <time>2021-02-21T12:06:41.328Z</time>
      </trkpt>
      <trkpt lat="48.51568" lon="7.18845">
        <ele>758</ele>
        <time>2021-02-21T12:06:42.328Z</time>
      </trkpt>
      <trkpt lat="48.51567" lon="7.18843">
        <ele>758</ele>
        <time>2021-02-21T12:06:43.328Z</time>
      </trkpt>
      <trkpt lat="48.51567" lon="7.18841">
        <ele>758</ele>
        <time>2021-02-21T12:06:44.329Z</time>
      </trkpt>
      <trkpt lat="48.51567" lon="7.18839">
        <ele>757</ele>
        <time>2021-02-21T12:06:45.328Z</time>
      </trkpt>
      <trkpt lat="48.51567" lon="7.18838">
        <ele>757</ele>
        <time>2021-02-21T12:06:46.329Z</time>
      </trkpt>
      <trkpt lat="48.51566" lon="7.18836">
        <ele>758</ele>
        <time>2021-02-21T12:06:47.328Z</time>
      </trkpt>
      <trkpt lat="48.51565" lon="7.18835">
        <ele>758</ele>
        <time>2021-02-21T12:06:48.328Z</time>
      </trkpt>
      <trkpt lat="48.51565" lon="7.18833">
        <ele>759</ele>
        <time>2021-02-21T12:06:49.328Z</time>
      </trkpt>
      <trkpt lat="48.51564" lon="7.18831">
        <ele>760</ele>
        <time>2021-02-21T12:06:50.328Z</time>
      </trkpt>
      <trkpt lat="48.51564" lon="7.18829">
        <ele>760</ele>
        <time>2021-02-21T12:06:51.328Z</time>
      </trkpt>
      <trkpt lat="48.51563" lon="7.18827">
        <ele>761</ele>
        <time>2021-02-21T12:06:52.329Z</time>
      </trkpt>
      <trkpt lat="48.51563" lon="7.18825">
        <ele>761</ele>
        <time>2021-02-21T12:06:53.329Z</time>
      </trkpt>
      <trkpt lat="48.51562" lon="7.18824">
        <ele>762</ele>
        <time>2021-02-21T12:06:54.329Z</time>
      </trkpt>
      <trkpt lat="48.51561" lon="7.18822">
        <ele>763</ele>
        <time>2021-02-21T12:06:55.328Z</time>
      </trkpt>
      <trkpt lat="48.5156" lon="7.18821">
        <ele>763</ele>
        <time>2021-02-21T12:06:56.328Z</time>
      </trkpt>
      <trkpt lat="48.5156" lon="7.1882">
        <ele>763</ele>
        <time>2021-02-21T12:06:57.328Z</time>
      </trkpt>
      <trkpt lat="48.5156" lon="7.18818">
        <ele>763</ele>
        <time>2021-02-21T12:06:58.328Z</time>
      </trkpt>
      <trkpt lat="48.51559" lon="7.18817">
        <ele>763</ele>
        <time>2021-02-21T12:06:59.329Z</time>
      </trkpt>
      <trkpt lat="48.51559" lon="7.18815">
        <ele>762</ele>
        <time>2021-02-21T12:07:00.328Z</time>
      </trkpt>
      <trkpt lat="48.51559" lon="7.18814">
        <ele>762</ele>
        <time>2021-02-21T12:07:01.329Z</time>
      </trkpt>
      <trkpt lat="48.51559" lon="7.18812">
        <ele>762</ele>
        <time>2021-02-21T12:07:02.328Z</time>
      </trkpt>
      <trkpt lat="48.51558" lon="7.1881">
        <ele>761</ele>
        <time>2021-02-21T12:07:03.329Z</time>
      </trkpt>
      <trkpt lat="48.51559" lon="7.18809">
        <ele>761</ele>
        <time>2021-02-21T12:07:04.328Z</time>
      </trkpt>
      <trkpt lat="48.51559" lon="7.18807">
        <ele>762</ele>
        <time>2021-02-21T12:07:05.329Z</time>
      </trkpt>
      <trkpt lat="48.51558" lon="7.18807">
        <ele>762</ele>
        <time>2021-02-21T12:07:06.329Z</time>
      </trkpt>
      <trkpt lat="48.51558" lon="7.18806">
        <ele>762</ele>
        <time>2021-02-21T12:07:07.329Z</time>
      </trkpt>
      <trkpt lat="48.51557" lon="7.18803">
        <ele>763</ele>
        <time>2021-02-21T12:07:08.329Z</time>
      </trkpt>
      <trkpt lat="48.51557" lon="7.188">
        <ele>763</ele>
        <time>2021-02-21T12:07:09.329Z</time>
      </trkpt>
      <trkpt lat="48.51556" lon="7.18799">
        <ele>763</ele>
        <time>2021-02-21T12:07:10.329Z</time>
      </trkpt>
      <trkpt lat="48.51556" lon="7.18798">
        <ele>764</ele>
        <time>2021-02-21T12:07:11.329Z</time>
      </trkpt>
      <trkpt lat="48.51555" lon="7.18796">
        <ele>764</ele>
        <time>2021-02-21T12:07:12.329Z</time>
      </trkpt>
      <trkpt lat="48.51555" lon="7.18795">
        <ele>765</ele>
        <time>2021-02-21T12:07:13.328Z</time>
      </trkpt>
      <trkpt lat="48.51554" lon="7.18792">
        <ele>765</ele>
        <time>2021-02-21T12:07:14.329Z</time>
      </trkpt>
      <trkpt lat="48.51553" lon="7.18789">
        <ele>765</ele>
        <time>2021-02-21T12:07:15.328Z</time>
      </trkpt>
      <trkpt lat="48.51552" lon="7.18787">
        <ele>765</ele>
        <time>2021-02-21T12:07:16.328Z</time>
      </trkpt>
      <trkpt lat="48.51552" lon="7.18785">
        <ele>765</ele>
        <time>2021-02-21T12:07:17.329Z</time>
      </trkpt>
      <trkpt lat="48.51551" lon="7.18783">
        <ele>765</ele>
        <time>2021-02-21T12:07:18.328Z</time>
      </trkpt>
      <trkpt lat="48.5155" lon="7.18781">
        <ele>765</ele>
        <time>2021-02-21T12:07:19.329Z</time>
      </trkpt>
      <trkpt lat="48.5155" lon="7.1878">
        <ele>766</ele>
        <time>2021-02-21T12:07:20.328Z</time>
      </trkpt>
      <trkpt lat="48.51549" lon="7.18779">
        <ele>766</ele>
        <time>2021-02-21T12:07:21.328Z</time>
      </trkpt>
      <trkpt lat="48.51548" lon="7.18777">
        <ele>766</ele>
        <time>2021-02-21T12:07:22.329Z</time>
      </trkpt>
      <trkpt lat="48.51548" lon="7.18775">
        <ele>766</ele>
        <time>2021-02-21T12:07:23.329Z</time>
      </trkpt>
      <trkpt lat="48.51548" lon="7.18773">
        <ele>766</ele>
        <time>2021-02-21T12:07:24.329Z</time>
      </trkpt>
      <trkpt lat="48.51547" lon="7.1877">
        <ele>766</ele>
        <time>2021-02-21T12:07:25.329Z</time>
      </trkpt>
      <trkpt lat="48.51547" lon="7.18769">
        <ele>767</ele>
        <time>2021-02-21T12:07:26.329Z</time>
      </trkpt>
      <trkpt lat="48.51547" lon="7.18769">
        <ele>767</ele>
        <time>2021-02-21T12:07:27.328Z</time>
      </trkpt>
      <trkpt lat="48.51547" lon="7.18768">
        <ele>767</ele>
        <time>2021-02-21T12:07:28.328Z</time>
      </trkpt>
      <trkpt lat="48.51548" lon="7.18766">
        <ele>767</ele>
        <time>2021-02-21T12:07:29.329Z</time>
      </trkpt>
      <trkpt lat="48.51548" lon="7.18764">
        <ele>768</ele>
        <time>2021-02-21T12:07:30.328Z</time>
      </trkpt>
      <trkpt lat="48.51548" lon="7.18763">
        <ele>768</ele>
        <time>2021-02-21T12:07:31.329Z</time>
      </trkpt>
      <trkpt lat="48.51548" lon="7.18761">
        <ele>768</ele>
        <time>2021-02-21T12:07:32.329Z</time>
      </trkpt>
      <trkpt lat="48.51547" lon="7.1876">
        <ele>769</ele>
        <time>2021-02-21T12:07:33.328Z</time>
      </trkpt>
      <trkpt lat="48.51546" lon="7.18759">
        <ele>769</ele>
        <time>2021-02-21T12:07:34.329Z</time>
      </trkpt>
      <trkpt lat="48.51545" lon="7.18757">
        <ele>769</ele>
        <time>2021-02-21T12:07:35.328Z</time>
      </trkpt>
      <trkpt lat="48.51543" lon="7.18756">
        <ele>769</ele>
        <time>2021-02-21T12:07:36.328Z</time>
      </trkpt>
      <trkpt lat="48.51542" lon="7.18754">
        <ele>769</ele>
        <time>2021-02-21T12:07:37.329Z</time>
      </trkpt>
      <trkpt lat="48.51542" lon="7.18753">
        <ele>770</ele>
        <time>2021-02-21T12:07:38.329Z</time>
      </trkpt>
      <trkpt lat="48.51541" lon="7.18751">
        <ele>770</ele>
        <time>2021-02-21T12:07:39.329Z</time>
      </trkpt>
      <trkpt lat="48.5154" lon="7.1875">
        <ele>769</ele>
        <time>2021-02-21T12:07:40.329Z</time>
      </trkpt>
      <trkpt lat="48.5154" lon="7.18748">
        <ele>769</ele>
        <time>2021-02-21T12:07:41.329Z</time>
      </trkpt>
      <trkpt lat="48.51538" lon="7.18746">
        <ele>769</ele>
        <time>2021-02-21T12:07:42.329Z</time>
      </trkpt>
      <trkpt lat="48.51538" lon="7.18745">
        <ele>769</ele>
        <time>2021-02-21T12:07:43.328Z</time>
      </trkpt>
      <trkpt lat="48.51538" lon="7.18744">
        <ele>769</ele>
        <time>2021-02-21T12:07:44.328Z</time>
      </trkpt>
      <trkpt lat="48.51537" lon="7.18742">
        <ele>769</ele>
        <time>2021-02-21T12:07:45.328Z</time>
      </trkpt>
      <trkpt lat="48.51537" lon="7.18741">
        <ele>769</ele>
        <time>2021-02-21T12:07:46.328Z</time>
      </trkpt>
      <trkpt lat="48.51536" lon="7.1874">
        <ele>769</ele>
        <time>2021-02-21T12:07:47.328Z</time>
      </trkpt>
      <trkpt lat="48.51534" lon="7.18738">
        <ele>769</ele>
        <time>2021-02-21T12:07:48.329Z</time>
      </trkpt>
      <trkpt lat="48.51533" lon="7.18737">
        <ele>769</ele>
        <time>2021-02-21T12:07:49.329Z</time>
      </trkpt>
      <trkpt lat="48.51533" lon="7.18734">
        <ele>769</ele>
        <time>2021-02-21T12:07:50.329Z</time>
      </trkpt>
      <trkpt lat="48.51531" lon="7.18733">
        <ele>769</ele>
        <time>2021-02-21T12:07:51.329Z</time>
      </trkpt>
      <trkpt lat="48.51531" lon="7.18731">
        <ele>769</ele>
        <time>2021-02-21T12:07:52.329Z</time>
      </trkpt>
      <trkpt lat="48.5153" lon="7.18728">
        <ele>770</ele>
        <time>2021-02-21T12:07:53.329Z</time>
      </trkpt>
      <trkpt lat="48.51529" lon="7.18727">
        <ele>770</ele>
        <time>2021-02-21T12:07:54.329Z</time>
      </trkpt>
      <trkpt lat="48.51529" lon="7.18724">
        <ele>770</ele>
        <time>2021-02-21T12:07:55.329Z</time>
      </trkpt>
      <trkpt lat="48.51528" lon="7.18723">
        <ele>770</ele>
        <time>2021-02-21T12:07:56.329Z</time>
      </trkpt>
      <trkpt lat="48.51526" lon="7.18721">
        <ele>770</ele>
        <time>2021-02-21T12:07:57.329Z</time>
      </trkpt>
      <trkpt lat="48.51526" lon="7.18719">
        <ele>770</ele>
        <time>2021-02-21T12:07:58.328Z</time>
      </trkpt>
      <trkpt lat="48.51525" lon="7.18718">
        <ele>770</ele>
        <time>2021-02-21T12:07:59.329Z</time>
      </trkpt>
      <trkpt lat="48.51525" lon="7.18716">
        <ele>770</ele>
        <time>2021-02-21T12:08:00.329Z</time>
      </trkpt>
      <trkpt lat="48.51524" lon="7.18714">
        <ele>769</ele>
        <time>2021-02-21T12:08:01.329Z</time>
      </trkpt>
      <trkpt lat="48.51524" lon="7.18712">
        <ele>769</ele>
        <time>2021-02-21T12:08:02.329Z</time>
      </trkpt>
      <trkpt lat="48.51523" lon="7.18711">
        <ele>768</ele>
        <time>2021-02-21T12:08:03.329Z</time>
      </trkpt>
      <trkpt lat="48.51523" lon="7.18709">
        <ele>768</ele>
        <time>2021-02-21T12:08:04.329Z</time>
      </trkpt>
      <trkpt lat="48.51522" lon="7.18708">
        <ele>768</ele>
        <time>2021-02-21T12:08:05.328Z</time>
      </trkpt>
      <trkpt lat="48.51521" lon="7.18706">
        <ele>767</ele>
        <time>2021-02-21T12:08:06.329Z</time>
      </trkpt>
      <trkpt lat="48.51521" lon="7.18705">
        <ele>768</ele>
        <time>2021-02-21T12:08:07.328Z</time>
      </trkpt>
      <trkpt lat="48.5152" lon="7.18704">
        <ele>769</ele>
        <time>2021-02-21T12:08:08.329Z</time>
      </trkpt>
      <trkpt lat="48.51519" lon="7.18703">
        <ele>769</ele>
        <time>2021-02-21T12:08:09.329Z</time>
      </trkpt>
      <trkpt lat="48.51519" lon="7.18702">
        <ele>770</ele>
        <time>2021-02-21T12:08:10.328Z</time>
      </trkpt>
      <trkpt lat="48.51519" lon="7.187">
        <ele>771</ele>
        <time>2021-02-21T12:08:11.328Z</time>
      </trkpt>
      <trkpt lat="48.51518" lon="7.18699">
        <ele>772</ele>
        <time>2021-02-21T12:08:12.329Z</time>
      </trkpt>
      <trkpt lat="48.51517" lon="7.18696">
        <ele>772</ele>
        <time>2021-02-21T12:08:13.329Z</time>
      </trkpt>
      <trkpt lat="48.51516" lon="7.18694">
        <ele>772</ele>
        <time>2021-02-21T12:08:14.328Z</time>
      </trkpt>
      <trkpt lat="48.51515" lon="7.18692">
        <ele>773</ele>
        <time>2021-02-21T12:08:15.328Z</time>
      </trkpt>
      <trkpt lat="48.51515" lon="7.1869">
        <ele>773</ele>
        <time>2021-02-21T12:08:16.328Z</time>
      </trkpt>
      <trkpt lat="48.51515" lon="7.18688">
        <ele>772</ele>
        <time>2021-02-21T12:08:17.329Z</time>
      </trkpt>
      <trkpt lat="48.51514" lon="7.18687">
        <ele>772</ele>
        <time>2021-02-21T12:08:18.329Z</time>
      </trkpt>
      <trkpt lat="48.51513" lon="7.18685">
        <ele>772</ele>
        <time>2021-02-21T12:08:19.328Z</time>
      </trkpt>
      <trkpt lat="48.51513" lon="7.18684">
        <ele>773</ele>
        <time>2021-02-21T12:08:20.329Z</time>
      </trkpt>
      <trkpt lat="48.51512" lon="7.18683">
        <ele>773</ele>
        <time>2021-02-21T12:08:21.329Z</time>
      </trkpt>
      <trkpt lat="48.51512" lon="7.18681">
        <ele>773</ele>
        <time>2021-02-21T12:08:22.329Z</time>
      </trkpt>
      <trkpt lat="48.51512" lon="7.1868">
        <ele>773</ele>
        <time>2021-02-21T12:08:23.329Z</time>
      </trkpt>
      <trkpt lat="48.51511" lon="7.18678">
        <ele>773</ele>
        <time>2021-02-21T12:08:24.328Z</time>
      </trkpt>
      <trkpt lat="48.51511" lon="7.18677">
        <ele>773</ele>
        <time>2021-02-21T12:08:25.329Z</time>
      </trkpt>
      <trkpt lat="48.51511" lon="7.18676">
        <ele>772</ele>
        <time>2021-02-21T12:08:26.329Z</time>
      </trkpt>
      <trkpt lat="48.51512" lon="7.18674">
        <ele>772</ele>
        <time>2021-02-21T12:08:27.329Z</time>
      </trkpt>
      <trkpt lat="48.51512" lon="7.18672">
        <ele>771</ele>
        <time>2021-02-21T12:08:28.329Z</time>
      </trkpt>
      <trkpt lat="48.51512" lon="7.1867">
        <ele>771</ele>
        <time>2021-02-21T12:08:29.329Z</time>
      </trkpt>
      <trkpt lat="48.51511" lon="7.18668">
        <ele>771</ele>
        <time>2021-02-21T12:08:30.329Z</time>
      </trkpt>
      <trkpt lat="48.51511" lon="7.18666">
        <ele>771</ele>
        <time>2021-02-21T12:08:31.328Z</time>
      </trkpt>
      <trkpt lat="48.51512" lon="7.18664">
        <ele>771</ele>
        <time>2021-02-21T12:08:32.329Z</time>
      </trkpt>
      <trkpt lat="48.51512" lon="7.18663">
        <ele>772</ele>
        <time>2021-02-21T12:08:33.328Z</time>
      </trkpt>
      <trkpt lat="48.51512" lon="7.18662">
        <ele>772</ele>
        <time>2021-02-21T12:08:34.329Z</time>
      </trkpt>
      <trkpt lat="48.51512" lon="7.18661">
        <ele>772</ele>
        <time>2021-02-21T12:08:35.329Z</time>
      </trkpt>
      <trkpt lat="48.51512" lon="7.18659">
        <ele>772</ele>
        <time>2021-02-21T12:08:36.329Z</time>
      </trkpt>
      <trkpt lat="48.51511" lon="7.18657">
        <ele>772</ele>
        <time>2021-02-21T12:08:37.329Z</time>
      </trkpt>
      <trkpt lat="48.51511" lon="7.18655">
        <ele>772</ele>
        <time>2021-02-21T12:08:38.328Z</time>
      </trkpt>
      <trkpt lat="48.51511" lon="7.18653">
        <ele>772</ele>
        <time>2021-02-21T12:08:39.328Z</time>
      </trkpt>
      <trkpt lat="48.5151" lon="7.1865">
        <ele>772</ele>
        <time>2021-02-21T12:08:40.328Z</time>
      </trkpt>
      <trkpt lat="48.51509" lon="7.18649">
        <ele>772</ele>
        <time>2021-02-21T12:08:41.329Z</time>
      </trkpt>
      <trkpt lat="48.51509" lon="7.18647">
        <ele>772</ele>
        <time>2021-02-21T12:08:42.329Z</time>
      </trkpt>
      <trkpt lat="48.5151" lon="7.18645">
        <ele>772</ele>
        <time>2021-02-21T12:08:43.328Z</time>
      </trkpt>
      <trkpt lat="48.51509" lon="7.18644">
        <ele>772</ele>
        <time>2021-02-21T12:08:44.329Z</time>
      </trkpt>
      <trkpt lat="48.51509" lon="7.18643">
        <ele>772</ele>
        <time>2021-02-21T12:08:45.328Z</time>
      </trkpt>
      <trkpt lat="48.51508" lon="7.18641">
        <ele>772</ele>
        <time>2021-02-21T12:08:46.329Z</time>
      </trkpt>
      <trkpt lat="48.51507" lon="7.1864">
        <ele>772</ele>
        <time>2021-02-21T12:08:47.328Z</time>
      </trkpt>
      <trkpt lat="48.51506" lon="7.18638">
        <ele>772</ele>
        <time>2021-02-21T12:08:48.329Z</time>
      </trkpt>
      <trkpt lat="48.51506" lon="7.18637">
        <ele>772</ele>
        <time>2021-02-21T12:08:49.329Z</time>
      </trkpt>
      <trkpt lat="48.51506" lon="7.18636">
        <ele>772</ele>
        <time>2021-02-21T12:08:50.329Z</time>
      </trkpt>
      <trkpt lat="48.51506" lon="7.18634">
        <ele>772</ele>
        <time>2021-02-21T12:08:51.328Z</time>
      </trkpt>
      <trkpt lat="48.51505" lon="7.18633">
        <ele>771</ele>
        <time>2021-02-21T12:08:52.328Z</time>
      </trkpt>
      <trkpt lat="48.51505" lon="7.18631">
        <ele>771</ele>
        <time>2021-02-21T12:08:53.329Z</time>
      </trkpt>
      <trkpt lat="48.51506" lon="7.18629">
        <ele>771</ele>
        <time>2021-02-21T12:08:54.328Z</time>
      </trkpt>
      <trkpt lat="48.51506" lon="7.18628">
        <ele>771</ele>
        <time>2021-02-21T12:08:55.329Z</time>
      </trkpt>
      <trkpt lat="48.51505" lon="7.18626">
        <ele>772</ele>
        <time>2021-02-21T12:08:56.329Z</time>
      </trkpt>
      <trkpt lat="48.51505" lon="7.18624">
        <ele>772</ele>
        <time>2021-02-21T12:08:57.329Z</time>
      </trkpt>
      <trkpt lat="48.51505" lon="7.18623">
        <ele>772</ele>
        <time>2021-02-21T12:08:58.328Z</time>
      </trkpt>
      <trkpt lat="48.51505" lon="7.18622">
        <ele>772</ele>
        <time>2021-02-21T12:08:59.328Z</time>
      </trkpt>
      <trkpt lat="48.51504" lon="7.1862">
        <ele>772</ele>
        <time>2021-02-21T12:09:00.329Z</time>
      </trkpt>
      <trkpt lat="48.51504" lon="7.18619">
        <ele>772</ele>
        <time>2021-02-21T12:09:01.328Z</time>
      </trkpt>
      <trkpt lat="48.51503" lon="7.18617">
        <ele>772</ele>
        <time>2021-02-21T12:09:02.329Z</time>
      </trkpt>
      <trkpt lat="48.51503" lon="7.18616">
        <ele>772</ele>
        <time>2021-02-21T12:09:03.329Z</time>
      </trkpt>
      <trkpt lat="48.51502" lon="7.18614">
        <ele>772</ele>
        <time>2021-02-21T12:09:04.329Z</time>
      </trkpt>
      <trkpt lat="48.51501" lon="7.18613">
        <ele>772</ele>
        <time>2021-02-21T12:09:05.328Z</time>
      </trkpt>
      <trkpt lat="48.515" lon="7.18611">
        <ele>773</ele>
        <time>2021-02-21T12:09:06.329Z</time>
      </trkpt>
      <trkpt lat="48.51499" lon="7.18609">
        <ele>773</ele>
        <time>2021-02-21T12:09:07.329Z</time>
      </trkpt>
      <trkpt lat="48.51499" lon="7.18608">
        <ele>773</ele>
        <time>2021-02-21T12:09:08.329Z</time>
      </trkpt>
      <trkpt lat="48.51498" lon="7.18606">
        <ele>772</ele>
        <time>2021-02-21T12:09:09.329Z</time>
      </trkpt>
      <trkpt lat="48.51498" lon="7.18605">
        <ele>771</ele>
        <time>2021-02-21T12:09:10.329Z</time>
      </trkpt>
      <trkpt lat="48.51498" lon="7.18603">
        <ele>771</ele>
        <time>2021-02-21T12:09:11.329Z</time>
      </trkpt>
      <trkpt lat="48.51497" lon="7.18602">
        <ele>771</ele>
        <time>2021-02-21T12:09:12.328Z</time>
      </trkpt>
      <trkpt lat="48.51497" lon="7.186">
        <ele>771</ele>
        <time>2021-02-21T12:09:13.329Z</time>
      </trkpt>
      <trkpt lat="48.51496" lon="7.18599">
        <ele>771</ele>
        <time>2021-02-21T12:09:14.329Z</time>
      </trkpt>
      <trkpt lat="48.51496" lon="7.18596">
        <ele>771</ele>
        <time>2021-02-21T12:09:15.329Z</time>
      </trkpt>
      <trkpt lat="48.51495" lon="7.18594">
        <ele>771</ele>
        <time>2021-02-21T12:09:16.328Z</time>
      </trkpt>
      <trkpt lat="48.51495" lon="7.18593">
        <ele>771</ele>
        <time>2021-02-21T12:09:17.329Z</time>
      </trkpt>
      <trkpt lat="48.51495" lon="7.18591">
        <ele>772</ele>
        <time>2021-02-21T12:09:18.329Z</time>
      </trkpt>
      <trkpt lat="48.51494" lon="7.18589">
        <ele>772</ele>
        <time>2021-02-21T12:09:19.329Z</time>
      </trkpt>
      <trkpt lat="48.51493" lon="7.18587">
        <ele>772</ele>
        <time>2021-02-21T12:09:20.328Z</time>
      </trkpt>
      <trkpt lat="48.51492" lon="7.18585">
        <ele>773</ele>
        <time>2021-02-21T12:09:21.328Z</time>
      </trkpt>
      <trkpt lat="48.51492" lon="7.18583">
        <ele>773</ele>
        <time>2021-02-21T12:09:22.329Z</time>
      </trkpt>
      <trkpt lat="48.51492" lon="7.18581">
        <ele>773</ele>
        <time>2021-02-21T12:09:23.328Z</time>
      </trkpt>
      <trkpt lat="48.51491" lon="7.1858">
        <ele>773</ele>
        <time>2021-02-21T12:09:24.328Z</time>
      </trkpt>
      <trkpt lat="48.5149" lon="7.18578">
        <ele>773</ele>
        <time>2021-02-21T12:09:25.329Z</time>
      </trkpt>
      <trkpt lat="48.51489" lon="7.18576">
        <ele>773</ele>
        <time>2021-02-21T12:09:26.329Z</time>
      </trkpt>
      <trkpt lat="48.51487" lon="7.18575">
        <ele>774</ele>
        <time>2021-02-21T12:09:27.328Z</time>
      </trkpt>
      <trkpt lat="48.51487" lon="7.18574">
        <ele>774</ele>
        <time>2021-02-21T12:09:28.329Z</time>
      </trkpt>
      <trkpt lat="48.51487" lon="7.18572">
        <ele>774</ele>
        <time>2021-02-21T12:09:29.329Z</time>
      </trkpt>
      <trkpt lat="48.51488" lon="7.1857">
        <ele>773</ele>
        <time>2021-02-21T12:09:30.329Z</time>
      </trkpt>
      <trkpt lat="48.51488" lon="7.18569">
        <ele>773</ele>
        <time>2021-02-21T12:09:31.328Z</time>
      </trkpt>
      <trkpt lat="48.51488" lon="7.18567">
        <ele>773</ele>
        <time>2021-02-21T12:09:32.328Z</time>
      </trkpt>
      <trkpt lat="48.51487" lon="7.18566">
        <ele>773</ele>
        <time>2021-02-21T12:09:33.328Z</time>
      </trkpt>
      <trkpt lat="48.51487" lon="7.18565">
        <ele>773</ele>
        <time>2021-02-21T12:09:34.328Z</time>
      </trkpt>
      <trkpt lat="48.51486" lon="7.18564">
        <ele>773</ele>
        <time>2021-02-21T12:09:35.329Z</time>
      </trkpt>
      <trkpt lat="48.51485" lon="7.18562">
        <ele>773</ele>
        <time>2021-02-21T12:09:36.329Z</time>
      </trkpt>
      <trkpt lat="48.51485" lon="7.18561">
        <ele>772</ele>
        <time>2021-02-21T12:09:37.329Z</time>
      </trkpt>
      <trkpt lat="48.51484" lon="7.18559">
        <ele>772</ele>
        <time>2021-02-21T12:09:38.328Z</time>
      </trkpt>
      <trkpt lat="48.51483" lon="7.18558">
        <ele>772</ele>
        <time>2021-02-21T12:09:39.329Z</time>
      </trkpt>
      <trkpt lat="48.51482" lon="7.18557">
        <ele>772</ele>
        <time>2021-02-21T12:09:40.329Z</time>
      </trkpt>
      <trkpt lat="48.51482" lon="7.18555">
        <ele>772</ele>
        <time>2021-02-21T12:09:41.329Z</time>
      </trkpt>
      <trkpt lat="48.51481" lon="7.18554">
        <ele>772</ele>
        <time>2021-02-21T12:09:42.329Z</time>
      </trkpt>
      <trkpt lat="48.5148" lon="7.18553">
        <ele>772</ele>
        <time>2021-02-21T12:09:43.329Z</time>
      </trkpt>
      <trkpt lat="48.51482" lon="7.18551">
        <ele>772</ele>
        <time>2021-02-21T12:09:44.329Z</time>
      </trkpt>
      <trkpt lat="48.51481" lon="7.18549">
        <ele>771</ele>
        <time>2021-02-21T12:09:45.329Z</time>
      </trkpt>
      <trkpt lat="48.5148" lon="7.18548">
        <ele>772</ele>
        <time>2021-02-21T12:09:46.329Z</time>
      </trkpt>
      <trkpt lat="48.51479" lon="7.18546">
        <ele>772</ele>
        <time>2021-02-21T12:09:47.329Z</time>
      </trkpt>
      <trkpt lat="48.51478" lon="7.18546">
        <ele>772</ele>
        <time>2021-02-21T12:09:48.329Z</time>
      </trkpt>
      <trkpt lat="48.51477" lon="7.18545">
        <ele>772</ele>
        <time>2021-02-21T12:09:49.329Z</time>
      </trkpt>
      <trkpt lat="48.51476" lon="7.18544">
        <ele>772</ele>
        <time>2021-02-21T12:09:50.329Z</time>
      </trkpt>
      <trkpt lat="48.51476" lon="7.18543">
        <ele>773</ele>
        <time>2021-02-21T12:09:51.329Z</time>
      </trkpt>
      <trkpt lat="48.51475" lon="7.18541">
        <ele>773</ele>
        <time>2021-02-21T12:09:52.329Z</time>
      </trkpt>
      <trkpt lat="48.51475" lon="7.1854">
        <ele>773</ele>
        <time>2021-02-21T12:09:53.329Z</time>
      </trkpt>
      <trkpt lat="48.51474" lon="7.18539">
        <ele>773</ele>
        <time>2021-02-21T12:09:54.328Z</time>
      </trkpt>
      <trkpt lat="48.51473" lon="7.18538">
        <ele>774</ele>
        <time>2021-02-21T12:09:55.329Z</time>
      </trkpt>
      <trkpt lat="48.51472" lon="7.18537">
        <ele>774</ele>
        <time>2021-02-21T12:09:56.328Z</time>
      </trkpt>
      <trkpt lat="48.5147" lon="7.18536">
        <ele>775</ele>
        <time>2021-02-21T12:09:57.328Z</time>
      </trkpt>
      <trkpt lat="48.51469" lon="7.18534">
        <ele>775</ele>
        <time>2021-02-21T12:09:58.328Z</time>
      </trkpt>
      <trkpt lat="48.51468" lon="7.18533">
        <ele>776</ele>
        <time>2021-02-21T12:09:59.328Z</time>
      </trkpt>
      <trkpt lat="48.51467" lon="7.18532">
        <ele>776</ele>
        <time>2021-02-21T12:10:00.329Z</time>
      </trkpt>
      <trkpt lat="48.51466" lon="7.18531">
        <ele>776</ele>
        <time>2021-02-21T12:10:01.328Z</time>
      </trkpt>
      <trkpt lat="48.51464" lon="7.1853">
        <ele>776</ele>
        <time>2021-02-21T12:10:02.329Z</time>
      </trkpt>
      <trkpt lat="48.51464" lon="7.18528">
        <ele>777</ele>
        <time>2021-02-21T12:10:03.329Z</time>
      </trkpt>
      <trkpt lat="48.51465" lon="7.18526">
        <ele>777</ele>
        <time>2021-02-21T12:10:04.329Z</time>
      </trkpt>
      <trkpt lat="48.51464" lon="7.18524">
        <ele>777</ele>
        <time>2021-02-21T12:10:05.329Z</time>
      </trkpt>
      <trkpt lat="48.51463" lon="7.18522">
        <ele>777</ele>
        <time>2021-02-21T12:10:06.329Z</time>
      </trkpt>
      <trkpt lat="48.51462" lon="7.18521">
        <ele>777</ele>
        <time>2021-02-21T12:10:07.328Z</time>
      </trkpt>
      <trkpt lat="48.51462" lon="7.18519">
        <ele>778</ele>
        <time>2021-02-21T12:10:08.328Z</time>
      </trkpt>
      <trkpt lat="48.51463" lon="7.18517">
        <ele>777</ele>
        <time>2021-02-21T12:10:09.329Z</time>
      </trkpt>
      <trkpt lat="48.51462" lon="7.18515">
        <ele>777</ele>
        <time>2021-02-21T12:10:10.328Z</time>
      </trkpt>
      <trkpt lat="48.51462" lon="7.18514">
        <ele>777</ele>
        <time>2021-02-21T12:10:11.329Z</time>
      </trkpt>
      <trkpt lat="48.51462" lon="7.18512">
        <ele>777</ele>
        <time>2021-02-21T12:10:12.329Z</time>
      </trkpt>
      <trkpt lat="48.51462" lon="7.1851">
        <ele>777</ele>
        <time>2021-02-21T12:10:13.329Z</time>
      </trkpt>
      <trkpt lat="48.51462" lon="7.18508">
        <ele>777</ele>
        <time>2021-02-21T12:10:14.328Z</time>
      </trkpt>
      <trkpt lat="48.51461" lon="7.18507">
        <ele>777</ele>
        <time>2021-02-21T12:10:15.329Z</time>
      </trkpt>
      <trkpt lat="48.51461" lon="7.18505">
        <ele>777</ele>
        <time>2021-02-21T12:10:16.329Z</time>
      </trkpt>
      <trkpt lat="48.51461" lon="7.18504">
        <ele>777</ele>
        <time>2021-02-21T12:10:17.329Z</time>
      </trkpt>
      <trkpt lat="48.51461" lon="7.18502">
        <ele>777</ele>
        <time>2021-02-21T12:10:18.328Z</time>
      </trkpt>
      <trkpt lat="48.5146" lon="7.18501">
        <ele>778</ele>
        <time>2021-02-21T12:10:19.329Z</time>
      </trkpt>
      <trkpt lat="48.5146" lon="7.18499">
        <ele>778</ele>
        <time>2021-02-21T12:10:20.328Z</time>
      </trkpt>
      <trkpt lat="48.5146" lon="7.18498">
        <ele>778</ele>
        <time>2021-02-21T12:10:21.328Z</time>
      </trkpt>
      <trkpt lat="48.5146" lon="7.18497">
        <ele>779</ele>
        <time>2021-02-21T12:10:22.328Z</time>
      </trkpt>
      <trkpt lat="48.5146" lon="7.18495">
        <ele>780</ele>
        <time>2021-02-21T12:10:23.329Z</time>
      </trkpt>
      <trkpt lat="48.51459" lon="7.18494">
        <ele>781</ele>
        <time>2021-02-21T12:10:24.329Z</time>
      </trkpt>
      <trkpt lat="48.51459" lon="7.18492">
        <ele>781</ele>
        <time>2021-02-21T12:10:25.329Z</time>
      </trkpt>
      <trkpt lat="48.51459" lon="7.1849">
        <ele>782</ele>
        <time>2021-02-21T12:10:26.328Z</time>
      </trkpt>
      <trkpt lat="48.51458" lon="7.18487">
        <ele>782</ele>
        <time>2021-02-21T12:10:27.329Z</time>
      </trkpt>
      <trkpt lat="48.51458" lon="7.18485">
        <ele>782</ele>
        <time>2021-02-21T12:10:28.329Z</time>
      </trkpt>
      <trkpt lat="48.51458" lon="7.18483">
        <ele>782</ele>
        <time>2021-02-21T12:10:29.329Z</time>
      </trkpt>
      <trkpt lat="48.51458" lon="7.18482">
        <ele>782</ele>
        <time>2021-02-21T12:10:30.328Z</time>
      </trkpt>
      <trkpt lat="48.51459" lon="7.1848">
        <ele>782</ele>
        <time>2021-02-21T12:10:31.329Z</time>
      </trkpt>
      <trkpt lat="48.5146" lon="7.18478">
        <ele>782</ele>
        <time>2021-02-21T12:10:32.328Z</time>
      </trkpt>
      <trkpt lat="48.5146" lon="7.18476">
        <ele>782</ele>
        <time>2021-02-21T12:10:33.329Z</time>
      </trkpt>
      <trkpt lat="48.51461" lon="7.18474">
        <ele>782</ele>
        <time>2021-02-21T12:10:34.328Z</time>
      </trkpt>
      <trkpt lat="48.51461" lon="7.18472">
        <ele>782</ele>
        <time>2021-02-21T12:10:35.328Z</time>
      </trkpt>
      <trkpt lat="48.5146" lon="7.1847">
        <ele>782</ele>
        <time>2021-02-21T12:10:36.328Z</time>
      </trkpt>
      <trkpt lat="48.5146" lon="7.18469">
        <ele>782</ele>
        <time>2021-02-21T12:10:37.328Z</time>
      </trkpt>
      <trkpt lat="48.51459" lon="7.18467">
        <ele>783</ele>
        <time>2021-02-21T12:10:38.329Z</time>
      </trkpt>
      <trkpt lat="48.51459" lon="7.18465">
        <ele>783</ele>
        <time>2021-02-21T12:10:39.329Z</time>
      </trkpt>
      <trkpt lat="48.51459" lon="7.18464">
        <ele>783</ele>
        <time>2021-02-21T12:10:40.328Z</time>
      </trkpt>
      <trkpt lat="48.51459" lon="7.18463">
        <ele>783</ele>
        <time>2021-02-21T12:10:41.328Z</time>
      </trkpt>
      <trkpt lat="48.5146" lon="7.18461">
        <ele>783</ele>
        <time>2021-02-21T12:10:42.328Z</time>
      </trkpt>
      <trkpt lat="48.51459" lon="7.1846">
        <ele>783</ele>
        <time>2021-02-21T12:10:43.329Z</time>
      </trkpt>
      <trkpt lat="48.51459" lon="7.18458">
        <ele>783</ele>
        <time>2021-02-21T12:10:44.329Z</time>
      </trkpt>
      <trkpt lat="48.51459" lon="7.18457">
        <ele>783</ele>
        <time>2021-02-21T12:10:45.328Z</time>
      </trkpt>
      <trkpt lat="48.51458" lon="7.18455">
        <ele>783</ele>
        <time>2021-02-21T12:10:46.329Z</time>
      </trkpt>
      <trkpt lat="48.51457" lon="7.18454">
        <ele>783</ele>
        <time>2021-02-21T12:10:47.328Z</time>
      </trkpt>
      <trkpt lat="48.51456" lon="7.18452">
        <ele>783</ele>
        <time>2021-02-21T12:10:48.328Z</time>
      </trkpt>
      <trkpt lat="48.51454" lon="7.1845">
        <ele>784</ele>
        <time>2021-02-21T12:10:49.329Z</time>
      </trkpt>
      <trkpt lat="48.51453" lon="7.18449">
        <ele>784</ele>
        <time>2021-02-21T12:10:50.329Z</time>
      </trkpt>
      <trkpt lat="48.51451" lon="7.18447">
        <ele>784</ele>
        <time>2021-02-21T12:10:51.328Z</time>
      </trkpt>
      <trkpt lat="48.51449" lon="7.18447">
        <ele>784</ele>
        <time>2021-02-21T12:10:52.329Z</time>
      </trkpt>
      <trkpt lat="48.51448" lon="7.18445">
        <ele>785</ele>
        <time>2021-02-21T12:10:53.329Z</time>
      </trkpt>
      <trkpt lat="48.51447" lon="7.18444">
        <ele>785</ele>
        <time>2021-02-21T12:10:54.329Z</time>
      </trkpt>
      <trkpt lat="48.51447" lon="7.18441">
        <ele>785</ele>
        <time>2021-02-21T12:10:55.329Z</time>
      </trkpt>
      <trkpt lat="48.51446" lon="7.18439">
        <ele>785</ele>
        <time>2021-02-21T12:10:56.329Z</time>
      </trkpt>
      <trkpt lat="48.51446" lon="7.18438">
        <ele>785</ele>
        <time>2021-02-21T12:10:57.328Z</time>
      </trkpt>
      <trkpt lat="48.51446" lon="7.18436">
        <ele>786</ele>
        <time>2021-02-21T12:10:58.328Z</time>
      </trkpt>
      <trkpt lat="48.51446" lon="7.18434">
        <ele>786</ele>
        <time>2021-02-21T12:10:59.329Z</time>
      </trkpt>
      <trkpt lat="48.51446" lon="7.18431">
        <ele>786</ele>
        <time>2021-02-21T12:11:00.329Z</time>
      </trkpt>
      <trkpt lat="48.51445" lon="7.18429">
        <ele>787</ele>
        <time>2021-02-21T12:11:01.329Z</time>
      </trkpt>
      <trkpt lat="48.51444" lon="7.18426">
        <ele>788</ele>
        <time>2021-02-21T12:11:02.329Z</time>
      </trkpt>
      <trkpt lat="48.51443" lon="7.18423">
        <ele>788</ele>
        <time>2021-02-21T12:11:03.329Z</time>
      </trkpt>
      <trkpt lat="48.51442" lon="7.18421">
        <ele>789</ele>
        <time>2021-02-21T12:11:04.329Z</time>
      </trkpt>
      <trkpt lat="48.51441" lon="7.18419">
        <ele>790</ele>
        <time>2021-02-21T12:11:05.329Z</time>
      </trkpt>
      <trkpt lat="48.51441" lon="7.18417">
        <ele>791</ele>
        <time>2021-02-21T12:11:06.329Z</time>
      </trkpt>
      <trkpt lat="48.51441" lon="7.18414">
        <ele>792</ele>
        <time>2021-02-21T12:11:07.329Z</time>
      </trkpt>
      <trkpt lat="48.51441" lon="7.18412">
        <ele>792</ele>
        <time>2021-02-21T12:11:08.328Z</time>
      </trkpt>
      <trkpt lat="48.51441" lon="7.1841">
        <ele>793</ele>
        <time>2021-02-21T12:11:09.328Z</time>
      </trkpt>
      <trkpt lat="48.51441" lon="7.18408">
        <ele>793</ele>
        <time>2021-02-21T12:11:10.328Z</time>
      </trkpt>
      <trkpt lat="48.51441" lon="7.18407">
        <ele>794</ele>
        <time>2021-02-21T12:11:11.329Z</time>
      </trkpt>
      <trkpt lat="48.5144" lon="7.18406">
        <ele>794</ele>
        <time>2021-02-21T12:11:12.329Z</time>
      </trkpt>
      <trkpt lat="48.51439" lon="7.18404">
        <ele>794</ele>
        <time>2021-02-21T12:11:13.329Z</time>
      </trkpt>
      <trkpt lat="48.51439" lon="7.18403">
        <ele>795</ele>
        <time>2021-02-21T12:11:14.328Z</time>
      </trkpt>
      <trkpt lat="48.5144" lon="7.18401">
        <ele>795</ele>
        <time>2021-02-21T12:11:15.328Z</time>
      </trkpt>
      <trkpt lat="48.51439" lon="7.18399">
        <ele>795</ele>
        <time>2021-02-21T12:11:16.328Z</time>
      </trkpt>
      <trkpt lat="48.5144" lon="7.18398">
        <ele>795</ele>
        <time>2021-02-21T12:11:17.329Z</time>
      </trkpt>
      <trkpt lat="48.51439" lon="7.18396">
        <ele>795</ele>
        <time>2021-02-21T12:11:18.329Z</time>
      </trkpt>
      <trkpt lat="48.51439" lon="7.18394">
        <ele>795</ele>
        <time>2021-02-21T12:11:19.329Z</time>
      </trkpt>
      <trkpt lat="48.51439" lon="7.18392">
        <ele>795</ele>
        <time>2021-02-21T12:11:20.328Z</time>
      </trkpt>
      <trkpt lat="48.51439" lon="7.1839">
        <ele>795</ele>
        <time>2021-02-21T12:11:21.328Z</time>
      </trkpt>
      <trkpt lat="48.51439" lon="7.18388">
        <ele>795</ele>
        <time>2021-02-21T12:11:22.329Z</time>
      </trkpt>
      <trkpt lat="48.51439" lon="7.18385">
        <ele>795</ele>
        <time>2021-02-21T12:11:23.328Z</time>
      </trkpt>
      <trkpt lat="48.51438" lon="7.18384">
        <ele>795</ele>
        <time>2021-02-21T12:11:24.329Z</time>
      </trkpt>
      <trkpt lat="48.51438" lon="7.18381">
        <ele>795</ele>
        <time>2021-02-21T12:11:25.328Z</time>
      </trkpt>
      <trkpt lat="48.51437" lon="7.18379">
        <ele>795</ele>
        <time>2021-02-21T12:11:26.329Z</time>
      </trkpt>
      <trkpt lat="48.51437" lon="7.18377">
        <ele>795</ele>
        <time>2021-02-21T12:11:27.329Z</time>
      </trkpt>
      <trkpt lat="48.51437" lon="7.18376">
        <ele>795</ele>
        <time>2021-02-21T12:11:28.329Z</time>
      </trkpt>
      <trkpt lat="48.51437" lon="7.18375">
        <ele>795</ele>
        <time>2021-02-21T12:11:29.329Z</time>
      </trkpt>
      <trkpt lat="48.51437" lon="7.18373">
        <ele>795</ele>
        <time>2021-02-21T12:11:30.329Z</time>
      </trkpt>
      <trkpt lat="48.51436" lon="7.18372">
        <ele>795</ele>
        <time>2021-02-21T12:11:31.329Z</time>
      </trkpt>
      <trkpt lat="48.51436" lon="7.1837">
        <ele>795</ele>
        <time>2021-02-21T12:11:32.329Z</time>
      </trkpt>
      <trkpt lat="48.51436" lon="7.18368">
        <ele>795</ele>
        <time>2021-02-21T12:11:33.329Z</time>
      </trkpt>
      <trkpt lat="48.51436" lon="7.18366">
        <ele>795</ele>
        <time>2021-02-21T12:11:34.328Z</time>
      </trkpt>
      <trkpt lat="48.51435" lon="7.18364">
        <ele>796</ele>
        <time>2021-02-21T12:11:35.329Z</time>
      </trkpt>
      <trkpt lat="48.51434" lon="7.18363">
        <ele>796</ele>
        <time>2021-02-21T12:11:36.329Z</time>
      </trkpt>
      <trkpt lat="48.51433" lon="7.18362">
        <ele>796</ele>
        <time>2021-02-21T12:11:37.329Z</time>
      </trkpt>
      <trkpt lat="48.51433" lon="7.1836">
        <ele>796</ele>
        <time>2021-02-21T12:11:38.329Z</time>
      </trkpt>
      <trkpt lat="48.51432" lon="7.18358">
        <ele>796</ele>
        <time>2021-02-21T12:11:39.329Z</time>
      </trkpt>
      <trkpt lat="48.51432" lon="7.18356">
        <ele>796</ele>
        <time>2021-02-21T12:11:40.329Z</time>
      </trkpt>
      <trkpt lat="48.51431" lon="7.18354">
        <ele>796</ele>
        <time>2021-02-21T12:11:41.328Z</time>
      </trkpt>
      <trkpt lat="48.51431" lon="7.18352">
        <ele>795</ele>
        <time>2021-02-21T12:11:42.329Z</time>
      </trkpt>
      <trkpt lat="48.5143" lon="7.1835">
        <ele>795</ele>
        <time>2021-02-21T12:11:43.328Z</time>
      </trkpt>
      <trkpt lat="48.51429" lon="7.18349">
        <ele>795</ele>
        <time>2021-02-21T12:11:44.328Z</time>
      </trkpt>
      <trkpt lat="48.51428" lon="7.18348">
        <ele>794</ele>
        <time>2021-02-21T12:11:45.328Z</time>
      </trkpt>
      <trkpt lat="48.51428" lon="7.18346">
        <ele>794</ele>
        <time>2021-02-21T12:11:46.329Z</time>
      </trkpt>
      <trkpt lat="48.51428" lon="7.18344">
        <ele>793</ele>
        <time>2021-02-21T12:11:47.329Z</time>
      </trkpt>
      <trkpt lat="48.51427" lon="7.18343">
        <ele>792</ele>
        <time>2021-02-21T12:11:48.329Z</time>
      </trkpt>
      <trkpt lat="48.51427" lon="7.18341">
        <ele>791</ele>
        <time>2021-02-21T12:11:49.329Z</time>
      </trkpt>
      <trkpt lat="48.51426" lon="7.1834">
        <ele>791</ele>
        <time>2021-02-21T12:11:50.329Z</time>
      </trkpt>
      <trkpt lat="48.51426" lon="7.18338">
        <ele>790</ele>
        <time>2021-02-21T12:11:51.329Z</time>
      </trkpt>
      <trkpt lat="48.51425" lon="7.18336">
        <ele>789</ele>
        <time>2021-02-21T12:11:52.329Z</time>
      </trkpt>
      <trkpt lat="48.51425" lon="7.18335">
        <ele>789</ele>
        <time>2021-02-21T12:11:53.328Z</time>
      </trkpt>
      <trkpt lat="48.51424" lon="7.18333">
        <ele>788</ele>
        <time>2021-02-21T12:11:54.329Z</time>
      </trkpt>
      <trkpt lat="48.51424" lon="7.18331">
        <ele>788</ele>
        <time>2021-02-21T12:11:55.329Z</time>
      </trkpt>
      <trkpt lat="48.51424" lon="7.1833">
        <ele>788</ele>
        <time>2021-02-21T12:11:56.329Z</time>
      </trkpt>
      <trkpt lat="48.51424" lon="7.18328">
        <ele>788</ele>
        <time>2021-02-21T12:11:57.329Z</time>
      </trkpt>
      <trkpt lat="48.51423" lon="7.18326">
        <ele>788</ele>
        <time>2021-02-21T12:11:58.329Z</time>
      </trkpt>
      <trkpt lat="48.51423" lon="7.18325">
        <ele>788</ele>
        <time>2021-02-21T12:11:59.329Z</time>
      </trkpt>
      <trkpt lat="48.51422" lon="7.18324">
        <ele>789</ele>
        <time>2021-02-21T12:12:00.329Z</time>
      </trkpt>
      <trkpt lat="48.51422" lon="7.18322">
        <ele>789</ele>
        <time>2021-02-21T12:12:01.329Z</time>
      </trkpt>
      <trkpt lat="48.51422" lon="7.1832">
        <ele>789</ele>
        <time>2021-02-21T12:12:02.329Z</time>
      </trkpt>
      <trkpt lat="48.51422" lon="7.18317">
        <ele>790</ele>
        <time>2021-02-21T12:12:03.328Z</time>
      </trkpt>
      <trkpt lat="48.51421" lon="7.18315">
        <ele>790</ele>
        <time>2021-02-21T12:12:04.329Z</time>
      </trkpt>
      <trkpt lat="48.51421" lon="7.18314">
        <ele>791</ele>
        <time>2021-02-21T12:12:05.329Z</time>
      </trkpt>
      <trkpt lat="48.51421" lon="7.18312">
        <ele>791</ele>
        <time>2021-02-21T12:12:06.329Z</time>
      </trkpt>
      <trkpt lat="48.51421" lon="7.18311">
        <ele>792</ele>
        <time>2021-02-21T12:12:07.329Z</time>
      </trkpt>
      <trkpt lat="48.51422" lon="7.18309">
        <ele>792</ele>
        <time>2021-02-21T12:12:08.329Z</time>
      </trkpt>
      <trkpt lat="48.51422" lon="7.18307">
        <ele>792</ele>
        <time>2021-02-21T12:12:09.329Z</time>
      </trkpt>
      <trkpt lat="48.51421" lon="7.18306">
        <ele>792</ele>
        <time>2021-02-21T12:12:10.329Z</time>
      </trkpt>
      <trkpt lat="48.51421" lon="7.18304">
        <ele>793</ele>
        <time>2021-02-21T12:12:11.329Z</time>
      </trkpt>
      <trkpt lat="48.51421" lon="7.18303">
        <ele>793</ele>
        <time>2021-02-21T12:12:12.329Z</time>
      </trkpt>
      <trkpt lat="48.51422" lon="7.18301">
        <ele>793</ele>
        <time>2021-02-21T12:12:13.329Z</time>
      </trkpt>
      <trkpt lat="48.51422" lon="7.18299">
        <ele>794</ele>
        <time>2021-02-21T12:12:14.329Z</time>
      </trkpt>
      <trkpt lat="48.51422" lon="7.18297">
        <ele>794</ele>
        <time>2021-02-21T12:12:15.328Z</time>
      </trkpt>
      <trkpt lat="48.51422" lon="7.18295">
        <ele>794</ele>
        <time>2021-02-21T12:12:16.329Z</time>
      </trkpt>
      <trkpt lat="48.51422" lon="7.18293">
        <ele>794</ele>
        <time>2021-02-21T12:12:17.328Z</time>
      </trkpt>
      <trkpt lat="48.51422" lon="7.18291">
        <ele>794</ele>
        <time>2021-02-21T12:12:18.328Z</time>
      </trkpt>
      <trkpt lat="48.51421" lon="7.18288">
        <ele>794</ele>
        <time>2021-02-21T12:12:19.328Z</time>
      </trkpt>
      <trkpt lat="48.51421" lon="7.18286">
        <ele>794</ele>
        <time>2021-02-21T12:12:20.329Z</time>
      </trkpt>
      <trkpt lat="48.5142" lon="7.18285">
        <ele>793</ele>
        <time>2021-02-21T12:12:21.328Z</time>
      </trkpt>
      <trkpt lat="48.51419" lon="7.18283">
        <ele>793</ele>
        <time>2021-02-21T12:12:22.329Z</time>
      </trkpt>
      <trkpt lat="48.51418" lon="7.18282">
        <ele>793</ele>
        <time>2021-02-21T12:12:23.329Z</time>
      </trkpt>
      <trkpt lat="48.51417" lon="7.1828">
        <ele>793</ele>
        <time>2021-02-21T12:12:24.329Z</time>
      </trkpt>
      <trkpt lat="48.51417" lon="7.18278">
        <ele>793</ele>
        <time>2021-02-21T12:12:25.329Z</time>
      </trkpt>
      <trkpt lat="48.51417" lon="7.18277">
        <ele>793</ele>
        <time>2021-02-21T12:12:26.328Z</time>
      </trkpt>
      <trkpt lat="48.51416" lon="7.18275">
        <ele>793</ele>
        <time>2021-02-21T12:12:27.328Z</time>
      </trkpt>
      <trkpt lat="48.51417" lon="7.18273">
        <ele>793</ele>
        <time>2021-02-21T12:12:28.329Z</time>
      </trkpt>
      <trkpt lat="48.51416" lon="7.18271">
        <ele>794</ele>
        <time>2021-02-21T12:12:29.329Z</time>
      </trkpt>
      <trkpt lat="48.51416" lon="7.18269">
        <ele>794</ele>
        <time>2021-02-21T12:12:30.329Z</time>
      </trkpt>
      <trkpt lat="48.51414" lon="7.18268">
        <ele>794</ele>
        <time>2021-02-21T12:12:31.329Z</time>
      </trkpt>
      <trkpt lat="48.51413" lon="7.18266">
        <ele>794</ele>
        <time>2021-02-21T12:12:32.329Z</time>
      </trkpt>
      <trkpt lat="48.51412" lon="7.18265">
        <ele>795</ele>
        <time>2021-02-21T12:12:33.329Z</time>
      </trkpt>
      <trkpt lat="48.51411" lon="7.18263">
        <ele>796</ele>
        <time>2021-02-21T12:12:34.329Z</time>
      </trkpt>
      <trkpt lat="48.51411" lon="7.18261">
        <ele>796</ele>
        <time>2021-02-21T12:12:35.329Z</time>
      </trkpt>
      <trkpt lat="48.51411" lon="7.1826">
        <ele>797</ele>
        <time>2021-02-21T12:12:36.329Z</time>
      </trkpt>
      <trkpt lat="48.5141" lon="7.18258">
        <ele>797</ele>
        <time>2021-02-21T12:12:37.328Z</time>
      </trkpt>
      <trkpt lat="48.51409" lon="7.18256">
        <ele>797</ele>
        <time>2021-02-21T12:12:38.328Z</time>
      </trkpt>
      <trkpt lat="48.51408" lon="7.18254">
        <ele>798</ele>
        <time>2021-02-21T12:12:39.328Z</time>
      </trkpt>
      <trkpt lat="48.51406" lon="7.18252">
        <ele>798</ele>
        <time>2021-02-21T12:12:40.329Z</time>
      </trkpt>
      <trkpt lat="48.51403" lon="7.1825">
        <ele>798</ele>
        <time>2021-02-21T12:12:41.329Z</time>
      </trkpt>
      <trkpt lat="48.51402" lon="7.18248">
        <ele>799</ele>
        <time>2021-02-21T12:12:42.329Z</time>
      </trkpt>
      <trkpt lat="48.51402" lon="7.18246">
        <ele>799</ele>
        <time>2021-02-21T12:12:43.328Z</time>
      </trkpt>
      <trkpt lat="48.51402" lon="7.18245">
        <ele>799</ele>
        <time>2021-02-21T12:12:44.328Z</time>
      </trkpt>
      <trkpt lat="48.51403" lon="7.18243">
        <ele>799</ele>
        <time>2021-02-21T12:12:45.329Z</time>
      </trkpt>
      <trkpt lat="48.51403" lon="7.18241">
        <ele>799</ele>
        <time>2021-02-21T12:12:46.328Z</time>
      </trkpt>
      <trkpt lat="48.51403" lon="7.1824">
        <ele>799</ele>
        <time>2021-02-21T12:12:47.328Z</time>
      </trkpt>
      <trkpt lat="48.51402" lon="7.18239">
        <ele>799</ele>
        <time>2021-02-21T12:12:48.329Z</time>
      </trkpt>
      <trkpt lat="48.51402" lon="7.18238">
        <ele>799</ele>
        <time>2021-02-21T12:12:49.329Z</time>
      </trkpt>
      <trkpt lat="48.51402" lon="7.18236">
        <ele>799</ele>
        <time>2021-02-21T12:12:50.329Z</time>
      </trkpt>
      <trkpt lat="48.51402" lon="7.18235">
        <ele>799</ele>
        <time>2021-02-21T12:12:51.328Z</time>
      </trkpt>
      <trkpt lat="48.514" lon="7.18234">
        <ele>799</ele>
        <time>2021-02-21T12:12:52.328Z</time>
      </trkpt>
      <trkpt lat="48.51399" lon="7.18233">
        <ele>800</ele>
        <time>2021-02-21T12:12:53.328Z</time>
      </trkpt>
      <trkpt lat="48.51398" lon="7.18232">
        <ele>800</ele>
        <time>2021-02-21T12:12:54.328Z</time>
      </trkpt>
      <trkpt lat="48.51397" lon="7.18231">
        <ele>800</ele>
        <time>2021-02-21T12:12:55.329Z</time>
      </trkpt>
      <trkpt lat="48.51397" lon="7.18229">
        <ele>800</ele>
        <time>2021-02-21T12:12:56.329Z</time>
      </trkpt>
      <trkpt lat="48.51396" lon="7.18227">
        <ele>800</ele>
        <time>2021-02-21T12:12:57.329Z</time>
      </trkpt>
      <trkpt lat="48.51396" lon="7.18225">
        <ele>801</ele>
        <time>2021-02-21T12:12:58.329Z</time>
      </trkpt>
      <trkpt lat="48.51396" lon="7.18222">
        <ele>800</ele>
        <time>2021-02-21T12:12:59.329Z</time>
      </trkpt>
      <trkpt lat="48.51396" lon="7.1822">
        <ele>800</ele>
        <time>2021-02-21T12:13:00.328Z</time>
      </trkpt>
      <trkpt lat="48.51396" lon="7.18218">
        <ele>800</ele>
        <time>2021-02-21T12:13:01.328Z</time>
      </trkpt>
      <trkpt lat="48.51395" lon="7.18216">
        <ele>800</ele>
        <time>2021-02-21T12:13:02.328Z</time>
      </trkpt>
      <trkpt lat="48.51394" lon="7.18215">
        <ele>800</ele>
        <time>2021-02-21T12:13:03.329Z</time>
      </trkpt>
      <trkpt lat="48.51393" lon="7.18213">
        <ele>799</ele>
        <time>2021-02-21T12:13:04.328Z</time>
      </trkpt>
      <trkpt lat="48.51392" lon="7.18211">
        <ele>799</ele>
        <time>2021-02-21T12:13:05.328Z</time>
      </trkpt>
      <trkpt lat="48.51391" lon="7.18209">
        <ele>799</ele>
        <time>2021-02-21T12:13:06.328Z</time>
      </trkpt>
      <trkpt lat="48.51392" lon="7.18207">
        <ele>800</ele>
        <time>2021-02-21T12:13:07.329Z</time>
      </trkpt>
      <trkpt lat="48.51393" lon="7.18205">
        <ele>800</ele>
        <time>2021-02-21T12:13:08.328Z</time>
      </trkpt>
      <trkpt lat="48.51394" lon="7.18204">
        <ele>800</ele>
        <time>2021-02-21T12:13:09.329Z</time>
      </trkpt>
      <trkpt lat="48.51394" lon="7.18201">
        <ele>800</ele>
        <time>2021-02-21T12:13:10.329Z</time>
      </trkpt>
      <trkpt lat="48.51395" lon="7.18199">
        <ele>800</ele>
        <time>2021-02-21T12:13:11.329Z</time>
      </trkpt>
      <trkpt lat="48.51395" lon="7.18197">
        <ele>800</ele>
        <time>2021-02-21T12:13:12.329Z</time>
      </trkpt>
      <trkpt lat="48.51394" lon="7.18196">
        <ele>800</ele>
        <time>2021-02-21T12:13:13.329Z</time>
      </trkpt>
      <trkpt lat="48.51393" lon="7.18195">
        <ele>800</ele>
        <time>2021-02-21T12:13:14.329Z</time>
      </trkpt>
      <trkpt lat="48.51394" lon="7.18193">
        <ele>800</ele>
        <time>2021-02-21T12:13:15.329Z</time>
      </trkpt>
      <trkpt lat="48.51394" lon="7.18192">
        <ele>800</ele>
        <time>2021-02-21T12:13:16.329Z</time>
      </trkpt>
      <trkpt lat="48.51395" lon="7.1819">
        <ele>800</ele>
        <time>2021-02-21T12:13:17.328Z</time>
      </trkpt>
      <trkpt lat="48.51395" lon="7.18188">
        <ele>800</ele>
        <time>2021-02-21T12:13:18.328Z</time>
      </trkpt>
      <trkpt lat="48.51394" lon="7.18187">
        <ele>800</ele>
        <time>2021-02-21T12:13:19.329Z</time>
      </trkpt>
      <trkpt lat="48.51394" lon="7.18185">
        <ele>800</ele>
        <time>2021-02-21T12:13:20.328Z</time>
      </trkpt>
      <trkpt lat="48.51394" lon="7.18184">
        <ele>800</ele>
        <time>2021-02-21T12:13:21.329Z</time>
      </trkpt>
      <trkpt lat="48.51393" lon="7.18182">
        <ele>800</ele>
        <time>2021-02-21T12:13:22.329Z</time>
      </trkpt>
      <trkpt lat="48.51393" lon="7.1818">
        <ele>800</ele>
        <time>2021-02-21T12:13:23.329Z</time>
      </trkpt>
      <trkpt lat="48.51393" lon="7.18178">
        <ele>800</ele>
        <time>2021-02-21T12:13:24.329Z</time>
      </trkpt>
      <trkpt lat="48.51393" lon="7.18177">
        <ele>799</ele>
        <time>2021-02-21T12:13:25.329Z</time>
      </trkpt>
      <trkpt lat="48.51392" lon="7.18176">
        <ele>799</ele>
        <time>2021-02-21T12:13:26.329Z</time>
      </trkpt>
      <trkpt lat="48.51391" lon="7.18174">
        <ele>799</ele>
        <time>2021-02-21T12:13:27.329Z</time>
      </trkpt>
      <trkpt lat="48.51391" lon="7.18173">
        <ele>799</ele>
        <time>2021-02-21T12:13:28.329Z</time>
      </trkpt>
      <trkpt lat="48.51391" lon="7.18171">
        <ele>799</ele>
        <time>2021-02-21T12:13:29.329Z</time>
      </trkpt>
      <trkpt lat="48.51391" lon="7.18169">
        <ele>800</ele>
        <time>2021-02-21T12:13:30.328Z</time>
      </trkpt>
      <trkpt lat="48.51391" lon="7.18168">
        <ele>800</ele>
        <time>2021-02-21T12:13:31.328Z</time>
      </trkpt>
      <trkpt lat="48.51391" lon="7.18166">
        <ele>800</ele>
        <time>2021-02-21T12:13:32.329Z</time>
      </trkpt>
      <trkpt lat="48.51392" lon="7.18164">
        <ele>801</ele>
        <time>2021-02-21T12:13:33.329Z</time>
      </trkpt>
      <trkpt lat="48.51392" lon="7.18161">
        <ele>801</ele>
        <time>2021-02-21T12:13:34.329Z</time>
      </trkpt>
      <trkpt lat="48.51393" lon="7.18157">
        <ele>802</ele>
        <time>2021-02-21T12:13:35.329Z</time>
      </trkpt>
      <trkpt lat="48.51393" lon="7.18155">
        <ele>802</ele>
        <time>2021-02-21T12:13:36.329Z</time>
      </trkpt>
      <trkpt lat="48.51392" lon="7.18153">
        <ele>802</ele>
        <time>2021-02-21T12:13:37.329Z</time>
      </trkpt>
      <trkpt lat="48.51392" lon="7.18152">
        <ele>802</ele>
        <time>2021-02-21T12:13:38.329Z</time>
      </trkpt>
      <trkpt lat="48.51391" lon="7.1815">
        <ele>802</ele>
        <time>2021-02-21T12:13:39.329Z</time>
      </trkpt>
      <trkpt lat="48.51391" lon="7.18148">
        <ele>802</ele>
        <time>2021-02-21T12:13:40.329Z</time>
      </trkpt>
      <trkpt lat="48.51391" lon="7.18146">
        <ele>802</ele>
        <time>2021-02-21T12:13:41.329Z</time>
      </trkpt>
      <trkpt lat="48.51391" lon="7.18145">
        <ele>802</ele>
        <time>2021-02-21T12:13:42.328Z</time>
      </trkpt>
      <trkpt lat="48.5139" lon="7.18143">
        <ele>802</ele>
        <time>2021-02-21T12:13:43.329Z</time>
      </trkpt>
      <trkpt lat="48.5139" lon="7.18142">
        <ele>803</ele>
        <time>2021-02-21T12:13:44.328Z</time>
      </trkpt>
      <trkpt lat="48.5139" lon="7.18141">
        <ele>803</ele>
        <time>2021-02-21T12:13:45.329Z</time>
      </trkpt>
      <trkpt lat="48.51391" lon="7.18138">
        <ele>803</ele>
        <time>2021-02-21T12:13:46.328Z</time>
      </trkpt>
      <trkpt lat="48.5139" lon="7.18135">
        <ele>804</ele>
        <time>2021-02-21T12:13:47.328Z</time>
      </trkpt>
      <trkpt lat="48.5139" lon="7.18132">
        <ele>804</ele>
        <time>2021-02-21T12:13:48.328Z</time>
      </trkpt>
      <trkpt lat="48.51389" lon="7.18129">
        <ele>804</ele>
        <time>2021-02-21T12:13:49.328Z</time>
      </trkpt>
      <trkpt lat="48.51388" lon="7.18127">
        <ele>805</ele>
        <time>2021-02-21T12:13:50.328Z</time>
      </trkpt>
      <trkpt lat="48.51388" lon="7.18125">
        <ele>805</ele>
        <time>2021-02-21T12:13:51.329Z</time>
      </trkpt>
      <trkpt lat="48.51388" lon="7.18123">
        <ele>805</ele>
        <time>2021-02-21T12:13:52.329Z</time>
      </trkpt>
      <trkpt lat="48.51387" lon="7.18122">
        <ele>805</ele>
        <time>2021-02-21T12:13:53.328Z</time>
      </trkpt>
      <trkpt lat="48.51386" lon="7.1812">
        <ele>805</ele>
        <time>2021-02-21T12:13:54.329Z</time>
      </trkpt>
      <trkpt lat="48.51386" lon="7.18119">
        <ele>805</ele>
        <time>2021-02-21T12:13:55.329Z</time>
      </trkpt>
      <trkpt lat="48.51385" lon="7.18117">
        <ele>805</ele>
        <time>2021-02-21T12:13:56.328Z</time>
      </trkpt>
      <trkpt lat="48.51385" lon="7.18115">
        <ele>805</ele>
        <time>2021-02-21T12:13:57.329Z</time>
      </trkpt>
      <trkpt lat="48.51386" lon="7.18113">
        <ele>805</ele>
        <time>2021-02-21T12:13:58.329Z</time>
      </trkpt>
      <trkpt lat="48.51386" lon="7.18112">
        <ele>805</ele>
        <time>2021-02-21T12:13:59.329Z</time>
      </trkpt>
      <trkpt lat="48.51385" lon="7.1811">
        <ele>805</ele>
        <time>2021-02-21T12:14:00.328Z</time>
      </trkpt>
      <trkpt lat="48.51386" lon="7.18108">
        <ele>805</ele>
        <time>2021-02-21T12:14:01.329Z</time>
      </trkpt>
      <trkpt lat="48.51386" lon="7.18106">
        <ele>806</ele>
        <time>2021-02-21T12:14:02.329Z</time>
      </trkpt>
      <trkpt lat="48.51387" lon="7.18103">
        <ele>806</ele>
        <time>2021-02-21T12:14:03.329Z</time>
      </trkpt>
      <trkpt lat="48.51387" lon="7.18101">
        <ele>806</ele>
        <time>2021-02-21T12:14:04.329Z</time>
      </trkpt>
      <trkpt lat="48.51387" lon="7.18099">
        <ele>806</ele>
        <time>2021-02-21T12:14:05.329Z</time>
      </trkpt>
      <trkpt lat="48.51387" lon="7.18097">
        <ele>806</ele>
        <time>2021-02-21T12:14:06.329Z</time>
      </trkpt>
      <trkpt lat="48.51386" lon="7.18095">
        <ele>806</ele>
        <time>2021-02-21T12:14:07.328Z</time>
      </trkpt>
      <trkpt lat="48.51385" lon="7.18094">
        <ele>806</ele>
        <time>2021-02-21T12:14:08.329Z</time>
      </trkpt>
      <trkpt lat="48.51385" lon="7.18092">
        <ele>806</ele>
        <time>2021-02-21T12:14:09.329Z</time>
      </trkpt>
      <trkpt lat="48.51385" lon="7.18091">
        <ele>806</ele>
        <time>2021-02-21T12:14:10.329Z</time>
      </trkpt>
      <trkpt lat="48.51385" lon="7.1809">
        <ele>806</ele>
        <time>2021-02-21T12:14:11.329Z</time>
      </trkpt>
      <trkpt lat="48.51385" lon="7.18088">
        <ele>806</ele>
        <time>2021-02-21T12:14:12.329Z</time>
      </trkpt>
      <trkpt lat="48.51385" lon="7.18087">
        <ele>806</ele>
        <time>2021-02-21T12:14:13.329Z</time>
      </trkpt>
      <trkpt lat="48.51385" lon="7.18085">
        <ele>805</ele>
        <time>2021-02-21T12:14:14.329Z</time>
      </trkpt>
      <trkpt lat="48.51384" lon="7.18083">
        <ele>805</ele>
        <time>2021-02-21T12:14:15.329Z</time>
      </trkpt>
      <trkpt lat="48.51383" lon="7.18081">
        <ele>805</ele>
        <time>2021-02-21T12:14:16.329Z</time>
      </trkpt>
      <trkpt lat="48.51383" lon="7.18079">
        <ele>804</ele>
        <time>2021-02-21T12:14:17.329Z</time>
      </trkpt>
      <trkpt lat="48.51382" lon="7.18078">
        <ele>804</ele>
        <time>2021-02-21T12:14:18.329Z</time>
      </trkpt>
      <trkpt lat="48.51382" lon="7.18076">
        <ele>804</ele>
        <time>2021-02-21T12:14:19.329Z</time>
      </trkpt>
      <trkpt lat="48.51381" lon="7.18074">
        <ele>804</ele>
        <time>2021-02-21T12:14:20.328Z</time>
      </trkpt>
      <trkpt lat="48.5138" lon="7.18071">
        <ele>804</ele>
        <time>2021-02-21T12:14:21.329Z</time>
      </trkpt>
      <trkpt lat="48.5138" lon="7.18069">
        <ele>803</ele>
        <time>2021-02-21T12:14:22.328Z</time>
      </trkpt>
      <trkpt lat="48.51379" lon="7.18068">
        <ele>803</ele>
        <time>2021-02-21T12:14:23.328Z</time>
      </trkpt>
      <trkpt lat="48.5138" lon="7.18067">
        <ele>804</ele>
        <time>2021-02-21T12:14:24.328Z</time>
      </trkpt>
      <trkpt lat="48.5138" lon="7.18066">
        <ele>804</ele>
        <time>2021-02-21T12:14:25.329Z</time>
      </trkpt>
      <trkpt lat="48.5138" lon="7.18064">
        <ele>804</ele>
        <time>2021-02-21T12:14:26.329Z</time>
      </trkpt>
      <trkpt lat="48.51379" lon="7.18063">
        <ele>804</ele>
        <time>2021-02-21T12:14:27.328Z</time>
      </trkpt>
      <trkpt lat="48.51379" lon="7.18061">
        <ele>804</ele>
        <time>2021-02-21T12:14:28.329Z</time>
      </trkpt>
      <trkpt lat="48.51377" lon="7.1806">
        <ele>803</ele>
        <time>2021-02-21T12:14:29.329Z</time>
      </trkpt>
      <trkpt lat="48.51377" lon="7.18058">
        <ele>803</ele>
        <time>2021-02-21T12:14:30.329Z</time>
      </trkpt>
      <trkpt lat="48.51377" lon="7.18056">
        <ele>803</ele>
        <time>2021-02-21T12:14:31.329Z</time>
      </trkpt>
      <trkpt lat="48.51376" lon="7.18055">
        <ele>803</ele>
        <time>2021-02-21T12:14:32.329Z</time>
      </trkpt>
      <trkpt lat="48.51376" lon="7.18053">
        <ele>803</ele>
        <time>2021-02-21T12:14:33.328Z</time>
      </trkpt>
      <trkpt lat="48.51375" lon="7.1805">
        <ele>803</ele>
        <time>2021-02-21T12:14:34.329Z</time>
      </trkpt>
      <trkpt lat="48.51375" lon="7.18048">
        <ele>802</ele>
        <time>2021-02-21T12:14:35.329Z</time>
      </trkpt>
      <trkpt lat="48.51374" lon="7.18047">
        <ele>802</ele>
        <time>2021-02-21T12:14:36.329Z</time>
      </trkpt>
      <trkpt lat="48.51374" lon="7.18046">
        <ele>802</ele>
        <time>2021-02-21T12:14:37.328Z</time>
      </trkpt>
      <trkpt lat="48.51373" lon="7.18044">
        <ele>801</ele>
        <time>2021-02-21T12:14:38.328Z</time>
      </trkpt>
      <trkpt lat="48.51372" lon="7.18043">
        <ele>801</ele>
        <time>2021-02-21T12:14:39.329Z</time>
      </trkpt>
      <trkpt lat="48.51372" lon="7.18041">
        <ele>801</ele>
        <time>2021-02-21T12:14:40.328Z</time>
      </trkpt>
      <trkpt lat="48.51371" lon="7.1804">
        <ele>800</ele>
        <time>2021-02-21T12:14:41.329Z</time>
      </trkpt>
      <trkpt lat="48.51371" lon="7.18039">
        <ele>800</ele>
        <time>2021-02-21T12:14:42.329Z</time>
      </trkpt>
      <trkpt lat="48.5137" lon="7.18037">
        <ele>800</ele>
        <time>2021-02-21T12:14:43.329Z</time>
      </trkpt>
      <trkpt lat="48.5137" lon="7.18036">
        <ele>800</ele>
        <time>2021-02-21T12:14:44.329Z</time>
      </trkpt>
      <trkpt lat="48.51369" lon="7.18035">
        <ele>799</ele>
        <time>2021-02-21T12:14:45.329Z</time>
      </trkpt>
      <trkpt lat="48.51369" lon="7.18034">
        <ele>799</ele>
        <time>2021-02-21T12:14:46.328Z</time>
      </trkpt>
      <trkpt lat="48.51369" lon="7.18032">
        <ele>798</ele>
        <time>2021-02-21T12:14:47.328Z</time>
      </trkpt>
      <trkpt lat="48.51369" lon="7.18031">
        <ele>797</ele>
        <time>2021-02-21T12:14:48.328Z</time>
      </trkpt>
      <trkpt lat="48.5137" lon="7.18029">
        <ele>797</ele>
        <time>2021-02-21T12:14:49.329Z</time>
      </trkpt>
      <trkpt lat="48.51369" lon="7.18027">
        <ele>796</ele>
        <time>2021-02-21T12:14:50.329Z</time>
      </trkpt>
      <trkpt lat="48.51368" lon="7.18026">
        <ele>796</ele>
        <time>2021-02-21T12:14:51.328Z</time>
      </trkpt>
      <trkpt lat="48.51368" lon="7.18026">
        <ele>796</ele>
        <time>2021-02-21T12:14:52.329Z</time>
      </trkpt>
      <trkpt lat="48.51368" lon="7.18026">
        <ele>795</ele>
        <time>2021-02-21T12:14:53.329Z</time>
      </trkpt>
      <trkpt lat="48.51369" lon="7.18027">
        <ele>795</ele>
        <time>2021-02-21T12:14:54.328Z</time>
      </trkpt>
      <trkpt lat="48.51367" lon="7.18024">
        <ele>799</ele>
        <time>2021-02-21T12:14:55.330Z</time>
      </trkpt>
      <trkpt lat="48.51367" lon="7.18022">
        <ele>799</ele>
        <time>2021-02-21T12:14:56.330Z</time>
      </trkpt>
      <trkpt lat="48.51368" lon="7.1802">
        <ele>799</ele>
        <time>2021-02-21T12:14:57.329Z</time>
      </trkpt>
      <trkpt lat="48.51368" lon="7.18018">
        <ele>800</ele>
        <time>2021-02-21T12:14:58.330Z</time>
      </trkpt>
      <trkpt lat="48.51369" lon="7.18017">
        <ele>800</ele>
        <time>2021-02-21T12:14:59.330Z</time>
      </trkpt>
      <trkpt lat="48.51369" lon="7.18015">
        <ele>800</ele>
        <time>2021-02-21T12:15:00.329Z</time>
      </trkpt>
      <trkpt lat="48.51369" lon="7.18013">
        <ele>800</ele>
        <time>2021-02-21T12:15:01.330Z</time>
      </trkpt>
      <trkpt lat="48.5137" lon="7.18011">
        <ele>801</ele>
        <time>2021-02-21T12:15:02.330Z</time>
      </trkpt>
      <trkpt lat="48.5137" lon="7.1801">
        <ele>801</ele>
        <time>2021-02-21T12:15:03.329Z</time>
      </trkpt>
      <trkpt lat="48.51371" lon="7.18008">
        <ele>801</ele>
        <time>2021-02-21T12:15:04.330Z</time>
      </trkpt>
      <trkpt lat="48.51372" lon="7.18007">
        <ele>801</ele>
        <time>2021-02-21T12:15:05.329Z</time>
      </trkpt>
      <trkpt lat="48.51374" lon="7.18006">
        <ele>801</ele>
        <time>2021-02-21T12:15:06.330Z</time>
      </trkpt>
      <trkpt lat="48.51375" lon="7.18006">
        <ele>802</ele>
        <time>2021-02-21T12:15:07.330Z</time>
      </trkpt>
      <trkpt lat="48.51376" lon="7.18005">
        <ele>803</ele>
        <time>2021-02-21T12:15:08.330Z</time>
      </trkpt>
      <trkpt lat="48.51377" lon="7.18004">
        <ele>803</ele>
        <time>2021-02-21T12:15:09.330Z</time>
      </trkpt>
      <trkpt lat="48.51378" lon="7.18003">
        <ele>803</ele>
        <time>2021-02-21T12:15:10.330Z</time>
      </trkpt>
      <trkpt lat="48.51379" lon="7.18003">
        <ele>803</ele>
        <time>2021-02-21T12:15:11.330Z</time>
      </trkpt>
      <trkpt lat="48.51381" lon="7.18003">
        <ele>803</ele>
        <time>2021-02-21T12:15:12.330Z</time>
      </trkpt>
      <trkpt lat="48.51382" lon="7.18003">
        <ele>803</ele>
        <time>2021-02-21T12:15:13.329Z</time>
      </trkpt>
      <trkpt lat="48.51383" lon="7.18003">
        <ele>803</ele>
        <time>2021-02-21T12:15:14.330Z</time>
      </trkpt>
      <trkpt lat="48.51385" lon="7.18003">
        <ele>803</ele>
        <time>2021-02-21T12:15:15.330Z</time>
      </trkpt>
      <trkpt lat="48.51385" lon="7.18003">
        <ele>803</ele>
        <time>2021-02-21T12:15:16.329Z</time>
      </trkpt>
      <trkpt lat="48.51386" lon="7.18003">
        <ele>803</ele>
        <time>2021-02-21T12:15:17.329Z</time>
      </trkpt>
      <trkpt lat="48.51387" lon="7.18003">
        <ele>803</ele>
        <time>2021-02-21T12:15:18.330Z</time>
      </trkpt>
      <trkpt lat="48.51388" lon="7.18003">
        <ele>804</ele>
        <time>2021-02-21T12:15:19.330Z</time>
      </trkpt>
      <trkpt lat="48.51389" lon="7.18003">
        <ele>804</ele>
        <time>2021-02-21T12:15:20.330Z</time>
      </trkpt>
      <trkpt lat="48.5139" lon="7.18003">
        <ele>804</ele>
        <time>2021-02-21T12:15:21.330Z</time>
      </trkpt>
      <trkpt lat="48.51391" lon="7.18002">
        <ele>804</ele>
        <time>2021-02-21T12:15:22.330Z</time>
      </trkpt>
      <trkpt lat="48.51392" lon="7.18002">
        <ele>804</ele>
        <time>2021-02-21T12:15:23.330Z</time>
      </trkpt>
      <trkpt lat="48.51392" lon="7.18001">
        <ele>804</ele>
        <time>2021-02-21T12:15:24.330Z</time>
      </trkpt>
      <trkpt lat="48.51393" lon="7.18">
        <ele>805</ele>
        <time>2021-02-21T12:15:25.330Z</time>
      </trkpt>
      <trkpt lat="48.51394" lon="7.17998">
        <ele>805</ele>
        <time>2021-02-21T12:15:26.330Z</time>
      </trkpt>
      <trkpt lat="48.51396" lon="7.17997">
        <ele>805</ele>
        <time>2021-02-21T12:15:27.330Z</time>
      </trkpt>
      <trkpt lat="48.51397" lon="7.17996">
        <ele>805</ele>
        <time>2021-02-21T12:15:28.330Z</time>
      </trkpt>
      <trkpt lat="48.51398" lon="7.17995">
        <ele>805</ele>
        <time>2021-02-21T12:15:29.330Z</time>
      </trkpt>
      <trkpt lat="48.51398" lon="7.17993">
        <ele>805</ele>
        <time>2021-02-21T12:15:30.330Z</time>
      </trkpt>
      <trkpt lat="48.51399" lon="7.17992">
        <ele>806</ele>
        <time>2021-02-21T12:15:31.330Z</time>
      </trkpt>
      <trkpt lat="48.51399" lon="7.17991">
        <ele>806</ele>
        <time>2021-02-21T12:15:32.329Z</time>
      </trkpt>
      <trkpt lat="48.514" lon="7.1799">
        <ele>807</ele>
        <time>2021-02-21T12:15:33.329Z</time>
      </trkpt>
      <trkpt lat="48.514" lon="7.1799">
        <ele>807</ele>
        <time>2021-02-21T12:15:34.329Z</time>
      </trkpt>
      <trkpt lat="48.51402" lon="7.17989">
        <ele>808</ele>
        <time>2021-02-21T12:15:35.330Z</time>
      </trkpt>
      <trkpt lat="48.51403" lon="7.17988">
        <ele>807</ele>
        <time>2021-02-21T12:15:36.330Z</time>
      </trkpt>
      <trkpt lat="48.51404" lon="7.17987">
        <ele>807</ele>
        <time>2021-02-21T12:15:37.330Z</time>
      </trkpt>
      <trkpt lat="48.51406" lon="7.17987">
        <ele>807</ele>
        <time>2021-02-21T12:15:38.330Z</time>
      </trkpt>
      <trkpt lat="48.51406" lon="7.17986">
        <ele>807</ele>
        <time>2021-02-21T12:15:39.330Z</time>
      </trkpt>
      <trkpt lat="48.51407" lon="7.17986">
        <ele>807</ele>
        <time>2021-02-21T12:15:40.330Z</time>
      </trkpt>
      <trkpt lat="48.51408" lon="7.17985">
        <ele>807</ele>
        <time>2021-02-21T12:15:41.330Z</time>
      </trkpt>
      <trkpt lat="48.51408" lon="7.17984">
        <ele>807</ele>
        <time>2021-02-21T12:15:42.329Z</time>
      </trkpt>
      <trkpt lat="48.51409" lon="7.17984">
        <ele>807</ele>
        <time>2021-02-21T12:15:43.330Z</time>
      </trkpt>
      <trkpt lat="48.5141" lon="7.17983">
        <ele>807</ele>
        <time>2021-02-21T12:15:44.330Z</time>
      </trkpt>
      <trkpt lat="48.51411" lon="7.17983">
        <ele>807</ele>
        <time>2021-02-21T12:15:45.330Z</time>
      </trkpt>
      <trkpt lat="48.51412" lon="7.17982">
        <ele>806</ele>
        <time>2021-02-21T12:15:46.330Z</time>
      </trkpt>
      <trkpt lat="48.51413" lon="7.17981">
        <ele>806</ele>
        <time>2021-02-21T12:15:47.329Z</time>
      </trkpt>
      <trkpt lat="48.51414" lon="7.1798">
        <ele>806</ele>
        <time>2021-02-21T12:15:48.330Z</time>
      </trkpt>
      <trkpt lat="48.51415" lon="7.17979">
        <ele>807</ele>
        <time>2021-02-21T12:15:49.329Z</time>
      </trkpt>
      <trkpt lat="48.51416" lon="7.17978">
        <ele>807</ele>
        <time>2021-02-21T12:15:50.329Z</time>
      </trkpt>
      <trkpt lat="48.51416" lon="7.17977">
        <ele>807</ele>
        <time>2021-02-21T12:15:51.330Z</time>
      </trkpt>
      <trkpt lat="48.51417" lon="7.17976">
        <ele>807</ele>
        <time>2021-02-21T12:15:52.330Z</time>
      </trkpt>
      <trkpt lat="48.51418" lon="7.17975">
        <ele>807</ele>
        <time>2021-02-21T12:15:53.330Z</time>
      </trkpt>
      <trkpt lat="48.51418" lon="7.17974">
        <ele>807</ele>
        <time>2021-02-21T12:15:54.330Z</time>
      </trkpt>
      <trkpt lat="48.51419" lon="7.17974">
        <ele>807</ele>
        <time>2021-02-21T12:15:55.329Z</time>
      </trkpt>
      <trkpt lat="48.51419" lon="7.17972">
        <ele>807</ele>
        <time>2021-02-21T12:15:56.330Z</time>
      </trkpt>
      <trkpt lat="48.5142" lon="7.17971">
        <ele>807</ele>
        <time>2021-02-21T12:15:57.330Z</time>
      </trkpt>
      <trkpt lat="48.5142" lon="7.17971">
        <ele>807</ele>
        <time>2021-02-21T12:15:58.330Z</time>
      </trkpt>
      <trkpt lat="48.51421" lon="7.17969">
        <ele>807</ele>
        <time>2021-02-21T12:15:59.330Z</time>
      </trkpt>
      <trkpt lat="48.51422" lon="7.17968">
        <ele>808</ele>
        <time>2021-02-21T12:16:00.329Z</time>
      </trkpt>
      <trkpt lat="48.51422" lon="7.17966">
        <ele>808</ele>
        <time>2021-02-21T12:16:01.330Z</time>
      </trkpt>
      <trkpt lat="48.51423" lon="7.17965">
        <ele>809</ele>
        <time>2021-02-21T12:16:02.329Z</time>
      </trkpt>
      <trkpt lat="48.51424" lon="7.17965">
        <ele>809</ele>
        <time>2021-02-21T12:16:03.329Z</time>
      </trkpt>
      <trkpt lat="48.51426" lon="7.17963">
        <ele>810</ele>
        <time>2021-02-21T12:16:04.329Z</time>
      </trkpt>
      <trkpt lat="48.51427" lon="7.17963">
        <ele>810</ele>
        <time>2021-02-21T12:16:05.330Z</time>
      </trkpt>
      <trkpt lat="48.51427" lon="7.17962">
        <ele>811</ele>
        <time>2021-02-21T12:16:06.329Z</time>
      </trkpt>
      <trkpt lat="48.51428" lon="7.17961">
        <ele>811</ele>
        <time>2021-02-21T12:16:07.329Z</time>
      </trkpt>
      <trkpt lat="48.51428" lon="7.1796">
        <ele>811</ele>
        <time>2021-02-21T12:16:08.329Z</time>
      </trkpt>
      <trkpt lat="48.51431" lon="7.17959">
        <ele>812</ele>
        <time>2021-02-21T12:16:09.330Z</time>
      </trkpt>
      <trkpt lat="48.51433" lon="7.17957">
        <ele>813</ele>
        <time>2021-02-21T12:16:10.331Z</time>
      </trkpt>
      <trkpt lat="48.51435" lon="7.17956">
        <ele>813</ele>
        <time>2021-02-21T12:16:11.331Z</time>
      </trkpt>
      <trkpt lat="48.51436" lon="7.17956">
        <ele>813</ele>
        <time>2021-02-21T12:16:12.331Z</time>
      </trkpt>
      <trkpt lat="48.51437" lon="7.17956">
        <ele>814</ele>
        <time>2021-02-21T12:16:13.331Z</time>
      </trkpt>
      <trkpt lat="48.51438" lon="7.17955">
        <ele>814</ele>
        <time>2021-02-21T12:16:14.331Z</time>
      </trkpt>
      <trkpt lat="48.51439" lon="7.17955">
        <ele>815</ele>
        <time>2021-02-21T12:16:15.331Z</time>
      </trkpt>
      <trkpt lat="48.5144" lon="7.17954">
        <ele>816</ele>
        <time>2021-02-21T12:16:16.331Z</time>
      </trkpt>
      <trkpt lat="48.51441" lon="7.17954">
        <ele>816</ele>
        <time>2021-02-21T12:16:17.331Z</time>
      </trkpt>
      <trkpt lat="48.51442" lon="7.17954">
        <ele>817</ele>
        <time>2021-02-21T12:16:18.331Z</time>
      </trkpt>
      <trkpt lat="48.51443" lon="7.17953">
        <ele>817</ele>
        <time>2021-02-21T12:16:19.331Z</time>
      </trkpt>
      <trkpt lat="48.51446" lon="7.17949">
        <ele>817</ele>
        <time>2021-02-21T12:16:20.331Z</time>
      </trkpt>
      <trkpt lat="48.51447" lon="7.17949">
        <ele>817</ele>
        <time>2021-02-21T12:16:21.332Z</time>
      </trkpt>
      <trkpt lat="48.51448" lon="7.17949">
        <ele>817</ele>
        <time>2021-02-21T12:16:22.331Z</time>
      </trkpt>
      <trkpt lat="48.51449" lon="7.17949">
        <ele>817</ele>
        <time>2021-02-21T12:16:23.332Z</time>
      </trkpt>
      <trkpt lat="48.5145" lon="7.17949">
        <ele>817</ele>
        <time>2021-02-21T12:16:24.332Z</time>
      </trkpt>
      <trkpt lat="48.51451" lon="7.17948">
        <ele>816</ele>
        <time>2021-02-21T12:16:25.332Z</time>
      </trkpt>
      <trkpt lat="48.51452" lon="7.17948">
        <ele>816</ele>
        <time>2021-02-21T12:16:26.331Z</time>
      </trkpt>
      <trkpt lat="48.51453" lon="7.17947">
        <ele>816</ele>
        <time>2021-02-21T12:16:27.332Z</time>
      </trkpt>
      <trkpt lat="48.51454" lon="7.17947">
        <ele>816</ele>
        <time>2021-02-21T12:16:28.331Z</time>
      </trkpt>
      <trkpt lat="48.51455" lon="7.17946">
        <ele>816</ele>
        <time>2021-02-21T12:16:29.331Z</time>
      </trkpt>
      <trkpt lat="48.51455" lon="7.17945">
        <ele>816</ele>
        <time>2021-02-21T12:16:30.332Z</time>
      </trkpt>
      <trkpt lat="48.51456" lon="7.17945">
        <ele>817</ele>
        <time>2021-02-21T12:16:31.331Z</time>
      </trkpt>
      <trkpt lat="48.51458" lon="7.17944">
        <ele>817</ele>
        <time>2021-02-21T12:16:32.332Z</time>
      </trkpt>
      <trkpt lat="48.51459" lon="7.17943">
        <ele>817</ele>
        <time>2021-02-21T12:16:33.332Z</time>
      </trkpt>
      <trkpt lat="48.51463" lon="7.1794">
        <ele>817</ele>
        <time>2021-02-21T12:16:34.332Z</time>
      </trkpt>
      <trkpt lat="48.51464" lon="7.17938">
        <ele>818</ele>
        <time>2021-02-21T12:16:35.332Z</time>
      </trkpt>
      <trkpt lat="48.51465" lon="7.17938">
        <ele>818</ele>
        <time>2021-02-21T12:16:36.332Z</time>
      </trkpt>
      <trkpt lat="48.51466" lon="7.17938">
        <ele>818</ele>
        <time>2021-02-21T12:16:55.466Z</time>
      </trkpt>
      <trkpt lat="48.51467" lon="7.17937">
        <ele>818</ele>
        <time>2021-02-21T12:16:56.466Z</time>
      </trkpt>
      <trkpt lat="48.51468" lon="7.17937">
        <ele>819</ele>
        <time>2021-02-21T12:16:57.466Z</time>
      </trkpt>
      <trkpt lat="48.5147" lon="7.17937">
        <ele>819</ele>
        <time>2021-02-21T12:16:58.466Z</time>
      </trkpt>
      <trkpt lat="48.51471" lon="7.17938">
        <ele>819</ele>
        <time>2021-02-21T12:16:59.465Z</time>
      </trkpt>
      <trkpt lat="48.51472" lon="7.17938">
        <ele>819</ele>
        <time>2021-02-21T12:17:00.466Z</time>
      </trkpt>
      <trkpt lat="48.51473" lon="7.17937">
        <ele>819</ele>
        <time>2021-02-21T12:17:01.465Z</time>
      </trkpt>
      <trkpt lat="48.51473" lon="7.17937">
        <ele>819</ele>
        <time>2021-02-21T12:17:02.466Z</time>
      </trkpt>
      <trkpt lat="48.51474" lon="7.17936">
        <ele>819</ele>
        <time>2021-02-21T12:17:03.466Z</time>
      </trkpt>
      <trkpt lat="48.51475" lon="7.17934">
        <ele>819</ele>
        <time>2021-02-21T12:17:04.466Z</time>
      </trkpt>
      <trkpt lat="48.51476" lon="7.17933">
        <ele>819</ele>
        <time>2021-02-21T12:17:05.466Z</time>
      </trkpt>
      <trkpt lat="48.51476" lon="7.17933">
        <ele>819</ele>
        <time>2021-02-21T12:17:06.466Z</time>
      </trkpt>
      <trkpt lat="48.51481" lon="7.17932">
        <ele>820</ele>
        <time>2021-02-21T12:17:07.466Z</time>
      </trkpt>
      <trkpt lat="48.51482" lon="7.17932">
        <ele>820</ele>
        <time>2021-02-21T12:17:08.467Z</time>
      </trkpt>
      <trkpt lat="48.51483" lon="7.17931">
        <ele>820</ele>
        <time>2021-02-21T12:17:09.467Z</time>
      </trkpt>
      <trkpt lat="48.51484" lon="7.17931">
        <ele>820</ele>
        <time>2021-02-21T12:17:10.467Z</time>
      </trkpt>
      <trkpt lat="48.51484" lon="7.17931">
        <ele>820</ele>
        <time>2021-02-21T12:17:11.467Z</time>
      </trkpt>
      <trkpt lat="48.51486" lon="7.1793">
        <ele>821</ele>
        <time>2021-02-21T12:17:12.467Z</time>
      </trkpt>
      <trkpt lat="48.51487" lon="7.17931">
        <ele>821</ele>
        <time>2021-02-21T12:17:13.466Z</time>
      </trkpt>
      <trkpt lat="48.51488" lon="7.17931">
        <ele>821</ele>
        <time>2021-02-21T12:17:14.467Z</time>
      </trkpt>
      <trkpt lat="48.51489" lon="7.17931">
        <ele>821</ele>
        <time>2021-02-21T12:17:15.466Z</time>
      </trkpt>
      <trkpt lat="48.5149" lon="7.17931">
        <ele>821</ele>
        <time>2021-02-21T12:17:16.466Z</time>
      </trkpt>
      <trkpt lat="48.51491" lon="7.17931">
        <ele>821</ele>
        <time>2021-02-21T12:17:17.467Z</time>
      </trkpt>
      <trkpt lat="48.51492" lon="7.1793">
        <ele>821</ele>
        <time>2021-02-21T12:17:18.467Z</time>
      </trkpt>
      <trkpt lat="48.51493" lon="7.1793">
        <ele>822</ele>
        <time>2021-02-21T12:17:19.467Z</time>
      </trkpt>
      <trkpt lat="48.51493" lon="7.1793">
        <ele>822</ele>
        <time>2021-02-21T12:17:20.467Z</time>
      </trkpt>
      <trkpt lat="48.51494" lon="7.17929">
        <ele>822</ele>
        <time>2021-02-21T12:17:21.467Z</time>
      </trkpt>
      <trkpt lat="48.51495" lon="7.17929">
        <ele>823</ele>
        <time>2021-02-21T12:17:22.467Z</time>
      </trkpt>
      <trkpt lat="48.51497" lon="7.17928">
        <ele>823</ele>
        <time>2021-02-21T12:17:23.466Z</time>
      </trkpt>
      <trkpt lat="48.51498" lon="7.17927">
        <ele>823</ele>
        <time>2021-02-21T12:17:24.467Z</time>
      </trkpt>
      <trkpt lat="48.51499" lon="7.17926">
        <ele>823</ele>
        <time>2021-02-21T12:17:25.467Z</time>
      </trkpt>
      <trkpt lat="48.51499" lon="7.17926">
        <ele>823</ele>
        <time>2021-02-21T12:17:26.467Z</time>
      </trkpt>
      <trkpt lat="48.515" lon="7.17925">
        <ele>823</ele>
        <time>2021-02-21T12:17:27.467Z</time>
      </trkpt>
      <trkpt lat="48.51501" lon="7.17925">
        <ele>823</ele>
        <time>2021-02-21T12:17:28.467Z</time>
      </trkpt>
      <trkpt lat="48.51502" lon="7.17924">
        <ele>823</ele>
        <time>2021-02-21T12:17:29.467Z</time>
      </trkpt>
      <trkpt lat="48.51503" lon="7.17924">
        <ele>824</ele>
        <time>2021-02-21T12:17:30.467Z</time>
      </trkpt>
      <trkpt lat="48.51504" lon="7.17923">
        <ele>824</ele>
        <time>2021-02-21T12:17:31.467Z</time>
      </trkpt>
      <trkpt lat="48.51505" lon="7.17922">
        <ele>824</ele>
        <time>2021-02-21T12:17:32.467Z</time>
      </trkpt>
      <trkpt lat="48.51506" lon="7.17922">
        <ele>824</ele>
        <time>2021-02-21T12:17:33.467Z</time>
      </trkpt>
      <trkpt lat="48.51507" lon="7.17921">
        <ele>824</ele>
        <time>2021-02-21T12:17:34.467Z</time>
      </trkpt>
      <trkpt lat="48.51508" lon="7.1792">
        <ele>824</ele>
        <time>2021-02-21T12:17:35.467Z</time>
      </trkpt>
      <trkpt lat="48.51509" lon="7.17919">
        <ele>825</ele>
        <time>2021-02-21T12:17:36.467Z</time>
      </trkpt>
      <trkpt lat="48.51511" lon="7.17918">
        <ele>825</ele>
        <time>2021-02-21T12:17:37.466Z</time>
      </trkpt>
      <trkpt lat="48.51513" lon="7.17917">
        <ele>824</ele>
        <time>2021-02-21T12:17:38.467Z</time>
      </trkpt>
      <trkpt lat="48.51514" lon="7.17917">
        <ele>824</ele>
        <time>2021-02-21T12:17:39.467Z</time>
      </trkpt>
      <trkpt lat="48.51514" lon="7.17916">
        <ele>825</ele>
        <time>2021-02-21T12:17:40.467Z</time>
      </trkpt>
      <trkpt lat="48.51516" lon="7.17915">
        <ele>825</ele>
        <time>2021-02-21T12:17:41.467Z</time>
      </trkpt>
      <trkpt lat="48.51517" lon="7.17914">
        <ele>825</ele>
        <time>2021-02-21T12:17:42.467Z</time>
      </trkpt>
      <trkpt lat="48.51518" lon="7.17914">
        <ele>825</ele>
        <time>2021-02-21T12:17:43.467Z</time>
      </trkpt>
      <trkpt lat="48.5152" lon="7.17913">
        <ele>826</ele>
        <time>2021-02-21T12:17:44.467Z</time>
      </trkpt>
      <trkpt lat="48.51523" lon="7.17914">
        <ele>826</ele>
        <time>2021-02-21T12:17:45.467Z</time>
      </trkpt>
      <trkpt lat="48.51524" lon="7.17914">
        <ele>826</ele>
        <time>2021-02-21T12:17:46.467Z</time>
      </trkpt>
      <trkpt lat="48.51525" lon="7.17913">
        <ele>827</ele>
        <time>2021-02-21T12:17:47.466Z</time>
      </trkpt>
      <trkpt lat="48.51527" lon="7.17913">
        <ele>827</ele>
        <time>2021-02-21T12:17:48.467Z</time>
      </trkpt>
      <trkpt lat="48.51529" lon="7.17913">
        <ele>827</ele>
        <time>2021-02-21T12:17:49.467Z</time>
      </trkpt>
      <trkpt lat="48.5153" lon="7.17913">
        <ele>827</ele>
        <time>2021-02-21T12:17:50.467Z</time>
      </trkpt>
      <trkpt lat="48.51531" lon="7.17913">
        <ele>827</ele>
        <time>2021-02-21T12:17:51.467Z</time>
      </trkpt>
      <trkpt lat="48.51532" lon="7.17913">
        <ele>827</ele>
        <time>2021-02-21T12:17:52.467Z</time>
      </trkpt>
      <trkpt lat="48.51533" lon="7.17912">
        <ele>827</ele>
        <time>2021-02-21T12:17:53.467Z</time>
      </trkpt>
      <trkpt lat="48.51534" lon="7.17912">
        <ele>827</ele>
        <time>2021-02-21T12:17:54.467Z</time>
      </trkpt>
      <trkpt lat="48.51535" lon="7.17912">
        <ele>827</ele>
        <time>2021-02-21T12:17:55.467Z</time>
      </trkpt>
      <trkpt lat="48.51536" lon="7.17912">
        <ele>827</ele>
        <time>2021-02-21T12:17:56.467Z</time>
      </trkpt>
      <trkpt lat="48.51537" lon="7.17912">
        <ele>827</ele>
        <time>2021-02-21T12:17:57.467Z</time>
      </trkpt>
      <trkpt lat="48.51538" lon="7.17912">
        <ele>827</ele>
        <time>2021-02-21T12:17:58.467Z</time>
      </trkpt>
      <trkpt lat="48.5154" lon="7.17912">
        <ele>827</ele>
        <time>2021-02-21T12:17:59.467Z</time>
      </trkpt>
      <trkpt lat="48.5154" lon="7.17911">
        <ele>826</ele>
        <time>2021-02-21T12:18:00.467Z</time>
      </trkpt>
      <trkpt lat="48.51541" lon="7.17912">
        <ele>825</ele>
        <time>2021-02-21T12:18:01.467Z</time>
      </trkpt>
      <trkpt lat="48.51542" lon="7.17911">
        <ele>825</ele>
        <time>2021-02-21T12:18:02.467Z</time>
      </trkpt>
      <trkpt lat="48.51543" lon="7.17911">
        <ele>824</ele>
        <time>2021-02-21T12:18:03.467Z</time>
      </trkpt>
      <trkpt lat="48.51544" lon="7.17911">
        <ele>823</ele>
        <time>2021-02-21T12:18:04.467Z</time>
      </trkpt>
      <trkpt lat="48.51545" lon="7.1791">
        <ele>823</ele>
        <time>2021-02-21T12:18:05.467Z</time>
      </trkpt>
      <trkpt lat="48.51547" lon="7.17909">
        <ele>825</ele>
        <time>2021-02-21T12:18:06.468Z</time>
      </trkpt>
      <trkpt lat="48.51548" lon="7.17909">
        <ele>825</ele>
        <time>2021-02-21T12:18:07.467Z</time>
      </trkpt>
      <trkpt lat="48.51548" lon="7.17909">
        <ele>825</ele>
        <time>2021-02-21T12:18:08.467Z</time>
      </trkpt>
      <trkpt lat="48.5155" lon="7.17908">
        <ele>826</ele>
        <time>2021-02-21T12:18:09.468Z</time>
      </trkpt>
      <trkpt lat="48.51551" lon="7.17907">
        <ele>826</ele>
        <time>2021-02-21T12:18:10.468Z</time>
      </trkpt>
      <trkpt lat="48.51553" lon="7.17906">
        <ele>826</ele>
        <time>2021-02-21T12:18:11.468Z</time>
      </trkpt>
      <trkpt lat="48.51555" lon="7.17907">
        <ele>826</ele>
        <time>2021-02-21T12:18:12.468Z</time>
      </trkpt>
      <trkpt lat="48.51555" lon="7.17907">
        <ele>827</ele>
        <time>2021-02-21T12:18:13.467Z</time>
      </trkpt>
      <trkpt lat="48.51555" lon="7.17907">
        <ele>827</ele>
        <time>2021-02-21T12:18:14.467Z</time>
      </trkpt>
      <trkpt lat="48.51556" lon="7.17907">
        <ele>827</ele>
        <time>2021-02-21T12:18:15.467Z</time>
      </trkpt>
      <trkpt lat="48.51556" lon="7.17907">
        <ele>828</ele>
        <time>2021-02-21T12:18:16.467Z</time>
      </trkpt>
      <trkpt lat="48.51558" lon="7.17906">
        <ele>829</ele>
        <time>2021-02-21T12:18:17.469Z</time>
      </trkpt>
      <trkpt lat="48.51558" lon="7.17907">
        <ele>829</ele>
        <time>2021-02-21T12:18:18.469Z</time>
      </trkpt>
      <trkpt lat="48.51558" lon="7.17908">
        <ele>829</ele>
        <time>2021-02-21T12:18:19.468Z</time>
      </trkpt>
      <trkpt lat="48.51563" lon="7.17908">
        <ele>822</ele>
        <time>2021-02-21T12:18:20.469Z</time>
      </trkpt>
      <trkpt lat="48.51565" lon="7.17906">
        <ele>822</ele>
        <time>2021-02-21T12:18:21.469Z</time>
      </trkpt>
      <trkpt lat="48.51566" lon="7.17905">
        <ele>822</ele>
        <time>2021-02-21T12:18:22.470Z</time>
      </trkpt>
      <trkpt lat="48.51568" lon="7.17904">
        <ele>822</ele>
        <time>2021-02-21T12:18:23.469Z</time>
      </trkpt>
      <trkpt lat="48.5157" lon="7.17903">
        <ele>822</ele>
        <time>2021-02-21T12:18:24.470Z</time>
      </trkpt>
      <trkpt lat="48.51572" lon="7.17901">
        <ele>823</ele>
        <time>2021-02-21T12:18:25.470Z</time>
      </trkpt>
      <trkpt lat="48.51573" lon="7.179">
        <ele>823</ele>
        <time>2021-02-21T12:18:26.470Z</time>
      </trkpt>
      <trkpt lat="48.51573" lon="7.17899">
        <ele>823</ele>
        <time>2021-02-21T12:18:27.470Z</time>
      </trkpt>
      <trkpt lat="48.51574" lon="7.17899">
        <ele>823</ele>
        <time>2021-02-21T12:18:28.469Z</time>
      </trkpt>
      <trkpt lat="48.51574" lon="7.17898">
        <ele>823</ele>
        <time>2021-02-21T12:18:29.470Z</time>
      </trkpt>
      <trkpt lat="48.51575" lon="7.17898">
        <ele>824</ele>
        <time>2021-02-21T12:18:30.469Z</time>
      </trkpt>
      <trkpt lat="48.51576" lon="7.17897">
        <ele>824</ele>
        <time>2021-02-21T12:18:31.470Z</time>
      </trkpt>
      <trkpt lat="48.51577" lon="7.17896">
        <ele>824</ele>
        <time>2021-02-21T12:18:32.469Z</time>
      </trkpt>
      <trkpt lat="48.51578" lon="7.17895">
        <ele>825</ele>
        <time>2021-02-21T12:18:33.470Z</time>
      </trkpt>
      <trkpt lat="48.51579" lon="7.17894">
        <ele>825</ele>
        <time>2021-02-21T12:18:34.470Z</time>
      </trkpt>
      <trkpt lat="48.5158" lon="7.17893">
        <ele>826</ele>
        <time>2021-02-21T12:18:35.470Z</time>
      </trkpt>
      <trkpt lat="48.51581" lon="7.17893">
        <ele>826</ele>
        <time>2021-02-21T12:18:36.470Z</time>
      </trkpt>
      <trkpt lat="48.51582" lon="7.17892">
        <ele>826</ele>
        <time>2021-02-21T12:18:37.470Z</time>
      </trkpt>
      <trkpt lat="48.51583" lon="7.17891">
        <ele>827</ele>
        <time>2021-02-21T12:18:38.470Z</time>
      </trkpt>
      <trkpt lat="48.51585" lon="7.1789">
        <ele>827</ele>
        <time>2021-02-21T12:18:39.469Z</time>
      </trkpt>
      <trkpt lat="48.51586" lon="7.1789">
        <ele>828</ele>
        <time>2021-02-21T12:18:40.470Z</time>
      </trkpt>
      <trkpt lat="48.51587" lon="7.17889">
        <ele>828</ele>
        <time>2021-02-21T12:18:41.470Z</time>
      </trkpt>
      <trkpt lat="48.51588" lon="7.17888">
        <ele>829</ele>
        <time>2021-02-21T12:18:42.470Z</time>
      </trkpt>
      <trkpt lat="48.51589" lon="7.17887">
        <ele>829</ele>
        <time>2021-02-21T12:18:43.469Z</time>
      </trkpt>
      <trkpt lat="48.5159" lon="7.17886">
        <ele>830</ele>
        <time>2021-02-21T12:18:44.469Z</time>
      </trkpt>
      <trkpt lat="48.51592" lon="7.17886">
        <ele>831</ele>
        <time>2021-02-21T12:18:45.470Z</time>
      </trkpt>
      <trkpt lat="48.51593" lon="7.17884">
        <ele>831</ele>
        <time>2021-02-21T12:18:46.470Z</time>
      </trkpt>
      <trkpt lat="48.51594" lon="7.17884">
        <ele>831</ele>
        <time>2021-02-21T12:18:47.470Z</time>
      </trkpt>
      <trkpt lat="48.51595" lon="7.17884">
        <ele>831</ele>
        <time>2021-02-21T12:18:48.470Z</time>
      </trkpt>
      <trkpt lat="48.51596" lon="7.17884">
        <ele>831</ele>
        <time>2021-02-21T12:18:49.469Z</time>
      </trkpt>
      <trkpt lat="48.51596" lon="7.17884">
        <ele>832</ele>
        <time>2021-02-21T12:18:50.470Z</time>
      </trkpt>
      <trkpt lat="48.51597" lon="7.17883">
        <ele>832</ele>
        <time>2021-02-21T12:18:51.470Z</time>
      </trkpt>
      <trkpt lat="48.51597" lon="7.17883">
        <ele>832</ele>
        <time>2021-02-21T12:18:52.470Z</time>
      </trkpt>
      <trkpt lat="48.51597" lon="7.17883">
        <ele>832</ele>
        <time>2021-02-21T12:18:53.470Z</time>
      </trkpt>
      <trkpt lat="48.51598" lon="7.17882">
        <ele>833</ele>
        <time>2021-02-21T12:18:54.470Z</time>
      </trkpt>
      <trkpt lat="48.51599" lon="7.17881">
        <ele>833</ele>
        <time>2021-02-21T12:18:55.470Z</time>
      </trkpt>
      <trkpt lat="48.516" lon="7.1788">
        <ele>832</ele>
        <time>2021-02-21T12:18:56.469Z</time>
      </trkpt>
      <trkpt lat="48.51601" lon="7.17879">
        <ele>832</ele>
        <time>2021-02-21T12:18:57.470Z</time>
      </trkpt>
      <trkpt lat="48.51601" lon="7.17878">
        <ele>832</ele>
        <time>2021-02-21T12:18:58.470Z</time>
      </trkpt>
      <trkpt lat="48.51602" lon="7.17878">
        <ele>832</ele>
        <time>2021-02-21T12:18:59.470Z</time>
      </trkpt>
      <trkpt lat="48.51602" lon="7.17877">
        <ele>832</ele>
        <time>2021-02-21T12:19:00.470Z</time>
      </trkpt>
      <trkpt lat="48.51603" lon="7.17877">
        <ele>832</ele>
        <time>2021-02-21T12:19:01.470Z</time>
      </trkpt>
      <trkpt lat="48.51604" lon="7.17877">
        <ele>832</ele>
        <time>2021-02-21T12:19:02.469Z</time>
      </trkpt>
      <trkpt lat="48.51604" lon="7.17876">
        <ele>832</ele>
        <time>2021-02-21T12:19:03.470Z</time>
      </trkpt>
      <trkpt lat="48.51605" lon="7.17875">
        <ele>833</ele>
        <time>2021-02-21T12:19:04.470Z</time>
      </trkpt>
      <trkpt lat="48.51607" lon="7.17874">
        <ele>833</ele>
        <time>2021-02-21T12:19:05.470Z</time>
      </trkpt>
      <trkpt lat="48.51608" lon="7.17873">
        <ele>833</ele>
        <time>2021-02-21T12:19:06.469Z</time>
      </trkpt>
      <trkpt lat="48.51609" lon="7.17872">
        <ele>834</ele>
        <time>2021-02-21T12:19:07.470Z</time>
      </trkpt>
      <trkpt lat="48.5161" lon="7.17871">
        <ele>834</ele>
        <time>2021-02-21T12:19:08.469Z</time>
      </trkpt>
      <trkpt lat="48.51611" lon="7.1787">
        <ele>834</ele>
        <time>2021-02-21T12:19:09.469Z</time>
      </trkpt>
      <trkpt lat="48.51612" lon="7.17869">
        <ele>834</ele>
        <time>2021-02-21T12:19:10.470Z</time>
      </trkpt>
      <trkpt lat="48.51613" lon="7.17868">
        <ele>834</ele>
        <time>2021-02-21T12:19:11.470Z</time>
      </trkpt>
      <trkpt lat="48.51613" lon="7.17868">
        <ele>834</ele>
        <time>2021-02-21T12:19:12.470Z</time>
      </trkpt>
      <trkpt lat="48.51613" lon="7.17866">
        <ele>834</ele>
        <time>2021-02-21T12:19:13.470Z</time>
      </trkpt>
      <trkpt lat="48.51614" lon="7.17865">
        <ele>834</ele>
        <time>2021-02-21T12:19:14.470Z</time>
      </trkpt>
      <trkpt lat="48.51614" lon="7.17864">
        <ele>834</ele>
        <time>2021-02-21T12:19:15.470Z</time>
      </trkpt>
      <trkpt lat="48.51614" lon="7.17863">
        <ele>834</ele>
        <time>2021-02-21T12:19:16.470Z</time>
      </trkpt>
      <trkpt lat="48.51614" lon="7.17862">
        <ele>834</ele>
        <time>2021-02-21T12:19:17.469Z</time>
      </trkpt>
      <trkpt lat="48.51615" lon="7.17861">
        <ele>834</ele>
        <time>2021-02-21T12:19:18.470Z</time>
      </trkpt>
      <trkpt lat="48.51616" lon="7.17861">
        <ele>834</ele>
        <time>2021-02-21T12:19:19.470Z</time>
      </trkpt>
      <trkpt lat="48.51617" lon="7.1786">
        <ele>834</ele>
        <time>2021-02-21T12:19:20.470Z</time>
      </trkpt>
      <trkpt lat="48.51618" lon="7.17859">
        <ele>835</ele>
        <time>2021-02-21T12:19:21.470Z</time>
      </trkpt>
      <trkpt lat="48.51619" lon="7.17858">
        <ele>835</ele>
        <time>2021-02-21T12:19:22.469Z</time>
      </trkpt>
      <trkpt lat="48.51619" lon="7.17857">
        <ele>835</ele>
        <time>2021-02-21T12:19:23.470Z</time>
      </trkpt>
      <trkpt lat="48.5162" lon="7.17856">
        <ele>835</ele>
        <time>2021-02-21T12:19:24.470Z</time>
      </trkpt>
      <trkpt lat="48.5162" lon="7.17856">
        <ele>835</ele>
        <time>2021-02-21T12:19:25.470Z</time>
      </trkpt>
      <trkpt lat="48.51621" lon="7.17855">
        <ele>836</ele>
        <time>2021-02-21T12:19:26.469Z</time>
      </trkpt>
      <trkpt lat="48.51621" lon="7.17855">
        <ele>836</ele>
        <time>2021-02-21T12:19:27.470Z</time>
      </trkpt>
      <trkpt lat="48.51622" lon="7.17854">
        <ele>836</ele>
        <time>2021-02-21T12:19:28.470Z</time>
      </trkpt>
      <trkpt lat="48.51623" lon="7.17853">
        <ele>837</ele>
        <time>2021-02-21T12:19:29.470Z</time>
      </trkpt>
      <trkpt lat="48.51624" lon="7.17853">
        <ele>837</ele>
        <time>2021-02-21T12:19:30.469Z</time>
      </trkpt>
      <trkpt lat="48.51625" lon="7.17851">
        <ele>837</ele>
        <time>2021-02-21T12:19:31.469Z</time>
      </trkpt>
      <trkpt lat="48.51626" lon="7.1785">
        <ele>837</ele>
        <time>2021-02-21T12:19:32.470Z</time>
      </trkpt>
      <trkpt lat="48.51627" lon="7.17849">
        <ele>838</ele>
        <time>2021-02-21T12:19:33.470Z</time>
      </trkpt>
      <trkpt lat="48.51627" lon="7.17848">
        <ele>838</ele>
        <time>2021-02-21T12:19:34.470Z</time>
      </trkpt>
      <trkpt lat="48.51627" lon="7.17847">
        <ele>838</ele>
        <time>2021-02-21T12:19:35.470Z</time>
      </trkpt>
      <trkpt lat="48.51628" lon="7.17846">
        <ele>838</ele>
        <time>2021-02-21T12:19:36.470Z</time>
      </trkpt>
      <trkpt lat="48.51628" lon="7.17845">
        <ele>839</ele>
        <time>2021-02-21T12:19:37.470Z</time>
      </trkpt>
      <trkpt lat="48.51629" lon="7.17844">
        <ele>839</ele>
        <time>2021-02-21T12:19:38.470Z</time>
      </trkpt>
      <trkpt lat="48.5163" lon="7.17842">
        <ele>839</ele>
        <time>2021-02-21T12:19:39.470Z</time>
      </trkpt>
      <trkpt lat="48.5163" lon="7.17841">
        <ele>838</ele>
        <time>2021-02-21T12:19:40.470Z</time>
      </trkpt>
      <trkpt lat="48.51631" lon="7.17841">
        <ele>839</ele>
        <time>2021-02-21T12:19:41.470Z</time>
      </trkpt>
      <trkpt lat="48.51632" lon="7.1784">
        <ele>839</ele>
        <time>2021-02-21T12:19:42.470Z</time>
      </trkpt>
      <trkpt lat="48.51632" lon="7.1784">
        <ele>839</ele>
        <time>2021-02-21T12:19:43.470Z</time>
      </trkpt>
      <trkpt lat="48.51633" lon="7.17839">
        <ele>839</ele>
        <time>2021-02-21T12:19:44.469Z</time>
      </trkpt>
      <trkpt lat="48.51634" lon="7.17838">
        <ele>840</ele>
        <time>2021-02-21T12:19:45.470Z</time>
      </trkpt>
      <trkpt lat="48.51635" lon="7.17837">
        <ele>840</ele>
        <time>2021-02-21T12:19:46.470Z</time>
      </trkpt>
      <trkpt lat="48.51637" lon="7.17836">
        <ele>841</ele>
        <time>2021-02-21T12:19:47.470Z</time>
      </trkpt>
      <trkpt lat="48.51638" lon="7.17835">
        <ele>841</ele>
        <time>2021-02-21T12:19:48.470Z</time>
      </trkpt>
      <trkpt lat="48.5164" lon="7.17835">
        <ele>841</ele>
        <time>2021-02-21T12:19:49.469Z</time>
      </trkpt>
      <trkpt lat="48.5164" lon="7.17834">
        <ele>842</ele>
        <time>2021-02-21T12:19:50.470Z</time>
      </trkpt>
      <trkpt lat="48.51641" lon="7.17834">
        <ele>842</ele>
        <time>2021-02-21T12:19:51.470Z</time>
      </trkpt>
      <trkpt lat="48.51641" lon="7.17834">
        <ele>842</ele>
        <time>2021-02-21T12:19:52.470Z</time>
      </trkpt>
      <trkpt lat="48.51641" lon="7.17833">
        <ele>842</ele>
        <time>2021-02-21T12:19:53.470Z</time>
      </trkpt>
      <trkpt lat="48.51642" lon="7.17833">
        <ele>842</ele>
        <time>2021-02-21T12:19:54.470Z</time>
      </trkpt>
      <trkpt lat="48.51642" lon="7.17832">
        <ele>842</ele>
        <time>2021-02-21T12:19:55.470Z</time>
      </trkpt>
      <trkpt lat="48.51643" lon="7.17832">
        <ele>843</ele>
        <time>2021-02-21T12:19:56.469Z</time>
      </trkpt>
      <trkpt lat="48.51643" lon="7.17831">
        <ele>843</ele>
        <time>2021-02-21T12:19:57.469Z</time>
      </trkpt>
      <trkpt lat="48.51644" lon="7.1783">
        <ele>843</ele>
        <time>2021-02-21T12:19:58.469Z</time>
      </trkpt>
      <trkpt lat="48.51644" lon="7.1783">
        <ele>844</ele>
        <time>2021-02-21T12:19:59.470Z</time>
      </trkpt>
      <trkpt lat="48.51644" lon="7.17829">
        <ele>844</ele>
        <time>2021-02-21T12:20:00.469Z</time>
      </trkpt>
      <trkpt lat="48.51645" lon="7.17828">
        <ele>844</ele>
        <time>2021-02-21T12:20:01.470Z</time>
      </trkpt>
      <trkpt lat="48.51645" lon="7.17827">
        <ele>844</ele>
        <time>2021-02-21T12:20:02.470Z</time>
      </trkpt>
      <trkpt lat="48.51647" lon="7.17827">
        <ele>845</ele>
        <time>2021-02-21T12:20:03.470Z</time>
      </trkpt>
      <trkpt lat="48.51648" lon="7.17826">
        <ele>845</ele>
        <time>2021-02-21T12:20:04.470Z</time>
      </trkpt>
      <trkpt lat="48.5165" lon="7.17825">
        <ele>845</ele>
        <time>2021-02-21T12:20:05.470Z</time>
      </trkpt>
      <trkpt lat="48.51651" lon="7.17824">
        <ele>846</ele>
        <time>2021-02-21T12:20:06.470Z</time>
      </trkpt>
      <trkpt lat="48.51651" lon="7.17823">
        <ele>846</ele>
        <time>2021-02-21T12:20:07.470Z</time>
      </trkpt>
      <trkpt lat="48.51652" lon="7.17823">
        <ele>846</ele>
        <time>2021-02-21T12:20:08.470Z</time>
      </trkpt>
      <trkpt lat="48.51652" lon="7.17822">
        <ele>847</ele>
        <time>2021-02-21T12:20:09.470Z</time>
      </trkpt>
      <trkpt lat="48.51653" lon="7.17822">
        <ele>847</ele>
        <time>2021-02-21T12:20:10.469Z</time>
      </trkpt>
      <trkpt lat="48.51654" lon="7.17821">
        <ele>848</ele>
        <time>2021-02-21T12:20:11.470Z</time>
      </trkpt>
      <trkpt lat="48.51654" lon="7.17821">
        <ele>848</ele>
        <time>2021-02-21T12:20:12.470Z</time>
      </trkpt>
      <trkpt lat="48.51655" lon="7.1782">
        <ele>849</ele>
        <time>2021-02-21T12:20:13.470Z</time>
      </trkpt>
      <trkpt lat="48.51655" lon="7.17819">
        <ele>850</ele>
        <time>2021-02-21T12:20:14.470Z</time>
      </trkpt>
      <trkpt lat="48.51655" lon="7.17818">
        <ele>850</ele>
        <time>2021-02-21T12:20:15.469Z</time>
      </trkpt>
      <trkpt lat="48.51655" lon="7.17816">
        <ele>851</ele>
        <time>2021-02-21T12:20:16.469Z</time>
      </trkpt>
      <trkpt lat="48.51655" lon="7.17815">
        <ele>851</ele>
        <time>2021-02-21T12:20:17.469Z</time>
      </trkpt>
      <trkpt lat="48.51656" lon="7.17814">
        <ele>851</ele>
        <time>2021-02-21T12:20:18.469Z</time>
      </trkpt>
      <trkpt lat="48.51657" lon="7.17812">
        <ele>851</ele>
        <time>2021-02-21T12:20:19.469Z</time>
      </trkpt>
      <trkpt lat="48.51658" lon="7.1781">
        <ele>851</ele>
        <time>2021-02-21T12:20:20.469Z</time>
      </trkpt>
      <trkpt lat="48.51659" lon="7.17808">
        <ele>851</ele>
        <time>2021-02-21T12:20:21.469Z</time>
      </trkpt>
      <trkpt lat="48.5166" lon="7.17807">
        <ele>851</ele>
        <time>2021-02-21T12:20:22.469Z</time>
      </trkpt>
      <trkpt lat="48.5166" lon="7.17806">
        <ele>851</ele>
        <time>2021-02-21T12:20:23.469Z</time>
      </trkpt>
      <trkpt lat="48.51661" lon="7.17805">
        <ele>850</ele>
        <time>2021-02-21T12:20:24.470Z</time>
      </trkpt>
      <trkpt lat="48.51662" lon="7.17805">
        <ele>850</ele>
        <time>2021-02-21T12:20:25.470Z</time>
      </trkpt>
      <trkpt lat="48.51663" lon="7.17804">
        <ele>850</ele>
        <time>2021-02-21T12:20:26.469Z</time>
      </trkpt>
      <trkpt lat="48.51664" lon="7.17802">
        <ele>850</ele>
        <time>2021-02-21T12:20:27.470Z</time>
      </trkpt>
      <trkpt lat="48.51665" lon="7.178">
        <ele>850</ele>
        <time>2021-02-21T12:20:29.562Z</time>
      </trkpt>
      <trkpt lat="48.51666" lon="7.17798">
        <ele>850</ele>
        <time>2021-02-21T12:20:30.562Z</time>
      </trkpt>
      <trkpt lat="48.51667" lon="7.17796">
        <ele>850</ele>
        <time>2021-02-21T12:20:31.562Z</time>
      </trkpt>
      <trkpt lat="48.51668" lon="7.17795">
        <ele>851</ele>
        <time>2021-02-21T12:20:32.562Z</time>
      </trkpt>
      <trkpt lat="48.5167" lon="7.17794">
        <ele>851</ele>
        <time>2021-02-21T12:20:33.561Z</time>
      </trkpt>
      <trkpt lat="48.51671" lon="7.17793">
        <ele>852</ele>
        <time>2021-02-21T12:20:34.562Z</time>
      </trkpt>
      <trkpt lat="48.51673" lon="7.17792">
        <ele>852</ele>
        <time>2021-02-21T12:20:35.562Z</time>
      </trkpt>
      <trkpt lat="48.51674" lon="7.17791">
        <ele>852</ele>
        <time>2021-02-21T12:20:36.562Z</time>
      </trkpt>
      <trkpt lat="48.51675" lon="7.1779">
        <ele>853</ele>
        <time>2021-02-21T12:20:37.562Z</time>
      </trkpt>
      <trkpt lat="48.51676" lon="7.17788">
        <ele>853</ele>
        <time>2021-02-21T12:20:38.562Z</time>
      </trkpt>
      <trkpt lat="48.51677" lon="7.17787">
        <ele>853</ele>
        <time>2021-02-21T12:20:39.561Z</time>
      </trkpt>
      <trkpt lat="48.51677" lon="7.17786">
        <ele>854</ele>
        <time>2021-02-21T12:20:40.562Z</time>
      </trkpt>
      <trkpt lat="48.51678" lon="7.17785">
        <ele>854</ele>
        <time>2021-02-21T12:20:41.562Z</time>
      </trkpt>
      <trkpt lat="48.51678" lon="7.17785">
        <ele>855</ele>
        <time>2021-02-21T12:20:42.562Z</time>
      </trkpt>
      <trkpt lat="48.51679" lon="7.17784">
        <ele>855</ele>
        <time>2021-02-21T12:20:43.562Z</time>
      </trkpt>
      <trkpt lat="48.51679" lon="7.17783">
        <ele>855</ele>
        <time>2021-02-21T12:20:44.562Z</time>
      </trkpt>
      <trkpt lat="48.51679" lon="7.17782">
        <ele>856</ele>
        <time>2021-02-21T12:20:45.561Z</time>
      </trkpt>
      <trkpt lat="48.5168" lon="7.17781">
        <ele>856</ele>
        <time>2021-02-21T12:20:46.561Z</time>
      </trkpt>
      <trkpt lat="48.5168" lon="7.17781">
        <ele>857</ele>
        <time>2021-02-21T12:20:47.562Z</time>
      </trkpt>
      <trkpt lat="48.5168" lon="7.1778">
        <ele>857</ele>
        <time>2021-02-21T12:20:48.562Z</time>
      </trkpt>
      <trkpt lat="48.51681" lon="7.1778">
        <ele>858</ele>
        <time>2021-02-21T12:20:49.562Z</time>
      </trkpt>
      <trkpt lat="48.5168" lon="7.17779">
        <ele>859</ele>
        <time>2021-02-21T12:20:50.562Z</time>
      </trkpt>
      <trkpt lat="48.51681" lon="7.17777">
        <ele>859</ele>
        <time>2021-02-21T12:20:51.562Z</time>
      </trkpt>
      <trkpt lat="48.51681" lon="7.17775">
        <ele>860</ele>
        <time>2021-02-21T12:20:52.561Z</time>
      </trkpt>
      <trkpt lat="48.51682" lon="7.17773">
        <ele>860</ele>
        <time>2021-02-21T12:20:53.562Z</time>
      </trkpt>
      <trkpt lat="48.51682" lon="7.17772">
        <ele>860</ele>
        <time>2021-02-21T12:20:54.562Z</time>
      </trkpt>
      <trkpt lat="48.51683" lon="7.17771">
        <ele>860</ele>
        <time>2021-02-21T12:20:55.562Z</time>
      </trkpt>
      <trkpt lat="48.51684" lon="7.17771">
        <ele>860</ele>
        <time>2021-02-21T12:20:56.561Z</time>
      </trkpt>
      <trkpt lat="48.51684" lon="7.1777">
        <ele>860</ele>
        <time>2021-02-21T12:20:57.562Z</time>
      </trkpt>
      <trkpt lat="48.51684" lon="7.17769">
        <ele>861</ele>
        <time>2021-02-21T12:20:58.561Z</time>
      </trkpt>
      <trkpt lat="48.51684" lon="7.17769">
        <ele>861</ele>
        <time>2021-02-21T12:20:59.562Z</time>
      </trkpt>
      <trkpt lat="48.51684" lon="7.17768">
        <ele>861</ele>
        <time>2021-02-21T12:21:00.562Z</time>
      </trkpt>
      <trkpt lat="48.51684" lon="7.17767">
        <ele>862</ele>
        <time>2021-02-21T12:21:01.561Z</time>
      </trkpt>
      <trkpt lat="48.51685" lon="7.17767">
        <ele>862</ele>
        <time>2021-02-21T12:21:02.562Z</time>
      </trkpt>
      <trkpt lat="48.51686" lon="7.17767">
        <ele>863</ele>
        <time>2021-02-21T12:21:03.562Z</time>
      </trkpt>
      <trkpt lat="48.51688" lon="7.17767">
        <ele>863</ele>
        <time>2021-02-21T12:21:04.562Z</time>
      </trkpt>
      <trkpt lat="48.51689" lon="7.17767">
        <ele>863</ele>
        <time>2021-02-21T12:21:05.561Z</time>
      </trkpt>
      <trkpt lat="48.5169" lon="7.17767">
        <ele>864</ele>
        <time>2021-02-21T12:21:06.561Z</time>
      </trkpt>
      <trkpt lat="48.51691" lon="7.17767">
        <ele>864</ele>
        <time>2021-02-21T12:21:07.562Z</time>
      </trkpt>
      <trkpt lat="48.51691" lon="7.17767">
        <ele>863</ele>
        <time>2021-02-21T12:21:08.561Z</time>
      </trkpt>
      <trkpt lat="48.51692" lon="7.17767">
        <ele>863</ele>
        <time>2021-02-21T12:21:09.562Z</time>
      </trkpt>
      <trkpt lat="48.51693" lon="7.17767">
        <ele>863</ele>
        <time>2021-02-21T12:21:10.562Z</time>
      </trkpt>
      <trkpt lat="48.51694" lon="7.17767">
        <ele>863</ele>
        <time>2021-02-21T12:21:11.562Z</time>
      </trkpt>
      <trkpt lat="48.51695" lon="7.17766">
        <ele>863</ele>
        <time>2021-02-21T12:21:12.562Z</time>
      </trkpt>
      <trkpt lat="48.51696" lon="7.17765">
        <ele>863</ele>
        <time>2021-02-21T12:21:13.562Z</time>
      </trkpt>
      <trkpt lat="48.51698" lon="7.17764">
        <ele>863</ele>
        <time>2021-02-21T12:21:14.563Z</time>
      </trkpt>
      <trkpt lat="48.517" lon="7.17764">
        <ele>863</ele>
        <time>2021-02-21T12:21:15.562Z</time>
      </trkpt>
      <trkpt lat="48.517" lon="7.17764">
        <ele>863</ele>
        <time>2021-02-21T12:21:16.562Z</time>
      </trkpt>
      <trkpt lat="48.517" lon="7.17764">
        <ele>863</ele>
        <time>2021-02-21T12:21:17.563Z</time>
      </trkpt>
      <trkpt lat="48.517" lon="7.17763">
        <ele>864</ele>
        <time>2021-02-21T12:21:18.563Z</time>
      </trkpt>
      <trkpt lat="48.517" lon="7.17762">
        <ele>864</ele>
        <time>2021-02-21T12:21:19.562Z</time>
      </trkpt>
      <trkpt lat="48.51702" lon="7.17762">
        <ele>866</ele>
        <time>2021-02-21T12:21:20.564Z</time>
      </trkpt>
      <trkpt lat="48.51703" lon="7.17763">
        <ele>864</ele>
        <time>2021-02-21T12:21:21.564Z</time>
      </trkpt>
      <trkpt lat="48.51703" lon="7.17763">
        <ele>864</ele>
        <time>2021-02-21T12:21:22.564Z</time>
      </trkpt>
      <trkpt lat="48.51703" lon="7.17763">
        <ele>864</ele>
        <time>2021-02-21T12:21:23.563Z</time>
      </trkpt>
      <trkpt lat="48.51713" lon="7.17769">
        <ele>867</ele>
        <time>2021-02-21T12:21:24.565Z</time>
      </trkpt>
      <trkpt lat="48.51719" lon="7.17762">
        <ele>867</ele>
        <time>2021-02-21T12:21:25.564Z</time>
      </trkpt>
      <trkpt lat="48.5172" lon="7.1776">
        <ele>867</ele>
        <time>2021-02-21T12:21:26.564Z</time>
      </trkpt>
      <trkpt lat="48.51722" lon="7.17758">
        <ele>867</ele>
        <time>2021-02-21T12:21:27.565Z</time>
      </trkpt>
      <trkpt lat="48.51725" lon="7.17756">
        <ele>867</ele>
        <time>2021-02-21T12:21:28.564Z</time>
      </trkpt>
      <trkpt lat="48.51726" lon="7.17756">
        <ele>867</ele>
        <time>2021-02-21T12:21:29.564Z</time>
      </trkpt>
      <trkpt lat="48.51726" lon="7.17755">
        <ele>866</ele>
        <time>2021-02-21T12:21:30.564Z</time>
      </trkpt>
      <trkpt lat="48.51727" lon="7.17755">
        <ele>866</ele>
        <time>2021-02-21T12:21:31.564Z</time>
      </trkpt>
      <trkpt lat="48.51727" lon="7.17754">
        <ele>866</ele>
        <time>2021-02-21T12:21:32.564Z</time>
      </trkpt>
      <trkpt lat="48.51728" lon="7.17754">
        <ele>866</ele>
        <time>2021-02-21T12:21:33.564Z</time>
      </trkpt>
      <trkpt lat="48.51729" lon="7.17753">
        <ele>865</ele>
        <time>2021-02-21T12:21:34.564Z</time>
      </trkpt>
      <trkpt lat="48.51729" lon="7.17752">
        <ele>865</ele>
        <time>2021-02-21T12:21:35.564Z</time>
      </trkpt>
      <trkpt lat="48.5173" lon="7.17752">
        <ele>865</ele>
        <time>2021-02-21T12:21:36.565Z</time>
      </trkpt>
      <trkpt lat="48.51731" lon="7.17751">
        <ele>865</ele>
        <time>2021-02-21T12:21:37.565Z</time>
      </trkpt>
      <trkpt lat="48.51732" lon="7.17749">
        <ele>866</ele>
        <time>2021-02-21T12:21:38.564Z</time>
      </trkpt>
      <trkpt lat="48.51734" lon="7.17748">
        <ele>866</ele>
        <time>2021-02-21T12:21:39.565Z</time>
      </trkpt>
      <trkpt lat="48.51735" lon="7.17748">
        <ele>866</ele>
        <time>2021-02-21T12:21:40.564Z</time>
      </trkpt>
      <trkpt lat="48.51736" lon="7.17748">
        <ele>866</ele>
        <time>2021-02-21T12:21:41.565Z</time>
      </trkpt>
      <trkpt lat="48.51739" lon="7.17747">
        <ele>866</ele>
        <time>2021-02-21T12:21:42.564Z</time>
      </trkpt>
      <trkpt lat="48.5174" lon="7.17746">
        <ele>866</ele>
        <time>2021-02-21T12:21:43.565Z</time>
      </trkpt>
      <trkpt lat="48.51741" lon="7.17745">
        <ele>866</ele>
        <time>2021-02-21T12:21:44.564Z</time>
      </trkpt>
      <trkpt lat="48.51743" lon="7.17744">
        <ele>866</ele>
        <time>2021-02-21T12:21:45.564Z</time>
      </trkpt>
      <trkpt lat="48.51744" lon="7.17744">
        <ele>865</ele>
        <time>2021-02-21T12:21:46.565Z</time>
      </trkpt>
      <trkpt lat="48.51745" lon="7.17744">
        <ele>865</ele>
        <time>2021-02-21T12:21:47.565Z</time>
      </trkpt>
      <trkpt lat="48.51746" lon="7.17743">
        <ele>866</ele>
        <time>2021-02-21T12:21:48.564Z</time>
      </trkpt>
      <trkpt lat="48.51747" lon="7.17742">
        <ele>866</ele>
        <time>2021-02-21T12:21:49.565Z</time>
      </trkpt>
      <trkpt lat="48.51748" lon="7.17742">
        <ele>866</ele>
        <time>2021-02-21T12:21:50.564Z</time>
      </trkpt>
      <trkpt lat="48.51748" lon="7.17741">
        <ele>867</ele>
        <time>2021-02-21T12:21:51.565Z</time>
      </trkpt>
      <trkpt lat="48.51749" lon="7.1774">
        <ele>867</ele>
        <time>2021-02-21T12:21:52.565Z</time>
      </trkpt>
      <trkpt lat="48.51749" lon="7.1774">
        <ele>868</ele>
        <time>2021-02-21T12:21:53.564Z</time>
      </trkpt>
      <trkpt lat="48.5175" lon="7.17739">
        <ele>869</ele>
        <time>2021-02-21T12:21:54.564Z</time>
      </trkpt>
      <trkpt lat="48.51751" lon="7.17739">
        <ele>870</ele>
        <time>2021-02-21T12:21:55.565Z</time>
      </trkpt>
      <trkpt lat="48.51752" lon="7.17739">
        <ele>870</ele>
        <time>2021-02-21T12:21:56.565Z</time>
      </trkpt>
      <trkpt lat="48.51753" lon="7.17738">
        <ele>870</ele>
        <time>2021-02-21T12:21:57.564Z</time>
      </trkpt>
      <trkpt lat="48.51754" lon="7.17738">
        <ele>870</ele>
        <time>2021-02-21T12:21:58.564Z</time>
      </trkpt>
      <trkpt lat="48.51755" lon="7.17737">
        <ele>870</ele>
        <time>2021-02-21T12:21:59.564Z</time>
      </trkpt>
      <trkpt lat="48.51756" lon="7.17736">
        <ele>871</ele>
        <time>2021-02-21T12:22:00.565Z</time>
      </trkpt>
      <trkpt lat="48.51756" lon="7.17735">
        <ele>871</ele>
        <time>2021-02-21T12:22:01.565Z</time>
      </trkpt>
      <trkpt lat="48.51756" lon="7.17735">
        <ele>871</ele>
        <time>2021-02-21T12:22:02.564Z</time>
      </trkpt>
      <trkpt lat="48.51758" lon="7.17734">
        <ele>871</ele>
        <time>2021-02-21T12:22:03.564Z</time>
      </trkpt>
      <trkpt lat="48.51759" lon="7.17734">
        <ele>871</ele>
        <time>2021-02-21T12:22:04.565Z</time>
      </trkpt>
      <trkpt lat="48.5176" lon="7.17733">
        <ele>870</ele>
        <time>2021-02-21T12:22:05.565Z</time>
      </trkpt>
      <trkpt lat="48.51762" lon="7.17733">
        <ele>870</ele>
        <time>2021-02-21T12:22:06.565Z</time>
      </trkpt>
      <trkpt lat="48.51763" lon="7.17733">
        <ele>870</ele>
        <time>2021-02-21T12:22:07.564Z</time>
      </trkpt>
      <trkpt lat="48.51764" lon="7.17732">
        <ele>869</ele>
        <time>2021-02-21T12:22:08.565Z</time>
      </trkpt>
      <trkpt lat="48.51765" lon="7.17731">
        <ele>869</ele>
        <time>2021-02-21T12:22:09.564Z</time>
      </trkpt>
      <trkpt lat="48.51766" lon="7.1773">
        <ele>868</ele>
        <time>2021-02-21T12:22:10.565Z</time>
      </trkpt>
      <trkpt lat="48.51767" lon="7.17729">
        <ele>867</ele>
        <time>2021-02-21T12:22:11.565Z</time>
      </trkpt>
      <trkpt lat="48.51769" lon="7.17729">
        <ele>866</ele>
        <time>2021-02-21T12:22:12.565Z</time>
      </trkpt>
      <trkpt lat="48.5177" lon="7.17728">
        <ele>866</ele>
        <time>2021-02-21T12:22:13.565Z</time>
      </trkpt>
      <trkpt lat="48.51772" lon="7.17728">
        <ele>866</ele>
        <time>2021-02-21T12:22:14.565Z</time>
      </trkpt>
      <trkpt lat="48.51773" lon="7.17727">
        <ele>865</ele>
        <time>2021-02-21T12:22:15.565Z</time>
      </trkpt>
      <trkpt lat="48.51775" lon="7.17727">
        <ele>865</ele>
        <time>2021-02-21T12:22:16.565Z</time>
      </trkpt>
      <trkpt lat="48.51776" lon="7.17726">
        <ele>865</ele>
        <time>2021-02-21T12:22:17.565Z</time>
      </trkpt>
      <trkpt lat="48.51777" lon="7.17725">
        <ele>864</ele>
        <time>2021-02-21T12:22:18.565Z</time>
      </trkpt>
      <trkpt lat="48.51778" lon="7.17724">
        <ele>864</ele>
        <time>2021-02-21T12:22:19.565Z</time>
      </trkpt>
      <trkpt lat="48.51779" lon="7.17723">
        <ele>863</ele>
        <time>2021-02-21T12:22:20.564Z</time>
      </trkpt>
      <trkpt lat="48.5178" lon="7.17723">
        <ele>863</ele>
        <time>2021-02-21T12:22:21.565Z</time>
      </trkpt>
      <trkpt lat="48.51782" lon="7.17723">
        <ele>864</ele>
        <time>2021-02-21T12:22:22.565Z</time>
      </trkpt>
      <trkpt lat="48.51783" lon="7.17722">
        <ele>864</ele>
        <time>2021-02-21T12:22:23.565Z</time>
      </trkpt>
      <trkpt lat="48.51785" lon="7.17721">
        <ele>864</ele>
        <time>2021-02-21T12:22:24.565Z</time>
      </trkpt>
      <trkpt lat="48.51786" lon="7.1772">
        <ele>864</ele>
        <time>2021-02-21T12:22:25.565Z</time>
      </trkpt>
      <trkpt lat="48.51787" lon="7.1772">
        <ele>864</ele>
        <time>2021-02-21T12:22:26.565Z</time>
      </trkpt>
      <trkpt lat="48.51787" lon="7.17719">
        <ele>865</ele>
        <time>2021-02-21T12:22:27.565Z</time>
      </trkpt>
      <trkpt lat="48.51789" lon="7.17718">
        <ele>865</ele>
        <time>2021-02-21T12:22:28.564Z</time>
      </trkpt>
      <trkpt lat="48.5179" lon="7.17718">
        <ele>865</ele>
        <time>2021-02-21T12:22:29.565Z</time>
      </trkpt>
      <trkpt lat="48.51791" lon="7.17717">
        <ele>865</ele>
        <time>2021-02-21T12:22:30.565Z</time>
      </trkpt>
      <trkpt lat="48.51792" lon="7.17716">
        <ele>865</ele>
        <time>2021-02-21T12:22:31.564Z</time>
      </trkpt>
      <trkpt lat="48.51794" lon="7.17715">
        <ele>865</ele>
        <time>2021-02-21T12:22:32.564Z</time>
      </trkpt>
      <trkpt lat="48.51795" lon="7.17715">
        <ele>864</ele>
        <time>2021-02-21T12:22:33.565Z</time>
      </trkpt>
      <trkpt lat="48.51796" lon="7.17713">
        <ele>864</ele>
        <time>2021-02-21T12:22:34.565Z</time>
      </trkpt>
      <trkpt lat="48.51797" lon="7.17712">
        <ele>863</ele>
        <time>2021-02-21T12:22:35.565Z</time>
      </trkpt>
      <trkpt lat="48.51798" lon="7.17712">
        <ele>863</ele>
        <time>2021-02-21T12:22:36.565Z</time>
      </trkpt>
      <trkpt lat="48.51799" lon="7.17711">
        <ele>864</ele>
        <time>2021-02-21T12:22:37.565Z</time>
      </trkpt>
      <trkpt lat="48.518" lon="7.17711">
        <ele>864</ele>
        <time>2021-02-21T12:22:38.564Z</time>
      </trkpt>
      <trkpt lat="48.51801" lon="7.1771">
        <ele>864</ele>
        <time>2021-02-21T12:22:39.565Z</time>
      </trkpt>
      <trkpt lat="48.51803" lon="7.1771">
        <ele>865</ele>
        <time>2021-02-21T12:22:40.564Z</time>
      </trkpt>
      <trkpt lat="48.51804" lon="7.17709">
        <ele>865</ele>
        <time>2021-02-21T12:22:41.565Z</time>
      </trkpt>
      <trkpt lat="48.51805" lon="7.17708">
        <ele>865</ele>
        <time>2021-02-21T12:22:42.565Z</time>
      </trkpt>
      <trkpt lat="48.51805" lon="7.17707">
        <ele>864</ele>
        <time>2021-02-21T12:22:43.565Z</time>
      </trkpt>
      <trkpt lat="48.51806" lon="7.17707">
        <ele>864</ele>
        <time>2021-02-21T12:22:44.565Z</time>
      </trkpt>
      <trkpt lat="48.51807" lon="7.17706">
        <ele>864</ele>
        <time>2021-02-21T12:22:45.564Z</time>
      </trkpt>
      <trkpt lat="48.51808" lon="7.17705">
        <ele>864</ele>
        <time>2021-02-21T12:22:46.564Z</time>
      </trkpt>
      <trkpt lat="48.51808" lon="7.17704">
        <ele>864</ele>
        <time>2021-02-21T12:22:47.565Z</time>
      </trkpt>
      <trkpt lat="48.51809" lon="7.17704">
        <ele>864</ele>
        <time>2021-02-21T12:22:48.565Z</time>
      </trkpt>
      <trkpt lat="48.5181" lon="7.17703">
        <ele>864</ele>
        <time>2021-02-21T12:22:49.565Z</time>
      </trkpt>
      <trkpt lat="48.51811" lon="7.17702">
        <ele>864</ele>
        <time>2021-02-21T12:22:50.565Z</time>
      </trkpt>
      <trkpt lat="48.51811" lon="7.17702">
        <ele>865</ele>
        <time>2021-02-21T12:22:51.565Z</time>
      </trkpt>
      <trkpt lat="48.51812" lon="7.17701">
        <ele>865</ele>
        <time>2021-02-21T12:22:52.565Z</time>
      </trkpt>
      <trkpt lat="48.51812" lon="7.177">
        <ele>866</ele>
        <time>2021-02-21T12:22:53.565Z</time>
      </trkpt>
      <trkpt lat="48.51813" lon="7.17699">
        <ele>866</ele>
        <time>2021-02-21T12:22:54.565Z</time>
      </trkpt>
      <trkpt lat="48.51814" lon="7.17699">
        <ele>867</ele>
        <time>2021-02-21T12:22:58.620Z</time>
      </trkpt>
      <trkpt lat="48.51815" lon="7.17698">
        <ele>867</ele>
        <time>2021-02-21T12:22:59.620Z</time>
      </trkpt>
      <trkpt lat="48.51815" lon="7.17697">
        <ele>867</ele>
        <time>2021-02-21T12:23:00.620Z</time>
      </trkpt>
      <trkpt lat="48.51816" lon="7.17696">
        <ele>868</ele>
        <time>2021-02-21T12:23:01.620Z</time>
      </trkpt>
      <trkpt lat="48.51816" lon="7.17695">
        <ele>868</ele>
        <time>2021-02-21T12:23:02.619Z</time>
      </trkpt>
      <trkpt lat="48.51817" lon="7.17695">
        <ele>868</ele>
        <time>2021-02-21T12:23:03.620Z</time>
      </trkpt>
      <trkpt lat="48.51817" lon="7.17694">
        <ele>869</ele>
        <time>2021-02-21T12:23:04.620Z</time>
      </trkpt>
      <trkpt lat="48.51818" lon="7.17693">
        <ele>868</ele>
        <time>2021-02-21T12:23:05.620Z</time>
      </trkpt>
      <trkpt lat="48.51818" lon="7.17693">
        <ele>868</ele>
        <time>2021-02-21T12:23:06.619Z</time>
      </trkpt>
      <trkpt lat="48.51818" lon="7.17693">
        <ele>868</ele>
        <time>2021-02-21T12:23:07.620Z</time>
      </trkpt>
      <trkpt lat="48.51819" lon="7.17693">
        <ele>868</ele>
        <time>2021-02-21T12:23:08.620Z</time>
      </trkpt>
      <trkpt lat="48.5182" lon="7.17691">
        <ele>868</ele>
        <time>2021-02-21T12:23:09.620Z</time>
      </trkpt>
      <trkpt lat="48.51821" lon="7.17689">
        <ele>868</ele>
        <time>2021-02-21T12:23:10.620Z</time>
      </trkpt>
      <trkpt lat="48.51822" lon="7.17688">
        <ele>868</ele>
        <time>2021-02-21T12:23:11.620Z</time>
      </trkpt>
      <trkpt lat="48.51823" lon="7.17686">
        <ele>868</ele>
        <time>2021-02-21T12:23:12.620Z</time>
      </trkpt>
      <trkpt lat="48.51823" lon="7.17685">
        <ele>868</ele>
        <time>2021-02-21T12:23:13.620Z</time>
      </trkpt>
      <trkpt lat="48.51824" lon="7.17684">
        <ele>868</ele>
        <time>2021-02-21T12:23:14.619Z</time>
      </trkpt>
      <trkpt lat="48.51825" lon="7.17683">
        <ele>868</ele>
        <time>2021-02-21T12:23:15.619Z</time>
      </trkpt>
      <trkpt lat="48.51826" lon="7.17682">
        <ele>868</ele>
        <time>2021-02-21T12:23:16.620Z</time>
      </trkpt>
      <trkpt lat="48.51827" lon="7.17681">
        <ele>867</ele>
        <time>2021-02-21T12:23:17.620Z</time>
      </trkpt>
      <trkpt lat="48.51827" lon="7.1768">
        <ele>867</ele>
        <time>2021-02-21T12:23:18.620Z</time>
      </trkpt>
      <trkpt lat="48.51828" lon="7.17679">
        <ele>867</ele>
        <time>2021-02-21T12:23:19.620Z</time>
      </trkpt>
      <trkpt lat="48.51829" lon="7.17678">
        <ele>867</ele>
        <time>2021-02-21T12:23:20.619Z</time>
      </trkpt>
      <trkpt lat="48.5183" lon="7.17676">
        <ele>867</ele>
        <time>2021-02-21T12:23:21.620Z</time>
      </trkpt>
      <trkpt lat="48.51832" lon="7.17675">
        <ele>866</ele>
        <time>2021-02-21T12:23:22.620Z</time>
      </trkpt>
      <trkpt lat="48.51833" lon="7.17674">
        <ele>866</ele>
        <time>2021-02-21T12:23:23.620Z</time>
      </trkpt>
      <trkpt lat="48.51834" lon="7.17673">
        <ele>866</ele>
        <time>2021-02-21T12:23:24.620Z</time>
      </trkpt>
      <trkpt lat="48.51835" lon="7.17673">
        <ele>866</ele>
        <time>2021-02-21T12:23:25.620Z</time>
      </trkpt>
      <trkpt lat="48.51835" lon="7.17672">
        <ele>866</ele>
        <time>2021-02-21T12:23:26.620Z</time>
      </trkpt>
      <trkpt lat="48.51836" lon="7.17671">
        <ele>867</ele>
        <time>2021-02-21T12:23:27.620Z</time>
      </trkpt>
      <trkpt lat="48.51836" lon="7.1767">
        <ele>867</ele>
        <time>2021-02-21T12:23:28.620Z</time>
      </trkpt>
      <trkpt lat="48.51837" lon="7.17669">
        <ele>867</ele>
        <time>2021-02-21T12:23:29.620Z</time>
      </trkpt>
      <trkpt lat="48.51837" lon="7.17668">
        <ele>867</ele>
        <time>2021-02-21T12:23:30.620Z</time>
      </trkpt>
      <trkpt lat="48.51838" lon="7.17667">
        <ele>867</ele>
        <time>2021-02-21T12:23:31.620Z</time>
      </trkpt>
      <trkpt lat="48.51838" lon="7.17666">
        <ele>867</ele>
        <time>2021-02-21T12:23:32.620Z</time>
      </trkpt>
      <trkpt lat="48.51839" lon="7.17665">
        <ele>868</ele>
        <time>2021-02-21T12:23:33.620Z</time>
      </trkpt>
      <trkpt lat="48.51841" lon="7.17664">
        <ele>868</ele>
        <time>2021-02-21T12:23:34.620Z</time>
      </trkpt>
      <trkpt lat="48.51842" lon="7.17663">
        <ele>868</ele>
        <time>2021-02-21T12:23:35.620Z</time>
      </trkpt>
      <trkpt lat="48.51845" lon="7.17661">
        <ele>867</ele>
        <time>2021-02-21T12:23:36.619Z</time>
      </trkpt>
      <trkpt lat="48.51846" lon="7.17659">
        <ele>868</ele>
        <time>2021-02-21T12:23:37.620Z</time>
      </trkpt>
      <trkpt lat="48.51847" lon="7.17657">
        <ele>867</ele>
        <time>2021-02-21T12:23:38.619Z</time>
      </trkpt>
      <trkpt lat="48.51847" lon="7.17656">
        <ele>867</ele>
        <time>2021-02-21T12:23:39.620Z</time>
      </trkpt>
      <trkpt lat="48.51848" lon="7.17654">
        <ele>867</ele>
        <time>2021-02-21T12:23:40.620Z</time>
      </trkpt>
      <trkpt lat="48.51848" lon="7.17653">
        <ele>867</ele>
        <time>2021-02-21T12:23:41.620Z</time>
      </trkpt>
      <trkpt lat="48.51849" lon="7.17652">
        <ele>868</ele>
        <time>2021-02-21T12:23:42.620Z</time>
      </trkpt>
      <trkpt lat="48.5185" lon="7.17651">
        <ele>868</ele>
        <time>2021-02-21T12:23:43.620Z</time>
      </trkpt>
      <trkpt lat="48.51851" lon="7.1765">
        <ele>868</ele>
        <time>2021-02-21T12:23:44.620Z</time>
      </trkpt>
      <trkpt lat="48.51852" lon="7.17649">
        <ele>868</ele>
        <time>2021-02-21T12:23:45.620Z</time>
      </trkpt>
      <trkpt lat="48.51853" lon="7.17648">
        <ele>868</ele>
        <time>2021-02-21T12:23:46.620Z</time>
      </trkpt>
      <trkpt lat="48.51854" lon="7.17647">
        <ele>869</ele>
        <time>2021-02-21T12:23:47.620Z</time>
      </trkpt>
      <trkpt lat="48.51855" lon="7.17646">
        <ele>869</ele>
        <time>2021-02-21T12:23:48.619Z</time>
      </trkpt>
      <trkpt lat="48.51855" lon="7.17646">
        <ele>870</ele>
        <time>2021-02-21T12:23:49.619Z</time>
      </trkpt>
      <trkpt lat="48.51856" lon="7.17645">
        <ele>869</ele>
        <time>2021-02-21T12:23:50.619Z</time>
      </trkpt>
      <trkpt lat="48.51856" lon="7.17645">
        <ele>868</ele>
        <time>2021-02-21T12:23:51.620Z</time>
      </trkpt>
      <trkpt lat="48.51859" lon="7.17648">
        <ele>868</ele>
        <time>2021-02-21T12:23:52.621Z</time>
      </trkpt>
      <trkpt lat="48.51858" lon="7.17641">
        <ele>869</ele>
        <time>2021-02-21T12:23:53.621Z</time>
      </trkpt>
      <trkpt lat="48.51858" lon="7.17639">
        <ele>869</ele>
        <time>2021-02-21T12:23:54.621Z</time>
      </trkpt>
      <trkpt lat="48.51858" lon="7.17636">
        <ele>869</ele>
        <time>2021-02-21T12:23:55.621Z</time>
      </trkpt>
      <trkpt lat="48.51859" lon="7.17634">
        <ele>869</ele>
        <time>2021-02-21T12:23:56.621Z</time>
      </trkpt>
      <trkpt lat="48.51859" lon="7.17631">
        <ele>870</ele>
        <time>2021-02-21T12:23:57.620Z</time>
      </trkpt>
      <trkpt lat="48.51859" lon="7.17629">
        <ele>870</ele>
        <time>2021-02-21T12:23:58.621Z</time>
      </trkpt>
      <trkpt lat="48.51859" lon="7.17627">
        <ele>870</ele>
        <time>2021-02-21T12:23:59.621Z</time>
      </trkpt>
      <trkpt lat="48.51859" lon="7.17625">
        <ele>871</ele>
        <time>2021-02-21T12:24:00.621Z</time>
      </trkpt>
      <trkpt lat="48.51859" lon="7.17624">
        <ele>871</ele>
        <time>2021-02-21T12:24:01.620Z</time>
      </trkpt>
      <trkpt lat="48.5186" lon="7.17623">
        <ele>871</ele>
        <time>2021-02-21T12:24:02.621Z</time>
      </trkpt>
      <trkpt lat="48.5186" lon="7.17621">
        <ele>871</ele>
        <time>2021-02-21T12:24:03.620Z</time>
      </trkpt>
      <trkpt lat="48.5186" lon="7.1762">
        <ele>872</ele>
        <time>2021-02-21T12:24:04.620Z</time>
      </trkpt>
      <trkpt lat="48.5186" lon="7.17619">
        <ele>872</ele>
        <time>2021-02-21T12:24:05.620Z</time>
      </trkpt>
      <trkpt lat="48.5186" lon="7.17618">
        <ele>872</ele>
        <time>2021-02-21T12:24:06.620Z</time>
      </trkpt>
      <trkpt lat="48.5186" lon="7.17617">
        <ele>873</ele>
        <time>2021-02-21T12:24:07.621Z</time>
      </trkpt>
      <trkpt lat="48.5186" lon="7.17615">
        <ele>873</ele>
        <time>2021-02-21T12:24:08.621Z</time>
      </trkpt>
      <trkpt lat="48.5186" lon="7.17615">
        <ele>873</ele>
        <time>2021-02-21T12:24:09.621Z</time>
      </trkpt>
      <trkpt lat="48.5186" lon="7.17613">
        <ele>874</ele>
        <time>2021-02-21T12:24:10.621Z</time>
      </trkpt>
      <trkpt lat="48.51861" lon="7.17612">
        <ele>874</ele>
        <time>2021-02-21T12:24:11.620Z</time>
      </trkpt>
      <trkpt lat="48.51861" lon="7.1761">
        <ele>874</ele>
        <time>2021-02-21T12:24:12.621Z</time>
      </trkpt>
      <trkpt lat="48.51862" lon="7.17609">
        <ele>874</ele>
        <time>2021-02-21T12:24:13.621Z</time>
      </trkpt>
      <trkpt lat="48.51863" lon="7.17607">
        <ele>874</ele>
        <time>2021-02-21T12:24:14.620Z</time>
      </trkpt>
      <trkpt lat="48.51864" lon="7.17605">
        <ele>874</ele>
        <time>2021-02-21T12:24:15.620Z</time>
      </trkpt>
      <trkpt lat="48.51864" lon="7.17603">
        <ele>874</ele>
        <time>2021-02-21T12:24:16.621Z</time>
      </trkpt>
      <trkpt lat="48.51865" lon="7.17601">
        <ele>875</ele>
        <time>2021-02-21T12:24:17.620Z</time>
      </trkpt>
      <trkpt lat="48.51865" lon="7.176">
        <ele>875</ele>
        <time>2021-02-21T12:24:18.621Z</time>
      </trkpt>
      <trkpt lat="48.51865" lon="7.17598">
        <ele>875</ele>
        <time>2021-02-21T12:24:19.621Z</time>
      </trkpt>
      <trkpt lat="48.51866" lon="7.17597">
        <ele>876</ele>
        <time>2021-02-21T12:24:20.621Z</time>
      </trkpt>
      <trkpt lat="48.51866" lon="7.17596">
        <ele>876</ele>
        <time>2021-02-21T12:24:21.621Z</time>
      </trkpt>
      <trkpt lat="48.51867" lon="7.17595">
        <ele>877</ele>
        <time>2021-02-21T12:24:22.621Z</time>
      </trkpt>
      <trkpt lat="48.51867" lon="7.17594">
        <ele>878</ele>
        <time>2021-02-21T12:24:23.621Z</time>
      </trkpt>
      <trkpt lat="48.51867" lon="7.17592">
        <ele>878</ele>
        <time>2021-02-21T12:24:24.621Z</time>
      </trkpt>
      <trkpt lat="48.51868" lon="7.17591">
        <ele>879</ele>
        <time>2021-02-21T12:24:25.620Z</time>
      </trkpt>
      <trkpt lat="48.51868" lon="7.17589">
        <ele>880</ele>
        <time>2021-02-21T12:24:26.621Z</time>
      </trkpt>
      <trkpt lat="48.51869" lon="7.17587">
        <ele>880</ele>
        <time>2021-02-21T12:24:27.621Z</time>
      </trkpt>
      <trkpt lat="48.51869" lon="7.17585">
        <ele>880</ele>
        <time>2021-02-21T12:24:28.620Z</time>
      </trkpt>
      <trkpt lat="48.5187" lon="7.17583">
        <ele>881</ele>
        <time>2021-02-21T12:24:29.621Z</time>
      </trkpt>
      <trkpt lat="48.5187" lon="7.17582">
        <ele>881</ele>
        <time>2021-02-21T12:24:30.620Z</time>
      </trkpt>
      <trkpt lat="48.5187" lon="7.1758">
        <ele>881</ele>
        <time>2021-02-21T12:24:31.621Z</time>
      </trkpt>
      <trkpt lat="48.5187" lon="7.17578">
        <ele>881</ele>
        <time>2021-02-21T12:24:32.621Z</time>
      </trkpt>
      <trkpt lat="48.5187" lon="7.17577">
        <ele>881</ele>
        <time>2021-02-21T12:24:33.621Z</time>
      </trkpt>
      <trkpt lat="48.51871" lon="7.17576">
        <ele>881</ele>
        <time>2021-02-21T12:24:34.621Z</time>
      </trkpt>
      <trkpt lat="48.51871" lon="7.17574">
        <ele>882</ele>
        <time>2021-02-21T12:24:35.621Z</time>
      </trkpt>
      <trkpt lat="48.51872" lon="7.17573">
        <ele>882</ele>
        <time>2021-02-21T12:24:36.621Z</time>
      </trkpt>
      <trkpt lat="48.51872" lon="7.17572">
        <ele>882</ele>
        <time>2021-02-21T12:24:37.620Z</time>
      </trkpt>
      <trkpt lat="48.51872" lon="7.17571">
        <ele>882</ele>
        <time>2021-02-21T12:24:38.621Z</time>
      </trkpt>
      <trkpt lat="48.51873" lon="7.17569">
        <ele>882</ele>
        <time>2021-02-21T12:24:39.620Z</time>
      </trkpt>
      <trkpt lat="48.51873" lon="7.17567">
        <ele>882</ele>
        <time>2021-02-21T12:24:40.620Z</time>
      </trkpt>
      <trkpt lat="48.51873" lon="7.17566">
        <ele>881</ele>
        <time>2021-02-21T12:24:41.621Z</time>
      </trkpt>
      <trkpt lat="48.51874" lon="7.17565">
        <ele>882</ele>
        <time>2021-02-21T12:24:42.620Z</time>
      </trkpt>
      <trkpt lat="48.51874" lon="7.17564">
        <ele>882</ele>
        <time>2021-02-21T12:24:43.621Z</time>
      </trkpt>
      <trkpt lat="48.51875" lon="7.17563">
        <ele>882</ele>
        <time>2021-02-21T12:24:44.620Z</time>
      </trkpt>
      <trkpt lat="48.51875" lon="7.17562">
        <ele>882</ele>
        <time>2021-02-21T12:24:45.620Z</time>
      </trkpt>
      <trkpt lat="48.51875" lon="7.1756">
        <ele>882</ele>
        <time>2021-02-21T12:24:46.620Z</time>
      </trkpt>
      <trkpt lat="48.51874" lon="7.17558">
        <ele>882</ele>
        <time>2021-02-21T12:24:47.620Z</time>
      </trkpt>
      <trkpt lat="48.51875" lon="7.17556">
        <ele>883</ele>
        <time>2021-02-21T12:24:48.621Z</time>
      </trkpt>
      <trkpt lat="48.51876" lon="7.17554">
        <ele>883</ele>
        <time>2021-02-21T12:24:49.620Z</time>
      </trkpt>
      <trkpt lat="48.51876" lon="7.17552">
        <ele>883</ele>
        <time>2021-02-21T12:24:50.620Z</time>
      </trkpt>
      <trkpt lat="48.51876" lon="7.17551">
        <ele>883</ele>
        <time>2021-02-21T12:24:51.620Z</time>
      </trkpt>
      <trkpt lat="48.51876" lon="7.1755">
        <ele>884</ele>
        <time>2021-02-21T12:24:52.620Z</time>
      </trkpt>
      <trkpt lat="48.51876" lon="7.17548">
        <ele>884</ele>
        <time>2021-02-21T12:24:53.620Z</time>
      </trkpt>
      <trkpt lat="48.51877" lon="7.17547">
        <ele>884</ele>
        <time>2021-02-21T12:24:54.621Z</time>
      </trkpt>
      <trkpt lat="48.51877" lon="7.17545">
        <ele>885</ele>
        <time>2021-02-21T12:24:55.620Z</time>
      </trkpt>
      <trkpt lat="48.51878" lon="7.17545">
        <ele>885</ele>
        <time>2021-02-21T12:24:56.620Z</time>
      </trkpt>
      <trkpt lat="48.51879" lon="7.17544">
        <ele>886</ele>
        <time>2021-02-21T12:24:57.620Z</time>
      </trkpt>
      <trkpt lat="48.5188" lon="7.17542">
        <ele>887</ele>
        <time>2021-02-21T12:24:58.620Z</time>
      </trkpt>
      <trkpt lat="48.51881" lon="7.17541">
        <ele>887</ele>
        <time>2021-02-21T12:24:59.621Z</time>
      </trkpt>
      <trkpt lat="48.51882" lon="7.1754">
        <ele>887</ele>
        <time>2021-02-21T12:25:00.620Z</time>
      </trkpt>
      <trkpt lat="48.51883" lon="7.17539">
        <ele>888</ele>
        <time>2021-02-21T12:25:01.620Z</time>
      </trkpt>
      <trkpt lat="48.51883" lon="7.17538">
        <ele>888</ele>
        <time>2021-02-21T12:25:02.620Z</time>
      </trkpt>
      <trkpt lat="48.51884" lon="7.17537">
        <ele>889</ele>
        <time>2021-02-21T12:25:03.620Z</time>
      </trkpt>
      <trkpt lat="48.51884" lon="7.17536">
        <ele>889</ele>
        <time>2021-02-21T12:25:04.620Z</time>
      </trkpt>
      <trkpt lat="48.51885" lon="7.17534">
        <ele>889</ele>
        <time>2021-02-21T12:25:05.620Z</time>
      </trkpt>
      <trkpt lat="48.51885" lon="7.17533">
        <ele>889</ele>
        <time>2021-02-21T12:25:06.621Z</time>
      </trkpt>
      <trkpt lat="48.51885" lon="7.17531">
        <ele>889</ele>
        <time>2021-02-21T12:25:07.620Z</time>
      </trkpt>
      <trkpt lat="48.51885" lon="7.17529">
        <ele>888</ele>
        <time>2021-02-21T12:25:08.621Z</time>
      </trkpt>
      <trkpt lat="48.51886" lon="7.17528">
        <ele>888</ele>
        <time>2021-02-21T12:25:09.620Z</time>
      </trkpt>
      <trkpt lat="48.51887" lon="7.17527">
        <ele>888</ele>
        <time>2021-02-21T12:25:10.620Z</time>
      </trkpt>
      <trkpt lat="48.51888" lon="7.17526">
        <ele>888</ele>
        <time>2021-02-21T12:25:11.620Z</time>
      </trkpt>
      <trkpt lat="48.51888" lon="7.17524">
        <ele>888</ele>
        <time>2021-02-21T12:25:12.620Z</time>
      </trkpt>
      <trkpt lat="48.51889" lon="7.17523">
        <ele>888</ele>
        <time>2021-02-21T12:25:13.620Z</time>
      </trkpt>
      <trkpt lat="48.51889" lon="7.17521">
        <ele>888</ele>
        <time>2021-02-21T12:25:14.620Z</time>
      </trkpt>
      <trkpt lat="48.51889" lon="7.17519">
        <ele>888</ele>
        <time>2021-02-21T12:25:15.621Z</time>
      </trkpt>
      <trkpt lat="48.51889" lon="7.17518">
        <ele>888</ele>
        <time>2021-02-21T12:25:16.620Z</time>
      </trkpt>
      <trkpt lat="48.51889" lon="7.17516">
        <ele>888</ele>
        <time>2021-02-21T12:25:17.620Z</time>
      </trkpt>
      <trkpt lat="48.51889" lon="7.17515">
        <ele>888</ele>
        <time>2021-02-21T12:25:18.620Z</time>
      </trkpt>
      <trkpt lat="48.51889" lon="7.17514">
        <ele>888</ele>
        <time>2021-02-21T12:25:19.620Z</time>
      </trkpt>
      <trkpt lat="48.5189" lon="7.17513">
        <ele>889</ele>
        <time>2021-02-21T12:25:20.621Z</time>
      </trkpt>
      <trkpt lat="48.5189" lon="7.17512">
        <ele>889</ele>
        <time>2021-02-21T12:25:21.621Z</time>
      </trkpt>
      <trkpt lat="48.51891" lon="7.17511">
        <ele>889</ele>
        <time>2021-02-21T12:25:22.621Z</time>
      </trkpt>
      <trkpt lat="48.51891" lon="7.1751">
        <ele>889</ele>
        <time>2021-02-21T12:25:23.621Z</time>
      </trkpt>
      <trkpt lat="48.51891" lon="7.17508">
        <ele>890</ele>
        <time>2021-02-21T12:25:24.621Z</time>
      </trkpt>
      <trkpt lat="48.51891" lon="7.17507">
        <ele>890</ele>
        <time>2021-02-21T12:25:25.620Z</time>
      </trkpt>
      <trkpt lat="48.51891" lon="7.17506">
        <ele>890</ele>
        <time>2021-02-21T12:25:26.620Z</time>
      </trkpt>
      <trkpt lat="48.5189" lon="7.17505">
        <ele>891</ele>
        <time>2021-02-21T12:25:27.621Z</time>
      </trkpt>
      <trkpt lat="48.5189" lon="7.17503">
        <ele>891</ele>
        <time>2021-02-21T12:25:28.621Z</time>
      </trkpt>
      <trkpt lat="48.51891" lon="7.17502">
        <ele>891</ele>
        <time>2021-02-21T12:25:29.621Z</time>
      </trkpt>
      <trkpt lat="48.51891" lon="7.17502">
        <ele>891</ele>
        <time>2021-02-21T12:25:30.621Z</time>
      </trkpt>
      <trkpt lat="48.51891" lon="7.175">
        <ele>892</ele>
        <time>2021-02-21T12:25:31.621Z</time>
      </trkpt>
      <trkpt lat="48.51891" lon="7.17499">
        <ele>892</ele>
        <time>2021-02-21T12:25:32.620Z</time>
      </trkpt>
      <trkpt lat="48.51892" lon="7.17498">
        <ele>892</ele>
        <time>2021-02-21T12:25:33.621Z</time>
      </trkpt>
      <trkpt lat="48.51893" lon="7.17497">
        <ele>892</ele>
        <time>2021-02-21T12:25:34.621Z</time>
      </trkpt>
      <trkpt lat="48.51893" lon="7.17495">
        <ele>892</ele>
        <time>2021-02-21T12:25:35.621Z</time>
      </trkpt>
      <trkpt lat="48.51893" lon="7.17494">
        <ele>892</ele>
        <time>2021-02-21T12:25:36.621Z</time>
      </trkpt>
      <trkpt lat="48.51893" lon="7.17493">
        <ele>892</ele>
        <time>2021-02-21T12:25:37.621Z</time>
      </trkpt>
      <trkpt lat="48.51893" lon="7.17491">
        <ele>893</ele>
        <time>2021-02-21T12:25:38.621Z</time>
      </trkpt>
      <trkpt lat="48.51893" lon="7.1749">
        <ele>893</ele>
        <time>2021-02-21T12:25:39.621Z</time>
      </trkpt>
      <trkpt lat="48.51893" lon="7.17489">
        <ele>893</ele>
        <time>2021-02-21T12:25:40.621Z</time>
      </trkpt>
      <trkpt lat="48.51894" lon="7.17488">
        <ele>893</ele>
        <time>2021-02-21T12:25:41.621Z</time>
      </trkpt>
      <trkpt lat="48.51894" lon="7.17487">
        <ele>893</ele>
        <time>2021-02-21T12:25:42.621Z</time>
      </trkpt>
      <trkpt lat="48.51895" lon="7.17485">
        <ele>893</ele>
        <time>2021-02-21T12:25:43.621Z</time>
      </trkpt>
      <trkpt lat="48.51895" lon="7.17484">
        <ele>893</ele>
        <time>2021-02-21T12:25:44.621Z</time>
      </trkpt>
      <trkpt lat="48.51896" lon="7.17482">
        <ele>892</ele>
        <time>2021-02-21T12:25:45.621Z</time>
      </trkpt>
      <trkpt lat="48.51896" lon="7.17481">
        <ele>892</ele>
        <time>2021-02-21T12:25:46.621Z</time>
      </trkpt>
      <trkpt lat="48.51897" lon="7.17479">
        <ele>892</ele>
        <time>2021-02-21T12:25:47.620Z</time>
      </trkpt>
      <trkpt lat="48.51897" lon="7.17479">
        <ele>893</ele>
        <time>2021-02-21T12:25:48.621Z</time>
      </trkpt>
      <trkpt lat="48.51897" lon="7.17478">
        <ele>892</ele>
        <time>2021-02-21T12:25:49.621Z</time>
      </trkpt>
      <trkpt lat="48.51897" lon="7.17477">
        <ele>892</ele>
        <time>2021-02-21T12:25:50.621Z</time>
      </trkpt>
      <trkpt lat="48.51897" lon="7.17475">
        <ele>892</ele>
        <time>2021-02-21T12:25:51.621Z</time>
      </trkpt>
      <trkpt lat="48.51897" lon="7.17474">
        <ele>892</ele>
        <time>2021-02-21T12:25:52.620Z</time>
      </trkpt>
      <trkpt lat="48.51897" lon="7.17473">
        <ele>892</ele>
        <time>2021-02-21T12:25:53.621Z</time>
      </trkpt>
      <trkpt lat="48.51896" lon="7.17472">
        <ele>891</ele>
        <time>2021-02-21T12:25:54.620Z</time>
      </trkpt>
      <trkpt lat="48.51897" lon="7.17471">
        <ele>891</ele>
        <time>2021-02-21T12:25:55.621Z</time>
      </trkpt>
      <trkpt lat="48.51897" lon="7.1747">
        <ele>892</ele>
        <time>2021-02-21T12:25:56.621Z</time>
      </trkpt>
      <trkpt lat="48.51897" lon="7.17469">
        <ele>892</ele>
        <time>2021-02-21T12:25:57.621Z</time>
      </trkpt>
      <trkpt lat="48.51897" lon="7.17468">
        <ele>892</ele>
        <time>2021-02-21T12:25:58.621Z</time>
      </trkpt>
      <trkpt lat="48.51898" lon="7.17467">
        <ele>892</ele>
        <time>2021-02-21T12:25:59.621Z</time>
      </trkpt>
      <trkpt lat="48.51898" lon="7.17466">
        <ele>892</ele>
        <time>2021-02-21T12:26:00.621Z</time>
      </trkpt>
      <trkpt lat="48.51898" lon="7.17465">
        <ele>892</ele>
        <time>2021-02-21T12:26:01.620Z</time>
      </trkpt>
      <trkpt lat="48.51899" lon="7.17463">
        <ele>892</ele>
        <time>2021-02-21T12:26:02.621Z</time>
      </trkpt>
      <trkpt lat="48.51899" lon="7.17462">
        <ele>892</ele>
        <time>2021-02-21T12:26:03.621Z</time>
      </trkpt>
      <trkpt lat="48.519" lon="7.17461">
        <ele>892</ele>
        <time>2021-02-21T12:26:04.621Z</time>
      </trkpt>
      <trkpt lat="48.519" lon="7.1746">
        <ele>892</ele>
        <time>2021-02-21T12:26:05.621Z</time>
      </trkpt>
      <trkpt lat="48.519" lon="7.17459">
        <ele>892</ele>
        <time>2021-02-21T12:26:06.621Z</time>
      </trkpt>
      <trkpt lat="48.51901" lon="7.17458">
        <ele>893</ele>
        <time>2021-02-21T12:26:07.622Z</time>
      </trkpt>
      <trkpt lat="48.51902" lon="7.17457">
        <ele>893</ele>
        <time>2021-02-21T12:26:08.622Z</time>
      </trkpt>
      <trkpt lat="48.51902" lon="7.17456">
        <ele>894</ele>
        <time>2021-02-21T12:26:09.622Z</time>
      </trkpt>
      <trkpt lat="48.51902" lon="7.17455">
        <ele>894</ele>
        <time>2021-02-21T12:26:10.622Z</time>
      </trkpt>
      <trkpt lat="48.51902" lon="7.17454">
        <ele>894</ele>
        <time>2021-02-21T12:26:11.622Z</time>
      </trkpt>
      <trkpt lat="48.51902" lon="7.17452">
        <ele>895</ele>
        <time>2021-02-21T12:26:12.622Z</time>
      </trkpt>
      <trkpt lat="48.51901" lon="7.17451">
        <ele>896</ele>
        <time>2021-02-21T12:26:13.622Z</time>
      </trkpt>
      <trkpt lat="48.51901" lon="7.17449">
        <ele>896</ele>
        <time>2021-02-21T12:26:14.621Z</time>
      </trkpt>
      <trkpt lat="48.51901" lon="7.17448">
        <ele>896</ele>
        <time>2021-02-21T12:28:06.741Z</time>
      </trkpt>
      <trkpt lat="48.51901" lon="7.17448">
        <ele>896</ele>
        <time>2021-02-21T12:28:07.741Z</time>
      </trkpt>
      <trkpt lat="48.51902" lon="7.17447">
        <ele>896</ele>
        <time>2021-02-21T12:28:08.740Z</time>
      </trkpt>
      <trkpt lat="48.51902" lon="7.17446">
        <ele>896</ele>
        <time>2021-02-21T12:28:09.740Z</time>
      </trkpt>
      <trkpt lat="48.51902" lon="7.17445">
        <ele>895</ele>
        <time>2021-02-21T12:28:10.740Z</time>
      </trkpt>
      <trkpt lat="48.51902" lon="7.17442">
        <ele>894</ele>
        <time>2021-02-21T12:28:11.742Z</time>
      </trkpt>
      <trkpt lat="48.51903" lon="7.17442">
        <ele>894</ele>
        <time>2021-02-21T12:28:12.742Z</time>
      </trkpt>
      <trkpt lat="48.51903" lon="7.17441">
        <ele>894</ele>
        <time>2021-02-21T12:28:13.742Z</time>
      </trkpt>
      <trkpt lat="48.51904" lon="7.1744">
        <ele>895</ele>
        <time>2021-02-21T12:28:14.743Z</time>
      </trkpt>
      <trkpt lat="48.51904" lon="7.17438">
        <ele>896</ele>
        <time>2021-02-21T12:28:15.742Z</time>
      </trkpt>
      <trkpt lat="48.51905" lon="7.17437">
        <ele>896</ele>
        <time>2021-02-21T12:28:16.743Z</time>
      </trkpt>
      <trkpt lat="48.51905" lon="7.17437">
        <ele>896</ele>
        <time>2021-02-21T12:28:17.743Z</time>
      </trkpt>
      <trkpt lat="48.51905" lon="7.17435">
        <ele>896</ele>
        <time>2021-02-21T12:28:18.742Z</time>
      </trkpt>
      <trkpt lat="48.51906" lon="7.17435">
        <ele>896</ele>
        <time>2021-02-21T12:28:19.742Z</time>
      </trkpt>
      <trkpt lat="48.51907" lon="7.17433">
        <ele>896</ele>
        <time>2021-02-21T12:29:52.895Z</time>
      </trkpt>
      <trkpt lat="48.51907" lon="7.17431">
        <ele>896</ele>
        <time>2021-02-21T12:29:53.896Z</time>
      </trkpt>
      <trkpt lat="48.51908" lon="7.1743">
        <ele>896</ele>
        <time>2021-02-21T12:29:54.895Z</time>
      </trkpt>
      <trkpt lat="48.51909" lon="7.17428">
        <ele>896</ele>
        <time>2021-02-21T12:29:55.896Z</time>
      </trkpt>
      <trkpt lat="48.51909" lon="7.17428">
        <ele>896</ele>
        <time>2021-02-21T12:29:56.895Z</time>
      </trkpt>
      <trkpt lat="48.5191" lon="7.17427">
        <ele>896</ele>
        <time>2021-02-21T12:29:57.896Z</time>
      </trkpt>
      <trkpt lat="48.5191" lon="7.17425">
        <ele>896</ele>
        <time>2021-02-21T12:29:58.895Z</time>
      </trkpt>
      <trkpt lat="48.5191" lon="7.17424">
        <ele>896</ele>
        <time>2021-02-21T12:29:59.895Z</time>
      </trkpt>
      <trkpt lat="48.5191" lon="7.17422">
        <ele>896</ele>
        <time>2021-02-21T12:30:00.896Z</time>
      </trkpt>
      <trkpt lat="48.51911" lon="7.17421">
        <ele>896</ele>
        <time>2021-02-21T12:30:01.896Z</time>
      </trkpt>
      <trkpt lat="48.51911" lon="7.1742">
        <ele>896</ele>
        <time>2021-02-21T12:30:02.895Z</time>
      </trkpt>
      <trkpt lat="48.51912" lon="7.17418">
        <ele>896</ele>
        <time>2021-02-21T12:30:03.896Z</time>
      </trkpt>
      <trkpt lat="48.51913" lon="7.17418">
        <ele>896</ele>
        <time>2021-02-21T12:30:04.896Z</time>
      </trkpt>
      <trkpt lat="48.51913" lon="7.17417">
        <ele>896</ele>
        <time>2021-02-21T12:30:05.896Z</time>
      </trkpt>
      <trkpt lat="48.51914" lon="7.17415">
        <ele>896</ele>
        <time>2021-02-21T12:30:06.895Z</time>
      </trkpt>
      <trkpt lat="48.51914" lon="7.17414">
        <ele>896</ele>
        <time>2021-02-21T12:30:07.895Z</time>
      </trkpt>
      <trkpt lat="48.51915" lon="7.17413">
        <ele>896</ele>
        <time>2021-02-21T12:30:08.895Z</time>
      </trkpt>
      <trkpt lat="48.51915" lon="7.17412">
        <ele>896</ele>
        <time>2021-02-21T12:30:09.896Z</time>
      </trkpt>
      <trkpt lat="48.51916" lon="7.17411">
        <ele>896</ele>
        <time>2021-02-21T12:30:32.013Z</time>
      </trkpt>
      <trkpt lat="48.51916" lon="7.17409">
        <ele>897</ele>
        <time>2021-02-21T12:30:33.013Z</time>
      </trkpt>
      <trkpt lat="48.51917" lon="7.17408">
        <ele>897</ele>
        <time>2021-02-21T12:30:34.012Z</time>
      </trkpt>
      <trkpt lat="48.51917" lon="7.17406">
        <ele>897</ele>
        <time>2021-02-21T12:30:35.013Z</time>
      </trkpt>
      <trkpt lat="48.51918" lon="7.17404">
        <ele>897</ele>
        <time>2021-02-21T12:30:36.012Z</time>
      </trkpt>
      <trkpt lat="48.51918" lon="7.17403">
        <ele>897</ele>
        <time>2021-02-21T12:30:37.013Z</time>
      </trkpt>
      <trkpt lat="48.51918" lon="7.17401">
        <ele>897</ele>
        <time>2021-02-21T12:30:38.012Z</time>
      </trkpt>
      <trkpt lat="48.51919" lon="7.17399">
        <ele>898</ele>
        <time>2021-02-21T12:30:39.012Z</time>
      </trkpt>
      <trkpt lat="48.51919" lon="7.17398">
        <ele>898</ele>
        <time>2021-02-21T12:53:07.135Z</time>
      </trkpt>
      <trkpt lat="48.51919" lon="7.17398">
        <ele>899</ele>
        <time>2021-02-21T12:53:08.136Z</time>
      </trkpt>
      <trkpt lat="48.51918" lon="7.17397">
        <ele>900</ele>
        <time>2021-02-21T12:53:09.136Z</time>
      </trkpt>
      <trkpt lat="48.51918" lon="7.17397">
        <ele>900</ele>
        <time>2021-02-21T12:53:10.136Z</time>
      </trkpt>
      <trkpt lat="48.51918" lon="7.17397">
        <ele>900</ele>
        <time>2021-02-21T12:53:18.287Z</time>
      </trkpt>
      <trkpt lat="48.51919" lon="7.17396">
        <ele>900</ele>
        <time>2021-02-21T12:53:19.288Z</time>
      </trkpt>
      <trkpt lat="48.51919" lon="7.17396">
        <ele>900</ele>
        <time>2021-02-21T12:53:20.288Z</time>
      </trkpt>
      <trkpt lat="48.51917" lon="7.17395">
        <ele>905</ele>
        <time>2021-02-21T12:53:21.289Z</time>
      </trkpt>
      <trkpt lat="48.51916" lon="7.17396">
        <ele>905</ele>
        <time>2021-02-21T12:53:22.289Z</time>
      </trkpt>
      <trkpt lat="48.51915" lon="7.17397">
        <ele>905</ele>
        <time>2021-02-21T12:53:23.288Z</time>
      </trkpt>
      <trkpt lat="48.51914" lon="7.17397">
        <ele>905</ele>
        <time>2021-02-21T12:53:26.229Z</time>
      </trkpt>
      <trkpt lat="48.51913" lon="7.17398">
        <ele>904</ele>
        <time>2021-02-21T12:53:55.143Z</time>
      </trkpt>
      <trkpt lat="48.51912" lon="7.17398">
        <ele>904</ele>
        <time>2021-02-21T12:53:56.143Z</time>
      </trkpt>
      <trkpt lat="48.51911" lon="7.17398">
        <ele>904</ele>
        <time>2021-02-21T12:53:57.143Z</time>
      </trkpt>
      <trkpt lat="48.5191" lon="7.17399">
        <ele>904</ele>
        <time>2021-02-21T12:58:52.265Z</time>
      </trkpt>
      <trkpt lat="48.51908" lon="7.17399">
        <ele>904</ele>
        <time>2021-02-21T12:58:53.265Z</time>
      </trkpt>
      <trkpt lat="48.51907" lon="7.17399">
        <ele>904</ele>
        <time>2021-02-21T12:58:54.265Z</time>
      </trkpt>
      <trkpt lat="48.51906" lon="7.174">
        <ele>904</ele>
        <time>2021-02-21T12:58:55.265Z</time>
      </trkpt>
      <trkpt lat="48.51905" lon="7.17401">
        <ele>904</ele>
        <time>2021-02-21T12:58:56.264Z</time>
      </trkpt>
      <trkpt lat="48.51904" lon="7.17401">
        <ele>903</ele>
        <time>2021-02-21T12:58:57.265Z</time>
      </trkpt>
      <trkpt lat="48.51903" lon="7.17401">
        <ele>902</ele>
        <time>2021-02-21T13:02:19.393Z</time>
      </trkpt>
      <trkpt lat="48.51902" lon="7.17402">
        <ele>902</ele>
        <time>2021-02-21T13:02:20.393Z</time>
      </trkpt>
      <trkpt lat="48.51902" lon="7.17402">
        <ele>901</ele>
        <time>2021-02-21T13:02:21.393Z</time>
      </trkpt>
      <trkpt lat="48.519" lon="7.17403">
        <ele>901</ele>
        <time>2021-02-21T13:02:22.393Z</time>
      </trkpt>
      <trkpt lat="48.51899" lon="7.17403">
        <ele>901</ele>
        <time>2021-02-21T13:02:23.393Z</time>
      </trkpt>
      <trkpt lat="48.51898" lon="7.17404">
        <ele>901</ele>
        <time>2021-02-21T13:06:00.525Z</time>
      </trkpt>
      <trkpt lat="48.51897" lon="7.17404">
        <ele>901</ele>
        <time>2021-02-21T13:06:01.525Z</time>
      </trkpt>
      <trkpt lat="48.51896" lon="7.17404">
        <ele>900</ele>
        <time>2021-02-21T13:06:02.524Z</time>
      </trkpt>
      <trkpt lat="48.51895" lon="7.17404">
        <ele>900</ele>
        <time>2021-02-21T13:06:09.627Z</time>
      </trkpt>
      <trkpt lat="48.51894" lon="7.17404">
        <ele>900</ele>
        <time>2021-02-21T13:06:10.626Z</time>
      </trkpt>
      <trkpt lat="48.51892" lon="7.17404">
        <ele>900</ele>
        <time>2021-02-21T13:08:45.654Z</time>
      </trkpt>
      <trkpt lat="48.51891" lon="7.17405">
        <ele>900</ele>
        <time>2021-02-21T13:08:46.653Z</time>
      </trkpt>
      <trkpt lat="48.5189" lon="7.17405">
        <ele>900</ele>
        <time>2021-02-21T13:08:47.654Z</time>
      </trkpt>
      <trkpt lat="48.51889" lon="7.17406">
        <ele>900</ele>
        <time>2021-02-21T13:08:48.654Z</time>
      </trkpt>
      <trkpt lat="48.51888" lon="7.17406">
        <ele>901</ele>
        <time>2021-02-21T13:08:49.654Z</time>
      </trkpt>
      <trkpt lat="48.51887" lon="7.17406">
        <ele>901</ele>
        <time>2021-02-21T13:08:50.654Z</time>
      </trkpt>
      <trkpt lat="48.51886" lon="7.17406">
        <ele>902</ele>
        <time>2021-02-21T13:11:32.767Z</time>
      </trkpt>
      <trkpt lat="48.51885" lon="7.17406">
        <ele>902</ele>
        <time>2021-02-21T13:11:33.767Z</time>
      </trkpt>
      <trkpt lat="48.51884" lon="7.17406">
        <ele>903</ele>
        <time>2021-02-21T13:11:34.768Z</time>
      </trkpt>
      <trkpt lat="48.51883" lon="7.17407">
        <ele>902</ele>
        <time>2021-02-21T13:11:35.768Z</time>
      </trkpt>
      <trkpt lat="48.51882" lon="7.17407">
        <ele>902</ele>
        <time>2021-02-21T13:11:36.768Z</time>
      </trkpt>
      <trkpt lat="48.5188" lon="7.17407">
        <ele>902</ele>
        <time>2021-02-21T13:11:37.768Z</time>
      </trkpt>
      <trkpt lat="48.51879" lon="7.17407">
        <ele>903</ele>
        <time>2021-02-21T13:11:38.767Z</time>
      </trkpt>
      <trkpt lat="48.51878" lon="7.17407">
        <ele>903</ele>
        <time>2021-02-21T13:11:39.767Z</time>
      </trkpt>
      <trkpt lat="48.51877" lon="7.17407">
        <ele>903</ele>
        <time>2021-02-21T13:11:40.768Z</time>
      </trkpt>
      <trkpt lat="48.51877" lon="7.17408">
        <ele>903</ele>
        <time>2021-02-21T13:28:40.888Z</time>
      </trkpt>
      <trkpt lat="48.51876" lon="7.17408">
        <ele>903</ele>
        <time>2021-02-21T13:28:41.888Z</time>
      </trkpt>
      <trkpt lat="48.51874" lon="7.17409">
        <ele>903</ele>
        <time>2021-02-21T13:28:42.888Z</time>
      </trkpt>
      <trkpt lat="48.51873" lon="7.1741">
        <ele>903</ele>
        <time>2021-02-21T13:28:43.888Z</time>
      </trkpt>
      <trkpt lat="48.51873" lon="7.1741">
        <ele>903</ele>
        <time>2021-02-21T13:28:44.888Z</time>
      </trkpt>
      <trkpt lat="48.51871" lon="7.1741">
        <ele>903</ele>
        <time>2021-02-21T13:28:45.888Z</time>
      </trkpt>
      <trkpt lat="48.51871" lon="7.1741">
        <ele>902</ele>
        <time>2021-02-21T13:28:46.888Z</time>
      </trkpt>
      <trkpt lat="48.5187" lon="7.17411">
        <ele>902</ele>
        <time>2021-02-21T13:28:47.888Z</time>
      </trkpt>
      <trkpt lat="48.51868" lon="7.17412">
        <ele>903</ele>
        <time>2021-02-21T13:28:48.888Z</time>
      </trkpt>
      <trkpt lat="48.51867" lon="7.17414">
        <ele>903</ele>
        <time>2021-02-21T13:28:49.888Z</time>
      </trkpt>
      <trkpt lat="48.51866" lon="7.17414">
        <ele>904</ele>
        <time>2021-02-21T13:31:47.012Z</time>
      </trkpt>
      <trkpt lat="48.51864" lon="7.17414">
        <ele>905</ele>
        <time>2021-02-21T13:31:48.011Z</time>
      </trkpt>
      <trkpt lat="48.51862" lon="7.17414">
        <ele>905</ele>
        <time>2021-02-21T13:31:49.012Z</time>
      </trkpt>
      <trkpt lat="48.51861" lon="7.17414">
        <ele>905</ele>
        <time>2021-02-21T13:31:56.142Z</time>
      </trkpt>
      <trkpt lat="48.51861" lon="7.17414">
        <ele>905</ele>
        <time>2021-02-21T13:33:11.171Z</time>
      </trkpt>
      <trkpt lat="48.5186" lon="7.17415">
        <ele>906</ele>
        <time>2021-02-21T13:33:12.172Z</time>
      </trkpt>
      <trkpt lat="48.51859" lon="7.17416">
        <ele>906</ele>
        <time>2021-02-21T13:33:13.172Z</time>
      </trkpt>
      <trkpt lat="48.51858" lon="7.17416">
        <ele>906</ele>
        <time>2021-02-21T13:33:14.172Z</time>
      </trkpt>
      <trkpt lat="48.51857" lon="7.17416">
        <ele>906</ele>
        <time>2021-02-21T13:40:56.295Z</time>
      </trkpt>
      <trkpt lat="48.51857" lon="7.17415">
        <ele>906</ele>
        <time>2021-02-21T13:44:18.271Z</time>
      </trkpt>
      <trkpt lat="48.51856" lon="7.17415">
        <ele>906</ele>
        <time>2021-02-21T13:44:19.271Z</time>
      </trkpt>
      <trkpt lat="48.51855" lon="7.17415">
        <ele>906</ele>
        <time>2021-02-21T13:48:29.145Z</time>
      </trkpt>
      <trkpt lat="48.51855" lon="7.17415">
        <ele>906</ele>
        <time>2021-02-21T13:48:30.146Z</time>
      </trkpt>
      <trkpt lat="48.51854" lon="7.17417">
        <ele>905</ele>
        <time>2021-02-21T13:48:31.146Z</time>
      </trkpt>
      <trkpt lat="48.51854" lon="7.17418">
        <ele>905</ele>
        <time>2021-02-21T13:48:32.145Z</time>
      </trkpt>
      <trkpt lat="48.51853" lon="7.17418">
        <ele>905</ele>
        <time>2021-02-21T13:48:33.146Z</time>
      </trkpt>
      <trkpt lat="48.51852" lon="7.17419">
        <ele>905</ele>
        <time>2021-02-21T13:48:34.145Z</time>
      </trkpt>
      <trkpt lat="48.51852" lon="7.17421">
        <ele>906</ele>
        <time>2021-02-21T13:48:35.146Z</time>
      </trkpt>
      <trkpt lat="48.51852" lon="7.17421">
        <ele>906</ele>
        <time>2021-02-21T13:48:36.147Z</time>
      </trkpt>
      <trkpt lat="48.51851" lon="7.17422">
        <ele>906</ele>
        <time>2021-02-21T13:48:37.146Z</time>
      </trkpt>
      <trkpt lat="48.51851" lon="7.17423">
        <ele>906</ele>
        <time>2021-02-21T13:48:38.147Z</time>
      </trkpt>
      <trkpt lat="48.51851" lon="7.17425">
        <ele>907</ele>
        <time>2021-02-21T13:48:39.147Z</time>
      </trkpt>
      <trkpt lat="48.51851" lon="7.17426">
        <ele>907</ele>
        <time>2021-02-21T13:48:40.147Z</time>
      </trkpt>
      <trkpt lat="48.51849" lon="7.17427">
        <ele>907</ele>
        <time>2021-02-21T13:48:41.146Z</time>
      </trkpt>
      <trkpt lat="48.51848" lon="7.17428">
        <ele>908</ele>
        <time>2021-02-21T13:48:42.147Z</time>
      </trkpt>
      <trkpt lat="48.51846" lon="7.17428">
        <ele>908</ele>
        <time>2021-02-21T13:48:43.146Z</time>
      </trkpt>
      <trkpt lat="48.51845" lon="7.17428">
        <ele>908</ele>
        <time>2021-02-21T13:48:44.146Z</time>
      </trkpt>
      <trkpt lat="48.51845" lon="7.17427">
        <ele>908</ele>
        <time>2021-02-21T13:48:45.147Z</time>
      </trkpt>
      <trkpt lat="48.51845" lon="7.17429">
        <ele>908</ele>
        <time>2021-02-21T13:48:46.148Z</time>
      </trkpt>
      <trkpt lat="48.51844" lon="7.1743">
        <ele>908</ele>
        <time>2021-02-21T13:48:47.148Z</time>
      </trkpt>
      <trkpt lat="48.51844" lon="7.17432">
        <ele>908</ele>
        <time>2021-02-21T13:48:48.148Z</time>
      </trkpt>
      <trkpt lat="48.51843" lon="7.17433">
        <ele>908</ele>
        <time>2021-02-21T13:48:49.148Z</time>
      </trkpt>
      <trkpt lat="48.51842" lon="7.17434">
        <ele>908</ele>
        <time>2021-02-21T13:48:50.147Z</time>
      </trkpt>
      <trkpt lat="48.51841" lon="7.17436">
        <ele>908</ele>
        <time>2021-02-21T13:48:51.147Z</time>
      </trkpt>
      <trkpt lat="48.5184" lon="7.17437">
        <ele>908</ele>
        <time>2021-02-21T13:48:52.148Z</time>
      </trkpt>
      <trkpt lat="48.5184" lon="7.17438">
        <ele>908</ele>
        <time>2021-02-21T13:48:53.148Z</time>
      </trkpt>
      <trkpt lat="48.51839" lon="7.17439">
        <ele>908</ele>
        <time>2021-02-21T13:48:54.148Z</time>
      </trkpt>
      <trkpt lat="48.51839" lon="7.1744">
        <ele>908</ele>
        <time>2021-02-21T13:48:55.148Z</time>
      </trkpt>
      <trkpt lat="48.51838" lon="7.17441">
        <ele>909</ele>
        <time>2021-02-21T13:48:56.148Z</time>
      </trkpt>
      <trkpt lat="48.51837" lon="7.17441">
        <ele>909</ele>
        <time>2021-02-21T13:48:57.147Z</time>
      </trkpt>
      <trkpt lat="48.51837" lon="7.17443">
        <ele>909</ele>
        <time>2021-02-21T13:48:58.147Z</time>
      </trkpt>
      <trkpt lat="48.51835" lon="7.17445">
        <ele>909</ele>
        <time>2021-02-21T13:48:59.147Z</time>
      </trkpt>
      <trkpt lat="48.51834" lon="7.17445">
        <ele>910</ele>
        <time>2021-02-21T13:49:00.147Z</time>
      </trkpt>
      <trkpt lat="48.51834" lon="7.17446">
        <ele>910</ele>
        <time>2021-02-21T13:49:01.147Z</time>
      </trkpt>
      <trkpt lat="48.51833" lon="7.17447">
        <ele>910</ele>
        <time>2021-02-21T13:49:02.147Z</time>
      </trkpt>
      <trkpt lat="48.51833" lon="7.17449">
        <ele>910</ele>
        <time>2021-02-21T13:49:03.147Z</time>
      </trkpt>
      <trkpt lat="48.51833" lon="7.1745">
        <ele>910</ele>
        <time>2021-02-21T13:49:04.148Z</time>
      </trkpt>
      <trkpt lat="48.51833" lon="7.17451">
        <ele>910</ele>
        <time>2021-02-21T13:49:05.147Z</time>
      </trkpt>
      <trkpt lat="48.51833" lon="7.17453">
        <ele>910</ele>
        <time>2021-02-21T13:49:06.148Z</time>
      </trkpt>
      <trkpt lat="48.51832" lon="7.17454">
        <ele>911</ele>
        <time>2021-02-21T13:49:07.148Z</time>
      </trkpt>
      <trkpt lat="48.51832" lon="7.17456">
        <ele>911</ele>
        <time>2021-02-21T13:49:08.148Z</time>
      </trkpt>
      <trkpt lat="48.51832" lon="7.17459">
        <ele>912</ele>
        <time>2021-02-21T13:49:09.148Z</time>
      </trkpt>
      <trkpt lat="48.51831" lon="7.17461">
        <ele>912</ele>
        <time>2021-02-21T13:49:10.148Z</time>
      </trkpt>
      <trkpt lat="48.51831" lon="7.17462">
        <ele>912</ele>
        <time>2021-02-21T13:49:11.148Z</time>
      </trkpt>
      <trkpt lat="48.5183" lon="7.17464">
        <ele>911</ele>
        <time>2021-02-21T13:49:12.148Z</time>
      </trkpt>
      <trkpt lat="48.5183" lon="7.17466">
        <ele>911</ele>
        <time>2021-02-21T13:49:13.147Z</time>
      </trkpt>
      <trkpt lat="48.51829" lon="7.17467">
        <ele>911</ele>
        <time>2021-02-21T13:49:14.148Z</time>
      </trkpt>
      <trkpt lat="48.51829" lon="7.17468">
        <ele>910</ele>
        <time>2021-02-21T13:49:15.148Z</time>
      </trkpt>
      <trkpt lat="48.51829" lon="7.17469">
        <ele>910</ele>
        <time>2021-02-21T13:49:16.148Z</time>
      </trkpt>
      <trkpt lat="48.51828" lon="7.1747">
        <ele>910</ele>
        <time>2021-02-21T13:49:17.148Z</time>
      </trkpt>
      <trkpt lat="48.51828" lon="7.17471">
        <ele>910</ele>
        <time>2021-02-21T13:49:18.148Z</time>
      </trkpt>
      <trkpt lat="48.51827" lon="7.17472">
        <ele>911</ele>
        <time>2021-02-21T13:49:19.148Z</time>
      </trkpt>
      <trkpt lat="48.51827" lon="7.17473">
        <ele>911</ele>
        <time>2021-02-21T13:49:20.148Z</time>
      </trkpt>
      <trkpt lat="48.51826" lon="7.17474">
        <ele>911</ele>
        <time>2021-02-21T13:49:21.148Z</time>
      </trkpt>
      <trkpt lat="48.51826" lon="7.17475">
        <ele>912</ele>
        <time>2021-02-21T13:49:22.148Z</time>
      </trkpt>
      <trkpt lat="48.51825" lon="7.17476">
        <ele>913</ele>
        <time>2021-02-21T13:49:23.147Z</time>
      </trkpt>
      <trkpt lat="48.51825" lon="7.17477">
        <ele>913</ele>
        <time>2021-02-21T13:49:24.148Z</time>
      </trkpt>
      <trkpt lat="48.51825" lon="7.17479">
        <ele>914</ele>
        <time>2021-02-21T13:49:25.148Z</time>
      </trkpt>
      <trkpt lat="48.51824" lon="7.1748">
        <ele>914</ele>
        <time>2021-02-21T13:49:26.148Z</time>
      </trkpt>
      <trkpt lat="48.51823" lon="7.17481">
        <ele>915</ele>
        <time>2021-02-21T13:49:27.148Z</time>
      </trkpt>
      <trkpt lat="48.51822" lon="7.17481">
        <ele>915</ele>
        <time>2021-02-21T13:49:28.147Z</time>
      </trkpt>
      <trkpt lat="48.51821" lon="7.17481">
        <ele>915</ele>
        <time>2021-02-21T13:49:29.147Z</time>
      </trkpt>
      <trkpt lat="48.51821" lon="7.17482">
        <ele>915</ele>
        <time>2021-02-21T13:49:30.148Z</time>
      </trkpt>
      <trkpt lat="48.5182" lon="7.17483">
        <ele>915</ele>
        <time>2021-02-21T13:49:31.147Z</time>
      </trkpt>
      <trkpt lat="48.5182" lon="7.17483">
        <ele>915</ele>
        <time>2021-02-21T13:49:32.148Z</time>
      </trkpt>
      <trkpt lat="48.51819" lon="7.17484">
        <ele>916</ele>
        <time>2021-02-21T13:49:33.148Z</time>
      </trkpt>
      <trkpt lat="48.51818" lon="7.17484">
        <ele>917</ele>
        <time>2021-02-21T13:49:34.147Z</time>
      </trkpt>
      <trkpt lat="48.51817" lon="7.17485">
        <ele>917</ele>
        <time>2021-02-21T13:49:35.148Z</time>
      </trkpt>
      <trkpt lat="48.51816" lon="7.17485">
        <ele>917</ele>
        <time>2021-02-21T13:49:36.147Z</time>
      </trkpt>
      <trkpt lat="48.51815" lon="7.17486">
        <ele>917</ele>
        <time>2021-02-21T13:49:37.148Z</time>
      </trkpt>
      <trkpt lat="48.51814" lon="7.17486">
        <ele>917</ele>
        <time>2021-02-21T13:49:38.147Z</time>
      </trkpt>
      <trkpt lat="48.51813" lon="7.17486">
        <ele>917</ele>
        <time>2021-02-21T13:49:39.148Z</time>
      </trkpt>
      <trkpt lat="48.51813" lon="7.17486">
        <ele>918</ele>
        <time>2021-02-21T13:49:40.147Z</time>
      </trkpt>
      <trkpt lat="48.51812" lon="7.17487">
        <ele>918</ele>
        <time>2021-02-21T13:49:41.147Z</time>
      </trkpt>
      <trkpt lat="48.51811" lon="7.17487">
        <ele>918</ele>
        <time>2021-02-21T13:49:42.147Z</time>
      </trkpt>
      <trkpt lat="48.5181" lon="7.17487">
        <ele>919</ele>
        <time>2021-02-21T13:49:43.148Z</time>
      </trkpt>
      <trkpt lat="48.51809" lon="7.17488">
        <ele>919</ele>
        <time>2021-02-21T13:49:44.148Z</time>
      </trkpt>
      <trkpt lat="48.51809" lon="7.17488">
        <ele>919</ele>
        <time>2021-02-21T13:49:45.148Z</time>
      </trkpt>
      <trkpt lat="48.51808" lon="7.17489">
        <ele>919</ele>
        <time>2021-02-21T13:49:46.148Z</time>
      </trkpt>
      <trkpt lat="48.51807" lon="7.17489">
        <ele>919</ele>
        <time>2021-02-21T13:49:47.148Z</time>
      </trkpt>
      <trkpt lat="48.51806" lon="7.17489">
        <ele>918</ele>
        <time>2021-02-21T13:49:48.147Z</time>
      </trkpt>
      <trkpt lat="48.51805" lon="7.17489">
        <ele>918</ele>
        <time>2021-02-21T13:49:49.148Z</time>
      </trkpt>
      <trkpt lat="48.51804" lon="7.1749">
        <ele>918</ele>
        <time>2021-02-21T13:49:50.148Z</time>
      </trkpt>
      <trkpt lat="48.51803" lon="7.1749">
        <ele>918</ele>
        <time>2021-02-21T13:49:51.147Z</time>
      </trkpt>
      <trkpt lat="48.51803" lon="7.17491">
        <ele>918</ele>
        <time>2021-02-21T13:49:52.147Z</time>
      </trkpt>
      <trkpt lat="48.51802" lon="7.17492">
        <ele>918</ele>
        <time>2021-02-21T13:49:53.147Z</time>
      </trkpt>
      <trkpt lat="48.51802" lon="7.17493">
        <ele>918</ele>
        <time>2021-02-21T13:49:59.154Z</time>
      </trkpt>
      <trkpt lat="48.51801" lon="7.17494">
        <ele>917</ele>
        <time>2021-02-21T13:50:00.154Z</time>
      </trkpt>
      <trkpt lat="48.51801" lon="7.17495">
        <ele>917</ele>
        <time>2021-02-21T13:50:01.153Z</time>
      </trkpt>
      <trkpt lat="48.51801" lon="7.17497">
        <ele>917</ele>
        <time>2021-02-21T13:50:02.154Z</time>
      </trkpt>
      <trkpt lat="48.51801" lon="7.17498">
        <ele>917</ele>
        <time>2021-02-21T13:50:03.154Z</time>
      </trkpt>
      <trkpt lat="48.51801" lon="7.17498">
        <ele>917</ele>
        <time>2021-02-21T13:50:04.154Z</time>
      </trkpt>
      <trkpt lat="48.518" lon="7.175">
        <ele>917</ele>
        <time>2021-02-21T13:50:05.154Z</time>
      </trkpt>
      <trkpt lat="48.518" lon="7.17501">
        <ele>917</ele>
        <time>2021-02-21T13:50:06.154Z</time>
      </trkpt>
      <trkpt lat="48.518" lon="7.17502">
        <ele>918</ele>
        <time>2021-02-21T13:50:07.154Z</time>
      </trkpt>
      <trkpt lat="48.51799" lon="7.17504">
        <ele>918</ele>
        <time>2021-02-21T13:50:08.154Z</time>
      </trkpt>
      <trkpt lat="48.51799" lon="7.17505">
        <ele>918</ele>
        <time>2021-02-21T13:50:09.154Z</time>
      </trkpt>
      <trkpt lat="48.51798" lon="7.17506">
        <ele>918</ele>
        <time>2021-02-21T13:50:10.154Z</time>
      </trkpt>
      <trkpt lat="48.51798" lon="7.17507">
        <ele>919</ele>
        <time>2021-02-21T13:50:11.154Z</time>
      </trkpt>
      <trkpt lat="48.51798" lon="7.17508">
        <ele>919</ele>
        <time>2021-02-21T13:50:12.153Z</time>
      </trkpt>
      <trkpt lat="48.51797" lon="7.17509">
        <ele>919</ele>
        <time>2021-02-21T13:50:13.154Z</time>
      </trkpt>
      <trkpt lat="48.51797" lon="7.1751">
        <ele>919</ele>
        <time>2021-02-21T13:50:14.154Z</time>
      </trkpt>
      <trkpt lat="48.51796" lon="7.17511">
        <ele>920</ele>
        <time>2021-02-21T13:50:15.154Z</time>
      </trkpt>
      <trkpt lat="48.51795" lon="7.17512">
        <ele>920</ele>
        <time>2021-02-21T13:50:16.154Z</time>
      </trkpt>
      <trkpt lat="48.51795" lon="7.17513">
        <ele>920</ele>
        <time>2021-02-21T13:50:17.154Z</time>
      </trkpt>
      <trkpt lat="48.51794" lon="7.17514">
        <ele>921</ele>
        <time>2021-02-21T13:50:18.154Z</time>
      </trkpt>
      <trkpt lat="48.51794" lon="7.17515">
        <ele>921</ele>
        <time>2021-02-21T13:50:19.153Z</time>
      </trkpt>
      <trkpt lat="48.51794" lon="7.17517">
        <ele>921</ele>
        <time>2021-02-21T13:50:20.154Z</time>
      </trkpt>
      <trkpt lat="48.51794" lon="7.17518">
        <ele>921</ele>
        <time>2021-02-21T13:50:21.154Z</time>
      </trkpt>
      <trkpt lat="48.51793" lon="7.17519">
        <ele>922</ele>
        <time>2021-02-21T13:50:22.154Z</time>
      </trkpt>
      <trkpt lat="48.51793" lon="7.17519">
        <ele>922</ele>
        <time>2021-02-21T13:50:23.154Z</time>
      </trkpt>
      <trkpt lat="48.51793" lon="7.1752">
        <ele>922</ele>
        <time>2021-02-21T13:50:24.154Z</time>
      </trkpt>
      <trkpt lat="48.51793" lon="7.1752">
        <ele>922</ele>
        <time>2021-02-21T13:50:25.154Z</time>
      </trkpt>
      <trkpt lat="48.51792" lon="7.17521">
        <ele>923</ele>
        <time>2021-02-21T13:50:26.154Z</time>
      </trkpt>
      <trkpt lat="48.51792" lon="7.17521">
        <ele>923</ele>
        <time>2021-02-21T13:50:27.154Z</time>
      </trkpt>
      <trkpt lat="48.51791" lon="7.17521">
        <ele>923</ele>
        <time>2021-02-21T13:50:28.153Z</time>
      </trkpt>
      <trkpt lat="48.51791" lon="7.17521">
        <ele>922</ele>
        <time>2021-02-21T13:50:29.154Z</time>
      </trkpt>
      <trkpt lat="48.51791" lon="7.17521">
        <ele>921</ele>
        <time>2021-02-21T13:50:30.154Z</time>
      </trkpt>
      <trkpt lat="48.5179" lon="7.17521">
        <ele>921</ele>
        <time>2021-02-21T13:50:31.154Z</time>
      </trkpt>
      <trkpt lat="48.51789" lon="7.1752">
        <ele>921</ele>
        <time>2021-02-21T13:50:32.154Z</time>
      </trkpt>
      <trkpt lat="48.51789" lon="7.17519">
        <ele>921</ele>
        <time>2021-02-21T13:50:33.154Z</time>
      </trkpt>
      <trkpt lat="48.51788" lon="7.1752">
        <ele>921</ele>
        <time>2021-02-21T13:50:34.154Z</time>
      </trkpt>
      <trkpt lat="48.51786" lon="7.1752">
        <ele>921</ele>
        <time>2021-02-21T13:50:35.154Z</time>
      </trkpt>
      <trkpt lat="48.51786" lon="7.17519">
        <ele>920</ele>
        <time>2021-02-21T13:50:36.153Z</time>
      </trkpt>
      <trkpt lat="48.51785" lon="7.17519">
        <ele>919</ele>
        <time>2021-02-21T13:50:37.153Z</time>
      </trkpt>
      <trkpt lat="48.51784" lon="7.17518">
        <ele>919</ele>
        <time>2021-02-21T13:50:38.154Z</time>
      </trkpt>
      <trkpt lat="48.51783" lon="7.17518">
        <ele>919</ele>
        <time>2021-02-21T13:50:39.154Z</time>
      </trkpt>
      <trkpt lat="48.51781" lon="7.17518">
        <ele>919</ele>
        <time>2021-02-21T13:50:40.154Z</time>
      </trkpt>
      <trkpt lat="48.5178" lon="7.17517">
        <ele>919</ele>
        <time>2021-02-21T13:50:41.154Z</time>
      </trkpt>
      <trkpt lat="48.51779" lon="7.17516">
        <ele>919</ele>
        <time>2021-02-21T13:50:42.154Z</time>
      </trkpt>
      <trkpt lat="48.51778" lon="7.17516">
        <ele>919</ele>
        <time>2021-02-21T13:50:43.153Z</time>
      </trkpt>
      <trkpt lat="48.51778" lon="7.17517">
        <ele>919</ele>
        <time>2021-02-21T13:50:44.154Z</time>
      </trkpt>
      <trkpt lat="48.51777" lon="7.17517">
        <ele>920</ele>
        <time>2021-02-21T13:50:45.153Z</time>
      </trkpt>
      <trkpt lat="48.51777" lon="7.17517">
        <ele>920</ele>
        <time>2021-02-21T13:50:46.154Z</time>
      </trkpt>
      <trkpt lat="48.51776" lon="7.17517">
        <ele>920</ele>
        <time>2021-02-21T13:50:47.154Z</time>
      </trkpt>
      <trkpt lat="48.51775" lon="7.17518">
        <ele>921</ele>
        <time>2021-02-21T13:50:48.153Z</time>
      </trkpt>
      <trkpt lat="48.51774" lon="7.17519">
        <ele>922</ele>
        <time>2021-02-21T13:50:49.153Z</time>
      </trkpt>
      <trkpt lat="48.51773" lon="7.1752">
        <ele>923</ele>
        <time>2021-02-21T13:50:50.154Z</time>
      </trkpt>
      <trkpt lat="48.51773" lon="7.1752">
        <ele>923</ele>
        <time>2021-02-21T13:50:51.154Z</time>
      </trkpt>
      <trkpt lat="48.51772" lon="7.17521">
        <ele>924</ele>
        <time>2021-02-21T13:50:52.154Z</time>
      </trkpt>
      <trkpt lat="48.51771" lon="7.17521">
        <ele>924</ele>
        <time>2021-02-21T13:50:53.154Z</time>
      </trkpt>
      <trkpt lat="48.5177" lon="7.17522">
        <ele>925</ele>
        <time>2021-02-21T13:50:54.154Z</time>
      </trkpt>
      <trkpt lat="48.51769" lon="7.17521">
        <ele>925</ele>
        <time>2021-02-21T13:50:55.154Z</time>
      </trkpt>
      <trkpt lat="48.51769" lon="7.17522">
        <ele>925</ele>
        <time>2021-02-21T13:50:56.154Z</time>
      </trkpt>
      <trkpt lat="48.51768" lon="7.17522">
        <ele>925</ele>
        <time>2021-02-21T13:50:57.154Z</time>
      </trkpt>
      <trkpt lat="48.51768" lon="7.17522">
        <ele>925</ele>
        <time>2021-02-21T13:50:58.154Z</time>
      </trkpt>
      <trkpt lat="48.51767" lon="7.17522">
        <ele>924</ele>
        <time>2021-02-21T13:50:59.154Z</time>
      </trkpt>
      <trkpt lat="48.51767" lon="7.17522">
        <ele>924</ele>
        <time>2021-02-21T13:51:00.154Z</time>
      </trkpt>
      <trkpt lat="48.51766" lon="7.17522">
        <ele>923</ele>
        <time>2021-02-21T13:51:01.154Z</time>
      </trkpt>
      <trkpt lat="48.51766" lon="7.17522">
        <ele>923</ele>
        <time>2021-02-21T13:51:02.153Z</time>
      </trkpt>
      <trkpt lat="48.51766" lon="7.17522">
        <ele>923</ele>
        <time>2021-02-21T13:51:03.154Z</time>
      </trkpt>
      <trkpt lat="48.51765" lon="7.17522">
        <ele>922</ele>
        <time>2021-02-21T13:51:04.154Z</time>
      </trkpt>
      <trkpt lat="48.51765" lon="7.17523">
        <ele>923</ele>
        <time>2021-02-21T13:51:05.154Z</time>
      </trkpt>
      <trkpt lat="48.51764" lon="7.17523">
        <ele>923</ele>
        <time>2021-02-21T13:51:06.154Z</time>
      </trkpt>
      <trkpt lat="48.51763" lon="7.17523">
        <ele>924</ele>
        <time>2021-02-21T13:51:07.154Z</time>
      </trkpt>
      <trkpt lat="48.51762" lon="7.17522">
        <ele>924</ele>
        <time>2021-02-21T13:51:08.154Z</time>
      </trkpt>
      <trkpt lat="48.51761" lon="7.17522">
        <ele>924</ele>
        <time>2021-02-21T13:51:09.154Z</time>
      </trkpt>
      <trkpt lat="48.51761" lon="7.17522">
        <ele>924</ele>
        <time>2021-02-21T13:51:10.154Z</time>
      </trkpt>
      <trkpt lat="48.5176" lon="7.17522">
        <ele>924</ele>
        <time>2021-02-21T13:51:11.153Z</time>
      </trkpt>
      <trkpt lat="48.51759" lon="7.17521">
        <ele>924</ele>
        <time>2021-02-21T13:51:12.154Z</time>
      </trkpt>
      <trkpt lat="48.51759" lon="7.17521">
        <ele>924</ele>
        <time>2021-02-21T13:51:13.153Z</time>
      </trkpt>
      <trkpt lat="48.51759" lon="7.17522">
        <ele>924</ele>
        <time>2021-02-21T13:51:14.154Z</time>
      </trkpt>
      <trkpt lat="48.51758" lon="7.17522">
        <ele>925</ele>
        <time>2021-02-21T13:51:15.154Z</time>
      </trkpt>
      <trkpt lat="48.51758" lon="7.17523">
        <ele>925</ele>
        <time>2021-02-21T13:51:16.153Z</time>
      </trkpt>
      <trkpt lat="48.51757" lon="7.17523">
        <ele>925</ele>
        <time>2021-02-21T13:51:17.154Z</time>
      </trkpt>
      <trkpt lat="48.51757" lon="7.17523">
        <ele>925</ele>
        <time>2021-02-21T13:51:18.154Z</time>
      </trkpt>
      <trkpt lat="48.51756" lon="7.17522">
        <ele>925</ele>
        <time>2021-02-21T13:51:19.154Z</time>
      </trkpt>
      <trkpt lat="48.51755" lon="7.17522">
        <ele>925</ele>
        <time>2021-02-21T13:51:20.153Z</time>
      </trkpt>
      <trkpt lat="48.51754" lon="7.17522">
        <ele>925</ele>
        <time>2021-02-21T13:51:21.154Z</time>
      </trkpt>
      <trkpt lat="48.51754" lon="7.17522">
        <ele>925</ele>
        <time>2021-02-21T13:51:22.154Z</time>
      </trkpt>
      <trkpt lat="48.51753" lon="7.17522">
        <ele>926</ele>
        <time>2021-02-21T13:51:23.153Z</time>
      </trkpt>
      <trkpt lat="48.51751" lon="7.17523">
        <ele>926</ele>
        <time>2021-02-21T13:51:24.154Z</time>
      </trkpt>
      <trkpt lat="48.5175" lon="7.17522">
        <ele>926</ele>
        <time>2021-02-21T13:51:25.154Z</time>
      </trkpt>
      <trkpt lat="48.51749" lon="7.17522">
        <ele>926</ele>
        <time>2021-02-21T13:51:26.154Z</time>
      </trkpt>
      <trkpt lat="48.51748" lon="7.17523">
        <ele>926</ele>
        <time>2021-02-21T13:51:27.153Z</time>
      </trkpt>
      <trkpt lat="48.51748" lon="7.17523">
        <ele>926</ele>
        <time>2021-02-21T13:51:28.154Z</time>
      </trkpt>
      <trkpt lat="48.51747" lon="7.17522">
        <ele>925</ele>
        <time>2021-02-21T13:51:29.153Z</time>
      </trkpt>
      <trkpt lat="48.51746" lon="7.17522">
        <ele>925</ele>
        <time>2021-02-21T13:51:30.153Z</time>
      </trkpt>
      <trkpt lat="48.51746" lon="7.17522">
        <ele>924</ele>
        <time>2021-02-21T13:51:31.153Z</time>
      </trkpt>
      <trkpt lat="48.51745" lon="7.17522">
        <ele>924</ele>
        <time>2021-02-21T13:51:32.154Z</time>
      </trkpt>
      <trkpt lat="48.51744" lon="7.17522">
        <ele>924</ele>
        <time>2021-02-21T13:51:33.154Z</time>
      </trkpt>
      <trkpt lat="48.51743" lon="7.17523">
        <ele>924</ele>
        <time>2021-02-21T13:51:34.153Z</time>
      </trkpt>
      <trkpt lat="48.51743" lon="7.17523">
        <ele>925</ele>
        <time>2021-02-21T13:51:35.154Z</time>
      </trkpt>
      <trkpt lat="48.51742" lon="7.17523">
        <ele>924</ele>
        <time>2021-02-21T13:51:36.154Z</time>
      </trkpt>
      <trkpt lat="48.51741" lon="7.17523">
        <ele>924</ele>
        <time>2021-02-21T13:51:37.153Z</time>
      </trkpt>
      <trkpt lat="48.5174" lon="7.17523">
        <ele>924</ele>
        <time>2021-02-21T13:51:38.154Z</time>
      </trkpt>
      <trkpt lat="48.51739" lon="7.17523">
        <ele>924</ele>
        <time>2021-02-21T13:51:39.154Z</time>
      </trkpt>
      <trkpt lat="48.51738" lon="7.17522">
        <ele>924</ele>
        <time>2021-02-21T13:51:40.154Z</time>
      </trkpt>
      <trkpt lat="48.51738" lon="7.17522">
        <ele>924</ele>
        <time>2021-02-21T13:51:41.154Z</time>
      </trkpt>
      <trkpt lat="48.51737" lon="7.17522">
        <ele>924</ele>
        <time>2021-02-21T13:51:42.153Z</time>
      </trkpt>
      <trkpt lat="48.51736" lon="7.17522">
        <ele>925</ele>
        <time>2021-02-21T13:51:43.154Z</time>
      </trkpt>
      <trkpt lat="48.51735" lon="7.17523">
        <ele>925</ele>
        <time>2021-02-21T13:51:44.154Z</time>
      </trkpt>
      <trkpt lat="48.51734" lon="7.17522">
        <ele>925</ele>
        <time>2021-02-21T13:51:45.154Z</time>
      </trkpt>
      <trkpt lat="48.51733" lon="7.17522">
        <ele>925</ele>
        <time>2021-02-21T13:51:46.154Z</time>
      </trkpt>
      <trkpt lat="48.51733" lon="7.17522">
        <ele>925</ele>
        <time>2021-02-21T13:51:47.154Z</time>
      </trkpt>
      <trkpt lat="48.51731" lon="7.17522">
        <ele>925</ele>
        <time>2021-02-21T13:51:48.154Z</time>
      </trkpt>
      <trkpt lat="48.5173" lon="7.17523">
        <ele>925</ele>
        <time>2021-02-21T13:51:49.153Z</time>
      </trkpt>
      <trkpt lat="48.51729" lon="7.17523">
        <ele>925</ele>
        <time>2021-02-21T13:51:50.153Z</time>
      </trkpt>
      <trkpt lat="48.51728" lon="7.17523">
        <ele>925</ele>
        <time>2021-02-21T13:51:51.154Z</time>
      </trkpt>
      <trkpt lat="48.51728" lon="7.17523">
        <ele>925</ele>
        <time>2021-02-21T13:51:52.153Z</time>
      </trkpt>
      <trkpt lat="48.51727" lon="7.17522">
        <ele>924</ele>
        <time>2021-02-21T13:51:53.154Z</time>
      </trkpt>
      <trkpt lat="48.51726" lon="7.17521">
        <ele>924</ele>
        <time>2021-02-21T13:51:54.154Z</time>
      </trkpt>
      <trkpt lat="48.51726" lon="7.17521">
        <ele>923</ele>
        <time>2021-02-21T13:51:55.154Z</time>
      </trkpt>
      <trkpt lat="48.51725" lon="7.17521">
        <ele>923</ele>
        <time>2021-02-21T13:51:56.154Z</time>
      </trkpt>
      <trkpt lat="48.51724" lon="7.17521">
        <ele>923</ele>
        <time>2021-02-21T13:51:57.154Z</time>
      </trkpt>
      <trkpt lat="48.51723" lon="7.17521">
        <ele>924</ele>
        <time>2021-02-21T13:51:58.153Z</time>
      </trkpt>
      <trkpt lat="48.51722" lon="7.17521">
        <ele>924</ele>
        <time>2021-02-21T13:51:59.154Z</time>
      </trkpt>
      <trkpt lat="48.51721" lon="7.17521">
        <ele>924</ele>
        <time>2021-02-21T13:52:00.154Z</time>
      </trkpt>
      <trkpt lat="48.51721" lon="7.17521">
        <ele>923</ele>
        <time>2021-02-21T13:52:01.154Z</time>
      </trkpt>
      <trkpt lat="48.5172" lon="7.17521">
        <ele>923</ele>
        <time>2021-02-21T13:52:02.154Z</time>
      </trkpt>
      <trkpt lat="48.51719" lon="7.17521">
        <ele>923</ele>
        <time>2021-02-21T13:52:03.154Z</time>
      </trkpt>
      <trkpt lat="48.51718" lon="7.17521">
        <ele>923</ele>
        <time>2021-02-21T13:52:04.154Z</time>
      </trkpt>
      <trkpt lat="48.51718" lon="7.17521">
        <ele>923</ele>
        <time>2021-02-21T13:52:05.154Z</time>
      </trkpt>
      <trkpt lat="48.51717" lon="7.17521">
        <ele>923</ele>
        <time>2021-02-21T13:52:06.154Z</time>
      </trkpt>
      <trkpt lat="48.51716" lon="7.17521">
        <ele>924</ele>
        <time>2021-02-21T13:52:07.154Z</time>
      </trkpt>
      <trkpt lat="48.51715" lon="7.1752">
        <ele>925</ele>
        <time>2021-02-21T13:52:08.154Z</time>
      </trkpt>
      <trkpt lat="48.51714" lon="7.1752">
        <ele>925</ele>
        <time>2021-02-21T13:52:09.153Z</time>
      </trkpt>
      <trkpt lat="48.51713" lon="7.17519">
        <ele>926</ele>
        <time>2021-02-21T13:52:10.154Z</time>
      </trkpt>
      <trkpt lat="48.51713" lon="7.17519">
        <ele>926</ele>
        <time>2021-02-21T13:52:11.153Z</time>
      </trkpt>
      <trkpt lat="48.51712" lon="7.17519">
        <ele>927</ele>
        <time>2021-02-21T13:52:12.154Z</time>
      </trkpt>
      <trkpt lat="48.51711" lon="7.17519">
        <ele>928</ele>
        <time>2021-02-21T13:52:13.153Z</time>
      </trkpt>
      <trkpt lat="48.5171" lon="7.17519">
        <ele>928</ele>
        <time>2021-02-21T13:52:14.153Z</time>
      </trkpt>
      <trkpt lat="48.5171" lon="7.17519">
        <ele>929</ele>
        <time>2021-02-21T13:52:15.154Z</time>
      </trkpt>
      <trkpt lat="48.51709" lon="7.17519">
        <ele>930</ele>
        <time>2021-02-21T13:52:16.154Z</time>
      </trkpt>
      <trkpt lat="48.51708" lon="7.17519">
        <ele>931</ele>
        <time>2021-02-21T13:52:17.154Z</time>
      </trkpt>
      <trkpt lat="48.51707" lon="7.17519">
        <ele>931</ele>
        <time>2021-02-21T13:52:18.154Z</time>
      </trkpt>
      <trkpt lat="48.51706" lon="7.17519">
        <ele>932</ele>
        <time>2021-02-21T13:52:19.153Z</time>
      </trkpt>
      <trkpt lat="48.51705" lon="7.17519">
        <ele>932</ele>
        <time>2021-02-21T13:52:20.154Z</time>
      </trkpt>
      <trkpt lat="48.51705" lon="7.17519">
        <ele>933</ele>
        <time>2021-02-21T13:52:21.154Z</time>
      </trkpt>
      <trkpt lat="48.51704" lon="7.17519">
        <ele>933</ele>
        <time>2021-02-21T13:52:22.154Z</time>
      </trkpt>
      <trkpt lat="48.51704" lon="7.17519">
        <ele>933</ele>
        <time>2021-02-21T13:52:23.154Z</time>
      </trkpt>
      <trkpt lat="48.51703" lon="7.17519">
        <ele>933</ele>
        <time>2021-02-21T13:52:24.153Z</time>
      </trkpt>
      <trkpt lat="48.51702" lon="7.17519">
        <ele>934</ele>
        <time>2021-02-21T13:52:25.154Z</time>
      </trkpt>
      <trkpt lat="48.51701" lon="7.17519">
        <ele>934</ele>
        <time>2021-02-21T13:52:26.154Z</time>
      </trkpt>
      <trkpt lat="48.517" lon="7.17519">
        <ele>935</ele>
        <time>2021-02-21T13:52:27.154Z</time>
      </trkpt>
      <trkpt lat="48.517" lon="7.17518">
        <ele>935</ele>
        <time>2021-02-21T13:52:28.154Z</time>
      </trkpt>
      <trkpt lat="48.51699" lon="7.17518">
        <ele>935</ele>
        <time>2021-02-21T13:52:29.154Z</time>
      </trkpt>
      <trkpt lat="48.51699" lon="7.17518">
        <ele>935</ele>
        <time>2021-02-21T13:52:30.153Z</time>
      </trkpt>
      <trkpt lat="48.51698" lon="7.17518">
        <ele>934</ele>
        <time>2021-02-21T13:52:31.153Z</time>
      </trkpt>
      <trkpt lat="48.51697" lon="7.17518">
        <ele>934</ele>
        <time>2021-02-21T13:52:32.154Z</time>
      </trkpt>
      <trkpt lat="48.51697" lon="7.17518">
        <ele>934</ele>
        <time>2021-02-21T13:52:33.154Z</time>
      </trkpt>
      <trkpt lat="48.51696" lon="7.17517">
        <ele>933</ele>
        <time>2021-02-21T13:52:34.154Z</time>
      </trkpt>
      <trkpt lat="48.51695" lon="7.17517">
        <ele>933</ele>
        <time>2021-02-21T13:52:35.154Z</time>
      </trkpt>
      <trkpt lat="48.51694" lon="7.17517">
        <ele>933</ele>
        <time>2021-02-21T13:52:36.154Z</time>
      </trkpt>
      <trkpt lat="48.51693" lon="7.17516">
        <ele>933</ele>
        <time>2021-02-21T13:52:37.154Z</time>
      </trkpt>
      <trkpt lat="48.51692" lon="7.17517">
        <ele>933</ele>
        <time>2021-02-21T13:52:38.154Z</time>
      </trkpt>
      <trkpt lat="48.51692" lon="7.17518">
        <ele>933</ele>
        <time>2021-02-21T13:52:39.154Z</time>
      </trkpt>
      <trkpt lat="48.51691" lon="7.17518">
        <ele>933</ele>
        <time>2021-02-21T13:52:40.153Z</time>
      </trkpt>
      <trkpt lat="48.51691" lon="7.17518">
        <ele>932</ele>
        <time>2021-02-21T13:52:41.154Z</time>
      </trkpt>
      <trkpt lat="48.5169" lon="7.17518">
        <ele>932</ele>
        <time>2021-02-21T13:52:42.154Z</time>
      </trkpt>
      <trkpt lat="48.5169" lon="7.17518">
        <ele>933</ele>
        <time>2021-02-21T13:52:43.154Z</time>
      </trkpt>
      <trkpt lat="48.51689" lon="7.17518">
        <ele>933</ele>
        <time>2021-02-21T13:52:44.153Z</time>
      </trkpt>
      <trkpt lat="48.51689" lon="7.17518">
        <ele>934</ele>
        <time>2021-02-21T13:52:45.154Z</time>
      </trkpt>
      <trkpt lat="48.51688" lon="7.17518">
        <ele>935</ele>
        <time>2021-02-21T13:52:46.154Z</time>
      </trkpt>
      <trkpt lat="48.51688" lon="7.17519">
        <ele>935</ele>
        <time>2021-02-21T13:52:47.153Z</time>
      </trkpt>
      <trkpt lat="48.51688" lon="7.17519">
        <ele>936</ele>
        <time>2021-02-21T13:52:48.154Z</time>
      </trkpt>
      <trkpt lat="48.51687" lon="7.17519">
        <ele>936</ele>
        <time>2021-02-21T13:52:49.154Z</time>
      </trkpt>
      <trkpt lat="48.51687" lon="7.17519">
        <ele>937</ele>
        <time>2021-02-21T13:52:50.154Z</time>
      </trkpt>
      <trkpt lat="48.51686" lon="7.1752">
        <ele>937</ele>
        <time>2021-02-21T13:52:51.153Z</time>
      </trkpt>
      <trkpt lat="48.51686" lon="7.1752">
        <ele>938</ele>
        <time>2021-02-21T13:52:52.154Z</time>
      </trkpt>
      <trkpt lat="48.51685" lon="7.1752">
        <ele>938</ele>
        <time>2021-02-21T13:52:53.154Z</time>
      </trkpt>
      <trkpt lat="48.51685" lon="7.1752">
        <ele>939</ele>
        <time>2021-02-21T13:52:54.153Z</time>
      </trkpt>
      <trkpt lat="48.51685" lon="7.17521">
        <ele>939</ele>
        <time>2021-02-21T13:52:55.154Z</time>
      </trkpt>
      <trkpt lat="48.51684" lon="7.17521">
        <ele>940</ele>
        <time>2021-02-21T13:52:56.154Z</time>
      </trkpt>
      <trkpt lat="48.51683" lon="7.17521">
        <ele>940</ele>
        <time>2021-02-21T13:52:57.154Z</time>
      </trkpt>
      <trkpt lat="48.51682" lon="7.1752">
        <ele>940</ele>
        <time>2021-02-21T13:52:58.153Z</time>
      </trkpt>
      <trkpt lat="48.51681" lon="7.1752">
        <ele>940</ele>
        <time>2021-02-21T13:52:59.154Z</time>
      </trkpt>
      <trkpt lat="48.51681" lon="7.1752">
        <ele>940</ele>
        <time>2021-02-21T13:53:00.154Z</time>
      </trkpt>
      <trkpt lat="48.5168" lon="7.1752">
        <ele>940</ele>
        <time>2021-02-21T13:53:01.154Z</time>
      </trkpt>
      <trkpt lat="48.51679" lon="7.1752">
        <ele>940</ele>
        <time>2021-02-21T13:53:02.154Z</time>
      </trkpt>
      <trkpt lat="48.51679" lon="7.1752">
        <ele>939</ele>
        <time>2021-02-21T13:53:03.154Z</time>
      </trkpt>
      <trkpt lat="48.51678" lon="7.17519">
        <ele>939</ele>
        <time>2021-02-21T13:53:04.153Z</time>
      </trkpt>
      <trkpt lat="48.51677" lon="7.17518">
        <ele>939</ele>
        <time>2021-02-21T13:53:05.154Z</time>
      </trkpt>
      <trkpt lat="48.51676" lon="7.17518">
        <ele>940</ele>
        <time>2021-02-21T13:53:06.153Z</time>
      </trkpt>
      <trkpt lat="48.51675" lon="7.17517">
        <ele>940</ele>
        <time>2021-02-21T13:53:07.154Z</time>
      </trkpt>
      <trkpt lat="48.51675" lon="7.17517">
        <ele>940</ele>
        <time>2021-02-21T13:53:08.154Z</time>
      </trkpt>
      <trkpt lat="48.51674" lon="7.17517">
        <ele>940</ele>
        <time>2021-02-21T13:53:09.154Z</time>
      </trkpt>
      <trkpt lat="48.51673" lon="7.17517">
        <ele>940</ele>
        <time>2021-02-21T13:53:10.154Z</time>
      </trkpt>
      <trkpt lat="48.51672" lon="7.17517">
        <ele>940</ele>
        <time>2021-02-21T13:53:11.154Z</time>
      </trkpt>
      <trkpt lat="48.51672" lon="7.17517">
        <ele>940</ele>
        <time>2021-02-21T13:53:12.154Z</time>
      </trkpt>
      <trkpt lat="48.51671" lon="7.17517">
        <ele>940</ele>
        <time>2021-02-21T13:53:13.154Z</time>
      </trkpt>
      <trkpt lat="48.5167" lon="7.17517">
        <ele>939</ele>
        <time>2021-02-21T13:53:14.153Z</time>
      </trkpt>
      <trkpt lat="48.51669" lon="7.17517">
        <ele>939</ele>
        <time>2021-02-21T13:53:15.153Z</time>
      </trkpt>
      <trkpt lat="48.51668" lon="7.17518">
        <ele>939</ele>
        <time>2021-02-21T13:53:16.154Z</time>
      </trkpt>
      <trkpt lat="48.51667" lon="7.17519">
        <ele>939</ele>
        <time>2021-02-21T13:53:17.153Z</time>
      </trkpt>
      <trkpt lat="48.51667" lon="7.17519">
        <ele>939</ele>
        <time>2021-02-21T13:53:18.154Z</time>
      </trkpt>
      <trkpt lat="48.51666" lon="7.1752">
        <ele>939</ele>
        <time>2021-02-21T13:53:19.154Z</time>
      </trkpt>
      <trkpt lat="48.51666" lon="7.1752">
        <ele>939</ele>
        <time>2021-02-21T13:53:20.154Z</time>
      </trkpt>
      <trkpt lat="48.51665" lon="7.1752">
        <ele>940</ele>
        <time>2021-02-21T13:53:21.153Z</time>
      </trkpt>
      <trkpt lat="48.51663" lon="7.1752">
        <ele>940</ele>
        <time>2021-02-21T13:53:22.154Z</time>
      </trkpt>
      <trkpt lat="48.51663" lon="7.1752">
        <ele>940</ele>
        <time>2021-02-21T13:53:23.154Z</time>
      </trkpt>
      <trkpt lat="48.51662" lon="7.1752">
        <ele>940</ele>
        <time>2021-02-21T13:53:24.153Z</time>
      </trkpt>
      <trkpt lat="48.51661" lon="7.1752">
        <ele>940</ele>
        <time>2021-02-21T13:53:25.153Z</time>
      </trkpt>
      <trkpt lat="48.5166" lon="7.1752">
        <ele>940</ele>
        <time>2021-02-21T13:53:26.154Z</time>
      </trkpt>
      <trkpt lat="48.51659" lon="7.17521">
        <ele>941</ele>
        <time>2021-02-21T13:53:27.153Z</time>
      </trkpt>
      <trkpt lat="48.51659" lon="7.17521">
        <ele>941</ele>
        <time>2021-02-21T13:53:28.153Z</time>
      </trkpt>
      <trkpt lat="48.51659" lon="7.17522">
        <ele>941</ele>
        <time>2021-02-21T13:53:29.154Z</time>
      </trkpt>
      <trkpt lat="48.51658" lon="7.17522">
        <ele>941</ele>
        <time>2021-02-21T13:53:30.154Z</time>
      </trkpt>
      <trkpt lat="48.51657" lon="7.17523">
        <ele>942</ele>
        <time>2021-02-21T13:53:31.153Z</time>
      </trkpt>
      <trkpt lat="48.51656" lon="7.17523">
        <ele>942</ele>
        <time>2021-02-21T13:53:32.154Z</time>
      </trkpt>
      <trkpt lat="48.51656" lon="7.17524">
        <ele>943</ele>
        <time>2021-02-21T13:53:33.153Z</time>
      </trkpt>
      <trkpt lat="48.51655" lon="7.17524">
        <ele>943</ele>
        <time>2021-02-21T13:53:34.154Z</time>
      </trkpt>
      <trkpt lat="48.51655" lon="7.17524">
        <ele>944</ele>
        <time>2021-02-21T13:53:35.154Z</time>
      </trkpt>
      <trkpt lat="48.51654" lon="7.17525">
        <ele>944</ele>
        <time>2021-02-21T13:53:36.154Z</time>
      </trkpt>
      <trkpt lat="48.51653" lon="7.17525">
        <ele>945</ele>
        <time>2021-02-21T13:53:37.153Z</time>
      </trkpt>
      <trkpt lat="48.51652" lon="7.17526">
        <ele>945</ele>
        <time>2021-02-21T13:53:38.154Z</time>
      </trkpt>
      <trkpt lat="48.51651" lon="7.17526">
        <ele>946</ele>
        <time>2021-02-21T13:53:39.154Z</time>
      </trkpt>
      <trkpt lat="48.5165" lon="7.17526">
        <ele>946</ele>
        <time>2021-02-21T13:53:40.154Z</time>
      </trkpt>
      <trkpt lat="48.51649" lon="7.17526">
        <ele>947</ele>
        <time>2021-02-21T13:53:41.154Z</time>
      </trkpt>
      <trkpt lat="48.51649" lon="7.17527">
        <ele>948</ele>
        <time>2021-02-21T13:53:42.154Z</time>
      </trkpt>
      <trkpt lat="48.51648" lon="7.17527">
        <ele>948</ele>
        <time>2021-02-21T13:53:43.154Z</time>
      </trkpt>
      <trkpt lat="48.51647" lon="7.17528">
        <ele>949</ele>
        <time>2021-02-21T13:53:44.153Z</time>
      </trkpt>
      <trkpt lat="48.51646" lon="7.17528">
        <ele>949</ele>
        <time>2021-02-21T13:53:48.329Z</time>
      </trkpt>
      <trkpt lat="48.51645" lon="7.17529">
        <ele>949</ele>
        <time>2021-02-21T13:53:49.329Z</time>
      </trkpt>
      <trkpt lat="48.51645" lon="7.17531">
        <ele>949</ele>
        <time>2021-02-21T13:53:50.328Z</time>
      </trkpt>
      <trkpt lat="48.51644" lon="7.17531">
        <ele>948</ele>
        <time>2021-02-21T13:53:51.329Z</time>
      </trkpt>
      <trkpt lat="48.51642" lon="7.17531">
        <ele>947</ele>
        <time>2021-02-21T13:53:52.329Z</time>
      </trkpt>
      <trkpt lat="48.51642" lon="7.17531">
        <ele>947</ele>
        <time>2021-02-21T13:53:53.329Z</time>
      </trkpt>
      <trkpt lat="48.5164" lon="7.17531">
        <ele>946</ele>
        <time>2021-02-21T13:53:54.329Z</time>
      </trkpt>
      <trkpt lat="48.5164" lon="7.17531">
        <ele>946</ele>
        <time>2021-02-21T13:53:55.329Z</time>
      </trkpt>
      <trkpt lat="48.51639" lon="7.17531">
        <ele>946</ele>
        <time>2021-02-21T13:53:56.329Z</time>
      </trkpt>
      <trkpt lat="48.51638" lon="7.17531">
        <ele>946</ele>
        <time>2021-02-21T13:53:57.329Z</time>
      </trkpt>
      <trkpt lat="48.51637" lon="7.17531">
        <ele>946</ele>
        <time>2021-02-21T13:53:58.329Z</time>
      </trkpt>
      <trkpt lat="48.51635" lon="7.17531">
        <ele>946</ele>
        <time>2021-02-21T13:53:59.329Z</time>
      </trkpt>
      <trkpt lat="48.51634" lon="7.17531">
        <ele>946</ele>
        <time>2021-02-21T13:54:00.329Z</time>
      </trkpt>
      <trkpt lat="48.51633" lon="7.17532">
        <ele>946</ele>
        <time>2021-02-21T13:54:01.329Z</time>
      </trkpt>
      <trkpt lat="48.51633" lon="7.17532">
        <ele>946</ele>
        <time>2021-02-21T13:54:02.329Z</time>
      </trkpt>
      <trkpt lat="48.51633" lon="7.17533">
        <ele>946</ele>
        <time>2021-02-21T13:54:03.329Z</time>
      </trkpt>
      <trkpt lat="48.51632" lon="7.17533">
        <ele>946</ele>
        <time>2021-02-21T13:54:04.328Z</time>
      </trkpt>
      <trkpt lat="48.51631" lon="7.17534">
        <ele>947</ele>
        <time>2021-02-21T13:54:05.329Z</time>
      </trkpt>
      <trkpt lat="48.5163" lon="7.17535">
        <ele>947</ele>
        <time>2021-02-21T13:54:06.329Z</time>
      </trkpt>
      <trkpt lat="48.51629" lon="7.17536">
        <ele>948</ele>
        <time>2021-02-21T13:54:07.329Z</time>
      </trkpt>
      <trkpt lat="48.51628" lon="7.17536">
        <ele>948</ele>
        <time>2021-02-21T13:54:08.329Z</time>
      </trkpt>
      <trkpt lat="48.51628" lon="7.17537">
        <ele>947</ele>
        <time>2021-02-21T13:54:09.329Z</time>
      </trkpt>
      <trkpt lat="48.51627" lon="7.17537">
        <ele>946</ele>
        <time>2021-02-21T13:54:10.329Z</time>
      </trkpt>
      <trkpt lat="48.51626" lon="7.17537">
        <ele>946</ele>
        <time>2021-02-21T13:54:11.329Z</time>
      </trkpt>
      <trkpt lat="48.51625" lon="7.17538">
        <ele>946</ele>
        <time>2021-02-21T13:54:12.328Z</time>
      </trkpt>
      <trkpt lat="48.51625" lon="7.17538">
        <ele>946</ele>
        <time>2021-02-21T13:54:13.329Z</time>
      </trkpt>
      <trkpt lat="48.51624" lon="7.17539">
        <ele>946</ele>
        <time>2021-02-21T13:54:14.329Z</time>
      </trkpt>
      <trkpt lat="48.51624" lon="7.1754">
        <ele>947</ele>
        <time>2021-02-21T13:54:15.328Z</time>
      </trkpt>
      <trkpt lat="48.51623" lon="7.1754">
        <ele>947</ele>
        <time>2021-02-21T13:54:16.329Z</time>
      </trkpt>
      <trkpt lat="48.51622" lon="7.17541">
        <ele>948</ele>
        <time>2021-02-21T13:54:17.329Z</time>
      </trkpt>
      <trkpt lat="48.51621" lon="7.17542">
        <ele>949</ele>
        <time>2021-02-21T13:54:18.329Z</time>
      </trkpt>
      <trkpt lat="48.51621" lon="7.17543">
        <ele>950</ele>
        <time>2021-02-21T13:54:19.329Z</time>
      </trkpt>
      <trkpt lat="48.5162" lon="7.17543">
        <ele>950</ele>
        <time>2021-02-21T13:54:20.329Z</time>
      </trkpt>
      <trkpt lat="48.51619" lon="7.17543">
        <ele>951</ele>
        <time>2021-02-21T13:54:21.329Z</time>
      </trkpt>
      <trkpt lat="48.51618" lon="7.17544">
        <ele>951</ele>
        <time>2021-02-21T13:54:22.329Z</time>
      </trkpt>
      <trkpt lat="48.51617" lon="7.17545">
        <ele>952</ele>
        <time>2021-02-21T13:54:23.328Z</time>
      </trkpt>
      <trkpt lat="48.51617" lon="7.17546">
        <ele>953</ele>
        <time>2021-02-21T13:54:24.329Z</time>
      </trkpt>
      <trkpt lat="48.51616" lon="7.17547">
        <ele>953</ele>
        <time>2021-02-21T13:54:25.329Z</time>
      </trkpt>
      <trkpt lat="48.51615" lon="7.17548">
        <ele>953</ele>
        <time>2021-02-21T13:54:26.328Z</time>
      </trkpt>
      <trkpt lat="48.51615" lon="7.17549">
        <ele>953</ele>
        <time>2021-02-21T13:54:27.329Z</time>
      </trkpt>
      <trkpt lat="48.51615" lon="7.17549">
        <ele>954</ele>
        <time>2021-02-21T13:54:28.328Z</time>
      </trkpt>
      <trkpt lat="48.51615" lon="7.1755">
        <ele>955</ele>
        <time>2021-02-21T13:54:29.329Z</time>
      </trkpt>
      <trkpt lat="48.51614" lon="7.17551">
        <ele>955</ele>
        <time>2021-02-21T13:54:30.329Z</time>
      </trkpt>
      <trkpt lat="48.51614" lon="7.17552">
        <ele>955</ele>
        <time>2021-02-21T13:54:31.329Z</time>
      </trkpt>
      <trkpt lat="48.51613" lon="7.17553">
        <ele>956</ele>
        <time>2021-02-21T13:54:32.329Z</time>
      </trkpt>
      <trkpt lat="48.51613" lon="7.17553">
        <ele>956</ele>
        <time>2021-02-21T13:54:33.328Z</time>
      </trkpt>
      <trkpt lat="48.51612" lon="7.17553">
        <ele>956</ele>
        <time>2021-02-21T13:54:34.328Z</time>
      </trkpt>
      <trkpt lat="48.51611" lon="7.17554">
        <ele>956</ele>
        <time>2021-02-21T13:54:35.328Z</time>
      </trkpt>
      <trkpt lat="48.51611" lon="7.17555">
        <ele>956</ele>
        <time>2021-02-21T13:54:36.329Z</time>
      </trkpt>
      <trkpt lat="48.5161" lon="7.17556">
        <ele>956</ele>
        <time>2021-02-21T13:54:37.329Z</time>
      </trkpt>
      <trkpt lat="48.5161" lon="7.17556">
        <ele>956</ele>
        <time>2021-02-21T13:54:38.328Z</time>
      </trkpt>
      <trkpt lat="48.5161" lon="7.17557">
        <ele>955</ele>
        <time>2021-02-21T13:54:39.328Z</time>
      </trkpt>
      <trkpt lat="48.51609" lon="7.17558">
        <ele>955</ele>
        <time>2021-02-21T13:54:40.329Z</time>
      </trkpt>
      <trkpt lat="48.51609" lon="7.17559">
        <ele>956</ele>
        <time>2021-02-21T13:54:41.329Z</time>
      </trkpt>
      <trkpt lat="48.51608" lon="7.17559">
        <ele>956</ele>
        <time>2021-02-21T13:54:42.329Z</time>
      </trkpt>
      <trkpt lat="48.51608" lon="7.1756">
        <ele>956</ele>
        <time>2021-02-21T13:54:43.329Z</time>
      </trkpt>
      <trkpt lat="48.51608" lon="7.1756">
        <ele>957</ele>
        <time>2021-02-21T13:54:44.329Z</time>
      </trkpt>
      <trkpt lat="48.51608" lon="7.17562">
        <ele>957</ele>
        <time>2021-02-21T13:54:45.328Z</time>
      </trkpt>
      <trkpt lat="48.51608" lon="7.17562">
        <ele>956</ele>
        <time>2021-02-21T13:54:46.328Z</time>
      </trkpt>
      <trkpt lat="48.51606" lon="7.17564">
        <ele>956</ele>
        <time>2021-02-21T13:54:47.329Z</time>
      </trkpt>
      <trkpt lat="48.51606" lon="7.17565">
        <ele>956</ele>
        <time>2021-02-21T13:54:48.328Z</time>
      </trkpt>
      <trkpt lat="48.51606" lon="7.17566">
        <ele>956</ele>
        <time>2021-02-21T13:54:49.329Z</time>
      </trkpt>
      <trkpt lat="48.51605" lon="7.17568">
        <ele>956</ele>
        <time>2021-02-21T13:54:50.328Z</time>
      </trkpt>
      <trkpt lat="48.51605" lon="7.17569">
        <ele>956</ele>
        <time>2021-02-21T13:54:51.329Z</time>
      </trkpt>
      <trkpt lat="48.51605" lon="7.1757">
        <ele>957</ele>
        <time>2021-02-21T13:54:52.329Z</time>
      </trkpt>
      <trkpt lat="48.51605" lon="7.17573">
        <ele>958</ele>
        <time>2021-02-21T13:54:53.329Z</time>
      </trkpt>
      <trkpt lat="48.51605" lon="7.17573">
        <ele>958</ele>
        <time>2021-02-21T13:54:54.328Z</time>
      </trkpt>
      <trkpt lat="48.51605" lon="7.17574">
        <ele>958</ele>
        <time>2021-02-21T13:54:55.329Z</time>
      </trkpt>
      <trkpt lat="48.51605" lon="7.17575">
        <ele>958</ele>
        <time>2021-02-21T13:54:56.328Z</time>
      </trkpt>
      <trkpt lat="48.51605" lon="7.17576">
        <ele>958</ele>
        <time>2021-02-21T13:54:57.329Z</time>
      </trkpt>
      <trkpt lat="48.51606" lon="7.17576">
        <ele>958</ele>
        <time>2021-02-21T13:54:58.329Z</time>
      </trkpt>
      <trkpt lat="48.51606" lon="7.17577">
        <ele>958</ele>
        <time>2021-02-21T13:54:59.329Z</time>
      </trkpt>
      <trkpt lat="48.51606" lon="7.17578">
        <ele>958</ele>
        <time>2021-02-21T13:55:00.329Z</time>
      </trkpt>
      <trkpt lat="48.51606" lon="7.17578">
        <ele>958</ele>
        <time>2021-02-21T13:55:01.329Z</time>
      </trkpt>
      <trkpt lat="48.51607" lon="7.17579">
        <ele>958</ele>
        <time>2021-02-21T13:55:02.329Z</time>
      </trkpt>
      <trkpt lat="48.51607" lon="7.17579">
        <ele>958</ele>
        <time>2021-02-21T13:55:03.329Z</time>
      </trkpt>
      <trkpt lat="48.51607" lon="7.17579">
        <ele>958</ele>
        <time>2021-02-21T13:55:04.328Z</time>
      </trkpt>
      <trkpt lat="48.51607" lon="7.17579">
        <ele>959</ele>
        <time>2021-02-21T13:55:05.328Z</time>
      </trkpt>
      <trkpt lat="48.51607" lon="7.17578">
        <ele>959</ele>
        <time>2021-02-21T13:55:06.328Z</time>
      </trkpt>
      <trkpt lat="48.51607" lon="7.17576">
        <ele>959</ele>
        <time>2021-02-21T13:55:07.329Z</time>
      </trkpt>
      <trkpt lat="48.51608" lon="7.17575">
        <ele>959</ele>
        <time>2021-02-21T13:55:08.329Z</time>
      </trkpt>
      <trkpt lat="48.51609" lon="7.17573">
        <ele>959</ele>
        <time>2021-02-21T13:55:09.328Z</time>
      </trkpt>
      <trkpt lat="48.51609" lon="7.17571">
        <ele>960</ele>
        <time>2021-02-21T13:55:10.329Z</time>
      </trkpt>
      <trkpt lat="48.51609" lon="7.17571">
        <ele>960</ele>
        <time>2021-02-21T13:55:11.329Z</time>
      </trkpt>
      <trkpt lat="48.51609" lon="7.17571">
        <ele>961</ele>
        <time>2021-02-21T13:55:12.329Z</time>
      </trkpt>
      <trkpt lat="48.51614" lon="7.17574">
        <ele>956</ele>
        <time>2021-02-21T13:55:13.329Z</time>
      </trkpt>
      <trkpt lat="48.51615" lon="7.17576">
        <ele>956</ele>
        <time>2021-02-21T13:55:14.328Z</time>
      </trkpt>
      <trkpt lat="48.51616" lon="7.17577">
        <ele>956</ele>
        <time>2021-02-21T13:55:15.329Z</time>
      </trkpt>
      <trkpt lat="48.51617" lon="7.17578">
        <ele>956</ele>
        <time>2021-02-21T13:55:16.329Z</time>
      </trkpt>
      <trkpt lat="48.51618" lon="7.17579">
        <ele>956</ele>
        <time>2021-02-21T13:55:17.329Z</time>
      </trkpt>
      <trkpt lat="48.51619" lon="7.1758">
        <ele>956</ele>
        <time>2021-02-21T13:55:18.329Z</time>
      </trkpt>
      <trkpt lat="48.51621" lon="7.17582">
        <ele>956</ele>
        <time>2021-02-21T13:55:19.329Z</time>
      </trkpt>
      <trkpt lat="48.51621" lon="7.17583">
        <ele>955</ele>
        <time>2021-02-21T13:55:20.329Z</time>
      </trkpt>
      <trkpt lat="48.51616" lon="7.1759">
        <ele>962</ele>
        <time>2021-02-21T13:55:21.329Z</time>
      </trkpt>
      <trkpt lat="48.51616" lon="7.17584">
        <ele>963</ele>
        <time>2021-02-21T13:55:22.330Z</time>
      </trkpt>
      <trkpt lat="48.51615" lon="7.17587">
        <ele>964</ele>
        <time>2021-02-21T13:55:23.330Z</time>
      </trkpt>
      <trkpt lat="48.51614" lon="7.17587">
        <ele>963</ele>
        <time>2021-02-21T13:55:24.330Z</time>
      </trkpt>
      <trkpt lat="48.51604" lon="7.17573">
        <ele>959</ele>
        <time>2021-02-21T13:55:25.330Z</time>
      </trkpt>
      <trkpt lat="48.51604" lon="7.17571">
        <ele>959</ele>
        <time>2021-02-21T13:55:26.331Z</time>
      </trkpt>
      <trkpt lat="48.51605" lon="7.1757">
        <ele>959</ele>
        <time>2021-02-21T13:55:27.330Z</time>
      </trkpt>
      <trkpt lat="48.51605" lon="7.17569">
        <ele>959</ele>
        <time>2021-02-21T13:55:28.330Z</time>
      </trkpt>
      <trkpt lat="48.51605" lon="7.17569">
        <ele>959</ele>
        <time>2021-02-21T13:55:29.330Z</time>
      </trkpt>
      <trkpt lat="48.51606" lon="7.17567">
        <ele>958</ele>
        <time>2021-02-21T13:55:30.330Z</time>
      </trkpt>
      <trkpt lat="48.51607" lon="7.17566">
        <ele>958</ele>
        <time>2021-02-21T13:55:31.330Z</time>
      </trkpt>
      <trkpt lat="48.51608" lon="7.17565">
        <ele>957</ele>
        <time>2021-02-21T13:55:32.331Z</time>
      </trkpt>
      <trkpt lat="48.51608" lon="7.17564">
        <ele>956</ele>
        <time>2021-02-21T13:55:33.330Z</time>
      </trkpt>
      <trkpt lat="48.51608" lon="7.17564">
        <ele>956</ele>
        <time>2021-02-21T13:55:34.331Z</time>
      </trkpt>
      <trkpt lat="48.51608" lon="7.17564">
        <ele>955</ele>
        <time>2021-02-21T13:55:35.330Z</time>
      </trkpt>
      <trkpt lat="48.51611" lon="7.17558">
        <ele>954</ele>
        <time>2021-02-21T13:55:36.331Z</time>
      </trkpt>
      <trkpt lat="48.51612" lon="7.17556">
        <ele>953</ele>
        <time>2021-02-21T13:55:37.330Z</time>
      </trkpt>
      <trkpt lat="48.51613" lon="7.17554">
        <ele>953</ele>
        <time>2021-02-21T13:55:38.330Z</time>
      </trkpt>
      <trkpt lat="48.51614" lon="7.17552">
        <ele>952</ele>
        <time>2021-02-21T13:55:39.331Z</time>
      </trkpt>
      <trkpt lat="48.51614" lon="7.1755">
        <ele>952</ele>
        <time>2021-02-21T13:55:40.330Z</time>
      </trkpt>
      <trkpt lat="48.51615" lon="7.17548">
        <ele>951</ele>
        <time>2021-02-21T13:55:41.330Z</time>
      </trkpt>
      <trkpt lat="48.51616" lon="7.17546">
        <ele>951</ele>
        <time>2021-02-21T13:55:42.331Z</time>
      </trkpt>
      <trkpt lat="48.51616" lon="7.17545">
        <ele>950</ele>
        <time>2021-02-21T13:55:43.330Z</time>
      </trkpt>
      <trkpt lat="48.51616" lon="7.17545">
        <ele>950</ele>
        <time>2021-02-21T13:55:44.331Z</time>
      </trkpt>
      <trkpt lat="48.51616" lon="7.17544">
        <ele>949</ele>
        <time>2021-02-21T13:55:45.330Z</time>
      </trkpt>
      <trkpt lat="48.51616" lon="7.17544">
        <ele>949</ele>
        <time>2021-02-21T13:55:46.331Z</time>
      </trkpt>
      <trkpt lat="48.51617" lon="7.17544">
        <ele>948</ele>
        <time>2021-02-21T13:55:47.333Z</time>
      </trkpt>
      <trkpt lat="48.51617" lon="7.17543">
        <ele>949</ele>
        <time>2021-02-21T13:55:48.333Z</time>
      </trkpt>
      <trkpt lat="48.51618" lon="7.17542">
        <ele>948</ele>
        <time>2021-02-21T13:55:49.332Z</time>
      </trkpt>
      <trkpt lat="48.51619" lon="7.17541">
        <ele>948</ele>
        <time>2021-02-21T13:55:50.332Z</time>
      </trkpt>
      <trkpt lat="48.51619" lon="7.1754">
        <ele>948</ele>
        <time>2021-02-21T13:55:51.333Z</time>
      </trkpt>
      <trkpt lat="48.5162" lon="7.1754">
        <ele>949</ele>
        <time>2021-02-21T13:55:52.333Z</time>
      </trkpt>
      <trkpt lat="48.51621" lon="7.17539">
        <ele>949</ele>
        <time>2021-02-21T13:55:53.333Z</time>
      </trkpt>
      <trkpt lat="48.51621" lon="7.17538">
        <ele>948</ele>
        <time>2021-02-21T13:55:54.333Z</time>
      </trkpt>
      <trkpt lat="48.51622" lon="7.17538">
        <ele>947</ele>
        <time>2021-02-21T13:55:55.333Z</time>
      </trkpt>
      <trkpt lat="48.51622" lon="7.17537">
        <ele>947</ele>
        <time>2021-02-21T13:55:56.333Z</time>
      </trkpt>
      <trkpt lat="48.51623" lon="7.17537">
        <ele>946</ele>
        <time>2021-02-21T13:55:57.333Z</time>
      </trkpt>
      <trkpt lat="48.51624" lon="7.17536">
        <ele>946</ele>
        <time>2021-02-21T13:55:58.333Z</time>
      </trkpt>
      <trkpt lat="48.51625" lon="7.17536">
        <ele>945</ele>
        <time>2021-02-21T13:55:59.333Z</time>
      </trkpt>
      <trkpt lat="48.51626" lon="7.17536">
        <ele>945</ele>
        <time>2021-02-21T13:56:00.332Z</time>
      </trkpt>
      <trkpt lat="48.51627" lon="7.17535">
        <ele>945</ele>
        <time>2021-02-21T13:56:01.333Z</time>
      </trkpt>
      <trkpt lat="48.51628" lon="7.17535">
        <ele>944</ele>
        <time>2021-02-21T13:56:02.332Z</time>
      </trkpt>
      <trkpt lat="48.51629" lon="7.17534">
        <ele>944</ele>
        <time>2021-02-21T13:56:03.333Z</time>
      </trkpt>
      <trkpt lat="48.5163" lon="7.17534">
        <ele>944</ele>
        <time>2021-02-21T13:56:04.333Z</time>
      </trkpt>
      <trkpt lat="48.51631" lon="7.17534">
        <ele>944</ele>
        <time>2021-02-21T13:56:05.332Z</time>
      </trkpt>
      <trkpt lat="48.51631" lon="7.17533">
        <ele>944</ele>
        <time>2021-02-21T13:56:06.333Z</time>
      </trkpt>
      <trkpt lat="48.51632" lon="7.17532">
        <ele>945</ele>
        <time>2021-02-21T13:56:07.333Z</time>
      </trkpt>
      <trkpt lat="48.51632" lon="7.17532">
        <ele>945</ele>
        <time>2021-02-21T13:56:08.333Z</time>
      </trkpt>
      <trkpt lat="48.51633" lon="7.17531">
        <ele>945</ele>
        <time>2021-02-21T13:56:09.333Z</time>
      </trkpt>
      <trkpt lat="48.51634" lon="7.17531">
        <ele>946</ele>
        <time>2021-02-21T13:56:10.333Z</time>
      </trkpt>
      <trkpt lat="48.51635" lon="7.1753">
        <ele>946</ele>
        <time>2021-02-21T13:56:11.332Z</time>
      </trkpt>
      <trkpt lat="48.51636" lon="7.1753">
        <ele>947</ele>
        <time>2021-02-21T13:56:12.333Z</time>
      </trkpt>
      <trkpt lat="48.51637" lon="7.1753">
        <ele>946</ele>
        <time>2021-02-21T13:56:13.333Z</time>
      </trkpt>
      <trkpt lat="48.51638" lon="7.1753">
        <ele>947</ele>
        <time>2021-02-21T13:56:14.333Z</time>
      </trkpt>
      <trkpt lat="48.51639" lon="7.17529">
        <ele>947</ele>
        <time>2021-02-21T13:56:15.333Z</time>
      </trkpt>
      <trkpt lat="48.51641" lon="7.17529">
        <ele>947</ele>
        <time>2021-02-21T13:56:16.333Z</time>
      </trkpt>
      <trkpt lat="48.51641" lon="7.17529">
        <ele>947</ele>
        <time>2021-02-21T13:56:17.332Z</time>
      </trkpt>
      <trkpt lat="48.51642" lon="7.17528">
        <ele>946</ele>
        <time>2021-02-21T13:56:18.332Z</time>
      </trkpt>
      <trkpt lat="48.51643" lon="7.17528">
        <ele>946</ele>
        <time>2021-02-21T13:56:19.332Z</time>
      </trkpt>
      <trkpt lat="48.51644" lon="7.17528">
        <ele>945</ele>
        <time>2021-02-21T13:56:20.333Z</time>
      </trkpt>
      <trkpt lat="48.51644" lon="7.17527">
        <ele>945</ele>
        <time>2021-02-21T13:56:21.332Z</time>
      </trkpt>
      <trkpt lat="48.51645" lon="7.17527">
        <ele>945</ele>
        <time>2021-02-21T13:56:22.333Z</time>
      </trkpt>
      <trkpt lat="48.51646" lon="7.17526">
        <ele>944</ele>
        <time>2021-02-21T13:56:23.332Z</time>
      </trkpt>
      <trkpt lat="48.51647" lon="7.17526">
        <ele>944</ele>
        <time>2021-02-21T13:56:24.332Z</time>
      </trkpt>
      <trkpt lat="48.51647" lon="7.17525">
        <ele>944</ele>
        <time>2021-02-21T13:56:25.333Z</time>
      </trkpt>
      <trkpt lat="48.51648" lon="7.17525">
        <ele>944</ele>
        <time>2021-02-21T13:56:26.332Z</time>
      </trkpt>
      <trkpt lat="48.51649" lon="7.17525">
        <ele>944</ele>
        <time>2021-02-21T13:56:27.332Z</time>
      </trkpt>
      <trkpt lat="48.5165" lon="7.17525">
        <ele>944</ele>
        <time>2021-02-21T13:56:28.332Z</time>
      </trkpt>
      <trkpt lat="48.5165" lon="7.17525">
        <ele>944</ele>
        <time>2021-02-21T13:56:29.333Z</time>
      </trkpt>
      <trkpt lat="48.51651" lon="7.17525">
        <ele>943</ele>
        <time>2021-02-21T13:56:30.333Z</time>
      </trkpt>
      <trkpt lat="48.51652" lon="7.17525">
        <ele>943</ele>
        <time>2021-02-21T13:56:31.333Z</time>
      </trkpt>
      <trkpt lat="48.51652" lon="7.17525">
        <ele>942</ele>
        <time>2021-02-21T13:56:32.333Z</time>
      </trkpt>
      <trkpt lat="48.51653" lon="7.17524">
        <ele>943</ele>
        <time>2021-02-21T13:56:33.332Z</time>
      </trkpt>
      <trkpt lat="48.51654" lon="7.17523">
        <ele>943</ele>
        <time>2021-02-21T13:56:34.333Z</time>
      </trkpt>
      <trkpt lat="48.51655" lon="7.17523">
        <ele>943</ele>
        <time>2021-02-21T13:56:40.434Z</time>
      </trkpt>
      <trkpt lat="48.51656" lon="7.17522">
        <ele>943</ele>
        <time>2021-02-21T13:56:41.435Z</time>
      </trkpt>
      <trkpt lat="48.51656" lon="7.17521">
        <ele>944</ele>
        <time>2021-02-21T13:56:42.435Z</time>
      </trkpt>
      <trkpt lat="48.51657" lon="7.17521">
        <ele>944</ele>
        <time>2021-02-21T13:56:43.435Z</time>
      </trkpt>
      <trkpt lat="48.51657" lon="7.17521">
        <ele>943</ele>
        <time>2021-02-21T13:56:44.435Z</time>
      </trkpt>
      <trkpt lat="48.51657" lon="7.17521">
        <ele>943</ele>
        <time>2021-02-21T13:56:45.434Z</time>
      </trkpt>
      <trkpt lat="48.51658" lon="7.17521">
        <ele>943</ele>
        <time>2021-02-21T13:56:46.434Z</time>
      </trkpt>
      <trkpt lat="48.51658" lon="7.1752">
        <ele>942</ele>
        <time>2021-02-21T13:56:47.437Z</time>
      </trkpt>
      <trkpt lat="48.51659" lon="7.1752">
        <ele>942</ele>
        <time>2021-02-21T13:56:48.436Z</time>
      </trkpt>
      <trkpt lat="48.51659" lon="7.1752">
        <ele>941</ele>
        <time>2021-02-21T13:56:49.436Z</time>
      </trkpt>
      <trkpt lat="48.5166" lon="7.1752">
        <ele>941</ele>
        <time>2021-02-21T13:56:50.436Z</time>
      </trkpt>
      <trkpt lat="48.5166" lon="7.17519">
        <ele>940</ele>
        <time>2021-02-21T13:56:51.437Z</time>
      </trkpt>
      <trkpt lat="48.51661" lon="7.17519">
        <ele>940</ele>
        <time>2021-02-21T13:56:52.436Z</time>
      </trkpt>
      <trkpt lat="48.51662" lon="7.17518">
        <ele>939</ele>
        <time>2021-02-21T13:56:53.437Z</time>
      </trkpt>
      <trkpt lat="48.51663" lon="7.17518">
        <ele>940</ele>
        <time>2021-02-21T13:56:54.437Z</time>
      </trkpt>
      <trkpt lat="48.51664" lon="7.17517">
        <ele>940</ele>
        <time>2021-02-21T13:56:55.436Z</time>
      </trkpt>
      <trkpt lat="48.51665" lon="7.17517">
        <ele>940</ele>
        <time>2021-02-21T13:56:56.437Z</time>
      </trkpt>
      <trkpt lat="48.51666" lon="7.17517">
        <ele>939</ele>
        <time>2021-02-21T13:56:57.437Z</time>
      </trkpt>
      <trkpt lat="48.51667" lon="7.17516">
        <ele>939</ele>
        <time>2021-02-21T13:56:58.436Z</time>
      </trkpt>
      <trkpt lat="48.51668" lon="7.17516">
        <ele>938</ele>
        <time>2021-02-21T13:56:59.437Z</time>
      </trkpt>
      <trkpt lat="48.51669" lon="7.17516">
        <ele>938</ele>
        <time>2021-02-21T13:57:00.437Z</time>
      </trkpt>
      <trkpt lat="48.5167" lon="7.17516">
        <ele>938</ele>
        <time>2021-02-21T13:57:01.436Z</time>
      </trkpt>
      <trkpt lat="48.5167" lon="7.17515">
        <ele>938</ele>
        <time>2021-02-21T13:57:02.436Z</time>
      </trkpt>
      <trkpt lat="48.51671" lon="7.17516">
        <ele>938</ele>
        <time>2021-02-21T13:57:03.437Z</time>
      </trkpt>
      <trkpt lat="48.51672" lon="7.17516">
        <ele>938</ele>
        <time>2021-02-21T13:57:04.436Z</time>
      </trkpt>
      <trkpt lat="48.51673" lon="7.17516">
        <ele>937</ele>
        <time>2021-02-21T13:57:05.437Z</time>
      </trkpt>
      <trkpt lat="48.51674" lon="7.17516">
        <ele>936</ele>
        <time>2021-02-21T13:57:06.437Z</time>
      </trkpt>
      <trkpt lat="48.51675" lon="7.17517">
        <ele>936</ele>
        <time>2021-02-21T13:57:07.437Z</time>
      </trkpt>
      <trkpt lat="48.51676" lon="7.17517">
        <ele>936</ele>
        <time>2021-02-21T13:57:08.437Z</time>
      </trkpt>
      <trkpt lat="48.51677" lon="7.17517">
        <ele>936</ele>
        <time>2021-02-21T13:57:09.437Z</time>
      </trkpt>
      <trkpt lat="48.51678" lon="7.17517">
        <ele>936</ele>
        <time>2021-02-21T13:57:10.437Z</time>
      </trkpt>
      <trkpt lat="48.51679" lon="7.17518">
        <ele>936</ele>
        <time>2021-02-21T13:57:11.436Z</time>
      </trkpt>
      <trkpt lat="48.5168" lon="7.17518">
        <ele>936</ele>
        <time>2021-02-21T13:57:12.436Z</time>
      </trkpt>
      <trkpt lat="48.51681" lon="7.17518">
        <ele>936</ele>
        <time>2021-02-21T13:57:13.437Z</time>
      </trkpt>
      <trkpt lat="48.51682" lon="7.17519">
        <ele>936</ele>
        <time>2021-02-21T13:57:14.437Z</time>
      </trkpt>
      <trkpt lat="48.51682" lon="7.17519">
        <ele>935</ele>
        <time>2021-02-21T13:57:15.437Z</time>
      </trkpt>
      <trkpt lat="48.51683" lon="7.1752">
        <ele>935</ele>
        <time>2021-02-21T13:57:16.437Z</time>
      </trkpt>
      <trkpt lat="48.51684" lon="7.1752">
        <ele>935</ele>
        <time>2021-02-21T13:57:17.436Z</time>
      </trkpt>
      <trkpt lat="48.51684" lon="7.1752">
        <ele>935</ele>
        <time>2021-02-21T13:57:18.437Z</time>
      </trkpt>
      <trkpt lat="48.51685" lon="7.1752">
        <ele>935</ele>
        <time>2021-02-21T13:57:19.436Z</time>
      </trkpt>
      <trkpt lat="48.51686" lon="7.1752">
        <ele>935</ele>
        <time>2021-02-21T13:57:20.436Z</time>
      </trkpt>
      <trkpt lat="48.51686" lon="7.1752">
        <ele>935</ele>
        <time>2021-02-21T13:57:21.436Z</time>
      </trkpt>
      <trkpt lat="48.51686" lon="7.1752">
        <ele>934</ele>
        <time>2021-02-21T13:57:22.436Z</time>
      </trkpt>
      <trkpt lat="48.51687" lon="7.17519">
        <ele>934</ele>
        <time>2021-02-21T13:57:23.437Z</time>
      </trkpt>
      <trkpt lat="48.51688" lon="7.17519">
        <ele>934</ele>
        <time>2021-02-21T13:57:24.437Z</time>
      </trkpt>
      <trkpt lat="48.51688" lon="7.17519">
        <ele>934</ele>
        <time>2021-02-21T13:57:25.436Z</time>
      </trkpt>
      <trkpt lat="48.51689" lon="7.17518">
        <ele>934</ele>
        <time>2021-02-21T13:57:26.436Z</time>
      </trkpt>
      <trkpt lat="48.51689" lon="7.17519">
        <ele>934</ele>
        <time>2021-02-21T13:57:27.437Z</time>
      </trkpt>
      <trkpt lat="48.5169" lon="7.17518">
        <ele>933</ele>
        <time>2021-02-21T13:57:28.437Z</time>
      </trkpt>
      <trkpt lat="48.5169" lon="7.17518">
        <ele>933</ele>
        <time>2021-02-21T13:57:29.437Z</time>
      </trkpt>
      <trkpt lat="48.51691" lon="7.17517">
        <ele>933</ele>
        <time>2021-02-21T13:57:30.437Z</time>
      </trkpt>
      <trkpt lat="48.51692" lon="7.17517">
        <ele>933</ele>
        <time>2021-02-21T13:57:31.436Z</time>
      </trkpt>
      <trkpt lat="48.51693" lon="7.17517">
        <ele>933</ele>
        <time>2021-02-21T13:57:32.437Z</time>
      </trkpt>
      <trkpt lat="48.51694" lon="7.17517">
        <ele>934</ele>
        <time>2021-02-21T13:57:33.437Z</time>
      </trkpt>
      <trkpt lat="48.51695" lon="7.17517">
        <ele>934</ele>
        <time>2021-02-21T13:57:34.437Z</time>
      </trkpt>
      <trkpt lat="48.51696" lon="7.17517">
        <ele>934</ele>
        <time>2021-02-21T13:57:35.437Z</time>
      </trkpt>
      <trkpt lat="48.51697" lon="7.17516">
        <ele>934</ele>
        <time>2021-02-21T13:57:36.437Z</time>
      </trkpt>
      <trkpt lat="48.51697" lon="7.17517">
        <ele>933</ele>
        <time>2021-02-21T13:57:37.437Z</time>
      </trkpt>
      <trkpt lat="48.51698" lon="7.17517">
        <ele>933</ele>
        <time>2021-02-21T13:57:38.437Z</time>
      </trkpt>
      <trkpt lat="48.51699" lon="7.17517">
        <ele>932</ele>
        <time>2021-02-21T13:57:39.436Z</time>
      </trkpt>
      <trkpt lat="48.51701" lon="7.17517">
        <ele>932</ele>
        <time>2021-02-21T13:57:40.437Z</time>
      </trkpt>
      <trkpt lat="48.51702" lon="7.17517">
        <ele>931</ele>
        <time>2021-02-21T13:57:41.437Z</time>
      </trkpt>
      <trkpt lat="48.51702" lon="7.17518">
        <ele>931</ele>
        <time>2021-02-21T13:57:42.437Z</time>
      </trkpt>
      <trkpt lat="48.51703" lon="7.17518">
        <ele>931</ele>
        <time>2021-02-21T13:57:43.436Z</time>
      </trkpt>
      <trkpt lat="48.51704" lon="7.17518">
        <ele>931</ele>
        <time>2021-02-21T13:57:44.436Z</time>
      </trkpt>
      <trkpt lat="48.51705" lon="7.17518">
        <ele>931</ele>
        <time>2021-02-21T13:57:45.437Z</time>
      </trkpt>
      <trkpt lat="48.51705" lon="7.17517">
        <ele>931</ele>
        <time>2021-02-21T13:57:46.437Z</time>
      </trkpt>
      <trkpt lat="48.51706" lon="7.17517">
        <ele>931</ele>
        <time>2021-02-21T13:57:47.437Z</time>
      </trkpt>
      <trkpt lat="48.51708" lon="7.17517">
        <ele>931</ele>
        <time>2021-02-21T13:57:48.436Z</time>
      </trkpt>
      <trkpt lat="48.51709" lon="7.17517">
        <ele>931</ele>
        <time>2021-02-21T13:57:49.437Z</time>
      </trkpt>
      <trkpt lat="48.51709" lon="7.17517">
        <ele>931</ele>
        <time>2021-02-21T13:57:50.437Z</time>
      </trkpt>
      <trkpt lat="48.5171" lon="7.17518">
        <ele>931</ele>
        <time>2021-02-21T13:57:51.436Z</time>
      </trkpt>
      <trkpt lat="48.51711" lon="7.17518">
        <ele>930</ele>
        <time>2021-02-21T13:57:52.436Z</time>
      </trkpt>
      <trkpt lat="48.51712" lon="7.17518">
        <ele>930</ele>
        <time>2021-02-21T13:57:53.437Z</time>
      </trkpt>
      <trkpt lat="48.51712" lon="7.17518">
        <ele>929</ele>
        <time>2021-02-21T13:57:54.437Z</time>
      </trkpt>
      <trkpt lat="48.51713" lon="7.17518">
        <ele>929</ele>
        <time>2021-02-21T13:57:55.437Z</time>
      </trkpt>
      <trkpt lat="48.51714" lon="7.17519">
        <ele>928</ele>
        <time>2021-02-21T13:57:56.437Z</time>
      </trkpt>
      <trkpt lat="48.51715" lon="7.17519">
        <ele>928</ele>
        <time>2021-02-21T13:57:57.437Z</time>
      </trkpt>
      <trkpt lat="48.51716" lon="7.1752">
        <ele>928</ele>
        <time>2021-02-21T13:57:58.437Z</time>
      </trkpt>
      <trkpt lat="48.51717" lon="7.1752">
        <ele>927</ele>
        <time>2021-02-21T13:57:59.437Z</time>
      </trkpt>
      <trkpt lat="48.51717" lon="7.17521">
        <ele>927</ele>
        <time>2021-02-21T13:58:00.436Z</time>
      </trkpt>
      <trkpt lat="48.51718" lon="7.17521">
        <ele>927</ele>
        <time>2021-02-21T13:58:01.436Z</time>
      </trkpt>
      <trkpt lat="48.51719" lon="7.1752">
        <ele>927</ele>
        <time>2021-02-21T13:58:02.437Z</time>
      </trkpt>
      <trkpt lat="48.5172" lon="7.1752">
        <ele>927</ele>
        <time>2021-02-21T13:58:03.436Z</time>
      </trkpt>
      <trkpt lat="48.51721" lon="7.1752">
        <ele>927</ele>
        <time>2021-02-21T13:58:04.437Z</time>
      </trkpt>
      <trkpt lat="48.51722" lon="7.1752">
        <ele>927</ele>
        <time>2021-02-21T13:58:05.437Z</time>
      </trkpt>
      <trkpt lat="48.51723" lon="7.1752">
        <ele>926</ele>
        <time>2021-02-21T13:58:06.436Z</time>
      </trkpt>
      <trkpt lat="48.51724" lon="7.1752">
        <ele>926</ele>
        <time>2021-02-21T13:58:07.437Z</time>
      </trkpt>
      <trkpt lat="48.51725" lon="7.1752">
        <ele>926</ele>
        <time>2021-02-21T13:58:08.437Z</time>
      </trkpt>
      <trkpt lat="48.51726" lon="7.17521">
        <ele>926</ele>
        <time>2021-02-21T13:58:09.437Z</time>
      </trkpt>
      <trkpt lat="48.51727" lon="7.17521">
        <ele>926</ele>
        <time>2021-02-21T13:58:10.437Z</time>
      </trkpt>
      <trkpt lat="48.51728" lon="7.17522">
        <ele>926</ele>
        <time>2021-02-21T13:58:11.436Z</time>
      </trkpt>
      <trkpt lat="48.51729" lon="7.17523">
        <ele>926</ele>
        <time>2021-02-21T13:58:12.437Z</time>
      </trkpt>
      <trkpt lat="48.5173" lon="7.17523">
        <ele>926</ele>
        <time>2021-02-21T13:58:13.437Z</time>
      </trkpt>
      <trkpt lat="48.51731" lon="7.17523">
        <ele>925</ele>
        <time>2021-02-21T13:58:14.437Z</time>
      </trkpt>
      <trkpt lat="48.51732" lon="7.17523">
        <ele>925</ele>
        <time>2021-02-21T13:58:15.436Z</time>
      </trkpt>
      <trkpt lat="48.51733" lon="7.17524">
        <ele>925</ele>
        <time>2021-02-21T13:58:16.437Z</time>
      </trkpt>
      <trkpt lat="48.51733" lon="7.17523">
        <ele>924</ele>
        <time>2021-02-21T13:58:17.436Z</time>
      </trkpt>
      <trkpt lat="48.51734" lon="7.17523">
        <ele>924</ele>
        <time>2021-02-21T13:58:18.437Z</time>
      </trkpt>
      <trkpt lat="48.51735" lon="7.17523">
        <ele>924</ele>
        <time>2021-02-21T13:58:19.437Z</time>
      </trkpt>
      <trkpt lat="48.51736" lon="7.17523">
        <ele>923</ele>
        <time>2021-02-21T13:58:20.437Z</time>
      </trkpt>
      <trkpt lat="48.51737" lon="7.17523">
        <ele>923</ele>
        <time>2021-02-21T13:58:21.437Z</time>
      </trkpt>
      <trkpt lat="48.51738" lon="7.17523">
        <ele>923</ele>
        <time>2021-02-21T13:58:22.437Z</time>
      </trkpt>
      <trkpt lat="48.51738" lon="7.17524">
        <ele>922</ele>
        <time>2021-02-21T13:58:23.436Z</time>
      </trkpt>
      <trkpt lat="48.51739" lon="7.17524">
        <ele>922</ele>
        <time>2021-02-21T13:58:24.437Z</time>
      </trkpt>
      <trkpt lat="48.5174" lon="7.17524">
        <ele>922</ele>
        <time>2021-02-21T13:58:25.437Z</time>
      </trkpt>
      <trkpt lat="48.51741" lon="7.17524">
        <ele>922</ele>
        <time>2021-02-21T13:58:26.437Z</time>
      </trkpt>
      <trkpt lat="48.51742" lon="7.17524">
        <ele>922</ele>
        <time>2021-02-21T13:58:27.437Z</time>
      </trkpt>
      <trkpt lat="48.51742" lon="7.17524">
        <ele>922</ele>
        <time>2021-02-21T13:58:28.437Z</time>
      </trkpt>
      <trkpt lat="48.51743" lon="7.17524">
        <ele>922</ele>
        <time>2021-02-21T13:58:29.437Z</time>
      </trkpt>
      <trkpt lat="48.51744" lon="7.17524">
        <ele>922</ele>
        <time>2021-02-21T13:58:30.437Z</time>
      </trkpt>
      <trkpt lat="48.51745" lon="7.17523">
        <ele>922</ele>
        <time>2021-02-21T13:58:31.436Z</time>
      </trkpt>
      <trkpt lat="48.51746" lon="7.17523">
        <ele>922</ele>
        <time>2021-02-21T13:58:32.437Z</time>
      </trkpt>
      <trkpt lat="48.51747" lon="7.17524">
        <ele>922</ele>
        <time>2021-02-21T13:58:33.437Z</time>
      </trkpt>
      <trkpt lat="48.51748" lon="7.17523">
        <ele>922</ele>
        <time>2021-02-21T13:58:34.436Z</time>
      </trkpt>
      <trkpt lat="48.51749" lon="7.17523">
        <ele>922</ele>
        <time>2021-02-21T13:58:35.437Z</time>
      </trkpt>
      <trkpt lat="48.5175" lon="7.17523">
        <ele>922</ele>
        <time>2021-02-21T13:58:36.436Z</time>
      </trkpt>
      <trkpt lat="48.51751" lon="7.17522">
        <ele>922</ele>
        <time>2021-02-21T13:58:37.437Z</time>
      </trkpt>
      <trkpt lat="48.51752" lon="7.17522">
        <ele>922</ele>
        <time>2021-02-21T13:58:38.437Z</time>
      </trkpt>
      <trkpt lat="48.51753" lon="7.17522">
        <ele>922</ele>
        <time>2021-02-21T13:58:39.436Z</time>
      </trkpt>
      <trkpt lat="48.51754" lon="7.17523">
        <ele>923</ele>
        <time>2021-02-21T13:58:40.437Z</time>
      </trkpt>
      <trkpt lat="48.51754" lon="7.17523">
        <ele>923</ele>
        <time>2021-02-21T13:58:41.436Z</time>
      </trkpt>
      <trkpt lat="48.51755" lon="7.17522">
        <ele>923</ele>
        <time>2021-02-21T13:58:42.437Z</time>
      </trkpt>
      <trkpt lat="48.51755" lon="7.17522">
        <ele>923</ele>
        <time>2021-02-21T13:58:43.436Z</time>
      </trkpt>
      <trkpt lat="48.51756" lon="7.17522">
        <ele>923</ele>
        <time>2021-02-21T13:58:44.436Z</time>
      </trkpt>
      <trkpt lat="48.51757" lon="7.17521">
        <ele>922</ele>
        <time>2021-02-21T13:58:45.437Z</time>
      </trkpt>
      <trkpt lat="48.51757" lon="7.17521">
        <ele>922</ele>
        <time>2021-02-21T13:58:46.436Z</time>
      </trkpt>
      <trkpt lat="48.51758" lon="7.17521">
        <ele>922</ele>
        <time>2021-02-21T13:58:47.437Z</time>
      </trkpt>
      <trkpt lat="48.51757" lon="7.17521">
        <ele>922</ele>
        <time>2021-02-21T13:58:48.436Z</time>
      </trkpt>
      <trkpt lat="48.51758" lon="7.17521">
        <ele>922</ele>
        <time>2021-02-21T13:58:49.437Z</time>
      </trkpt>
      <trkpt lat="48.51758" lon="7.1752">
        <ele>922</ele>
        <time>2021-02-21T13:58:50.437Z</time>
      </trkpt>
      <trkpt lat="48.51759" lon="7.1752">
        <ele>922</ele>
        <time>2021-02-21T13:58:51.437Z</time>
      </trkpt>
      <trkpt lat="48.51759" lon="7.1752">
        <ele>923</ele>
        <time>2021-02-21T13:58:52.437Z</time>
      </trkpt>
      <trkpt lat="48.51759" lon="7.1752">
        <ele>923</ele>
        <time>2021-02-21T13:58:53.437Z</time>
      </trkpt>
      <trkpt lat="48.5176" lon="7.1752">
        <ele>923</ele>
        <time>2021-02-21T13:58:54.437Z</time>
      </trkpt>
      <trkpt lat="48.51761" lon="7.1752">
        <ele>923</ele>
        <time>2021-02-21T13:58:55.437Z</time>
      </trkpt>
      <trkpt lat="48.51762" lon="7.1752">
        <ele>923</ele>
        <time>2021-02-21T13:58:56.437Z</time>
      </trkpt>
      <trkpt lat="48.51763" lon="7.17519">
        <ele>924</ele>
        <time>2021-02-21T13:58:57.437Z</time>
      </trkpt>
      <trkpt lat="48.51763" lon="7.17519">
        <ele>924</ele>
        <time>2021-02-21T13:58:58.436Z</time>
      </trkpt>
      <trkpt lat="48.51764" lon="7.17518">
        <ele>924</ele>
        <time>2021-02-21T13:58:59.436Z</time>
      </trkpt>
      <trkpt lat="48.51765" lon="7.17516">
        <ele>923</ele>
        <time>2021-02-21T13:59:00.437Z</time>
      </trkpt>
      <trkpt lat="48.51765" lon="7.17515">
        <ele>923</ele>
        <time>2021-02-21T13:59:01.437Z</time>
      </trkpt>
      <trkpt lat="48.51766" lon="7.17515">
        <ele>923</ele>
        <time>2021-02-21T13:59:02.437Z</time>
      </trkpt>
      <trkpt lat="48.51767" lon="7.17514">
        <ele>922</ele>
        <time>2021-02-21T13:59:03.436Z</time>
      </trkpt>
      <trkpt lat="48.51768" lon="7.17513">
        <ele>922</ele>
        <time>2021-02-21T13:59:04.436Z</time>
      </trkpt>
      <trkpt lat="48.51769" lon="7.17512">
        <ele>922</ele>
        <time>2021-02-21T13:59:05.437Z</time>
      </trkpt>
      <trkpt lat="48.5177" lon="7.17512">
        <ele>922</ele>
        <time>2021-02-21T13:59:06.437Z</time>
      </trkpt>
      <trkpt lat="48.51771" lon="7.17512">
        <ele>921</ele>
        <time>2021-02-21T13:59:07.437Z</time>
      </trkpt>
      <trkpt lat="48.51772" lon="7.17511">
        <ele>921</ele>
        <time>2021-02-21T13:59:08.436Z</time>
      </trkpt>
      <trkpt lat="48.51773" lon="7.17511">
        <ele>921</ele>
        <time>2021-02-21T13:59:09.437Z</time>
      </trkpt>
      <trkpt lat="48.51774" lon="7.1751">
        <ele>922</ele>
        <time>2021-02-21T13:59:10.437Z</time>
      </trkpt>
      <trkpt lat="48.51775" lon="7.17509">
        <ele>922</ele>
        <time>2021-02-21T13:59:11.436Z</time>
      </trkpt>
      <trkpt lat="48.51776" lon="7.17509">
        <ele>921</ele>
        <time>2021-02-21T13:59:12.437Z</time>
      </trkpt>
      <trkpt lat="48.51777" lon="7.17509">
        <ele>921</ele>
        <time>2021-02-21T13:59:13.437Z</time>
      </trkpt>
      <trkpt lat="48.51777" lon="7.17509">
        <ele>921</ele>
        <time>2021-02-21T13:59:14.436Z</time>
      </trkpt>
      <trkpt lat="48.51778" lon="7.17509">
        <ele>921</ele>
        <time>2021-02-21T13:59:15.436Z</time>
      </trkpt>
      <trkpt lat="48.51779" lon="7.17509">
        <ele>921</ele>
        <time>2021-02-21T13:59:16.437Z</time>
      </trkpt>
      <trkpt lat="48.5178" lon="7.17508">
        <ele>920</ele>
        <time>2021-02-21T13:59:17.436Z</time>
      </trkpt>
      <trkpt lat="48.51782" lon="7.17508">
        <ele>920</ele>
        <time>2021-02-21T13:59:18.437Z</time>
      </trkpt>
      <trkpt lat="48.51782" lon="7.17509">
        <ele>919</ele>
        <time>2021-02-21T13:59:19.437Z</time>
      </trkpt>
      <trkpt lat="48.51783" lon="7.17509">
        <ele>918</ele>
        <time>2021-02-21T13:59:20.436Z</time>
      </trkpt>
      <trkpt lat="48.51784" lon="7.17509">
        <ele>918</ele>
        <time>2021-02-21T13:59:21.437Z</time>
      </trkpt>
      <trkpt lat="48.51785" lon="7.1751">
        <ele>918</ele>
        <time>2021-02-21T13:59:22.437Z</time>
      </trkpt>
      <trkpt lat="48.51785" lon="7.1751">
        <ele>918</ele>
        <time>2021-02-21T13:59:23.436Z</time>
      </trkpt>
      <trkpt lat="48.51785" lon="7.17511">
        <ele>918</ele>
        <time>2021-02-21T13:59:24.437Z</time>
      </trkpt>
      <trkpt lat="48.51786" lon="7.17512">
        <ele>918</ele>
        <time>2021-02-21T13:59:25.436Z</time>
      </trkpt>
      <trkpt lat="48.51786" lon="7.17512">
        <ele>918</ele>
        <time>2021-02-21T13:59:26.437Z</time>
      </trkpt>
      <trkpt lat="48.51787" lon="7.17512">
        <ele>918</ele>
        <time>2021-02-21T13:59:27.437Z</time>
      </trkpt>
      <trkpt lat="48.51788" lon="7.17512">
        <ele>919</ele>
        <time>2021-02-21T13:59:28.437Z</time>
      </trkpt>
      <trkpt lat="48.51789" lon="7.17512">
        <ele>919</ele>
        <time>2021-02-21T13:59:29.436Z</time>
      </trkpt>
      <trkpt lat="48.51789" lon="7.17512">
        <ele>919</ele>
        <time>2021-02-21T13:59:30.436Z</time>
      </trkpt>
      <trkpt lat="48.5179" lon="7.17511">
        <ele>919</ele>
        <time>2021-02-21T13:59:31.436Z</time>
      </trkpt>
      <trkpt lat="48.51791" lon="7.17511">
        <ele>919</ele>
        <time>2021-02-21T13:59:32.437Z</time>
      </trkpt>
      <trkpt lat="48.51792" lon="7.1751">
        <ele>919</ele>
        <time>2021-02-21T13:59:33.437Z</time>
      </trkpt>
      <trkpt lat="48.51793" lon="7.17509">
        <ele>919</ele>
        <time>2021-02-21T13:59:34.437Z</time>
      </trkpt>
      <trkpt lat="48.51793" lon="7.17508">
        <ele>919</ele>
        <time>2021-02-21T13:59:35.437Z</time>
      </trkpt>
      <trkpt lat="48.51794" lon="7.17507">
        <ele>919</ele>
        <time>2021-02-21T13:59:36.436Z</time>
      </trkpt>
      <trkpt lat="48.51794" lon="7.17506">
        <ele>918</ele>
        <time>2021-02-21T13:59:37.437Z</time>
      </trkpt>
      <trkpt lat="48.51795" lon="7.17505">
        <ele>918</ele>
        <time>2021-02-21T13:59:38.436Z</time>
      </trkpt>
      <trkpt lat="48.51795" lon="7.17504">
        <ele>918</ele>
        <time>2021-02-21T13:59:39.437Z</time>
      </trkpt>
      <trkpt lat="48.51796" lon="7.17503">
        <ele>918</ele>
        <time>2021-02-21T13:59:40.436Z</time>
      </trkpt>
      <trkpt lat="48.51796" lon="7.17502">
        <ele>917</ele>
        <time>2021-02-21T13:59:41.436Z</time>
      </trkpt>
      <trkpt lat="48.51796" lon="7.17501">
        <ele>917</ele>
        <time>2021-02-21T13:59:42.437Z</time>
      </trkpt>
      <trkpt lat="48.51797" lon="7.175">
        <ele>917</ele>
        <time>2021-02-21T13:59:43.437Z</time>
      </trkpt>
      <trkpt lat="48.51797" lon="7.17498">
        <ele>917</ele>
        <time>2021-02-21T13:59:44.437Z</time>
      </trkpt>
      <trkpt lat="48.51798" lon="7.17497">
        <ele>917</ele>
        <time>2021-02-21T13:59:45.436Z</time>
      </trkpt>
      <trkpt lat="48.51799" lon="7.17495">
        <ele>918</ele>
        <time>2021-02-21T13:59:46.437Z</time>
      </trkpt>
      <trkpt lat="48.51799" lon="7.17494">
        <ele>918</ele>
        <time>2021-02-21T13:59:47.437Z</time>
      </trkpt>
      <trkpt lat="48.518" lon="7.17493">
        <ele>918</ele>
        <time>2021-02-21T13:59:48.437Z</time>
      </trkpt>
      <trkpt lat="48.51801" lon="7.17492">
        <ele>918</ele>
        <time>2021-02-21T13:59:49.437Z</time>
      </trkpt>
      <trkpt lat="48.51803" lon="7.17491">
        <ele>918</ele>
        <time>2021-02-21T13:59:50.436Z</time>
      </trkpt>
      <trkpt lat="48.51804" lon="7.17491">
        <ele>918</ele>
        <time>2021-02-21T13:59:51.437Z</time>
      </trkpt>
      <trkpt lat="48.51805" lon="7.17491">
        <ele>918</ele>
        <time>2021-02-21T13:59:52.437Z</time>
      </trkpt>
      <trkpt lat="48.51806" lon="7.17491">
        <ele>918</ele>
        <time>2021-02-21T13:59:53.437Z</time>
      </trkpt>
      <trkpt lat="48.51807" lon="7.17491">
        <ele>918</ele>
        <time>2021-02-21T13:59:54.436Z</time>
      </trkpt>
      <trkpt lat="48.51808" lon="7.17491">
        <ele>918</ele>
        <time>2021-02-21T13:59:55.437Z</time>
      </trkpt>
      <trkpt lat="48.51809" lon="7.17491">
        <ele>918</ele>
        <time>2021-02-21T13:59:56.436Z</time>
      </trkpt>
      <trkpt lat="48.51809" lon="7.1749">
        <ele>918</ele>
        <time>2021-02-21T13:59:57.437Z</time>
      </trkpt>
      <trkpt lat="48.5181" lon="7.17488">
        <ele>917</ele>
        <time>2021-02-21T13:59:58.437Z</time>
      </trkpt>
      <trkpt lat="48.51812" lon="7.17487">
        <ele>917</ele>
        <time>2021-02-21T13:59:59.437Z</time>
      </trkpt>
      <trkpt lat="48.51813" lon="7.17486">
        <ele>917</ele>
        <time>2021-02-21T14:00:00.437Z</time>
      </trkpt>
      <trkpt lat="48.51815" lon="7.17485">
        <ele>917</ele>
        <time>2021-02-21T14:00:01.437Z</time>
      </trkpt>
      <trkpt lat="48.51817" lon="7.17484">
        <ele>917</ele>
        <time>2021-02-21T14:00:02.437Z</time>
      </trkpt>
      <trkpt lat="48.51818" lon="7.17483">
        <ele>916</ele>
        <time>2021-02-21T14:00:03.437Z</time>
      </trkpt>
      <trkpt lat="48.5182" lon="7.17482">
        <ele>916</ele>
        <time>2021-02-21T14:00:04.437Z</time>
      </trkpt>
      <trkpt lat="48.5182" lon="7.17481">
        <ele>915</ele>
        <time>2021-02-21T14:00:05.437Z</time>
      </trkpt>
      <trkpt lat="48.51821" lon="7.1748">
        <ele>915</ele>
        <time>2021-02-21T14:00:06.437Z</time>
      </trkpt>
      <trkpt lat="48.51821" lon="7.17479">
        <ele>914</ele>
        <time>2021-02-21T14:00:07.436Z</time>
      </trkpt>
      <trkpt lat="48.51822" lon="7.17479">
        <ele>914</ele>
        <time>2021-02-21T14:00:08.437Z</time>
      </trkpt>
      <trkpt lat="48.51822" lon="7.17478">
        <ele>914</ele>
        <time>2021-02-21T14:00:09.437Z</time>
      </trkpt>
      <trkpt lat="48.51823" lon="7.17477">
        <ele>914</ele>
        <time>2021-02-21T14:00:10.437Z</time>
      </trkpt>
      <trkpt lat="48.51823" lon="7.17476">
        <ele>914</ele>
        <time>2021-02-21T14:00:11.437Z</time>
      </trkpt>
      <trkpt lat="48.51823" lon="7.17474">
        <ele>914</ele>
        <time>2021-02-21T14:00:12.437Z</time>
      </trkpt>
      <trkpt lat="48.51823" lon="7.17473">
        <ele>914</ele>
        <time>2021-02-21T14:00:13.437Z</time>
      </trkpt>
      <trkpt lat="48.51823" lon="7.17473">
        <ele>914</ele>
        <time>2021-02-21T14:00:14.437Z</time>
      </trkpt>
      <trkpt lat="48.51823" lon="7.17472">
        <ele>913</ele>
        <time>2021-02-21T14:00:15.437Z</time>
      </trkpt>
      <trkpt lat="48.51824" lon="7.17472">
        <ele>913</ele>
        <time>2021-02-21T14:00:16.437Z</time>
      </trkpt>
      <trkpt lat="48.51825" lon="7.17471">
        <ele>913</ele>
        <time>2021-02-21T14:00:17.436Z</time>
      </trkpt>
      <trkpt lat="48.51825" lon="7.1747">
        <ele>912</ele>
        <time>2021-02-21T14:00:18.437Z</time>
      </trkpt>
      <trkpt lat="48.51825" lon="7.1747">
        <ele>912</ele>
        <time>2021-02-21T14:00:19.436Z</time>
      </trkpt>
      <trkpt lat="48.51825" lon="7.17469">
        <ele>912</ele>
        <time>2021-02-21T14:00:20.437Z</time>
      </trkpt>
      <trkpt lat="48.51825" lon="7.17468">
        <ele>912</ele>
        <time>2021-02-21T14:00:21.436Z</time>
      </trkpt>
      <trkpt lat="48.51826" lon="7.17467">
        <ele>912</ele>
        <time>2021-02-21T14:00:22.437Z</time>
      </trkpt>
      <trkpt lat="48.51826" lon="7.17465">
        <ele>912</ele>
        <time>2021-02-21T14:00:23.437Z</time>
      </trkpt>
      <trkpt lat="48.51827" lon="7.17463">
        <ele>912</ele>
        <time>2021-02-21T14:00:24.437Z</time>
      </trkpt>
      <trkpt lat="48.51827" lon="7.17461">
        <ele>912</ele>
        <time>2021-02-21T14:00:25.437Z</time>
      </trkpt>
      <trkpt lat="48.51827" lon="7.17459">
        <ele>912</ele>
        <time>2021-02-21T14:00:26.436Z</time>
      </trkpt>
      <trkpt lat="48.51827" lon="7.17457">
        <ele>912</ele>
        <time>2021-02-21T14:00:27.437Z</time>
      </trkpt>
      <trkpt lat="48.51829" lon="7.17455">
        <ele>912</ele>
        <time>2021-02-21T14:00:28.436Z</time>
      </trkpt>
      <trkpt lat="48.5183" lon="7.17454">
        <ele>912</ele>
        <time>2021-02-21T14:00:29.437Z</time>
      </trkpt>
      <trkpt lat="48.5183" lon="7.17454">
        <ele>913</ele>
        <time>2021-02-21T14:00:30.437Z</time>
      </trkpt>
      <trkpt lat="48.51831" lon="7.17453">
        <ele>914</ele>
        <time>2021-02-21T14:00:31.436Z</time>
      </trkpt>
      <trkpt lat="48.51831" lon="7.17452">
        <ele>914</ele>
        <time>2021-02-21T14:00:32.437Z</time>
      </trkpt>
      <trkpt lat="48.51832" lon="7.17451">
        <ele>914</ele>
        <time>2021-02-21T14:00:33.437Z</time>
      </trkpt>
      <trkpt lat="48.51832" lon="7.1745">
        <ele>914</ele>
        <time>2021-02-21T14:00:34.437Z</time>
      </trkpt>
      <trkpt lat="48.51833" lon="7.17449">
        <ele>914</ele>
        <time>2021-02-21T14:00:35.437Z</time>
      </trkpt>
      <trkpt lat="48.51833" lon="7.17447">
        <ele>914</ele>
        <time>2021-02-21T14:00:36.436Z</time>
      </trkpt>
      <trkpt lat="48.51834" lon="7.17446">
        <ele>914</ele>
        <time>2021-02-21T14:00:37.436Z</time>
      </trkpt>
      <trkpt lat="48.51834" lon="7.17445">
        <ele>914</ele>
        <time>2021-02-21T14:00:38.436Z</time>
      </trkpt>
      <trkpt lat="48.51835" lon="7.17444">
        <ele>915</ele>
        <time>2021-02-21T14:00:39.437Z</time>
      </trkpt>
      <trkpt lat="48.51835" lon="7.17443">
        <ele>915</ele>
        <time>2021-02-21T14:00:40.437Z</time>
      </trkpt>
      <trkpt lat="48.51836" lon="7.17442">
        <ele>915</ele>
        <time>2021-02-21T14:00:41.436Z</time>
      </trkpt>
      <trkpt lat="48.51837" lon="7.17441">
        <ele>915</ele>
        <time>2021-02-21T14:00:42.437Z</time>
      </trkpt>
      <trkpt lat="48.51838" lon="7.17441">
        <ele>915</ele>
        <time>2021-02-21T14:00:43.437Z</time>
      </trkpt>
      <trkpt lat="48.51838" lon="7.1744">
        <ele>915</ele>
        <time>2021-02-21T14:00:44.437Z</time>
      </trkpt>
      <trkpt lat="48.51839" lon="7.17439">
        <ele>914</ele>
        <time>2021-02-21T14:00:45.437Z</time>
      </trkpt>
      <trkpt lat="48.5184" lon="7.17438">
        <ele>914</ele>
        <time>2021-02-21T14:00:46.437Z</time>
      </trkpt>
      <trkpt lat="48.5184" lon="7.17437">
        <ele>913</ele>
        <time>2021-02-21T14:00:47.437Z</time>
      </trkpt>
      <trkpt lat="48.51841" lon="7.17436">
        <ele>912</ele>
        <time>2021-02-21T14:00:48.437Z</time>
      </trkpt>
      <trkpt lat="48.51841" lon="7.17435">
        <ele>911</ele>
        <time>2021-02-21T14:00:49.437Z</time>
      </trkpt>
      <trkpt lat="48.51841" lon="7.17434">
        <ele>910</ele>
        <time>2021-02-21T14:00:50.437Z</time>
      </trkpt>
      <trkpt lat="48.51842" lon="7.17433">
        <ele>910</ele>
        <time>2021-02-21T14:00:51.437Z</time>
      </trkpt>
      <trkpt lat="48.51843" lon="7.17432">
        <ele>910</ele>
        <time>2021-02-21T14:00:52.437Z</time>
      </trkpt>
      <trkpt lat="48.51844" lon="7.17431">
        <ele>909</ele>
        <time>2021-02-21T14:00:53.437Z</time>
      </trkpt>
      <trkpt lat="48.51844" lon="7.17431">
        <ele>909</ele>
        <time>2021-02-21T14:00:54.437Z</time>
      </trkpt>
      <trkpt lat="48.51844" lon="7.17431">
        <ele>909</ele>
        <time>2021-02-21T14:00:55.437Z</time>
      </trkpt>
      <trkpt lat="48.51845" lon="7.17429">
        <ele>909</ele>
        <time>2021-02-21T14:00:56.437Z</time>
      </trkpt>
      <trkpt lat="48.51845" lon="7.17429">
        <ele>909</ele>
        <time>2021-02-21T14:00:57.437Z</time>
      </trkpt>
      <trkpt lat="48.51846" lon="7.17428">
        <ele>909</ele>
        <time>2021-02-21T14:00:58.436Z</time>
      </trkpt>
      <trkpt lat="48.51846" lon="7.17427">
        <ele>910</ele>
        <time>2021-02-21T14:00:59.437Z</time>
      </trkpt>
      <trkpt lat="48.51846" lon="7.17426">
        <ele>910</ele>
        <time>2021-02-21T14:01:00.437Z</time>
      </trkpt>
      <trkpt lat="48.51846" lon="7.17425">
        <ele>910</ele>
        <time>2021-02-21T14:01:01.436Z</time>
      </trkpt>
      <trkpt lat="48.51847" lon="7.17424">
        <ele>911</ele>
        <time>2021-02-21T14:01:02.437Z</time>
      </trkpt>
      <trkpt lat="48.51847" lon="7.17423">
        <ele>910</ele>
        <time>2021-02-21T14:01:03.437Z</time>
      </trkpt>
      <trkpt lat="48.51847" lon="7.17422">
        <ele>910</ele>
        <time>2021-02-21T14:01:04.436Z</time>
      </trkpt>
      <trkpt lat="48.51848" lon="7.17421">
        <ele>910</ele>
        <time>2021-02-21T14:01:05.436Z</time>
      </trkpt>
      <trkpt lat="48.51848" lon="7.1742">
        <ele>911</ele>
        <time>2021-02-21T14:01:06.437Z</time>
      </trkpt>
      <trkpt lat="48.51849" lon="7.17419">
        <ele>911</ele>
        <time>2021-02-21T14:01:07.437Z</time>
      </trkpt>
      <trkpt lat="48.51849" lon="7.17417">
        <ele>911</ele>
        <time>2021-02-21T14:01:08.436Z</time>
      </trkpt>
      <trkpt lat="48.5185" lon="7.17416">
        <ele>910</ele>
        <time>2021-02-21T14:01:09.437Z</time>
      </trkpt>
      <trkpt lat="48.51851" lon="7.17416">
        <ele>910</ele>
        <time>2021-02-21T14:01:10.436Z</time>
      </trkpt>
      <trkpt lat="48.51851" lon="7.17415">
        <ele>909</ele>
        <time>2021-02-21T14:01:11.436Z</time>
      </trkpt>
      <trkpt lat="48.51851" lon="7.17415">
        <ele>909</ele>
        <time>2021-02-21T14:01:12.437Z</time>
      </trkpt>
      <trkpt lat="48.51852" lon="7.17414">
        <ele>908</ele>
        <time>2021-02-21T14:01:13.436Z</time>
      </trkpt>
      <trkpt lat="48.51853" lon="7.17414">
        <ele>908</ele>
        <time>2021-02-21T14:01:14.436Z</time>
      </trkpt>
      <trkpt lat="48.51853" lon="7.17413">
        <ele>908</ele>
        <time>2021-02-21T14:01:15.436Z</time>
      </trkpt>
      <trkpt lat="48.51854" lon="7.17413">
        <ele>908</ele>
        <time>2021-02-21T14:01:16.436Z</time>
      </trkpt>
      <trkpt lat="48.51855" lon="7.17412">
        <ele>907</ele>
        <time>2021-02-21T14:01:17.436Z</time>
      </trkpt>
      <trkpt lat="48.51855" lon="7.17412">
        <ele>907</ele>
        <time>2021-02-21T14:01:18.436Z</time>
      </trkpt>
      <trkpt lat="48.51855" lon="7.17411">
        <ele>907</ele>
        <time>2021-02-21T14:01:19.436Z</time>
      </trkpt>
      <trkpt lat="48.51855" lon="7.17411">
        <ele>907</ele>
        <time>2021-02-21T14:01:20.436Z</time>
      </trkpt>
      <trkpt lat="48.51854" lon="7.1741">
        <ele>906</ele>
        <time>2021-02-21T14:01:21.436Z</time>
      </trkpt>
      <trkpt lat="48.51853" lon="7.1741">
        <ele>906</ele>
        <time>2021-02-21T14:01:22.436Z</time>
      </trkpt>
      <trkpt lat="48.51852" lon="7.1741">
        <ele>907</ele>
        <time>2021-02-21T14:01:23.436Z</time>
      </trkpt>
      <trkpt lat="48.51852" lon="7.1741">
        <ele>907</ele>
        <time>2021-02-21T14:01:24.436Z</time>
      </trkpt>
      <trkpt lat="48.51852" lon="7.1741">
        <ele>907</ele>
        <time>2021-02-21T14:01:25.436Z</time>
      </trkpt>
      <trkpt lat="48.51851" lon="7.17411">
        <ele>907</ele>
        <time>2021-02-21T14:01:26.436Z</time>
      </trkpt>
      <trkpt lat="48.51849" lon="7.17412">
        <ele>907</ele>
        <time>2021-02-21T14:01:27.436Z</time>
      </trkpt>
      <trkpt lat="48.51849" lon="7.1741">
        <ele>906</ele>
        <time>2021-02-21T14:01:28.436Z</time>
      </trkpt>
      <trkpt lat="48.51848" lon="7.17409">
        <ele>906</ele>
        <time>2021-02-21T14:01:29.436Z</time>
      </trkpt>
      <trkpt lat="48.51848" lon="7.17408">
        <ele>906</ele>
        <time>2021-02-21T14:01:30.436Z</time>
      </trkpt>
      <trkpt lat="48.51847" lon="7.17406">
        <ele>905</ele>
        <time>2021-02-21T14:01:31.436Z</time>
      </trkpt>
      <trkpt lat="48.51846" lon="7.17406">
        <ele>904</ele>
        <time>2021-02-21T14:01:32.436Z</time>
      </trkpt>
      <trkpt lat="48.51846" lon="7.17405">
        <ele>903</ele>
        <time>2021-02-21T14:01:33.436Z</time>
      </trkpt>
      <trkpt lat="48.51846" lon="7.17405">
        <ele>903</ele>
        <time>2021-02-21T14:01:34.436Z</time>
      </trkpt>
      <trkpt lat="48.51845" lon="7.17405">
        <ele>902</ele>
        <time>2021-02-21T14:01:35.436Z</time>
      </trkpt>
      <trkpt lat="48.51844" lon="7.17404">
        <ele>902</ele>
        <time>2021-02-21T14:01:36.436Z</time>
      </trkpt>
      <trkpt lat="48.51844" lon="7.17403">
        <ele>902</ele>
        <time>2021-02-21T14:01:37.436Z</time>
      </trkpt>
      <trkpt lat="48.51843" lon="7.17402">
        <ele>902</ele>
        <time>2021-02-21T14:01:38.436Z</time>
      </trkpt>
      <trkpt lat="48.51841" lon="7.17402">
        <ele>901</ele>
        <time>2021-02-21T14:01:39.436Z</time>
      </trkpt>
      <trkpt lat="48.5184" lon="7.17403">
        <ele>901</ele>
        <time>2021-02-21T14:01:40.436Z</time>
      </trkpt>
      <trkpt lat="48.51839" lon="7.17402">
        <ele>901</ele>
        <time>2021-02-21T14:01:41.436Z</time>
      </trkpt>
      <trkpt lat="48.51838" lon="7.17402">
        <ele>901</ele>
        <time>2021-02-21T14:01:42.436Z</time>
      </trkpt>
      <trkpt lat="48.51837" lon="7.17402">
        <ele>901</ele>
        <time>2021-02-21T14:01:43.436Z</time>
      </trkpt>
      <trkpt lat="48.51837" lon="7.17402">
        <ele>901</ele>
        <time>2021-02-21T14:01:44.436Z</time>
      </trkpt>
      <trkpt lat="48.51837" lon="7.17401">
        <ele>901</ele>
        <time>2021-02-21T14:01:45.436Z</time>
      </trkpt>
      <trkpt lat="48.51836" lon="7.17401">
        <ele>901</ele>
        <time>2021-02-21T14:01:46.436Z</time>
      </trkpt>
      <trkpt lat="48.51835" lon="7.174">
        <ele>901</ele>
        <time>2021-02-21T14:01:47.436Z</time>
      </trkpt>
      <trkpt lat="48.51835" lon="7.174">
        <ele>900</ele>
        <time>2021-02-21T14:01:48.436Z</time>
      </trkpt>
      <trkpt lat="48.51834" lon="7.17399">
        <ele>900</ele>
        <time>2021-02-21T14:01:49.436Z</time>
      </trkpt>
      <trkpt lat="48.51834" lon="7.17398">
        <ele>899</ele>
        <time>2021-02-21T14:01:50.436Z</time>
      </trkpt>
      <trkpt lat="48.51833" lon="7.17397">
        <ele>899</ele>
        <time>2021-02-21T14:01:51.436Z</time>
      </trkpt>
      <trkpt lat="48.51832" lon="7.17397">
        <ele>899</ele>
        <time>2021-02-21T14:01:52.436Z</time>
      </trkpt>
      <trkpt lat="48.51832" lon="7.17397">
        <ele>899</ele>
        <time>2021-02-21T14:01:53.436Z</time>
      </trkpt>
      <trkpt lat="48.51831" lon="7.17396">
        <ele>899</ele>
        <time>2021-02-21T14:01:54.436Z</time>
      </trkpt>
      <trkpt lat="48.5183" lon="7.17396">
        <ele>899</ele>
        <time>2021-02-21T14:01:55.436Z</time>
      </trkpt>
      <trkpt lat="48.51829" lon="7.17395">
        <ele>899</ele>
        <time>2021-02-21T14:01:56.436Z</time>
      </trkpt>
      <trkpt lat="48.51828" lon="7.17395">
        <ele>899</ele>
        <time>2021-02-21T14:01:57.436Z</time>
      </trkpt>
      <trkpt lat="48.51827" lon="7.17394">
        <ele>899</ele>
        <time>2021-02-21T14:01:58.436Z</time>
      </trkpt>
      <trkpt lat="48.51826" lon="7.17394">
        <ele>899</ele>
        <time>2021-02-21T14:01:59.436Z</time>
      </trkpt>
      <trkpt lat="48.51824" lon="7.17393">
        <ele>899</ele>
        <time>2021-02-21T14:02:00.436Z</time>
      </trkpt>
      <trkpt lat="48.51822" lon="7.17392">
        <ele>900</ele>
        <time>2021-02-21T14:02:01.436Z</time>
      </trkpt>
      <trkpt lat="48.51821" lon="7.17392">
        <ele>900</ele>
        <time>2021-02-21T14:02:02.436Z</time>
      </trkpt>
      <trkpt lat="48.5182" lon="7.17391">
        <ele>900</ele>
        <time>2021-02-21T14:02:03.436Z</time>
      </trkpt>
      <trkpt lat="48.5182" lon="7.1739">
        <ele>900</ele>
        <time>2021-02-21T14:02:04.436Z</time>
      </trkpt>
      <trkpt lat="48.51819" lon="7.1739">
        <ele>901</ele>
        <time>2021-02-21T14:02:05.436Z</time>
      </trkpt>
      <trkpt lat="48.51817" lon="7.1739">
        <ele>901</ele>
        <time>2021-02-21T14:02:06.436Z</time>
      </trkpt>
      <trkpt lat="48.51816" lon="7.17388">
        <ele>901</ele>
        <time>2021-02-21T14:02:07.436Z</time>
      </trkpt>
      <trkpt lat="48.51815" lon="7.17388">
        <ele>902</ele>
        <time>2021-02-21T14:02:08.436Z</time>
      </trkpt>
      <trkpt lat="48.51815" lon="7.17388">
        <ele>902</ele>
        <time>2021-02-21T14:02:09.436Z</time>
      </trkpt>
      <trkpt lat="48.51814" lon="7.17388">
        <ele>902</ele>
        <time>2021-02-21T14:02:10.436Z</time>
      </trkpt>
      <trkpt lat="48.51813" lon="7.17388">
        <ele>902</ele>
        <time>2021-02-21T14:02:11.436Z</time>
      </trkpt>
      <trkpt lat="48.51812" lon="7.17388">
        <ele>902</ele>
        <time>2021-02-21T14:02:12.436Z</time>
      </trkpt>
      <trkpt lat="48.51811" lon="7.17388">
        <ele>902</ele>
        <time>2021-02-21T14:02:13.436Z</time>
      </trkpt>
      <trkpt lat="48.5181" lon="7.17388">
        <ele>902</ele>
        <time>2021-02-21T14:02:14.436Z</time>
      </trkpt>
      <trkpt lat="48.51809" lon="7.17388">
        <ele>902</ele>
        <time>2021-02-21T14:02:15.436Z</time>
      </trkpt>
      <trkpt lat="48.51808" lon="7.17388">
        <ele>901</ele>
        <time>2021-02-21T14:02:16.436Z</time>
      </trkpt>
      <trkpt lat="48.51807" lon="7.17389">
        <ele>901</ele>
        <time>2021-02-21T14:02:17.436Z</time>
      </trkpt>
      <trkpt lat="48.51806" lon="7.17389">
        <ele>901</ele>
        <time>2021-02-21T14:02:18.436Z</time>
      </trkpt>
      <trkpt lat="48.51805" lon="7.17389">
        <ele>901</ele>
        <time>2021-02-21T14:02:19.436Z</time>
      </trkpt>
      <trkpt lat="48.51804" lon="7.17388">
        <ele>900</ele>
        <time>2021-02-21T14:02:20.436Z</time>
      </trkpt>
      <trkpt lat="48.51803" lon="7.17386">
        <ele>901</ele>
        <time>2021-02-21T14:02:21.436Z</time>
      </trkpt>
      <trkpt lat="48.51802" lon="7.17385">
        <ele>901</ele>
        <time>2021-02-21T14:02:22.436Z</time>
      </trkpt>
      <trkpt lat="48.51801" lon="7.17384">
        <ele>901</ele>
        <time>2021-02-21T14:02:23.436Z</time>
      </trkpt>
      <trkpt lat="48.518" lon="7.17384">
        <ele>902</ele>
        <time>2021-02-21T14:02:24.436Z</time>
      </trkpt>
      <trkpt lat="48.51798" lon="7.17384">
        <ele>902</ele>
        <time>2021-02-21T14:02:25.436Z</time>
      </trkpt>
      <trkpt lat="48.51798" lon="7.17384">
        <ele>902</ele>
        <time>2021-02-21T14:02:26.436Z</time>
      </trkpt>
      <trkpt lat="48.51797" lon="7.17384">
        <ele>903</ele>
        <time>2021-02-21T14:02:27.436Z</time>
      </trkpt>
      <trkpt lat="48.51796" lon="7.17384">
        <ele>903</ele>
        <time>2021-02-21T14:02:28.436Z</time>
      </trkpt>
      <trkpt lat="48.51795" lon="7.17384">
        <ele>903</ele>
        <time>2021-02-21T14:02:29.436Z</time>
      </trkpt>
      <trkpt lat="48.51794" lon="7.17383">
        <ele>904</ele>
        <time>2021-02-21T14:02:30.436Z</time>
      </trkpt>
      <trkpt lat="48.51793" lon="7.17383">
        <ele>904</ele>
        <time>2021-02-21T14:02:31.436Z</time>
      </trkpt>
      <trkpt lat="48.51792" lon="7.17383">
        <ele>904</ele>
        <time>2021-02-21T14:02:32.436Z</time>
      </trkpt>
      <trkpt lat="48.51791" lon="7.17383">
        <ele>904</ele>
        <time>2021-02-21T14:02:33.436Z</time>
      </trkpt>
      <trkpt lat="48.51789" lon="7.17383">
        <ele>904</ele>
        <time>2021-02-21T14:02:34.436Z</time>
      </trkpt>
      <trkpt lat="48.51788" lon="7.17382">
        <ele>903</ele>
        <time>2021-02-21T14:02:35.436Z</time>
      </trkpt>
      <trkpt lat="48.51787" lon="7.17382">
        <ele>903</ele>
        <time>2021-02-21T14:02:36.436Z</time>
      </trkpt>
      <trkpt lat="48.51786" lon="7.17382">
        <ele>903</ele>
        <time>2021-02-21T14:02:37.436Z</time>
      </trkpt>
      <trkpt lat="48.51785" lon="7.17381">
        <ele>902</ele>
        <time>2021-02-21T14:02:38.436Z</time>
      </trkpt>
      <trkpt lat="48.51784" lon="7.1738">
        <ele>902</ele>
        <time>2021-02-21T14:02:39.436Z</time>
      </trkpt>
      <trkpt lat="48.51784" lon="7.17378">
        <ele>902</ele>
        <time>2021-02-21T14:02:40.436Z</time>
      </trkpt>
      <trkpt lat="48.51783" lon="7.17377">
        <ele>902</ele>
        <time>2021-02-21T14:02:41.436Z</time>
      </trkpt>
      <trkpt lat="48.51782" lon="7.17376">
        <ele>901</ele>
        <time>2021-02-21T14:02:42.436Z</time>
      </trkpt>
      <trkpt lat="48.51782" lon="7.17375">
        <ele>901</ele>
        <time>2021-02-21T14:02:43.436Z</time>
      </trkpt>
      <trkpt lat="48.51781" lon="7.17374">
        <ele>900</ele>
        <time>2021-02-21T14:02:44.436Z</time>
      </trkpt>
      <trkpt lat="48.51781" lon="7.17373">
        <ele>899</ele>
        <time>2021-02-21T14:02:45.436Z</time>
      </trkpt>
      <trkpt lat="48.5178" lon="7.17372">
        <ele>899</ele>
        <time>2021-02-21T14:02:46.436Z</time>
      </trkpt>
      <trkpt lat="48.51778" lon="7.17372">
        <ele>898</ele>
        <time>2021-02-21T14:02:47.436Z</time>
      </trkpt>
      <trkpt lat="48.51777" lon="7.17373">
        <ele>898</ele>
        <time>2021-02-21T14:02:48.436Z</time>
      </trkpt>
      <trkpt lat="48.51776" lon="7.17373">
        <ele>897</ele>
        <time>2021-02-21T14:02:49.436Z</time>
      </trkpt>
      <trkpt lat="48.51775" lon="7.17373">
        <ele>897</ele>
        <time>2021-02-21T14:02:50.436Z</time>
      </trkpt>
      <trkpt lat="48.51774" lon="7.17373">
        <ele>897</ele>
        <time>2021-02-21T14:02:51.436Z</time>
      </trkpt>
      <trkpt lat="48.51773" lon="7.17372">
        <ele>897</ele>
        <time>2021-02-21T14:02:52.436Z</time>
      </trkpt>
      <trkpt lat="48.51772" lon="7.17371">
        <ele>897</ele>
        <time>2021-02-21T14:02:53.436Z</time>
      </trkpt>
      <trkpt lat="48.51771" lon="7.17371">
        <ele>897</ele>
        <time>2021-02-21T14:02:54.436Z</time>
      </trkpt>
      <trkpt lat="48.51769" lon="7.1737">
        <ele>897</ele>
        <time>2021-02-21T14:02:55.436Z</time>
      </trkpt>
      <trkpt lat="48.51768" lon="7.17369">
        <ele>897</ele>
        <time>2021-02-21T14:02:56.436Z</time>
      </trkpt>
      <trkpt lat="48.51767" lon="7.17368">
        <ele>897</ele>
        <time>2021-02-21T14:02:57.436Z</time>
      </trkpt>
      <trkpt lat="48.51767" lon="7.17366">
        <ele>897</ele>
        <time>2021-02-21T14:02:58.436Z</time>
      </trkpt>
      <trkpt lat="48.51766" lon="7.17365">
        <ele>897</ele>
        <time>2021-02-21T14:02:59.436Z</time>
      </trkpt>
      <trkpt lat="48.51766" lon="7.17364">
        <ele>898</ele>
        <time>2021-02-21T14:03:00.436Z</time>
      </trkpt>
      <trkpt lat="48.51765" lon="7.17363">
        <ele>897</ele>
        <time>2021-02-21T14:03:01.436Z</time>
      </trkpt>
      <trkpt lat="48.51765" lon="7.17361">
        <ele>897</ele>
        <time>2021-02-21T14:03:02.436Z</time>
      </trkpt>
      <trkpt lat="48.51764" lon="7.17361">
        <ele>897</ele>
        <time>2021-02-21T14:03:03.436Z</time>
      </trkpt>
      <trkpt lat="48.51763" lon="7.17361">
        <ele>897</ele>
        <time>2021-02-21T14:03:04.436Z</time>
      </trkpt>
      <trkpt lat="48.51763" lon="7.1736">
        <ele>897</ele>
        <time>2021-02-21T14:03:05.436Z</time>
      </trkpt>
      <trkpt lat="48.51762" lon="7.17358">
        <ele>896</ele>
        <time>2021-02-21T14:03:06.436Z</time>
      </trkpt>
      <trkpt lat="48.51762" lon="7.17356">
        <ele>895</ele>
        <time>2021-02-21T14:03:07.436Z</time>
      </trkpt>
      <trkpt lat="48.51761" lon="7.17355">
        <ele>894</ele>
        <time>2021-02-21T14:03:08.436Z</time>
      </trkpt>
      <trkpt lat="48.5176" lon="7.17353">
        <ele>893</ele>
        <time>2021-02-21T14:03:09.436Z</time>
      </trkpt>
      <trkpt lat="48.51759" lon="7.17352">
        <ele>892</ele>
        <time>2021-02-21T14:03:10.436Z</time>
      </trkpt>
      <trkpt lat="48.51758" lon="7.17352">
        <ele>892</ele>
        <time>2021-02-21T14:03:11.436Z</time>
      </trkpt>
      <trkpt lat="48.51757" lon="7.17351">
        <ele>892</ele>
        <time>2021-02-21T14:03:12.436Z</time>
      </trkpt>
      <trkpt lat="48.51756" lon="7.1735">
        <ele>891</ele>
        <time>2021-02-21T14:03:13.436Z</time>
      </trkpt>
      <trkpt lat="48.51756" lon="7.17349">
        <ele>891</ele>
        <time>2021-02-21T14:03:14.436Z</time>
      </trkpt>
      <trkpt lat="48.51755" lon="7.17348">
        <ele>892</ele>
        <time>2021-02-21T14:03:15.436Z</time>
      </trkpt>
      <trkpt lat="48.51754" lon="7.17347">
        <ele>892</ele>
        <time>2021-02-21T14:03:16.436Z</time>
      </trkpt>
      <trkpt lat="48.51753" lon="7.17346">
        <ele>892</ele>
        <time>2021-02-21T14:03:17.436Z</time>
      </trkpt>
      <trkpt lat="48.51752" lon="7.17345">
        <ele>891</ele>
        <time>2021-02-21T14:03:18.436Z</time>
      </trkpt>
      <trkpt lat="48.51751" lon="7.17343">
        <ele>891</ele>
        <time>2021-02-21T14:03:19.436Z</time>
      </trkpt>
      <trkpt lat="48.51751" lon="7.17342">
        <ele>891</ele>
        <time>2021-02-21T14:03:20.436Z</time>
      </trkpt>
      <trkpt lat="48.51751" lon="7.1734">
        <ele>890</ele>
        <time>2021-02-21T14:03:21.436Z</time>
      </trkpt>
      <trkpt lat="48.5175" lon="7.17338">
        <ele>889</ele>
        <time>2021-02-21T14:03:22.436Z</time>
      </trkpt>
      <trkpt lat="48.5175" lon="7.17337">
        <ele>889</ele>
        <time>2021-02-21T14:03:23.436Z</time>
      </trkpt>
      <trkpt lat="48.51749" lon="7.17336">
        <ele>889</ele>
        <time>2021-02-21T14:03:24.436Z</time>
      </trkpt>
      <trkpt lat="48.51748" lon="7.17336">
        <ele>888</ele>
        <time>2021-02-21T14:03:25.436Z</time>
      </trkpt>
      <trkpt lat="48.51746" lon="7.17336">
        <ele>888</ele>
        <time>2021-02-21T14:03:26.436Z</time>
      </trkpt>
      <trkpt lat="48.51746" lon="7.17335">
        <ele>888</ele>
        <time>2021-02-21T14:03:27.436Z</time>
      </trkpt>
      <trkpt lat="48.51745" lon="7.17334">
        <ele>888</ele>
        <time>2021-02-21T14:03:28.436Z</time>
      </trkpt>
      <trkpt lat="48.51744" lon="7.17333">
        <ele>888</ele>
        <time>2021-02-21T14:03:29.436Z</time>
      </trkpt>
      <trkpt lat="48.51744" lon="7.17332">
        <ele>888</ele>
        <time>2021-02-21T14:03:30.436Z</time>
      </trkpt>
      <trkpt lat="48.51743" lon="7.17331">
        <ele>888</ele>
        <time>2021-02-21T14:03:31.436Z</time>
      </trkpt>
      <trkpt lat="48.51742" lon="7.1733">
        <ele>888</ele>
        <time>2021-02-21T14:03:32.436Z</time>
      </trkpt>
      <trkpt lat="48.51741" lon="7.17329">
        <ele>888</ele>
        <time>2021-02-21T14:03:33.436Z</time>
      </trkpt>
      <trkpt lat="48.5174" lon="7.17328">
        <ele>888</ele>
        <time>2021-02-21T14:03:34.436Z</time>
      </trkpt>
      <trkpt lat="48.5174" lon="7.17327">
        <ele>888</ele>
        <time>2021-02-21T14:03:35.436Z</time>
      </trkpt>
      <trkpt lat="48.51739" lon="7.17327">
        <ele>888</ele>
        <time>2021-02-21T14:03:36.436Z</time>
      </trkpt>
      <trkpt lat="48.51737" lon="7.17327">
        <ele>888</ele>
        <time>2021-02-21T14:03:37.436Z</time>
      </trkpt>
      <trkpt lat="48.51736" lon="7.17326">
        <ele>888</ele>
        <time>2021-02-21T14:03:38.436Z</time>
      </trkpt>
      <trkpt lat="48.51735" lon="7.17324">
        <ele>887</ele>
        <time>2021-02-21T14:03:39.436Z</time>
      </trkpt>
      <trkpt lat="48.51735" lon="7.17323">
        <ele>887</ele>
        <time>2021-02-21T14:03:40.436Z</time>
      </trkpt>
      <trkpt lat="48.51734" lon="7.17322">
        <ele>887</ele>
        <time>2021-02-21T14:03:41.436Z</time>
      </trkpt>
      <trkpt lat="48.51733" lon="7.17322">
        <ele>887</ele>
        <time>2021-02-21T14:03:42.436Z</time>
      </trkpt>
      <trkpt lat="48.51733" lon="7.17322">
        <ele>887</ele>
        <time>2021-02-21T14:03:43.436Z</time>
      </trkpt>
      <trkpt lat="48.51732" lon="7.17321">
        <ele>887</ele>
        <time>2021-02-21T14:03:44.436Z</time>
      </trkpt>
      <trkpt lat="48.51731" lon="7.17321">
        <ele>887</ele>
        <time>2021-02-21T14:03:45.436Z</time>
      </trkpt>
      <trkpt lat="48.5173" lon="7.1732">
        <ele>887</ele>
        <time>2021-02-21T14:03:46.436Z</time>
      </trkpt>
      <trkpt lat="48.5173" lon="7.1732">
        <ele>886</ele>
        <time>2021-02-21T14:03:47.436Z</time>
      </trkpt>
      <trkpt lat="48.51729" lon="7.17319">
        <ele>886</ele>
        <time>2021-02-21T14:03:48.436Z</time>
      </trkpt>
      <trkpt lat="48.51728" lon="7.17319">
        <ele>886</ele>
        <time>2021-02-21T14:03:49.436Z</time>
      </trkpt>
      <trkpt lat="48.51727" lon="7.17318">
        <ele>886</ele>
        <time>2021-02-21T14:03:50.436Z</time>
      </trkpt>
      <trkpt lat="48.51727" lon="7.17318">
        <ele>886</ele>
        <time>2021-02-21T14:03:51.436Z</time>
      </trkpt>
      <trkpt lat="48.51726" lon="7.17317">
        <ele>885</ele>
        <time>2021-02-21T14:03:52.436Z</time>
      </trkpt>
      <trkpt lat="48.51725" lon="7.17317">
        <ele>885</ele>
        <time>2021-02-21T14:03:53.436Z</time>
      </trkpt>
      <trkpt lat="48.51725" lon="7.17316">
        <ele>884</ele>
        <time>2021-02-21T14:03:54.436Z</time>
      </trkpt>
      <trkpt lat="48.51724" lon="7.17316">
        <ele>884</ele>
        <time>2021-02-21T14:03:55.436Z</time>
      </trkpt>
      <trkpt lat="48.51724" lon="7.17316">
        <ele>883</ele>
        <time>2021-02-21T14:03:56.436Z</time>
      </trkpt>
      <trkpt lat="48.51723" lon="7.17316">
        <ele>882</ele>
        <time>2021-02-21T14:03:57.436Z</time>
      </trkpt>
      <trkpt lat="48.51723" lon="7.17315">
        <ele>882</ele>
        <time>2021-02-21T14:03:58.436Z</time>
      </trkpt>
      <trkpt lat="48.51721" lon="7.17314">
        <ele>881</ele>
        <time>2021-02-21T14:03:59.436Z</time>
      </trkpt>
      <trkpt lat="48.5172" lon="7.17312">
        <ele>881</ele>
        <time>2021-02-21T14:04:00.436Z</time>
      </trkpt>
      <trkpt lat="48.5172" lon="7.1731">
        <ele>881</ele>
        <time>2021-02-21T14:04:01.436Z</time>
      </trkpt>
      <trkpt lat="48.51719" lon="7.17308">
        <ele>881</ele>
        <time>2021-02-21T14:04:02.436Z</time>
      </trkpt>
      <trkpt lat="48.51718" lon="7.17307">
        <ele>882</ele>
        <time>2021-02-21T14:04:03.436Z</time>
      </trkpt>
      <trkpt lat="48.51716" lon="7.17307">
        <ele>882</ele>
        <time>2021-02-21T14:04:04.436Z</time>
      </trkpt>
      <trkpt lat="48.51715" lon="7.17306">
        <ele>882</ele>
        <time>2021-02-21T14:04:05.436Z</time>
      </trkpt>
      <trkpt lat="48.51714" lon="7.17306">
        <ele>882</ele>
        <time>2021-02-21T14:04:06.436Z</time>
      </trkpt>
      <trkpt lat="48.51713" lon="7.17306">
        <ele>883</ele>
        <time>2021-02-21T14:04:07.436Z</time>
      </trkpt>
      <trkpt lat="48.51713" lon="7.17305">
        <ele>883</ele>
        <time>2021-02-21T14:04:08.436Z</time>
      </trkpt>
      <trkpt lat="48.51712" lon="7.17304">
        <ele>883</ele>
        <time>2021-02-21T14:04:09.436Z</time>
      </trkpt>
      <trkpt lat="48.51712" lon="7.17304">
        <ele>883</ele>
        <time>2021-02-21T14:04:10.436Z</time>
      </trkpt>
      <trkpt lat="48.51711" lon="7.17303">
        <ele>883</ele>
        <time>2021-02-21T14:04:11.436Z</time>
      </trkpt>
      <trkpt lat="48.5171" lon="7.17303">
        <ele>883</ele>
        <time>2021-02-21T14:04:12.436Z</time>
      </trkpt>
      <trkpt lat="48.5171" lon="7.17303">
        <ele>883</ele>
        <time>2021-02-21T14:04:13.436Z</time>
      </trkpt>
      <trkpt lat="48.51709" lon="7.17302">
        <ele>883</ele>
        <time>2021-02-21T14:04:14.436Z</time>
      </trkpt>
      <trkpt lat="48.51708" lon="7.17302">
        <ele>884</ele>
        <time>2021-02-21T14:04:15.436Z</time>
      </trkpt>
      <trkpt lat="48.51706" lon="7.17301">
        <ele>884</ele>
        <time>2021-02-21T14:04:16.436Z</time>
      </trkpt>
      <trkpt lat="48.51705" lon="7.173">
        <ele>884</ele>
        <time>2021-02-21T14:04:17.436Z</time>
      </trkpt>
      <trkpt lat="48.51704" lon="7.173">
        <ele>884</ele>
        <time>2021-02-21T14:04:18.436Z</time>
      </trkpt>
      <trkpt lat="48.51703" lon="7.17298">
        <ele>884</ele>
        <time>2021-02-21T14:04:19.436Z</time>
      </trkpt>
      <trkpt lat="48.51702" lon="7.17298">
        <ele>884</ele>
        <time>2021-02-21T14:04:20.436Z</time>
      </trkpt>
      <trkpt lat="48.51701" lon="7.17298">
        <ele>884</ele>
        <time>2021-02-21T14:04:21.436Z</time>
      </trkpt>
      <trkpt lat="48.517" lon="7.17298">
        <ele>884</ele>
        <time>2021-02-21T14:04:22.436Z</time>
      </trkpt>
      <trkpt lat="48.517" lon="7.17298">
        <ele>884</ele>
        <time>2021-02-21T14:04:23.436Z</time>
      </trkpt>
      <trkpt lat="48.51699" lon="7.17298">
        <ele>884</ele>
        <time>2021-02-21T14:04:24.436Z</time>
      </trkpt>
      <trkpt lat="48.51698" lon="7.17298">
        <ele>884</ele>
        <time>2021-02-21T14:04:25.436Z</time>
      </trkpt>
      <trkpt lat="48.51697" lon="7.17298">
        <ele>884</ele>
        <time>2021-02-21T14:04:26.436Z</time>
      </trkpt>
      <trkpt lat="48.51696" lon="7.17298">
        <ele>884</ele>
        <time>2021-02-21T14:04:27.436Z</time>
      </trkpt>
      <trkpt lat="48.51695" lon="7.17297">
        <ele>884</ele>
        <time>2021-02-21T14:04:28.436Z</time>
      </trkpt>
      <trkpt lat="48.51694" lon="7.17297">
        <ele>883</ele>
        <time>2021-02-21T14:04:29.436Z</time>
      </trkpt>
      <trkpt lat="48.51693" lon="7.17297">
        <ele>883</ele>
        <time>2021-02-21T14:04:30.436Z</time>
      </trkpt>
      <trkpt lat="48.51693" lon="7.17297">
        <ele>883</ele>
        <time>2021-02-21T14:04:31.436Z</time>
      </trkpt>
      <trkpt lat="48.51692" lon="7.17297">
        <ele>883</ele>
        <time>2021-02-21T14:04:32.436Z</time>
      </trkpt>
      <trkpt lat="48.51691" lon="7.17296">
        <ele>883</ele>
        <time>2021-02-21T14:04:33.436Z</time>
      </trkpt>
      <trkpt lat="48.51691" lon="7.17296">
        <ele>883</ele>
        <time>2021-02-21T14:04:34.436Z</time>
      </trkpt>
      <trkpt lat="48.5169" lon="7.17296">
        <ele>883</ele>
        <time>2021-02-21T14:04:35.436Z</time>
      </trkpt>
      <trkpt lat="48.51689" lon="7.17295">
        <ele>883</ele>
        <time>2021-02-21T14:04:36.436Z</time>
      </trkpt>
      <trkpt lat="48.51689" lon="7.17294">
        <ele>883</ele>
        <time>2021-02-21T14:04:37.436Z</time>
      </trkpt>
      <trkpt lat="48.51688" lon="7.17294">
        <ele>883</ele>
        <time>2021-02-21T14:04:38.436Z</time>
      </trkpt>
      <trkpt lat="48.51687" lon="7.17293">
        <ele>882</ele>
        <time>2021-02-21T14:04:39.436Z</time>
      </trkpt>
      <trkpt lat="48.51687" lon="7.17293">
        <ele>882</ele>
        <time>2021-02-21T14:04:40.436Z</time>
      </trkpt>
      <trkpt lat="48.51685" lon="7.17291">
        <ele>883</ele>
        <time>2021-02-21T14:04:41.436Z</time>
      </trkpt>
      <trkpt lat="48.51684" lon="7.17287">
        <ele>882</ele>
        <time>2021-02-21T14:04:42.436Z</time>
      </trkpt>
      <trkpt lat="48.51684" lon="7.17285">
        <ele>882</ele>
        <time>2021-02-21T14:04:43.436Z</time>
      </trkpt>
      <trkpt lat="48.51683" lon="7.17285">
        <ele>882</ele>
        <time>2021-02-21T14:04:44.436Z</time>
      </trkpt>
      <trkpt lat="48.51681" lon="7.17284">
        <ele>882</ele>
        <time>2021-02-21T14:04:45.436Z</time>
      </trkpt>
      <trkpt lat="48.51679" lon="7.17285">
        <ele>882</ele>
        <time>2021-02-21T14:04:46.436Z</time>
      </trkpt>
      <trkpt lat="48.51678" lon="7.17285">
        <ele>882</ele>
        <time>2021-02-21T14:04:47.436Z</time>
      </trkpt>
      <trkpt lat="48.51676" lon="7.17285">
        <ele>882</ele>
        <time>2021-02-21T14:04:48.436Z</time>
      </trkpt>
      <trkpt lat="48.51675" lon="7.17285">
        <ele>882</ele>
        <time>2021-02-21T14:04:49.436Z</time>
      </trkpt>
      <trkpt lat="48.51674" lon="7.17285">
        <ele>882</ele>
        <time>2021-02-21T14:04:50.436Z</time>
      </trkpt>
      <trkpt lat="48.51674" lon="7.17284">
        <ele>882</ele>
        <time>2021-02-21T14:04:51.436Z</time>
      </trkpt>
      <trkpt lat="48.51673" lon="7.17284">
        <ele>882</ele>
        <time>2021-02-21T14:04:52.436Z</time>
      </trkpt>
      <trkpt lat="48.51672" lon="7.17283">
        <ele>882</ele>
        <time>2021-02-21T14:04:53.436Z</time>
      </trkpt>
      <trkpt lat="48.51671" lon="7.17283">
        <ele>882</ele>
        <time>2021-02-21T14:04:54.436Z</time>
      </trkpt>
      <trkpt lat="48.5167" lon="7.17283">
        <ele>882</ele>
        <time>2021-02-21T14:04:55.436Z</time>
      </trkpt>
      <trkpt lat="48.51669" lon="7.17283">
        <ele>882</ele>
        <time>2021-02-21T14:04:56.436Z</time>
      </trkpt>
      <trkpt lat="48.51668" lon="7.17283">
        <ele>882</ele>
        <time>2021-02-21T14:04:57.436Z</time>
      </trkpt>
      <trkpt lat="48.51667" lon="7.17281">
        <ele>881</ele>
        <time>2021-02-21T14:04:58.436Z</time>
      </trkpt>
      <trkpt lat="48.51665" lon="7.17279">
        <ele>881</ele>
        <time>2021-02-21T14:04:59.436Z</time>
      </trkpt>
      <trkpt lat="48.51665" lon="7.17279">
        <ele>881</ele>
        <time>2021-02-21T14:05:00.436Z</time>
      </trkpt>
      <trkpt lat="48.51663" lon="7.17279">
        <ele>881</ele>
        <time>2021-02-21T14:05:01.436Z</time>
      </trkpt>
      <trkpt lat="48.51662" lon="7.1728">
        <ele>881</ele>
        <time>2021-02-21T14:05:02.436Z</time>
      </trkpt>
      <trkpt lat="48.51661" lon="7.1728">
        <ele>880</ele>
        <time>2021-02-21T14:05:03.436Z</time>
      </trkpt>
      <trkpt lat="48.5166" lon="7.1728">
        <ele>880</ele>
        <time>2021-02-21T14:05:04.436Z</time>
      </trkpt>
      <trkpt lat="48.5166" lon="7.17279">
        <ele>880</ele>
        <time>2021-02-21T14:05:05.436Z</time>
      </trkpt>
      <trkpt lat="48.5166" lon="7.17279">
        <ele>881</ele>
        <time>2021-02-21T14:05:06.438Z</time>
      </trkpt>
      <trkpt lat="48.51659" lon="7.17279">
        <ele>881</ele>
        <time>2021-02-21T14:05:07.437Z</time>
      </trkpt>
      <trkpt lat="48.51659" lon="7.17279">
        <ele>881</ele>
        <time>2021-02-21T14:05:08.437Z</time>
      </trkpt>
      <trkpt lat="48.51657" lon="7.17278">
        <ele>880</ele>
        <time>2021-02-21T14:05:09.437Z</time>
      </trkpt>
      <trkpt lat="48.51656" lon="7.17278">
        <ele>880</ele>
        <time>2021-02-21T14:05:10.437Z</time>
      </trkpt>
      <trkpt lat="48.51655" lon="7.17277">
        <ele>880</ele>
        <time>2021-02-21T14:05:11.438Z</time>
      </trkpt>
      <trkpt lat="48.51654" lon="7.17276">
        <ele>880</ele>
        <time>2021-02-21T14:05:12.438Z</time>
      </trkpt>
      <trkpt lat="48.51654" lon="7.17275">
        <ele>880</ele>
        <time>2021-02-21T14:05:13.438Z</time>
      </trkpt>
      <trkpt lat="48.51653" lon="7.17274">
        <ele>879</ele>
        <time>2021-02-21T14:05:14.438Z</time>
      </trkpt>
      <trkpt lat="48.51652" lon="7.17275">
        <ele>879</ele>
        <time>2021-02-21T14:05:15.438Z</time>
      </trkpt>
      <trkpt lat="48.51652" lon="7.17274">
        <ele>879</ele>
        <time>2021-02-21T14:05:16.438Z</time>
      </trkpt>
      <trkpt lat="48.51651" lon="7.17273">
        <ele>879</ele>
        <time>2021-02-21T14:05:17.437Z</time>
      </trkpt>
      <trkpt lat="48.5165" lon="7.17272">
        <ele>879</ele>
        <time>2021-02-21T14:05:18.437Z</time>
      </trkpt>
      <trkpt lat="48.5165" lon="7.17271">
        <ele>879</ele>
        <time>2021-02-21T14:05:19.438Z</time>
      </trkpt>
      <trkpt lat="48.5165" lon="7.17268">
        <ele>879</ele>
        <time>2021-02-21T14:05:20.437Z</time>
      </trkpt>
      <trkpt lat="48.51648" lon="7.17267">
        <ele>879</ele>
        <time>2021-02-21T14:05:21.437Z</time>
      </trkpt>
      <trkpt lat="48.51647" lon="7.17266">
        <ele>879</ele>
        <time>2021-02-21T14:05:22.438Z</time>
      </trkpt>
      <trkpt lat="48.51646" lon="7.17265">
        <ele>879</ele>
        <time>2021-02-21T14:05:23.438Z</time>
      </trkpt>
      <trkpt lat="48.51645" lon="7.17264">
        <ele>879</ele>
        <time>2021-02-21T14:05:24.438Z</time>
      </trkpt>
      <trkpt lat="48.51644" lon="7.17264">
        <ele>879</ele>
        <time>2021-02-21T14:05:25.438Z</time>
      </trkpt>
      <trkpt lat="48.51643" lon="7.17264">
        <ele>879</ele>
        <time>2021-02-21T14:05:26.438Z</time>
      </trkpt>
      <trkpt lat="48.51642" lon="7.17263">
        <ele>879</ele>
        <time>2021-02-21T14:05:27.438Z</time>
      </trkpt>
      <trkpt lat="48.51641" lon="7.17264">
        <ele>878</ele>
        <time>2021-02-21T14:05:28.438Z</time>
      </trkpt>
      <trkpt lat="48.5164" lon="7.17264">
        <ele>878</ele>
        <time>2021-02-21T14:05:29.438Z</time>
      </trkpt>
      <trkpt lat="48.51639" lon="7.17264">
        <ele>877</ele>
        <time>2021-02-21T14:05:30.437Z</time>
      </trkpt>
      <trkpt lat="48.51638" lon="7.17264">
        <ele>877</ele>
        <time>2021-02-21T14:05:31.437Z</time>
      </trkpt>
      <trkpt lat="48.51637" lon="7.17263">
        <ele>876</ele>
        <time>2021-02-21T14:05:32.437Z</time>
      </trkpt>
      <trkpt lat="48.51636" lon="7.17262">
        <ele>876</ele>
        <time>2021-02-21T14:05:33.438Z</time>
      </trkpt>
      <trkpt lat="48.51635" lon="7.17262">
        <ele>875</ele>
        <time>2021-02-21T14:05:34.437Z</time>
      </trkpt>
      <trkpt lat="48.51634" lon="7.17262">
        <ele>874</ele>
        <time>2021-02-21T14:05:35.438Z</time>
      </trkpt>
      <trkpt lat="48.51633" lon="7.17262">
        <ele>874</ele>
        <time>2021-02-21T14:05:36.437Z</time>
      </trkpt>
      <trkpt lat="48.51632" lon="7.17262">
        <ele>874</ele>
        <time>2021-02-21T14:05:37.438Z</time>
      </trkpt>
      <trkpt lat="48.51631" lon="7.17261">
        <ele>873</ele>
        <time>2021-02-21T14:05:38.438Z</time>
      </trkpt>
      <trkpt lat="48.51631" lon="7.17261">
        <ele>873</ele>
        <time>2021-02-21T14:05:39.438Z</time>
      </trkpt>
      <trkpt lat="48.5163" lon="7.17261">
        <ele>873</ele>
        <time>2021-02-21T14:05:40.438Z</time>
      </trkpt>
      <trkpt lat="48.51629" lon="7.17261">
        <ele>872</ele>
        <time>2021-02-21T14:05:41.438Z</time>
      </trkpt>
      <trkpt lat="48.51628" lon="7.1726">
        <ele>872</ele>
        <time>2021-02-21T14:05:42.437Z</time>
      </trkpt>
      <trkpt lat="48.51627" lon="7.1726">
        <ele>871</ele>
        <time>2021-02-21T14:05:43.437Z</time>
      </trkpt>
      <trkpt lat="48.51625" lon="7.1726">
        <ele>871</ele>
        <time>2021-02-21T14:05:44.438Z</time>
      </trkpt>
      <trkpt lat="48.51625" lon="7.17259">
        <ele>871</ele>
        <time>2021-02-21T14:05:45.438Z</time>
      </trkpt>
      <trkpt lat="48.51624" lon="7.17259">
        <ele>871</ele>
        <time>2021-02-21T14:05:46.438Z</time>
      </trkpt>
      <trkpt lat="48.51623" lon="7.17259">
        <ele>870</ele>
        <time>2021-02-21T14:05:47.438Z</time>
      </trkpt>
      <trkpt lat="48.51622" lon="7.17259">
        <ele>870</ele>
        <time>2021-02-21T14:05:48.438Z</time>
      </trkpt>
      <trkpt lat="48.51621" lon="7.17259">
        <ele>870</ele>
        <time>2021-02-21T14:05:49.438Z</time>
      </trkpt>
      <trkpt lat="48.5162" lon="7.1726">
        <ele>870</ele>
        <time>2021-02-21T14:05:50.438Z</time>
      </trkpt>
      <trkpt lat="48.5162" lon="7.1726">
        <ele>870</ele>
        <time>2021-02-21T14:05:51.437Z</time>
      </trkpt>
      <trkpt lat="48.51618" lon="7.1726">
        <ele>869</ele>
        <time>2021-02-21T14:05:52.438Z</time>
      </trkpt>
      <trkpt lat="48.51618" lon="7.17261">
        <ele>869</ele>
        <time>2021-02-21T14:05:53.438Z</time>
      </trkpt>
      <trkpt lat="48.51617" lon="7.17261">
        <ele>869</ele>
        <time>2021-02-21T14:05:54.438Z</time>
      </trkpt>
      <trkpt lat="48.51616" lon="7.17261">
        <ele>869</ele>
        <time>2021-02-21T14:05:55.438Z</time>
      </trkpt>
      <trkpt lat="48.51615" lon="7.17262">
        <ele>869</ele>
        <time>2021-02-21T14:05:56.438Z</time>
      </trkpt>
      <trkpt lat="48.51614" lon="7.17262">
        <ele>869</ele>
        <time>2021-02-21T14:05:57.438Z</time>
      </trkpt>
      <trkpt lat="48.51613" lon="7.17261">
        <ele>869</ele>
        <time>2021-02-21T14:05:58.438Z</time>
      </trkpt>
      <trkpt lat="48.51613" lon="7.17261">
        <ele>869</ele>
        <time>2021-02-21T14:05:59.437Z</time>
      </trkpt>
      <trkpt lat="48.51612" lon="7.17261">
        <ele>868</ele>
        <time>2021-02-21T14:06:00.438Z</time>
      </trkpt>
      <trkpt lat="48.51611" lon="7.17262">
        <ele>867</ele>
        <time>2021-02-21T14:06:01.438Z</time>
      </trkpt>
      <trkpt lat="48.5161" lon="7.17262">
        <ele>867</ele>
        <time>2021-02-21T14:06:02.438Z</time>
      </trkpt>
      <trkpt lat="48.51609" lon="7.17263">
        <ele>867</ele>
        <time>2021-02-21T14:06:03.438Z</time>
      </trkpt>
      <trkpt lat="48.51608" lon="7.17263">
        <ele>866</ele>
        <time>2021-02-21T14:06:04.437Z</time>
      </trkpt>
      <trkpt lat="48.51607" lon="7.17263">
        <ele>866</ele>
        <time>2021-02-21T14:06:05.438Z</time>
      </trkpt>
      <trkpt lat="48.51606" lon="7.17264">
        <ele>866</ele>
        <time>2021-02-21T14:06:06.438Z</time>
      </trkpt>
      <trkpt lat="48.51603" lon="7.17266">
        <ele>866</ele>
        <time>2021-02-21T14:06:07.438Z</time>
      </trkpt>
      <trkpt lat="48.51601" lon="7.17267">
        <ele>867</ele>
        <time>2021-02-21T14:06:08.437Z</time>
      </trkpt>
      <trkpt lat="48.51599" lon="7.17269">
        <ele>867</ele>
        <time>2021-02-21T14:06:09.438Z</time>
      </trkpt>
      <trkpt lat="48.51599" lon="7.17269">
        <ele>866</ele>
        <time>2021-02-21T14:06:10.438Z</time>
      </trkpt>
      <trkpt lat="48.51598" lon="7.1727">
        <ele>866</ele>
        <time>2021-02-21T14:06:11.438Z</time>
      </trkpt>
      <trkpt lat="48.51597" lon="7.17271">
        <ele>865</ele>
        <time>2021-02-21T14:06:12.437Z</time>
      </trkpt>
      <trkpt lat="48.51597" lon="7.17272">
        <ele>865</ele>
        <time>2021-02-21T14:06:13.437Z</time>
      </trkpt>
      <trkpt lat="48.51596" lon="7.17272">
        <ele>864</ele>
        <time>2021-02-21T14:06:14.438Z</time>
      </trkpt>
      <trkpt lat="48.51595" lon="7.17272">
        <ele>864</ele>
        <time>2021-02-21T14:06:15.438Z</time>
      </trkpt>
      <trkpt lat="48.51594" lon="7.17273">
        <ele>863</ele>
        <time>2021-02-21T14:06:16.438Z</time>
      </trkpt>
      <trkpt lat="48.51593" lon="7.17274">
        <ele>863</ele>
        <time>2021-02-21T14:06:17.438Z</time>
      </trkpt>
      <trkpt lat="48.51592" lon="7.17275">
        <ele>863</ele>
        <time>2021-02-21T14:06:18.437Z</time>
      </trkpt>
      <trkpt lat="48.51591" lon="7.17275">
        <ele>863</ele>
        <time>2021-02-21T14:06:19.437Z</time>
      </trkpt>
      <trkpt lat="48.5159" lon="7.17276">
        <ele>862</ele>
        <time>2021-02-21T14:06:20.438Z</time>
      </trkpt>
      <trkpt lat="48.51589" lon="7.17277">
        <ele>862</ele>
        <time>2021-02-21T14:06:21.437Z</time>
      </trkpt>
      <trkpt lat="48.51589" lon="7.17278">
        <ele>862</ele>
        <time>2021-02-21T14:06:22.438Z</time>
      </trkpt>
      <trkpt lat="48.51589" lon="7.17279">
        <ele>862</ele>
        <time>2021-02-21T14:06:23.438Z</time>
      </trkpt>
      <trkpt lat="48.51589" lon="7.1728">
        <ele>862</ele>
        <time>2021-02-21T14:06:24.438Z</time>
      </trkpt>
      <trkpt lat="48.51588" lon="7.17281">
        <ele>862</ele>
        <time>2021-02-21T14:06:25.438Z</time>
      </trkpt>
      <trkpt lat="48.51587" lon="7.17282">
        <ele>862</ele>
        <time>2021-02-21T14:06:26.438Z</time>
      </trkpt>
      <trkpt lat="48.51586" lon="7.17284">
        <ele>862</ele>
        <time>2021-02-21T14:06:27.437Z</time>
      </trkpt>
      <trkpt lat="48.51585" lon="7.17285">
        <ele>862</ele>
        <time>2021-02-21T14:06:28.438Z</time>
      </trkpt>
      <trkpt lat="48.51584" lon="7.17286">
        <ele>861</ele>
        <time>2021-02-21T14:06:29.438Z</time>
      </trkpt>
      <trkpt lat="48.51584" lon="7.17286">
        <ele>860</ele>
        <time>2021-02-21T14:06:30.438Z</time>
      </trkpt>
      <trkpt lat="48.51583" lon="7.17286">
        <ele>859</ele>
        <time>2021-02-21T14:06:31.438Z</time>
      </trkpt>
      <trkpt lat="48.51582" lon="7.17286">
        <ele>858</ele>
        <time>2021-02-21T14:06:32.437Z</time>
      </trkpt>
      <trkpt lat="48.51581" lon="7.17287">
        <ele>858</ele>
        <time>2021-02-21T14:06:33.438Z</time>
      </trkpt>
      <trkpt lat="48.5158" lon="7.17287">
        <ele>857</ele>
        <time>2021-02-21T14:06:34.437Z</time>
      </trkpt>
      <trkpt lat="48.51579" lon="7.17288">
        <ele>857</ele>
        <time>2021-02-21T14:06:35.438Z</time>
      </trkpt>
      <trkpt lat="48.51578" lon="7.17288">
        <ele>857</ele>
        <time>2021-02-21T14:06:36.438Z</time>
      </trkpt>
      <trkpt lat="48.51576" lon="7.17288">
        <ele>857</ele>
        <time>2021-02-21T14:06:37.438Z</time>
      </trkpt>
      <trkpt lat="48.51575" lon="7.17288">
        <ele>857</ele>
        <time>2021-02-21T14:06:38.438Z</time>
      </trkpt>
      <trkpt lat="48.51574" lon="7.17288">
        <ele>857</ele>
        <time>2021-02-21T14:06:39.438Z</time>
      </trkpt>
      <trkpt lat="48.51573" lon="7.17289">
        <ele>857</ele>
        <time>2021-02-21T14:06:40.438Z</time>
      </trkpt>
      <trkpt lat="48.51572" lon="7.17289">
        <ele>857</ele>
        <time>2021-02-21T14:06:41.438Z</time>
      </trkpt>
      <trkpt lat="48.51572" lon="7.17289">
        <ele>858</ele>
        <time>2021-02-21T14:06:42.438Z</time>
      </trkpt>
      <trkpt lat="48.51572" lon="7.1729">
        <ele>858</ele>
        <time>2021-02-21T14:06:43.438Z</time>
      </trkpt>
      <trkpt lat="48.5157" lon="7.1729">
        <ele>858</ele>
        <time>2021-02-21T14:06:44.437Z</time>
      </trkpt>
      <trkpt lat="48.5157" lon="7.1729">
        <ele>858</ele>
        <time>2021-02-21T14:06:45.437Z</time>
      </trkpt>
      <trkpt lat="48.51569" lon="7.1729">
        <ele>858</ele>
        <time>2021-02-21T14:06:46.438Z</time>
      </trkpt>
      <trkpt lat="48.51568" lon="7.1729">
        <ele>858</ele>
        <time>2021-02-21T14:06:47.438Z</time>
      </trkpt>
      <trkpt lat="48.51567" lon="7.17291">
        <ele>858</ele>
        <time>2021-02-21T14:06:48.438Z</time>
      </trkpt>
      <trkpt lat="48.51566" lon="7.17291">
        <ele>858</ele>
        <time>2021-02-21T14:06:49.438Z</time>
      </trkpt>
      <trkpt lat="48.51565" lon="7.17291">
        <ele>858</ele>
        <time>2021-02-21T14:06:50.438Z</time>
      </trkpt>
      <trkpt lat="48.51563" lon="7.17292">
        <ele>857</ele>
        <time>2021-02-21T14:06:51.437Z</time>
      </trkpt>
      <trkpt lat="48.51562" lon="7.17293">
        <ele>857</ele>
        <time>2021-02-21T14:06:52.438Z</time>
      </trkpt>
      <trkpt lat="48.51561" lon="7.17294">
        <ele>857</ele>
        <time>2021-02-21T14:06:53.437Z</time>
      </trkpt>
      <trkpt lat="48.5156" lon="7.17294">
        <ele>856</ele>
        <time>2021-02-21T14:06:54.438Z</time>
      </trkpt>
      <trkpt lat="48.51559" lon="7.17294">
        <ele>856</ele>
        <time>2021-02-21T14:06:55.437Z</time>
      </trkpt>
      <trkpt lat="48.51558" lon="7.17293">
        <ele>855</ele>
        <time>2021-02-21T14:06:56.438Z</time>
      </trkpt>
      <trkpt lat="48.51557" lon="7.17293">
        <ele>854</ele>
        <time>2021-02-21T14:06:57.438Z</time>
      </trkpt>
      <trkpt lat="48.51556" lon="7.17293">
        <ele>854</ele>
        <time>2021-02-21T14:06:58.437Z</time>
      </trkpt>
      <trkpt lat="48.51554" lon="7.17293">
        <ele>853</ele>
        <time>2021-02-21T14:06:59.438Z</time>
      </trkpt>
      <trkpt lat="48.51553" lon="7.17293">
        <ele>852</ele>
        <time>2021-02-21T14:07:00.437Z</time>
      </trkpt>
      <trkpt lat="48.51551" lon="7.17293">
        <ele>852</ele>
        <time>2021-02-21T14:07:01.438Z</time>
      </trkpt>
      <trkpt lat="48.5155" lon="7.17294">
        <ele>852</ele>
        <time>2021-02-21T14:07:02.438Z</time>
      </trkpt>
      <trkpt lat="48.51549" lon="7.17294">
        <ele>851</ele>
        <time>2021-02-21T14:07:03.437Z</time>
      </trkpt>
      <trkpt lat="48.51547" lon="7.17294">
        <ele>851</ele>
        <time>2021-02-21T14:07:04.438Z</time>
      </trkpt>
      <trkpt lat="48.51546" lon="7.17294">
        <ele>850</ele>
        <time>2021-02-21T14:07:05.437Z</time>
      </trkpt>
      <trkpt lat="48.51545" lon="7.17294">
        <ele>850</ele>
        <time>2021-02-21T14:07:06.438Z</time>
      </trkpt>
      <trkpt lat="48.51544" lon="7.17295">
        <ele>850</ele>
        <time>2021-02-21T14:07:07.437Z</time>
      </trkpt>
      <trkpt lat="48.51543" lon="7.17295">
        <ele>849</ele>
        <time>2021-02-21T14:07:08.437Z</time>
      </trkpt>
      <trkpt lat="48.51542" lon="7.17295">
        <ele>849</ele>
        <time>2021-02-21T14:07:09.438Z</time>
      </trkpt>
      <trkpt lat="48.51541" lon="7.17295">
        <ele>848</ele>
        <time>2021-02-21T14:07:10.438Z</time>
      </trkpt>
      <trkpt lat="48.5154" lon="7.17294">
        <ele>848</ele>
        <time>2021-02-21T14:07:11.437Z</time>
      </trkpt>
      <trkpt lat="48.51539" lon="7.17294">
        <ele>848</ele>
        <time>2021-02-21T14:07:12.438Z</time>
      </trkpt>
      <trkpt lat="48.51538" lon="7.17294">
        <ele>848</ele>
        <time>2021-02-21T14:07:13.438Z</time>
      </trkpt>
      <trkpt lat="48.51537" lon="7.17294">
        <ele>847</ele>
        <time>2021-02-21T14:07:14.437Z</time>
      </trkpt>
      <trkpt lat="48.51536" lon="7.17294">
        <ele>847</ele>
        <time>2021-02-21T14:07:15.438Z</time>
      </trkpt>
      <trkpt lat="48.51535" lon="7.17294">
        <ele>847</ele>
        <time>2021-02-21T14:07:16.438Z</time>
      </trkpt>
      <trkpt lat="48.51535" lon="7.17294">
        <ele>847</ele>
        <time>2021-02-21T14:07:17.437Z</time>
      </trkpt>
      <trkpt lat="48.51534" lon="7.17295">
        <ele>846</ele>
        <time>2021-02-21T14:07:18.438Z</time>
      </trkpt>
      <trkpt lat="48.51533" lon="7.17295">
        <ele>846</ele>
        <time>2021-02-21T14:07:19.438Z</time>
      </trkpt>
      <trkpt lat="48.51532" lon="7.17295">
        <ele>845</ele>
        <time>2021-02-21T14:07:20.438Z</time>
      </trkpt>
      <trkpt lat="48.51531" lon="7.17295">
        <ele>845</ele>
        <time>2021-02-21T14:07:21.437Z</time>
      </trkpt>
      <trkpt lat="48.5153" lon="7.17295">
        <ele>844</ele>
        <time>2021-02-21T14:07:22.438Z</time>
      </trkpt>
      <trkpt lat="48.51529" lon="7.17295">
        <ele>843</ele>
        <time>2021-02-21T14:07:23.437Z</time>
      </trkpt>
      <trkpt lat="48.51528" lon="7.17296">
        <ele>842</ele>
        <time>2021-02-21T14:07:24.437Z</time>
      </trkpt>
      <trkpt lat="48.51527" lon="7.17296">
        <ele>841</ele>
        <time>2021-02-21T14:07:25.437Z</time>
      </trkpt>
      <trkpt lat="48.51526" lon="7.17297">
        <ele>840</ele>
        <time>2021-02-21T14:07:26.438Z</time>
      </trkpt>
      <trkpt lat="48.51525" lon="7.17297">
        <ele>839</ele>
        <time>2021-02-21T14:07:27.438Z</time>
      </trkpt>
      <trkpt lat="48.51525" lon="7.17297">
        <ele>839</ele>
        <time>2021-02-21T14:07:28.438Z</time>
      </trkpt>
      <trkpt lat="48.51524" lon="7.17298">
        <ele>838</ele>
        <time>2021-02-21T14:07:29.438Z</time>
      </trkpt>
      <trkpt lat="48.51523" lon="7.17299">
        <ele>838</ele>
        <time>2021-02-21T14:07:30.438Z</time>
      </trkpt>
      <trkpt lat="48.51523" lon="7.173">
        <ele>837</ele>
        <time>2021-02-21T14:07:31.437Z</time>
      </trkpt>
      <trkpt lat="48.51522" lon="7.173">
        <ele>837</ele>
        <time>2021-02-21T14:07:32.437Z</time>
      </trkpt>
      <trkpt lat="48.51521" lon="7.17301">
        <ele>837</ele>
        <time>2021-02-21T14:07:33.437Z</time>
      </trkpt>
      <trkpt lat="48.5152" lon="7.17302">
        <ele>836</ele>
        <time>2021-02-21T14:07:34.437Z</time>
      </trkpt>
      <trkpt lat="48.51519" lon="7.17302">
        <ele>836</ele>
        <time>2021-02-21T14:07:35.438Z</time>
      </trkpt>
      <trkpt lat="48.51519" lon="7.17303">
        <ele>836</ele>
        <time>2021-02-21T14:07:36.438Z</time>
      </trkpt>
      <trkpt lat="48.51518" lon="7.17303">
        <ele>836</ele>
        <time>2021-02-21T14:07:37.438Z</time>
      </trkpt>
      <trkpt lat="48.51517" lon="7.17303">
        <ele>836</ele>
        <time>2021-02-21T14:07:38.438Z</time>
      </trkpt>
      <trkpt lat="48.51515" lon="7.173">
        <ele>836</ele>
        <time>2021-02-21T14:07:39.439Z</time>
      </trkpt>
      <trkpt lat="48.51514" lon="7.17301">
        <ele>835</ele>
        <time>2021-02-21T14:07:40.438Z</time>
      </trkpt>
      <trkpt lat="48.51513" lon="7.17301">
        <ele>835</ele>
        <time>2021-02-21T14:07:41.439Z</time>
      </trkpt>
      <trkpt lat="48.51513" lon="7.17301">
        <ele>835</ele>
        <time>2021-02-21T14:07:42.439Z</time>
      </trkpt>
      <trkpt lat="48.51512" lon="7.17301">
        <ele>836</ele>
        <time>2021-02-21T14:07:43.439Z</time>
      </trkpt>
      <trkpt lat="48.51512" lon="7.17301">
        <ele>837</ele>
        <time>2021-02-21T14:07:44.440Z</time>
      </trkpt>
      <trkpt lat="48.5151" lon="7.17296">
        <ele>840</ele>
        <time>2021-02-21T14:07:45.440Z</time>
      </trkpt>
      <trkpt lat="48.51511" lon="7.17292">
        <ele>842</ele>
        <time>2021-02-21T14:07:46.440Z</time>
      </trkpt>
      <trkpt lat="48.51512" lon="7.17292">
        <ele>842</ele>
        <time>2021-02-21T14:07:47.439Z</time>
      </trkpt>
      <trkpt lat="48.51517" lon="7.17291">
        <ele>837</ele>
        <time>2021-02-21T14:07:48.439Z</time>
      </trkpt>
      <trkpt lat="48.51518" lon="7.17289">
        <ele>836</ele>
        <time>2021-02-21T14:07:49.439Z</time>
      </trkpt>
      <trkpt lat="48.5152" lon="7.17288">
        <ele>836</ele>
        <time>2021-02-21T14:07:50.440Z</time>
      </trkpt>
      <trkpt lat="48.51522" lon="7.17287">
        <ele>835</ele>
        <time>2021-02-21T14:07:51.440Z</time>
      </trkpt>
      <trkpt lat="48.51523" lon="7.17286">
        <ele>835</ele>
        <time>2021-02-21T14:07:52.440Z</time>
      </trkpt>
      <trkpt lat="48.51525" lon="7.17284">
        <ele>835</ele>
        <time>2021-02-21T14:07:53.440Z</time>
      </trkpt>
      <trkpt lat="48.51526" lon="7.17283">
        <ele>835</ele>
        <time>2021-02-21T14:07:54.439Z</time>
      </trkpt>
      <trkpt lat="48.51528" lon="7.17281">
        <ele>835</ele>
        <time>2021-02-21T14:07:55.439Z</time>
      </trkpt>
      <trkpt lat="48.51529" lon="7.1728">
        <ele>835</ele>
        <time>2021-02-21T14:07:56.440Z</time>
      </trkpt>
      <trkpt lat="48.51531" lon="7.17279">
        <ele>835</ele>
        <time>2021-02-21T14:07:57.440Z</time>
      </trkpt>
      <trkpt lat="48.51532" lon="7.17278">
        <ele>835</ele>
        <time>2021-02-21T14:07:58.440Z</time>
      </trkpt>
      <trkpt lat="48.51533" lon="7.17277">
        <ele>834</ele>
        <time>2021-02-21T14:07:59.440Z</time>
      </trkpt>
      <trkpt lat="48.51534" lon="7.17276">
        <ele>834</ele>
        <time>2021-02-21T14:08:00.440Z</time>
      </trkpt>
      <trkpt lat="48.51535" lon="7.17274">
        <ele>833</ele>
        <time>2021-02-21T14:08:01.440Z</time>
      </trkpt>
      <trkpt lat="48.51536" lon="7.17271">
        <ele>833</ele>
        <time>2021-02-21T14:08:02.440Z</time>
      </trkpt>
      <trkpt lat="48.51537" lon="7.17268">
        <ele>833</ele>
        <time>2021-02-21T14:08:03.440Z</time>
      </trkpt>
      <trkpt lat="48.51538" lon="7.17265">
        <ele>834</ele>
        <time>2021-02-21T14:08:04.440Z</time>
      </trkpt>
      <trkpt lat="48.51539" lon="7.17263">
        <ele>835</ele>
        <time>2021-02-21T14:08:05.440Z</time>
      </trkpt>
      <trkpt lat="48.5154" lon="7.1726">
        <ele>836</ele>
        <time>2021-02-21T14:08:06.440Z</time>
      </trkpt>
      <trkpt lat="48.51541" lon="7.17258">
        <ele>837</ele>
        <time>2021-02-21T14:08:07.439Z</time>
      </trkpt>
      <trkpt lat="48.51543" lon="7.17256">
        <ele>838</ele>
        <time>2021-02-21T14:08:08.440Z</time>
      </trkpt>
      <trkpt lat="48.51544" lon="7.17255">
        <ele>838</ele>
        <time>2021-02-21T14:08:09.440Z</time>
      </trkpt>
      <trkpt lat="48.51544" lon="7.17254">
        <ele>838</ele>
        <time>2021-02-21T14:08:10.439Z</time>
      </trkpt>
      <trkpt lat="48.51545" lon="7.17253">
        <ele>838</ele>
        <time>2021-02-21T14:08:11.440Z</time>
      </trkpt>
      <trkpt lat="48.51546" lon="7.17252">
        <ele>838</ele>
        <time>2021-02-21T14:08:12.440Z</time>
      </trkpt>
      <trkpt lat="48.51548" lon="7.17252">
        <ele>838</ele>
        <time>2021-02-21T14:08:13.439Z</time>
      </trkpt>
      <trkpt lat="48.51549" lon="7.1725">
        <ele>838</ele>
        <time>2021-02-21T14:08:14.440Z</time>
      </trkpt>
      <trkpt lat="48.51549" lon="7.17249">
        <ele>838</ele>
        <time>2021-02-21T14:08:15.439Z</time>
      </trkpt>
      <trkpt lat="48.5155" lon="7.17248">
        <ele>838</ele>
        <time>2021-02-21T14:08:16.440Z</time>
      </trkpt>
      <trkpt lat="48.51551" lon="7.17246">
        <ele>838</ele>
        <time>2021-02-21T14:08:17.440Z</time>
      </trkpt>
      <trkpt lat="48.51552" lon="7.17245">
        <ele>838</ele>
        <time>2021-02-21T14:08:18.439Z</time>
      </trkpt>
      <trkpt lat="48.51552" lon="7.17243">
        <ele>839</ele>
        <time>2021-02-21T14:08:19.440Z</time>
      </trkpt>
      <trkpt lat="48.51553" lon="7.17242">
        <ele>839</ele>
        <time>2021-02-21T14:08:20.439Z</time>
      </trkpt>
      <trkpt lat="48.51554" lon="7.17241">
        <ele>839</ele>
        <time>2021-02-21T14:08:21.440Z</time>
      </trkpt>
      <trkpt lat="48.51555" lon="7.1724">
        <ele>840</ele>
        <time>2021-02-21T14:08:22.440Z</time>
      </trkpt>
      <trkpt lat="48.51555" lon="7.17239">
        <ele>840</ele>
        <time>2021-02-21T14:08:23.440Z</time>
      </trkpt>
      <trkpt lat="48.51556" lon="7.17238">
        <ele>840</ele>
        <time>2021-02-21T14:08:24.440Z</time>
      </trkpt>
      <trkpt lat="48.51557" lon="7.17237">
        <ele>840</ele>
        <time>2021-02-21T14:08:25.440Z</time>
      </trkpt>
      <trkpt lat="48.51558" lon="7.17236">
        <ele>840</ele>
        <time>2021-02-21T14:08:26.440Z</time>
      </trkpt>
      <trkpt lat="48.51559" lon="7.17234">
        <ele>840</ele>
        <time>2021-02-21T14:08:27.440Z</time>
      </trkpt>
      <trkpt lat="48.51559" lon="7.17233">
        <ele>840</ele>
        <time>2021-02-21T14:08:28.440Z</time>
      </trkpt>
      <trkpt lat="48.5156" lon="7.17232">
        <ele>840</ele>
        <time>2021-02-21T14:08:29.440Z</time>
      </trkpt>
      <trkpt lat="48.51561" lon="7.17231">
        <ele>839</ele>
        <time>2021-02-21T14:08:30.439Z</time>
      </trkpt>
      <trkpt lat="48.51561" lon="7.17229">
        <ele>839</ele>
        <time>2021-02-21T14:08:31.440Z</time>
      </trkpt>
      <trkpt lat="48.51562" lon="7.17228">
        <ele>839</ele>
        <time>2021-02-21T14:08:32.440Z</time>
      </trkpt>
      <trkpt lat="48.51562" lon="7.17227">
        <ele>839</ele>
        <time>2021-02-21T14:08:33.439Z</time>
      </trkpt>
      <trkpt lat="48.51562" lon="7.17226">
        <ele>839</ele>
        <time>2021-02-21T14:08:34.439Z</time>
      </trkpt>
      <trkpt lat="48.51563" lon="7.17225">
        <ele>838</ele>
        <time>2021-02-21T14:08:35.440Z</time>
      </trkpt>
      <trkpt lat="48.51563" lon="7.17224">
        <ele>838</ele>
        <time>2021-02-21T14:08:36.440Z</time>
      </trkpt>
      <trkpt lat="48.51563" lon="7.17222">
        <ele>838</ele>
        <time>2021-02-21T14:08:37.440Z</time>
      </trkpt>
      <trkpt lat="48.51564" lon="7.17219">
        <ele>838</ele>
        <time>2021-02-21T14:08:38.439Z</time>
      </trkpt>
      <trkpt lat="48.51565" lon="7.17217">
        <ele>839</ele>
        <time>2021-02-21T14:08:39.440Z</time>
      </trkpt>
      <trkpt lat="48.51565" lon="7.17214">
        <ele>839</ele>
        <time>2021-02-21T14:08:40.440Z</time>
      </trkpt>
      <trkpt lat="48.51566" lon="7.17212">
        <ele>839</ele>
        <time>2021-02-21T14:08:41.440Z</time>
      </trkpt>
      <trkpt lat="48.51567" lon="7.1721">
        <ele>839</ele>
        <time>2021-02-21T14:08:42.439Z</time>
      </trkpt>
      <trkpt lat="48.51567" lon="7.17209">
        <ele>839</ele>
        <time>2021-02-21T14:08:43.440Z</time>
      </trkpt>
      <trkpt lat="48.51567" lon="7.17208">
        <ele>840</ele>
        <time>2021-02-21T14:08:44.439Z</time>
      </trkpt>
      <trkpt lat="48.51568" lon="7.17206">
        <ele>841</ele>
        <time>2021-02-21T14:08:45.440Z</time>
      </trkpt>
      <trkpt lat="48.51568" lon="7.17205">
        <ele>841</ele>
        <time>2021-02-21T14:08:46.439Z</time>
      </trkpt>
      <trkpt lat="48.51569" lon="7.17203">
        <ele>841</ele>
        <time>2021-02-21T14:08:47.440Z</time>
      </trkpt>
      <trkpt lat="48.51569" lon="7.17201">
        <ele>840</ele>
        <time>2021-02-21T14:08:48.439Z</time>
      </trkpt>
      <trkpt lat="48.5157" lon="7.17199">
        <ele>839</ele>
        <time>2021-02-21T14:08:49.440Z</time>
      </trkpt>
      <trkpt lat="48.5157" lon="7.17197">
        <ele>839</ele>
        <time>2021-02-21T14:08:50.439Z</time>
      </trkpt>
      <trkpt lat="48.5157" lon="7.17194">
        <ele>839</ele>
        <time>2021-02-21T14:08:51.440Z</time>
      </trkpt>
      <trkpt lat="48.51571" lon="7.17192">
        <ele>838</ele>
        <time>2021-02-21T14:08:52.440Z</time>
      </trkpt>
      <trkpt lat="48.51572" lon="7.1719">
        <ele>838</ele>
        <time>2021-02-21T14:08:53.440Z</time>
      </trkpt>
      <trkpt lat="48.51572" lon="7.17188">
        <ele>837</ele>
        <time>2021-02-21T14:08:54.440Z</time>
      </trkpt>
      <trkpt lat="48.51572" lon="7.17186">
        <ele>836</ele>
        <time>2021-02-21T14:08:55.439Z</time>
      </trkpt>
      <trkpt lat="48.51573" lon="7.17185">
        <ele>835</ele>
        <time>2021-02-21T14:08:56.439Z</time>
      </trkpt>
      <trkpt lat="48.51572" lon="7.17184">
        <ele>835</ele>
        <time>2021-02-21T14:08:57.440Z</time>
      </trkpt>
      <trkpt lat="48.51572" lon="7.17182">
        <ele>835</ele>
        <time>2021-02-21T14:08:58.440Z</time>
      </trkpt>
      <trkpt lat="48.51572" lon="7.1718">
        <ele>836</ele>
        <time>2021-02-21T14:08:59.440Z</time>
      </trkpt>
      <trkpt lat="48.51572" lon="7.17177">
        <ele>837</ele>
        <time>2021-02-21T14:09:00.440Z</time>
      </trkpt>
      <trkpt lat="48.51572" lon="7.17174">
        <ele>838</ele>
        <time>2021-02-21T14:09:01.440Z</time>
      </trkpt>
      <trkpt lat="48.51572" lon="7.17172">
        <ele>839</ele>
        <time>2021-02-21T14:09:02.439Z</time>
      </trkpt>
      <trkpt lat="48.51573" lon="7.17171">
        <ele>839</ele>
        <time>2021-02-21T14:09:03.440Z</time>
      </trkpt>
      <trkpt lat="48.51573" lon="7.17168">
        <ele>839</ele>
        <time>2021-02-21T14:09:04.440Z</time>
      </trkpt>
      <trkpt lat="48.51573" lon="7.17165">
        <ele>840</ele>
        <time>2021-02-21T14:09:05.440Z</time>
      </trkpt>
      <trkpt lat="48.51573" lon="7.17163">
        <ele>839</ele>
        <time>2021-02-21T14:09:06.440Z</time>
      </trkpt>
      <trkpt lat="48.51574" lon="7.17162">
        <ele>839</ele>
        <time>2021-02-21T14:09:07.439Z</time>
      </trkpt>
      <trkpt lat="48.51575" lon="7.1716">
        <ele>839</ele>
        <time>2021-02-21T14:09:08.440Z</time>
      </trkpt>
      <trkpt lat="48.51575" lon="7.17158">
        <ele>839</ele>
        <time>2021-02-21T14:09:09.440Z</time>
      </trkpt>
      <trkpt lat="48.51575" lon="7.17157">
        <ele>839</ele>
        <time>2021-02-21T14:09:10.439Z</time>
      </trkpt>
      <trkpt lat="48.51575" lon="7.17156">
        <ele>839</ele>
        <time>2021-02-21T14:09:11.439Z</time>
      </trkpt>
      <trkpt lat="48.51575" lon="7.17155">
        <ele>839</ele>
        <time>2021-02-21T14:09:12.440Z</time>
      </trkpt>
      <trkpt lat="48.51575" lon="7.17154">
        <ele>839</ele>
        <time>2021-02-21T14:09:13.440Z</time>
      </trkpt>
      <trkpt lat="48.51574" lon="7.17152">
        <ele>838</ele>
        <time>2021-02-21T14:09:14.439Z</time>
      </trkpt>
      <trkpt lat="48.51574" lon="7.17151">
        <ele>838</ele>
        <time>2021-02-21T14:09:15.439Z</time>
      </trkpt>
      <trkpt lat="48.51574" lon="7.1715">
        <ele>837</ele>
        <time>2021-02-21T14:09:16.440Z</time>
      </trkpt>
      <trkpt lat="48.51574" lon="7.17149">
        <ele>836</ele>
        <time>2021-02-21T14:09:17.440Z</time>
      </trkpt>
      <trkpt lat="48.51574" lon="7.17147">
        <ele>836</ele>
        <time>2021-02-21T14:09:18.440Z</time>
      </trkpt>
      <trkpt lat="48.51574" lon="7.17145">
        <ele>835</ele>
        <time>2021-02-21T14:09:19.440Z</time>
      </trkpt>
      <trkpt lat="48.51575" lon="7.17143">
        <ele>835</ele>
        <time>2021-02-21T14:09:20.440Z</time>
      </trkpt>
      <trkpt lat="48.51575" lon="7.17141">
        <ele>834</ele>
        <time>2021-02-21T14:09:21.440Z</time>
      </trkpt>
      <trkpt lat="48.51576" lon="7.17139">
        <ele>834</ele>
        <time>2021-02-21T14:09:22.440Z</time>
      </trkpt>
      <trkpt lat="48.51576" lon="7.17138">
        <ele>834</ele>
        <time>2021-02-21T14:09:23.439Z</time>
      </trkpt>
      <trkpt lat="48.51576" lon="7.17136">
        <ele>834</ele>
        <time>2021-02-21T14:09:24.440Z</time>
      </trkpt>
      <trkpt lat="48.51577" lon="7.17135">
        <ele>834</ele>
        <time>2021-02-21T14:09:25.439Z</time>
      </trkpt>
      <trkpt lat="48.51577" lon="7.17132">
        <ele>834</ele>
        <time>2021-02-21T14:09:26.440Z</time>
      </trkpt>
      <trkpt lat="48.51577" lon="7.17131">
        <ele>834</ele>
        <time>2021-02-21T14:09:27.440Z</time>
      </trkpt>
      <trkpt lat="48.51576" lon="7.17129">
        <ele>834</ele>
        <time>2021-02-21T14:09:28.440Z</time>
      </trkpt>
      <trkpt lat="48.51577" lon="7.17127">
        <ele>834</ele>
        <time>2021-02-21T14:09:29.440Z</time>
      </trkpt>
      <trkpt lat="48.51577" lon="7.17124">
        <ele>833</ele>
        <time>2021-02-21T14:09:30.439Z</time>
      </trkpt>
      <trkpt lat="48.51577" lon="7.17123">
        <ele>832</ele>
        <time>2021-02-21T14:09:31.440Z</time>
      </trkpt>
      <trkpt lat="48.51577" lon="7.17121">
        <ele>832</ele>
        <time>2021-02-21T14:09:32.440Z</time>
      </trkpt>
      <trkpt lat="48.51578" lon="7.17119">
        <ele>832</ele>
        <time>2021-02-21T14:09:33.440Z</time>
      </trkpt>
      <trkpt lat="48.51578" lon="7.17117">
        <ele>832</ele>
        <time>2021-02-21T14:09:37.579Z</time>
      </trkpt>
      <trkpt lat="48.51579" lon="7.17115">
        <ele>832</ele>
        <time>2021-02-21T14:09:38.579Z</time>
      </trkpt>
      <trkpt lat="48.51579" lon="7.17114">
        <ele>833</ele>
        <time>2021-02-21T14:09:39.578Z</time>
      </trkpt>
      <trkpt lat="48.51579" lon="7.17112">
        <ele>833</ele>
        <time>2021-02-21T14:09:40.579Z</time>
      </trkpt>
      <trkpt lat="48.5158" lon="7.1711">
        <ele>833</ele>
        <time>2021-02-21T14:09:41.579Z</time>
      </trkpt>
      <trkpt lat="48.5158" lon="7.17108">
        <ele>833</ele>
        <time>2021-02-21T14:09:42.578Z</time>
      </trkpt>
      <trkpt lat="48.51581" lon="7.17107">
        <ele>833</ele>
        <time>2021-02-21T14:09:43.579Z</time>
      </trkpt>
      <trkpt lat="48.51581" lon="7.17105">
        <ele>833</ele>
        <time>2021-02-21T14:09:44.579Z</time>
      </trkpt>
      <trkpt lat="48.51581" lon="7.17104">
        <ele>833</ele>
        <time>2021-02-21T14:09:45.579Z</time>
      </trkpt>
      <trkpt lat="48.51582" lon="7.17102">
        <ele>833</ele>
        <time>2021-02-21T14:09:46.578Z</time>
      </trkpt>
      <trkpt lat="48.51582" lon="7.17101">
        <ele>834</ele>
        <time>2021-02-21T14:09:47.579Z</time>
      </trkpt>
      <trkpt lat="48.51582" lon="7.171">
        <ele>834</ele>
        <time>2021-02-21T14:09:48.579Z</time>
      </trkpt>
      <trkpt lat="48.51583" lon="7.17098">
        <ele>834</ele>
        <time>2021-02-21T14:09:49.579Z</time>
      </trkpt>
      <trkpt lat="48.51583" lon="7.17096">
        <ele>835</ele>
        <time>2021-02-21T14:09:50.578Z</time>
      </trkpt>
      <trkpt lat="48.51584" lon="7.17095">
        <ele>835</ele>
        <time>2021-02-21T14:09:51.579Z</time>
      </trkpt>
      <trkpt lat="48.51584" lon="7.17094">
        <ele>835</ele>
        <time>2021-02-21T14:09:52.578Z</time>
      </trkpt>
      <trkpt lat="48.51584" lon="7.17093">
        <ele>835</ele>
        <time>2021-02-21T14:09:53.578Z</time>
      </trkpt>
      <trkpt lat="48.51584" lon="7.17092">
        <ele>835</ele>
        <time>2021-02-21T14:09:54.579Z</time>
      </trkpt>
      <trkpt lat="48.51584" lon="7.1709">
        <ele>835</ele>
        <time>2021-02-21T14:09:55.579Z</time>
      </trkpt>
      <trkpt lat="48.51584" lon="7.17088">
        <ele>835</ele>
        <time>2021-02-21T14:09:56.579Z</time>
      </trkpt>
      <trkpt lat="48.51584" lon="7.17086">
        <ele>835</ele>
        <time>2021-02-21T14:09:57.579Z</time>
      </trkpt>
      <trkpt lat="48.51584" lon="7.17084">
        <ele>835</ele>
        <time>2021-02-21T14:09:58.579Z</time>
      </trkpt>
      <trkpt lat="48.51584" lon="7.17083">
        <ele>835</ele>
        <time>2021-02-21T14:09:59.578Z</time>
      </trkpt>
      <trkpt lat="48.51585" lon="7.1708">
        <ele>835</ele>
        <time>2021-02-21T14:10:00.579Z</time>
      </trkpt>
      <trkpt lat="48.51585" lon="7.17079">
        <ele>835</ele>
        <time>2021-02-21T14:10:01.579Z</time>
      </trkpt>
      <trkpt lat="48.51586" lon="7.17077">
        <ele>835</ele>
        <time>2021-02-21T14:10:02.578Z</time>
      </trkpt>
      <trkpt lat="48.51587" lon="7.17075">
        <ele>835</ele>
        <time>2021-02-21T14:10:03.579Z</time>
      </trkpt>
      <trkpt lat="48.51588" lon="7.17071">
        <ele>836</ele>
        <time>2021-02-21T14:10:04.579Z</time>
      </trkpt>
      <trkpt lat="48.51589" lon="7.17067">
        <ele>836</ele>
        <time>2021-02-21T14:10:05.579Z</time>
      </trkpt>
      <trkpt lat="48.51589" lon="7.17065">
        <ele>836</ele>
        <time>2021-02-21T14:10:06.579Z</time>
      </trkpt>
      <trkpt lat="48.51589" lon="7.17063">
        <ele>836</ele>
        <time>2021-02-21T14:10:07.578Z</time>
      </trkpt>
      <trkpt lat="48.51589" lon="7.17062">
        <ele>837</ele>
        <time>2021-02-21T14:10:08.578Z</time>
      </trkpt>
      <trkpt lat="48.5159" lon="7.1706">
        <ele>837</ele>
        <time>2021-02-21T14:10:09.579Z</time>
      </trkpt>
      <trkpt lat="48.5159" lon="7.17058">
        <ele>837</ele>
        <time>2021-02-21T14:10:10.579Z</time>
      </trkpt>
      <trkpt lat="48.5159" lon="7.17056">
        <ele>838</ele>
        <time>2021-02-21T14:10:11.579Z</time>
      </trkpt>
      <trkpt lat="48.51591" lon="7.17054">
        <ele>838</ele>
        <time>2021-02-21T14:10:12.579Z</time>
      </trkpt>
      <trkpt lat="48.51591" lon="7.17052">
        <ele>838</ele>
        <time>2021-02-21T14:10:13.579Z</time>
      </trkpt>
      <trkpt lat="48.51592" lon="7.1705">
        <ele>839</ele>
        <time>2021-02-21T14:10:14.579Z</time>
      </trkpt>
      <trkpt lat="48.51592" lon="7.17048">
        <ele>839</ele>
        <time>2021-02-21T14:10:15.579Z</time>
      </trkpt>
      <trkpt lat="48.51592" lon="7.17045">
        <ele>838</ele>
        <time>2021-02-21T14:10:16.579Z</time>
      </trkpt>
      <trkpt lat="48.51592" lon="7.17043">
        <ele>838</ele>
        <time>2021-02-21T14:10:17.579Z</time>
      </trkpt>
      <trkpt lat="48.51591" lon="7.17042">
        <ele>837</ele>
        <time>2021-02-21T14:10:18.579Z</time>
      </trkpt>
      <trkpt lat="48.51592" lon="7.17039">
        <ele>837</ele>
        <time>2021-02-21T14:10:19.579Z</time>
      </trkpt>
      <trkpt lat="48.51592" lon="7.17037">
        <ele>836</ele>
        <time>2021-02-21T14:10:20.579Z</time>
      </trkpt>
      <trkpt lat="48.51592" lon="7.17036">
        <ele>835</ele>
        <time>2021-02-21T14:10:21.579Z</time>
      </trkpt>
      <trkpt lat="48.51592" lon="7.17034">
        <ele>835</ele>
        <time>2021-02-21T14:10:22.579Z</time>
      </trkpt>
      <trkpt lat="48.51592" lon="7.17032">
        <ele>834</ele>
        <time>2021-02-21T14:10:23.579Z</time>
      </trkpt>
      <trkpt lat="48.51591" lon="7.17031">
        <ele>834</ele>
        <time>2021-02-21T14:10:24.578Z</time>
      </trkpt>
      <trkpt lat="48.51591" lon="7.17029">
        <ele>833</ele>
        <time>2021-02-21T14:10:25.578Z</time>
      </trkpt>
      <trkpt lat="48.51591" lon="7.17027">
        <ele>833</ele>
        <time>2021-02-21T14:10:26.579Z</time>
      </trkpt>
      <trkpt lat="48.51591" lon="7.17026">
        <ele>832</ele>
        <time>2021-02-21T14:10:27.579Z</time>
      </trkpt>
      <trkpt lat="48.5159" lon="7.17024">
        <ele>832</ele>
        <time>2021-02-21T14:10:28.579Z</time>
      </trkpt>
      <trkpt lat="48.5159" lon="7.17023">
        <ele>831</ele>
        <time>2021-02-21T14:10:29.579Z</time>
      </trkpt>
      <trkpt lat="48.5159" lon="7.17021">
        <ele>830</ele>
        <time>2021-02-21T14:10:30.579Z</time>
      </trkpt>
      <trkpt lat="48.51589" lon="7.1702">
        <ele>830</ele>
        <time>2021-02-21T14:10:31.578Z</time>
      </trkpt>
      <trkpt lat="48.51588" lon="7.17019">
        <ele>829</ele>
        <time>2021-02-21T14:10:32.578Z</time>
      </trkpt>
      <trkpt lat="48.51588" lon="7.17017">
        <ele>829</ele>
        <time>2021-02-21T14:10:33.579Z</time>
      </trkpt>
      <trkpt lat="48.51587" lon="7.17016">
        <ele>829</ele>
        <time>2021-02-21T14:10:34.579Z</time>
      </trkpt>
      <trkpt lat="48.51586" lon="7.17015">
        <ele>829</ele>
        <time>2021-02-21T14:10:35.579Z</time>
      </trkpt>
      <trkpt lat="48.51586" lon="7.17014">
        <ele>828</ele>
        <time>2021-02-21T14:10:36.578Z</time>
      </trkpt>
      <trkpt lat="48.51585" lon="7.17013">
        <ele>828</ele>
        <time>2021-02-21T14:10:37.578Z</time>
      </trkpt>
      <trkpt lat="48.51585" lon="7.17011">
        <ele>829</ele>
        <time>2021-02-21T14:10:38.579Z</time>
      </trkpt>
      <trkpt lat="48.51584" lon="7.1701">
        <ele>829</ele>
        <time>2021-02-21T14:10:39.578Z</time>
      </trkpt>
      <trkpt lat="48.51583" lon="7.17009">
        <ele>829</ele>
        <time>2021-02-21T14:10:40.579Z</time>
      </trkpt>
      <trkpt lat="48.51582" lon="7.17008">
        <ele>830</ele>
        <time>2021-02-21T14:10:41.578Z</time>
      </trkpt>
      <trkpt lat="48.51581" lon="7.17006">
        <ele>830</ele>
        <time>2021-02-21T14:10:42.578Z</time>
      </trkpt>
      <trkpt lat="48.5158" lon="7.17005">
        <ele>830</ele>
        <time>2021-02-21T14:10:43.579Z</time>
      </trkpt>
      <trkpt lat="48.5158" lon="7.17003">
        <ele>829</ele>
        <time>2021-02-21T14:10:44.579Z</time>
      </trkpt>
      <trkpt lat="48.5158" lon="7.17002">
        <ele>829</ele>
        <time>2021-02-21T14:10:45.579Z</time>
      </trkpt>
      <trkpt lat="48.51579" lon="7.17001">
        <ele>829</ele>
        <time>2021-02-21T14:10:46.579Z</time>
      </trkpt>
      <trkpt lat="48.51578" lon="7.16999">
        <ele>830</ele>
        <time>2021-02-21T14:10:47.579Z</time>
      </trkpt>
      <trkpt lat="48.51577" lon="7.16999">
        <ele>830</ele>
        <time>2021-02-21T14:10:48.579Z</time>
      </trkpt>
      <trkpt lat="48.51577" lon="7.16997">
        <ele>830</ele>
        <time>2021-02-21T14:10:49.578Z</time>
      </trkpt>
      <trkpt lat="48.51575" lon="7.16996">
        <ele>831</ele>
        <time>2021-02-21T14:10:50.578Z</time>
      </trkpt>
      <trkpt lat="48.51575" lon="7.16994">
        <ele>832</ele>
        <time>2021-02-21T14:10:51.578Z</time>
      </trkpt>
      <trkpt lat="48.51574" lon="7.16993">
        <ele>832</ele>
        <time>2021-02-21T14:10:52.578Z</time>
      </trkpt>
      <trkpt lat="48.51574" lon="7.16991">
        <ele>833</ele>
        <time>2021-02-21T14:10:53.579Z</time>
      </trkpt>
      <trkpt lat="48.51574" lon="7.1699">
        <ele>833</ele>
        <time>2021-02-21T14:10:54.578Z</time>
      </trkpt>
      <trkpt lat="48.51574" lon="7.1699">
        <ele>833</ele>
        <time>2021-02-21T14:10:55.579Z</time>
      </trkpt>
      <trkpt lat="48.51576" lon="7.16991">
        <ele>829</ele>
        <time>2021-02-21T14:10:56.580Z</time>
      </trkpt>
      <trkpt lat="48.51576" lon="7.1699">
        <ele>829</ele>
        <time>2021-02-21T14:10:57.579Z</time>
      </trkpt>
      <trkpt lat="48.51576" lon="7.16989">
        <ele>825</ele>
        <time>2021-02-21T14:10:58.579Z</time>
      </trkpt>
      <trkpt lat="48.51577" lon="7.16994">
        <ele>821</ele>
        <time>2021-02-21T14:10:59.581Z</time>
      </trkpt>
      <trkpt lat="48.51577" lon="7.16994">
        <ele>821</ele>
        <time>2021-02-21T14:11:00.581Z</time>
      </trkpt>
      <trkpt lat="48.51578" lon="7.16994">
        <ele>821</ele>
        <time>2021-02-21T14:11:01.581Z</time>
      </trkpt>
      <trkpt lat="48.51577" lon="7.16994">
        <ele>823</ele>
        <time>2021-02-21T14:11:02.583Z</time>
      </trkpt>
      <trkpt lat="48.51576" lon="7.16995">
        <ele>823</ele>
        <time>2021-02-21T14:11:03.583Z</time>
      </trkpt>
      <trkpt lat="48.51575" lon="7.16995">
        <ele>823</ele>
        <time>2021-02-21T14:11:04.583Z</time>
      </trkpt>
      <trkpt lat="48.51574" lon="7.16995">
        <ele>823</ele>
        <time>2021-02-21T14:11:05.583Z</time>
      </trkpt>
      <trkpt lat="48.51574" lon="7.16994">
        <ele>823</ele>
        <time>2021-02-21T14:11:06.582Z</time>
      </trkpt>
      <trkpt lat="48.51574" lon="7.16994">
        <ele>824</ele>
        <time>2021-02-21T14:11:07.583Z</time>
      </trkpt>
      <trkpt lat="48.51574" lon="7.16994">
        <ele>824</ele>
        <time>2021-02-21T14:11:08.583Z</time>
      </trkpt>
      <trkpt lat="48.5157" lon="7.16993">
        <ele>826</ele>
        <time>2021-02-21T14:11:09.584Z</time>
      </trkpt>
      <trkpt lat="48.5157" lon="7.16997">
        <ele>826</ele>
        <time>2021-02-21T14:11:10.584Z</time>
      </trkpt>
      <trkpt lat="48.5157" lon="7.16997">
        <ele>826</ele>
        <time>2021-02-21T14:11:11.583Z</time>
      </trkpt>
      <trkpt lat="48.51574" lon="7.16986">
        <ele>828</ele>
        <time>2021-02-21T14:11:12.584Z</time>
      </trkpt>
      <trkpt lat="48.51574" lon="7.16984">
        <ele>827</ele>
        <time>2021-02-21T14:11:13.585Z</time>
      </trkpt>
      <trkpt lat="48.51572" lon="7.16986">
        <ele>827</ele>
        <time>2021-02-21T14:11:14.585Z</time>
      </trkpt>
      <trkpt lat="48.51571" lon="7.16985">
        <ele>826</ele>
        <time>2021-02-21T14:11:15.584Z</time>
      </trkpt>
      <trkpt lat="48.51571" lon="7.16985">
        <ele>827</ele>
        <time>2021-02-21T14:11:16.584Z</time>
      </trkpt>
      <trkpt lat="48.51569" lon="7.16976">
        <ele>824</ele>
        <time>2021-02-21T14:11:17.585Z</time>
      </trkpt>
      <trkpt lat="48.51569" lon="7.16974">
        <ele>824</ele>
        <time>2021-02-21T14:11:18.584Z</time>
      </trkpt>
      <trkpt lat="48.51568" lon="7.16972">
        <ele>824</ele>
        <time>2021-02-21T14:11:19.585Z</time>
      </trkpt>
      <trkpt lat="48.51567" lon="7.16969">
        <ele>824</ele>
        <time>2021-02-21T14:11:20.585Z</time>
      </trkpt>
      <trkpt lat="48.51567" lon="7.16967">
        <ele>824</ele>
        <time>2021-02-21T14:11:21.585Z</time>
      </trkpt>
      <trkpt lat="48.51566" lon="7.16964">
        <ele>824</ele>
        <time>2021-02-21T14:11:22.585Z</time>
      </trkpt>
      <trkpt lat="48.51565" lon="7.16962">
        <ele>823</ele>
        <time>2021-02-21T14:11:23.585Z</time>
      </trkpt>
      <trkpt lat="48.51564" lon="7.16961">
        <ele>823</ele>
        <time>2021-02-21T14:11:24.584Z</time>
      </trkpt>
      <trkpt lat="48.51564" lon="7.1696">
        <ele>823</ele>
        <time>2021-02-21T14:11:25.585Z</time>
      </trkpt>
      <trkpt lat="48.51563" lon="7.16959">
        <ele>823</ele>
        <time>2021-02-21T14:11:26.585Z</time>
      </trkpt>
      <trkpt lat="48.51562" lon="7.16959">
        <ele>823</ele>
        <time>2021-02-21T14:11:27.585Z</time>
      </trkpt>
      <trkpt lat="48.51561" lon="7.16958">
        <ele>823</ele>
        <time>2021-02-21T14:11:28.584Z</time>
      </trkpt>
      <trkpt lat="48.5156" lon="7.16957">
        <ele>823</ele>
        <time>2021-02-21T14:11:29.585Z</time>
      </trkpt>
      <trkpt lat="48.51559" lon="7.16957">
        <ele>823</ele>
        <time>2021-02-21T14:11:30.585Z</time>
      </trkpt>
      <trkpt lat="48.51558" lon="7.16956">
        <ele>823</ele>
        <time>2021-02-21T14:11:31.585Z</time>
      </trkpt>
      <trkpt lat="48.51558" lon="7.16956">
        <ele>823</ele>
        <time>2021-02-21T14:11:32.585Z</time>
      </trkpt>
      <trkpt lat="48.51556" lon="7.16956">
        <ele>823</ele>
        <time>2021-02-21T14:11:33.584Z</time>
      </trkpt>
      <trkpt lat="48.51555" lon="7.16956">
        <ele>822</ele>
        <time>2021-02-21T14:11:34.584Z</time>
      </trkpt>
      <trkpt lat="48.51553" lon="7.16955">
        <ele>822</ele>
        <time>2021-02-21T14:11:35.585Z</time>
      </trkpt>
      <trkpt lat="48.51551" lon="7.16955">
        <ele>822</ele>
        <time>2021-02-21T14:11:36.584Z</time>
      </trkpt>
      <trkpt lat="48.5155" lon="7.16955">
        <ele>821</ele>
        <time>2021-02-21T14:11:37.585Z</time>
      </trkpt>
      <trkpt lat="48.51548" lon="7.16955">
        <ele>821</ele>
        <time>2021-02-21T14:11:38.585Z</time>
      </trkpt>
      <trkpt lat="48.51547" lon="7.16955">
        <ele>820</ele>
        <time>2021-02-21T14:11:39.585Z</time>
      </trkpt>
      <trkpt lat="48.51546" lon="7.16954">
        <ele>820</ele>
        <time>2021-02-21T14:11:40.585Z</time>
      </trkpt>
      <trkpt lat="48.51545" lon="7.16954">
        <ele>821</ele>
        <time>2021-02-21T14:11:41.585Z</time>
      </trkpt>
      <trkpt lat="48.51544" lon="7.16953">
        <ele>821</ele>
        <time>2021-02-21T14:11:42.585Z</time>
      </trkpt>
      <trkpt lat="48.51543" lon="7.16953">
        <ele>823</ele>
        <time>2021-02-21T14:11:43.585Z</time>
      </trkpt>
      <trkpt lat="48.51542" lon="7.16953">
        <ele>824</ele>
        <time>2021-02-21T14:11:44.585Z</time>
      </trkpt>
      <trkpt lat="48.51541" lon="7.16952">
        <ele>825</ele>
        <time>2021-02-21T14:11:45.585Z</time>
      </trkpt>
      <trkpt lat="48.5154" lon="7.16952">
        <ele>825</ele>
        <time>2021-02-21T14:11:46.585Z</time>
      </trkpt>
      <trkpt lat="48.51539" lon="7.16951">
        <ele>826</ele>
        <time>2021-02-21T14:11:47.585Z</time>
      </trkpt>
      <trkpt lat="48.51537" lon="7.16952">
        <ele>826</ele>
        <time>2021-02-21T14:11:48.585Z</time>
      </trkpt>
      <trkpt lat="48.51536" lon="7.16952">
        <ele>826</ele>
        <time>2021-02-21T14:11:49.585Z</time>
      </trkpt>
      <trkpt lat="48.51535" lon="7.16952">
        <ele>827</ele>
        <time>2021-02-21T14:11:50.585Z</time>
      </trkpt>
      <trkpt lat="48.51534" lon="7.16952">
        <ele>827</ele>
        <time>2021-02-21T14:11:51.585Z</time>
      </trkpt>
      <trkpt lat="48.51533" lon="7.16952">
        <ele>827</ele>
        <time>2021-02-21T14:11:52.585Z</time>
      </trkpt>
      <trkpt lat="48.51532" lon="7.16952">
        <ele>827</ele>
        <time>2021-02-21T14:11:53.585Z</time>
      </trkpt>
      <trkpt lat="48.51531" lon="7.16952">
        <ele>828</ele>
        <time>2021-02-21T14:11:54.585Z</time>
      </trkpt>
      <trkpt lat="48.51528" lon="7.16951">
        <ele>828</ele>
        <time>2021-02-21T14:11:55.584Z</time>
      </trkpt>
      <trkpt lat="48.51527" lon="7.16952">
        <ele>828</ele>
        <time>2021-02-21T14:11:56.584Z</time>
      </trkpt>
      <trkpt lat="48.51525" lon="7.16952">
        <ele>828</ele>
        <time>2021-02-21T14:11:57.585Z</time>
      </trkpt>
      <trkpt lat="48.51523" lon="7.16952">
        <ele>828</ele>
        <time>2021-02-21T14:11:58.585Z</time>
      </trkpt>
      <trkpt lat="48.51522" lon="7.16952">
        <ele>828</ele>
        <time>2021-02-21T14:11:59.585Z</time>
      </trkpt>
      <trkpt lat="48.51521" lon="7.16951">
        <ele>828</ele>
        <time>2021-02-21T14:12:00.585Z</time>
      </trkpt>
      <trkpt lat="48.5152" lon="7.1695">
        <ele>828</ele>
        <time>2021-02-21T14:12:01.585Z</time>
      </trkpt>
      <trkpt lat="48.51519" lon="7.16948">
        <ele>828</ele>
        <time>2021-02-21T14:12:02.585Z</time>
      </trkpt>
      <trkpt lat="48.51517" lon="7.16946">
        <ele>829</ele>
        <time>2021-02-21T14:12:03.585Z</time>
      </trkpt>
      <trkpt lat="48.51516" lon="7.16945">
        <ele>829</ele>
        <time>2021-02-21T14:12:04.585Z</time>
      </trkpt>
      <trkpt lat="48.51515" lon="7.16943">
        <ele>829</ele>
        <time>2021-02-21T14:12:05.585Z</time>
      </trkpt>
      <trkpt lat="48.51514" lon="7.16942">
        <ele>829</ele>
        <time>2021-02-21T14:12:06.584Z</time>
      </trkpt>
      <trkpt lat="48.51513" lon="7.16941">
        <ele>829</ele>
        <time>2021-02-21T14:12:07.584Z</time>
      </trkpt>
      <trkpt lat="48.51512" lon="7.1694">
        <ele>829</ele>
        <time>2021-02-21T14:12:08.585Z</time>
      </trkpt>
      <trkpt lat="48.51512" lon="7.16939">
        <ele>829</ele>
        <time>2021-02-21T14:12:09.585Z</time>
      </trkpt>
      <trkpt lat="48.51511" lon="7.16938">
        <ele>829</ele>
        <time>2021-02-21T14:12:10.585Z</time>
      </trkpt>
      <trkpt lat="48.5151" lon="7.16937">
        <ele>829</ele>
        <time>2021-02-21T14:12:11.584Z</time>
      </trkpt>
      <trkpt lat="48.51508" lon="7.16937">
        <ele>829</ele>
        <time>2021-02-21T14:12:12.585Z</time>
      </trkpt>
      <trkpt lat="48.51507" lon="7.16936">
        <ele>829</ele>
        <time>2021-02-21T14:12:14.669Z</time>
      </trkpt>
      <trkpt lat="48.51505" lon="7.16935">
        <ele>829</ele>
        <time>2021-02-21T14:12:15.670Z</time>
      </trkpt>
      <trkpt lat="48.51504" lon="7.16934">
        <ele>828</ele>
        <time>2021-02-21T14:12:16.670Z</time>
      </trkpt>
      <trkpt lat="48.51502" lon="7.16934">
        <ele>828</ele>
        <time>2021-02-21T14:12:17.669Z</time>
      </trkpt>
      <trkpt lat="48.51502" lon="7.16933">
        <ele>828</ele>
        <time>2021-02-21T14:12:18.670Z</time>
      </trkpt>
      <trkpt lat="48.515" lon="7.16932">
        <ele>827</ele>
        <time>2021-02-21T14:12:19.670Z</time>
      </trkpt>
      <trkpt lat="48.51499" lon="7.1693">
        <ele>827</ele>
        <time>2021-02-21T14:12:20.670Z</time>
      </trkpt>
      <trkpt lat="48.51499" lon="7.16929">
        <ele>827</ele>
        <time>2021-02-21T14:12:21.669Z</time>
      </trkpt>
      <trkpt lat="48.51498" lon="7.16928">
        <ele>827</ele>
        <time>2021-02-21T14:12:22.670Z</time>
      </trkpt>
      <trkpt lat="48.51497" lon="7.16926">
        <ele>827</ele>
        <time>2021-02-21T14:12:23.670Z</time>
      </trkpt>
      <trkpt lat="48.51496" lon="7.16925">
        <ele>827</ele>
        <time>2021-02-21T14:12:24.670Z</time>
      </trkpt>
      <trkpt lat="48.51494" lon="7.16924">
        <ele>827</ele>
        <time>2021-02-21T14:12:25.670Z</time>
      </trkpt>
      <trkpt lat="48.51493" lon="7.16922">
        <ele>827</ele>
        <time>2021-02-21T14:12:26.670Z</time>
      </trkpt>
      <trkpt lat="48.51492" lon="7.16921">
        <ele>827</ele>
        <time>2021-02-21T14:12:27.670Z</time>
      </trkpt>
      <trkpt lat="48.5149" lon="7.16921">
        <ele>827</ele>
        <time>2021-02-21T14:12:28.670Z</time>
      </trkpt>
      <trkpt lat="48.51489" lon="7.1692">
        <ele>826</ele>
        <time>2021-02-21T14:12:29.670Z</time>
      </trkpt>
      <trkpt lat="48.51487" lon="7.16919">
        <ele>826</ele>
        <time>2021-02-21T14:12:30.670Z</time>
      </trkpt>
      <trkpt lat="48.51486" lon="7.16918">
        <ele>826</ele>
        <time>2021-02-21T14:12:31.670Z</time>
      </trkpt>
      <trkpt lat="48.51484" lon="7.16918">
        <ele>826</ele>
        <time>2021-02-21T14:12:32.669Z</time>
      </trkpt>
      <trkpt lat="48.51483" lon="7.16917">
        <ele>826</ele>
        <time>2021-02-21T14:12:33.669Z</time>
      </trkpt>
      <trkpt lat="48.51482" lon="7.16917">
        <ele>826</ele>
        <time>2021-02-21T14:12:34.670Z</time>
      </trkpt>
      <trkpt lat="48.51481" lon="7.16917">
        <ele>826</ele>
        <time>2021-02-21T14:12:35.669Z</time>
      </trkpt>
      <trkpt lat="48.5148" lon="7.16917">
        <ele>826</ele>
        <time>2021-02-21T14:12:36.670Z</time>
      </trkpt>
      <trkpt lat="48.51479" lon="7.16916">
        <ele>826</ele>
        <time>2021-02-21T14:12:37.670Z</time>
      </trkpt>
      <trkpt lat="48.51478" lon="7.16916">
        <ele>826</ele>
        <time>2021-02-21T14:12:38.670Z</time>
      </trkpt>
      <trkpt lat="48.51476" lon="7.16915">
        <ele>826</ele>
        <time>2021-02-21T14:12:39.670Z</time>
      </trkpt>
      <trkpt lat="48.51475" lon="7.16915">
        <ele>826</ele>
        <time>2021-02-21T14:12:40.670Z</time>
      </trkpt>
      <trkpt lat="48.51474" lon="7.16915">
        <ele>826</ele>
        <time>2021-02-21T14:12:41.670Z</time>
      </trkpt>
      <trkpt lat="48.51473" lon="7.16914">
        <ele>827</ele>
        <time>2021-02-21T14:12:42.669Z</time>
      </trkpt>
      <trkpt lat="48.51472" lon="7.16914">
        <ele>827</ele>
        <time>2021-02-21T14:12:43.670Z</time>
      </trkpt>
      <trkpt lat="48.51471" lon="7.16913">
        <ele>827</ele>
        <time>2021-02-21T14:12:44.669Z</time>
      </trkpt>
      <trkpt lat="48.5147" lon="7.16912">
        <ele>827</ele>
        <time>2021-02-21T14:12:45.669Z</time>
      </trkpt>
      <trkpt lat="48.51469" lon="7.16912">
        <ele>827</ele>
        <time>2021-02-21T14:12:46.670Z</time>
      </trkpt>
      <trkpt lat="48.51468" lon="7.16911">
        <ele>827</ele>
        <time>2021-02-21T14:12:47.670Z</time>
      </trkpt>
      <trkpt lat="48.51467" lon="7.16911">
        <ele>827</ele>
        <time>2021-02-21T14:12:48.670Z</time>
      </trkpt>
      <trkpt lat="48.51467" lon="7.16911">
        <ele>827</ele>
        <time>2021-02-21T14:12:49.670Z</time>
      </trkpt>
      <trkpt lat="48.51466" lon="7.1691">
        <ele>827</ele>
        <time>2021-02-21T14:12:50.670Z</time>
      </trkpt>
      <trkpt lat="48.51466" lon="7.16911">
        <ele>827</ele>
        <time>2021-02-21T14:12:51.670Z</time>
      </trkpt>
      <trkpt lat="48.51465" lon="7.1691">
        <ele>826</ele>
        <time>2021-02-21T14:12:52.670Z</time>
      </trkpt>
      <trkpt lat="48.51464" lon="7.16911">
        <ele>826</ele>
        <time>2021-02-21T14:12:53.670Z</time>
      </trkpt>
      <trkpt lat="48.51462" lon="7.16911">
        <ele>826</ele>
        <time>2021-02-21T14:12:54.670Z</time>
      </trkpt>
      <trkpt lat="48.51462" lon="7.1691">
        <ele>826</ele>
        <time>2021-02-21T14:12:55.669Z</time>
      </trkpt>
      <trkpt lat="48.5146" lon="7.1691">
        <ele>825</ele>
        <time>2021-02-21T14:12:56.669Z</time>
      </trkpt>
      <trkpt lat="48.51458" lon="7.1691">
        <ele>825</ele>
        <time>2021-02-21T14:12:57.670Z</time>
      </trkpt>
      <trkpt lat="48.51458" lon="7.1691">
        <ele>825</ele>
        <time>2021-02-21T14:12:58.670Z</time>
      </trkpt>
      <trkpt lat="48.51456" lon="7.16909">
        <ele>824</ele>
        <time>2021-02-21T14:12:59.669Z</time>
      </trkpt>
      <trkpt lat="48.51455" lon="7.16909">
        <ele>824</ele>
        <time>2021-02-21T14:13:00.670Z</time>
      </trkpt>
      <trkpt lat="48.51454" lon="7.1691">
        <ele>823</ele>
        <time>2021-02-21T14:13:01.670Z</time>
      </trkpt>
      <trkpt lat="48.51452" lon="7.16911">
        <ele>823</ele>
        <time>2021-02-21T14:13:02.670Z</time>
      </trkpt>
      <trkpt lat="48.51451" lon="7.16912">
        <ele>822</ele>
        <time>2021-02-21T14:13:03.670Z</time>
      </trkpt>
      <trkpt lat="48.5145" lon="7.16912">
        <ele>822</ele>
        <time>2021-02-21T14:13:04.670Z</time>
      </trkpt>
      <trkpt lat="48.51448" lon="7.16912">
        <ele>822</ele>
        <time>2021-02-21T14:13:05.670Z</time>
      </trkpt>
      <trkpt lat="48.51447" lon="7.16912">
        <ele>822</ele>
        <time>2021-02-21T14:13:06.669Z</time>
      </trkpt>
      <trkpt lat="48.51446" lon="7.16912">
        <ele>822</ele>
        <time>2021-02-21T14:13:07.670Z</time>
      </trkpt>
      <trkpt lat="48.51445" lon="7.16912">
        <ele>821</ele>
        <time>2021-02-21T14:13:08.670Z</time>
      </trkpt>
      <trkpt lat="48.51444" lon="7.16913">
        <ele>821</ele>
        <time>2021-02-21T14:13:09.669Z</time>
      </trkpt>
      <trkpt lat="48.51443" lon="7.16913">
        <ele>821</ele>
        <time>2021-02-21T14:13:10.670Z</time>
      </trkpt>
      <trkpt lat="48.51442" lon="7.16913">
        <ele>821</ele>
        <time>2021-02-21T14:13:11.670Z</time>
      </trkpt>
      <trkpt lat="48.51442" lon="7.16912">
        <ele>822</ele>
        <time>2021-02-21T14:13:12.669Z</time>
      </trkpt>
      <trkpt lat="48.51441" lon="7.16912">
        <ele>822</ele>
        <time>2021-02-21T14:13:13.670Z</time>
      </trkpt>
      <trkpt lat="48.5144" lon="7.16911">
        <ele>822</ele>
        <time>2021-02-21T14:13:14.670Z</time>
      </trkpt>
      <trkpt lat="48.51439" lon="7.16912">
        <ele>823</ele>
        <time>2021-02-21T14:13:15.670Z</time>
      </trkpt>
      <trkpt lat="48.51437" lon="7.16912">
        <ele>824</ele>
        <time>2021-02-21T14:13:16.670Z</time>
      </trkpt>
      <trkpt lat="48.51437" lon="7.16912">
        <ele>824</ele>
        <time>2021-02-21T14:13:17.670Z</time>
      </trkpt>
      <trkpt lat="48.51436" lon="7.16913">
        <ele>824</ele>
        <time>2021-02-21T14:13:18.670Z</time>
      </trkpt>
      <trkpt lat="48.51435" lon="7.16913">
        <ele>825</ele>
        <time>2021-02-21T14:13:19.669Z</time>
      </trkpt>
      <trkpt lat="48.51434" lon="7.16913">
        <ele>825</ele>
        <time>2021-02-21T14:13:20.670Z</time>
      </trkpt>
      <trkpt lat="48.51433" lon="7.16913">
        <ele>825</ele>
        <time>2021-02-21T14:13:21.670Z</time>
      </trkpt>
      <trkpt lat="48.51432" lon="7.16912">
        <ele>826</ele>
        <time>2021-02-21T14:13:22.670Z</time>
      </trkpt>
      <trkpt lat="48.51431" lon="7.16912">
        <ele>826</ele>
        <time>2021-02-21T14:13:23.670Z</time>
      </trkpt>
      <trkpt lat="48.5143" lon="7.16912">
        <ele>826</ele>
        <time>2021-02-21T14:13:24.669Z</time>
      </trkpt>
      <trkpt lat="48.51429" lon="7.16911">
        <ele>826</ele>
        <time>2021-02-21T14:13:25.670Z</time>
      </trkpt>
      <trkpt lat="48.51428" lon="7.16911">
        <ele>826</ele>
        <time>2021-02-21T14:13:26.670Z</time>
      </trkpt>
      <trkpt lat="48.51428" lon="7.16911">
        <ele>826</ele>
        <time>2021-02-21T14:13:27.670Z</time>
      </trkpt>
      <trkpt lat="48.51427" lon="7.1691">
        <ele>826</ele>
        <time>2021-02-21T14:13:28.670Z</time>
      </trkpt>
      <trkpt lat="48.51427" lon="7.1691">
        <ele>826</ele>
        <time>2021-02-21T14:13:29.669Z</time>
      </trkpt>
      <trkpt lat="48.51426" lon="7.1691">
        <ele>826</ele>
        <time>2021-02-21T14:13:30.669Z</time>
      </trkpt>
      <trkpt lat="48.51424" lon="7.1691">
        <ele>826</ele>
        <time>2021-02-21T14:13:31.669Z</time>
      </trkpt>
      <trkpt lat="48.51423" lon="7.1691">
        <ele>826</ele>
        <time>2021-02-21T14:13:32.670Z</time>
      </trkpt>
      <trkpt lat="48.51422" lon="7.1691">
        <ele>826</ele>
        <time>2021-02-21T14:13:33.670Z</time>
      </trkpt>
      <trkpt lat="48.51421" lon="7.16911">
        <ele>826</ele>
        <time>2021-02-21T14:13:34.670Z</time>
      </trkpt>
      <trkpt lat="48.51419" lon="7.16911">
        <ele>826</ele>
        <time>2021-02-21T14:13:35.670Z</time>
      </trkpt>
      <trkpt lat="48.51418" lon="7.16912">
        <ele>826</ele>
        <time>2021-02-21T14:13:36.670Z</time>
      </trkpt>
      <trkpt lat="48.51416" lon="7.16912">
        <ele>826</ele>
        <time>2021-02-21T14:13:37.670Z</time>
      </trkpt>
      <trkpt lat="48.51415" lon="7.16911">
        <ele>826</ele>
        <time>2021-02-21T14:13:38.669Z</time>
      </trkpt>
      <trkpt lat="48.51414" lon="7.16911">
        <ele>825</ele>
        <time>2021-02-21T14:13:39.670Z</time>
      </trkpt>
      <trkpt lat="48.51413" lon="7.16911">
        <ele>825</ele>
        <time>2021-02-21T14:13:40.670Z</time>
      </trkpt>
      <trkpt lat="48.51412" lon="7.16911">
        <ele>825</ele>
        <time>2021-02-21T14:13:41.669Z</time>
      </trkpt>
      <trkpt lat="48.51411" lon="7.16911">
        <ele>825</ele>
        <time>2021-02-21T14:13:42.670Z</time>
      </trkpt>
      <trkpt lat="48.5141" lon="7.16912">
        <ele>825</ele>
        <time>2021-02-21T14:13:43.670Z</time>
      </trkpt>
      <trkpt lat="48.51409" lon="7.16912">
        <ele>825</ele>
        <time>2021-02-21T14:13:44.670Z</time>
      </trkpt>
      <trkpt lat="48.51407" lon="7.16913">
        <ele>825</ele>
        <time>2021-02-21T14:13:45.669Z</time>
      </trkpt>
      <trkpt lat="48.51406" lon="7.16913">
        <ele>825</ele>
        <time>2021-02-21T14:13:46.670Z</time>
      </trkpt>
      <trkpt lat="48.51406" lon="7.16913">
        <ele>825</ele>
        <time>2021-02-21T14:13:47.669Z</time>
      </trkpt>
      <trkpt lat="48.51405" lon="7.16913">
        <ele>826</ele>
        <time>2021-02-21T14:13:48.670Z</time>
      </trkpt>
      <trkpt lat="48.51403" lon="7.16915">
        <ele>826</ele>
        <time>2021-02-21T14:13:49.670Z</time>
      </trkpt>
      <trkpt lat="48.51401" lon="7.16916">
        <ele>827</ele>
        <time>2021-02-21T14:13:50.670Z</time>
      </trkpt>
      <trkpt lat="48.514" lon="7.16916">
        <ele>827</ele>
        <time>2021-02-21T14:13:51.669Z</time>
      </trkpt>
      <trkpt lat="48.51398" lon="7.16917">
        <ele>827</ele>
        <time>2021-02-21T14:13:52.670Z</time>
      </trkpt>
      <trkpt lat="48.51396" lon="7.16918">
        <ele>828</ele>
        <time>2021-02-21T14:13:53.670Z</time>
      </trkpt>
      <trkpt lat="48.51394" lon="7.16919">
        <ele>828</ele>
        <time>2021-02-21T14:13:54.670Z</time>
      </trkpt>
      <trkpt lat="48.51392" lon="7.16921">
        <ele>828</ele>
        <time>2021-02-21T14:13:55.670Z</time>
      </trkpt>
      <trkpt lat="48.51391" lon="7.16923">
        <ele>829</ele>
        <time>2021-02-21T14:13:56.670Z</time>
      </trkpt>
      <trkpt lat="48.51389" lon="7.16923">
        <ele>829</ele>
        <time>2021-02-21T14:13:57.670Z</time>
      </trkpt>
      <trkpt lat="48.51388" lon="7.16924">
        <ele>830</ele>
        <time>2021-02-21T14:13:58.670Z</time>
      </trkpt>
      <trkpt lat="48.51387" lon="7.16925">
        <ele>830</ele>
        <time>2021-02-21T14:13:59.669Z</time>
      </trkpt>
      <trkpt lat="48.51386" lon="7.16926">
        <ele>831</ele>
        <time>2021-02-21T14:14:00.669Z</time>
      </trkpt>
      <trkpt lat="48.51386" lon="7.16928">
        <ele>831</ele>
        <time>2021-02-21T14:14:01.670Z</time>
      </trkpt>
      <trkpt lat="48.51385" lon="7.16929">
        <ele>831</ele>
        <time>2021-02-21T14:14:02.670Z</time>
      </trkpt>
      <trkpt lat="48.51385" lon="7.1693">
        <ele>832</ele>
        <time>2021-02-21T14:14:03.670Z</time>
      </trkpt>
      <trkpt lat="48.51383" lon="7.16931">
        <ele>832</ele>
        <time>2021-02-21T14:14:04.670Z</time>
      </trkpt>
      <trkpt lat="48.51381" lon="7.16932">
        <ele>833</ele>
        <time>2021-02-21T14:14:05.669Z</time>
      </trkpt>
      <trkpt lat="48.5138" lon="7.16933">
        <ele>833</ele>
        <time>2021-02-21T14:14:06.670Z</time>
      </trkpt>
      <trkpt lat="48.51379" lon="7.16934">
        <ele>833</ele>
        <time>2021-02-21T14:14:07.669Z</time>
      </trkpt>
      <trkpt lat="48.51378" lon="7.16934">
        <ele>834</ele>
        <time>2021-02-21T14:14:08.670Z</time>
      </trkpt>
      <trkpt lat="48.51377" lon="7.16935">
        <ele>834</ele>
        <time>2021-02-21T14:14:09.670Z</time>
      </trkpt>
      <trkpt lat="48.51377" lon="7.16935">
        <ele>835</ele>
        <time>2021-02-21T14:14:10.670Z</time>
      </trkpt>
      <trkpt lat="48.51375" lon="7.16937">
        <ele>836</ele>
        <time>2021-02-21T14:14:11.669Z</time>
      </trkpt>
      <trkpt lat="48.51375" lon="7.16938">
        <ele>837</ele>
        <time>2021-02-21T14:14:12.670Z</time>
      </trkpt>
      <trkpt lat="48.51374" lon="7.16939">
        <ele>837</ele>
        <time>2021-02-21T14:14:13.670Z</time>
      </trkpt>
      <trkpt lat="48.51372" lon="7.1694">
        <ele>838</ele>
        <time>2021-02-21T14:14:14.670Z</time>
      </trkpt>
      <trkpt lat="48.51371" lon="7.1694">
        <ele>838</ele>
        <time>2021-02-21T14:14:15.670Z</time>
      </trkpt>
      <trkpt lat="48.5137" lon="7.16941">
        <ele>839</ele>
        <time>2021-02-21T14:14:16.670Z</time>
      </trkpt>
      <trkpt lat="48.51369" lon="7.16941">
        <ele>839</ele>
        <time>2021-02-21T14:14:17.669Z</time>
      </trkpt>
      <trkpt lat="48.51368" lon="7.16942">
        <ele>840</ele>
        <time>2021-02-21T14:14:18.670Z</time>
      </trkpt>
      <trkpt lat="48.51367" lon="7.16943">
        <ele>840</ele>
        <time>2021-02-21T14:14:19.670Z</time>
      </trkpt>
      <trkpt lat="48.51366" lon="7.16945">
        <ele>840</ele>
        <time>2021-02-21T14:14:20.670Z</time>
      </trkpt>
      <trkpt lat="48.51365" lon="7.16947">
        <ele>841</ele>
        <time>2021-02-21T14:14:21.670Z</time>
      </trkpt>
      <trkpt lat="48.51364" lon="7.16948">
        <ele>841</ele>
        <time>2021-02-21T14:14:22.670Z</time>
      </trkpt>
      <trkpt lat="48.51362" lon="7.16949">
        <ele>841</ele>
        <time>2021-02-21T14:14:23.670Z</time>
      </trkpt>
      <trkpt lat="48.5136" lon="7.1695">
        <ele>841</ele>
        <time>2021-02-21T14:14:24.670Z</time>
      </trkpt>
      <trkpt lat="48.51359" lon="7.16952">
        <ele>841</ele>
        <time>2021-02-21T14:14:25.670Z</time>
      </trkpt>
      <trkpt lat="48.51358" lon="7.16954">
        <ele>841</ele>
        <time>2021-02-21T14:14:26.669Z</time>
      </trkpt>
      <trkpt lat="48.51357" lon="7.16956">
        <ele>842</ele>
        <time>2021-02-21T14:14:27.670Z</time>
      </trkpt>
      <trkpt lat="48.51357" lon="7.16956">
        <ele>842</ele>
        <time>2021-02-21T14:14:28.670Z</time>
      </trkpt>
      <trkpt lat="48.51356" lon="7.16957">
        <ele>842</ele>
        <time>2021-02-21T14:14:29.669Z</time>
      </trkpt>
      <trkpt lat="48.51355" lon="7.16958">
        <ele>842</ele>
        <time>2021-02-21T14:14:30.670Z</time>
      </trkpt>
      <trkpt lat="48.51353" lon="7.16959">
        <ele>842</ele>
        <time>2021-02-21T14:14:31.670Z</time>
      </trkpt>
      <trkpt lat="48.51352" lon="7.1696">
        <ele>841</ele>
        <time>2021-02-21T14:14:32.669Z</time>
      </trkpt>
      <trkpt lat="48.5135" lon="7.16961">
        <ele>841</ele>
        <time>2021-02-21T14:14:33.669Z</time>
      </trkpt>
      <trkpt lat="48.51349" lon="7.16961">
        <ele>840</ele>
        <time>2021-02-21T14:14:34.670Z</time>
      </trkpt>
      <trkpt lat="48.51348" lon="7.16962">
        <ele>840</ele>
        <time>2021-02-21T14:14:35.670Z</time>
      </trkpt>
      <trkpt lat="48.51347" lon="7.16963">
        <ele>839</ele>
        <time>2021-02-21T14:14:36.670Z</time>
      </trkpt>
      <trkpt lat="48.51346" lon="7.16964">
        <ele>839</ele>
        <time>2021-02-21T14:14:37.670Z</time>
      </trkpt>
      <trkpt lat="48.51345" lon="7.16965">
        <ele>839</ele>
        <time>2021-02-21T14:14:38.669Z</time>
      </trkpt>
      <trkpt lat="48.51343" lon="7.16966">
        <ele>839</ele>
        <time>2021-02-21T14:14:39.669Z</time>
      </trkpt>
      <trkpt lat="48.51342" lon="7.16967">
        <ele>839</ele>
        <time>2021-02-21T14:14:40.670Z</time>
      </trkpt>
      <trkpt lat="48.51341" lon="7.16968">
        <ele>839</ele>
        <time>2021-02-21T14:14:41.670Z</time>
      </trkpt>
      <trkpt lat="48.51341" lon="7.16968">
        <ele>839</ele>
        <time>2021-02-21T14:14:42.670Z</time>
      </trkpt>
      <trkpt lat="48.5134" lon="7.16969">
        <ele>839</ele>
        <time>2021-02-21T14:14:43.670Z</time>
      </trkpt>
      <trkpt lat="48.51339" lon="7.1697">
        <ele>838</ele>
        <time>2021-02-21T14:14:44.669Z</time>
      </trkpt>
      <trkpt lat="48.51339" lon="7.16971">
        <ele>838</ele>
        <time>2021-02-21T14:14:45.669Z</time>
      </trkpt>
      <trkpt lat="48.51338" lon="7.16971">
        <ele>838</ele>
        <time>2021-02-21T14:14:46.669Z</time>
      </trkpt>
      <trkpt lat="48.51337" lon="7.16973">
        <ele>837</ele>
        <time>2021-02-21T14:14:47.669Z</time>
      </trkpt>
      <trkpt lat="48.51336" lon="7.16974">
        <ele>838</ele>
        <time>2021-02-21T14:14:48.670Z</time>
      </trkpt>
      <trkpt lat="48.51335" lon="7.16976">
        <ele>839</ele>
        <time>2021-02-21T14:14:49.670Z</time>
      </trkpt>
      <trkpt lat="48.51333" lon="7.16978">
        <ele>840</ele>
        <time>2021-02-21T14:14:50.670Z</time>
      </trkpt>
      <trkpt lat="48.51331" lon="7.1698">
        <ele>841</ele>
        <time>2021-02-21T14:14:51.670Z</time>
      </trkpt>
      <trkpt lat="48.5133" lon="7.16982">
        <ele>842</ele>
        <time>2021-02-21T14:14:52.670Z</time>
      </trkpt>
      <trkpt lat="48.51329" lon="7.16983">
        <ele>843</ele>
        <time>2021-02-21T14:14:53.670Z</time>
      </trkpt>
      <trkpt lat="48.51329" lon="7.16984">
        <ele>844</ele>
        <time>2021-02-21T14:14:54.669Z</time>
      </trkpt>
      <trkpt lat="48.51328" lon="7.16985">
        <ele>845</ele>
        <time>2021-02-21T14:14:55.670Z</time>
      </trkpt>
      <trkpt lat="48.51328" lon="7.16986">
        <ele>845</ele>
        <time>2021-02-21T14:14:56.670Z</time>
      </trkpt>
      <trkpt lat="48.51328" lon="7.16987">
        <ele>846</ele>
        <time>2021-02-21T14:14:57.670Z</time>
      </trkpt>
      <trkpt lat="48.51327" lon="7.16987">
        <ele>846</ele>
        <time>2021-02-21T14:14:58.670Z</time>
      </trkpt>
      <trkpt lat="48.51327" lon="7.16988">
        <ele>846</ele>
        <time>2021-02-21T14:14:59.670Z</time>
      </trkpt>
      <trkpt lat="48.51327" lon="7.16989">
        <ele>847</ele>
        <time>2021-02-21T14:15:00.670Z</time>
      </trkpt>
      <trkpt lat="48.51326" lon="7.1699">
        <ele>847</ele>
        <time>2021-02-21T14:15:01.670Z</time>
      </trkpt>
      <trkpt lat="48.51324" lon="7.16991">
        <ele>847</ele>
        <time>2021-02-21T14:15:02.670Z</time>
      </trkpt>
      <trkpt lat="48.51323" lon="7.16992">
        <ele>847</ele>
        <time>2021-02-21T14:15:03.670Z</time>
      </trkpt>
      <trkpt lat="48.51322" lon="7.16993">
        <ele>847</ele>
        <time>2021-02-21T14:15:04.670Z</time>
      </trkpt>
      <trkpt lat="48.51321" lon="7.16994">
        <ele>847</ele>
        <time>2021-02-21T14:15:05.669Z</time>
      </trkpt>
      <trkpt lat="48.5132" lon="7.16995">
        <ele>846</ele>
        <time>2021-02-21T14:15:06.670Z</time>
      </trkpt>
      <trkpt lat="48.51319" lon="7.16996">
        <ele>845</ele>
        <time>2021-02-21T14:15:07.670Z</time>
      </trkpt>
      <trkpt lat="48.51318" lon="7.16996">
        <ele>844</ele>
        <time>2021-02-21T14:15:08.670Z</time>
      </trkpt>
      <trkpt lat="48.51317" lon="7.16997">
        <ele>844</ele>
        <time>2021-02-21T14:15:09.670Z</time>
      </trkpt>
      <trkpt lat="48.51316" lon="7.16997">
        <ele>843</ele>
        <time>2021-02-21T14:15:10.670Z</time>
      </trkpt>
      <trkpt lat="48.51314" lon="7.16998">
        <ele>843</ele>
        <time>2021-02-21T14:15:11.670Z</time>
      </trkpt>
      <trkpt lat="48.51312" lon="7.17">
        <ele>843</ele>
        <time>2021-02-21T14:15:12.670Z</time>
      </trkpt>
      <trkpt lat="48.51311" lon="7.17001">
        <ele>843</ele>
        <time>2021-02-21T14:15:13.669Z</time>
      </trkpt>
      <trkpt lat="48.5131" lon="7.17003">
        <ele>842</ele>
        <time>2021-02-21T14:15:14.669Z</time>
      </trkpt>
      <trkpt lat="48.51309" lon="7.17004">
        <ele>842</ele>
        <time>2021-02-21T14:15:15.670Z</time>
      </trkpt>
      <trkpt lat="48.51308" lon="7.17005">
        <ele>842</ele>
        <time>2021-02-21T14:15:16.669Z</time>
      </trkpt>
      <trkpt lat="48.51307" lon="7.17007">
        <ele>842</ele>
        <time>2021-02-21T14:15:17.669Z</time>
      </trkpt>
      <trkpt lat="48.51307" lon="7.17007">
        <ele>842</ele>
        <time>2021-02-21T14:15:18.670Z</time>
      </trkpt>
      <trkpt lat="48.51306" lon="7.17008">
        <ele>842</ele>
        <time>2021-02-21T14:15:19.670Z</time>
      </trkpt>
      <trkpt lat="48.51305" lon="7.17008">
        <ele>842</ele>
        <time>2021-02-21T14:15:20.670Z</time>
      </trkpt>
      <trkpt lat="48.51304" lon="7.17009">
        <ele>842</ele>
        <time>2021-02-21T14:15:21.670Z</time>
      </trkpt>
      <trkpt lat="48.51303" lon="7.17009">
        <ele>842</ele>
        <time>2021-02-21T14:15:22.670Z</time>
      </trkpt>
      <trkpt lat="48.51302" lon="7.1701">
        <ele>842</ele>
        <time>2021-02-21T14:15:23.670Z</time>
      </trkpt>
      <trkpt lat="48.513" lon="7.17011">
        <ele>841</ele>
        <time>2021-02-21T14:15:24.669Z</time>
      </trkpt>
      <trkpt lat="48.51299" lon="7.17012">
        <ele>841</ele>
        <time>2021-02-21T14:15:25.670Z</time>
      </trkpt>
      <trkpt lat="48.51298" lon="7.17013">
        <ele>841</ele>
        <time>2021-02-21T14:15:26.669Z</time>
      </trkpt>
      <trkpt lat="48.51297" lon="7.17014">
        <ele>841</ele>
        <time>2021-02-21T14:15:27.669Z</time>
      </trkpt>
      <trkpt lat="48.51295" lon="7.17015">
        <ele>841</ele>
        <time>2021-02-21T14:15:28.670Z</time>
      </trkpt>
      <trkpt lat="48.51293" lon="7.17017">
        <ele>841</ele>
        <time>2021-02-21T14:15:29.670Z</time>
      </trkpt>
      <trkpt lat="48.51292" lon="7.17018">
        <ele>842</ele>
        <time>2021-02-21T14:15:30.670Z</time>
      </trkpt>
      <trkpt lat="48.5129" lon="7.1702">
        <ele>842</ele>
        <time>2021-02-21T14:15:31.670Z</time>
      </trkpt>
      <trkpt lat="48.51288" lon="7.17021">
        <ele>842</ele>
        <time>2021-02-21T14:15:32.670Z</time>
      </trkpt>
      <trkpt lat="48.51287" lon="7.17023">
        <ele>843</ele>
        <time>2021-02-21T14:15:33.670Z</time>
      </trkpt>
      <trkpt lat="48.51286" lon="7.17024">
        <ele>843</ele>
        <time>2021-02-21T14:15:34.670Z</time>
      </trkpt>
      <trkpt lat="48.51284" lon="7.17026">
        <ele>844</ele>
        <time>2021-02-21T14:15:35.670Z</time>
      </trkpt>
      <trkpt lat="48.51282" lon="7.17027">
        <ele>844</ele>
        <time>2021-02-21T14:15:36.669Z</time>
      </trkpt>
      <trkpt lat="48.51281" lon="7.17028">
        <ele>844</ele>
        <time>2021-02-21T14:15:37.670Z</time>
      </trkpt>
      <trkpt lat="48.5128" lon="7.17029">
        <ele>845</ele>
        <time>2021-02-21T14:15:38.670Z</time>
      </trkpt>
      <trkpt lat="48.51279" lon="7.1703">
        <ele>845</ele>
        <time>2021-02-21T14:15:39.670Z</time>
      </trkpt>
      <trkpt lat="48.51278" lon="7.17031">
        <ele>845</ele>
        <time>2021-02-21T14:15:40.670Z</time>
      </trkpt>
      <trkpt lat="48.51278" lon="7.17031">
        <ele>844</ele>
        <time>2021-02-21T14:15:41.670Z</time>
      </trkpt>
      <trkpt lat="48.51277" lon="7.17032">
        <ele>844</ele>
        <time>2021-02-21T14:15:42.669Z</time>
      </trkpt>
      <trkpt lat="48.51275" lon="7.17032">
        <ele>844</ele>
        <time>2021-02-21T14:15:43.670Z</time>
      </trkpt>
      <trkpt lat="48.51273" lon="7.17034">
        <ele>844</ele>
        <time>2021-02-21T14:15:44.670Z</time>
      </trkpt>
      <trkpt lat="48.51272" lon="7.17035">
        <ele>844</ele>
        <time>2021-02-21T14:15:45.669Z</time>
      </trkpt>
      <trkpt lat="48.51271" lon="7.17035">
        <ele>843</ele>
        <time>2021-02-21T14:15:46.670Z</time>
      </trkpt>
      <trkpt lat="48.5127" lon="7.17036">
        <ele>843</ele>
        <time>2021-02-21T14:15:47.669Z</time>
      </trkpt>
      <trkpt lat="48.51267" lon="7.17038">
        <ele>843</ele>
        <time>2021-02-21T14:15:48.670Z</time>
      </trkpt>
      <trkpt lat="48.51265" lon="7.17039">
        <ele>842</ele>
        <time>2021-02-21T14:15:49.670Z</time>
      </trkpt>
      <trkpt lat="48.51262" lon="7.1704">
        <ele>842</ele>
        <time>2021-02-21T14:15:50.670Z</time>
      </trkpt>
      <trkpt lat="48.51261" lon="7.1704">
        <ele>842</ele>
        <time>2021-02-21T14:15:51.670Z</time>
      </trkpt>
      <trkpt lat="48.5126" lon="7.17041">
        <ele>842</ele>
        <time>2021-02-21T14:15:52.670Z</time>
      </trkpt>
      <trkpt lat="48.51258" lon="7.17042">
        <ele>842</ele>
        <time>2021-02-21T14:15:53.670Z</time>
      </trkpt>
      <trkpt lat="48.51258" lon="7.17042">
        <ele>842</ele>
        <time>2021-02-21T14:15:54.670Z</time>
      </trkpt>
      <trkpt lat="48.51257" lon="7.17044">
        <ele>842</ele>
        <time>2021-02-21T14:15:55.670Z</time>
      </trkpt>
      <trkpt lat="48.51256" lon="7.17045">
        <ele>842</ele>
        <time>2021-02-21T14:15:56.670Z</time>
      </trkpt>
      <trkpt lat="48.51254" lon="7.17047">
        <ele>842</ele>
        <time>2021-02-21T14:15:57.670Z</time>
      </trkpt>
      <trkpt lat="48.51253" lon="7.17048">
        <ele>842</ele>
        <time>2021-02-21T14:15:58.670Z</time>
      </trkpt>
      <trkpt lat="48.51252" lon="7.17048">
        <ele>842</ele>
        <time>2021-02-21T14:15:59.670Z</time>
      </trkpt>
      <trkpt lat="48.51251" lon="7.17048">
        <ele>842</ele>
        <time>2021-02-21T14:16:00.670Z</time>
      </trkpt>
      <trkpt lat="48.5125" lon="7.17049">
        <ele>842</ele>
        <time>2021-02-21T14:16:01.669Z</time>
      </trkpt>
      <trkpt lat="48.51248" lon="7.17049">
        <ele>842</ele>
        <time>2021-02-21T14:16:02.670Z</time>
      </trkpt>
      <trkpt lat="48.51246" lon="7.17049">
        <ele>842</ele>
        <time>2021-02-21T14:16:03.669Z</time>
      </trkpt>
      <trkpt lat="48.51245" lon="7.1705">
        <ele>842</ele>
        <time>2021-02-21T14:16:04.669Z</time>
      </trkpt>
      <trkpt lat="48.51244" lon="7.1705">
        <ele>842</ele>
        <time>2021-02-21T14:16:05.670Z</time>
      </trkpt>
      <trkpt lat="48.51242" lon="7.1705">
        <ele>843</ele>
        <time>2021-02-21T14:16:06.670Z</time>
      </trkpt>
      <trkpt lat="48.5124" lon="7.17051">
        <ele>843</ele>
        <time>2021-02-21T14:16:07.670Z</time>
      </trkpt>
      <trkpt lat="48.51239" lon="7.17051">
        <ele>843</ele>
        <time>2021-02-21T14:16:08.669Z</time>
      </trkpt>
      <trkpt lat="48.51238" lon="7.1705">
        <ele>843</ele>
        <time>2021-02-21T14:16:09.670Z</time>
      </trkpt>
      <trkpt lat="48.51236" lon="7.1705">
        <ele>842</ele>
        <time>2021-02-21T14:16:10.669Z</time>
      </trkpt>
      <trkpt lat="48.51234" lon="7.1705">
        <ele>842</ele>
        <time>2021-02-21T14:16:11.670Z</time>
      </trkpt>
      <trkpt lat="48.51234" lon="7.1705">
        <ele>841</ele>
        <time>2021-02-21T14:16:12.669Z</time>
      </trkpt>
      <trkpt lat="48.51233" lon="7.1705">
        <ele>841</ele>
        <time>2021-02-21T14:16:13.669Z</time>
      </trkpt>
      <trkpt lat="48.51232" lon="7.1705">
        <ele>841</ele>
        <time>2021-02-21T14:16:14.670Z</time>
      </trkpt>
      <trkpt lat="48.51229" lon="7.17051">
        <ele>841</ele>
        <time>2021-02-21T14:16:15.670Z</time>
      </trkpt>
      <trkpt lat="48.51228" lon="7.17051">
        <ele>841</ele>
        <time>2021-02-21T14:16:16.670Z</time>
      </trkpt>
      <trkpt lat="48.51227" lon="7.17052">
        <ele>841</ele>
        <time>2021-02-21T14:16:17.669Z</time>
      </trkpt>
      <trkpt lat="48.51225" lon="7.17051">
        <ele>841</ele>
        <time>2021-02-21T14:16:18.670Z</time>
      </trkpt>
      <trkpt lat="48.51224" lon="7.1705">
        <ele>841</ele>
        <time>2021-02-21T14:16:19.670Z</time>
      </trkpt>
      <trkpt lat="48.51223" lon="7.1705">
        <ele>841</ele>
        <time>2021-02-21T14:16:20.670Z</time>
      </trkpt>
      <trkpt lat="48.51221" lon="7.17051">
        <ele>842</ele>
        <time>2021-02-21T14:16:21.669Z</time>
      </trkpt>
      <trkpt lat="48.5122" lon="7.17051">
        <ele>842</ele>
        <time>2021-02-21T14:16:22.669Z</time>
      </trkpt>
      <trkpt lat="48.51219" lon="7.17051">
        <ele>842</ele>
        <time>2021-02-21T14:16:23.669Z</time>
      </trkpt>
      <trkpt lat="48.51218" lon="7.17051">
        <ele>842</ele>
        <time>2021-02-21T14:16:24.670Z</time>
      </trkpt>
      <trkpt lat="48.51218" lon="7.17051">
        <ele>842</ele>
        <time>2021-02-21T14:16:25.670Z</time>
      </trkpt>
      <trkpt lat="48.51217" lon="7.17051">
        <ele>842</ele>
        <time>2021-02-21T14:16:26.670Z</time>
      </trkpt>
      <trkpt lat="48.51215" lon="7.1705">
        <ele>842</ele>
        <time>2021-02-21T14:16:27.669Z</time>
      </trkpt>
      <trkpt lat="48.51214" lon="7.1705">
        <ele>842</ele>
        <time>2021-02-21T14:16:28.670Z</time>
      </trkpt>
      <trkpt lat="48.51213" lon="7.1705">
        <ele>842</ele>
        <time>2021-02-21T14:16:29.670Z</time>
      </trkpt>
      <trkpt lat="48.51211" lon="7.1705">
        <ele>842</ele>
        <time>2021-02-21T14:16:30.670Z</time>
      </trkpt>
      <trkpt lat="48.51209" lon="7.1705">
        <ele>842</ele>
        <time>2021-02-21T14:16:31.669Z</time>
      </trkpt>
      <trkpt lat="48.51207" lon="7.17051">
        <ele>841</ele>
        <time>2021-02-21T14:16:32.670Z</time>
      </trkpt>
      <trkpt lat="48.51206" lon="7.17051">
        <ele>841</ele>
        <time>2021-02-21T14:16:33.670Z</time>
      </trkpt>
      <trkpt lat="48.51204" lon="7.17051">
        <ele>841</ele>
        <time>2021-02-21T14:16:34.669Z</time>
      </trkpt>
      <trkpt lat="48.51203" lon="7.1705">
        <ele>841</ele>
        <time>2021-02-21T14:16:35.670Z</time>
      </trkpt>
      <trkpt lat="48.51201" lon="7.1705">
        <ele>841</ele>
        <time>2021-02-21T14:16:36.670Z</time>
      </trkpt>
      <trkpt lat="48.512" lon="7.1705">
        <ele>841</ele>
        <time>2021-02-21T14:16:37.670Z</time>
      </trkpt>
      <trkpt lat="48.51198" lon="7.1705">
        <ele>841</ele>
        <time>2021-02-21T14:16:38.670Z</time>
      </trkpt>
      <trkpt lat="48.51197" lon="7.1705">
        <ele>841</ele>
        <time>2021-02-21T14:16:39.670Z</time>
      </trkpt>
      <trkpt lat="48.51195" lon="7.1705">
        <ele>841</ele>
        <time>2021-02-21T14:16:40.670Z</time>
      </trkpt>
      <trkpt lat="48.51193" lon="7.1705">
        <ele>841</ele>
        <time>2021-02-21T14:16:41.670Z</time>
      </trkpt>
      <trkpt lat="48.51192" lon="7.1705">
        <ele>841</ele>
        <time>2021-02-21T14:16:42.669Z</time>
      </trkpt>
      <trkpt lat="48.51191" lon="7.1705">
        <ele>841</ele>
        <time>2021-02-21T14:16:43.670Z</time>
      </trkpt>
      <trkpt lat="48.5119" lon="7.17049">
        <ele>841</ele>
        <time>2021-02-21T14:16:44.669Z</time>
      </trkpt>
      <trkpt lat="48.51189" lon="7.17048">
        <ele>841</ele>
        <time>2021-02-21T14:16:45.670Z</time>
      </trkpt>
      <trkpt lat="48.51187" lon="7.17048">
        <ele>840</ele>
        <time>2021-02-21T14:16:46.670Z</time>
      </trkpt>
      <trkpt lat="48.51186" lon="7.17047">
        <ele>839</ele>
        <time>2021-02-21T14:16:47.669Z</time>
      </trkpt>
      <trkpt lat="48.51185" lon="7.17047">
        <ele>839</ele>
        <time>2021-02-21T14:16:48.670Z</time>
      </trkpt>
      <trkpt lat="48.51184" lon="7.17046">
        <ele>838</ele>
        <time>2021-02-21T14:16:49.670Z</time>
      </trkpt>
      <trkpt lat="48.51183" lon="7.17045">
        <ele>838</ele>
        <time>2021-02-21T14:16:50.670Z</time>
      </trkpt>
      <trkpt lat="48.51181" lon="7.17044">
        <ele>837</ele>
        <time>2021-02-21T14:16:51.670Z</time>
      </trkpt>
      <trkpt lat="48.51179" lon="7.17044">
        <ele>837</ele>
        <time>2021-02-21T14:16:52.670Z</time>
      </trkpt>
      <trkpt lat="48.51178" lon="7.17044">
        <ele>837</ele>
        <time>2021-02-21T14:16:53.670Z</time>
      </trkpt>
      <trkpt lat="48.51176" lon="7.17044">
        <ele>836</ele>
        <time>2021-02-21T14:16:54.670Z</time>
      </trkpt>
      <trkpt lat="48.51174" lon="7.17044">
        <ele>836</ele>
        <time>2021-02-21T14:16:55.670Z</time>
      </trkpt>
      <trkpt lat="48.51172" lon="7.17044">
        <ele>835</ele>
        <time>2021-02-21T14:16:56.670Z</time>
      </trkpt>
      <trkpt lat="48.51171" lon="7.17044">
        <ele>835</ele>
        <time>2021-02-21T14:16:57.670Z</time>
      </trkpt>
      <trkpt lat="48.5117" lon="7.17044">
        <ele>835</ele>
        <time>2021-02-21T14:16:58.670Z</time>
      </trkpt>
      <trkpt lat="48.51169" lon="7.17043">
        <ele>835</ele>
        <time>2021-02-21T14:16:59.669Z</time>
      </trkpt>
      <trkpt lat="48.51168" lon="7.17042">
        <ele>835</ele>
        <time>2021-02-21T14:17:00.669Z</time>
      </trkpt>
      <trkpt lat="48.51167" lon="7.17042">
        <ele>834</ele>
        <time>2021-02-21T14:17:01.670Z</time>
      </trkpt>
      <trkpt lat="48.51166" lon="7.17043">
        <ele>834</ele>
        <time>2021-02-21T14:17:02.670Z</time>
      </trkpt>
      <trkpt lat="48.51165" lon="7.17043">
        <ele>835</ele>
        <time>2021-02-21T14:17:03.670Z</time>
      </trkpt>
      <trkpt lat="48.51164" lon="7.17043">
        <ele>835</ele>
        <time>2021-02-21T14:17:04.669Z</time>
      </trkpt>
      <trkpt lat="48.51162" lon="7.17042">
        <ele>835</ele>
        <time>2021-02-21T14:17:05.670Z</time>
      </trkpt>
      <trkpt lat="48.51161" lon="7.17041">
        <ele>835</ele>
        <time>2021-02-21T14:17:06.670Z</time>
      </trkpt>
      <trkpt lat="48.51159" lon="7.17041">
        <ele>835</ele>
        <time>2021-02-21T14:17:07.669Z</time>
      </trkpt>
      <trkpt lat="48.51157" lon="7.17041">
        <ele>835</ele>
        <time>2021-02-21T14:17:08.670Z</time>
      </trkpt>
      <trkpt lat="48.51156" lon="7.17041">
        <ele>835</ele>
        <time>2021-02-21T14:17:09.669Z</time>
      </trkpt>
      <trkpt lat="48.51154" lon="7.17042">
        <ele>836</ele>
        <time>2021-02-21T14:17:10.670Z</time>
      </trkpt>
      <trkpt lat="48.51153" lon="7.17041">
        <ele>836</ele>
        <time>2021-02-21T14:17:11.669Z</time>
      </trkpt>
      <trkpt lat="48.5115" lon="7.17042">
        <ele>837</ele>
        <time>2021-02-21T14:17:12.670Z</time>
      </trkpt>
      <trkpt lat="48.51148" lon="7.17043">
        <ele>837</ele>
        <time>2021-02-21T14:17:13.670Z</time>
      </trkpt>
      <trkpt lat="48.51146" lon="7.17042">
        <ele>837</ele>
        <time>2021-02-21T14:17:14.670Z</time>
      </trkpt>
      <trkpt lat="48.51145" lon="7.17041">
        <ele>837</ele>
        <time>2021-02-21T14:17:15.670Z</time>
      </trkpt>
      <trkpt lat="48.51144" lon="7.1704">
        <ele>837</ele>
        <time>2021-02-21T14:17:16.670Z</time>
      </trkpt>
      <trkpt lat="48.51143" lon="7.17039">
        <ele>837</ele>
        <time>2021-02-21T14:17:17.670Z</time>
      </trkpt>
      <trkpt lat="48.51142" lon="7.17038">
        <ele>837</ele>
        <time>2021-02-21T14:17:18.670Z</time>
      </trkpt>
      <trkpt lat="48.51141" lon="7.17037">
        <ele>837</ele>
        <time>2021-02-21T14:17:19.670Z</time>
      </trkpt>
      <trkpt lat="48.51141" lon="7.17037">
        <ele>837</ele>
        <time>2021-02-21T14:17:20.670Z</time>
      </trkpt>
      <trkpt lat="48.5114" lon="7.17036">
        <ele>838</ele>
        <time>2021-02-21T14:17:21.670Z</time>
      </trkpt>
      <trkpt lat="48.51137" lon="7.17037">
        <ele>838</ele>
        <time>2021-02-21T14:17:22.670Z</time>
      </trkpt>
      <trkpt lat="48.51135" lon="7.17038">
        <ele>838</ele>
        <time>2021-02-21T14:17:25.797Z</time>
      </trkpt>
      <trkpt lat="48.51134" lon="7.17037">
        <ele>838</ele>
        <time>2021-02-21T14:17:26.797Z</time>
      </trkpt>
      <trkpt lat="48.51134" lon="7.17037">
        <ele>839</ele>
        <time>2021-02-21T14:17:32.709Z</time>
      </trkpt>
      <trkpt lat="48.51133" lon="7.17036">
        <ele>838</ele>
        <time>2021-02-21T14:17:33.709Z</time>
      </trkpt>
      <trkpt lat="48.51132" lon="7.17035">
        <ele>838</ele>
        <time>2021-02-21T14:17:34.709Z</time>
      </trkpt>
      <trkpt lat="48.51131" lon="7.17034">
        <ele>838</ele>
        <time>2021-02-21T14:17:35.709Z</time>
      </trkpt>
      <trkpt lat="48.5113" lon="7.17034">
        <ele>838</ele>
        <time>2021-02-21T14:17:39.808Z</time>
      </trkpt>
      <trkpt lat="48.51129" lon="7.17033">
        <ele>838</ele>
        <time>2021-02-21T14:17:40.809Z</time>
      </trkpt>
      <trkpt lat="48.51128" lon="7.17033">
        <ele>838</ele>
        <time>2021-02-21T14:17:41.809Z</time>
      </trkpt>
      <trkpt lat="48.51127" lon="7.17032">
        <ele>838</ele>
        <time>2021-02-21T14:17:42.809Z</time>
      </trkpt>
      <trkpt lat="48.51125" lon="7.17031">
        <ele>838</ele>
        <time>2021-02-21T14:17:43.809Z</time>
      </trkpt>
      <trkpt lat="48.51124" lon="7.17031">
        <ele>838</ele>
        <time>2021-02-21T14:17:44.808Z</time>
      </trkpt>
      <trkpt lat="48.51123" lon="7.1703">
        <ele>838</ele>
        <time>2021-02-21T14:17:45.809Z</time>
      </trkpt>
      <trkpt lat="48.51121" lon="7.1703">
        <ele>838</ele>
        <time>2021-02-21T14:17:46.808Z</time>
      </trkpt>
      <trkpt lat="48.5112" lon="7.1703">
        <ele>838</ele>
        <time>2021-02-21T14:17:47.808Z</time>
      </trkpt>
      <trkpt lat="48.51119" lon="7.1703">
        <ele>838</ele>
        <time>2021-02-21T14:17:48.809Z</time>
      </trkpt>
      <trkpt lat="48.51117" lon="7.17031">
        <ele>838</ele>
        <time>2021-02-21T14:17:49.808Z</time>
      </trkpt>
      <trkpt lat="48.51116" lon="7.1703">
        <ele>838</ele>
        <time>2021-02-21T14:17:50.808Z</time>
      </trkpt>
      <trkpt lat="48.51115" lon="7.1703">
        <ele>838</ele>
        <time>2021-02-21T14:17:51.809Z</time>
      </trkpt>
      <trkpt lat="48.51114" lon="7.1703">
        <ele>837</ele>
        <time>2021-02-21T14:17:52.808Z</time>
      </trkpt>
      <trkpt lat="48.51113" lon="7.1703">
        <ele>837</ele>
        <time>2021-02-21T14:17:56.954Z</time>
      </trkpt>
      <trkpt lat="48.5111" lon="7.17029">
        <ele>838</ele>
        <time>2021-02-21T14:17:57.953Z</time>
      </trkpt>
      <trkpt lat="48.51108" lon="7.17028">
        <ele>838</ele>
        <time>2021-02-21T14:17:58.954Z</time>
      </trkpt>
      <trkpt lat="48.51107" lon="7.17027">
        <ele>839</ele>
        <time>2021-02-21T14:17:59.953Z</time>
      </trkpt>
      <trkpt lat="48.51106" lon="7.17025">
        <ele>839</ele>
        <time>2021-02-21T14:18:00.954Z</time>
      </trkpt>
      <trkpt lat="48.51105" lon="7.17024">
        <ele>840</ele>
        <time>2021-02-21T14:18:01.954Z</time>
      </trkpt>
      <trkpt lat="48.51104" lon="7.17023">
        <ele>840</ele>
        <time>2021-02-21T14:18:02.953Z</time>
      </trkpt>
      <trkpt lat="48.51103" lon="7.17022">
        <ele>840</ele>
        <time>2021-02-21T14:18:03.953Z</time>
      </trkpt>
      <trkpt lat="48.51102" lon="7.17022">
        <ele>840</ele>
        <time>2021-02-21T14:18:04.953Z</time>
      </trkpt>
      <trkpt lat="48.51101" lon="7.17021">
        <ele>840</ele>
        <time>2021-02-21T14:18:05.953Z</time>
      </trkpt>
      <trkpt lat="48.51101" lon="7.17019">
        <ele>840</ele>
        <time>2021-02-21T14:18:06.954Z</time>
      </trkpt>
      <trkpt lat="48.511" lon="7.17019">
        <ele>839</ele>
        <time>2021-02-21T14:18:07.954Z</time>
      </trkpt>
      <trkpt lat="48.51098" lon="7.17018">
        <ele>838</ele>
        <time>2021-02-21T14:18:08.954Z</time>
      </trkpt>
      <trkpt lat="48.51097" lon="7.17018">
        <ele>837</ele>
        <time>2021-02-21T14:18:09.954Z</time>
      </trkpt>
      <trkpt lat="48.51095" lon="7.17017">
        <ele>837</ele>
        <time>2021-02-21T14:18:10.954Z</time>
      </trkpt>
      <trkpt lat="48.51094" lon="7.17016">
        <ele>836</ele>
        <time>2021-02-21T14:18:11.954Z</time>
      </trkpt>
      <trkpt lat="48.51093" lon="7.17015">
        <ele>835</ele>
        <time>2021-02-21T14:18:12.953Z</time>
      </trkpt>
      <trkpt lat="48.51092" lon="7.17014">
        <ele>835</ele>
        <time>2021-02-21T14:18:13.953Z</time>
      </trkpt>
      <trkpt lat="48.5109" lon="7.17014">
        <ele>834</ele>
        <time>2021-02-21T14:18:14.954Z</time>
      </trkpt>
      <trkpt lat="48.51089" lon="7.17013">
        <ele>833</ele>
        <time>2021-02-21T14:18:17.062Z</time>
      </trkpt>
      <trkpt lat="48.51088" lon="7.17013">
        <ele>833</ele>
        <time>2021-02-21T14:18:18.062Z</time>
      </trkpt>
      <trkpt lat="48.51086" lon="7.17012">
        <ele>833</ele>
        <time>2021-02-21T14:18:19.062Z</time>
      </trkpt>
      <trkpt lat="48.51086" lon="7.1701">
        <ele>831</ele>
        <time>2021-02-21T14:18:20.061Z</time>
      </trkpt>
      <trkpt lat="48.51085" lon="7.17009">
        <ele>831</ele>
        <time>2021-02-21T14:18:21.062Z</time>
      </trkpt>
      <trkpt lat="48.51084" lon="7.17007">
        <ele>830</ele>
        <time>2021-02-21T14:18:22.062Z</time>
      </trkpt>
      <trkpt lat="48.51084" lon="7.17005">
        <ele>830</ele>
        <time>2021-02-21T14:18:23.061Z</time>
      </trkpt>
      <trkpt lat="48.51083" lon="7.17004">
        <ele>830</ele>
        <time>2021-02-21T14:18:24.061Z</time>
      </trkpt>
      <trkpt lat="48.51082" lon="7.17003">
        <ele>830</ele>
        <time>2021-02-21T14:18:25.061Z</time>
      </trkpt>
      <trkpt lat="48.51081" lon="7.17001">
        <ele>830</ele>
        <time>2021-02-21T14:18:26.061Z</time>
      </trkpt>
      <trkpt lat="48.5108" lon="7.16998">
        <ele>829</ele>
        <time>2021-02-21T14:18:27.061Z</time>
      </trkpt>
      <trkpt lat="48.51079" lon="7.16996">
        <ele>829</ele>
        <time>2021-02-21T14:18:28.061Z</time>
      </trkpt>
      <trkpt lat="48.51078" lon="7.16995">
        <ele>830</ele>
        <time>2021-02-21T14:18:29.061Z</time>
      </trkpt>
      <trkpt lat="48.51077" lon="7.16993">
        <ele>830</ele>
        <time>2021-02-21T14:18:30.061Z</time>
      </trkpt>
      <trkpt lat="48.51076" lon="7.16992">
        <ele>829</ele>
        <time>2021-02-21T14:18:31.062Z</time>
      </trkpt>
      <trkpt lat="48.51075" lon="7.16991">
        <ele>829</ele>
        <time>2021-02-21T14:18:32.062Z</time>
      </trkpt>
      <trkpt lat="48.51074" lon="7.16989">
        <ele>829</ele>
        <time>2021-02-21T14:18:33.062Z</time>
      </trkpt>
      <trkpt lat="48.51073" lon="7.16987">
        <ele>828</ele>
        <time>2021-02-21T14:18:34.061Z</time>
      </trkpt>
      <trkpt lat="48.51072" lon="7.16986">
        <ele>829</ele>
        <time>2021-02-21T14:18:53.206Z</time>
      </trkpt>
      <trkpt lat="48.51072" lon="7.16984">
        <ele>829</ele>
        <time>2021-02-21T14:18:54.207Z</time>
      </trkpt>
      <trkpt lat="48.51071" lon="7.16983">
        <ele>829</ele>
        <time>2021-02-21T14:18:55.207Z</time>
      </trkpt>
      <trkpt lat="48.51071" lon="7.16981">
        <ele>829</ele>
        <time>2021-02-21T14:18:56.207Z</time>
      </trkpt>
      <trkpt lat="48.5107" lon="7.16979">
        <ele>830</ele>
        <time>2021-02-21T14:18:57.206Z</time>
      </trkpt>
      <trkpt lat="48.51069" lon="7.16978">
        <ele>830</ele>
        <time>2021-02-21T14:18:58.206Z</time>
      </trkpt>
      <trkpt lat="48.51068" lon="7.16976">
        <ele>830</ele>
        <time>2021-02-21T14:18:59.206Z</time>
      </trkpt>
      <trkpt lat="48.51067" lon="7.16975">
        <ele>830</ele>
        <time>2021-02-21T14:19:00.207Z</time>
      </trkpt>
      <trkpt lat="48.51066" lon="7.16973">
        <ele>830</ele>
        <time>2021-02-21T14:19:01.206Z</time>
      </trkpt>
      <trkpt lat="48.51065" lon="7.16972">
        <ele>830</ele>
        <time>2021-02-21T14:19:02.206Z</time>
      </trkpt>
      <trkpt lat="48.51064" lon="7.16971">
        <ele>830</ele>
        <time>2021-02-21T14:19:03.206Z</time>
      </trkpt>
      <trkpt lat="48.51063" lon="7.1697">
        <ele>831</ele>
        <time>2021-02-21T14:19:04.206Z</time>
      </trkpt>
      <trkpt lat="48.51062" lon="7.16969">
        <ele>831</ele>
        <time>2021-02-21T14:19:05.207Z</time>
      </trkpt>
      <trkpt lat="48.5106" lon="7.16967">
        <ele>831</ele>
        <time>2021-02-21T14:19:06.207Z</time>
      </trkpt>
      <trkpt lat="48.5106" lon="7.16966">
        <ele>831</ele>
        <time>2021-02-21T14:19:07.206Z</time>
      </trkpt>
      <trkpt lat="48.51059" lon="7.16965">
        <ele>831</ele>
        <time>2021-02-21T14:19:08.206Z</time>
      </trkpt>
      <trkpt lat="48.51058" lon="7.16963">
        <ele>832</ele>
        <time>2021-02-21T14:19:09.207Z</time>
      </trkpt>
      <trkpt lat="48.51057" lon="7.16962">
        <ele>832</ele>
        <time>2021-02-21T14:19:10.206Z</time>
      </trkpt>
      <trkpt lat="48.51056" lon="7.1696">
        <ele>832</ele>
        <time>2021-02-21T14:19:11.207Z</time>
      </trkpt>
      <trkpt lat="48.51055" lon="7.16959">
        <ele>833</ele>
        <time>2021-02-21T14:19:12.206Z</time>
      </trkpt>
      <trkpt lat="48.51053" lon="7.16958">
        <ele>833</ele>
        <time>2021-02-21T14:19:13.206Z</time>
      </trkpt>
      <trkpt lat="48.51051" lon="7.16957">
        <ele>834</ele>
        <time>2021-02-21T14:19:14.207Z</time>
      </trkpt>
      <trkpt lat="48.51051" lon="7.16955">
        <ele>834</ele>
        <time>2021-02-21T14:19:15.207Z</time>
      </trkpt>
      <trkpt lat="48.5105" lon="7.16953">
        <ele>834</ele>
        <time>2021-02-21T14:19:16.207Z</time>
      </trkpt>
      <trkpt lat="48.51049" lon="7.16952">
        <ele>834</ele>
        <time>2021-02-21T14:19:17.206Z</time>
      </trkpt>
      <trkpt lat="48.51048" lon="7.1695">
        <ele>835</ele>
        <time>2021-02-21T14:19:18.207Z</time>
      </trkpt>
      <trkpt lat="48.51047" lon="7.16948">
        <ele>835</ele>
        <time>2021-02-21T14:19:19.207Z</time>
      </trkpt>
      <trkpt lat="48.51047" lon="7.16947">
        <ele>835</ele>
        <time>2021-02-21T14:19:20.207Z</time>
      </trkpt>
      <trkpt lat="48.51045" lon="7.16946">
        <ele>835</ele>
        <time>2021-02-21T14:19:21.207Z</time>
      </trkpt>
      <trkpt lat="48.51044" lon="7.16945">
        <ele>834</ele>
        <time>2021-02-21T14:19:22.206Z</time>
      </trkpt>
      <trkpt lat="48.51043" lon="7.16945">
        <ele>834</ele>
        <time>2021-02-21T14:19:23.207Z</time>
      </trkpt>
      <trkpt lat="48.51041" lon="7.16944">
        <ele>835</ele>
        <time>2021-02-21T14:19:24.207Z</time>
      </trkpt>
      <trkpt lat="48.51039" lon="7.16943">
        <ele>835</ele>
        <time>2021-02-21T14:19:25.207Z</time>
      </trkpt>
      <trkpt lat="48.51037" lon="7.16943">
        <ele>836</ele>
        <time>2021-02-21T14:19:26.207Z</time>
      </trkpt>
      <trkpt lat="48.51035" lon="7.16941">
        <ele>835</ele>
        <time>2021-02-21T14:19:27.207Z</time>
      </trkpt>
      <trkpt lat="48.51034" lon="7.16941">
        <ele>835</ele>
        <time>2021-02-21T14:19:28.207Z</time>
      </trkpt>
      <trkpt lat="48.51032" lon="7.1694">
        <ele>835</ele>
        <time>2021-02-21T14:19:29.206Z</time>
      </trkpt>
      <trkpt lat="48.51031" lon="7.16939">
        <ele>834</ele>
        <time>2021-02-21T14:19:30.207Z</time>
      </trkpt>
      <trkpt lat="48.5103" lon="7.16938">
        <ele>834</ele>
        <time>2021-02-21T14:19:31.207Z</time>
      </trkpt>
      <trkpt lat="48.51028" lon="7.16937">
        <ele>834</ele>
        <time>2021-02-21T14:19:32.206Z</time>
      </trkpt>
      <trkpt lat="48.51027" lon="7.16936">
        <ele>833</ele>
        <time>2021-02-21T14:19:33.207Z</time>
      </trkpt>
      <trkpt lat="48.51026" lon="7.16936">
        <ele>833</ele>
        <time>2021-02-21T14:19:34.207Z</time>
      </trkpt>
      <trkpt lat="48.51025" lon="7.16935">
        <ele>834</ele>
        <time>2021-02-21T14:19:35.207Z</time>
      </trkpt>
      <trkpt lat="48.51023" lon="7.16934">
        <ele>833</ele>
        <time>2021-02-21T14:19:36.207Z</time>
      </trkpt>
      <trkpt lat="48.51023" lon="7.16931">
        <ele>833</ele>
        <time>2021-02-21T14:19:37.206Z</time>
      </trkpt>
      <trkpt lat="48.51022" lon="7.16929">
        <ele>833</ele>
        <time>2021-02-21T14:19:38.206Z</time>
      </trkpt>
      <trkpt lat="48.51021" lon="7.16927">
        <ele>833</ele>
        <time>2021-02-21T14:19:39.206Z</time>
      </trkpt>
      <trkpt lat="48.5102" lon="7.16925">
        <ele>832</ele>
        <time>2021-02-21T14:19:40.206Z</time>
      </trkpt>
      <trkpt lat="48.51019" lon="7.16924">
        <ele>832</ele>
        <time>2021-02-21T14:19:41.207Z</time>
      </trkpt>
      <trkpt lat="48.51017" lon="7.16923">
        <ele>832</ele>
        <time>2021-02-21T14:19:42.206Z</time>
      </trkpt>
      <trkpt lat="48.51016" lon="7.16922">
        <ele>832</ele>
        <time>2021-02-21T14:19:43.206Z</time>
      </trkpt>
      <trkpt lat="48.51015" lon="7.1692">
        <ele>831</ele>
        <time>2021-02-21T14:19:44.207Z</time>
      </trkpt>
      <trkpt lat="48.51014" lon="7.16918">
        <ele>831</ele>
        <time>2021-02-21T14:19:45.207Z</time>
      </trkpt>
      <trkpt lat="48.51014" lon="7.16915">
        <ele>830</ele>
        <time>2021-02-21T14:19:46.206Z</time>
      </trkpt>
      <trkpt lat="48.51013" lon="7.16913">
        <ele>830</ele>
        <time>2021-02-21T14:19:47.206Z</time>
      </trkpt>
      <trkpt lat="48.51013" lon="7.16912">
        <ele>830</ele>
        <time>2021-02-21T14:19:48.206Z</time>
      </trkpt>
      <trkpt lat="48.51011" lon="7.1691">
        <ele>830</ele>
        <time>2021-02-21T14:19:59.308Z</time>
      </trkpt>
      <trkpt lat="48.51011" lon="7.16909">
        <ele>830</ele>
        <time>2021-02-21T14:20:00.308Z</time>
      </trkpt>
      <trkpt lat="48.5101" lon="7.16907">
        <ele>829</ele>
        <time>2021-02-21T14:20:01.308Z</time>
      </trkpt>
      <trkpt lat="48.5101" lon="7.16905">
        <ele>829</ele>
        <time>2021-02-21T14:20:02.307Z</time>
      </trkpt>
      <trkpt lat="48.51009" lon="7.16904">
        <ele>829</ele>
        <time>2021-02-21T14:20:03.307Z</time>
      </trkpt>
      <trkpt lat="48.51008" lon="7.16902">
        <ele>828</ele>
        <time>2021-02-21T14:20:25.306Z</time>
      </trkpt>
      <trkpt lat="48.51007" lon="7.169">
        <ele>828</ele>
        <time>2021-02-21T14:20:26.307Z</time>
      </trkpt>
      <trkpt lat="48.51006" lon="7.16898">
        <ele>828</ele>
        <time>2021-02-21T14:20:27.307Z</time>
      </trkpt>
      <trkpt lat="48.51006" lon="7.16897">
        <ele>828</ele>
        <time>2021-02-21T14:20:28.306Z</time>
      </trkpt>
      <trkpt lat="48.51005" lon="7.16895">
        <ele>827</ele>
        <time>2021-02-21T14:20:29.306Z</time>
      </trkpt>
      <trkpt lat="48.51005" lon="7.16893">
        <ele>827</ele>
        <time>2021-02-21T14:20:30.307Z</time>
      </trkpt>
      <trkpt lat="48.51004" lon="7.16892">
        <ele>827</ele>
        <time>2021-02-21T14:20:31.306Z</time>
      </trkpt>
      <trkpt lat="48.51003" lon="7.1689">
        <ele>827</ele>
        <time>2021-02-21T14:20:32.307Z</time>
      </trkpt>
      <trkpt lat="48.51003" lon="7.16889">
        <ele>827</ele>
        <time>2021-02-21T14:20:33.306Z</time>
      </trkpt>
      <trkpt lat="48.51002" lon="7.16888">
        <ele>827</ele>
        <time>2021-02-21T14:20:34.307Z</time>
      </trkpt>
      <trkpt lat="48.51002" lon="7.16886">
        <ele>827</ele>
        <time>2021-02-21T14:20:35.307Z</time>
      </trkpt>
      <trkpt lat="48.51001" lon="7.16884">
        <ele>826</ele>
        <time>2021-02-21T14:20:36.307Z</time>
      </trkpt>
      <trkpt lat="48.51" lon="7.16883">
        <ele>826</ele>
        <time>2021-02-21T14:20:37.306Z</time>
      </trkpt>
      <trkpt lat="48.51" lon="7.16882">
        <ele>826</ele>
        <time>2021-02-21T14:20:38.306Z</time>
      </trkpt>
      <trkpt lat="48.50999" lon="7.1688">
        <ele>825</ele>
        <time>2021-02-21T14:20:39.306Z</time>
      </trkpt>
      <trkpt lat="48.50997" lon="7.16879">
        <ele>825</ele>
        <time>2021-02-21T14:20:40.306Z</time>
      </trkpt>
      <trkpt lat="48.50996" lon="7.16878">
        <ele>825</ele>
        <time>2021-02-21T14:20:41.306Z</time>
      </trkpt>
      <trkpt lat="48.50995" lon="7.16877">
        <ele>825</ele>
        <time>2021-02-21T14:20:42.307Z</time>
      </trkpt>
      <trkpt lat="48.50994" lon="7.16875">
        <ele>825</ele>
        <time>2021-02-21T14:20:43.306Z</time>
      </trkpt>
      <trkpt lat="48.50993" lon="7.16874">
        <ele>824</ele>
        <time>2021-02-21T14:20:44.306Z</time>
      </trkpt>
      <trkpt lat="48.50991" lon="7.16873">
        <ele>823</ele>
        <time>2021-02-21T14:20:45.306Z</time>
      </trkpt>
      <trkpt lat="48.50989" lon="7.16871">
        <ele>822</ele>
        <time>2021-02-21T14:20:46.306Z</time>
      </trkpt>
      <trkpt lat="48.50988" lon="7.1687">
        <ele>822</ele>
        <time>2021-02-21T14:20:47.307Z</time>
      </trkpt>
      <trkpt lat="48.50987" lon="7.16868">
        <ele>821</ele>
        <time>2021-02-21T14:20:48.306Z</time>
      </trkpt>
      <trkpt lat="48.50987" lon="7.16865">
        <ele>821</ele>
        <time>2021-02-21T14:20:49.306Z</time>
      </trkpt>
      <trkpt lat="48.50986" lon="7.16863">
        <ele>821</ele>
        <time>2021-02-21T14:21:00.429Z</time>
      </trkpt>
      <trkpt lat="48.50986" lon="7.16861">
        <ele>821</ele>
        <time>2021-02-21T14:21:01.430Z</time>
      </trkpt>
      <trkpt lat="48.50985" lon="7.1686">
        <ele>821</ele>
        <time>2021-02-21T14:21:02.429Z</time>
      </trkpt>
      <trkpt lat="48.50984" lon="7.16859">
        <ele>821</ele>
        <time>2021-02-21T14:21:08.600Z</time>
      </trkpt>
      <trkpt lat="48.50983" lon="7.16857">
        <ele>822</ele>
        <time>2021-02-21T14:21:09.600Z</time>
      </trkpt>
      <trkpt lat="48.50982" lon="7.16856">
        <ele>822</ele>
        <time>2021-02-21T14:21:10.600Z</time>
      </trkpt>
      <trkpt lat="48.5098" lon="7.16854">
        <ele>823</ele>
        <time>2021-02-21T14:21:11.601Z</time>
      </trkpt>
      <trkpt lat="48.50979" lon="7.16853">
        <ele>823</ele>
        <time>2021-02-21T14:21:12.600Z</time>
      </trkpt>
      <trkpt lat="48.50978" lon="7.16851">
        <ele>824</ele>
        <time>2021-02-21T14:21:13.600Z</time>
      </trkpt>
      <trkpt lat="48.50978" lon="7.16849">
        <ele>825</ele>
        <time>2021-02-21T14:21:14.600Z</time>
      </trkpt>
      <trkpt lat="48.50977" lon="7.16848">
        <ele>826</ele>
        <time>2021-02-21T14:21:15.601Z</time>
      </trkpt>
      <trkpt lat="48.50975" lon="7.16847">
        <ele>827</ele>
        <time>2021-02-21T14:21:16.601Z</time>
      </trkpt>
      <trkpt lat="48.50974" lon="7.16846">
        <ele>828</ele>
        <time>2021-02-21T14:21:17.600Z</time>
      </trkpt>
      <trkpt lat="48.50972" lon="7.16845">
        <ele>829</ele>
        <time>2021-02-21T14:21:18.600Z</time>
      </trkpt>
      <trkpt lat="48.50971" lon="7.16844">
        <ele>830</ele>
        <time>2021-02-21T14:21:19.600Z</time>
      </trkpt>
      <trkpt lat="48.50971" lon="7.16842">
        <ele>830</ele>
        <time>2021-02-21T14:21:20.601Z</time>
      </trkpt>
      <trkpt lat="48.5097" lon="7.1684">
        <ele>830</ele>
        <time>2021-02-21T14:21:21.600Z</time>
      </trkpt>
      <trkpt lat="48.5097" lon="7.16838">
        <ele>830</ele>
        <time>2021-02-21T14:21:22.601Z</time>
      </trkpt>
      <trkpt lat="48.50969" lon="7.16837">
        <ele>831</ele>
        <time>2021-02-21T14:21:23.600Z</time>
      </trkpt>
      <trkpt lat="48.50968" lon="7.16836">
        <ele>831</ele>
        <time>2021-02-21T14:21:24.600Z</time>
      </trkpt>
      <trkpt lat="48.50967" lon="7.16835">
        <ele>831</ele>
        <time>2021-02-21T14:21:25.600Z</time>
      </trkpt>
      <trkpt lat="48.50966" lon="7.16834">
        <ele>832</ele>
        <time>2021-02-21T14:21:26.601Z</time>
      </trkpt>
      <trkpt lat="48.50965" lon="7.16832">
        <ele>832</ele>
        <time>2021-02-21T14:21:27.600Z</time>
      </trkpt>
      <trkpt lat="48.50965" lon="7.1683">
        <ele>832</ele>
        <time>2021-02-21T14:21:28.600Z</time>
      </trkpt>
      <trkpt lat="48.50964" lon="7.16828">
        <ele>831</ele>
        <time>2021-02-21T14:21:29.600Z</time>
      </trkpt>
      <trkpt lat="48.50963" lon="7.16826">
        <ele>831</ele>
        <time>2021-02-21T14:21:30.601Z</time>
      </trkpt>
      <trkpt lat="48.50962" lon="7.16825">
        <ele>830</ele>
        <time>2021-02-21T14:21:31.601Z</time>
      </trkpt>
      <trkpt lat="48.50961" lon="7.16823">
        <ele>830</ele>
        <time>2021-02-21T14:21:32.600Z</time>
      </trkpt>
      <trkpt lat="48.5096" lon="7.16821">
        <ele>829</ele>
        <time>2021-02-21T14:21:33.600Z</time>
      </trkpt>
      <trkpt lat="48.50959" lon="7.16819">
        <ele>828</ele>
        <time>2021-02-21T14:21:34.600Z</time>
      </trkpt>
      <trkpt lat="48.50958" lon="7.16817">
        <ele>828</ele>
        <time>2021-02-21T14:21:35.601Z</time>
      </trkpt>
      <trkpt lat="48.50957" lon="7.16816">
        <ele>828</ele>
        <time>2021-02-21T14:21:36.600Z</time>
      </trkpt>
      <trkpt lat="48.50955" lon="7.16814">
        <ele>828</ele>
        <time>2021-02-21T14:21:37.601Z</time>
      </trkpt>
      <trkpt lat="48.50954" lon="7.16812">
        <ele>828</ele>
        <time>2021-02-21T14:21:38.600Z</time>
      </trkpt>
      <trkpt lat="48.50954" lon="7.16811">
        <ele>828</ele>
        <time>2021-02-21T14:21:39.600Z</time>
      </trkpt>
      <trkpt lat="48.50953" lon="7.16809">
        <ele>828</ele>
        <time>2021-02-21T14:21:40.601Z</time>
      </trkpt>
      <trkpt lat="48.50952" lon="7.16808">
        <ele>829</ele>
        <time>2021-02-21T14:21:41.601Z</time>
      </trkpt>
      <trkpt lat="48.50951" lon="7.16807">
        <ele>829</ele>
        <time>2021-02-21T14:21:42.601Z</time>
      </trkpt>
      <trkpt lat="48.5095" lon="7.16806">
        <ele>830</ele>
        <time>2021-02-21T14:21:43.600Z</time>
      </trkpt>
      <trkpt lat="48.5095" lon="7.16805">
        <ele>831</ele>
        <time>2021-02-21T14:21:44.600Z</time>
      </trkpt>
      <trkpt lat="48.50949" lon="7.16803">
        <ele>831</ele>
        <time>2021-02-21T14:21:45.601Z</time>
      </trkpt>
      <trkpt lat="48.50948" lon="7.16802">
        <ele>832</ele>
        <time>2021-02-21T14:21:46.601Z</time>
      </trkpt>
      <trkpt lat="48.50946" lon="7.168">
        <ele>832</ele>
        <time>2021-02-21T14:21:47.600Z</time>
      </trkpt>
      <trkpt lat="48.50945" lon="7.16799">
        <ele>831</ele>
        <time>2021-02-21T14:21:48.600Z</time>
      </trkpt>
      <trkpt lat="48.50944" lon="7.16797">
        <ele>831</ele>
        <time>2021-02-21T14:21:49.600Z</time>
      </trkpt>
      <trkpt lat="48.50943" lon="7.16796">
        <ele>831</ele>
        <time>2021-02-21T14:21:50.601Z</time>
      </trkpt>
      <trkpt lat="48.50942" lon="7.16795">
        <ele>831</ele>
        <time>2021-02-21T14:21:51.601Z</time>
      </trkpt>
      <trkpt lat="48.5094" lon="7.16793">
        <ele>830</ele>
        <time>2021-02-21T14:21:52.600Z</time>
      </trkpt>
      <trkpt lat="48.50939" lon="7.16792">
        <ele>830</ele>
        <time>2021-02-21T14:21:53.600Z</time>
      </trkpt>
      <trkpt lat="48.50939" lon="7.1679">
        <ele>830</ele>
        <time>2021-02-21T14:21:54.600Z</time>
      </trkpt>
      <trkpt lat="48.50938" lon="7.16788">
        <ele>830</ele>
        <time>2021-02-21T14:21:55.601Z</time>
      </trkpt>
      <trkpt lat="48.50937" lon="7.16787">
        <ele>830</ele>
        <time>2021-02-21T14:21:56.600Z</time>
      </trkpt>
      <trkpt lat="48.50936" lon="7.16785">
        <ele>830</ele>
        <time>2021-02-21T14:21:57.600Z</time>
      </trkpt>
      <trkpt lat="48.50935" lon="7.16784">
        <ele>830</ele>
        <time>2021-02-21T14:21:58.600Z</time>
      </trkpt>
      <trkpt lat="48.50934" lon="7.16783">
        <ele>829</ele>
        <time>2021-02-21T14:21:59.600Z</time>
      </trkpt>
      <trkpt lat="48.50933" lon="7.16781">
        <ele>829</ele>
        <time>2021-02-21T14:22:00.600Z</time>
      </trkpt>
      <trkpt lat="48.50933" lon="7.16779">
        <ele>829</ele>
        <time>2021-02-21T14:22:01.600Z</time>
      </trkpt>
      <trkpt lat="48.50932" lon="7.16778">
        <ele>828</ele>
        <time>2021-02-21T14:22:02.600Z</time>
      </trkpt>
      <trkpt lat="48.50931" lon="7.16777">
        <ele>828</ele>
        <time>2021-02-21T14:22:03.600Z</time>
      </trkpt>
      <trkpt lat="48.5093" lon="7.16775">
        <ele>828</ele>
        <time>2021-02-21T14:22:04.601Z</time>
      </trkpt>
      <trkpt lat="48.50929" lon="7.16774">
        <ele>828</ele>
        <time>2021-02-21T14:22:05.600Z</time>
      </trkpt>
      <trkpt lat="48.50928" lon="7.16772">
        <ele>828</ele>
        <time>2021-02-21T14:22:06.601Z</time>
      </trkpt>
      <trkpt lat="48.50927" lon="7.1677">
        <ele>828</ele>
        <time>2021-02-21T14:22:07.601Z</time>
      </trkpt>
      <trkpt lat="48.50927" lon="7.16769">
        <ele>828</ele>
        <time>2021-02-21T14:22:08.601Z</time>
      </trkpt>
      <trkpt lat="48.50926" lon="7.16768">
        <ele>828</ele>
        <time>2021-02-21T14:22:09.600Z</time>
      </trkpt>
      <trkpt lat="48.50925" lon="7.16767">
        <ele>829</ele>
        <time>2021-02-21T14:22:10.601Z</time>
      </trkpt>
      <trkpt lat="48.50924" lon="7.16766">
        <ele>829</ele>
        <time>2021-02-21T14:22:11.601Z</time>
      </trkpt>
      <trkpt lat="48.50923" lon="7.16764">
        <ele>829</ele>
        <time>2021-02-21T14:22:12.601Z</time>
      </trkpt>
      <trkpt lat="48.50922" lon="7.16763">
        <ele>829</ele>
        <time>2021-02-21T14:22:13.601Z</time>
      </trkpt>
      <trkpt lat="48.5092" lon="7.16762">
        <ele>829</ele>
        <time>2021-02-21T14:22:14.600Z</time>
      </trkpt>
      <trkpt lat="48.50918" lon="7.16761">
        <ele>829</ele>
        <time>2021-02-21T14:22:15.600Z</time>
      </trkpt>
      <trkpt lat="48.50917" lon="7.16759">
        <ele>829</ele>
        <time>2021-02-21T14:22:16.601Z</time>
      </trkpt>
      <trkpt lat="48.50916" lon="7.16757">
        <ele>829</ele>
        <time>2021-02-21T14:22:17.600Z</time>
      </trkpt>
      <trkpt lat="48.50916" lon="7.16755">
        <ele>829</ele>
        <time>2021-02-21T14:22:18.601Z</time>
      </trkpt>
      <trkpt lat="48.50915" lon="7.16754">
        <ele>829</ele>
        <time>2021-02-21T14:22:19.601Z</time>
      </trkpt>
      <trkpt lat="48.50914" lon="7.16752">
        <ele>830</ele>
        <time>2021-02-21T14:22:20.600Z</time>
      </trkpt>
      <trkpt lat="48.50913" lon="7.16751">
        <ele>830</ele>
        <time>2021-02-21T14:22:21.600Z</time>
      </trkpt>
      <trkpt lat="48.50912" lon="7.1675">
        <ele>830</ele>
        <time>2021-02-21T14:22:22.600Z</time>
      </trkpt>
      <trkpt lat="48.50911" lon="7.16749">
        <ele>829</ele>
        <time>2021-02-21T14:22:23.600Z</time>
      </trkpt>
      <trkpt lat="48.50911" lon="7.16747">
        <ele>829</ele>
        <time>2021-02-21T14:22:24.600Z</time>
      </trkpt>
      <trkpt lat="48.5091" lon="7.16745">
        <ele>829</ele>
        <time>2021-02-21T14:22:25.600Z</time>
      </trkpt>
      <trkpt lat="48.5091" lon="7.16743">
        <ele>828</ele>
        <time>2021-02-21T14:22:26.600Z</time>
      </trkpt>
      <trkpt lat="48.50909" lon="7.16741">
        <ele>828</ele>
        <time>2021-02-21T14:22:27.600Z</time>
      </trkpt>
      <trkpt lat="48.50908" lon="7.16738">
        <ele>828</ele>
        <time>2021-02-21T14:23:09.706Z</time>
      </trkpt>
      <trkpt lat="48.50908" lon="7.16736">
        <ele>827</ele>
        <time>2021-02-21T14:23:10.705Z</time>
      </trkpt>
      <trkpt lat="48.50907" lon="7.16734">
        <ele>827</ele>
        <time>2021-02-21T14:23:11.705Z</time>
      </trkpt>
      <trkpt lat="48.50906" lon="7.16733">
        <ele>826</ele>
        <time>2021-02-21T14:23:12.705Z</time>
      </trkpt>
      <trkpt lat="48.50905" lon="7.16731">
        <ele>826</ele>
        <time>2021-02-21T14:23:13.706Z</time>
      </trkpt>
      <trkpt lat="48.50904" lon="7.16729">
        <ele>826</ele>
        <time>2021-02-21T14:23:14.706Z</time>
      </trkpt>
      <trkpt lat="48.50904" lon="7.16727">
        <ele>825</ele>
        <time>2021-02-21T14:23:15.705Z</time>
      </trkpt>
      <trkpt lat="48.50904" lon="7.16725">
        <ele>825</ele>
        <time>2021-02-21T14:23:16.706Z</time>
      </trkpt>
      <trkpt lat="48.50903" lon="7.16723">
        <ele>825</ele>
        <time>2021-02-21T14:23:17.706Z</time>
      </trkpt>
      <trkpt lat="48.50901" lon="7.16722">
        <ele>826</ele>
        <time>2021-02-21T14:23:18.706Z</time>
      </trkpt>
      <trkpt lat="48.50901" lon="7.1672">
        <ele>825</ele>
        <time>2021-02-21T14:23:19.706Z</time>
      </trkpt>
      <trkpt lat="48.509" lon="7.16719">
        <ele>825</ele>
        <time>2021-02-21T14:23:20.706Z</time>
      </trkpt>
      <trkpt lat="48.509" lon="7.16717">
        <ele>824</ele>
        <time>2021-02-21T14:23:21.706Z</time>
      </trkpt>
      <trkpt lat="48.509" lon="7.16715">
        <ele>824</ele>
        <time>2021-02-21T14:23:22.705Z</time>
      </trkpt>
      <trkpt lat="48.509" lon="7.16713">
        <ele>824</ele>
        <time>2021-02-21T14:23:23.706Z</time>
      </trkpt>
      <trkpt lat="48.509" lon="7.1671">
        <ele>824</ele>
        <time>2021-02-21T14:23:24.706Z</time>
      </trkpt>
      <trkpt lat="48.50899" lon="7.16709">
        <ele>824</ele>
        <time>2021-02-21T14:23:25.706Z</time>
      </trkpt>
      <trkpt lat="48.50898" lon="7.16707">
        <ele>824</ele>
        <time>2021-02-21T14:23:26.705Z</time>
      </trkpt>
      <trkpt lat="48.50897" lon="7.16705">
        <ele>824</ele>
        <time>2021-02-21T14:23:27.705Z</time>
      </trkpt>
      <trkpt lat="48.50896" lon="7.16704">
        <ele>824</ele>
        <time>2021-02-21T14:23:28.706Z</time>
      </trkpt>
      <trkpt lat="48.50896" lon="7.16702">
        <ele>824</ele>
        <time>2021-02-21T14:23:29.706Z</time>
      </trkpt>
      <trkpt lat="48.50896" lon="7.16699">
        <ele>824</ele>
        <time>2021-02-21T14:23:30.706Z</time>
      </trkpt>
      <trkpt lat="48.50896" lon="7.16697">
        <ele>825</ele>
        <time>2021-02-21T14:23:31.706Z</time>
      </trkpt>
      <trkpt lat="48.50897" lon="7.16695">
        <ele>826</ele>
        <time>2021-02-21T14:23:32.705Z</time>
      </trkpt>
      <trkpt lat="48.50896" lon="7.16693">
        <ele>826</ele>
        <time>2021-02-21T14:23:33.705Z</time>
      </trkpt>
      <trkpt lat="48.50895" lon="7.16691">
        <ele>826</ele>
        <time>2021-02-21T14:23:34.705Z</time>
      </trkpt>
      <trkpt lat="48.50895" lon="7.1669">
        <ele>826</ele>
        <time>2021-02-21T14:23:35.706Z</time>
      </trkpt>
      <trkpt lat="48.50894" lon="7.16688">
        <ele>826</ele>
        <time>2021-02-21T14:23:36.705Z</time>
      </trkpt>
      <trkpt lat="48.50893" lon="7.16686">
        <ele>826</ele>
        <time>2021-02-21T14:23:37.705Z</time>
      </trkpt>
      <trkpt lat="48.50892" lon="7.16685">
        <ele>826</ele>
        <time>2021-02-21T14:23:38.706Z</time>
      </trkpt>
      <trkpt lat="48.50892" lon="7.16684">
        <ele>826</ele>
        <time>2021-02-21T14:23:39.706Z</time>
      </trkpt>
      <trkpt lat="48.50891" lon="7.16682">
        <ele>825</ele>
        <time>2021-02-21T14:23:40.706Z</time>
      </trkpt>
      <trkpt lat="48.50891" lon="7.1668">
        <ele>825</ele>
        <time>2021-02-21T14:23:41.705Z</time>
      </trkpt>
      <trkpt lat="48.5089" lon="7.16678">
        <ele>826</ele>
        <time>2021-02-21T14:23:42.706Z</time>
      </trkpt>
      <trkpt lat="48.5089" lon="7.16675">
        <ele>826</ele>
        <time>2021-02-21T14:23:43.705Z</time>
      </trkpt>
      <trkpt lat="48.5089" lon="7.16673">
        <ele>826</ele>
        <time>2021-02-21T14:23:44.706Z</time>
      </trkpt>
      <trkpt lat="48.5089" lon="7.16671">
        <ele>826</ele>
        <time>2021-02-21T14:23:45.706Z</time>
      </trkpt>
      <trkpt lat="48.50889" lon="7.16669">
        <ele>826</ele>
        <time>2021-02-21T14:23:46.705Z</time>
      </trkpt>
      <trkpt lat="48.50888" lon="7.16667">
        <ele>826</ele>
        <time>2021-02-21T14:23:47.706Z</time>
      </trkpt>
      <trkpt lat="48.50888" lon="7.16666">
        <ele>826</ele>
        <time>2021-02-21T14:23:48.706Z</time>
      </trkpt>
      <trkpt lat="48.50887" lon="7.16664">
        <ele>826</ele>
        <time>2021-02-21T14:23:49.705Z</time>
      </trkpt>
      <trkpt lat="48.50887" lon="7.16662">
        <ele>826</ele>
        <time>2021-02-21T14:23:50.706Z</time>
      </trkpt>
      <trkpt lat="48.50886" lon="7.1666">
        <ele>826</ele>
        <time>2021-02-21T14:23:51.705Z</time>
      </trkpt>
      <trkpt lat="48.50886" lon="7.16658">
        <ele>825</ele>
        <time>2021-02-21T14:23:52.705Z</time>
      </trkpt>
      <trkpt lat="48.50886" lon="7.16656">
        <ele>826</ele>
        <time>2021-02-21T14:23:53.706Z</time>
      </trkpt>
      <trkpt lat="48.50886" lon="7.16654">
        <ele>826</ele>
        <time>2021-02-21T14:23:54.706Z</time>
      </trkpt>
      <trkpt lat="48.50886" lon="7.16651">
        <ele>826</ele>
        <time>2021-02-21T14:23:55.706Z</time>
      </trkpt>
      <trkpt lat="48.50887" lon="7.16648">
        <ele>826</ele>
        <time>2021-02-21T14:23:56.705Z</time>
      </trkpt>
      <trkpt lat="48.50886" lon="7.16646">
        <ele>827</ele>
        <time>2021-02-21T14:23:57.706Z</time>
      </trkpt>
      <trkpt lat="48.50886" lon="7.16643">
        <ele>827</ele>
        <time>2021-02-21T14:23:58.705Z</time>
      </trkpt>
      <trkpt lat="48.50885" lon="7.16642">
        <ele>828</ele>
        <time>2021-02-21T14:23:59.706Z</time>
      </trkpt>
      <trkpt lat="48.50884" lon="7.1664">
        <ele>828</ele>
        <time>2021-02-21T14:24:00.706Z</time>
      </trkpt>
      <trkpt lat="48.50884" lon="7.16638">
        <ele>829</ele>
        <time>2021-02-21T14:24:01.706Z</time>
      </trkpt>
      <trkpt lat="48.50884" lon="7.16637">
        <ele>829</ele>
        <time>2021-02-21T14:24:02.705Z</time>
      </trkpt>
      <trkpt lat="48.50884" lon="7.16636">
        <ele>829</ele>
        <time>2021-02-21T14:24:03.705Z</time>
      </trkpt>
      <trkpt lat="48.50884" lon="7.16634">
        <ele>828</ele>
        <time>2021-02-21T14:24:04.706Z</time>
      </trkpt>
      <trkpt lat="48.50883" lon="7.16632">
        <ele>828</ele>
        <time>2021-02-21T14:24:05.705Z</time>
      </trkpt>
      <trkpt lat="48.50883" lon="7.1663">
        <ele>828</ele>
        <time>2021-02-21T14:24:06.706Z</time>
      </trkpt>
      <trkpt lat="48.50882" lon="7.16628">
        <ele>828</ele>
        <time>2021-02-21T14:24:07.705Z</time>
      </trkpt>
      <trkpt lat="48.50882" lon="7.16627">
        <ele>827</ele>
        <time>2021-02-21T14:24:08.706Z</time>
      </trkpt>
      <trkpt lat="48.50881" lon="7.16625">
        <ele>827</ele>
        <time>2021-02-21T14:24:09.706Z</time>
      </trkpt>
      <trkpt lat="48.5088" lon="7.16623">
        <ele>827</ele>
        <time>2021-02-21T14:24:10.706Z</time>
      </trkpt>
      <trkpt lat="48.5088" lon="7.16621">
        <ele>826</ele>
        <time>2021-02-21T14:24:11.706Z</time>
      </trkpt>
      <trkpt lat="48.50879" lon="7.16619">
        <ele>827</ele>
        <time>2021-02-21T14:24:12.706Z</time>
      </trkpt>
      <trkpt lat="48.50878" lon="7.16618">
        <ele>827</ele>
        <time>2021-02-21T14:24:13.706Z</time>
      </trkpt>
      <trkpt lat="48.50877" lon="7.16617">
        <ele>828</ele>
        <time>2021-02-21T14:24:14.706Z</time>
      </trkpt>
      <trkpt lat="48.50876" lon="7.16616">
        <ele>828</ele>
        <time>2021-02-21T14:24:15.706Z</time>
      </trkpt>
      <trkpt lat="48.50875" lon="7.16615">
        <ele>828</ele>
        <time>2021-02-21T14:24:16.706Z</time>
      </trkpt>
      <trkpt lat="48.50873" lon="7.16613">
        <ele>828</ele>
        <time>2021-02-21T14:24:17.705Z</time>
      </trkpt>
      <trkpt lat="48.50872" lon="7.16612">
        <ele>828</ele>
        <time>2021-02-21T14:24:18.706Z</time>
      </trkpt>
      <trkpt lat="48.50872" lon="7.16611">
        <ele>828</ele>
        <time>2021-02-21T14:24:19.705Z</time>
      </trkpt>
      <trkpt lat="48.50871" lon="7.1661">
        <ele>829</ele>
        <time>2021-02-21T14:24:20.705Z</time>
      </trkpt>
      <trkpt lat="48.5087" lon="7.16608">
        <ele>830</ele>
        <time>2021-02-21T14:24:21.705Z</time>
      </trkpt>
      <trkpt lat="48.50869" lon="7.16607">
        <ele>830</ele>
        <time>2021-02-21T14:24:22.705Z</time>
      </trkpt>
      <trkpt lat="48.50868" lon="7.16605">
        <ele>831</ele>
        <time>2021-02-21T14:24:23.705Z</time>
      </trkpt>
      <trkpt lat="48.50867" lon="7.16603">
        <ele>832</ele>
        <time>2021-02-21T14:24:24.706Z</time>
      </trkpt>
      <trkpt lat="48.50866" lon="7.16602">
        <ele>833</ele>
        <time>2021-02-21T14:24:25.706Z</time>
      </trkpt>
      <trkpt lat="48.50866" lon="7.166">
        <ele>834</ele>
        <time>2021-02-21T14:24:26.705Z</time>
      </trkpt>
      <trkpt lat="48.50864" lon="7.16599">
        <ele>835</ele>
        <time>2021-02-21T14:24:27.706Z</time>
      </trkpt>
      <trkpt lat="48.50863" lon="7.16598">
        <ele>836</ele>
        <time>2021-02-21T14:24:28.706Z</time>
      </trkpt>
      <trkpt lat="48.50862" lon="7.16597">
        <ele>838</ele>
        <time>2021-02-21T14:24:29.705Z</time>
      </trkpt>
      <trkpt lat="48.50861" lon="7.16596">
        <ele>839</ele>
        <time>2021-02-21T14:24:30.705Z</time>
      </trkpt>
      <trkpt lat="48.5086" lon="7.16595">
        <ele>840</ele>
        <time>2021-02-21T14:24:31.705Z</time>
      </trkpt>
      <trkpt lat="48.50859" lon="7.16594">
        <ele>840</ele>
        <time>2021-02-21T14:24:32.706Z</time>
      </trkpt>
      <trkpt lat="48.50858" lon="7.16593">
        <ele>841</ele>
        <time>2021-02-21T14:24:33.706Z</time>
      </trkpt>
      <trkpt lat="48.50858" lon="7.16592">
        <ele>841</ele>
        <time>2021-02-21T14:24:34.705Z</time>
      </trkpt>
      <trkpt lat="48.50857" lon="7.16591">
        <ele>842</ele>
        <time>2021-02-21T14:24:35.706Z</time>
      </trkpt>
      <trkpt lat="48.50856" lon="7.16591">
        <ele>843</ele>
        <time>2021-02-21T14:24:36.705Z</time>
      </trkpt>
      <trkpt lat="48.50855" lon="7.1659">
        <ele>844</ele>
        <time>2021-02-21T14:24:37.705Z</time>
      </trkpt>
      <trkpt lat="48.50854" lon="7.16589">
        <ele>844</ele>
        <time>2021-02-21T14:24:38.706Z</time>
      </trkpt>
      <trkpt lat="48.50853" lon="7.16589">
        <ele>845</ele>
        <time>2021-02-21T14:24:39.706Z</time>
      </trkpt>
      <trkpt lat="48.50852" lon="7.16587">
        <ele>846</ele>
        <time>2021-02-21T14:24:40.705Z</time>
      </trkpt>
      <trkpt lat="48.50851" lon="7.16587">
        <ele>846</ele>
        <time>2021-02-21T14:24:41.706Z</time>
      </trkpt>
      <trkpt lat="48.50849" lon="7.16587">
        <ele>847</ele>
        <time>2021-02-21T14:24:42.705Z</time>
      </trkpt>
      <trkpt lat="48.50847" lon="7.16587">
        <ele>848</ele>
        <time>2021-02-21T14:24:43.705Z</time>
      </trkpt>
      <trkpt lat="48.50847" lon="7.16588">
        <ele>848</ele>
        <time>2021-02-21T14:24:44.706Z</time>
      </trkpt>
      <trkpt lat="48.50845" lon="7.16588">
        <ele>849</ele>
        <time>2021-02-21T14:24:45.706Z</time>
      </trkpt>
      <trkpt lat="48.50843" lon="7.16588">
        <ele>849</ele>
        <time>2021-02-21T14:24:46.706Z</time>
      </trkpt>
      <trkpt lat="48.50841" lon="7.16588">
        <ele>850</ele>
        <time>2021-02-21T14:24:47.706Z</time>
      </trkpt>
      <trkpt lat="48.5084" lon="7.16588">
        <ele>850</ele>
        <time>2021-02-21T14:24:48.705Z</time>
      </trkpt>
      <trkpt lat="48.50839" lon="7.16587">
        <ele>851</ele>
        <time>2021-02-21T14:24:49.705Z</time>
      </trkpt>
      <trkpt lat="48.50838" lon="7.16586">
        <ele>851</ele>
        <time>2021-02-21T14:24:50.706Z</time>
      </trkpt>
      <trkpt lat="48.50837" lon="7.16586">
        <ele>851</ele>
        <time>2021-02-21T14:24:51.706Z</time>
      </trkpt>
      <trkpt lat="48.50836" lon="7.16585">
        <ele>851</ele>
        <time>2021-02-21T14:24:52.706Z</time>
      </trkpt>
      <trkpt lat="48.50835" lon="7.16584">
        <ele>851</ele>
        <time>2021-02-21T14:24:53.706Z</time>
      </trkpt>
      <trkpt lat="48.50834" lon="7.16583">
        <ele>852</ele>
        <time>2021-02-21T14:24:54.705Z</time>
      </trkpt>
      <trkpt lat="48.50832" lon="7.16582">
        <ele>852</ele>
        <time>2021-02-21T14:24:55.705Z</time>
      </trkpt>
      <trkpt lat="48.50832" lon="7.1658">
        <ele>852</ele>
        <time>2021-02-21T14:24:56.706Z</time>
      </trkpt>
      <trkpt lat="48.5083" lon="7.16579">
        <ele>852</ele>
        <time>2021-02-21T14:24:57.705Z</time>
      </trkpt>
      <trkpt lat="48.50829" lon="7.16578">
        <ele>852</ele>
        <time>2021-02-21T14:24:58.705Z</time>
      </trkpt>
      <trkpt lat="48.50828" lon="7.16578">
        <ele>852</ele>
        <time>2021-02-21T14:24:59.706Z</time>
      </trkpt>
      <trkpt lat="48.50827" lon="7.16578">
        <ele>851</ele>
        <time>2021-02-21T14:25:00.706Z</time>
      </trkpt>
      <trkpt lat="48.50826" lon="7.16578">
        <ele>851</ele>
        <time>2021-02-21T14:25:01.705Z</time>
      </trkpt>
      <trkpt lat="48.50825" lon="7.16578">
        <ele>850</ele>
        <time>2021-02-21T14:25:02.705Z</time>
      </trkpt>
      <trkpt lat="48.50824" lon="7.16578">
        <ele>850</ele>
        <time>2021-02-21T14:25:03.705Z</time>
      </trkpt>
      <trkpt lat="48.50823" lon="7.16578">
        <ele>850</ele>
        <time>2021-02-21T14:25:04.706Z</time>
      </trkpt>
      <trkpt lat="48.50821" lon="7.16578">
        <ele>850</ele>
        <time>2021-02-21T14:25:05.706Z</time>
      </trkpt>
      <trkpt lat="48.5082" lon="7.16577">
        <ele>849</ele>
        <time>2021-02-21T14:25:06.706Z</time>
      </trkpt>
      <trkpt lat="48.50819" lon="7.16577">
        <ele>849</ele>
        <time>2021-02-21T14:25:07.705Z</time>
      </trkpt>
      <trkpt lat="48.50819" lon="7.16576">
        <ele>849</ele>
        <time>2021-02-21T14:25:08.706Z</time>
      </trkpt>
      <trkpt lat="48.50819" lon="7.16575">
        <ele>849</ele>
        <time>2021-02-21T14:25:09.706Z</time>
      </trkpt>
      <trkpt lat="48.50818" lon="7.16574">
        <ele>848</ele>
        <time>2021-02-21T14:25:10.705Z</time>
      </trkpt>
      <trkpt lat="48.50816" lon="7.16574">
        <ele>848</ele>
        <time>2021-02-21T14:25:11.705Z</time>
      </trkpt>
      <trkpt lat="48.50815" lon="7.16573">
        <ele>847</ele>
        <time>2021-02-21T14:25:12.705Z</time>
      </trkpt>
      <trkpt lat="48.50814" lon="7.16572">
        <ele>846</ele>
        <time>2021-02-21T14:25:13.706Z</time>
      </trkpt>
      <trkpt lat="48.50814" lon="7.16572">
        <ele>846</ele>
        <time>2021-02-21T14:25:14.706Z</time>
      </trkpt>
      <trkpt lat="48.50813" lon="7.16571">
        <ele>847</ele>
        <time>2021-02-21T14:25:15.705Z</time>
      </trkpt>
      <trkpt lat="48.50812" lon="7.16571">
        <ele>847</ele>
        <time>2021-02-21T14:25:16.706Z</time>
      </trkpt>
      <trkpt lat="48.50811" lon="7.1657">
        <ele>847</ele>
        <time>2021-02-21T14:25:17.706Z</time>
      </trkpt>
      <trkpt lat="48.5081" lon="7.16569">
        <ele>847</ele>
        <time>2021-02-21T14:25:18.706Z</time>
      </trkpt>
      <trkpt lat="48.50808" lon="7.16569">
        <ele>847</ele>
        <time>2021-02-21T14:25:19.706Z</time>
      </trkpt>
      <trkpt lat="48.50807" lon="7.16568">
        <ele>847</ele>
        <time>2021-02-21T14:25:20.706Z</time>
      </trkpt>
      <trkpt lat="48.50806" lon="7.16569">
        <ele>847</ele>
        <time>2021-02-21T14:25:21.705Z</time>
      </trkpt>
      <trkpt lat="48.50805" lon="7.16569">
        <ele>847</ele>
        <time>2021-02-21T14:25:22.706Z</time>
      </trkpt>
      <trkpt lat="48.50804" lon="7.16568">
        <ele>846</ele>
        <time>2021-02-21T14:25:23.705Z</time>
      </trkpt>
      <trkpt lat="48.50803" lon="7.16568">
        <ele>846</ele>
        <time>2021-02-21T14:25:24.705Z</time>
      </trkpt>
      <trkpt lat="48.50802" lon="7.16567">
        <ele>846</ele>
        <time>2021-02-21T14:25:25.706Z</time>
      </trkpt>
      <trkpt lat="48.50801" lon="7.16566">
        <ele>846</ele>
        <time>2021-02-21T14:25:26.706Z</time>
      </trkpt>
      <trkpt lat="48.508" lon="7.16565">
        <ele>846</ele>
        <time>2021-02-21T14:25:27.706Z</time>
      </trkpt>
      <trkpt lat="48.50799" lon="7.16564">
        <ele>846</ele>
        <time>2021-02-21T14:25:28.706Z</time>
      </trkpt>
      <trkpt lat="48.50798" lon="7.16563">
        <ele>847</ele>
        <time>2021-02-21T14:25:29.706Z</time>
      </trkpt>
      <trkpt lat="48.50796" lon="7.16563">
        <ele>847</ele>
        <time>2021-02-21T14:25:30.706Z</time>
      </trkpt>
      <trkpt lat="48.50795" lon="7.16563">
        <ele>848</ele>
        <time>2021-02-21T14:25:31.706Z</time>
      </trkpt>
      <trkpt lat="48.50793" lon="7.16563">
        <ele>848</ele>
        <time>2021-02-21T14:25:32.706Z</time>
      </trkpt>
      <trkpt lat="48.50792" lon="7.16561">
        <ele>848</ele>
        <time>2021-02-21T14:25:33.706Z</time>
      </trkpt>
      <trkpt lat="48.5079" lon="7.16561">
        <ele>848</ele>
        <time>2021-02-21T14:25:34.706Z</time>
      </trkpt>
      <trkpt lat="48.50788" lon="7.1656">
        <ele>848</ele>
        <time>2021-02-21T14:25:35.706Z</time>
      </trkpt>
      <trkpt lat="48.50787" lon="7.16559">
        <ele>848</ele>
        <time>2021-02-21T14:25:36.706Z</time>
      </trkpt>
      <trkpt lat="48.50786" lon="7.16558">
        <ele>848</ele>
        <time>2021-02-21T14:25:37.706Z</time>
      </trkpt>
      <trkpt lat="48.50784" lon="7.16557">
        <ele>847</ele>
        <time>2021-02-21T14:25:38.706Z</time>
      </trkpt>
      <trkpt lat="48.50783" lon="7.16557">
        <ele>847</ele>
        <time>2021-02-21T14:25:39.706Z</time>
      </trkpt>
      <trkpt lat="48.50781" lon="7.16556">
        <ele>847</ele>
        <time>2021-02-21T14:25:40.706Z</time>
      </trkpt>
      <trkpt lat="48.5078" lon="7.16555">
        <ele>847</ele>
        <time>2021-02-21T14:25:41.706Z</time>
      </trkpt>
      <trkpt lat="48.50779" lon="7.16555">
        <ele>847</ele>
        <time>2021-02-21T14:25:42.706Z</time>
      </trkpt>
      <trkpt lat="48.50778" lon="7.16553">
        <ele>847</ele>
        <time>2021-02-21T14:25:43.706Z</time>
      </trkpt>
      <trkpt lat="48.50777" lon="7.16553">
        <ele>847</ele>
        <time>2021-02-21T14:25:48.833Z</time>
      </trkpt>
      <trkpt lat="48.50776" lon="7.16552">
        <ele>847</ele>
        <time>2021-02-21T14:25:49.833Z</time>
      </trkpt>
      <trkpt lat="48.50775" lon="7.16551">
        <ele>848</ele>
        <time>2021-02-21T14:25:50.833Z</time>
      </trkpt>
      <trkpt lat="48.50774" lon="7.1655">
        <ele>848</ele>
        <time>2021-02-21T14:25:51.833Z</time>
      </trkpt>
      <trkpt lat="48.50773" lon="7.16548">
        <ele>847</ele>
        <time>2021-02-21T14:25:52.832Z</time>
      </trkpt>
      <trkpt lat="48.50771" lon="7.16546">
        <ele>847</ele>
        <time>2021-02-21T14:25:53.833Z</time>
      </trkpt>
      <trkpt lat="48.5077" lon="7.16545">
        <ele>847</ele>
        <time>2021-02-21T14:25:54.833Z</time>
      </trkpt>
      <trkpt lat="48.50769" lon="7.16543">
        <ele>847</ele>
        <time>2021-02-21T14:25:55.832Z</time>
      </trkpt>
      <trkpt lat="48.50767" lon="7.16541">
        <ele>847</ele>
        <time>2021-02-21T14:25:56.833Z</time>
      </trkpt>
      <trkpt lat="48.50766" lon="7.1654">
        <ele>847</ele>
        <time>2021-02-21T14:25:57.833Z</time>
      </trkpt>
      <trkpt lat="48.50765" lon="7.16539">
        <ele>846</ele>
        <time>2021-02-21T14:25:58.832Z</time>
      </trkpt>
      <trkpt lat="48.50764" lon="7.16537">
        <ele>846</ele>
        <time>2021-02-21T14:25:59.832Z</time>
      </trkpt>
      <trkpt lat="48.50762" lon="7.16536">
        <ele>845</ele>
        <time>2021-02-21T14:26:00.833Z</time>
      </trkpt>
      <trkpt lat="48.50761" lon="7.16535">
        <ele>844</ele>
        <time>2021-02-21T14:26:01.832Z</time>
      </trkpt>
      <trkpt lat="48.5076" lon="7.16534">
        <ele>844</ele>
        <time>2021-02-21T14:26:02.833Z</time>
      </trkpt>
      <trkpt lat="48.50759" lon="7.16533">
        <ele>844</ele>
        <time>2021-02-21T14:26:03.832Z</time>
      </trkpt>
      <trkpt lat="48.50758" lon="7.16531">
        <ele>843</ele>
        <time>2021-02-21T14:26:04.833Z</time>
      </trkpt>
      <trkpt lat="48.50757" lon="7.1653">
        <ele>843</ele>
        <time>2021-02-21T14:26:05.833Z</time>
      </trkpt>
      <trkpt lat="48.50755" lon="7.16527">
        <ele>843</ele>
        <time>2021-02-21T14:26:06.833Z</time>
      </trkpt>
      <trkpt lat="48.50755" lon="7.16526">
        <ele>842</ele>
        <time>2021-02-21T14:26:07.833Z</time>
      </trkpt>
      <trkpt lat="48.50754" lon="7.16525">
        <ele>842</ele>
        <time>2021-02-21T14:26:08.833Z</time>
      </trkpt>
      <trkpt lat="48.50752" lon="7.16523">
        <ele>841</ele>
        <time>2021-02-21T14:26:09.832Z</time>
      </trkpt>
      <trkpt lat="48.50751" lon="7.16522">
        <ele>841</ele>
        <time>2021-02-21T14:26:10.832Z</time>
      </trkpt>
      <trkpt lat="48.5075" lon="7.1652">
        <ele>841</ele>
        <time>2021-02-21T14:26:11.833Z</time>
      </trkpt>
      <trkpt lat="48.50748" lon="7.16519">
        <ele>840</ele>
        <time>2021-02-21T14:26:12.832Z</time>
      </trkpt>
      <trkpt lat="48.50747" lon="7.16518">
        <ele>839</ele>
        <time>2021-02-21T14:26:13.833Z</time>
      </trkpt>
      <trkpt lat="48.50746" lon="7.16517">
        <ele>839</ele>
        <time>2021-02-21T14:26:14.832Z</time>
      </trkpt>
      <trkpt lat="48.50745" lon="7.16515">
        <ele>838</ele>
        <time>2021-02-21T14:26:15.832Z</time>
      </trkpt>
      <trkpt lat="48.50745" lon="7.16514">
        <ele>837</ele>
        <time>2021-02-21T14:26:16.833Z</time>
      </trkpt>
      <trkpt lat="48.50744" lon="7.16513">
        <ele>837</ele>
        <time>2021-02-21T14:26:19.940Z</time>
      </trkpt>
      <trkpt lat="48.50743" lon="7.16511">
        <ele>837</ele>
        <time>2021-02-21T14:26:20.941Z</time>
      </trkpt>
      <trkpt lat="48.50742" lon="7.1651">
        <ele>837</ele>
        <time>2021-02-21T14:26:32.936Z</time>
      </trkpt>
      <trkpt lat="48.50742" lon="7.16509">
        <ele>837</ele>
        <time>2021-02-21T14:26:33.936Z</time>
      </trkpt>
      <trkpt lat="48.50741" lon="7.16508">
        <ele>837</ele>
        <time>2021-02-21T14:26:34.936Z</time>
      </trkpt>
      <trkpt lat="48.5074" lon="7.16507">
        <ele>837</ele>
        <time>2021-02-21T14:27:34.082Z</time>
      </trkpt>
      <trkpt lat="48.50739" lon="7.16506">
        <ele>838</ele>
        <time>2021-02-21T14:27:35.082Z</time>
      </trkpt>
      <trkpt lat="48.50738" lon="7.16505">
        <ele>838</ele>
        <time>2021-02-21T14:27:36.083Z</time>
      </trkpt>
      <trkpt lat="48.50736" lon="7.16503">
        <ele>838</ele>
        <time>2021-02-21T14:27:37.083Z</time>
      </trkpt>
      <trkpt lat="48.50735" lon="7.16501">
        <ele>838</ele>
        <time>2021-02-21T14:27:38.082Z</time>
      </trkpt>
      <trkpt lat="48.50734" lon="7.16499">
        <ele>838</ele>
        <time>2021-02-21T14:27:39.083Z</time>
      </trkpt>
      <trkpt lat="48.50734" lon="7.16497">
        <ele>838</ele>
        <time>2021-02-21T14:27:40.083Z</time>
      </trkpt>
      <trkpt lat="48.50733" lon="7.16495">
        <ele>838</ele>
        <time>2021-02-21T14:27:41.082Z</time>
      </trkpt>
      <trkpt lat="48.50732" lon="7.16494">
        <ele>838</ele>
        <time>2021-02-21T14:27:42.082Z</time>
      </trkpt>
      <trkpt lat="48.50731" lon="7.16493">
        <ele>838</ele>
        <time>2021-02-21T14:27:43.083Z</time>
      </trkpt>
      <trkpt lat="48.5073" lon="7.16492">
        <ele>838</ele>
        <time>2021-02-21T14:27:44.082Z</time>
      </trkpt>
      <trkpt lat="48.5073" lon="7.16491">
        <ele>838</ele>
        <time>2021-02-21T14:27:45.082Z</time>
      </trkpt>
      <trkpt lat="48.50729" lon="7.1649">
        <ele>837</ele>
        <time>2021-02-21T14:27:46.083Z</time>
      </trkpt>
      <trkpt lat="48.50729" lon="7.16488">
        <ele>837</ele>
        <time>2021-02-21T14:27:47.083Z</time>
      </trkpt>
      <trkpt lat="48.50728" lon="7.16487">
        <ele>837</ele>
        <time>2021-02-21T14:27:48.083Z</time>
      </trkpt>
      <trkpt lat="48.50726" lon="7.16486">
        <ele>837</ele>
        <time>2021-02-21T14:27:49.083Z</time>
      </trkpt>
      <trkpt lat="48.50725" lon="7.16485">
        <ele>837</ele>
        <time>2021-02-21T14:27:50.083Z</time>
      </trkpt>
      <trkpt lat="48.50724" lon="7.16484">
        <ele>837</ele>
        <time>2021-02-21T14:27:51.083Z</time>
      </trkpt>
      <trkpt lat="48.50723" lon="7.16483">
        <ele>837</ele>
        <time>2021-02-21T14:27:52.083Z</time>
      </trkpt>
      <trkpt lat="48.50721" lon="7.16481">
        <ele>836</ele>
        <time>2021-02-21T14:27:53.083Z</time>
      </trkpt>
      <trkpt lat="48.50719" lon="7.16478">
        <ele>836</ele>
        <time>2021-02-21T14:27:54.083Z</time>
      </trkpt>
      <trkpt lat="48.50718" lon="7.16476">
        <ele>836</ele>
        <time>2021-02-21T14:27:55.083Z</time>
      </trkpt>
      <trkpt lat="48.50717" lon="7.16474">
        <ele>836</ele>
        <time>2021-02-21T14:27:56.082Z</time>
      </trkpt>
      <trkpt lat="48.50717" lon="7.16472">
        <ele>836</ele>
        <time>2021-02-21T14:27:57.083Z</time>
      </trkpt>
      <trkpt lat="48.50716" lon="7.16469">
        <ele>836</ele>
        <time>2021-02-21T14:27:58.083Z</time>
      </trkpt>
      <trkpt lat="48.50716" lon="7.16466">
        <ele>836</ele>
        <time>2021-02-21T14:27:59.082Z</time>
      </trkpt>
      <trkpt lat="48.50715" lon="7.16465">
        <ele>836</ele>
        <time>2021-02-21T14:28:00.082Z</time>
      </trkpt>
      <trkpt lat="48.50715" lon="7.16463">
        <ele>836</ele>
        <time>2021-02-21T14:28:01.083Z</time>
      </trkpt>
      <trkpt lat="48.50715" lon="7.1646">
        <ele>836</ele>
        <time>2021-02-21T14:28:02.082Z</time>
      </trkpt>
      <trkpt lat="48.50714" lon="7.16457">
        <ele>836</ele>
        <time>2021-02-21T14:28:03.083Z</time>
      </trkpt>
      <trkpt lat="48.50715" lon="7.16454">
        <ele>836</ele>
        <time>2021-02-21T14:28:04.082Z</time>
      </trkpt>
      <trkpt lat="48.50715" lon="7.16452">
        <ele>836</ele>
        <time>2021-02-21T14:28:05.083Z</time>
      </trkpt>
      <trkpt lat="48.50714" lon="7.1645">
        <ele>837</ele>
        <time>2021-02-21T14:28:06.082Z</time>
      </trkpt>
      <trkpt lat="48.50713" lon="7.16448">
        <ele>836</ele>
        <time>2021-02-21T14:28:07.082Z</time>
      </trkpt>
      <trkpt lat="48.50713" lon="7.16445">
        <ele>836</ele>
        <time>2021-02-21T14:28:08.083Z</time>
      </trkpt>
      <trkpt lat="48.50713" lon="7.16443">
        <ele>836</ele>
        <time>2021-02-21T14:28:09.082Z</time>
      </trkpt>
      <trkpt lat="48.50712" lon="7.16442">
        <ele>836</ele>
        <time>2021-02-21T14:28:10.082Z</time>
      </trkpt>
      <trkpt lat="48.50712" lon="7.16439">
        <ele>835</ele>
        <time>2021-02-21T14:28:11.082Z</time>
      </trkpt>
      <trkpt lat="48.50712" lon="7.16437">
        <ele>835</ele>
        <time>2021-02-21T14:28:12.083Z</time>
      </trkpt>
      <trkpt lat="48.50711" lon="7.16434">
        <ele>834</ele>
        <time>2021-02-21T14:28:13.083Z</time>
      </trkpt>
      <trkpt lat="48.50711" lon="7.16432">
        <ele>834</ele>
        <time>2021-02-21T14:28:14.083Z</time>
      </trkpt>
      <trkpt lat="48.50711" lon="7.1643">
        <ele>833</ele>
        <time>2021-02-21T14:28:15.083Z</time>
      </trkpt>
      <trkpt lat="48.50711" lon="7.16428">
        <ele>833</ele>
        <time>2021-02-21T14:28:16.083Z</time>
      </trkpt>
      <trkpt lat="48.5071" lon="7.16427">
        <ele>833</ele>
        <time>2021-02-21T14:28:17.082Z</time>
      </trkpt>
      <trkpt lat="48.5071" lon="7.16425">
        <ele>832</ele>
        <time>2021-02-21T14:28:18.083Z</time>
      </trkpt>
      <trkpt lat="48.50709" lon="7.16423">
        <ele>832</ele>
        <time>2021-02-21T14:28:19.082Z</time>
      </trkpt>
      <trkpt lat="48.50709" lon="7.1642">
        <ele>832</ele>
        <time>2021-02-21T14:28:20.082Z</time>
      </trkpt>
      <trkpt lat="48.50709" lon="7.16419">
        <ele>831</ele>
        <time>2021-02-21T14:28:21.083Z</time>
      </trkpt>
      <trkpt lat="48.50709" lon="7.16419">
        <ele>831</ele>
        <time>2021-02-21T14:28:22.083Z</time>
      </trkpt>
      <trkpt lat="48.50709" lon="7.16418">
        <ele>831</ele>
        <time>2021-02-21T14:28:23.082Z</time>
      </trkpt>
      <trkpt lat="48.50709" lon="7.16417">
        <ele>831</ele>
        <time>2021-02-21T14:28:24.083Z</time>
      </trkpt>
      <trkpt lat="48.50709" lon="7.16416">
        <ele>831</ele>
        <time>2021-02-21T14:28:25.082Z</time>
      </trkpt>
      <trkpt lat="48.5071" lon="7.16416">
        <ele>830</ele>
        <time>2021-02-21T14:28:26.083Z</time>
      </trkpt>
      <trkpt lat="48.5071" lon="7.16415">
        <ele>829</ele>
        <time>2021-02-21T14:28:27.084Z</time>
      </trkpt>
      <trkpt lat="48.5071" lon="7.16415">
        <ele>829</ele>
        <time>2021-02-21T14:28:28.083Z</time>
      </trkpt>
      <trkpt lat="48.50713" lon="7.16428">
        <ele>831</ele>
        <time>2021-02-21T14:28:29.084Z</time>
      </trkpt>
      <trkpt lat="48.50713" lon="7.1643">
        <ele>831</ele>
        <time>2021-02-21T14:28:30.083Z</time>
      </trkpt>
      <trkpt lat="48.50713" lon="7.16431">
        <ele>831</ele>
        <time>2021-02-21T14:28:31.083Z</time>
      </trkpt>
      <trkpt lat="48.50711" lon="7.16426">
        <ele>826</ele>
        <time>2021-02-21T14:28:32.085Z</time>
      </trkpt>
      <trkpt lat="48.5071" lon="7.16423">
        <ele>827</ele>
        <time>2021-02-21T14:28:33.084Z</time>
      </trkpt>
      <trkpt lat="48.50709" lon="7.1642">
        <ele>827</ele>
        <time>2021-02-21T14:28:34.084Z</time>
      </trkpt>
      <trkpt lat="48.50708" lon="7.16416">
        <ele>827</ele>
        <time>2021-02-21T14:28:35.085Z</time>
      </trkpt>
      <trkpt lat="48.50707" lon="7.16411">
        <ele>828</ele>
        <time>2021-02-21T14:28:36.084Z</time>
      </trkpt>
      <trkpt lat="48.50707" lon="7.16408">
        <ele>828</ele>
        <time>2021-02-21T14:28:37.085Z</time>
      </trkpt>
      <trkpt lat="48.50706" lon="7.16404">
        <ele>829</ele>
        <time>2021-02-21T14:28:38.084Z</time>
      </trkpt>
      <trkpt lat="48.50706" lon="7.16399">
        <ele>829</ele>
        <time>2021-02-21T14:28:39.084Z</time>
      </trkpt>
      <trkpt lat="48.50705" lon="7.16397">
        <ele>829</ele>
        <time>2021-02-21T14:28:40.085Z</time>
      </trkpt>
      <trkpt lat="48.50704" lon="7.16394">
        <ele>830</ele>
        <time>2021-02-21T14:28:41.084Z</time>
      </trkpt>
      <trkpt lat="48.50704" lon="7.16393">
        <ele>830</ele>
        <time>2021-02-21T14:28:42.085Z</time>
      </trkpt>
      <trkpt lat="48.50703" lon="7.16391">
        <ele>830</ele>
        <time>2021-02-21T14:28:43.085Z</time>
      </trkpt>
      <trkpt lat="48.50703" lon="7.16391">
        <ele>830</ele>
        <time>2021-02-21T14:28:44.085Z</time>
      </trkpt>
      <trkpt lat="48.50702" lon="7.1639">
        <ele>830</ele>
        <time>2021-02-21T14:28:45.085Z</time>
      </trkpt>
      <trkpt lat="48.50701" lon="7.16388">
        <ele>830</ele>
        <time>2021-02-21T14:28:46.085Z</time>
      </trkpt>
      <trkpt lat="48.50701" lon="7.16386">
        <ele>831</ele>
        <time>2021-02-21T14:28:47.085Z</time>
      </trkpt>
      <trkpt lat="48.50701" lon="7.16384">
        <ele>831</ele>
        <time>2021-02-21T14:28:48.085Z</time>
      </trkpt>
      <trkpt lat="48.50701" lon="7.16382">
        <ele>831</ele>
        <time>2021-02-21T14:28:49.084Z</time>
      </trkpt>
      <trkpt lat="48.507" lon="7.16378">
        <ele>832</ele>
        <time>2021-02-21T14:28:50.085Z</time>
      </trkpt>
      <trkpt lat="48.50699" lon="7.16375">
        <ele>832</ele>
        <time>2021-02-21T14:28:51.085Z</time>
      </trkpt>
      <trkpt lat="48.50699" lon="7.16372">
        <ele>833</ele>
        <time>2021-02-21T14:28:52.084Z</time>
      </trkpt>
      <trkpt lat="48.50698" lon="7.16369">
        <ele>833</ele>
        <time>2021-02-21T14:28:53.084Z</time>
      </trkpt>
      <trkpt lat="48.50697" lon="7.16366">
        <ele>834</ele>
        <time>2021-02-21T14:28:54.085Z</time>
      </trkpt>
      <trkpt lat="48.50697" lon="7.16364">
        <ele>835</ele>
        <time>2021-02-21T14:28:55.085Z</time>
      </trkpt>
      <trkpt lat="48.50695" lon="7.16363">
        <ele>836</ele>
        <time>2021-02-21T14:28:56.084Z</time>
      </trkpt>
      <trkpt lat="48.50695" lon="7.16361">
        <ele>836</ele>
        <time>2021-02-21T14:28:57.085Z</time>
      </trkpt>
      <trkpt lat="48.50694" lon="7.16359">
        <ele>837</ele>
        <time>2021-02-21T14:28:58.085Z</time>
      </trkpt>
      <trkpt lat="48.50693" lon="7.16358">
        <ele>837</ele>
        <time>2021-02-21T14:28:59.084Z</time>
      </trkpt>
      <trkpt lat="48.50692" lon="7.16356">
        <ele>837</ele>
        <time>2021-02-21T14:29:00.085Z</time>
      </trkpt>
      <trkpt lat="48.50692" lon="7.16355">
        <ele>836</ele>
        <time>2021-02-21T14:29:01.085Z</time>
      </trkpt>
      <trkpt lat="48.50691" lon="7.16354">
        <ele>835</ele>
        <time>2021-02-21T14:29:02.084Z</time>
      </trkpt>
      <trkpt lat="48.5069" lon="7.16353">
        <ele>834</ele>
        <time>2021-02-21T14:29:03.085Z</time>
      </trkpt>
      <trkpt lat="48.50689" lon="7.16351">
        <ele>833</ele>
        <time>2021-02-21T14:29:04.085Z</time>
      </trkpt>
      <trkpt lat="48.50688" lon="7.16351">
        <ele>833</ele>
        <time>2021-02-21T14:29:05.084Z</time>
      </trkpt>
      <trkpt lat="48.50687" lon="7.1635">
        <ele>832</ele>
        <time>2021-02-21T14:29:06.085Z</time>
      </trkpt>
      <trkpt lat="48.50686" lon="7.16349">
        <ele>831</ele>
        <time>2021-02-21T14:29:07.085Z</time>
      </trkpt>
      <trkpt lat="48.50685" lon="7.16348">
        <ele>831</ele>
        <time>2021-02-21T14:29:08.085Z</time>
      </trkpt>
      <trkpt lat="48.50685" lon="7.16346">
        <ele>830</ele>
        <time>2021-02-21T14:29:09.085Z</time>
      </trkpt>
      <trkpt lat="48.50684" lon="7.16345">
        <ele>830</ele>
        <time>2021-02-21T14:29:10.085Z</time>
      </trkpt>
      <trkpt lat="48.50683" lon="7.16343">
        <ele>830</ele>
        <time>2021-02-21T14:29:11.085Z</time>
      </trkpt>
      <trkpt lat="48.50683" lon="7.16342">
        <ele>829</ele>
        <time>2021-02-21T14:29:12.085Z</time>
      </trkpt>
      <trkpt lat="48.50683" lon="7.1634">
        <ele>829</ele>
        <time>2021-02-21T14:29:13.085Z</time>
      </trkpt>
      <trkpt lat="48.50682" lon="7.1634">
        <ele>829</ele>
        <time>2021-02-21T14:29:14.085Z</time>
      </trkpt>
      <trkpt lat="48.50681" lon="7.16338">
        <ele>829</ele>
        <time>2021-02-21T14:29:15.085Z</time>
      </trkpt>
      <trkpt lat="48.5068" lon="7.16337">
        <ele>829</ele>
        <time>2021-02-21T14:29:16.085Z</time>
      </trkpt>
      <trkpt lat="48.50679" lon="7.16336">
        <ele>829</ele>
        <time>2021-02-21T14:29:17.084Z</time>
      </trkpt>
      <trkpt lat="48.50678" lon="7.16334">
        <ele>829</ele>
        <time>2021-02-21T14:29:18.084Z</time>
      </trkpt>
      <trkpt lat="48.50678" lon="7.16332">
        <ele>829</ele>
        <time>2021-02-21T14:29:19.084Z</time>
      </trkpt>
      <trkpt lat="48.50677" lon="7.1633">
        <ele>829</ele>
        <time>2021-02-21T14:29:20.084Z</time>
      </trkpt>
      <trkpt lat="48.50676" lon="7.16328">
        <ele>830</ele>
        <time>2021-02-21T14:29:21.085Z</time>
      </trkpt>
      <trkpt lat="48.50675" lon="7.16326">
        <ele>830</ele>
        <time>2021-02-21T14:29:22.084Z</time>
      </trkpt>
      <trkpt lat="48.50675" lon="7.16324">
        <ele>831</ele>
        <time>2021-02-21T14:29:23.085Z</time>
      </trkpt>
      <trkpt lat="48.50675" lon="7.16323">
        <ele>831</ele>
        <time>2021-02-21T14:29:24.084Z</time>
      </trkpt>
      <trkpt lat="48.50674" lon="7.16322">
        <ele>832</ele>
        <time>2021-02-21T14:29:25.085Z</time>
      </trkpt>
      <trkpt lat="48.50673" lon="7.16321">
        <ele>832</ele>
        <time>2021-02-21T14:29:26.085Z</time>
      </trkpt>
      <trkpt lat="48.50673" lon="7.1632">
        <ele>833</ele>
        <time>2021-02-21T14:29:27.085Z</time>
      </trkpt>
      <trkpt lat="48.50673" lon="7.16319">
        <ele>833</ele>
        <time>2021-02-21T14:29:28.085Z</time>
      </trkpt>
      <trkpt lat="48.50672" lon="7.16317">
        <ele>834</ele>
        <time>2021-02-21T14:29:29.085Z</time>
      </trkpt>
      <trkpt lat="48.50672" lon="7.16316">
        <ele>834</ele>
        <time>2021-02-21T14:29:30.085Z</time>
      </trkpt>
      <trkpt lat="48.50672" lon="7.16314">
        <ele>835</ele>
        <time>2021-02-21T14:29:31.085Z</time>
      </trkpt>
      <trkpt lat="48.50672" lon="7.16312">
        <ele>835</ele>
        <time>2021-02-21T14:29:32.085Z</time>
      </trkpt>
      <trkpt lat="48.50671" lon="7.16311">
        <ele>835</ele>
        <time>2021-02-21T14:29:33.085Z</time>
      </trkpt>
      <trkpt lat="48.5067" lon="7.16309">
        <ele>835</ele>
        <time>2021-02-21T14:29:34.084Z</time>
      </trkpt>
      <trkpt lat="48.50669" lon="7.16307">
        <ele>835</ele>
        <time>2021-02-21T14:29:35.085Z</time>
      </trkpt>
      <trkpt lat="48.50669" lon="7.16305">
        <ele>834</ele>
        <time>2021-02-21T14:29:36.085Z</time>
      </trkpt>
      <trkpt lat="48.50669" lon="7.16303">
        <ele>834</ele>
        <time>2021-02-21T14:29:37.084Z</time>
      </trkpt>
      <trkpt lat="48.50668" lon="7.16302">
        <ele>834</ele>
        <time>2021-02-21T14:29:38.085Z</time>
      </trkpt>
      <trkpt lat="48.50668" lon="7.163">
        <ele>834</ele>
        <time>2021-02-21T14:29:39.084Z</time>
      </trkpt>
      <trkpt lat="48.50667" lon="7.16299">
        <ele>835</ele>
        <time>2021-02-21T14:29:40.084Z</time>
      </trkpt>
      <trkpt lat="48.50667" lon="7.16298">
        <ele>835</ele>
        <time>2021-02-21T14:29:41.085Z</time>
      </trkpt>
      <trkpt lat="48.50666" lon="7.16296">
        <ele>835</ele>
        <time>2021-02-21T14:29:42.084Z</time>
      </trkpt>
      <trkpt lat="48.50666" lon="7.16294">
        <ele>834</ele>
        <time>2021-02-21T14:29:43.084Z</time>
      </trkpt>
      <trkpt lat="48.50666" lon="7.16293">
        <ele>834</ele>
        <time>2021-02-21T14:29:44.085Z</time>
      </trkpt>
      <trkpt lat="48.50665" lon="7.16291">
        <ele>834</ele>
        <time>2021-02-21T14:29:45.085Z</time>
      </trkpt>
      <trkpt lat="48.50665" lon="7.16289">
        <ele>833</ele>
        <time>2021-02-21T14:29:46.085Z</time>
      </trkpt>
      <trkpt lat="48.50665" lon="7.16287">
        <ele>833</ele>
        <time>2021-02-21T14:29:47.084Z</time>
      </trkpt>
      <trkpt lat="48.50665" lon="7.16284">
        <ele>833</ele>
        <time>2021-02-21T14:29:48.085Z</time>
      </trkpt>
      <trkpt lat="48.50664" lon="7.16282">
        <ele>833</ele>
        <time>2021-02-21T14:29:49.085Z</time>
      </trkpt>
      <trkpt lat="48.50665" lon="7.16279">
        <ele>832</ele>
        <time>2021-02-21T14:29:50.084Z</time>
      </trkpt>
      <trkpt lat="48.50665" lon="7.16273">
        <ele>833</ele>
        <time>2021-02-21T14:29:51.084Z</time>
      </trkpt>
      <trkpt lat="48.50665" lon="7.1627">
        <ele>833</ele>
        <time>2021-02-21T14:29:52.084Z</time>
      </trkpt>
      <trkpt lat="48.50664" lon="7.16267">
        <ele>834</ele>
        <time>2021-02-21T14:29:53.084Z</time>
      </trkpt>
      <trkpt lat="48.50664" lon="7.16264">
        <ele>834</ele>
        <time>2021-02-21T14:29:54.084Z</time>
      </trkpt>
      <trkpt lat="48.50664" lon="7.16261">
        <ele>834</ele>
        <time>2021-02-21T14:29:55.085Z</time>
      </trkpt>
      <trkpt lat="48.50664" lon="7.16259">
        <ele>834</ele>
        <time>2021-02-21T14:29:56.085Z</time>
      </trkpt>
      <trkpt lat="48.50664" lon="7.16256">
        <ele>834</ele>
        <time>2021-02-21T14:29:57.085Z</time>
      </trkpt>
      <trkpt lat="48.50665" lon="7.16254">
        <ele>834</ele>
        <time>2021-02-21T14:29:58.085Z</time>
      </trkpt>
      <trkpt lat="48.50666" lon="7.16251">
        <ele>834</ele>
        <time>2021-02-21T14:29:59.084Z</time>
      </trkpt>
      <trkpt lat="48.50666" lon="7.16249">
        <ele>835</ele>
        <time>2021-02-21T14:30:00.084Z</time>
      </trkpt>
      <trkpt lat="48.50666" lon="7.16247">
        <ele>835</ele>
        <time>2021-02-21T14:30:01.084Z</time>
      </trkpt>
      <trkpt lat="48.50666" lon="7.16245">
        <ele>834</ele>
        <time>2021-02-21T14:30:02.085Z</time>
      </trkpt>
      <trkpt lat="48.50665" lon="7.16243">
        <ele>834</ele>
        <time>2021-02-21T14:30:03.084Z</time>
      </trkpt>
      <trkpt lat="48.50665" lon="7.16241">
        <ele>834</ele>
        <time>2021-02-21T14:30:04.085Z</time>
      </trkpt>
      <trkpt lat="48.50665" lon="7.16239">
        <ele>833</ele>
        <time>2021-02-21T14:30:05.085Z</time>
      </trkpt>
      <trkpt lat="48.50664" lon="7.16237">
        <ele>833</ele>
        <time>2021-02-21T14:30:06.084Z</time>
      </trkpt>
      <trkpt lat="48.50663" lon="7.16236">
        <ele>832</ele>
        <time>2021-02-21T14:30:07.085Z</time>
      </trkpt>
      <trkpt lat="48.50663" lon="7.16235">
        <ele>832</ele>
        <time>2021-02-21T14:30:08.085Z</time>
      </trkpt>
      <trkpt lat="48.50662" lon="7.16234">
        <ele>831</ele>
        <time>2021-02-21T14:30:09.085Z</time>
      </trkpt>
      <trkpt lat="48.50662" lon="7.16233">
        <ele>831</ele>
        <time>2021-02-21T14:30:10.085Z</time>
      </trkpt>
      <trkpt lat="48.50661" lon="7.16232">
        <ele>831</ele>
        <time>2021-02-21T14:30:11.085Z</time>
      </trkpt>
      <trkpt lat="48.50661" lon="7.16231">
        <ele>830</ele>
        <time>2021-02-21T14:30:12.085Z</time>
      </trkpt>
      <trkpt lat="48.5066" lon="7.1623">
        <ele>830</ele>
        <time>2021-02-21T14:30:13.085Z</time>
      </trkpt>
      <trkpt lat="48.50658" lon="7.16229">
        <ele>830</ele>
        <time>2021-02-21T14:30:14.085Z</time>
      </trkpt>
      <trkpt lat="48.50658" lon="7.16228">
        <ele>830</ele>
        <time>2021-02-21T14:30:15.085Z</time>
      </trkpt>
      <trkpt lat="48.50657" lon="7.16227">
        <ele>829</ele>
        <time>2021-02-21T14:30:16.085Z</time>
      </trkpt>
      <trkpt lat="48.50657" lon="7.16226">
        <ele>829</ele>
        <time>2021-02-21T14:30:17.085Z</time>
      </trkpt>
      <trkpt lat="48.50656" lon="7.16224">
        <ele>828</ele>
        <time>2021-02-21T14:30:18.084Z</time>
      </trkpt>
      <trkpt lat="48.50655" lon="7.16222">
        <ele>828</ele>
        <time>2021-02-21T14:30:19.085Z</time>
      </trkpt>
      <trkpt lat="48.50655" lon="7.1622">
        <ele>827</ele>
        <time>2021-02-21T14:30:20.084Z</time>
      </trkpt>
      <trkpt lat="48.50655" lon="7.16218">
        <ele>827</ele>
        <time>2021-02-21T14:30:21.084Z</time>
      </trkpt>
      <trkpt lat="48.50655" lon="7.16216">
        <ele>826</ele>
        <time>2021-02-21T14:30:22.085Z</time>
      </trkpt>
      <trkpt lat="48.50654" lon="7.16214">
        <ele>826</ele>
        <time>2021-02-21T14:30:23.084Z</time>
      </trkpt>
      <trkpt lat="48.50654" lon="7.16212">
        <ele>826</ele>
        <time>2021-02-21T14:30:24.084Z</time>
      </trkpt>
      <trkpt lat="48.50654" lon="7.1621">
        <ele>826</ele>
        <time>2021-02-21T14:30:25.085Z</time>
      </trkpt>
      <trkpt lat="48.50654" lon="7.16209">
        <ele>826</ele>
        <time>2021-02-21T14:30:26.085Z</time>
      </trkpt>
      <trkpt lat="48.50654" lon="7.16207">
        <ele>825</ele>
        <time>2021-02-21T14:30:27.085Z</time>
      </trkpt>
      <trkpt lat="48.50653" lon="7.16205">
        <ele>824</ele>
        <time>2021-02-21T14:30:28.084Z</time>
      </trkpt>
      <trkpt lat="48.50652" lon="7.16203">
        <ele>824</ele>
        <time>2021-02-21T14:30:29.084Z</time>
      </trkpt>
      <trkpt lat="48.50652" lon="7.16202">
        <ele>823</ele>
        <time>2021-02-21T14:30:30.085Z</time>
      </trkpt>
      <trkpt lat="48.50651" lon="7.162">
        <ele>822</ele>
        <time>2021-02-21T14:30:31.084Z</time>
      </trkpt>
      <trkpt lat="48.50651" lon="7.16197">
        <ele>822</ele>
        <time>2021-02-21T14:30:32.084Z</time>
      </trkpt>
      <trkpt lat="48.50651" lon="7.16195">
        <ele>822</ele>
        <time>2021-02-21T14:30:33.085Z</time>
      </trkpt>
      <trkpt lat="48.50652" lon="7.16193">
        <ele>822</ele>
        <time>2021-02-21T14:30:34.085Z</time>
      </trkpt>
      <trkpt lat="48.50653" lon="7.1619">
        <ele>822</ele>
        <time>2021-02-21T14:30:35.085Z</time>
      </trkpt>
      <trkpt lat="48.50652" lon="7.16187">
        <ele>822</ele>
        <time>2021-02-21T14:30:36.085Z</time>
      </trkpt>
      <trkpt lat="48.50652" lon="7.16186">
        <ele>822</ele>
        <time>2021-02-21T14:30:37.085Z</time>
      </trkpt>
      <trkpt lat="48.50652" lon="7.16184">
        <ele>821</ele>
        <time>2021-02-21T14:30:38.085Z</time>
      </trkpt>
      <trkpt lat="48.50651" lon="7.16183">
        <ele>821</ele>
        <time>2021-02-21T14:30:39.085Z</time>
      </trkpt>
      <trkpt lat="48.50651" lon="7.16181">
        <ele>821</ele>
        <time>2021-02-21T14:30:40.085Z</time>
      </trkpt>
      <trkpt lat="48.50651" lon="7.16179">
        <ele>821</ele>
        <time>2021-02-21T14:30:41.085Z</time>
      </trkpt>
      <trkpt lat="48.5065" lon="7.16177">
        <ele>821</ele>
        <time>2021-02-21T14:30:42.085Z</time>
      </trkpt>
      <trkpt lat="48.5065" lon="7.16175">
        <ele>821</ele>
        <time>2021-02-21T14:30:48.125Z</time>
      </trkpt>
      <trkpt lat="48.5065" lon="7.16173">
        <ele>821</ele>
        <time>2021-02-21T14:30:49.125Z</time>
      </trkpt>
      <trkpt lat="48.50649" lon="7.16172">
        <ele>821</ele>
        <time>2021-02-21T14:30:50.125Z</time>
      </trkpt>
      <trkpt lat="48.50649" lon="7.1617">
        <ele>821</ele>
        <time>2021-02-21T14:30:51.125Z</time>
      </trkpt>
      <trkpt lat="48.5065" lon="7.16167">
        <ele>821</ele>
        <time>2021-02-21T14:30:52.125Z</time>
      </trkpt>
      <trkpt lat="48.5065" lon="7.16165">
        <ele>821</ele>
        <time>2021-02-21T14:30:53.124Z</time>
      </trkpt>
      <trkpt lat="48.5065" lon="7.16162">
        <ele>821</ele>
        <time>2021-02-21T14:30:54.124Z</time>
      </trkpt>
      <trkpt lat="48.5065" lon="7.16161">
        <ele>821</ele>
        <time>2021-02-21T14:30:55.125Z</time>
      </trkpt>
      <trkpt lat="48.5065" lon="7.16158">
        <ele>821</ele>
        <time>2021-02-21T14:30:56.125Z</time>
      </trkpt>
      <trkpt lat="48.5065" lon="7.16156">
        <ele>821</ele>
        <time>2021-02-21T14:30:57.125Z</time>
      </trkpt>
      <trkpt lat="48.5065" lon="7.16153">
        <ele>821</ele>
        <time>2021-02-21T14:30:58.124Z</time>
      </trkpt>
      <trkpt lat="48.50649" lon="7.16151">
        <ele>822</ele>
        <time>2021-02-21T14:30:59.124Z</time>
      </trkpt>
      <trkpt lat="48.50648" lon="7.16149">
        <ele>822</ele>
        <time>2021-02-21T14:31:00.124Z</time>
      </trkpt>
      <trkpt lat="48.50647" lon="7.16147">
        <ele>822</ele>
        <time>2021-02-21T14:31:01.125Z</time>
      </trkpt>
      <trkpt lat="48.50647" lon="7.16146">
        <ele>823</ele>
        <time>2021-02-21T14:31:02.124Z</time>
      </trkpt>
      <trkpt lat="48.50647" lon="7.16144">
        <ele>823</ele>
        <time>2021-02-21T14:31:03.125Z</time>
      </trkpt>
      <trkpt lat="48.50647" lon="7.16143">
        <ele>823</ele>
        <time>2021-02-21T14:31:04.124Z</time>
      </trkpt>
      <trkpt lat="48.50647" lon="7.16141">
        <ele>824</ele>
        <time>2021-02-21T14:31:05.124Z</time>
      </trkpt>
      <trkpt lat="48.50647" lon="7.16139">
        <ele>824</ele>
        <time>2021-02-21T14:31:06.125Z</time>
      </trkpt>
      <trkpt lat="48.50647" lon="7.16138">
        <ele>823</ele>
        <time>2021-02-21T14:31:07.124Z</time>
      </trkpt>
      <trkpt lat="48.50647" lon="7.16136">
        <ele>823</ele>
        <time>2021-02-21T14:31:08.124Z</time>
      </trkpt>
      <trkpt lat="48.50647" lon="7.16134">
        <ele>823</ele>
        <time>2021-02-21T14:31:09.124Z</time>
      </trkpt>
      <trkpt lat="48.50647" lon="7.16133">
        <ele>823</ele>
        <time>2021-02-21T14:31:10.125Z</time>
      </trkpt>
      <trkpt lat="48.50647" lon="7.16132">
        <ele>823</ele>
        <time>2021-02-21T14:31:11.125Z</time>
      </trkpt>
      <trkpt lat="48.50647" lon="7.1613">
        <ele>823</ele>
        <time>2021-02-21T14:31:12.125Z</time>
      </trkpt>
      <trkpt lat="48.50647" lon="7.16127">
        <ele>824</ele>
        <time>2021-02-21T14:31:13.125Z</time>
      </trkpt>
      <trkpt lat="48.50647" lon="7.16126">
        <ele>824</ele>
        <time>2021-02-21T14:31:14.125Z</time>
      </trkpt>
      <trkpt lat="48.50648" lon="7.16124">
        <ele>824</ele>
        <time>2021-02-21T14:31:15.125Z</time>
      </trkpt>
      <trkpt lat="48.50648" lon="7.16122">
        <ele>824</ele>
        <time>2021-02-21T14:31:16.125Z</time>
      </trkpt>
      <trkpt lat="48.50648" lon="7.1612">
        <ele>825</ele>
        <time>2021-02-21T14:31:17.124Z</time>
      </trkpt>
      <trkpt lat="48.50648" lon="7.16118">
        <ele>824</ele>
        <time>2021-02-21T14:31:18.125Z</time>
      </trkpt>
      <trkpt lat="48.50648" lon="7.16116">
        <ele>824</ele>
        <time>2021-02-21T14:31:19.125Z</time>
      </trkpt>
      <trkpt lat="48.50648" lon="7.16114">
        <ele>824</ele>
        <time>2021-02-21T14:31:20.125Z</time>
      </trkpt>
      <trkpt lat="48.50648" lon="7.16113">
        <ele>824</ele>
        <time>2021-02-21T14:31:21.125Z</time>
      </trkpt>
      <trkpt lat="48.50648" lon="7.16111">
        <ele>824</ele>
        <time>2021-02-21T14:31:22.125Z</time>
      </trkpt>
      <trkpt lat="48.50647" lon="7.16109">
        <ele>824</ele>
        <time>2021-02-21T14:31:23.124Z</time>
      </trkpt>
      <trkpt lat="48.50648" lon="7.16107">
        <ele>823</ele>
        <time>2021-02-21T14:31:24.125Z</time>
      </trkpt>
      <trkpt lat="48.50648" lon="7.16105">
        <ele>823</ele>
        <time>2021-02-21T14:31:25.125Z</time>
      </trkpt>
      <trkpt lat="48.50648" lon="7.16103">
        <ele>823</ele>
        <time>2021-02-21T14:31:26.125Z</time>
      </trkpt>
      <trkpt lat="48.50647" lon="7.16101">
        <ele>823</ele>
        <time>2021-02-21T14:31:27.124Z</time>
      </trkpt>
      <trkpt lat="48.50647" lon="7.16099">
        <ele>823</ele>
        <time>2021-02-21T14:31:28.124Z</time>
      </trkpt>
      <trkpt lat="48.50647" lon="7.16098">
        <ele>823</ele>
        <time>2021-02-21T14:31:29.125Z</time>
      </trkpt>
      <trkpt lat="48.50647" lon="7.16097">
        <ele>823</ele>
        <time>2021-02-21T14:31:30.125Z</time>
      </trkpt>
      <trkpt lat="48.50647" lon="7.16095">
        <ele>823</ele>
        <time>2021-02-21T14:31:31.125Z</time>
      </trkpt>
      <trkpt lat="48.50647" lon="7.16094">
        <ele>822</ele>
        <time>2021-02-21T14:31:32.125Z</time>
      </trkpt>
      <trkpt lat="48.50646" lon="7.16093">
        <ele>822</ele>
        <time>2021-02-21T14:31:33.124Z</time>
      </trkpt>
      <trkpt lat="48.50645" lon="7.16091">
        <ele>821</ele>
        <time>2021-02-21T14:31:34.124Z</time>
      </trkpt>
      <trkpt lat="48.50645" lon="7.16089">
        <ele>821</ele>
        <time>2021-02-21T14:31:35.124Z</time>
      </trkpt>
      <trkpt lat="48.50645" lon="7.16085">
        <ele>821</ele>
        <time>2021-02-21T14:31:36.125Z</time>
      </trkpt>
      <trkpt lat="48.50645" lon="7.16082">
        <ele>821</ele>
        <time>2021-02-21T14:31:37.124Z</time>
      </trkpt>
      <trkpt lat="48.50646" lon="7.16078">
        <ele>821</ele>
        <time>2021-02-21T14:31:38.125Z</time>
      </trkpt>
      <trkpt lat="48.50646" lon="7.16075">
        <ele>821</ele>
        <time>2021-02-21T14:31:39.125Z</time>
      </trkpt>
      <trkpt lat="48.50646" lon="7.16073">
        <ele>821</ele>
        <time>2021-02-21T14:31:40.125Z</time>
      </trkpt>
      <trkpt lat="48.50647" lon="7.16071">
        <ele>821</ele>
        <time>2021-02-21T14:31:41.125Z</time>
      </trkpt>
      <trkpt lat="48.50647" lon="7.16069">
        <ele>820</ele>
        <time>2021-02-21T14:31:42.124Z</time>
      </trkpt>
      <trkpt lat="48.50647" lon="7.16067">
        <ele>820</ele>
        <time>2021-02-21T14:31:43.125Z</time>
      </trkpt>
      <trkpt lat="48.50647" lon="7.16065">
        <ele>820</ele>
        <time>2021-02-21T14:31:44.125Z</time>
      </trkpt>
      <trkpt lat="48.50648" lon="7.16063">
        <ele>820</ele>
        <time>2021-02-21T14:31:45.124Z</time>
      </trkpt>
      <trkpt lat="48.50648" lon="7.1606">
        <ele>820</ele>
        <time>2021-02-21T14:31:46.124Z</time>
      </trkpt>
      <trkpt lat="48.50648" lon="7.16058">
        <ele>820</ele>
        <time>2021-02-21T14:31:47.125Z</time>
      </trkpt>
      <trkpt lat="48.50648" lon="7.16056">
        <ele>820</ele>
        <time>2021-02-21T14:31:48.125Z</time>
      </trkpt>
      <trkpt lat="48.50648" lon="7.16055">
        <ele>820</ele>
        <time>2021-02-21T14:31:49.125Z</time>
      </trkpt>
      <trkpt lat="48.50648" lon="7.16052">
        <ele>820</ele>
        <time>2021-02-21T14:31:50.124Z</time>
      </trkpt>
      <trkpt lat="48.50649" lon="7.1605">
        <ele>820</ele>
        <time>2021-02-21T14:31:51.124Z</time>
      </trkpt>
      <trkpt lat="48.50649" lon="7.16048">
        <ele>820</ele>
        <time>2021-02-21T14:31:52.124Z</time>
      </trkpt>
      <trkpt lat="48.50649" lon="7.16046">
        <ele>821</ele>
        <time>2021-02-21T14:31:53.124Z</time>
      </trkpt>
      <trkpt lat="48.50649" lon="7.16044">
        <ele>821</ele>
        <time>2021-02-21T14:31:54.125Z</time>
      </trkpt>
      <trkpt lat="48.50649" lon="7.16042">
        <ele>822</ele>
        <time>2021-02-21T14:31:55.125Z</time>
      </trkpt>
      <trkpt lat="48.50649" lon="7.1604">
        <ele>822</ele>
        <time>2021-02-21T14:31:56.124Z</time>
      </trkpt>
      <trkpt lat="48.50648" lon="7.16039">
        <ele>822</ele>
        <time>2021-02-21T14:31:57.125Z</time>
      </trkpt>
      <trkpt lat="48.50648" lon="7.16037">
        <ele>822</ele>
        <time>2021-02-21T14:31:58.124Z</time>
      </trkpt>
      <trkpt lat="48.50648" lon="7.16035">
        <ele>822</ele>
        <time>2021-02-21T14:31:59.124Z</time>
      </trkpt>
      <trkpt lat="48.50649" lon="7.16033">
        <ele>822</ele>
        <time>2021-02-21T14:32:00.124Z</time>
      </trkpt>
      <trkpt lat="48.5065" lon="7.16031">
        <ele>822</ele>
        <time>2021-02-21T14:32:01.124Z</time>
      </trkpt>
      <trkpt lat="48.5065" lon="7.16029">
        <ele>822</ele>
        <time>2021-02-21T14:32:02.124Z</time>
      </trkpt>
      <trkpt lat="48.5065" lon="7.16027">
        <ele>821</ele>
        <time>2021-02-21T14:32:03.124Z</time>
      </trkpt>
      <trkpt lat="48.5065" lon="7.16026">
        <ele>821</ele>
        <time>2021-02-21T14:32:04.124Z</time>
      </trkpt>
      <trkpt lat="48.5065" lon="7.16025">
        <ele>822</ele>
        <time>2021-02-21T14:32:05.125Z</time>
      </trkpt>
      <trkpt lat="48.5065" lon="7.16024">
        <ele>822</ele>
        <time>2021-02-21T14:32:06.124Z</time>
      </trkpt>
      <trkpt lat="48.5065" lon="7.16023">
        <ele>821</ele>
        <time>2021-02-21T14:32:07.124Z</time>
      </trkpt>
      <trkpt lat="48.5065" lon="7.16022">
        <ele>821</ele>
        <time>2021-02-21T14:32:08.125Z</time>
      </trkpt>
      <trkpt lat="48.5065" lon="7.16021">
        <ele>821</ele>
        <time>2021-02-21T14:32:09.125Z</time>
      </trkpt>
      <trkpt lat="48.50651" lon="7.1602">
        <ele>821</ele>
        <time>2021-02-21T14:32:10.125Z</time>
      </trkpt>
      <trkpt lat="48.5065" lon="7.16019">
        <ele>821</ele>
        <time>2021-02-21T14:32:11.124Z</time>
      </trkpt>
      <trkpt lat="48.5065" lon="7.16017">
        <ele>820</ele>
        <time>2021-02-21T14:32:12.124Z</time>
      </trkpt>
      <trkpt lat="48.5065" lon="7.16014">
        <ele>820</ele>
        <time>2021-02-21T14:32:13.124Z</time>
      </trkpt>
      <trkpt lat="48.50649" lon="7.16013">
        <ele>820</ele>
        <time>2021-02-21T14:32:14.124Z</time>
      </trkpt>
      <trkpt lat="48.5065" lon="7.16012">
        <ele>821</ele>
        <time>2021-02-21T14:32:15.125Z</time>
      </trkpt>
      <trkpt lat="48.5065" lon="7.1601">
        <ele>820</ele>
        <time>2021-02-21T14:32:16.124Z</time>
      </trkpt>
      <trkpt lat="48.50651" lon="7.16009">
        <ele>820</ele>
        <time>2021-02-21T14:32:17.125Z</time>
      </trkpt>
      <trkpt lat="48.5065" lon="7.16007">
        <ele>821</ele>
        <time>2021-02-21T14:32:18.124Z</time>
      </trkpt>
      <trkpt lat="48.5065" lon="7.16006">
        <ele>821</ele>
        <time>2021-02-21T14:32:19.124Z</time>
      </trkpt>
      <trkpt lat="48.5065" lon="7.16005">
        <ele>821</ele>
        <time>2021-02-21T14:32:20.125Z</time>
      </trkpt>
      <trkpt lat="48.50651" lon="7.16002">
        <ele>821</ele>
        <time>2021-02-21T14:32:21.125Z</time>
      </trkpt>
      <trkpt lat="48.50651" lon="7.16001">
        <ele>821</ele>
        <time>2021-02-21T14:32:22.124Z</time>
      </trkpt>
      <trkpt lat="48.50651" lon="7.16001">
        <ele>822</ele>
        <time>2021-02-21T14:32:23.124Z</time>
      </trkpt>
      <trkpt lat="48.5065" lon="7.15999">
        <ele>822</ele>
        <time>2021-02-21T14:32:24.125Z</time>
      </trkpt>
      <trkpt lat="48.5065" lon="7.15997">
        <ele>822</ele>
        <time>2021-02-21T14:32:25.124Z</time>
      </trkpt>
      <trkpt lat="48.50651" lon="7.15995">
        <ele>823</ele>
        <time>2021-02-21T14:32:26.125Z</time>
      </trkpt>
      <trkpt lat="48.50651" lon="7.15993">
        <ele>823</ele>
        <time>2021-02-21T14:32:27.124Z</time>
      </trkpt>
      <trkpt lat="48.50652" lon="7.15991">
        <ele>824</ele>
        <time>2021-02-21T14:32:28.125Z</time>
      </trkpt>
      <trkpt lat="48.50653" lon="7.15987">
        <ele>825</ele>
        <time>2021-02-21T14:32:29.125Z</time>
      </trkpt>
      <trkpt lat="48.50653" lon="7.15985">
        <ele>826</ele>
        <time>2021-02-21T14:32:30.124Z</time>
      </trkpt>
      <trkpt lat="48.50654" lon="7.15981">
        <ele>827</ele>
        <time>2021-02-21T14:32:31.125Z</time>
      </trkpt>
      <trkpt lat="48.50654" lon="7.15978">
        <ele>827</ele>
        <time>2021-02-21T14:32:32.125Z</time>
      </trkpt>
      <trkpt lat="48.50655" lon="7.15976">
        <ele>827</ele>
        <time>2021-02-21T14:32:33.125Z</time>
      </trkpt>
      <trkpt lat="48.50655" lon="7.15973">
        <ele>827</ele>
        <time>2021-02-21T14:32:34.125Z</time>
      </trkpt>
      <trkpt lat="48.50655" lon="7.15971">
        <ele>827</ele>
        <time>2021-02-21T14:32:35.125Z</time>
      </trkpt>
      <trkpt lat="48.50655" lon="7.15969">
        <ele>827</ele>
        <time>2021-02-21T14:32:36.125Z</time>
      </trkpt>
      <trkpt lat="48.50655" lon="7.15966">
        <ele>828</ele>
        <time>2021-02-21T14:32:37.124Z</time>
      </trkpt>
      <trkpt lat="48.50656" lon="7.15964">
        <ele>828</ele>
        <time>2021-02-21T14:32:38.125Z</time>
      </trkpt>
      <trkpt lat="48.50656" lon="7.15962">
        <ele>828</ele>
        <time>2021-02-21T14:32:39.124Z</time>
      </trkpt>
      <trkpt lat="48.50656" lon="7.1596">
        <ele>828</ele>
        <time>2021-02-21T14:32:40.125Z</time>
      </trkpt>
      <trkpt lat="48.50655" lon="7.15958">
        <ele>828</ele>
        <time>2021-02-21T14:32:41.125Z</time>
      </trkpt>
      <trkpt lat="48.50655" lon="7.15956">
        <ele>829</ele>
        <time>2021-02-21T14:32:42.124Z</time>
      </trkpt>
      <trkpt lat="48.50655" lon="7.15954">
        <ele>829</ele>
        <time>2021-02-21T14:32:43.124Z</time>
      </trkpt>
      <trkpt lat="48.50655" lon="7.15953">
        <ele>829</ele>
        <time>2021-02-21T14:32:44.124Z</time>
      </trkpt>
      <trkpt lat="48.50655" lon="7.15951">
        <ele>829</ele>
        <time>2021-02-21T14:32:45.125Z</time>
      </trkpt>
      <trkpt lat="48.50655" lon="7.1595">
        <ele>829</ele>
        <time>2021-02-21T14:32:46.125Z</time>
      </trkpt>
      <trkpt lat="48.50654" lon="7.15948">
        <ele>829</ele>
        <time>2021-02-21T14:32:47.125Z</time>
      </trkpt>
      <trkpt lat="48.50653" lon="7.15947">
        <ele>828</ele>
        <time>2021-02-21T14:32:48.124Z</time>
      </trkpt>
      <trkpt lat="48.50653" lon="7.15945">
        <ele>828</ele>
        <time>2021-02-21T14:32:49.125Z</time>
      </trkpt>
      <trkpt lat="48.50654" lon="7.15942">
        <ele>828</ele>
        <time>2021-02-21T14:32:50.125Z</time>
      </trkpt>
      <trkpt lat="48.50655" lon="7.15939">
        <ele>827</ele>
        <time>2021-02-21T14:32:51.125Z</time>
      </trkpt>
      <trkpt lat="48.50655" lon="7.15937">
        <ele>827</ele>
        <time>2021-02-21T14:32:52.125Z</time>
      </trkpt>
      <trkpt lat="48.50655" lon="7.15936">
        <ele>826</ele>
        <time>2021-02-21T14:32:53.124Z</time>
      </trkpt>
      <trkpt lat="48.50655" lon="7.15934">
        <ele>826</ele>
        <time>2021-02-21T14:32:54.125Z</time>
      </trkpt>
      <trkpt lat="48.50655" lon="7.15932">
        <ele>825</ele>
        <time>2021-02-21T14:32:55.125Z</time>
      </trkpt>
      <trkpt lat="48.50656" lon="7.15931">
        <ele>825</ele>
        <time>2021-02-21T14:32:56.125Z</time>
      </trkpt>
      <trkpt lat="48.50656" lon="7.15929">
        <ele>824</ele>
        <time>2021-02-21T14:32:57.125Z</time>
      </trkpt>
      <trkpt lat="48.50656" lon="7.15928">
        <ele>824</ele>
        <time>2021-02-21T14:32:58.124Z</time>
      </trkpt>
      <trkpt lat="48.50656" lon="7.15926">
        <ele>823</ele>
        <time>2021-02-21T14:32:59.124Z</time>
      </trkpt>
      <trkpt lat="48.50656" lon="7.15924">
        <ele>823</ele>
        <time>2021-02-21T14:33:00.125Z</time>
      </trkpt>
      <trkpt lat="48.50656" lon="7.15922">
        <ele>823</ele>
        <time>2021-02-21T14:33:01.125Z</time>
      </trkpt>
      <trkpt lat="48.50657" lon="7.15919">
        <ele>822</ele>
        <time>2021-02-21T14:33:02.125Z</time>
      </trkpt>
      <trkpt lat="48.50657" lon="7.15917">
        <ele>822</ele>
        <time>2021-02-21T14:33:03.125Z</time>
      </trkpt>
      <trkpt lat="48.50657" lon="7.15915">
        <ele>821</ele>
        <time>2021-02-21T14:33:04.124Z</time>
      </trkpt>
      <trkpt lat="48.50656" lon="7.15912">
        <ele>821</ele>
        <time>2021-02-21T14:33:05.125Z</time>
      </trkpt>
      <trkpt lat="48.50656" lon="7.1591">
        <ele>821</ele>
        <time>2021-02-21T14:33:06.125Z</time>
      </trkpt>
      <trkpt lat="48.50656" lon="7.15908">
        <ele>821</ele>
        <time>2021-02-21T14:33:07.125Z</time>
      </trkpt>
      <trkpt lat="48.50657" lon="7.15906">
        <ele>821</ele>
        <time>2021-02-21T14:33:08.124Z</time>
      </trkpt>
      <trkpt lat="48.50657" lon="7.15903">
        <ele>820</ele>
        <time>2021-02-21T14:33:09.125Z</time>
      </trkpt>
      <trkpt lat="48.50656" lon="7.15901">
        <ele>820</ele>
        <time>2021-02-21T14:33:10.125Z</time>
      </trkpt>
      <trkpt lat="48.50657" lon="7.15898">
        <ele>820</ele>
        <time>2021-02-21T14:33:11.125Z</time>
      </trkpt>
      <trkpt lat="48.50658" lon="7.15896">
        <ele>819</ele>
        <time>2021-02-21T14:33:12.125Z</time>
      </trkpt>
      <trkpt lat="48.50659" lon="7.15894">
        <ele>819</ele>
        <time>2021-02-21T14:33:13.125Z</time>
      </trkpt>
      <trkpt lat="48.5066" lon="7.15891">
        <ele>819</ele>
        <time>2021-02-21T14:33:14.125Z</time>
      </trkpt>
      <trkpt lat="48.50661" lon="7.15889">
        <ele>819</ele>
        <time>2021-02-21T14:33:15.125Z</time>
      </trkpt>
      <trkpt lat="48.50661" lon="7.15887">
        <ele>819</ele>
        <time>2021-02-21T14:33:16.124Z</time>
      </trkpt>
      <trkpt lat="48.5066" lon="7.15885">
        <ele>819</ele>
        <time>2021-02-21T14:33:17.125Z</time>
      </trkpt>
      <trkpt lat="48.50661" lon="7.15883">
        <ele>819</ele>
        <time>2021-02-21T14:33:18.124Z</time>
      </trkpt>
      <trkpt lat="48.50661" lon="7.15882">
        <ele>819</ele>
        <time>2021-02-21T14:33:19.124Z</time>
      </trkpt>
      <trkpt lat="48.50661" lon="7.1588">
        <ele>819</ele>
        <time>2021-02-21T14:33:20.124Z</time>
      </trkpt>
      <trkpt lat="48.50662" lon="7.15878">
        <ele>820</ele>
        <time>2021-02-21T14:33:21.125Z</time>
      </trkpt>
      <trkpt lat="48.50662" lon="7.15877">
        <ele>820</ele>
        <time>2021-02-21T14:33:22.124Z</time>
      </trkpt>
      <trkpt lat="48.50662" lon="7.15876">
        <ele>820</ele>
        <time>2021-02-21T14:33:23.124Z</time>
      </trkpt>
      <trkpt lat="48.50662" lon="7.15875">
        <ele>820</ele>
        <time>2021-02-21T14:33:24.125Z</time>
      </trkpt>
      <trkpt lat="48.50662" lon="7.15874">
        <ele>820</ele>
        <time>2021-02-21T14:33:25.125Z</time>
      </trkpt>
      <trkpt lat="48.50662" lon="7.15872">
        <ele>820</ele>
        <time>2021-02-21T14:33:26.125Z</time>
      </trkpt>
      <trkpt lat="48.50663" lon="7.15871">
        <ele>820</ele>
        <time>2021-02-21T14:33:27.125Z</time>
      </trkpt>
      <trkpt lat="48.50663" lon="7.15869">
        <ele>821</ele>
        <time>2021-02-21T14:33:28.125Z</time>
      </trkpt>
      <trkpt lat="48.50663" lon="7.15866">
        <ele>821</ele>
        <time>2021-02-21T14:33:29.124Z</time>
      </trkpt>
      <trkpt lat="48.50663" lon="7.15864">
        <ele>822</ele>
        <time>2021-02-21T14:33:30.124Z</time>
      </trkpt>
      <trkpt lat="48.50663" lon="7.15862">
        <ele>823</ele>
        <time>2021-02-21T14:33:31.124Z</time>
      </trkpt>
      <trkpt lat="48.50662" lon="7.15861">
        <ele>823</ele>
        <time>2021-02-21T14:33:32.124Z</time>
      </trkpt>
      <trkpt lat="48.50662" lon="7.1586">
        <ele>824</ele>
        <time>2021-02-21T14:33:33.125Z</time>
      </trkpt>
      <trkpt lat="48.50662" lon="7.15858">
        <ele>824</ele>
        <time>2021-02-21T14:33:34.125Z</time>
      </trkpt>
      <trkpt lat="48.50662" lon="7.15856">
        <ele>824</ele>
        <time>2021-02-21T14:33:35.124Z</time>
      </trkpt>
      <trkpt lat="48.50663" lon="7.15854">
        <ele>824</ele>
        <time>2021-02-21T14:33:36.124Z</time>
      </trkpt>
      <trkpt lat="48.50663" lon="7.15852">
        <ele>824</ele>
        <time>2021-02-21T14:33:37.124Z</time>
      </trkpt>
      <trkpt lat="48.50663" lon="7.15851">
        <ele>824</ele>
        <time>2021-02-21T14:33:38.125Z</time>
      </trkpt>
      <trkpt lat="48.50663" lon="7.1585">
        <ele>824</ele>
        <time>2021-02-21T14:33:39.125Z</time>
      </trkpt>
      <trkpt lat="48.50663" lon="7.15847">
        <ele>824</ele>
        <time>2021-02-21T14:33:40.125Z</time>
      </trkpt>
      <trkpt lat="48.50663" lon="7.15845">
        <ele>824</ele>
        <time>2021-02-21T14:33:41.125Z</time>
      </trkpt>
      <trkpt lat="48.50663" lon="7.15843">
        <ele>824</ele>
        <time>2021-02-21T14:33:42.125Z</time>
      </trkpt>
      <trkpt lat="48.50664" lon="7.1584">
        <ele>824</ele>
        <time>2021-02-21T14:33:43.125Z</time>
      </trkpt>
      <trkpt lat="48.50664" lon="7.15837">
        <ele>824</ele>
        <time>2021-02-21T14:33:44.125Z</time>
      </trkpt>
      <trkpt lat="48.50664" lon="7.15834">
        <ele>824</ele>
        <time>2021-02-21T14:33:45.125Z</time>
      </trkpt>
      <trkpt lat="48.50664" lon="7.15832">
        <ele>824</ele>
        <time>2021-02-21T14:33:46.124Z</time>
      </trkpt>
      <trkpt lat="48.50665" lon="7.15829">
        <ele>823</ele>
        <time>2021-02-21T14:33:47.125Z</time>
      </trkpt>
      <trkpt lat="48.50666" lon="7.15826">
        <ele>823</ele>
        <time>2021-02-21T14:33:48.125Z</time>
      </trkpt>
      <trkpt lat="48.50667" lon="7.15824">
        <ele>823</ele>
        <time>2021-02-21T14:33:49.125Z</time>
      </trkpt>
      <trkpt lat="48.50667" lon="7.15823">
        <ele>823</ele>
        <time>2021-02-21T14:33:50.125Z</time>
      </trkpt>
      <trkpt lat="48.50667" lon="7.15822">
        <ele>823</ele>
        <time>2021-02-21T14:33:51.125Z</time>
      </trkpt>
      <trkpt lat="48.50667" lon="7.1582">
        <ele>823</ele>
        <time>2021-02-21T14:33:52.124Z</time>
      </trkpt>
      <trkpt lat="48.50668" lon="7.15819">
        <ele>823</ele>
        <time>2021-02-21T14:33:53.125Z</time>
      </trkpt>
      <trkpt lat="48.50668" lon="7.15817">
        <ele>823</ele>
        <time>2021-02-21T14:33:54.125Z</time>
      </trkpt>
      <trkpt lat="48.50669" lon="7.15815">
        <ele>823</ele>
        <time>2021-02-21T14:33:55.125Z</time>
      </trkpt>
      <trkpt lat="48.50669" lon="7.15813">
        <ele>823</ele>
        <time>2021-02-21T14:33:56.125Z</time>
      </trkpt>
      <trkpt lat="48.5067" lon="7.15811">
        <ele>823</ele>
        <time>2021-02-21T14:33:57.125Z</time>
      </trkpt>
      <trkpt lat="48.5067" lon="7.15806">
        <ele>823</ele>
        <time>2021-02-21T14:33:58.124Z</time>
      </trkpt>
      <trkpt lat="48.50671" lon="7.15802">
        <ele>823</ele>
        <time>2021-02-21T14:33:59.125Z</time>
      </trkpt>
      <trkpt lat="48.50672" lon="7.15799">
        <ele>823</ele>
        <time>2021-02-21T14:34:00.125Z</time>
      </trkpt>
      <trkpt lat="48.50672" lon="7.15798">
        <ele>823</ele>
        <time>2021-02-21T14:34:01.125Z</time>
      </trkpt>
      <trkpt lat="48.50671" lon="7.15796">
        <ele>822</ele>
        <time>2021-02-21T14:34:02.124Z</time>
      </trkpt>
      <trkpt lat="48.50672" lon="7.15795">
        <ele>822</ele>
        <time>2021-02-21T14:34:03.125Z</time>
      </trkpt>
      <trkpt lat="48.50672" lon="7.15793">
        <ele>821</ele>
        <time>2021-02-21T14:34:04.125Z</time>
      </trkpt>
      <trkpt lat="48.50673" lon="7.15792">
        <ele>821</ele>
        <time>2021-02-21T14:34:05.124Z</time>
      </trkpt>
      <trkpt lat="48.50673" lon="7.15791">
        <ele>821</ele>
        <time>2021-02-21T14:34:06.125Z</time>
      </trkpt>
      <trkpt lat="48.50673" lon="7.15789">
        <ele>820</ele>
        <time>2021-02-21T14:34:07.124Z</time>
      </trkpt>
      <trkpt lat="48.50674" lon="7.15787">
        <ele>820</ele>
        <time>2021-02-21T14:34:08.124Z</time>
      </trkpt>
      <trkpt lat="48.50674" lon="7.15786">
        <ele>820</ele>
        <time>2021-02-21T14:34:09.125Z</time>
      </trkpt>
      <trkpt lat="48.50674" lon="7.15784">
        <ele>820</ele>
        <time>2021-02-21T14:34:10.125Z</time>
      </trkpt>
      <trkpt lat="48.50675" lon="7.15782">
        <ele>819</ele>
        <time>2021-02-21T14:34:11.125Z</time>
      </trkpt>
      <trkpt lat="48.50675" lon="7.1578">
        <ele>819</ele>
        <time>2021-02-21T14:34:12.124Z</time>
      </trkpt>
      <trkpt lat="48.50676" lon="7.15778">
        <ele>819</ele>
        <time>2021-02-21T14:34:13.125Z</time>
      </trkpt>
      <trkpt lat="48.50675" lon="7.15777">
        <ele>819</ele>
        <time>2021-02-21T14:34:14.125Z</time>
      </trkpt>
      <trkpt lat="48.50675" lon="7.15774">
        <ele>818</ele>
        <time>2021-02-21T14:34:15.125Z</time>
      </trkpt>
      <trkpt lat="48.50675" lon="7.15772">
        <ele>818</ele>
        <time>2021-02-21T14:34:16.125Z</time>
      </trkpt>
      <trkpt lat="48.50675" lon="7.15768">
        <ele>818</ele>
        <time>2021-02-21T14:34:17.125Z</time>
      </trkpt>
      <trkpt lat="48.50675" lon="7.15765">
        <ele>819</ele>
        <time>2021-02-21T14:34:18.124Z</time>
      </trkpt>
      <trkpt lat="48.50675" lon="7.15762">
        <ele>819</ele>
        <time>2021-02-21T14:34:19.125Z</time>
      </trkpt>
      <trkpt lat="48.50675" lon="7.15759">
        <ele>819</ele>
        <time>2021-02-21T14:34:20.125Z</time>
      </trkpt>
      <trkpt lat="48.50674" lon="7.15755">
        <ele>819</ele>
        <time>2021-02-21T14:34:21.125Z</time>
      </trkpt>
      <trkpt lat="48.50675" lon="7.15754">
        <ele>819</ele>
        <time>2021-02-21T14:34:22.125Z</time>
      </trkpt>
      <trkpt lat="48.50675" lon="7.15753">
        <ele>819</ele>
        <time>2021-02-21T14:34:23.124Z</time>
      </trkpt>
      <trkpt lat="48.50675" lon="7.15751">
        <ele>819</ele>
        <time>2021-02-21T14:34:24.125Z</time>
      </trkpt>
      <trkpt lat="48.50675" lon="7.1575">
        <ele>819</ele>
        <time>2021-02-21T14:34:25.125Z</time>
      </trkpt>
      <trkpt lat="48.50675" lon="7.15749">
        <ele>819</ele>
        <time>2021-02-21T14:34:26.124Z</time>
      </trkpt>
      <trkpt lat="48.50674" lon="7.15747">
        <ele>819</ele>
        <time>2021-02-21T14:34:27.125Z</time>
      </trkpt>
      <trkpt lat="48.50673" lon="7.15744">
        <ele>819</ele>
        <time>2021-02-21T14:34:28.125Z</time>
      </trkpt>
      <trkpt lat="48.50673" lon="7.15742">
        <ele>819</ele>
        <time>2021-02-21T14:34:29.125Z</time>
      </trkpt>
      <trkpt lat="48.50673" lon="7.1574">
        <ele>819</ele>
        <time>2021-02-21T14:34:30.125Z</time>
      </trkpt>
      <trkpt lat="48.50672" lon="7.15737">
        <ele>818</ele>
        <time>2021-02-21T14:34:31.125Z</time>
      </trkpt>
      <trkpt lat="48.50671" lon="7.15736">
        <ele>818</ele>
        <time>2021-02-21T14:34:32.124Z</time>
      </trkpt>
      <trkpt lat="48.50672" lon="7.15734">
        <ele>818</ele>
        <time>2021-02-21T14:34:33.125Z</time>
      </trkpt>
      <trkpt lat="48.50673" lon="7.15732">
        <ele>818</ele>
        <time>2021-02-21T14:34:34.125Z</time>
      </trkpt>
      <trkpt lat="48.50672" lon="7.1573">
        <ele>818</ele>
        <time>2021-02-21T14:34:35.125Z</time>
      </trkpt>
      <trkpt lat="48.50672" lon="7.15728">
        <ele>817</ele>
        <time>2021-02-21T14:34:36.125Z</time>
      </trkpt>
      <trkpt lat="48.50672" lon="7.15727">
        <ele>817</ele>
        <time>2021-02-21T14:34:37.125Z</time>
      </trkpt>
      <trkpt lat="48.50672" lon="7.15726">
        <ele>817</ele>
        <time>2021-02-21T14:34:38.125Z</time>
      </trkpt>
      <trkpt lat="48.50673" lon="7.15724">
        <ele>818</ele>
        <time>2021-02-21T14:34:39.125Z</time>
      </trkpt>
      <trkpt lat="48.50673" lon="7.15722">
        <ele>818</ele>
        <time>2021-02-21T14:34:40.124Z</time>
      </trkpt>
      <trkpt lat="48.50673" lon="7.15721">
        <ele>818</ele>
        <time>2021-02-21T14:34:41.125Z</time>
      </trkpt>
      <trkpt lat="48.50673" lon="7.1572">
        <ele>818</ele>
        <time>2021-02-21T14:34:42.125Z</time>
      </trkpt>
      <trkpt lat="48.50673" lon="7.15719">
        <ele>818</ele>
        <time>2021-02-21T14:34:43.125Z</time>
      </trkpt>
      <trkpt lat="48.50673" lon="7.15718">
        <ele>818</ele>
        <time>2021-02-21T14:34:44.125Z</time>
      </trkpt>
      <trkpt lat="48.50673" lon="7.15716">
        <ele>819</ele>
        <time>2021-02-21T14:34:45.124Z</time>
      </trkpt>
      <trkpt lat="48.50674" lon="7.15714">
        <ele>819</ele>
        <time>2021-02-21T14:34:46.124Z</time>
      </trkpt>
      <trkpt lat="48.50674" lon="7.15712">
        <ele>819</ele>
        <time>2021-02-21T14:34:47.124Z</time>
      </trkpt>
      <trkpt lat="48.50674" lon="7.1571">
        <ele>819</ele>
        <time>2021-02-21T14:34:48.124Z</time>
      </trkpt>
      <trkpt lat="48.50674" lon="7.15708">
        <ele>819</ele>
        <time>2021-02-21T14:34:49.125Z</time>
      </trkpt>
      <trkpt lat="48.50674" lon="7.15704">
        <ele>818</ele>
        <time>2021-02-21T14:34:50.124Z</time>
      </trkpt>
      <trkpt lat="48.50675" lon="7.15702">
        <ele>818</ele>
        <time>2021-02-21T14:34:51.124Z</time>
      </trkpt>
      <trkpt lat="48.50675" lon="7.157">
        <ele>818</ele>
        <time>2021-02-21T14:34:52.125Z</time>
      </trkpt>
      <trkpt lat="48.50675" lon="7.15698">
        <ele>817</ele>
        <time>2021-02-21T14:34:53.125Z</time>
      </trkpt>
      <trkpt lat="48.50675" lon="7.15697">
        <ele>817</ele>
        <time>2021-02-21T14:34:54.124Z</time>
      </trkpt>
      <trkpt lat="48.50674" lon="7.15696">
        <ele>817</ele>
        <time>2021-02-21T14:34:55.125Z</time>
      </trkpt>
      <trkpt lat="48.50674" lon="7.15694">
        <ele>817</ele>
        <time>2021-02-21T14:34:56.124Z</time>
      </trkpt>
      <trkpt lat="48.50674" lon="7.15692">
        <ele>817</ele>
        <time>2021-02-21T14:34:57.125Z</time>
      </trkpt>
      <trkpt lat="48.50674" lon="7.1569">
        <ele>817</ele>
        <time>2021-02-21T14:34:58.124Z</time>
      </trkpt>
      <trkpt lat="48.50675" lon="7.15688">
        <ele>817</ele>
        <time>2021-02-21T14:34:59.125Z</time>
      </trkpt>
      <trkpt lat="48.50674" lon="7.15686">
        <ele>817</ele>
        <time>2021-02-21T14:35:00.125Z</time>
      </trkpt>
      <trkpt lat="48.50674" lon="7.15685">
        <ele>816</ele>
        <time>2021-02-21T14:35:01.125Z</time>
      </trkpt>
      <trkpt lat="48.50674" lon="7.15683">
        <ele>816</ele>
        <time>2021-02-21T14:35:02.125Z</time>
      </trkpt>
      <trkpt lat="48.50674" lon="7.15681">
        <ele>816</ele>
        <time>2021-02-21T14:35:03.125Z</time>
      </trkpt>
      <trkpt lat="48.50674" lon="7.15679">
        <ele>815</ele>
        <time>2021-02-21T14:35:04.125Z</time>
      </trkpt>
      <trkpt lat="48.50674" lon="7.15677">
        <ele>815</ele>
        <time>2021-02-21T14:35:05.124Z</time>
      </trkpt>
      <trkpt lat="48.50675" lon="7.15673">
        <ele>815</ele>
        <time>2021-02-21T14:35:06.124Z</time>
      </trkpt>
      <trkpt lat="48.50676" lon="7.15671">
        <ele>815</ele>
        <time>2021-02-21T14:35:07.124Z</time>
      </trkpt>
      <trkpt lat="48.50676" lon="7.15668">
        <ele>814</ele>
        <time>2021-02-21T14:35:08.125Z</time>
      </trkpt>
      <trkpt lat="48.50676" lon="7.15666">
        <ele>814</ele>
        <time>2021-02-21T14:35:09.125Z</time>
      </trkpt>
      <trkpt lat="48.50676" lon="7.15663">
        <ele>814</ele>
        <time>2021-02-21T14:35:10.124Z</time>
      </trkpt>
      <trkpt lat="48.50676" lon="7.15661">
        <ele>814</ele>
        <time>2021-02-21T14:35:11.125Z</time>
      </trkpt>
      <trkpt lat="48.50676" lon="7.15658">
        <ele>814</ele>
        <time>2021-02-21T14:35:12.125Z</time>
      </trkpt>
      <trkpt lat="48.50676" lon="7.15655">
        <ele>814</ele>
        <time>2021-02-21T14:35:13.124Z</time>
      </trkpt>
      <trkpt lat="48.50676" lon="7.15652">
        <ele>814</ele>
        <time>2021-02-21T14:35:14.125Z</time>
      </trkpt>
      <trkpt lat="48.50676" lon="7.1565">
        <ele>814</ele>
        <time>2021-02-21T14:35:15.124Z</time>
      </trkpt>
      <trkpt lat="48.50676" lon="7.15648">
        <ele>813</ele>
        <time>2021-02-21T14:35:16.125Z</time>
      </trkpt>
      <trkpt lat="48.50676" lon="7.15647">
        <ele>813</ele>
        <time>2021-02-21T14:35:17.125Z</time>
      </trkpt>
      <trkpt lat="48.50676" lon="7.15645">
        <ele>813</ele>
        <time>2021-02-21T14:35:18.125Z</time>
      </trkpt>
      <trkpt lat="48.50677" lon="7.15643">
        <ele>813</ele>
        <time>2021-02-21T14:35:19.125Z</time>
      </trkpt>
      <trkpt lat="48.50678" lon="7.1564">
        <ele>812</ele>
        <time>2021-02-21T14:35:20.124Z</time>
      </trkpt>
      <trkpt lat="48.50678" lon="7.15638">
        <ele>812</ele>
        <time>2021-02-21T14:35:21.125Z</time>
      </trkpt>
      <trkpt lat="48.50679" lon="7.15634">
        <ele>812</ele>
        <time>2021-02-21T14:35:22.125Z</time>
      </trkpt>
      <trkpt lat="48.50679" lon="7.15633">
        <ele>811</ele>
        <time>2021-02-21T14:35:23.125Z</time>
      </trkpt>
      <trkpt lat="48.50679" lon="7.15631">
        <ele>811</ele>
        <time>2021-02-21T14:35:24.125Z</time>
      </trkpt>
      <trkpt lat="48.50679" lon="7.1563">
        <ele>810</ele>
        <time>2021-02-21T14:35:25.125Z</time>
      </trkpt>
      <trkpt lat="48.50679" lon="7.15628">
        <ele>810</ele>
        <time>2021-02-21T14:35:26.125Z</time>
      </trkpt>
      <trkpt lat="48.50679" lon="7.15626">
        <ele>810</ele>
        <time>2021-02-21T14:35:27.124Z</time>
      </trkpt>
      <trkpt lat="48.50679" lon="7.15624">
        <ele>810</ele>
        <time>2021-02-21T14:35:28.125Z</time>
      </trkpt>
      <trkpt lat="48.5068" lon="7.15623">
        <ele>810</ele>
        <time>2021-02-21T14:35:29.125Z</time>
      </trkpt>
      <trkpt lat="48.5068" lon="7.15621">
        <ele>809</ele>
        <time>2021-02-21T14:35:30.125Z</time>
      </trkpt>
      <trkpt lat="48.5068" lon="7.15621">
        <ele>810</ele>
        <time>2021-02-21T14:35:31.125Z</time>
      </trkpt>
      <trkpt lat="48.50679" lon="7.1562">
        <ele>810</ele>
        <time>2021-02-21T14:35:32.124Z</time>
      </trkpt>
      <trkpt lat="48.50678" lon="7.15619">
        <ele>810</ele>
        <time>2021-02-21T14:35:33.125Z</time>
      </trkpt>
      <trkpt lat="48.50678" lon="7.15617">
        <ele>810</ele>
        <time>2021-02-21T14:35:34.125Z</time>
      </trkpt>
      <trkpt lat="48.50678" lon="7.15616">
        <ele>810</ele>
        <time>2021-02-21T14:35:35.125Z</time>
      </trkpt>
      <trkpt lat="48.50678" lon="7.15613">
        <ele>809</ele>
        <time>2021-02-21T14:35:36.124Z</time>
      </trkpt>
      <trkpt lat="48.50678" lon="7.15612">
        <ele>809</ele>
        <time>2021-02-21T14:35:37.124Z</time>
      </trkpt>
      <trkpt lat="48.50678" lon="7.1561">
        <ele>809</ele>
        <time>2021-02-21T14:35:38.124Z</time>
      </trkpt>
      <trkpt lat="48.50678" lon="7.15608">
        <ele>809</ele>
        <time>2021-02-21T14:35:39.125Z</time>
      </trkpt>
      <trkpt lat="48.50678" lon="7.15606">
        <ele>809</ele>
        <time>2021-02-21T14:35:40.125Z</time>
      </trkpt>
      <trkpt lat="48.50678" lon="7.15604">
        <ele>810</ele>
        <time>2021-02-21T14:35:41.125Z</time>
      </trkpt>
      <trkpt lat="48.50677" lon="7.15603">
        <ele>810</ele>
        <time>2021-02-21T14:35:42.125Z</time>
      </trkpt>
      <trkpt lat="48.50677" lon="7.15601">
        <ele>810</ele>
        <time>2021-02-21T14:35:43.125Z</time>
      </trkpt>
      <trkpt lat="48.50678" lon="7.15597">
        <ele>811</ele>
        <time>2021-02-21T14:35:44.124Z</time>
      </trkpt>
      <trkpt lat="48.50678" lon="7.15593">
        <ele>811</ele>
        <time>2021-02-21T14:35:45.124Z</time>
      </trkpt>
      <trkpt lat="48.50678" lon="7.1559">
        <ele>810</ele>
        <time>2021-02-21T14:35:46.125Z</time>
      </trkpt>
      <trkpt lat="48.50678" lon="7.15587">
        <ele>810</ele>
        <time>2021-02-21T14:35:47.125Z</time>
      </trkpt>
      <trkpt lat="48.50679" lon="7.15584">
        <ele>810</ele>
        <time>2021-02-21T14:35:48.125Z</time>
      </trkpt>
      <trkpt lat="48.50679" lon="7.15581">
        <ele>810</ele>
        <time>2021-02-21T14:35:49.125Z</time>
      </trkpt>
      <trkpt lat="48.5068" lon="7.15578">
        <ele>810</ele>
        <time>2021-02-21T14:35:50.125Z</time>
      </trkpt>
      <trkpt lat="48.5068" lon="7.15577">
        <ele>811</ele>
        <time>2021-02-21T14:35:51.125Z</time>
      </trkpt>
      <trkpt lat="48.5068" lon="7.15575">
        <ele>811</ele>
        <time>2021-02-21T14:35:52.125Z</time>
      </trkpt>
      <trkpt lat="48.5068" lon="7.15573">
        <ele>811</ele>
        <time>2021-02-21T14:35:53.125Z</time>
      </trkpt>
      <trkpt lat="48.50681" lon="7.15571">
        <ele>811</ele>
        <time>2021-02-21T14:35:54.125Z</time>
      </trkpt>
      <trkpt lat="48.50682" lon="7.15569">
        <ele>811</ele>
        <time>2021-02-21T14:35:55.125Z</time>
      </trkpt>
      <trkpt lat="48.50683" lon="7.15566">
        <ele>811</ele>
        <time>2021-02-21T14:35:56.125Z</time>
      </trkpt>
      <trkpt lat="48.50684" lon="7.15564">
        <ele>811</ele>
        <time>2021-02-21T14:35:57.125Z</time>
      </trkpt>
      <trkpt lat="48.50685" lon="7.15562">
        <ele>811</ele>
        <time>2021-02-21T14:35:58.125Z</time>
      </trkpt>
      <trkpt lat="48.50685" lon="7.1556">
        <ele>811</ele>
        <time>2021-02-21T14:35:59.125Z</time>
      </trkpt>
      <trkpt lat="48.50686" lon="7.15558">
        <ele>811</ele>
        <time>2021-02-21T14:36:00.125Z</time>
      </trkpt>
      <trkpt lat="48.50686" lon="7.15555">
        <ele>811</ele>
        <time>2021-02-21T14:36:01.124Z</time>
      </trkpt>
      <trkpt lat="48.50686" lon="7.15553">
        <ele>811</ele>
        <time>2021-02-21T14:36:02.124Z</time>
      </trkpt>
      <trkpt lat="48.50687" lon="7.15551">
        <ele>811</ele>
        <time>2021-02-21T14:36:03.125Z</time>
      </trkpt>
      <trkpt lat="48.50688" lon="7.15548">
        <ele>811</ele>
        <time>2021-02-21T14:36:04.125Z</time>
      </trkpt>
      <trkpt lat="48.50688" lon="7.15547">
        <ele>811</ele>
        <time>2021-02-21T14:36:05.125Z</time>
      </trkpt>
      <trkpt lat="48.50688" lon="7.15545">
        <ele>811</ele>
        <time>2021-02-21T14:36:06.125Z</time>
      </trkpt>
      <trkpt lat="48.50688" lon="7.15544">
        <ele>811</ele>
        <time>2021-02-21T14:36:07.124Z</time>
      </trkpt>
      <trkpt lat="48.50688" lon="7.15543">
        <ele>811</ele>
        <time>2021-02-21T14:36:08.125Z</time>
      </trkpt>
      <trkpt lat="48.50688" lon="7.15541">
        <ele>811</ele>
        <time>2021-02-21T14:36:09.125Z</time>
      </trkpt>
      <trkpt lat="48.50689" lon="7.15539">
        <ele>811</ele>
        <time>2021-02-21T14:36:10.125Z</time>
      </trkpt>
      <trkpt lat="48.5069" lon="7.15537">
        <ele>811</ele>
        <time>2021-02-21T14:36:11.125Z</time>
      </trkpt>
      <trkpt lat="48.50691" lon="7.15535">
        <ele>811</ele>
        <time>2021-02-21T14:36:12.124Z</time>
      </trkpt>
      <trkpt lat="48.50692" lon="7.15534">
        <ele>811</ele>
        <time>2021-02-21T14:36:13.125Z</time>
      </trkpt>
      <trkpt lat="48.50692" lon="7.15533">
        <ele>811</ele>
        <time>2021-02-21T14:36:14.124Z</time>
      </trkpt>
      <trkpt lat="48.50692" lon="7.15532">
        <ele>811</ele>
        <time>2021-02-21T14:36:15.125Z</time>
      </trkpt>
      <trkpt lat="48.50692" lon="7.1553">
        <ele>812</ele>
        <time>2021-02-21T14:36:16.125Z</time>
      </trkpt>
      <trkpt lat="48.50692" lon="7.15529">
        <ele>812</ele>
        <time>2021-02-21T14:36:17.124Z</time>
      </trkpt>
      <trkpt lat="48.50693" lon="7.15528">
        <ele>812</ele>
        <time>2021-02-21T14:36:18.124Z</time>
      </trkpt>
      <trkpt lat="48.50693" lon="7.15526">
        <ele>813</ele>
        <time>2021-02-21T14:36:19.125Z</time>
      </trkpt>
      <trkpt lat="48.50694" lon="7.15524">
        <ele>813</ele>
        <time>2021-02-21T14:36:20.124Z</time>
      </trkpt>
      <trkpt lat="48.50695" lon="7.15522">
        <ele>812</ele>
        <time>2021-02-21T14:36:21.125Z</time>
      </trkpt>
      <trkpt lat="48.50695" lon="7.1552">
        <ele>812</ele>
        <time>2021-02-21T14:36:22.124Z</time>
      </trkpt>
      <trkpt lat="48.50696" lon="7.15517">
        <ele>813</ele>
        <time>2021-02-21T14:36:23.124Z</time>
      </trkpt>
      <trkpt lat="48.50696" lon="7.15515">
        <ele>813</ele>
        <time>2021-02-21T14:36:24.125Z</time>
      </trkpt>
      <trkpt lat="48.50697" lon="7.15512">
        <ele>814</ele>
        <time>2021-02-21T14:36:25.124Z</time>
      </trkpt>
      <trkpt lat="48.50698" lon="7.15508">
        <ele>814</ele>
        <time>2021-02-21T14:36:26.125Z</time>
      </trkpt>
      <trkpt lat="48.50699" lon="7.15504">
        <ele>814</ele>
        <time>2021-02-21T14:36:27.125Z</time>
      </trkpt>
      <trkpt lat="48.507" lon="7.155">
        <ele>814</ele>
        <time>2021-02-21T14:36:28.124Z</time>
      </trkpt>
      <trkpt lat="48.50701" lon="7.15497">
        <ele>814</ele>
        <time>2021-02-21T14:36:29.124Z</time>
      </trkpt>
      <trkpt lat="48.50702" lon="7.15493">
        <ele>814</ele>
        <time>2021-02-21T14:36:30.125Z</time>
      </trkpt>
      <trkpt lat="48.50703" lon="7.15489">
        <ele>814</ele>
        <time>2021-02-21T14:36:31.124Z</time>
      </trkpt>
      <trkpt lat="48.50704" lon="7.15486">
        <ele>813</ele>
        <time>2021-02-21T14:36:32.125Z</time>
      </trkpt>
      <trkpt lat="48.50704" lon="7.15483">
        <ele>813</ele>
        <time>2021-02-21T14:36:33.125Z</time>
      </trkpt>
      <trkpt lat="48.50705" lon="7.15482">
        <ele>812</ele>
        <time>2021-02-21T14:36:34.125Z</time>
      </trkpt>
      <trkpt lat="48.50706" lon="7.1548">
        <ele>812</ele>
        <time>2021-02-21T14:36:35.125Z</time>
      </trkpt>
      <trkpt lat="48.50708" lon="7.15477">
        <ele>811</ele>
        <time>2021-02-21T14:36:36.124Z</time>
      </trkpt>
      <trkpt lat="48.50709" lon="7.15475">
        <ele>811</ele>
        <time>2021-02-21T14:36:37.125Z</time>
      </trkpt>
      <trkpt lat="48.5071" lon="7.15473">
        <ele>810</ele>
        <time>2021-02-21T14:36:38.125Z</time>
      </trkpt>
      <trkpt lat="48.50711" lon="7.15472">
        <ele>810</ele>
        <time>2021-02-21T14:36:39.125Z</time>
      </trkpt>
      <trkpt lat="48.50712" lon="7.15469">
        <ele>809</ele>
        <time>2021-02-21T14:36:40.124Z</time>
      </trkpt>
      <trkpt lat="48.50713" lon="7.15467">
        <ele>809</ele>
        <time>2021-02-21T14:36:41.124Z</time>
      </trkpt>
      <trkpt lat="48.50714" lon="7.15466">
        <ele>809</ele>
        <time>2021-02-21T14:36:42.125Z</time>
      </trkpt>
      <trkpt lat="48.50715" lon="7.15465">
        <ele>808</ele>
        <time>2021-02-21T14:36:43.125Z</time>
      </trkpt>
      <trkpt lat="48.50716" lon="7.15463">
        <ele>808</ele>
        <time>2021-02-21T14:36:44.125Z</time>
      </trkpt>
      <trkpt lat="48.50717" lon="7.15462">
        <ele>808</ele>
        <time>2021-02-21T14:36:45.124Z</time>
      </trkpt>
      <trkpt lat="48.50718" lon="7.15461">
        <ele>808</ele>
        <time>2021-02-21T14:36:46.125Z</time>
      </trkpt>
      <trkpt lat="48.50719" lon="7.15459">
        <ele>808</ele>
        <time>2021-02-21T14:36:47.125Z</time>
      </trkpt>
      <trkpt lat="48.5072" lon="7.15458">
        <ele>808</ele>
        <time>2021-02-21T14:36:48.125Z</time>
      </trkpt>
      <trkpt lat="48.50721" lon="7.15457">
        <ele>808</ele>
        <time>2021-02-21T14:36:49.125Z</time>
      </trkpt>
      <trkpt lat="48.50722" lon="7.15456">
        <ele>809</ele>
        <time>2021-02-21T14:36:50.125Z</time>
      </trkpt>
      <trkpt lat="48.50723" lon="7.15454">
        <ele>809</ele>
        <time>2021-02-21T14:36:51.124Z</time>
      </trkpt>
      <trkpt lat="48.50724" lon="7.15453">
        <ele>809</ele>
        <time>2021-02-21T14:36:52.124Z</time>
      </trkpt>
      <trkpt lat="48.50725" lon="7.15452">
        <ele>809</ele>
        <time>2021-02-21T14:36:53.125Z</time>
      </trkpt>
      <trkpt lat="48.50726" lon="7.15451">
        <ele>810</ele>
        <time>2021-02-21T14:36:54.125Z</time>
      </trkpt>
      <trkpt lat="48.50727" lon="7.1545">
        <ele>810</ele>
        <time>2021-02-21T14:36:55.125Z</time>
      </trkpt>
      <trkpt lat="48.50728" lon="7.15449">
        <ele>810</ele>
        <time>2021-02-21T14:36:56.125Z</time>
      </trkpt>
      <trkpt lat="48.50729" lon="7.15447">
        <ele>810</ele>
        <time>2021-02-21T14:36:57.125Z</time>
      </trkpt>
      <trkpt lat="48.5073" lon="7.15446">
        <ele>811</ele>
        <time>2021-02-21T14:36:58.124Z</time>
      </trkpt>
      <trkpt lat="48.50731" lon="7.15444">
        <ele>811</ele>
        <time>2021-02-21T14:36:59.124Z</time>
      </trkpt>
      <trkpt lat="48.50732" lon="7.15443">
        <ele>811</ele>
        <time>2021-02-21T14:37:00.125Z</time>
      </trkpt>
      <trkpt lat="48.50734" lon="7.15442">
        <ele>812</ele>
        <time>2021-02-21T14:37:01.124Z</time>
      </trkpt>
      <trkpt lat="48.50734" lon="7.15441">
        <ele>812</ele>
        <time>2021-02-21T14:37:02.125Z</time>
      </trkpt>
      <trkpt lat="48.50735" lon="7.15439">
        <ele>812</ele>
        <time>2021-02-21T14:37:03.124Z</time>
      </trkpt>
      <trkpt lat="48.50736" lon="7.15438">
        <ele>812</ele>
        <time>2021-02-21T14:37:04.124Z</time>
      </trkpt>
      <trkpt lat="48.50737" lon="7.15438">
        <ele>812</ele>
        <time>2021-02-21T14:37:05.124Z</time>
      </trkpt>
      <trkpt lat="48.50738" lon="7.15436">
        <ele>812</ele>
        <time>2021-02-21T14:37:06.124Z</time>
      </trkpt>
      <trkpt lat="48.50738" lon="7.15435">
        <ele>813</ele>
        <time>2021-02-21T14:37:07.124Z</time>
      </trkpt>
      <trkpt lat="48.50739" lon="7.15434">
        <ele>813</ele>
        <time>2021-02-21T14:37:08.125Z</time>
      </trkpt>
      <trkpt lat="48.50739" lon="7.15433">
        <ele>813</ele>
        <time>2021-02-21T14:37:09.124Z</time>
      </trkpt>
      <trkpt lat="48.5074" lon="7.15432">
        <ele>814</ele>
        <time>2021-02-21T14:37:10.125Z</time>
      </trkpt>
      <trkpt lat="48.5074" lon="7.15431">
        <ele>814</ele>
        <time>2021-02-21T14:37:11.124Z</time>
      </trkpt>
      <trkpt lat="48.5074" lon="7.1543">
        <ele>814</ele>
        <time>2021-02-21T14:37:12.125Z</time>
      </trkpt>
      <trkpt lat="48.5074" lon="7.15429">
        <ele>814</ele>
        <time>2021-02-21T14:37:13.125Z</time>
      </trkpt>
      <trkpt lat="48.5074" lon="7.15428">
        <ele>814</ele>
        <time>2021-02-21T14:37:14.124Z</time>
      </trkpt>
      <trkpt lat="48.50739" lon="7.15427">
        <ele>814</ele>
        <time>2021-02-21T14:37:15.124Z</time>
      </trkpt>
      <trkpt lat="48.50739" lon="7.15427">
        <ele>814</ele>
        <time>2021-02-21T14:37:16.124Z</time>
      </trkpt>
      <trkpt lat="48.50738" lon="7.15427">
        <ele>814</ele>
        <time>2021-02-21T14:37:17.124Z</time>
      </trkpt>
      <trkpt lat="48.50736" lon="7.15429">
        <ele>813</ele>
        <time>2021-02-21T14:37:18.124Z</time>
      </trkpt>
      <trkpt lat="48.50735" lon="7.15431">
        <ele>813</ele>
        <time>2021-02-21T14:37:19.124Z</time>
      </trkpt>
      <trkpt lat="48.50734" lon="7.15433">
        <ele>812</ele>
        <time>2021-02-21T14:37:20.124Z</time>
      </trkpt>
      <trkpt lat="48.50733" lon="7.15434">
        <ele>812</ele>
        <time>2021-02-21T14:37:21.124Z</time>
      </trkpt>
      <trkpt lat="48.50731" lon="7.15435">
        <ele>811</ele>
        <time>2021-02-21T14:37:22.124Z</time>
      </trkpt>
      <trkpt lat="48.50729" lon="7.15436">
        <ele>811</ele>
        <time>2021-02-21T14:37:23.124Z</time>
      </trkpt>
      <trkpt lat="48.50728" lon="7.15437">
        <ele>810</ele>
        <time>2021-02-21T14:37:24.124Z</time>
      </trkpt>
      <trkpt lat="48.50726" lon="7.15437">
        <ele>810</ele>
        <time>2021-02-21T14:37:25.124Z</time>
      </trkpt>
      <trkpt lat="48.50725" lon="7.15437">
        <ele>809</ele>
        <time>2021-02-21T14:37:26.124Z</time>
      </trkpt>
      <trkpt lat="48.50723" lon="7.15437">
        <ele>809</ele>
        <time>2021-02-21T14:37:27.125Z</time>
      </trkpt>
      <trkpt lat="48.50723" lon="7.15436">
        <ele>809</ele>
        <time>2021-02-21T14:37:28.124Z</time>
      </trkpt>
      <trkpt lat="48.50723" lon="7.15436">
        <ele>808</ele>
        <time>2021-02-21T14:37:29.124Z</time>
      </trkpt>
      <trkpt lat="48.50722" lon="7.15436">
        <ele>808</ele>
        <time>2021-02-21T14:37:30.124Z</time>
      </trkpt>
      <trkpt lat="48.50721" lon="7.15437">
        <ele>807</ele>
        <time>2021-02-21T14:37:31.124Z</time>
      </trkpt>
      <trkpt lat="48.5072" lon="7.15437">
        <ele>807</ele>
        <time>2021-02-21T14:37:32.125Z</time>
      </trkpt>
      <trkpt lat="48.50719" lon="7.15438">
        <ele>806</ele>
        <time>2021-02-21T14:37:33.124Z</time>
      </trkpt>
      <trkpt lat="48.50717" lon="7.15438">
        <ele>805</ele>
        <time>2021-02-21T14:37:34.124Z</time>
      </trkpt>
      <trkpt lat="48.50717" lon="7.15438">
        <ele>805</ele>
        <time>2021-02-21T14:37:35.124Z</time>
      </trkpt>
      <trkpt lat="48.50716" lon="7.15438">
        <ele>804</ele>
        <time>2021-02-21T14:37:36.124Z</time>
      </trkpt>
      <trkpt lat="48.50714" lon="7.15438">
        <ele>804</ele>
        <time>2021-02-21T14:37:37.125Z</time>
      </trkpt>
      <trkpt lat="48.50714" lon="7.15438">
        <ele>803</ele>
        <time>2021-02-21T14:37:38.125Z</time>
      </trkpt>
      <trkpt lat="48.50713" lon="7.15437">
        <ele>803</ele>
        <time>2021-02-21T14:37:39.125Z</time>
      </trkpt>
      <trkpt lat="48.50712" lon="7.15436">
        <ele>803</ele>
        <time>2021-02-21T14:37:40.125Z</time>
      </trkpt>
      <trkpt lat="48.50711" lon="7.15436">
        <ele>802</ele>
        <time>2021-02-21T14:37:41.124Z</time>
      </trkpt>
      <trkpt lat="48.5071" lon="7.15435">
        <ele>802</ele>
        <time>2021-02-21T14:37:42.124Z</time>
      </trkpt>
      <trkpt lat="48.5071" lon="7.15434">
        <ele>803</ele>
        <time>2021-02-21T14:37:43.124Z</time>
      </trkpt>
      <trkpt lat="48.50709" lon="7.15433">
        <ele>803</ele>
        <time>2021-02-21T14:37:44.124Z</time>
      </trkpt>
      <trkpt lat="48.50707" lon="7.15433">
        <ele>803</ele>
        <time>2021-02-21T14:37:45.124Z</time>
      </trkpt>
      <trkpt lat="48.50707" lon="7.15432">
        <ele>802</ele>
        <time>2021-02-21T14:37:46.124Z</time>
      </trkpt>
      <trkpt lat="48.50706" lon="7.15431">
        <ele>802</ele>
        <time>2021-02-21T14:37:47.125Z</time>
      </trkpt>
      <trkpt lat="48.50705" lon="7.15431">
        <ele>801</ele>
        <time>2021-02-21T14:37:48.125Z</time>
      </trkpt>
      <trkpt lat="48.50704" lon="7.1543">
        <ele>799</ele>
        <time>2021-02-21T14:37:49.124Z</time>
      </trkpt>
      <trkpt lat="48.50704" lon="7.1543">
        <ele>798</ele>
        <time>2021-02-21T14:37:50.125Z</time>
      </trkpt>
      <trkpt lat="48.50703" lon="7.1543">
        <ele>798</ele>
        <time>2021-02-21T14:37:51.125Z</time>
      </trkpt>
      <trkpt lat="48.50702" lon="7.1543">
        <ele>797</ele>
        <time>2021-02-21T14:37:52.125Z</time>
      </trkpt>
      <trkpt lat="48.50702" lon="7.15429">
        <ele>796</ele>
        <time>2021-02-21T14:37:53.125Z</time>
      </trkpt>
      <trkpt lat="48.50701" lon="7.15429">
        <ele>795</ele>
        <time>2021-02-21T14:37:54.124Z</time>
      </trkpt>
      <trkpt lat="48.50699" lon="7.1543">
        <ele>795</ele>
        <time>2021-02-21T14:37:55.124Z</time>
      </trkpt>
      <trkpt lat="48.50697" lon="7.1543">
        <ele>794</ele>
        <time>2021-02-21T14:37:56.124Z</time>
      </trkpt>
      <trkpt lat="48.50696" lon="7.15429">
        <ele>794</ele>
        <time>2021-02-21T14:37:57.125Z</time>
      </trkpt>
      <trkpt lat="48.50695" lon="7.15429">
        <ele>794</ele>
        <time>2021-02-21T14:37:58.125Z</time>
      </trkpt>
      <trkpt lat="48.50694" lon="7.15428">
        <ele>794</ele>
        <time>2021-02-21T14:37:59.125Z</time>
      </trkpt>
      <trkpt lat="48.50693" lon="7.15427">
        <ele>794</ele>
        <time>2021-02-21T14:38:00.125Z</time>
      </trkpt>
      <trkpt lat="48.50692" lon="7.15426">
        <ele>794</ele>
        <time>2021-02-21T14:38:01.124Z</time>
      </trkpt>
      <trkpt lat="48.50691" lon="7.15426">
        <ele>794</ele>
        <time>2021-02-21T14:38:02.125Z</time>
      </trkpt>
      <trkpt lat="48.5069" lon="7.15425">
        <ele>795</ele>
        <time>2021-02-21T14:38:03.124Z</time>
      </trkpt>
      <trkpt lat="48.50688" lon="7.15424">
        <ele>795</ele>
        <time>2021-02-21T14:38:04.125Z</time>
      </trkpt>
      <trkpt lat="48.50687" lon="7.15424">
        <ele>796</ele>
        <time>2021-02-21T14:38:05.125Z</time>
      </trkpt>
      <trkpt lat="48.50685" lon="7.15423">
        <ele>796</ele>
        <time>2021-02-21T14:38:06.125Z</time>
      </trkpt>
      <trkpt lat="48.50684" lon="7.15422">
        <ele>796</ele>
        <time>2021-02-21T14:38:07.125Z</time>
      </trkpt>
      <trkpt lat="48.50683" lon="7.15421">
        <ele>797</ele>
        <time>2021-02-21T14:38:08.125Z</time>
      </trkpt>
      <trkpt lat="48.50681" lon="7.1542">
        <ele>797</ele>
        <time>2021-02-21T14:38:09.124Z</time>
      </trkpt>
      <trkpt lat="48.5068" lon="7.15419">
        <ele>797</ele>
        <time>2021-02-21T14:38:10.125Z</time>
      </trkpt>
      <trkpt lat="48.50679" lon="7.15418">
        <ele>798</ele>
        <time>2021-02-21T14:38:11.124Z</time>
      </trkpt>
      <trkpt lat="48.50678" lon="7.15418">
        <ele>798</ele>
        <time>2021-02-21T14:38:12.125Z</time>
      </trkpt>
      <trkpt lat="48.50677" lon="7.15417">
        <ele>798</ele>
        <time>2021-02-21T14:38:13.125Z</time>
      </trkpt>
      <trkpt lat="48.50676" lon="7.15415">
        <ele>798</ele>
        <time>2021-02-21T14:38:14.125Z</time>
      </trkpt>
      <trkpt lat="48.50675" lon="7.15413">
        <ele>798</ele>
        <time>2021-02-21T14:38:15.125Z</time>
      </trkpt>
      <trkpt lat="48.50674" lon="7.15411">
        <ele>798</ele>
        <time>2021-02-21T14:38:16.125Z</time>
      </trkpt>
      <trkpt lat="48.50673" lon="7.1541">
        <ele>799</ele>
        <time>2021-02-21T14:38:17.125Z</time>
      </trkpt>
      <trkpt lat="48.50672" lon="7.15408">
        <ele>799</ele>
        <time>2021-02-21T14:38:18.125Z</time>
      </trkpt>
      <trkpt lat="48.50671" lon="7.15407">
        <ele>799</ele>
        <time>2021-02-21T14:38:19.124Z</time>
      </trkpt>
      <trkpt lat="48.5067" lon="7.15406">
        <ele>799</ele>
        <time>2021-02-21T14:38:20.124Z</time>
      </trkpt>
      <trkpt lat="48.50668" lon="7.15405">
        <ele>800</ele>
        <time>2021-02-21T14:38:21.125Z</time>
      </trkpt>
      <trkpt lat="48.50667" lon="7.15403">
        <ele>799</ele>
        <time>2021-02-21T14:38:22.125Z</time>
      </trkpt>
      <trkpt lat="48.50667" lon="7.15401">
        <ele>799</ele>
        <time>2021-02-21T14:38:23.125Z</time>
      </trkpt>
      <trkpt lat="48.50667" lon="7.15399">
        <ele>799</ele>
        <time>2021-02-21T14:38:24.125Z</time>
      </trkpt>
      <trkpt lat="48.50666" lon="7.15397">
        <ele>799</ele>
        <time>2021-02-21T14:38:25.125Z</time>
      </trkpt>
      <trkpt lat="48.50665" lon="7.15396">
        <ele>798</ele>
        <time>2021-02-21T14:38:26.125Z</time>
      </trkpt>
      <trkpt lat="48.50664" lon="7.15396">
        <ele>798</ele>
        <time>2021-02-21T14:38:27.124Z</time>
      </trkpt>
      <trkpt lat="48.50662" lon="7.15396">
        <ele>798</ele>
        <time>2021-02-21T14:38:28.124Z</time>
      </trkpt>
      <trkpt lat="48.50661" lon="7.15395">
        <ele>798</ele>
        <time>2021-02-21T14:38:29.125Z</time>
      </trkpt>
      <trkpt lat="48.5066" lon="7.15394">
        <ele>798</ele>
        <time>2021-02-21T14:38:30.124Z</time>
      </trkpt>
      <trkpt lat="48.50659" lon="7.15393">
        <ele>797</ele>
        <time>2021-02-21T14:38:31.125Z</time>
      </trkpt>
      <trkpt lat="48.50658" lon="7.15392">
        <ele>797</ele>
        <time>2021-02-21T14:38:32.125Z</time>
      </trkpt>
      <trkpt lat="48.50657" lon="7.15392">
        <ele>797</ele>
        <time>2021-02-21T14:38:33.125Z</time>
      </trkpt>
      <trkpt lat="48.50656" lon="7.15391">
        <ele>797</ele>
        <time>2021-02-21T14:38:34.125Z</time>
      </trkpt>
      <trkpt lat="48.50655" lon="7.1539">
        <ele>796</ele>
        <time>2021-02-21T14:38:35.125Z</time>
      </trkpt>
      <trkpt lat="48.50654" lon="7.15389">
        <ele>796</ele>
        <time>2021-02-21T14:38:36.124Z</time>
      </trkpt>
      <trkpt lat="48.50653" lon="7.15388">
        <ele>796</ele>
        <time>2021-02-21T14:38:37.124Z</time>
      </trkpt>
      <trkpt lat="48.50652" lon="7.15387">
        <ele>796</ele>
        <time>2021-02-21T14:38:38.124Z</time>
      </trkpt>
      <trkpt lat="48.50651" lon="7.15386">
        <ele>796</ele>
        <time>2021-02-21T14:38:39.125Z</time>
      </trkpt>
      <trkpt lat="48.50651" lon="7.15384">
        <ele>796</ele>
        <time>2021-02-21T14:38:40.125Z</time>
      </trkpt>
      <trkpt lat="48.5065" lon="7.15382">
        <ele>796</ele>
        <time>2021-02-21T14:38:41.124Z</time>
      </trkpt>
      <trkpt lat="48.50649" lon="7.15379">
        <ele>796</ele>
        <time>2021-02-21T14:38:42.124Z</time>
      </trkpt>
      <trkpt lat="48.50648" lon="7.15378">
        <ele>795</ele>
        <time>2021-02-21T14:38:43.124Z</time>
      </trkpt>
      <trkpt lat="48.50648" lon="7.15377">
        <ele>795</ele>
        <time>2021-02-21T14:38:44.124Z</time>
      </trkpt>
      <trkpt lat="48.50647" lon="7.15375">
        <ele>794</ele>
        <time>2021-02-21T14:38:45.125Z</time>
      </trkpt>
      <trkpt lat="48.50646" lon="7.15373">
        <ele>794</ele>
        <time>2021-02-21T14:38:46.125Z</time>
      </trkpt>
      <trkpt lat="48.50645" lon="7.15372">
        <ele>793</ele>
        <time>2021-02-21T14:38:47.125Z</time>
      </trkpt>
      <trkpt lat="48.50644" lon="7.1537">
        <ele>792</ele>
        <time>2021-02-21T14:38:48.125Z</time>
      </trkpt>
      <trkpt lat="48.50643" lon="7.15368">
        <ele>792</ele>
        <time>2021-02-21T14:38:49.125Z</time>
      </trkpt>
      <trkpt lat="48.50643" lon="7.15366">
        <ele>792</ele>
        <time>2021-02-21T14:38:50.125Z</time>
      </trkpt>
      <trkpt lat="48.50642" lon="7.15364">
        <ele>792</ele>
        <time>2021-02-21T14:38:51.125Z</time>
      </trkpt>
      <trkpt lat="48.50642" lon="7.15361">
        <ele>791</ele>
        <time>2021-02-21T14:38:52.125Z</time>
      </trkpt>
      <trkpt lat="48.50642" lon="7.15358">
        <ele>791</ele>
        <time>2021-02-21T14:38:53.125Z</time>
      </trkpt>
      <trkpt lat="48.5064" lon="7.15356">
        <ele>791</ele>
        <time>2021-02-21T14:38:54.125Z</time>
      </trkpt>
      <trkpt lat="48.50639" lon="7.15355">
        <ele>791</ele>
        <time>2021-02-21T14:38:55.124Z</time>
      </trkpt>
      <trkpt lat="48.50639" lon="7.15354">
        <ele>790</ele>
        <time>2021-02-21T14:38:56.125Z</time>
      </trkpt>
      <trkpt lat="48.50638" lon="7.15352">
        <ele>790</ele>
        <time>2021-02-21T14:38:57.124Z</time>
      </trkpt>
      <trkpt lat="48.50638" lon="7.15351">
        <ele>790</ele>
        <time>2021-02-21T14:38:58.125Z</time>
      </trkpt>
      <trkpt lat="48.50638" lon="7.1535">
        <ele>789</ele>
        <time>2021-02-21T14:38:59.124Z</time>
      </trkpt>
      <trkpt lat="48.50637" lon="7.15348">
        <ele>789</ele>
        <time>2021-02-21T14:39:00.125Z</time>
      </trkpt>
      <trkpt lat="48.50637" lon="7.15346">
        <ele>789</ele>
        <time>2021-02-21T14:39:01.125Z</time>
      </trkpt>
      <trkpt lat="48.50636" lon="7.15344">
        <ele>789</ele>
        <time>2021-02-21T14:39:02.124Z</time>
      </trkpt>
      <trkpt lat="48.50637" lon="7.15342">
        <ele>789</ele>
        <time>2021-02-21T14:39:03.125Z</time>
      </trkpt>
      <trkpt lat="48.50636" lon="7.1534">
        <ele>789</ele>
        <time>2021-02-21T14:39:04.124Z</time>
      </trkpt>
      <trkpt lat="48.50636" lon="7.15338">
        <ele>789</ele>
        <time>2021-02-21T14:39:05.124Z</time>
      </trkpt>
      <trkpt lat="48.50637" lon="7.15334">
        <ele>788</ele>
        <time>2021-02-21T14:39:06.125Z</time>
      </trkpt>
      <trkpt lat="48.50637" lon="7.15331">
        <ele>788</ele>
        <time>2021-02-21T14:39:07.124Z</time>
      </trkpt>
      <trkpt lat="48.50637" lon="7.15327">
        <ele>788</ele>
        <time>2021-02-21T14:39:08.125Z</time>
      </trkpt>
      <trkpt lat="48.50637" lon="7.15323">
        <ele>788</ele>
        <time>2021-02-21T14:39:09.125Z</time>
      </trkpt>
      <trkpt lat="48.50638" lon="7.15318">
        <ele>788</ele>
        <time>2021-02-21T14:39:10.125Z</time>
      </trkpt>
      <trkpt lat="48.50639" lon="7.15313">
        <ele>788</ele>
        <time>2021-02-21T14:39:11.125Z</time>
      </trkpt>
      <trkpt lat="48.5064" lon="7.15309">
        <ele>788</ele>
        <time>2021-02-21T14:39:12.125Z</time>
      </trkpt>
      <trkpt lat="48.50641" lon="7.15304">
        <ele>788</ele>
        <time>2021-02-21T14:39:13.124Z</time>
      </trkpt>
      <trkpt lat="48.50642" lon="7.15301">
        <ele>788</ele>
        <time>2021-02-21T14:39:14.124Z</time>
      </trkpt>
      <trkpt lat="48.50642" lon="7.15298">
        <ele>789</ele>
        <time>2021-02-21T14:39:15.125Z</time>
      </trkpt>
      <trkpt lat="48.50643" lon="7.15295">
        <ele>789</ele>
        <time>2021-02-21T14:39:16.125Z</time>
      </trkpt>
      <trkpt lat="48.50643" lon="7.15292">
        <ele>789</ele>
        <time>2021-02-21T14:39:17.124Z</time>
      </trkpt>
      <trkpt lat="48.50644" lon="7.1529">
        <ele>789</ele>
        <time>2021-02-21T14:39:18.125Z</time>
      </trkpt>
      <trkpt lat="48.50644" lon="7.15288">
        <ele>789</ele>
        <time>2021-02-21T14:39:19.125Z</time>
      </trkpt>
      <trkpt lat="48.50645" lon="7.15287">
        <ele>790</ele>
        <time>2021-02-21T14:39:20.124Z</time>
      </trkpt>
      <trkpt lat="48.50646" lon="7.15285">
        <ele>790</ele>
        <time>2021-02-21T14:39:21.125Z</time>
      </trkpt>
      <trkpt lat="48.50646" lon="7.15283">
        <ele>790</ele>
        <time>2021-02-21T14:39:22.125Z</time>
      </trkpt>
      <trkpt lat="48.50647" lon="7.15281">
        <ele>791</ele>
        <time>2021-02-21T14:39:32.194Z</time>
      </trkpt>
      <trkpt lat="48.50648" lon="7.15279">
        <ele>791</ele>
        <time>2021-02-21T14:39:33.194Z</time>
      </trkpt>
      <trkpt lat="48.50649" lon="7.15277">
        <ele>790</ele>
        <time>2021-02-21T14:39:34.193Z</time>
      </trkpt>
      <trkpt lat="48.50649" lon="7.15275">
        <ele>790</ele>
        <time>2021-02-21T14:39:35.194Z</time>
      </trkpt>
      <trkpt lat="48.5065" lon="7.15273">
        <ele>790</ele>
        <time>2021-02-21T14:39:36.193Z</time>
      </trkpt>
      <trkpt lat="48.5065" lon="7.15271">
        <ele>789</ele>
        <time>2021-02-21T14:39:37.194Z</time>
      </trkpt>
      <trkpt lat="48.5065" lon="7.15267">
        <ele>790</ele>
        <time>2021-02-21T14:39:38.194Z</time>
      </trkpt>
      <trkpt lat="48.50651" lon="7.15265">
        <ele>790</ele>
        <time>2021-02-21T14:39:39.194Z</time>
      </trkpt>
      <trkpt lat="48.50652" lon="7.15262">
        <ele>790</ele>
        <time>2021-02-21T14:39:40.194Z</time>
      </trkpt>
      <trkpt lat="48.50653" lon="7.1526">
        <ele>790</ele>
        <time>2021-02-21T14:39:41.194Z</time>
      </trkpt>
      <trkpt lat="48.50653" lon="7.15258">
        <ele>789</ele>
        <time>2021-02-21T14:39:42.194Z</time>
      </trkpt>
      <trkpt lat="48.50654" lon="7.15257">
        <ele>789</ele>
        <time>2021-02-21T14:39:43.194Z</time>
      </trkpt>
      <trkpt lat="48.50655" lon="7.15255">
        <ele>788</ele>
        <time>2021-02-21T14:39:44.194Z</time>
      </trkpt>
      <trkpt lat="48.50656" lon="7.15253">
        <ele>787</ele>
        <time>2021-02-21T14:39:45.194Z</time>
      </trkpt>
      <trkpt lat="48.50656" lon="7.15251">
        <ele>786</ele>
        <time>2021-02-21T14:39:46.194Z</time>
      </trkpt>
      <trkpt lat="48.50657" lon="7.15249">
        <ele>785</ele>
        <time>2021-02-21T14:39:47.194Z</time>
      </trkpt>
      <trkpt lat="48.50657" lon="7.15248">
        <ele>785</ele>
        <time>2021-02-21T14:39:48.194Z</time>
      </trkpt>
      <trkpt lat="48.50658" lon="7.15246">
        <ele>784</ele>
        <time>2021-02-21T14:39:49.194Z</time>
      </trkpt>
      <trkpt lat="48.50658" lon="7.15245">
        <ele>783</ele>
        <time>2021-02-21T14:39:50.193Z</time>
      </trkpt>
      <trkpt lat="48.50659" lon="7.15243">
        <ele>783</ele>
        <time>2021-02-21T14:39:51.193Z</time>
      </trkpt>
      <trkpt lat="48.50659" lon="7.15242">
        <ele>783</ele>
        <time>2021-02-21T14:39:52.194Z</time>
      </trkpt>
      <trkpt lat="48.5066" lon="7.1524">
        <ele>782</ele>
        <time>2021-02-21T14:39:53.194Z</time>
      </trkpt>
      <trkpt lat="48.5066" lon="7.15238">
        <ele>782</ele>
        <time>2021-02-21T14:39:54.194Z</time>
      </trkpt>
      <trkpt lat="48.50661" lon="7.15237">
        <ele>782</ele>
        <time>2021-02-21T14:39:55.194Z</time>
      </trkpt>
      <trkpt lat="48.50662" lon="7.15235">
        <ele>782</ele>
        <time>2021-02-21T14:39:56.194Z</time>
      </trkpt>
      <trkpt lat="48.50662" lon="7.15234">
        <ele>782</ele>
        <time>2021-02-21T14:39:57.194Z</time>
      </trkpt>
      <trkpt lat="48.50663" lon="7.15233">
        <ele>782</ele>
        <time>2021-02-21T14:39:58.193Z</time>
      </trkpt>
      <trkpt lat="48.50664" lon="7.15231">
        <ele>781</ele>
        <time>2021-02-21T14:39:59.194Z</time>
      </trkpt>
      <trkpt lat="48.50664" lon="7.1523">
        <ele>781</ele>
        <time>2021-02-21T14:40:00.193Z</time>
      </trkpt>
      <trkpt lat="48.50665" lon="7.15229">
        <ele>781</ele>
        <time>2021-02-21T14:40:01.194Z</time>
      </trkpt>
      <trkpt lat="48.50666" lon="7.15227">
        <ele>781</ele>
        <time>2021-02-21T14:40:02.194Z</time>
      </trkpt>
      <trkpt lat="48.50666" lon="7.15224">
        <ele>780</ele>
        <time>2021-02-21T14:40:03.193Z</time>
      </trkpt>
      <trkpt lat="48.50667" lon="7.15223">
        <ele>780</ele>
        <time>2021-02-21T14:40:04.194Z</time>
      </trkpt>
      <trkpt lat="48.50668" lon="7.1522">
        <ele>779</ele>
        <time>2021-02-21T14:40:05.193Z</time>
      </trkpt>
      <trkpt lat="48.50669" lon="7.15218">
        <ele>778</ele>
        <time>2021-02-21T14:40:06.193Z</time>
      </trkpt>
      <trkpt lat="48.50669" lon="7.15217">
        <ele>778</ele>
        <time>2021-02-21T14:40:07.194Z</time>
      </trkpt>
      <trkpt lat="48.5067" lon="7.15215">
        <ele>778</ele>
        <time>2021-02-21T14:40:08.193Z</time>
      </trkpt>
      <trkpt lat="48.5067" lon="7.15213">
        <ele>778</ele>
        <time>2021-02-21T14:40:09.193Z</time>
      </trkpt>
      <trkpt lat="48.50671" lon="7.15211">
        <ele>777</ele>
        <time>2021-02-21T14:40:10.194Z</time>
      </trkpt>
      <trkpt lat="48.50672" lon="7.15209">
        <ele>777</ele>
        <time>2021-02-21T14:40:11.193Z</time>
      </trkpt>
      <trkpt lat="48.50673" lon="7.15207">
        <ele>777</ele>
        <time>2021-02-21T14:40:12.194Z</time>
      </trkpt>
      <trkpt lat="48.50673" lon="7.15206">
        <ele>777</ele>
        <time>2021-02-21T14:40:13.193Z</time>
      </trkpt>
      <trkpt lat="48.50674" lon="7.15204">
        <ele>777</ele>
        <time>2021-02-21T14:40:14.194Z</time>
      </trkpt>
      <trkpt lat="48.50674" lon="7.15202">
        <ele>777</ele>
        <time>2021-02-21T14:40:15.193Z</time>
      </trkpt>
      <trkpt lat="48.50675" lon="7.152">
        <ele>777</ele>
        <time>2021-02-21T14:40:16.194Z</time>
      </trkpt>
      <trkpt lat="48.50676" lon="7.15199">
        <ele>776</ele>
        <time>2021-02-21T14:40:17.194Z</time>
      </trkpt>
      <trkpt lat="48.50676" lon="7.15197">
        <ele>776</ele>
        <time>2021-02-21T14:40:18.193Z</time>
      </trkpt>
      <trkpt lat="48.50677" lon="7.15195">
        <ele>776</ele>
        <time>2021-02-21T14:40:19.193Z</time>
      </trkpt>
      <trkpt lat="48.50678" lon="7.15194">
        <ele>776</ele>
        <time>2021-02-21T14:40:20.194Z</time>
      </trkpt>
      <trkpt lat="48.50678" lon="7.15192">
        <ele>775</ele>
        <time>2021-02-21T14:40:21.193Z</time>
      </trkpt>
      <trkpt lat="48.50679" lon="7.15191">
        <ele>775</ele>
        <time>2021-02-21T14:40:22.193Z</time>
      </trkpt>
      <trkpt lat="48.5068" lon="7.15189">
        <ele>775</ele>
        <time>2021-02-21T14:40:23.194Z</time>
      </trkpt>
      <trkpt lat="48.5068" lon="7.15188">
        <ele>775</ele>
        <time>2021-02-21T14:40:24.194Z</time>
      </trkpt>
      <trkpt lat="48.50681" lon="7.15187">
        <ele>775</ele>
        <time>2021-02-21T14:40:25.193Z</time>
      </trkpt>
      <trkpt lat="48.50682" lon="7.15185">
        <ele>775</ele>
        <time>2021-02-21T14:40:26.193Z</time>
      </trkpt>
      <trkpt lat="48.50683" lon="7.15184">
        <ele>775</ele>
        <time>2021-02-21T14:40:27.193Z</time>
      </trkpt>
      <trkpt lat="48.50683" lon="7.15182">
        <ele>774</ele>
        <time>2021-02-21T14:40:28.194Z</time>
      </trkpt>
      <trkpt lat="48.50684" lon="7.1518">
        <ele>774</ele>
        <time>2021-02-21T14:40:29.194Z</time>
      </trkpt>
      <trkpt lat="48.50685" lon="7.15178">
        <ele>774</ele>
        <time>2021-02-21T14:40:30.193Z</time>
      </trkpt>
      <trkpt lat="48.50686" lon="7.15176">
        <ele>774</ele>
        <time>2021-02-21T14:40:31.194Z</time>
      </trkpt>
      <trkpt lat="48.50686" lon="7.15175">
        <ele>774</ele>
        <time>2021-02-21T14:40:32.193Z</time>
      </trkpt>
      <trkpt lat="48.50687" lon="7.15173">
        <ele>774</ele>
        <time>2021-02-21T14:40:33.194Z</time>
      </trkpt>
      <trkpt lat="48.50688" lon="7.15172">
        <ele>774</ele>
        <time>2021-02-21T14:40:34.194Z</time>
      </trkpt>
      <trkpt lat="48.50688" lon="7.15171">
        <ele>774</ele>
        <time>2021-02-21T14:40:35.194Z</time>
      </trkpt>
      <trkpt lat="48.50689" lon="7.1517">
        <ele>774</ele>
        <time>2021-02-21T14:40:36.194Z</time>
      </trkpt>
      <trkpt lat="48.5069" lon="7.15168">
        <ele>774</ele>
        <time>2021-02-21T14:40:37.194Z</time>
      </trkpt>
      <trkpt lat="48.50691" lon="7.15167">
        <ele>774</ele>
        <time>2021-02-21T14:40:38.193Z</time>
      </trkpt>
      <trkpt lat="48.50692" lon="7.15166">
        <ele>774</ele>
        <time>2021-02-21T14:40:39.194Z</time>
      </trkpt>
      <trkpt lat="48.50693" lon="7.15164">
        <ele>774</ele>
        <time>2021-02-21T14:40:40.194Z</time>
      </trkpt>
      <trkpt lat="48.50693" lon="7.15162">
        <ele>774</ele>
        <time>2021-02-21T14:40:41.194Z</time>
      </trkpt>
      <trkpt lat="48.50694" lon="7.15161">
        <ele>773</ele>
        <time>2021-02-21T14:40:42.194Z</time>
      </trkpt>
      <trkpt lat="48.50694" lon="7.1516">
        <ele>773</ele>
        <time>2021-02-21T14:40:43.194Z</time>
      </trkpt>
      <trkpt lat="48.50695" lon="7.15159">
        <ele>772</ele>
        <time>2021-02-21T14:40:44.193Z</time>
      </trkpt>
      <trkpt lat="48.50695" lon="7.15158">
        <ele>772</ele>
        <time>2021-02-21T14:40:45.193Z</time>
      </trkpt>
      <trkpt lat="48.50696" lon="7.15156">
        <ele>772</ele>
        <time>2021-02-21T14:40:49.325Z</time>
      </trkpt>
      <trkpt lat="48.50697" lon="7.15154">
        <ele>772</ele>
        <time>2021-02-21T14:40:51.331Z</time>
      </trkpt>
      <trkpt lat="48.50697" lon="7.15153">
        <ele>772</ele>
        <time>2021-02-21T14:40:53.316Z</time>
      </trkpt>
      <trkpt lat="48.50698" lon="7.15153">
        <ele>771</ele>
        <time>2021-02-21T14:40:54.316Z</time>
      </trkpt>
      <trkpt lat="48.50699" lon="7.15152">
        <ele>771</ele>
        <time>2021-02-21T14:40:55.316Z</time>
      </trkpt>
      <trkpt lat="48.507" lon="7.15152">
        <ele>771</ele>
        <time>2021-02-21T14:40:56.316Z</time>
      </trkpt>
      <trkpt lat="48.50701" lon="7.15151">
        <ele>771</ele>
        <time>2021-02-21T14:40:57.315Z</time>
      </trkpt>
      <trkpt lat="48.50702" lon="7.15149">
        <ele>770</ele>
        <time>2021-02-21T14:40:58.316Z</time>
      </trkpt>
      <trkpt lat="48.50703" lon="7.15149">
        <ele>770</ele>
        <time>2021-02-21T14:40:59.316Z</time>
      </trkpt>
      <trkpt lat="48.50705" lon="7.15148">
        <ele>770</ele>
        <time>2021-02-21T14:41:00.316Z</time>
      </trkpt>
      <trkpt lat="48.50706" lon="7.15147">
        <ele>769</ele>
        <time>2021-02-21T14:41:01.315Z</time>
      </trkpt>
      <trkpt lat="48.50707" lon="7.15146">
        <ele>769</ele>
        <time>2021-02-21T14:41:05.320Z</time>
      </trkpt>
      <trkpt lat="48.50708" lon="7.15146">
        <ele>769</ele>
        <time>2021-02-21T14:41:06.320Z</time>
      </trkpt>
      <trkpt lat="48.50708" lon="7.15145">
        <ele>770</ele>
        <time>2021-02-21T14:41:07.319Z</time>
      </trkpt>
      <trkpt lat="48.50709" lon="7.15144">
        <ele>770</ele>
        <time>2021-02-21T14:41:08.320Z</time>
      </trkpt>
      <trkpt lat="48.5071" lon="7.15143">
        <ele>770</ele>
        <time>2021-02-21T14:41:09.319Z</time>
      </trkpt>
      <trkpt lat="48.50711" lon="7.15142">
        <ele>770</ele>
        <time>2021-02-21T14:41:10.320Z</time>
      </trkpt>
      <trkpt lat="48.50712" lon="7.15142">
        <ele>769</ele>
        <time>2021-02-21T14:41:11.320Z</time>
      </trkpt>
      <trkpt lat="48.50713" lon="7.15141">
        <ele>770</ele>
        <time>2021-02-21T14:41:12.320Z</time>
      </trkpt>
      <trkpt lat="48.50713" lon="7.1514">
        <ele>770</ele>
        <time>2021-02-21T14:41:13.319Z</time>
      </trkpt>
      <trkpt lat="48.50714" lon="7.1514">
        <ele>770</ele>
        <time>2021-02-21T14:41:14.320Z</time>
      </trkpt>
      <trkpt lat="48.50714" lon="7.1514">
        <ele>771</ele>
        <time>2021-02-21T14:41:15.319Z</time>
      </trkpt>
      <trkpt lat="48.50715" lon="7.1514">
        <ele>771</ele>
        <time>2021-02-21T14:41:16.320Z</time>
      </trkpt>
      <trkpt lat="48.50715" lon="7.1514">
        <ele>771</ele>
        <time>2021-02-21T14:41:17.320Z</time>
      </trkpt>
      <trkpt lat="48.50716" lon="7.1514">
        <ele>771</ele>
        <time>2021-02-21T14:41:18.320Z</time>
      </trkpt>
      <trkpt lat="48.50717" lon="7.15139">
        <ele>771</ele>
        <time>2021-02-21T14:41:22.466Z</time>
      </trkpt>
      <trkpt lat="48.50718" lon="7.15138">
        <ele>770</ele>
        <time>2021-02-21T14:41:23.467Z</time>
      </trkpt>
      <trkpt lat="48.50719" lon="7.15138">
        <ele>769</ele>
        <time>2021-02-21T14:41:24.467Z</time>
      </trkpt>
      <trkpt lat="48.5072" lon="7.15137">
        <ele>769</ele>
        <time>2021-02-21T14:41:25.467Z</time>
      </trkpt>
      <trkpt lat="48.50721" lon="7.15136">
        <ele>768</ele>
        <time>2021-02-21T14:41:26.467Z</time>
      </trkpt>
      <trkpt lat="48.50722" lon="7.15135">
        <ele>768</ele>
        <time>2021-02-21T14:41:27.467Z</time>
      </trkpt>
      <trkpt lat="48.50724" lon="7.15135">
        <ele>768</ele>
        <time>2021-02-21T14:41:28.467Z</time>
      </trkpt>
      <trkpt lat="48.50725" lon="7.15135">
        <ele>767</ele>
        <time>2021-02-21T14:41:29.467Z</time>
      </trkpt>
      <trkpt lat="48.50726" lon="7.15135">
        <ele>766</ele>
        <time>2021-02-21T14:41:30.466Z</time>
      </trkpt>
      <trkpt lat="48.50728" lon="7.15135">
        <ele>765</ele>
        <time>2021-02-21T14:41:31.466Z</time>
      </trkpt>
      <trkpt lat="48.50729" lon="7.15135">
        <ele>765</ele>
        <time>2021-02-21T14:41:32.466Z</time>
      </trkpt>
      <trkpt lat="48.5073" lon="7.15134">
        <ele>764</ele>
        <time>2021-02-21T14:41:33.467Z</time>
      </trkpt>
      <trkpt lat="48.50731" lon="7.15134">
        <ele>764</ele>
        <time>2021-02-21T14:41:34.467Z</time>
      </trkpt>
      <trkpt lat="48.50731" lon="7.15134">
        <ele>764</ele>
        <time>2021-02-21T14:41:35.466Z</time>
      </trkpt>
      <trkpt lat="48.50733" lon="7.15133">
        <ele>764</ele>
        <time>2021-02-21T14:41:36.467Z</time>
      </trkpt>
      <trkpt lat="48.50733" lon="7.15133">
        <ele>764</ele>
        <time>2021-02-21T14:41:41.570Z</time>
      </trkpt>
      <trkpt lat="48.50734" lon="7.15134">
        <ele>764</ele>
        <time>2021-02-21T14:41:42.570Z</time>
      </trkpt>
      <trkpt lat="48.50735" lon="7.15134">
        <ele>764</ele>
        <time>2021-02-21T14:41:43.570Z</time>
      </trkpt>
      <trkpt lat="48.50736" lon="7.15133">
        <ele>764</ele>
        <time>2021-02-21T14:41:44.570Z</time>
      </trkpt>
      <trkpt lat="48.50737" lon="7.15133">
        <ele>765</ele>
        <time>2021-02-21T14:41:45.570Z</time>
      </trkpt>
      <trkpt lat="48.50739" lon="7.15133">
        <ele>765</ele>
        <time>2021-02-21T14:41:46.570Z</time>
      </trkpt>
      <trkpt lat="48.50739" lon="7.15132">
        <ele>766</ele>
        <time>2021-02-21T14:41:47.570Z</time>
      </trkpt>
      <trkpt lat="48.5074" lon="7.15131">
        <ele>766</ele>
        <time>2021-02-21T14:41:48.570Z</time>
      </trkpt>
      <trkpt lat="48.50741" lon="7.15131">
        <ele>766</ele>
        <time>2021-02-21T14:41:49.570Z</time>
      </trkpt>
      <trkpt lat="48.50743" lon="7.1513">
        <ele>766</ele>
        <time>2021-02-21T14:41:50.569Z</time>
      </trkpt>
      <trkpt lat="48.50744" lon="7.15128">
        <ele>766</ele>
        <time>2021-02-21T14:41:51.570Z</time>
      </trkpt>
      <trkpt lat="48.50744" lon="7.15127">
        <ele>766</ele>
        <time>2021-02-21T14:41:52.569Z</time>
      </trkpt>
      <trkpt lat="48.50745" lon="7.15126">
        <ele>766</ele>
        <time>2021-02-21T14:41:53.570Z</time>
      </trkpt>
      <trkpt lat="48.50746" lon="7.15124">
        <ele>767</ele>
        <time>2021-02-21T14:41:54.570Z</time>
      </trkpt>
      <trkpt lat="48.50748" lon="7.15122">
        <ele>767</ele>
        <time>2021-02-21T14:41:55.569Z</time>
      </trkpt>
      <trkpt lat="48.50749" lon="7.1512">
        <ele>767</ele>
        <time>2021-02-21T14:41:56.570Z</time>
      </trkpt>
      <trkpt lat="48.5075" lon="7.15118">
        <ele>767</ele>
        <time>2021-02-21T14:41:57.570Z</time>
      </trkpt>
      <trkpt lat="48.50751" lon="7.15116">
        <ele>768</ele>
        <time>2021-02-21T14:41:58.570Z</time>
      </trkpt>
      <trkpt lat="48.50753" lon="7.15115">
        <ele>768</ele>
        <time>2021-02-21T14:41:59.570Z</time>
      </trkpt>
      <trkpt lat="48.50754" lon="7.15114">
        <ele>769</ele>
        <time>2021-02-21T14:42:00.570Z</time>
      </trkpt>
      <trkpt lat="48.50755" lon="7.15113">
        <ele>769</ele>
        <time>2021-02-21T14:42:01.569Z</time>
      </trkpt>
      <trkpt lat="48.50756" lon="7.15111">
        <ele>770</ele>
        <time>2021-02-21T14:42:02.570Z</time>
      </trkpt>
      <trkpt lat="48.50757" lon="7.1511">
        <ele>769</ele>
        <time>2021-02-21T14:42:03.569Z</time>
      </trkpt>
      <trkpt lat="48.50758" lon="7.15108">
        <ele>769</ele>
        <time>2021-02-21T14:42:04.570Z</time>
      </trkpt>
      <trkpt lat="48.50759" lon="7.15107">
        <ele>769</ele>
        <time>2021-02-21T14:42:05.570Z</time>
      </trkpt>
      <trkpt lat="48.50759" lon="7.15105">
        <ele>769</ele>
        <time>2021-02-21T14:42:06.569Z</time>
      </trkpt>
      <trkpt lat="48.5076" lon="7.15104">
        <ele>769</ele>
        <time>2021-02-21T14:42:07.569Z</time>
      </trkpt>
      <trkpt lat="48.50761" lon="7.15103">
        <ele>769</ele>
        <time>2021-02-21T14:42:08.570Z</time>
      </trkpt>
      <trkpt lat="48.50761" lon="7.15101">
        <ele>769</ele>
        <time>2021-02-21T14:42:09.569Z</time>
      </trkpt>
      <trkpt lat="48.50762" lon="7.15099">
        <ele>769</ele>
        <time>2021-02-21T14:42:10.570Z</time>
      </trkpt>
      <trkpt lat="48.50762" lon="7.15097">
        <ele>768</ele>
        <time>2021-02-21T14:42:11.570Z</time>
      </trkpt>
      <trkpt lat="48.50763" lon="7.15096">
        <ele>767</ele>
        <time>2021-02-21T14:42:12.569Z</time>
      </trkpt>
      <trkpt lat="48.50764" lon="7.15095">
        <ele>766</ele>
        <time>2021-02-21T14:42:13.569Z</time>
      </trkpt>
      <trkpt lat="48.50765" lon="7.15094">
        <ele>765</ele>
        <time>2021-02-21T14:42:14.570Z</time>
      </trkpt>
      <trkpt lat="48.50766" lon="7.15093">
        <ele>764</ele>
        <time>2021-02-21T14:42:15.570Z</time>
      </trkpt>
      <trkpt lat="48.50767" lon="7.15091">
        <ele>763</ele>
        <time>2021-02-21T14:42:16.569Z</time>
      </trkpt>
      <trkpt lat="48.50768" lon="7.15089">
        <ele>762</ele>
        <time>2021-02-21T14:42:17.570Z</time>
      </trkpt>
      <trkpt lat="48.50769" lon="7.15088">
        <ele>762</ele>
        <time>2021-02-21T14:42:18.570Z</time>
      </trkpt>
      <trkpt lat="48.50769" lon="7.15086">
        <ele>762</ele>
        <time>2021-02-21T14:42:19.570Z</time>
      </trkpt>
      <trkpt lat="48.5077" lon="7.15084">
        <ele>762</ele>
        <time>2021-02-21T14:42:20.569Z</time>
      </trkpt>
      <trkpt lat="48.50771" lon="7.15082">
        <ele>761</ele>
        <time>2021-02-21T14:42:21.569Z</time>
      </trkpt>
      <trkpt lat="48.50771" lon="7.1508">
        <ele>761</ele>
        <time>2021-02-21T14:42:22.569Z</time>
      </trkpt>
      <trkpt lat="48.50772" lon="7.15078">
        <ele>761</ele>
        <time>2021-02-21T14:42:23.570Z</time>
      </trkpt>
      <trkpt lat="48.50773" lon="7.15076">
        <ele>761</ele>
        <time>2021-02-21T14:42:24.569Z</time>
      </trkpt>
      <trkpt lat="48.50773" lon="7.15074">
        <ele>761</ele>
        <time>2021-02-21T14:42:25.570Z</time>
      </trkpt>
      <trkpt lat="48.50774" lon="7.15072">
        <ele>761</ele>
        <time>2021-02-21T14:42:26.570Z</time>
      </trkpt>
      <trkpt lat="48.50775" lon="7.15071">
        <ele>761</ele>
        <time>2021-02-21T14:42:27.570Z</time>
      </trkpt>
      <trkpt lat="48.50775" lon="7.15069">
        <ele>761</ele>
        <time>2021-02-21T14:42:28.570Z</time>
      </trkpt>
      <trkpt lat="48.50776" lon="7.15068">
        <ele>760</ele>
        <time>2021-02-21T14:42:29.570Z</time>
      </trkpt>
      <trkpt lat="48.50777" lon="7.15067">
        <ele>760</ele>
        <time>2021-02-21T14:42:30.570Z</time>
      </trkpt>
      <trkpt lat="48.50778" lon="7.15065">
        <ele>760</ele>
        <time>2021-02-21T14:42:31.569Z</time>
      </trkpt>
      <trkpt lat="48.50779" lon="7.15064">
        <ele>760</ele>
        <time>2021-02-21T14:42:32.570Z</time>
      </trkpt>
      <trkpt lat="48.5078" lon="7.15063">
        <ele>760</ele>
        <time>2021-02-21T14:42:33.570Z</time>
      </trkpt>
      <trkpt lat="48.50781" lon="7.15061">
        <ele>759</ele>
        <time>2021-02-21T14:42:34.570Z</time>
      </trkpt>
      <trkpt lat="48.50781" lon="7.1506">
        <ele>760</ele>
        <time>2021-02-21T14:42:35.570Z</time>
      </trkpt>
      <trkpt lat="48.50782" lon="7.15058">
        <ele>760</ele>
        <time>2021-02-21T14:42:36.570Z</time>
      </trkpt>
      <trkpt lat="48.50783" lon="7.15057">
        <ele>760</ele>
        <time>2021-02-21T14:42:37.569Z</time>
      </trkpt>
      <trkpt lat="48.50784" lon="7.15056">
        <ele>760</ele>
        <time>2021-02-21T14:42:38.570Z</time>
      </trkpt>
      <trkpt lat="48.50785" lon="7.15056">
        <ele>760</ele>
        <time>2021-02-21T14:42:42.716Z</time>
      </trkpt>
      <trkpt lat="48.50786" lon="7.15055">
        <ele>759</ele>
        <time>2021-02-21T14:42:43.715Z</time>
      </trkpt>
      <trkpt lat="48.50786" lon="7.15053">
        <ele>758</ele>
        <time>2021-02-21T14:42:44.716Z</time>
      </trkpt>
      <trkpt lat="48.50787" lon="7.15052">
        <ele>757</ele>
        <time>2021-02-21T14:42:45.715Z</time>
      </trkpt>
      <trkpt lat="48.50787" lon="7.1505">
        <ele>757</ele>
        <time>2021-02-21T14:42:46.716Z</time>
      </trkpt>
      <trkpt lat="48.50788" lon="7.15049">
        <ele>756</ele>
        <time>2021-02-21T14:42:47.715Z</time>
      </trkpt>
      <trkpt lat="48.50789" lon="7.15047">
        <ele>755</ele>
        <time>2021-02-21T14:42:48.716Z</time>
      </trkpt>
      <trkpt lat="48.5079" lon="7.15046">
        <ele>754</ele>
        <time>2021-02-21T14:42:49.716Z</time>
      </trkpt>
      <trkpt lat="48.5079" lon="7.15045">
        <ele>753</ele>
        <time>2021-02-21T14:42:50.716Z</time>
      </trkpt>
      <trkpt lat="48.5079" lon="7.15043">
        <ele>752</ele>
        <time>2021-02-21T14:42:51.715Z</time>
      </trkpt>
      <trkpt lat="48.50791" lon="7.15042">
        <ele>752</ele>
        <time>2021-02-21T14:42:52.716Z</time>
      </trkpt>
      <trkpt lat="48.50792" lon="7.15041">
        <ele>751</ele>
        <time>2021-02-21T14:42:53.716Z</time>
      </trkpt>
      <trkpt lat="48.50792" lon="7.15039">
        <ele>751</ele>
        <time>2021-02-21T14:42:56.804Z</time>
      </trkpt>
      <trkpt lat="48.50792" lon="7.15037">
        <ele>751</ele>
        <time>2021-02-21T14:42:57.804Z</time>
      </trkpt>
      <trkpt lat="48.50793" lon="7.15036">
        <ele>750</ele>
        <time>2021-02-21T14:43:38.693Z</time>
      </trkpt>
      <trkpt lat="48.50794" lon="7.15034">
        <ele>750</ele>
        <time>2021-02-21T14:43:39.693Z</time>
      </trkpt>
      <trkpt lat="48.50795" lon="7.15033">
        <ele>750</ele>
        <time>2021-02-21T14:43:40.693Z</time>
      </trkpt>
      <trkpt lat="48.50795" lon="7.15031">
        <ele>750</ele>
        <time>2021-02-21T14:43:41.693Z</time>
      </trkpt>
      <trkpt lat="48.50796" lon="7.15029">
        <ele>750</ele>
        <time>2021-02-21T14:43:42.693Z</time>
      </trkpt>
      <trkpt lat="48.50797" lon="7.15027">
        <ele>750</ele>
        <time>2021-02-21T14:43:43.693Z</time>
      </trkpt>
      <trkpt lat="48.50797" lon="7.15026">
        <ele>750</ele>
        <time>2021-02-21T14:43:44.693Z</time>
      </trkpt>
      <trkpt lat="48.50798" lon="7.15024">
        <ele>750</ele>
        <time>2021-02-21T14:43:47.811Z</time>
      </trkpt>
      <trkpt lat="48.50798" lon="7.15022">
        <ele>750</ele>
        <time>2021-02-21T14:43:48.811Z</time>
      </trkpt>
      <trkpt lat="48.50799" lon="7.15021">
        <ele>749</ele>
        <time>2021-02-21T14:43:49.810Z</time>
      </trkpt>
      <trkpt lat="48.50799" lon="7.15019">
        <ele>749</ele>
        <time>2021-02-21T14:43:50.811Z</time>
      </trkpt>
      <trkpt lat="48.508" lon="7.15018">
        <ele>748</ele>
        <time>2021-02-21T14:43:51.811Z</time>
      </trkpt>
      <trkpt lat="48.50801" lon="7.15016">
        <ele>748</ele>
        <time>2021-02-21T14:43:52.811Z</time>
      </trkpt>
      <trkpt lat="48.50801" lon="7.15014">
        <ele>748</ele>
        <time>2021-02-21T14:43:53.811Z</time>
      </trkpt>
      <trkpt lat="48.50802" lon="7.15012">
        <ele>747</ele>
        <time>2021-02-21T14:43:54.811Z</time>
      </trkpt>
      <trkpt lat="48.50802" lon="7.1501">
        <ele>747</ele>
        <time>2021-02-21T14:43:55.810Z</time>
      </trkpt>
      <trkpt lat="48.50802" lon="7.15008">
        <ele>747</ele>
        <time>2021-02-21T14:43:56.811Z</time>
      </trkpt>
      <trkpt lat="48.50803" lon="7.15007">
        <ele>746</ele>
        <time>2021-02-21T14:43:57.811Z</time>
      </trkpt>
      <trkpt lat="48.50803" lon="7.15005">
        <ele>746</ele>
        <time>2021-02-21T14:43:58.811Z</time>
      </trkpt>
      <trkpt lat="48.50804" lon="7.15003">
        <ele>746</ele>
        <time>2021-02-21T14:43:59.811Z</time>
      </trkpt>
      <trkpt lat="48.50804" lon="7.15001">
        <ele>746</ele>
        <time>2021-02-21T14:44:00.810Z</time>
      </trkpt>
      <trkpt lat="48.50804" lon="7.15">
        <ele>746</ele>
        <time>2021-02-21T14:44:01.811Z</time>
      </trkpt>
      <trkpt lat="48.50805" lon="7.14998">
        <ele>746</ele>
        <time>2021-02-21T14:44:02.811Z</time>
      </trkpt>
      <trkpt lat="48.50805" lon="7.14996">
        <ele>746</ele>
        <time>2021-02-21T14:44:03.811Z</time>
      </trkpt>
      <trkpt lat="48.50805" lon="7.14994">
        <ele>747</ele>
        <time>2021-02-21T14:44:04.811Z</time>
      </trkpt>
      <trkpt lat="48.50805" lon="7.14992">
        <ele>747</ele>
        <time>2021-02-21T14:44:05.810Z</time>
      </trkpt>
      <trkpt lat="48.50806" lon="7.14991">
        <ele>748</ele>
        <time>2021-02-21T14:44:06.810Z</time>
      </trkpt>
      <trkpt lat="48.50806" lon="7.14989">
        <ele>749</ele>
        <time>2021-02-21T14:44:07.810Z</time>
      </trkpt>
      <trkpt lat="48.50806" lon="7.14987">
        <ele>749</ele>
        <time>2021-02-21T14:44:08.810Z</time>
      </trkpt>
      <trkpt lat="48.50806" lon="7.14986">
        <ele>750</ele>
        <time>2021-02-21T14:44:09.811Z</time>
      </trkpt>
      <trkpt lat="48.50806" lon="7.14984">
        <ele>750</ele>
        <time>2021-02-21T14:44:10.811Z</time>
      </trkpt>
      <trkpt lat="48.50807" lon="7.14982">
        <ele>750</ele>
        <time>2021-02-21T14:44:11.810Z</time>
      </trkpt>
      <trkpt lat="48.50807" lon="7.14981">
        <ele>750</ele>
        <time>2021-02-21T14:44:12.811Z</time>
      </trkpt>
      <trkpt lat="48.50807" lon="7.14979">
        <ele>750</ele>
        <time>2021-02-21T14:44:13.810Z</time>
      </trkpt>
      <trkpt lat="48.50806" lon="7.14977">
        <ele>750</ele>
        <time>2021-02-21T14:44:14.811Z</time>
      </trkpt>
      <trkpt lat="48.50807" lon="7.14975">
        <ele>750</ele>
        <time>2021-02-21T14:44:15.811Z</time>
      </trkpt>
      <trkpt lat="48.50807" lon="7.14973">
        <ele>749</ele>
        <time>2021-02-21T14:44:16.811Z</time>
      </trkpt>
      <trkpt lat="48.50807" lon="7.14972">
        <ele>748</ele>
        <time>2021-02-21T14:44:17.811Z</time>
      </trkpt>
      <trkpt lat="48.50807" lon="7.1497">
        <ele>748</ele>
        <time>2021-02-21T14:44:18.811Z</time>
      </trkpt>
      <trkpt lat="48.50807" lon="7.14968">
        <ele>747</ele>
        <time>2021-02-21T14:44:19.810Z</time>
      </trkpt>
      <trkpt lat="48.50807" lon="7.14966">
        <ele>746</ele>
        <time>2021-02-21T14:44:20.811Z</time>
      </trkpt>
      <trkpt lat="48.50807" lon="7.14964">
        <ele>745</ele>
        <time>2021-02-21T14:44:21.811Z</time>
      </trkpt>
      <trkpt lat="48.50807" lon="7.14963">
        <ele>744</ele>
        <time>2021-02-21T14:44:22.811Z</time>
      </trkpt>
      <trkpt lat="48.50807" lon="7.14961">
        <ele>744</ele>
        <time>2021-02-21T14:44:23.811Z</time>
      </trkpt>
      <trkpt lat="48.50807" lon="7.14959">
        <ele>743</ele>
        <time>2021-02-21T14:44:24.811Z</time>
      </trkpt>
      <trkpt lat="48.50807" lon="7.14958">
        <ele>742</ele>
        <time>2021-02-21T14:44:25.811Z</time>
      </trkpt>
      <trkpt lat="48.50808" lon="7.14956">
        <ele>742</ele>
        <time>2021-02-21T14:44:26.810Z</time>
      </trkpt>
      <trkpt lat="48.50809" lon="7.14955">
        <ele>741</ele>
        <time>2021-02-21T14:44:27.811Z</time>
      </trkpt>
      <trkpt lat="48.50809" lon="7.14953">
        <ele>741</ele>
        <time>2021-02-21T14:44:28.810Z</time>
      </trkpt>
      <trkpt lat="48.5081" lon="7.14952">
        <ele>741</ele>
        <time>2021-02-21T14:44:29.811Z</time>
      </trkpt>
      <trkpt lat="48.5081" lon="7.1495">
        <ele>742</ele>
        <time>2021-02-21T14:44:30.811Z</time>
      </trkpt>
      <trkpt lat="48.5081" lon="7.14949">
        <ele>742</ele>
        <time>2021-02-21T14:44:31.811Z</time>
      </trkpt>
      <trkpt lat="48.5081" lon="7.14947">
        <ele>742</ele>
        <time>2021-02-21T14:44:32.811Z</time>
      </trkpt>
      <trkpt lat="48.5081" lon="7.14945">
        <ele>742</ele>
        <time>2021-02-21T14:44:33.811Z</time>
      </trkpt>
      <trkpt lat="48.5081" lon="7.14944">
        <ele>742</ele>
        <time>2021-02-21T14:44:34.811Z</time>
      </trkpt>
      <trkpt lat="48.5081" lon="7.14943">
        <ele>742</ele>
        <time>2021-02-21T14:44:35.811Z</time>
      </trkpt>
      <trkpt lat="48.50809" lon="7.14941">
        <ele>742</ele>
        <time>2021-02-21T14:44:36.811Z</time>
      </trkpt>
      <trkpt lat="48.50809" lon="7.1494">
        <ele>742</ele>
        <time>2021-02-21T14:44:37.811Z</time>
      </trkpt>
      <trkpt lat="48.50809" lon="7.14939">
        <ele>742</ele>
        <time>2021-02-21T14:44:38.811Z</time>
      </trkpt>
      <trkpt lat="48.50809" lon="7.14937">
        <ele>742</ele>
        <time>2021-02-21T14:44:39.810Z</time>
      </trkpt>
      <trkpt lat="48.5081" lon="7.14935">
        <ele>742</ele>
        <time>2021-02-21T14:44:40.810Z</time>
      </trkpt>
      <trkpt lat="48.50809" lon="7.14933">
        <ele>742</ele>
        <time>2021-02-21T14:44:41.811Z</time>
      </trkpt>
      <trkpt lat="48.50809" lon="7.14932">
        <ele>742</ele>
        <time>2021-02-21T14:44:42.811Z</time>
      </trkpt>
      <trkpt lat="48.50809" lon="7.14931">
        <ele>742</ele>
        <time>2021-02-21T14:44:43.811Z</time>
      </trkpt>
      <trkpt lat="48.50809" lon="7.14929">
        <ele>741</ele>
        <time>2021-02-21T14:44:44.810Z</time>
      </trkpt>
      <trkpt lat="48.50809" lon="7.14927">
        <ele>741</ele>
        <time>2021-02-21T14:44:45.810Z</time>
      </trkpt>
      <trkpt lat="48.50809" lon="7.14926">
        <ele>741</ele>
        <time>2021-02-21T14:44:46.811Z</time>
      </trkpt>
      <trkpt lat="48.50809" lon="7.14924">
        <ele>741</ele>
        <time>2021-02-21T14:44:47.811Z</time>
      </trkpt>
      <trkpt lat="48.50809" lon="7.14923">
        <ele>741</ele>
        <time>2021-02-21T14:44:48.811Z</time>
      </trkpt>
      <trkpt lat="48.50808" lon="7.14921">
        <ele>741</ele>
        <time>2021-02-21T14:44:49.811Z</time>
      </trkpt>
      <trkpt lat="48.50808" lon="7.14919">
        <ele>741</ele>
        <time>2021-02-21T14:44:50.811Z</time>
      </trkpt>
      <trkpt lat="48.50809" lon="7.14918">
        <ele>741</ele>
        <time>2021-02-21T14:44:51.811Z</time>
      </trkpt>
      <trkpt lat="48.50809" lon="7.14917">
        <ele>742</ele>
        <time>2021-02-21T14:44:52.811Z</time>
      </trkpt>
      <trkpt lat="48.50809" lon="7.14915">
        <ele>743</ele>
        <time>2021-02-21T14:44:53.810Z</time>
      </trkpt>
      <trkpt lat="48.50809" lon="7.14914">
        <ele>743</ele>
        <time>2021-02-21T14:44:54.811Z</time>
      </trkpt>
      <trkpt lat="48.50809" lon="7.14912">
        <ele>743</ele>
        <time>2021-02-21T14:44:55.811Z</time>
      </trkpt>
      <trkpt lat="48.50808" lon="7.14911">
        <ele>744</ele>
        <time>2021-02-21T14:44:56.811Z</time>
      </trkpt>
      <trkpt lat="48.50808" lon="7.14909">
        <ele>744</ele>
        <time>2021-02-21T14:44:57.811Z</time>
      </trkpt>
      <trkpt lat="48.50808" lon="7.14907">
        <ele>744</ele>
        <time>2021-02-21T14:44:58.811Z</time>
      </trkpt>
      <trkpt lat="48.50808" lon="7.14905">
        <ele>745</ele>
        <time>2021-02-21T14:44:59.811Z</time>
      </trkpt>
      <trkpt lat="48.50808" lon="7.14903">
        <ele>745</ele>
        <time>2021-02-21T14:45:00.810Z</time>
      </trkpt>
      <trkpt lat="48.50808" lon="7.14901">
        <ele>746</ele>
        <time>2021-02-21T14:45:01.811Z</time>
      </trkpt>
      <trkpt lat="48.50807" lon="7.14899">
        <ele>746</ele>
        <time>2021-02-21T14:45:02.811Z</time>
      </trkpt>
      <trkpt lat="48.50807" lon="7.14897">
        <ele>747</ele>
        <time>2021-02-21T14:45:03.810Z</time>
      </trkpt>
      <trkpt lat="48.50806" lon="7.14896">
        <ele>747</ele>
        <time>2021-02-21T14:45:04.810Z</time>
      </trkpt>
      <trkpt lat="48.50806" lon="7.14894">
        <ele>747</ele>
        <time>2021-02-21T14:45:05.811Z</time>
      </trkpt>
      <trkpt lat="48.50805" lon="7.14892">
        <ele>748</ele>
        <time>2021-02-21T14:45:06.811Z</time>
      </trkpt>
      <trkpt lat="48.50804" lon="7.14891">
        <ele>748</ele>
        <time>2021-02-21T14:45:07.811Z</time>
      </trkpt>
      <trkpt lat="48.50804" lon="7.14892">
        <ele>748</ele>
        <time>2021-02-21T14:45:08.811Z</time>
      </trkpt>
      <trkpt lat="48.50803" lon="7.14891">
        <ele>748</ele>
        <time>2021-02-21T14:45:09.810Z</time>
      </trkpt>
      <trkpt lat="48.50803" lon="7.14888">
        <ele>748</ele>
        <time>2021-02-21T14:45:10.811Z</time>
      </trkpt>
      <trkpt lat="48.50803" lon="7.14885">
        <ele>748</ele>
        <time>2021-02-21T14:45:11.810Z</time>
      </trkpt>
      <trkpt lat="48.50803" lon="7.14882">
        <ele>748</ele>
        <time>2021-02-21T14:45:12.810Z</time>
      </trkpt>
      <trkpt lat="48.50803" lon="7.1488">
        <ele>748</ele>
        <time>2021-02-21T14:45:13.811Z</time>
      </trkpt>
      <trkpt lat="48.50803" lon="7.14878">
        <ele>748</ele>
        <time>2021-02-21T14:45:14.811Z</time>
      </trkpt>
      <trkpt lat="48.50803" lon="7.14877">
        <ele>747</ele>
        <time>2021-02-21T14:45:15.811Z</time>
      </trkpt>
      <trkpt lat="48.50803" lon="7.14875">
        <ele>747</ele>
        <time>2021-02-21T14:45:16.810Z</time>
      </trkpt>
      <trkpt lat="48.50803" lon="7.14873">
        <ele>747</ele>
        <time>2021-02-21T14:45:17.810Z</time>
      </trkpt>
      <trkpt lat="48.50803" lon="7.14871">
        <ele>746</ele>
        <time>2021-02-21T14:45:18.811Z</time>
      </trkpt>
      <trkpt lat="48.50802" lon="7.1487">
        <ele>746</ele>
        <time>2021-02-21T14:45:19.811Z</time>
      </trkpt>
      <trkpt lat="48.50802" lon="7.14868">
        <ele>746</ele>
        <time>2021-02-21T14:45:20.811Z</time>
      </trkpt>
      <trkpt lat="48.50802" lon="7.14867">
        <ele>745</ele>
        <time>2021-02-21T14:45:21.810Z</time>
      </trkpt>
      <trkpt lat="48.50802" lon="7.14865">
        <ele>745</ele>
        <time>2021-02-21T14:45:22.811Z</time>
      </trkpt>
      <trkpt lat="48.50802" lon="7.14863">
        <ele>744</ele>
        <time>2021-02-21T14:45:23.811Z</time>
      </trkpt>
      <trkpt lat="48.50801" lon="7.14862">
        <ele>744</ele>
        <time>2021-02-21T14:45:24.811Z</time>
      </trkpt>
      <trkpt lat="48.508" lon="7.1486">
        <ele>743</ele>
        <time>2021-02-21T14:45:25.811Z</time>
      </trkpt>
      <trkpt lat="48.508" lon="7.14857">
        <ele>743</ele>
        <time>2021-02-21T14:45:26.811Z</time>
      </trkpt>
      <trkpt lat="48.508" lon="7.14855">
        <ele>743</ele>
        <time>2021-02-21T14:45:27.810Z</time>
      </trkpt>
      <trkpt lat="48.508" lon="7.14854">
        <ele>743</ele>
        <time>2021-02-21T14:45:28.810Z</time>
      </trkpt>
      <trkpt lat="48.508" lon="7.14852">
        <ele>743</ele>
        <time>2021-02-21T14:45:29.811Z</time>
      </trkpt>
      <trkpt lat="48.508" lon="7.1485">
        <ele>742</ele>
        <time>2021-02-21T14:45:30.810Z</time>
      </trkpt>
      <trkpt lat="48.50799" lon="7.14848">
        <ele>742</ele>
        <time>2021-02-21T14:45:31.811Z</time>
      </trkpt>
      <trkpt lat="48.50799" lon="7.14847">
        <ele>742</ele>
        <time>2021-02-21T14:45:32.811Z</time>
      </trkpt>
      <trkpt lat="48.50799" lon="7.14845">
        <ele>742</ele>
        <time>2021-02-21T14:45:33.811Z</time>
      </trkpt>
      <trkpt lat="48.50799" lon="7.14844">
        <ele>742</ele>
        <time>2021-02-21T14:45:34.811Z</time>
      </trkpt>
      <trkpt lat="48.50799" lon="7.14842">
        <ele>742</ele>
        <time>2021-02-21T14:45:35.811Z</time>
      </trkpt>
      <trkpt lat="48.50798" lon="7.14841">
        <ele>742</ele>
        <time>2021-02-21T14:45:36.811Z</time>
      </trkpt>
      <trkpt lat="48.50798" lon="7.14839">
        <ele>743</ele>
        <time>2021-02-21T14:45:37.811Z</time>
      </trkpt>
      <trkpt lat="48.50798" lon="7.14837">
        <ele>743</ele>
        <time>2021-02-21T14:45:38.811Z</time>
      </trkpt>
      <trkpt lat="48.50797" lon="7.14835">
        <ele>743</ele>
        <time>2021-02-21T14:45:39.811Z</time>
      </trkpt>
      <trkpt lat="48.50797" lon="7.14832">
        <ele>743</ele>
        <time>2021-02-21T14:45:40.811Z</time>
      </trkpt>
      <trkpt lat="48.50797" lon="7.1483">
        <ele>744</ele>
        <time>2021-02-21T14:45:41.811Z</time>
      </trkpt>
      <trkpt lat="48.50798" lon="7.14828">
        <ele>744</ele>
        <time>2021-02-21T14:45:42.810Z</time>
      </trkpt>
      <trkpt lat="48.50798" lon="7.14826">
        <ele>744</ele>
        <time>2021-02-21T14:45:43.811Z</time>
      </trkpt>
      <trkpt lat="48.50798" lon="7.14825">
        <ele>744</ele>
        <time>2021-02-21T14:45:44.811Z</time>
      </trkpt>
      <trkpt lat="48.50797" lon="7.14823">
        <ele>743</ele>
        <time>2021-02-21T14:45:45.811Z</time>
      </trkpt>
      <trkpt lat="48.50797" lon="7.14822">
        <ele>743</ele>
        <time>2021-02-21T14:45:46.810Z</time>
      </trkpt>
      <trkpt lat="48.50797" lon="7.1482">
        <ele>742</ele>
        <time>2021-02-21T14:45:47.811Z</time>
      </trkpt>
      <trkpt lat="48.50796" lon="7.14819">
        <ele>741</ele>
        <time>2021-02-21T14:45:48.810Z</time>
      </trkpt>
      <trkpt lat="48.50796" lon="7.14818">
        <ele>740</ele>
        <time>2021-02-21T14:45:49.811Z</time>
      </trkpt>
      <trkpt lat="48.50796" lon="7.14816">
        <ele>740</ele>
        <time>2021-02-21T14:45:50.810Z</time>
      </trkpt>
      <trkpt lat="48.50795" lon="7.14814">
        <ele>739</ele>
        <time>2021-02-21T14:45:51.810Z</time>
      </trkpt>
      <trkpt lat="48.50795" lon="7.14813">
        <ele>739</ele>
        <time>2021-02-21T14:45:52.811Z</time>
      </trkpt>
      <trkpt lat="48.50795" lon="7.14811">
        <ele>738</ele>
        <time>2021-02-21T14:45:53.810Z</time>
      </trkpt>
      <trkpt lat="48.50795" lon="7.1481">
        <ele>737</ele>
        <time>2021-02-21T14:45:54.811Z</time>
      </trkpt>
      <trkpt lat="48.50795" lon="7.14809">
        <ele>737</ele>
        <time>2021-02-21T14:45:55.811Z</time>
      </trkpt>
      <trkpt lat="48.50795" lon="7.14808">
        <ele>737</ele>
        <time>2021-02-21T14:45:56.811Z</time>
      </trkpt>
      <trkpt lat="48.50794" lon="7.14806">
        <ele>736</ele>
        <time>2021-02-21T14:45:57.810Z</time>
      </trkpt>
      <trkpt lat="48.50794" lon="7.14805">
        <ele>736</ele>
        <time>2021-02-21T14:45:58.811Z</time>
      </trkpt>
      <trkpt lat="48.50794" lon="7.14804">
        <ele>737</ele>
        <time>2021-02-21T14:45:59.811Z</time>
      </trkpt>
      <trkpt lat="48.50794" lon="7.14803">
        <ele>737</ele>
        <time>2021-02-21T14:46:00.810Z</time>
      </trkpt>
      <trkpt lat="48.50794" lon="7.14801">
        <ele>737</ele>
        <time>2021-02-21T14:46:01.811Z</time>
      </trkpt>
      <trkpt lat="48.50794" lon="7.14799">
        <ele>738</ele>
        <time>2021-02-21T14:46:02.811Z</time>
      </trkpt>
      <trkpt lat="48.50795" lon="7.14797">
        <ele>738</ele>
        <time>2021-02-21T14:46:03.810Z</time>
      </trkpt>
      <trkpt lat="48.50795" lon="7.14796">
        <ele>738</ele>
        <time>2021-02-21T14:46:04.811Z</time>
      </trkpt>
      <trkpt lat="48.50796" lon="7.14794">
        <ele>738</ele>
        <time>2021-02-21T14:46:05.811Z</time>
      </trkpt>
      <trkpt lat="48.50796" lon="7.14793">
        <ele>739</ele>
        <time>2021-02-21T14:46:06.810Z</time>
      </trkpt>
      <trkpt lat="48.50796" lon="7.14791">
        <ele>739</ele>
        <time>2021-02-21T14:46:07.810Z</time>
      </trkpt>
      <trkpt lat="48.50795" lon="7.14789">
        <ele>739</ele>
        <time>2021-02-21T14:46:08.810Z</time>
      </trkpt>
      <trkpt lat="48.50795" lon="7.14787">
        <ele>740</ele>
        <time>2021-02-21T14:46:09.811Z</time>
      </trkpt>
      <trkpt lat="48.50795" lon="7.14785">
        <ele>740</ele>
        <time>2021-02-21T14:46:10.811Z</time>
      </trkpt>
      <trkpt lat="48.50794" lon="7.14784">
        <ele>741</ele>
        <time>2021-02-21T14:46:11.811Z</time>
      </trkpt>
      <trkpt lat="48.50794" lon="7.14782">
        <ele>742</ele>
        <time>2021-02-21T14:46:12.811Z</time>
      </trkpt>
      <trkpt lat="48.50793" lon="7.14779">
        <ele>742</ele>
        <time>2021-02-21T14:46:13.811Z</time>
      </trkpt>
      <trkpt lat="48.50793" lon="7.14776">
        <ele>743</ele>
        <time>2021-02-21T14:46:14.811Z</time>
      </trkpt>
      <trkpt lat="48.50793" lon="7.14774">
        <ele>743</ele>
        <time>2021-02-21T14:46:15.811Z</time>
      </trkpt>
      <trkpt lat="48.50793" lon="7.14771">
        <ele>744</ele>
        <time>2021-02-21T14:46:16.810Z</time>
      </trkpt>
      <trkpt lat="48.50793" lon="7.14769">
        <ele>744</ele>
        <time>2021-02-21T14:46:17.810Z</time>
      </trkpt>
      <trkpt lat="48.50793" lon="7.14767">
        <ele>745</ele>
        <time>2021-02-21T14:46:18.811Z</time>
      </trkpt>
      <trkpt lat="48.50794" lon="7.14765">
        <ele>745</ele>
        <time>2021-02-21T14:46:19.810Z</time>
      </trkpt>
      <trkpt lat="48.50793" lon="7.14762">
        <ele>744</ele>
        <time>2021-02-21T14:46:20.810Z</time>
      </trkpt>
      <trkpt lat="48.50793" lon="7.14761">
        <ele>744</ele>
        <time>2021-02-21T14:46:21.810Z</time>
      </trkpt>
      <trkpt lat="48.50793" lon="7.1476">
        <ele>744</ele>
        <time>2021-02-21T14:46:22.811Z</time>
      </trkpt>
      <trkpt lat="48.50793" lon="7.14759">
        <ele>744</ele>
        <time>2021-02-21T14:46:23.811Z</time>
      </trkpt>
      <trkpt lat="48.50793" lon="7.14758">
        <ele>744</ele>
        <time>2021-02-21T14:46:24.810Z</time>
      </trkpt>
      <trkpt lat="48.50792" lon="7.14757">
        <ele>745</ele>
        <time>2021-02-21T14:46:25.811Z</time>
      </trkpt>
      <trkpt lat="48.50792" lon="7.14756">
        <ele>745</ele>
        <time>2021-02-21T14:46:26.811Z</time>
      </trkpt>
      <trkpt lat="48.50792" lon="7.14754">
        <ele>745</ele>
        <time>2021-02-21T14:46:27.811Z</time>
      </trkpt>
      <trkpt lat="48.50793" lon="7.14752">
        <ele>745</ele>
        <time>2021-02-21T14:46:28.811Z</time>
      </trkpt>
      <trkpt lat="48.50793" lon="7.1475">
        <ele>745</ele>
        <time>2021-02-21T14:46:29.811Z</time>
      </trkpt>
      <trkpt lat="48.50792" lon="7.14748">
        <ele>745</ele>
        <time>2021-02-21T14:46:30.811Z</time>
      </trkpt>
      <trkpt lat="48.50792" lon="7.14745">
        <ele>745</ele>
        <time>2021-02-21T14:46:31.810Z</time>
      </trkpt>
      <trkpt lat="48.50791" lon="7.14743">
        <ele>745</ele>
        <time>2021-02-21T14:46:32.811Z</time>
      </trkpt>
      <trkpt lat="48.50791" lon="7.14741">
        <ele>745</ele>
        <time>2021-02-21T14:46:33.811Z</time>
      </trkpt>
      <trkpt lat="48.5079" lon="7.14739">
        <ele>745</ele>
        <time>2021-02-21T14:46:35.925Z</time>
      </trkpt>
      <trkpt lat="48.5079" lon="7.14738">
        <ele>745</ele>
        <time>2021-02-21T14:46:36.924Z</time>
      </trkpt>
      <trkpt lat="48.5079" lon="7.14737">
        <ele>745</ele>
        <time>2021-02-21T14:46:37.925Z</time>
      </trkpt>
      <trkpt lat="48.50789" lon="7.14736">
        <ele>745</ele>
        <time>2021-02-21T14:46:38.925Z</time>
      </trkpt>
      <trkpt lat="48.50789" lon="7.14735">
        <ele>745</ele>
        <time>2021-02-21T14:46:39.925Z</time>
      </trkpt>
      <trkpt lat="48.5079" lon="7.14734">
        <ele>745</ele>
        <time>2021-02-21T14:46:40.925Z</time>
      </trkpt>
      <trkpt lat="48.5079" lon="7.14732">
        <ele>745</ele>
        <time>2021-02-21T14:46:45.069Z</time>
      </trkpt>
      <trkpt lat="48.5079" lon="7.14731">
        <ele>745</ele>
        <time>2021-02-21T14:46:51.069Z</time>
      </trkpt>
      <trkpt lat="48.50789" lon="7.14729">
        <ele>745</ele>
        <time>2021-02-21T14:46:52.069Z</time>
      </trkpt>
      <trkpt lat="48.5079" lon="7.14727">
        <ele>744</ele>
        <time>2021-02-21T14:46:53.069Z</time>
      </trkpt>
      <trkpt lat="48.5079" lon="7.14725">
        <ele>744</ele>
        <time>2021-02-21T14:48:04.230Z</time>
      </trkpt>
      <trkpt lat="48.5079" lon="7.14723">
        <ele>744</ele>
        <time>2021-02-21T14:48:08.212Z</time>
      </trkpt>
      <trkpt lat="48.5079" lon="7.14722">
        <ele>745</ele>
        <time>2021-02-21T14:48:09.212Z</time>
      </trkpt>
      <trkpt lat="48.5079" lon="7.14719">
        <ele>745</ele>
        <time>2021-02-21T14:48:10.212Z</time>
      </trkpt>
      <trkpt lat="48.5079" lon="7.14717">
        <ele>745</ele>
        <time>2021-02-21T14:48:11.212Z</time>
      </trkpt>
      <trkpt lat="48.50789" lon="7.14716">
        <ele>744</ele>
        <time>2021-02-21T14:48:12.212Z</time>
      </trkpt>
      <trkpt lat="48.50788" lon="7.14716">
        <ele>744</ele>
        <time>2021-02-21T14:48:13.211Z</time>
      </trkpt>
      <trkpt lat="48.50787" lon="7.14715">
        <ele>744</ele>
        <time>2021-02-21T14:48:14.212Z</time>
      </trkpt>
      <trkpt lat="48.50786" lon="7.14714">
        <ele>743</ele>
        <time>2021-02-21T14:48:15.212Z</time>
      </trkpt>
      <trkpt lat="48.50786" lon="7.14712">
        <ele>743</ele>
        <time>2021-02-21T14:48:16.212Z</time>
      </trkpt>
      <trkpt lat="48.50785" lon="7.1471">
        <ele>743</ele>
        <time>2021-02-21T14:48:17.212Z</time>
      </trkpt>
      <trkpt lat="48.50785" lon="7.14709">
        <ele>743</ele>
        <time>2021-02-21T14:48:18.211Z</time>
      </trkpt>
      <trkpt lat="48.50785" lon="7.14707">
        <ele>743</ele>
        <time>2021-02-21T14:48:19.212Z</time>
      </trkpt>
      <trkpt lat="48.50786" lon="7.14706">
        <ele>743</ele>
        <time>2021-02-21T14:48:20.212Z</time>
      </trkpt>
      <trkpt lat="48.50786" lon="7.14704">
        <ele>744</ele>
        <time>2021-02-21T14:48:21.211Z</time>
      </trkpt>
      <trkpt lat="48.50786" lon="7.14702">
        <ele>743</ele>
        <time>2021-02-21T14:48:22.212Z</time>
      </trkpt>
      <trkpt lat="48.50785" lon="7.14699">
        <ele>743</ele>
        <time>2021-02-21T14:48:23.212Z</time>
      </trkpt>
      <trkpt lat="48.50785" lon="7.14698">
        <ele>743</ele>
        <time>2021-02-21T14:48:24.212Z</time>
      </trkpt>
      <trkpt lat="48.50784" lon="7.14696">
        <ele>743</ele>
        <time>2021-02-21T14:48:25.211Z</time>
      </trkpt>
      <trkpt lat="48.50784" lon="7.14694">
        <ele>743</ele>
        <time>2021-02-21T14:48:26.212Z</time>
      </trkpt>
      <trkpt lat="48.50783" lon="7.14692">
        <ele>743</ele>
        <time>2021-02-21T14:48:27.212Z</time>
      </trkpt>
      <trkpt lat="48.50782" lon="7.14691">
        <ele>742</ele>
        <time>2021-02-21T14:48:28.211Z</time>
      </trkpt>
      <trkpt lat="48.50782" lon="7.1469">
        <ele>742</ele>
        <time>2021-02-21T14:48:29.211Z</time>
      </trkpt>
      <trkpt lat="48.50781" lon="7.1469">
        <ele>742</ele>
        <time>2021-02-21T14:48:30.212Z</time>
      </trkpt>
      <trkpt lat="48.5078" lon="7.14688">
        <ele>741</ele>
        <time>2021-02-21T14:48:31.211Z</time>
      </trkpt>
      <trkpt lat="48.5078" lon="7.14686">
        <ele>741</ele>
        <time>2021-02-21T14:48:32.212Z</time>
      </trkpt>
      <trkpt lat="48.50781" lon="7.14684">
        <ele>740</ele>
        <time>2021-02-21T14:48:33.212Z</time>
      </trkpt>
      <trkpt lat="48.50781" lon="7.14682">
        <ele>740</ele>
        <time>2021-02-21T14:48:34.212Z</time>
      </trkpt>
      <trkpt lat="48.50781" lon="7.14681">
        <ele>739</ele>
        <time>2021-02-21T14:48:35.212Z</time>
      </trkpt>
      <trkpt lat="48.50781" lon="7.14679">
        <ele>739</ele>
        <time>2021-02-21T14:48:36.211Z</time>
      </trkpt>
      <trkpt lat="48.50781" lon="7.14678">
        <ele>738</ele>
        <time>2021-02-21T14:48:37.211Z</time>
      </trkpt>
      <trkpt lat="48.50782" lon="7.14677">
        <ele>738</ele>
        <time>2021-02-21T14:48:38.211Z</time>
      </trkpt>
      <trkpt lat="48.50783" lon="7.14676">
        <ele>738</ele>
        <time>2021-02-21T14:48:39.211Z</time>
      </trkpt>
      <trkpt lat="48.50783" lon="7.14675">
        <ele>738</ele>
        <time>2021-02-21T14:48:40.211Z</time>
      </trkpt>
      <trkpt lat="48.50784" lon="7.14672">
        <ele>738</ele>
        <time>2021-02-21T14:48:41.211Z</time>
      </trkpt>
      <trkpt lat="48.50784" lon="7.14671">
        <ele>737</ele>
        <time>2021-02-21T14:48:42.211Z</time>
      </trkpt>
      <trkpt lat="48.50786" lon="7.14669">
        <ele>737</ele>
        <time>2021-02-21T14:48:43.212Z</time>
      </trkpt>
      <trkpt lat="48.50786" lon="7.14667">
        <ele>737</ele>
        <time>2021-02-21T14:48:44.212Z</time>
      </trkpt>
      <trkpt lat="48.50786" lon="7.14666">
        <ele>737</ele>
        <time>2021-02-21T14:48:45.212Z</time>
      </trkpt>
      <trkpt lat="48.50786" lon="7.14665">
        <ele>737</ele>
        <time>2021-02-21T14:48:46.212Z</time>
      </trkpt>
      <trkpt lat="48.50787" lon="7.14663">
        <ele>737</ele>
        <time>2021-02-21T14:48:47.212Z</time>
      </trkpt>
      <trkpt lat="48.50787" lon="7.14662">
        <ele>737</ele>
        <time>2021-02-21T14:48:48.212Z</time>
      </trkpt>
      <trkpt lat="48.50787" lon="7.1466">
        <ele>737</ele>
        <time>2021-02-21T14:48:49.211Z</time>
      </trkpt>
      <trkpt lat="48.50787" lon="7.1466">
        <ele>737</ele>
        <time>2021-02-21T14:48:50.212Z</time>
      </trkpt>
      <trkpt lat="48.50787" lon="7.1466">
        <ele>737</ele>
        <time>2021-02-21T14:48:51.212Z</time>
      </trkpt>
      <trkpt lat="48.50787" lon="7.1466">
        <ele>737</ele>
        <time>2021-02-21T14:48:52.211Z</time>
      </trkpt>
      <trkpt lat="48.50787" lon="7.14661">
        <ele>737</ele>
        <time>2021-02-21T14:48:53.212Z</time>
      </trkpt>
      <trkpt lat="48.50787" lon="7.14661">
        <ele>737</ele>
        <time>2021-02-21T14:48:54.212Z</time>
      </trkpt>
      <trkpt lat="48.50785" lon="7.14664">
        <ele>736</ele>
        <time>2021-02-21T14:48:55.213Z</time>
      </trkpt>
      <trkpt lat="48.50785" lon="7.14664">
        <ele>736</ele>
        <time>2021-02-21T14:48:56.212Z</time>
      </trkpt>
      <trkpt lat="48.50785" lon="7.14663">
        <ele>736</ele>
        <time>2021-02-21T14:48:57.213Z</time>
      </trkpt>
      <trkpt lat="48.50785" lon="7.14662">
        <ele>735</ele>
        <time>2021-02-21T14:48:58.213Z</time>
      </trkpt>
      <trkpt lat="48.50787" lon="7.14659">
        <ele>735</ele>
        <time>2021-02-21T14:48:59.214Z</time>
      </trkpt>
      <trkpt lat="48.50787" lon="7.14657">
        <ele>735</ele>
        <time>2021-02-21T14:49:00.214Z</time>
      </trkpt>
      <trkpt lat="48.50788" lon="7.14655">
        <ele>735</ele>
        <time>2021-02-21T14:49:01.213Z</time>
      </trkpt>
      <trkpt lat="48.50788" lon="7.14653">
        <ele>735</ele>
        <time>2021-02-21T14:49:02.213Z</time>
      </trkpt>
      <trkpt lat="48.50788" lon="7.14651">
        <ele>735</ele>
        <time>2021-02-21T14:49:03.213Z</time>
      </trkpt>
      <trkpt lat="48.50788" lon="7.14649">
        <ele>736</ele>
        <time>2021-02-21T14:49:04.214Z</time>
      </trkpt>
      <trkpt lat="48.50788" lon="7.14648">
        <ele>736</ele>
        <time>2021-02-21T14:49:05.214Z</time>
      </trkpt>
      <trkpt lat="48.50789" lon="7.14646">
        <ele>736</ele>
        <time>2021-02-21T14:49:06.213Z</time>
      </trkpt>
      <trkpt lat="48.50789" lon="7.14644">
        <ele>736</ele>
        <time>2021-02-21T14:49:07.214Z</time>
      </trkpt>
      <trkpt lat="48.50789" lon="7.14643">
        <ele>737</ele>
        <time>2021-02-21T14:49:08.214Z</time>
      </trkpt>
      <trkpt lat="48.50789" lon="7.14641">
        <ele>737</ele>
        <time>2021-02-21T14:49:09.213Z</time>
      </trkpt>
      <trkpt lat="48.50789" lon="7.14639">
        <ele>737</ele>
        <time>2021-02-21T14:49:10.213Z</time>
      </trkpt>
      <trkpt lat="48.50789" lon="7.14637">
        <ele>737</ele>
        <time>2021-02-21T14:49:11.213Z</time>
      </trkpt>
      <trkpt lat="48.50788" lon="7.14635">
        <ele>736</ele>
        <time>2021-02-21T14:49:12.214Z</time>
      </trkpt>
      <trkpt lat="48.50788" lon="7.14633">
        <ele>736</ele>
        <time>2021-02-21T14:49:13.214Z</time>
      </trkpt>
      <trkpt lat="48.50787" lon="7.14632">
        <ele>735</ele>
        <time>2021-02-21T14:49:14.214Z</time>
      </trkpt>
      <trkpt lat="48.50787" lon="7.14631">
        <ele>735</ele>
        <time>2021-02-21T14:49:15.213Z</time>
      </trkpt>
      <trkpt lat="48.50787" lon="7.1463">
        <ele>735</ele>
        <time>2021-02-21T14:49:16.213Z</time>
      </trkpt>
      <trkpt lat="48.50786" lon="7.1463">
        <ele>735</ele>
        <time>2021-02-21T14:49:17.214Z</time>
      </trkpt>
      <trkpt lat="48.50786" lon="7.14631">
        <ele>735</ele>
        <time>2021-02-21T14:49:18.214Z</time>
      </trkpt>
      <trkpt lat="48.50784" lon="7.14633">
        <ele>735</ele>
        <time>2021-02-21T14:49:19.214Z</time>
      </trkpt>
    </trkseg>
  </trk>
</gpx>